<?xml version="1.0" encoding="UTF-8" standalone="no" ?>
<gpx xmlns="http://www.topografix.com/GPX/1/1" xmlns:xsi="http://www.w3.org/2001/XMLSchema-instance" xsi:schemaLocation="http://www.topografix.com/GPX/1/1 http://www.topografix.com/GPX/1/1/gpx.xsd" version="1.1" creator="VisuGPX - https://www.visugpx.com">
  <metadata>
    <name>Parcours de la transvésubienne 2011</name>
    <desc><![CDATA[Parcours de la transvésubienne 2011, a partir des traces et indications de Levens.]]></desc>
  </metadata>
  <trk>
    <name><![CDATA[TV 2011]]></name>
    <trkseg>
      <trkpt lat="44.07071" lon="7.22337">
        <ele>1487.777588</ele>
        <time>2010-05-30T04:29:45Z</time>
      </trkpt>
      <trkpt lat="44.07071" lon="7.22337">
        <ele>1488.258301</ele>
        <time>2010-05-30T04:29:46Z</time>
      </trkpt>
      <trkpt lat="44.07071" lon="7.22337">
        <ele>1488.739014</ele>
        <time>2010-05-30T04:29:47Z</time>
      </trkpt>
      <trkpt lat="44.07069" lon="7.22339">
        <ele>1489.700195</ele>
        <time>2010-05-30T04:29:50Z</time>
      </trkpt>
      <trkpt lat="44.07062" lon="7.22358">
        <ele>1493.064697</ele>
        <time>2010-05-30T04:29:54Z</time>
      </trkpt>
      <trkpt lat="44.07061" lon="7.22373">
        <ele>1492.103516</ele>
        <time>2010-05-30T04:29:56Z</time>
      </trkpt>
      <trkpt lat="44.07062" lon="7.2239">
        <ele>1491.14209</ele>
        <time>2010-05-30T04:29:58Z</time>
      </trkpt>
      <trkpt lat="44.07062" lon="7.2241">
        <ele>1489.700195</ele>
        <time>2010-05-30T04:30:00Z</time>
      </trkpt>
      <trkpt lat="44.07061" lon="7.22421">
        <ele>1488.739014</ele>
        <time>2010-05-30T04:30:01Z</time>
      </trkpt>
      <trkpt lat="44.07059" lon="7.22431">
        <ele>1487.777588</ele>
        <time>2010-05-30T04:30:02Z</time>
      </trkpt>
      <trkpt lat="44.07051" lon="7.22482">
        <ele>1483.932129</ele>
        <time>2010-05-30T04:30:07Z</time>
      </trkpt>
      <trkpt lat="44.0705" lon="7.22492">
        <ele>1483.451416</ele>
        <time>2010-05-30T04:30:08Z</time>
      </trkpt>
      <trkpt lat="44.07045" lon="7.22517">
        <ele>1479.125488</ele>
        <time>2010-05-30T04:30:11Z</time>
      </trkpt>
      <trkpt lat="44.07042" lon="7.22539">
        <ele>1477.203125</ele>
        <time>2010-05-30T04:30:14Z</time>
      </trkpt>
      <trkpt lat="44.07031" lon="7.22559">
        <ele>1474.799805</ele>
        <time>2010-05-30T04:30:18Z</time>
      </trkpt>
      <trkpt lat="44.07026" lon="7.22561">
        <ele>1475.760986</ele>
        <time>2010-05-30T04:30:19Z</time>
      </trkpt>
      <trkpt lat="44.07017" lon="7.22567">
        <ele>1475.280273</ele>
        <time>2010-05-30T04:30:22Z</time>
      </trkpt>
      <trkpt lat="44.07017" lon="7.2259">
        <ele>1470.473877</ele>
        <time>2010-05-30T04:30:26Z</time>
      </trkpt>
      <trkpt lat="44.07009" lon="7.22628">
        <ele>1457.496094</ele>
        <time>2010-05-30T04:30:31Z</time>
      </trkpt>
      <trkpt lat="44.06995" lon="7.22649">
        <ele>1454.612061</ele>
        <time>2010-05-30T04:30:34Z</time>
      </trkpt>
      <trkpt lat="44.06991" lon="7.22659">
        <ele>1453.170166</ele>
        <time>2010-05-30T04:30:35Z</time>
      </trkpt>
      <trkpt lat="44.06968" lon="7.2272">
        <ele>1444.518066</ele>
        <time>2010-05-30T04:30:40Z</time>
      </trkpt>
      <trkpt lat="44.06942" lon="7.22782">
        <ele>1434.905029</ele>
        <time>2010-05-30T04:30:45Z</time>
      </trkpt>
      <trkpt lat="44.06921" lon="7.22825">
        <ele>1427.695068</ele>
        <time>2010-05-30T04:30:49Z</time>
      </trkpt>
      <trkpt lat="44.0691" lon="7.2284">
        <ele>1426.733887</ele>
        <time>2010-05-30T04:30:51Z</time>
      </trkpt>
      <trkpt lat="44.06881" lon="7.22857">
        <ele>1429.136963</ele>
        <time>2010-05-30T04:30:55Z</time>
      </trkpt>
      <trkpt lat="44.06842" lon="7.22861">
        <ele>1436.347168</ele>
        <time>2010-05-30T04:31:01Z</time>
      </trkpt>
      <trkpt lat="44.06813" lon="7.22862">
        <ele>1438.269775</ele>
        <time>2010-05-30T04:31:07Z</time>
      </trkpt>
      <trkpt lat="44.06799" lon="7.22862">
        <ele>1438.750488</ele>
        <time>2010-05-30T04:31:10Z</time>
      </trkpt>
      <trkpt lat="44.06765" lon="7.22854">
        <ele>1442.11499</ele>
        <time>2010-05-30T04:31:18Z</time>
      </trkpt>
      <trkpt lat="44.06738" lon="7.22843">
        <ele>1447.4021</ele>
        <time>2010-05-30T04:31:25Z</time>
      </trkpt>
      <trkpt lat="44.06718" lon="7.22831">
        <ele>1449.80542</ele>
        <time>2010-05-30T04:31:31Z</time>
      </trkpt>
      <trkpt lat="44.06699" lon="7.22819">
        <ele>1453.650879</ele>
        <time>2010-05-30T04:31:38Z</time>
      </trkpt>
      <trkpt lat="44.06684" lon="7.22803">
        <ele>1454.131592</ele>
        <time>2010-05-30T04:31:44Z</time>
      </trkpt>
      <trkpt lat="44.06663" lon="7.22793">
        <ele>1457.496094</ele>
        <time>2010-05-30T04:31:52Z</time>
      </trkpt>
      <trkpt lat="44.06655" lon="7.22791">
        <ele>1457.976807</ele>
        <time>2010-05-30T04:31:57Z</time>
      </trkpt>
      <trkpt lat="44.06641" lon="7.22782">
        <ele>1458.457275</ele>
        <time>2010-05-30T04:32:03Z</time>
      </trkpt>
      <trkpt lat="44.06633" lon="7.22775">
        <ele>1459.89917</ele>
        <time>2010-05-30T04:32:08Z</time>
      </trkpt>
      <trkpt lat="44.06624" lon="7.22768">
        <ele>1464.225098</ele>
        <time>2010-05-30T04:32:14Z</time>
      </trkpt>
      <trkpt lat="44.06615" lon="7.22758">
        <ele>1467.109131</ele>
        <time>2010-05-30T04:32:21Z</time>
      </trkpt>
      <trkpt lat="44.06604" lon="7.22749">
        <ele>1469.993164</ele>
        <time>2010-05-30T04:32:29Z</time>
      </trkpt>
      <trkpt lat="44.06591" lon="7.22748">
        <ele>1471.915771</ele>
        <time>2010-05-30T04:32:36Z</time>
      </trkpt>
      <trkpt lat="44.06581" lon="7.22741">
        <ele>1472.396484</ele>
        <time>2010-05-30T04:32:43Z</time>
      </trkpt>
      <trkpt lat="44.06569" lon="7.22733">
        <ele>1471.435059</ele>
        <time>2010-05-30T04:32:51Z</time>
      </trkpt>
      <trkpt lat="44.06557" lon="7.22728">
        <ele>1475.280273</ele>
        <time>2010-05-30T04:32:58Z</time>
      </trkpt>
      <trkpt lat="44.06551" lon="7.22712">
        <ele>1480.086914</ele>
        <time>2010-05-30T04:33:06Z</time>
      </trkpt>
      <trkpt lat="44.06543" lon="7.22707">
        <ele>1481.04834</ele>
        <time>2010-05-30T04:33:10Z</time>
      </trkpt>
      <trkpt lat="44.06538" lon="7.22706">
        <ele>1479.125488</ele>
        <time>2010-05-30T04:33:12Z</time>
      </trkpt>
      <trkpt lat="44.06515" lon="7.22704">
        <ele>1473.35791</ele>
        <time>2010-05-30T04:33:22Z</time>
      </trkpt>
      <trkpt lat="44.06499" lon="7.22703">
        <ele>1477.683594</ele>
        <time>2010-05-30T04:33:29Z</time>
      </trkpt>
      <trkpt lat="44.06493" lon="7.2269">
        <ele>1485.374268</ele>
        <time>2010-05-30T04:33:36Z</time>
      </trkpt>
      <trkpt lat="44.06489" lon="7.22679">
        <ele>1490.180908</ele>
        <time>2010-05-30T04:33:41Z</time>
      </trkpt>
      <trkpt lat="44.0648" lon="7.22666">
        <ele>1494.506592</ele>
        <time>2010-05-30T04:33:48Z</time>
      </trkpt>
      <trkpt lat="44.06468" lon="7.22651">
        <ele>1492.103516</ele>
        <time>2010-05-30T04:33:56Z</time>
      </trkpt>
      <trkpt lat="44.06464" lon="7.22635">
        <ele>1489.700195</ele>
        <time>2010-05-30T04:34:02Z</time>
      </trkpt>
      <trkpt lat="44.06464" lon="7.22619">
        <ele>1489.700195</ele>
        <time>2010-05-30T04:34:09Z</time>
      </trkpt>
      <trkpt lat="44.06466" lon="7.226">
        <ele>1491.14209</ele>
        <time>2010-05-30T04:34:17Z</time>
      </trkpt>
      <trkpt lat="44.06466" lon="7.22584">
        <ele>1493.064697</ele>
        <time>2010-05-30T04:34:24Z</time>
      </trkpt>
      <trkpt lat="44.06462" lon="7.22566">
        <ele>1494.987305</ele>
        <time>2010-05-30T04:34:32Z</time>
      </trkpt>
      <trkpt lat="44.06454" lon="7.22548">
        <ele>1499.793945</ele>
        <time>2010-05-30T04:34:41Z</time>
      </trkpt>
      <trkpt lat="44.06446" lon="7.22535">
        <ele>1503.639404</ele>
        <time>2010-05-30T04:34:48Z</time>
      </trkpt>
      <trkpt lat="44.06439" lon="7.22522">
        <ele>1506.523193</ele>
        <time>2010-05-30T04:34:55Z</time>
      </trkpt>
      <trkpt lat="44.0643" lon="7.22501">
        <ele>1507.003906</ele>
        <time>2010-05-30T04:35:05Z</time>
      </trkpt>
      <trkpt lat="44.06424" lon="7.22486">
        <ele>1508.926514</ele>
        <time>2010-05-30T04:35:12Z</time>
      </trkpt>
      <trkpt lat="44.06418" lon="7.22467">
        <ele>1510.368408</ele>
        <time>2010-05-30T04:35:20Z</time>
      </trkpt>
      <trkpt lat="44.06413" lon="7.22449">
        <ele>1517.578369</ele>
        <time>2010-05-30T04:35:28Z</time>
      </trkpt>
      <trkpt lat="44.06413" lon="7.22431">
        <ele>1520.943115</ele>
        <time>2010-05-30T04:35:35Z</time>
      </trkpt>
      <trkpt lat="44.06413" lon="7.22414">
        <ele>1524.307617</ele>
        <time>2010-05-30T04:35:42Z</time>
      </trkpt>
      <trkpt lat="44.06407" lon="7.22413">
        <ele>1495.94873</ele>
        <time>2011-05-15T05:47:52Z</time>
      </trkpt>
      <trkpt lat="44.06402" lon="7.22403">
        <ele>1496.429443</ele>
        <time>2011-05-15T05:47:56Z</time>
      </trkpt>
      <trkpt lat="44.06399" lon="7.22392">
        <ele>1499.313232</ele>
        <time>2011-05-15T05:48:02Z</time>
      </trkpt>
      <trkpt lat="44.06397" lon="7.22383">
        <ele>1499.793945</ele>
        <time>2011-05-15T05:48:07Z</time>
      </trkpt>
      <trkpt lat="44.06396" lon="7.22376">
        <ele>1499.793945</ele>
        <time>2011-05-15T05:48:11Z</time>
      </trkpt>
      <trkpt lat="44.06393" lon="7.22363">
        <ele>1500.755371</ele>
        <time>2011-05-15T05:48:19Z</time>
      </trkpt>
      <trkpt lat="44.06393" lon="7.2236">
        <ele>1503.639404</ele>
        <time>2011-05-15T05:48:23Z</time>
      </trkpt>
      <trkpt lat="44.06392" lon="7.2235">
        <ele>1508.926514</ele>
        <time>2011-05-15T05:48:30Z</time>
      </trkpt>
      <trkpt lat="44.0639" lon="7.22337">
        <ele>1513.252441</ele>
        <time>2011-05-15T05:48:40Z</time>
      </trkpt>
      <trkpt lat="44.06388" lon="7.22325">
        <ele>1517.0979</ele>
        <time>2011-05-15T05:48:49Z</time>
      </trkpt>
      <trkpt lat="44.06385" lon="7.22312">
        <ele>1519.981689</ele>
        <time>2011-05-15T05:48:59Z</time>
      </trkpt>
      <trkpt lat="44.06382" lon="7.22305">
        <ele>1517.578369</ele>
        <time>2011-05-15T05:49:07Z</time>
      </trkpt>
      <trkpt lat="44.0638" lon="7.22296">
        <ele>1517.578369</ele>
        <time>2011-05-15T05:49:13Z</time>
      </trkpt>
      <trkpt lat="44.06376" lon="7.22281">
        <ele>1516.617188</ele>
        <time>2011-05-15T05:49:21Z</time>
      </trkpt>
      <trkpt lat="44.06373" lon="7.22265">
        <ele>1517.0979</ele>
        <time>2011-05-15T05:49:29Z</time>
      </trkpt>
      <trkpt lat="44.06369" lon="7.22249">
        <ele>1516.617188</ele>
        <time>2011-05-15T05:49:38Z</time>
      </trkpt>
      <trkpt lat="44.06369" lon="7.22237">
        <ele>1519.020508</ele>
        <time>2011-05-15T05:49:45Z</time>
      </trkpt>
      <trkpt lat="44.06369" lon="7.22233">
        <ele>1519.501221</ele>
        <time>2011-05-15T05:49:47Z</time>
      </trkpt>
      <trkpt lat="44.06366" lon="7.22221">
        <ele>1520.462402</ele>
        <time>2011-05-15T05:49:54Z</time>
      </trkpt>
      <trkpt lat="44.06362" lon="7.22208">
        <ele>1522.865723</ele>
        <time>2011-05-15T05:50:02Z</time>
      </trkpt>
      <trkpt lat="44.06359" lon="7.22195">
        <ele>1521.904297</ele>
        <time>2011-05-15T05:50:10Z</time>
      </trkpt>
      <trkpt lat="44.06356" lon="7.22179">
        <ele>1521.904297</ele>
        <time>2011-05-15T05:50:20Z</time>
      </trkpt>
      <trkpt lat="44.06353" lon="7.22164">
        <ele>1519.981689</ele>
        <time>2011-05-15T05:50:29Z</time>
      </trkpt>
      <trkpt lat="44.0635" lon="7.22149">
        <ele>1520.462402</ele>
        <time>2011-05-15T05:50:39Z</time>
      </trkpt>
      <trkpt lat="44.06348" lon="7.22137">
        <ele>1519.981689</ele>
        <time>2011-05-15T05:50:47Z</time>
      </trkpt>
      <trkpt lat="44.06348" lon="7.2213">
        <ele>1519.020508</ele>
        <time>2011-05-15T05:50:52Z</time>
      </trkpt>
      <trkpt lat="44.06347" lon="7.22116">
        <ele>1527.19165</ele>
        <time>2011-05-15T05:51:00Z</time>
      </trkpt>
      <trkpt lat="44.06345" lon="7.22107">
        <ele>1531.998047</ele>
        <time>2011-05-15T05:51:07Z</time>
      </trkpt>
      <trkpt lat="44.06346" lon="7.221">
        <ele>1539.688721</ele>
        <time>2011-05-15T05:51:13Z</time>
      </trkpt>
      <trkpt lat="44.06345" lon="7.22085">
        <ele>1549.302002</ele>
        <time>2011-05-15T05:51:25Z</time>
      </trkpt>
      <trkpt lat="44.06342" lon="7.22075">
        <ele>1552.666504</ele>
        <time>2011-05-15T05:51:36Z</time>
      </trkpt>
      <trkpt lat="44.06337" lon="7.22068">
        <ele>1555.069824</ele>
        <time>2011-05-15T05:51:44Z</time>
      </trkpt>
      <trkpt lat="44.06331" lon="7.22066">
        <ele>1555.069824</ele>
        <time>2011-05-15T05:51:50Z</time>
      </trkpt>
      <trkpt lat="44.06325" lon="7.22068">
        <ele>1553.62793</ele>
        <time>2011-05-15T05:51:55Z</time>
      </trkpt>
      <trkpt lat="44.06321" lon="7.22075">
        <ele>1551.705322</ele>
        <time>2011-05-15T05:52:01Z</time>
      </trkpt>
      <trkpt lat="44.06311" lon="7.22093">
        <ele>1552.666504</ele>
        <time>2011-05-15T05:52:10Z</time>
      </trkpt>
      <trkpt lat="44.06303" lon="7.22105">
        <ele>1555.550537</ele>
        <time>2011-05-15T05:52:17Z</time>
      </trkpt>
      <trkpt lat="44.06296" lon="7.22118">
        <ele>1557.953857</ele>
        <time>2011-05-15T05:52:24Z</time>
      </trkpt>
      <trkpt lat="44.06288" lon="7.22131">
        <ele>1560.356934</ele>
        <time>2011-05-15T05:52:32Z</time>
      </trkpt>
      <trkpt lat="44.0628" lon="7.22143">
        <ele>1563.240967</ele>
        <time>2011-05-15T05:52:40Z</time>
      </trkpt>
      <trkpt lat="44.06275" lon="7.22152">
        <ele>1565.163818</ele>
        <time>2011-05-15T05:52:47Z</time>
      </trkpt>
      <trkpt lat="44.0627" lon="7.22161">
        <ele>1567.086426</ele>
        <time>2011-05-15T05:52:54Z</time>
      </trkpt>
      <trkpt lat="44.06263" lon="7.22174">
        <ele>1569.009033</ele>
        <time>2011-05-15T05:53:03Z</time>
      </trkpt>
      <trkpt lat="44.06256" lon="7.22187">
        <ele>1572.373535</ele>
        <time>2011-05-15T05:53:12Z</time>
      </trkpt>
      <trkpt lat="44.06251" lon="7.22191">
        <ele>1572.373535</ele>
        <time>2011-05-15T05:53:17Z</time>
      </trkpt>
      <trkpt lat="44.06246" lon="7.22198">
        <ele>1573.334961</ele>
        <time>2011-05-15T05:53:22Z</time>
      </trkpt>
      <trkpt lat="44.06237" lon="7.22213">
        <ele>1576.21875</ele>
        <time>2011-05-15T05:53:32Z</time>
      </trkpt>
      <trkpt lat="44.06225" lon="7.22229">
        <ele>1578.62207</ele>
        <time>2011-05-15T05:53:43Z</time>
      </trkpt>
      <trkpt lat="44.06219" lon="7.22239">
        <ele>1580.064209</ele>
        <time>2011-05-15T05:53:50Z</time>
      </trkpt>
      <trkpt lat="44.06211" lon="7.22247">
        <ele>1581.506104</ele>
        <time>2011-05-15T05:53:58Z</time>
      </trkpt>
      <trkpt lat="44.06203" lon="7.22252">
        <ele>1579.583252</ele>
        <time>2011-05-15T05:54:06Z</time>
      </trkpt>
      <trkpt lat="44.06192" lon="7.22256">
        <ele>1578.62207</ele>
        <time>2011-05-15T05:54:14Z</time>
      </trkpt>
      <trkpt lat="44.06174" lon="7.22265">
        <ele>1579.583252</ele>
        <time>2011-05-15T05:54:26Z</time>
      </trkpt>
      <trkpt lat="44.06156" lon="7.22272">
        <ele>1582.467529</ele>
        <time>2011-05-15T05:54:37Z</time>
      </trkpt>
      <trkpt lat="44.06139" lon="7.22279">
        <ele>1584.87085</ele>
        <time>2011-05-15T05:54:47Z</time>
      </trkpt>
      <trkpt lat="44.06122" lon="7.22286">
        <ele>1585.832031</ele>
        <time>2011-05-15T05:54:58Z</time>
      </trkpt>
      <trkpt lat="44.06107" lon="7.22301">
        <ele>1588.235352</ele>
        <time>2011-05-15T05:55:09Z</time>
      </trkpt>
      <trkpt lat="44.06098" lon="7.22314">
        <ele>1590.157959</ele>
        <time>2011-05-15T05:55:17Z</time>
      </trkpt>
      <trkpt lat="44.06089" lon="7.22333">
        <ele>1591.599854</ele>
        <time>2011-05-15T05:55:25Z</time>
      </trkpt>
      <trkpt lat="44.0608" lon="7.2236">
        <ele>1593.041748</ele>
        <time>2011-05-15T05:55:33Z</time>
      </trkpt>
      <trkpt lat="44.06073" lon="7.22385">
        <ele>1595.445068</ele>
        <time>2011-05-15T05:55:42Z</time>
      </trkpt>
      <trkpt lat="44.06067" lon="7.22413">
        <ele>1598.329102</ele>
        <time>2011-05-15T05:55:52Z</time>
      </trkpt>
      <trkpt lat="44.06061" lon="7.22438">
        <ele>1601.213135</ele>
        <time>2011-05-15T05:56:01Z</time>
      </trkpt>
      <trkpt lat="44.06055" lon="7.22462">
        <ele>1603.616455</ele>
        <time>2011-05-15T05:56:10Z</time>
      </trkpt>
      <trkpt lat="44.06049" lon="7.22489">
        <ele>1606.980957</ele>
        <time>2011-05-15T05:56:20Z</time>
      </trkpt>
      <trkpt lat="44.06046" lon="7.22516">
        <ele>1608.903564</ele>
        <time>2011-05-15T05:56:29Z</time>
      </trkpt>
      <trkpt lat="44.06044" lon="7.22538">
        <ele>1609.864746</ele>
        <time>2011-05-15T05:56:37Z</time>
      </trkpt>
      <trkpt lat="44.06044" lon="7.22548">
        <ele>1610.345459</ele>
        <time>2011-05-15T05:56:42Z</time>
      </trkpt>
      <trkpt lat="44.06043" lon="7.22565">
        <ele>1612.268311</ele>
        <time>2011-05-15T05:56:49Z</time>
      </trkpt>
      <trkpt lat="44.06042" lon="7.2259">
        <ele>1614.671631</ele>
        <time>2011-05-15T05:56:59Z</time>
      </trkpt>
      <trkpt lat="44.06041" lon="7.22614">
        <ele>1617.074951</ele>
        <time>2011-05-15T05:57:09Z</time>
      </trkpt>
      <trkpt lat="44.06041" lon="7.22634">
        <ele>1620.439453</ele>
        <time>2011-05-15T05:57:17Z</time>
      </trkpt>
      <trkpt lat="44.06042" lon="7.22656">
        <ele>1624.284668</ele>
        <time>2011-05-15T05:57:26Z</time>
      </trkpt>
      <trkpt lat="44.06042" lon="7.22678">
        <ele>1627.168701</ele>
        <time>2011-05-15T05:57:35Z</time>
      </trkpt>
      <trkpt lat="44.06041" lon="7.22696">
        <ele>1628.130127</ele>
        <time>2011-05-15T05:57:43Z</time>
      </trkpt>
      <trkpt lat="44.06041" lon="7.22722">
        <ele>1630.533447</ele>
        <time>2011-05-15T05:57:54Z</time>
      </trkpt>
      <trkpt lat="44.06041" lon="7.22744">
        <ele>1630.533447</ele>
        <time>2011-05-15T05:58:03Z</time>
      </trkpt>
      <trkpt lat="44.06042" lon="7.22766">
        <ele>1633.417236</ele>
        <time>2011-05-15T05:58:12Z</time>
      </trkpt>
      <trkpt lat="44.06044" lon="7.22786">
        <ele>1635.820557</ele>
        <time>2011-05-15T05:58:20Z</time>
      </trkpt>
      <trkpt lat="44.06043" lon="7.22798">
        <ele>1636.781738</ele>
        <time>2011-05-15T05:58:25Z</time>
      </trkpt>
      <trkpt lat="44.06046" lon="7.22806">
        <ele>1637.743164</ele>
        <time>2011-05-15T05:58:29Z</time>
      </trkpt>
      <trkpt lat="44.06045" lon="7.22823">
        <ele>1640.626953</ele>
        <time>2011-05-15T05:58:37Z</time>
      </trkpt>
      <trkpt lat="44.06038" lon="7.22832">
        <ele>1643.030273</ele>
        <time>2011-05-15T05:58:44Z</time>
      </trkpt>
      <trkpt lat="44.06027" lon="7.22827">
        <ele>1643.991699</ele>
        <time>2011-05-15T05:58:52Z</time>
      </trkpt>
      <trkpt lat="44.06018" lon="7.22814">
        <ele>1644.953125</ele>
        <time>2011-05-15T05:59:01Z</time>
      </trkpt>
      <trkpt lat="44.06011" lon="7.22802">
        <ele>1644.472412</ele>
        <time>2011-05-15T05:59:09Z</time>
      </trkpt>
      <trkpt lat="44.06005" lon="7.22793">
        <ele>1646.395264</ele>
        <time>2011-05-15T05:59:17Z</time>
      </trkpt>
      <trkpt lat="44.06001" lon="7.22783">
        <ele>1646.875732</ele>
        <time>2011-05-15T05:59:24Z</time>
      </trkpt>
      <trkpt lat="44.06001" lon="7.22778">
        <ele>1649.759766</ele>
        <time>2011-05-15T05:59:28Z</time>
      </trkpt>
      <trkpt lat="44.05994" lon="7.22765">
        <ele>1650.240479</ele>
        <time>2011-05-15T05:59:36Z</time>
      </trkpt>
      <trkpt lat="44.05998" lon="7.22748">
        <ele>1649.759766</ele>
        <time>2011-05-15T05:59:43Z</time>
      </trkpt>
      <trkpt lat="44.05995" lon="7.22738">
        <ele>1651.20166</ele>
        <time>2011-05-15T05:59:48Z</time>
      </trkpt>
      <trkpt lat="44.05987" lon="7.22725">
        <ele>1651.20166</ele>
        <time>2011-05-15T05:59:56Z</time>
      </trkpt>
      <trkpt lat="44.05983" lon="7.22713">
        <ele>1656.008057</ele>
        <time>2011-05-15T06:00:04Z</time>
      </trkpt>
      <trkpt lat="44.05981" lon="7.2271">
        <ele>1656.969482</ele>
        <time>2011-05-15T06:00:06Z</time>
      </trkpt>
      <trkpt lat="44.05973" lon="7.22696">
        <ele>1659.853271</ele>
        <time>2011-05-15T06:00:16Z</time>
      </trkpt>
      <trkpt lat="44.05964" lon="7.22683">
        <ele>1662.256836</ele>
        <time>2011-05-15T06:00:26Z</time>
      </trkpt>
      <trkpt lat="44.05954" lon="7.22669">
        <ele>1662.737549</ele>
        <time>2011-05-15T06:00:36Z</time>
      </trkpt>
      <trkpt lat="44.05944" lon="7.22656">
        <ele>1662.737549</ele>
        <time>2011-05-15T06:00:45Z</time>
      </trkpt>
      <trkpt lat="44.05935" lon="7.22642">
        <ele>1661.776367</ele>
        <time>2011-05-15T06:00:54Z</time>
      </trkpt>
      <trkpt lat="44.05926" lon="7.22628">
        <ele>1660.814941</ele>
        <time>2011-05-15T06:01:04Z</time>
      </trkpt>
      <trkpt lat="44.05917" lon="7.22613">
        <ele>1661.776367</ele>
        <time>2011-05-15T06:01:14Z</time>
      </trkpt>
      <trkpt lat="44.05908" lon="7.22596">
        <ele>1664.179443</ele>
        <time>2011-05-15T06:01:25Z</time>
      </trkpt>
      <trkpt lat="44.05901" lon="7.22582">
        <ele>1665.621582</ele>
        <time>2011-05-15T06:01:35Z</time>
      </trkpt>
      <trkpt lat="44.05891" lon="7.22571">
        <ele>1667.543945</ele>
        <time>2011-05-15T06:01:44Z</time>
      </trkpt>
      <trkpt lat="44.05881" lon="7.22558">
        <ele>1668.024658</ele>
        <time>2011-05-15T06:01:54Z</time>
      </trkpt>
      <trkpt lat="44.05872" lon="7.22548">
        <ele>1670.427979</ele>
        <time>2011-05-15T06:02:03Z</time>
      </trkpt>
      <trkpt lat="44.05862" lon="7.22538">
        <ele>1672.350586</ele>
        <time>2011-05-15T06:02:13Z</time>
      </trkpt>
      <trkpt lat="44.05858" lon="7.22529">
        <ele>1672.831299</ele>
        <time>2011-05-15T06:02:19Z</time>
      </trkpt>
      <trkpt lat="44.05854" lon="7.22519">
        <ele>1673.312012</ele>
        <time>2011-05-15T06:02:26Z</time>
      </trkpt>
      <trkpt lat="44.05848" lon="7.22507">
        <ele>1675.715088</ele>
        <time>2011-05-15T06:02:35Z</time>
      </trkpt>
      <trkpt lat="44.05844" lon="7.22495">
        <ele>1677.637939</ele>
        <time>2011-05-15T06:02:43Z</time>
      </trkpt>
      <trkpt lat="44.0584" lon="7.22483">
        <ele>1679.079834</ele>
        <time>2011-05-15T06:02:51Z</time>
      </trkpt>
      <trkpt lat="44.0584" lon="7.22482">
        <ele>1679.560547</ele>
        <time>2011-05-15T06:02:52Z</time>
      </trkpt>
      <trkpt lat="44.05838" lon="7.22474">
        <ele>1679.560547</ele>
        <time>2011-05-15T06:02:57Z</time>
      </trkpt>
      <trkpt lat="44.05839" lon="7.22459">
        <ele>1681.483154</ele>
        <time>2011-05-15T06:03:07Z</time>
      </trkpt>
      <trkpt lat="44.05838" lon="7.22457">
        <ele>1681.963867</ele>
        <time>2011-05-15T06:03:09Z</time>
      </trkpt>
      <trkpt lat="44.05838" lon="7.22443">
        <ele>1684.367188</ele>
        <time>2011-05-15T06:03:18Z</time>
      </trkpt>
      <trkpt lat="44.05836" lon="7.22439">
        <ele>1685.328369</ele>
        <time>2011-05-15T06:03:21Z</time>
      </trkpt>
      <trkpt lat="44.05837" lon="7.22424">
        <ele>1689.173584</ele>
        <time>2011-05-15T06:03:30Z</time>
      </trkpt>
      <trkpt lat="44.05839" lon="7.22412">
        <ele>1691.096191</ele>
        <time>2011-05-15T06:03:38Z</time>
      </trkpt>
      <trkpt lat="44.05842" lon="7.22397">
        <ele>1696.383789</ele>
        <time>2011-05-15T06:03:49Z</time>
      </trkpt>
      <trkpt lat="44.05844" lon="7.22383">
        <ele>1700.709473</ele>
        <time>2011-05-15T06:03:59Z</time>
      </trkpt>
      <trkpt lat="44.05847" lon="7.22369">
        <ele>1702.151367</ele>
        <time>2011-05-15T06:04:08Z</time>
      </trkpt>
      <trkpt lat="44.0585" lon="7.22354">
        <ele>1705.516113</ele>
        <time>2011-05-15T06:04:17Z</time>
      </trkpt>
      <trkpt lat="44.05852" lon="7.22338">
        <ele>1707.919434</ele>
        <time>2011-05-15T06:04:27Z</time>
      </trkpt>
      <trkpt lat="44.05852" lon="7.22334">
        <ele>1707.919434</ele>
        <time>2011-05-15T06:04:30Z</time>
      </trkpt>
      <trkpt lat="44.05854" lon="7.22324">
        <ele>1708.400146</ele>
        <time>2011-05-15T06:04:37Z</time>
      </trkpt>
      <trkpt lat="44.05856" lon="7.22305">
        <ele>1710.322754</ele>
        <time>2011-05-15T06:04:49Z</time>
      </trkpt>
      <trkpt lat="44.05858" lon="7.22285">
        <ele>1711.764893</ele>
        <time>2011-05-15T06:04:59Z</time>
      </trkpt>
      <trkpt lat="44.05861" lon="7.2226">
        <ele>1712.245361</ele>
        <time>2011-05-15T06:05:10Z</time>
      </trkpt>
      <trkpt lat="44.05862" lon="7.2224">
        <ele>1713.206787</ele>
        <time>2011-05-15T06:05:19Z</time>
      </trkpt>
      <trkpt lat="44.05864" lon="7.22223">
        <ele>1713.687256</ele>
        <time>2011-05-15T06:05:27Z</time>
      </trkpt>
      <trkpt lat="44.05867" lon="7.22204">
        <ele>1716.571289</ele>
        <time>2011-05-15T06:05:37Z</time>
      </trkpt>
      <trkpt lat="44.0587" lon="7.22183">
        <ele>1719.455322</ele>
        <time>2011-05-15T06:05:48Z</time>
      </trkpt>
      <trkpt lat="44.05873" lon="7.22168">
        <ele>1720.897217</ele>
        <time>2011-05-15T06:05:57Z</time>
      </trkpt>
      <trkpt lat="44.05878" lon="7.22152">
        <ele>1724.261963</ele>
        <time>2011-05-15T06:06:08Z</time>
      </trkpt>
      <trkpt lat="44.05882" lon="7.22136">
        <ele>1727.626465</ele>
        <time>2011-05-15T06:06:18Z</time>
      </trkpt>
      <trkpt lat="44.05888" lon="7.2212">
        <ele>1730.029785</ele>
        <time>2011-05-15T06:06:29Z</time>
      </trkpt>
      <trkpt lat="44.05893" lon="7.22105">
        <ele>1731.952393</ele>
        <time>2011-05-15T06:06:38Z</time>
      </trkpt>
      <trkpt lat="44.05899" lon="7.22089">
        <ele>1734.836426</ele>
        <time>2011-05-15T06:06:48Z</time>
      </trkpt>
      <trkpt lat="44.05901" lon="7.22077">
        <ele>1735.797607</ele>
        <time>2011-05-15T06:06:55Z</time>
      </trkpt>
      <trkpt lat="44.059" lon="7.22075">
        <ele>1735.797607</ele>
        <time>2011-05-15T06:06:56Z</time>
      </trkpt>
      <trkpt lat="44.0589" lon="7.22076">
        <ele>1733.875</ele>
        <time>2011-05-15T06:07:02Z</time>
      </trkpt>
      <trkpt lat="44.05888" lon="7.22079">
        <ele>1732.913574</ele>
        <time>2011-05-15T06:07:04Z</time>
      </trkpt>
      <trkpt lat="44.05883" lon="7.22084">
        <ele>1731.47168</ele>
        <time>2011-05-15T06:07:08Z</time>
      </trkpt>
      <trkpt lat="44.05873" lon="7.22092">
        <ele>1732.433105</ele>
        <time>2011-05-15T06:07:14Z</time>
      </trkpt>
      <trkpt lat="44.05858" lon="7.22103">
        <ele>1732.913574</ele>
        <time>2011-05-15T06:07:25Z</time>
      </trkpt>
      <trkpt lat="44.05845" lon="7.22112">
        <ele>1732.913574</ele>
        <time>2011-05-15T06:07:34Z</time>
      </trkpt>
      <trkpt lat="44.05831" lon="7.22123">
        <ele>1734.836426</ele>
        <time>2011-05-15T06:07:44Z</time>
      </trkpt>
      <trkpt lat="44.05816" lon="7.22138">
        <ele>1736.758789</ele>
        <time>2011-05-15T06:07:55Z</time>
      </trkpt>
      <trkpt lat="44.05805" lon="7.22148">
        <ele>1737.720215</ele>
        <time>2011-05-15T06:08:03Z</time>
      </trkpt>
      <trkpt lat="44.05791" lon="7.22161">
        <ele>1738.200928</ele>
        <time>2011-05-15T06:08:12Z</time>
      </trkpt>
      <trkpt lat="44.05777" lon="7.22168">
        <ele>1740.123779</ele>
        <time>2011-05-15T06:08:22Z</time>
      </trkpt>
      <trkpt lat="44.05769" lon="7.2217">
        <ele>1741.084961</ele>
        <time>2011-05-15T06:08:28Z</time>
      </trkpt>
      <trkpt lat="44.05764" lon="7.22157">
        <ele>1742.046387</ele>
        <time>2011-05-15T06:08:35Z</time>
      </trkpt>
      <trkpt lat="44.05764" lon="7.2214">
        <ele>1744.930176</ele>
        <time>2011-05-15T06:08:44Z</time>
      </trkpt>
      <trkpt lat="44.05765" lon="7.22128">
        <ele>1748.775391</ele>
        <time>2011-05-15T06:08:52Z</time>
      </trkpt>
      <trkpt lat="44.0577" lon="7.22111">
        <ele>1754.543213</ele>
        <time>2011-05-15T06:09:04Z</time>
      </trkpt>
      <trkpt lat="44.05773" lon="7.22098">
        <ele>1757.908203</ele>
        <time>2011-05-15T06:09:13Z</time>
      </trkpt>
      <trkpt lat="44.05773" lon="7.22093">
        <ele>1758.869385</ele>
        <time>2011-05-15T06:09:16Z</time>
      </trkpt>
      <trkpt lat="44.05774" lon="7.22087">
        <ele>1758.869385</ele>
        <time>2011-05-15T06:09:20Z</time>
      </trkpt>
      <trkpt lat="44.05774" lon="7.22077">
        <ele>1759.350098</ele>
        <time>2011-05-15T06:09:26Z</time>
      </trkpt>
      <trkpt lat="44.05776" lon="7.22068">
        <ele>1760.311279</ele>
        <time>2011-05-15T06:09:31Z</time>
      </trkpt>
      <trkpt lat="44.05783" lon="7.22056">
        <ele>1762.233887</ele>
        <time>2011-05-15T06:09:40Z</time>
      </trkpt>
      <trkpt lat="44.0579" lon="7.22045">
        <ele>1764.156494</ele>
        <time>2011-05-15T06:09:48Z</time>
      </trkpt>
      <trkpt lat="44.05794" lon="7.22038">
        <ele>1765.598633</ele>
        <time>2011-05-15T06:09:52Z</time>
      </trkpt>
      <trkpt lat="44.05795" lon="7.22029">
        <ele>1766.559814</ele>
        <time>2011-05-15T06:09:58Z</time>
      </trkpt>
      <trkpt lat="44.05792" lon="7.22014">
        <ele>1765.11792</ele>
        <time>2011-05-15T06:10:05Z</time>
      </trkpt>
      <trkpt lat="44.05793" lon="7.21994">
        <ele>1762.7146</ele>
        <time>2011-05-15T06:10:13Z</time>
      </trkpt>
      <trkpt lat="44.05791" lon="7.21972">
        <ele>1760.791992</ele>
        <time>2011-05-15T06:10:19Z</time>
      </trkpt>
      <trkpt lat="44.05789" lon="7.21938">
        <ele>1758.388672</ele>
        <time>2011-05-15T06:10:25Z</time>
      </trkpt>
      <trkpt lat="44.05785" lon="7.21903">
        <ele>1755.985107</ele>
        <time>2011-05-15T06:10:29Z</time>
      </trkpt>
      <trkpt lat="44.0577" lon="7.21856">
        <ele>1752.620605</ele>
        <time>2011-05-15T06:10:35Z</time>
      </trkpt>
      <trkpt lat="44.05755" lon="7.21833">
        <ele>1751.659424</ele>
        <time>2011-05-15T06:10:40Z</time>
      </trkpt>
      <trkpt lat="44.05744" lon="7.21818">
        <ele>1749.736816</ele>
        <time>2011-05-15T06:10:44Z</time>
      </trkpt>
      <trkpt lat="44.0573" lon="7.2179">
        <ele>1746.852783</ele>
        <time>2011-05-15T06:10:50Z</time>
      </trkpt>
      <trkpt lat="44.05714" lon="7.21768">
        <ele>1745.410889</ele>
        <time>2011-05-15T06:10:54Z</time>
      </trkpt>
      <trkpt lat="44.05694" lon="7.21749">
        <ele>1743.488281</ele>
        <time>2011-05-15T06:10:58Z</time>
      </trkpt>
      <trkpt lat="44.05678" lon="7.21735">
        <ele>1742.046387</ele>
        <time>2011-05-15T06:11:02Z</time>
      </trkpt>
      <trkpt lat="44.05667" lon="7.21721">
        <ele>1739.642822</ele>
        <time>2011-05-15T06:11:05Z</time>
      </trkpt>
      <trkpt lat="44.05653" lon="7.21679">
        <ele>1735.316895</ele>
        <time>2011-05-15T06:11:10Z</time>
      </trkpt>
      <trkpt lat="44.05642" lon="7.21658">
        <ele>1732.433105</ele>
        <time>2011-05-15T06:11:13Z</time>
      </trkpt>
      <trkpt lat="44.05625" lon="7.21642">
        <ele>1731.47168</ele>
        <time>2011-05-15T06:11:16Z</time>
      </trkpt>
      <trkpt lat="44.05605" lon="7.21634">
        <ele>1730.029785</ele>
        <time>2011-05-15T06:11:20Z</time>
      </trkpt>
      <trkpt lat="44.0559" lon="7.21628">
        <ele>1729.549072</ele>
        <time>2011-05-15T06:11:25Z</time>
      </trkpt>
      <trkpt lat="44.05575" lon="7.21621">
        <ele>1730.510498</ele>
        <time>2011-05-15T06:11:32Z</time>
      </trkpt>
      <trkpt lat="44.0556" lon="7.21614">
        <ele>1730.991211</ele>
        <time>2011-05-15T06:11:38Z</time>
      </trkpt>
      <trkpt lat="44.05541" lon="7.21611">
        <ele>1726.665283</ele>
        <time>2011-05-15T06:11:43Z</time>
      </trkpt>
      <trkpt lat="44.05505" lon="7.21605">
        <ele>1723.781006</ele>
        <time>2011-05-15T06:11:50Z</time>
      </trkpt>
      <trkpt lat="44.0548" lon="7.21603">
        <ele>1724.261963</ele>
        <time>2011-05-15T06:11:56Z</time>
      </trkpt>
      <trkpt lat="44.05466" lon="7.21601">
        <ele>1723.781006</ele>
        <time>2011-05-15T06:12:01Z</time>
      </trkpt>
      <trkpt lat="44.05431" lon="7.21597">
        <ele>1721.858398</ele>
        <time>2011-05-15T06:12:10Z</time>
      </trkpt>
      <trkpt lat="44.05422" lon="7.21596">
        <ele>1721.377686</ele>
        <time>2011-05-15T06:12:12Z</time>
      </trkpt>
      <trkpt lat="44.05401" lon="7.21585">
        <ele>1719.455322</ele>
        <time>2011-05-15T06:12:17Z</time>
      </trkpt>
      <trkpt lat="44.0538" lon="7.21569">
        <ele>1717.052002</ele>
        <time>2011-05-15T06:12:23Z</time>
      </trkpt>
      <trkpt lat="44.05373" lon="7.21566">
        <ele>1715.610107</ele>
        <time>2011-05-15T06:12:25Z</time>
      </trkpt>
      <trkpt lat="44.05357" lon="7.21552">
        <ele>1712.245361</ele>
        <time>2011-05-15T06:12:30Z</time>
      </trkpt>
      <trkpt lat="44.05342" lon="7.21525">
        <ele>1708.880859</ele>
        <time>2011-05-15T06:12:36Z</time>
      </trkpt>
      <trkpt lat="44.05328" lon="7.215">
        <ele>1707.438721</ele>
        <time>2011-05-15T06:12:41Z</time>
      </trkpt>
      <trkpt lat="44.05323" lon="7.21489">
        <ele>1706.958008</ele>
        <time>2011-05-15T06:12:43Z</time>
      </trkpt>
      <trkpt lat="44.05318" lon="7.21479">
        <ele>1705.516113</ele>
        <time>2011-05-15T06:12:45Z</time>
      </trkpt>
      <trkpt lat="44.05312" lon="7.21455">
        <ele>1703.593506</ele>
        <time>2011-05-15T06:12:50Z</time>
      </trkpt>
      <trkpt lat="44.05313" lon="7.21446">
        <ele>1704.074219</ele>
        <time>2011-05-15T06:12:53Z</time>
      </trkpt>
      <trkpt lat="44.05313" lon="7.21423">
        <ele>1703.593506</ele>
        <time>2011-05-15T06:12:59Z</time>
      </trkpt>
      <trkpt lat="44.05308" lon="7.21403">
        <ele>1702.151367</ele>
        <time>2011-05-15T06:13:05Z</time>
      </trkpt>
      <trkpt lat="44.05305" lon="7.21374">
        <ele>1701.670898</ele>
        <time>2011-05-15T06:13:13Z</time>
      </trkpt>
      <trkpt lat="44.05301" lon="7.21355">
        <ele>1703.593506</ele>
        <time>2011-05-15T06:13:19Z</time>
      </trkpt>
      <trkpt lat="44.053" lon="7.21345">
        <ele>1703.593506</ele>
        <time>2011-05-15T06:13:22Z</time>
      </trkpt>
      <trkpt lat="44.05297" lon="7.21331">
        <ele>1704.074219</ele>
        <time>2011-05-15T06:13:27Z</time>
      </trkpt>
      <trkpt lat="44.05293" lon="7.21311">
        <ele>1703.593506</ele>
        <time>2011-05-15T06:13:33Z</time>
      </trkpt>
      <trkpt lat="44.05283" lon="7.21288">
        <ele>1704.074219</ele>
        <time>2011-05-15T06:13:40Z</time>
      </trkpt>
      <trkpt lat="44.05281" lon="7.21286">
        <ele>1705.0354</ele>
        <time>2011-05-15T06:13:41Z</time>
      </trkpt>
      <trkpt lat="44.05268" lon="7.2127">
        <ele>1704.554688</ele>
        <time>2011-05-15T06:13:47Z</time>
      </trkpt>
      <trkpt lat="44.05258" lon="7.21251">
        <ele>1704.074219</ele>
        <time>2011-05-15T06:13:52Z</time>
      </trkpt>
      <trkpt lat="44.05247" lon="7.21228">
        <ele>1705.516113</ele>
        <time>2011-05-15T06:13:59Z</time>
      </trkpt>
      <trkpt lat="44.05232" lon="7.21212">
        <ele>1707.919434</ele>
        <time>2011-05-15T06:14:06Z</time>
      </trkpt>
      <trkpt lat="44.0522" lon="7.21198">
        <ele>1710.803467</ele>
        <time>2011-05-15T06:14:12Z</time>
      </trkpt>
      <trkpt lat="44.0521" lon="7.21184">
        <ele>1711.28418</ele>
        <time>2011-05-15T06:14:17Z</time>
      </trkpt>
      <trkpt lat="44.05208" lon="7.21156">
        <ele>1709.842041</ele>
        <time>2011-05-15T06:14:24Z</time>
      </trkpt>
      <trkpt lat="44.05206" lon="7.21129">
        <ele>1709.361572</ele>
        <time>2011-05-15T06:14:30Z</time>
      </trkpt>
      <trkpt lat="44.05198" lon="7.2111">
        <ele>1707.919434</ele>
        <time>2011-05-15T06:14:36Z</time>
      </trkpt>
      <trkpt lat="44.05193" lon="7.21094">
        <ele>1709.842041</ele>
        <time>2011-05-15T06:14:40Z</time>
      </trkpt>
      <trkpt lat="44.0518" lon="7.21075">
        <ele>1710.803467</ele>
        <time>2011-05-15T06:14:45Z</time>
      </trkpt>
      <trkpt lat="44.0517" lon="7.21055">
        <ele>1711.764893</ele>
        <time>2011-05-15T06:14:50Z</time>
      </trkpt>
      <trkpt lat="44.0517" lon="7.21047">
        <ele>1709.842041</ele>
        <time>2011-05-15T06:14:52Z</time>
      </trkpt>
      <trkpt lat="44.05175" lon="7.21033">
        <ele>1705.996582</ele>
        <time>2011-05-15T06:14:57Z</time>
      </trkpt>
      <trkpt lat="44.05186" lon="7.21026">
        <ele>1704.554688</ele>
        <time>2011-05-15T06:15:01Z</time>
      </trkpt>
      <trkpt lat="44.05208" lon="7.21018">
        <ele>1705.996582</ele>
        <time>2011-05-15T06:15:07Z</time>
      </trkpt>
      <trkpt lat="44.05215" lon="7.21008">
        <ele>1704.074219</ele>
        <time>2011-05-15T06:15:10Z</time>
      </trkpt>
      <trkpt lat="44.05214" lon="7.20974">
        <ele>1701.670898</ele>
        <time>2011-05-15T06:15:17Z</time>
      </trkpt>
      <trkpt lat="44.05212" lon="7.20968">
        <ele>1701.190186</ele>
        <time>2011-05-15T06:15:19Z</time>
      </trkpt>
      <trkpt lat="44.05203" lon="7.20949">
        <ele>1693.019043</ele>
        <time>2011-05-15T06:15:25Z</time>
      </trkpt>
      <trkpt lat="44.052" lon="7.20944">
        <ele>1691.096191</ele>
        <time>2011-05-15T06:15:27Z</time>
      </trkpt>
      <trkpt lat="44.05204" lon="7.20934">
        <ele>1693.499756</ele>
        <time>2011-05-15T06:15:31Z</time>
      </trkpt>
      <trkpt lat="44.05208" lon="7.20921">
        <ele>1700.709473</ele>
        <time>2011-05-15T06:15:36Z</time>
      </trkpt>
      <trkpt lat="44.0521" lon="7.20919">
        <ele>1700.709473</ele>
        <time>2011-05-15T06:15:37Z</time>
      </trkpt>
      <trkpt lat="44.05213" lon="7.20912">
        <ele>1700.229004</ele>
        <time>2011-05-15T06:15:39Z</time>
      </trkpt>
      <trkpt lat="44.05224" lon="7.20905">
        <ele>1697.825684</ele>
        <time>2011-05-15T06:15:44Z</time>
      </trkpt>
      <trkpt lat="44.05234" lon="7.20903">
        <ele>1697.825684</ele>
        <time>2011-05-15T06:15:47Z</time>
      </trkpt>
      <trkpt lat="44.05244" lon="7.20888">
        <ele>1696.864258</ele>
        <time>2011-05-15T06:15:53Z</time>
      </trkpt>
      <trkpt lat="44.05251" lon="7.20884">
        <ele>1694.94165</ele>
        <time>2011-05-15T06:15:55Z</time>
      </trkpt>
      <trkpt lat="44.05268" lon="7.20881">
        <ele>1692.538574</ele>
        <time>2011-05-15T06:16:00Z</time>
      </trkpt>
      <trkpt lat="44.05273" lon="7.20881">
        <ele>1692.538574</ele>
        <time>2011-05-15T06:16:02Z</time>
      </trkpt>
      <trkpt lat="44.05278" lon="7.20868">
        <ele>1689.173584</ele>
        <time>2011-05-15T06:16:06Z</time>
      </trkpt>
      <trkpt lat="44.05281" lon="7.20842">
        <ele>1684.8479</ele>
        <time>2011-05-15T06:16:11Z</time>
      </trkpt>
      <trkpt lat="44.05282" lon="7.20805">
        <ele>1680.04126</ele>
        <time>2011-05-15T06:16:18Z</time>
      </trkpt>
      <trkpt lat="44.0528" lon="7.20769">
        <ele>1674.273193</ele>
        <time>2011-05-15T06:16:24Z</time>
      </trkpt>
      <trkpt lat="44.0528" lon="7.20756">
        <ele>1673.312012</ele>
        <time>2011-05-15T06:16:26Z</time>
      </trkpt>
      <trkpt lat="44.05283" lon="7.20731">
        <ele>1671.38916</ele>
        <time>2011-05-15T06:16:30Z</time>
      </trkpt>
      <trkpt lat="44.05297" lon="7.20698">
        <ele>1668.505371</ele>
        <time>2011-05-15T06:16:36Z</time>
      </trkpt>
      <trkpt lat="44.05309" lon="7.20679">
        <ele>1668.505371</ele>
        <time>2011-05-15T06:16:40Z</time>
      </trkpt>
      <trkpt lat="44.05316" lon="7.20654">
        <ele>1671.38916</ele>
        <time>2011-05-15T06:16:44Z</time>
      </trkpt>
      <trkpt lat="44.05306" lon="7.20622">
        <ele>1667.543945</ele>
        <time>2011-05-15T06:16:49Z</time>
      </trkpt>
      <trkpt lat="44.05301" lon="7.20608">
        <ele>1667.543945</ele>
        <time>2011-05-15T06:16:52Z</time>
      </trkpt>
      <trkpt lat="44.05288" lon="7.20593">
        <ele>1667.063477</ele>
        <time>2011-05-15T06:16:57Z</time>
      </trkpt>
      <trkpt lat="44.05285" lon="7.2059">
        <ele>1666.582764</ele>
        <time>2011-05-15T06:16:58Z</time>
      </trkpt>
      <trkpt lat="44.05264" lon="7.20569">
        <ele>1665.621582</ele>
        <time>2011-05-15T06:17:05Z</time>
      </trkpt>
      <trkpt lat="44.05244" lon="7.20547">
        <ele>1666.102051</ele>
        <time>2011-05-15T06:17:11Z</time>
      </trkpt>
      <trkpt lat="44.05233" lon="7.20529">
        <ele>1665.621582</ele>
        <time>2011-05-15T06:17:15Z</time>
      </trkpt>
      <trkpt lat="44.05217" lon="7.20507">
        <ele>1662.737549</ele>
        <time>2011-05-15T06:17:20Z</time>
      </trkpt>
      <trkpt lat="44.05212" lon="7.20499">
        <ele>1662.737549</ele>
        <time>2011-05-15T06:17:22Z</time>
      </trkpt>
      <trkpt lat="44.05206" lon="7.20493">
        <ele>1662.256836</ele>
        <time>2011-05-15T06:17:24Z</time>
      </trkpt>
      <trkpt lat="44.052" lon="7.20482">
        <ele>1661.776367</ele>
        <time>2011-05-15T06:17:29Z</time>
      </trkpt>
      <trkpt lat="44.05191" lon="7.2047">
        <ele>1662.256836</ele>
        <time>2011-05-15T06:17:34Z</time>
      </trkpt>
      <trkpt lat="44.05178" lon="7.20456">
        <ele>1662.256836</ele>
        <time>2011-05-15T06:17:39Z</time>
      </trkpt>
      <trkpt lat="44.05163" lon="7.20446">
        <ele>1663.69873</ele>
        <time>2011-05-15T06:17:44Z</time>
      </trkpt>
      <trkpt lat="44.05158" lon="7.20418">
        <ele>1665.621582</ele>
        <time>2011-05-15T06:17:49Z</time>
      </trkpt>
      <trkpt lat="44.05153" lon="7.20396">
        <ele>1666.582764</ele>
        <time>2011-05-15T06:17:54Z</time>
      </trkpt>
      <trkpt lat="44.05143" lon="7.20378">
        <ele>1665.140869</ele>
        <time>2011-05-15T06:17:58Z</time>
      </trkpt>
      <trkpt lat="44.05136" lon="7.20346">
        <ele>1662.737549</ele>
        <time>2011-05-15T06:18:04Z</time>
      </trkpt>
      <trkpt lat="44.05132" lon="7.20331">
        <ele>1660.334229</ele>
        <time>2011-05-15T06:18:07Z</time>
      </trkpt>
      <trkpt lat="44.05127" lon="7.2032">
        <ele>1657.930908</ele>
        <time>2011-05-15T06:18:09Z</time>
      </trkpt>
      <trkpt lat="44.05114" lon="7.20288">
        <ele>1656.48877</ele>
        <time>2011-05-15T06:18:15Z</time>
      </trkpt>
      <trkpt lat="44.05112" lon="7.20283">
        <ele>1655.527588</ele>
        <time>2011-05-15T06:18:16Z</time>
      </trkpt>
      <trkpt lat="44.05104" lon="7.2026">
        <ele>1653.60498</ele>
        <time>2011-05-15T06:18:20Z</time>
      </trkpt>
      <trkpt lat="44.05096" lon="7.20238">
        <ele>1655.046875</ele>
        <time>2011-05-15T06:18:24Z</time>
      </trkpt>
      <trkpt lat="44.05088" lon="7.20214">
        <ele>1657.450195</ele>
        <time>2011-05-15T06:18:28Z</time>
      </trkpt>
      <trkpt lat="44.05083" lon="7.20195">
        <ele>1659.372803</ele>
        <time>2011-05-15T06:18:31Z</time>
      </trkpt>
      <trkpt lat="44.05079" lon="7.20166">
        <ele>1660.814941</ele>
        <time>2011-05-15T06:18:35Z</time>
      </trkpt>
      <trkpt lat="44.05067" lon="7.2012">
        <ele>1659.372803</ele>
        <time>2011-05-15T06:18:42Z</time>
      </trkpt>
      <trkpt lat="44.05058" lon="7.2009">
        <ele>1660.814941</ele>
        <time>2011-05-15T06:18:47Z</time>
      </trkpt>
      <trkpt lat="44.05058" lon="7.20063">
        <ele>1660.334229</ele>
        <time>2011-05-15T06:18:51Z</time>
      </trkpt>
      <trkpt lat="44.05058" lon="7.20056">
        <ele>1659.853271</ele>
        <time>2011-05-15T06:18:52Z</time>
      </trkpt>
      <trkpt lat="44.05058" lon="7.20042">
        <ele>1660.334229</ele>
        <time>2011-05-15T06:18:54Z</time>
      </trkpt>
      <trkpt lat="44.05057" lon="7.2002">
        <ele>1659.372803</ele>
        <time>2011-05-15T06:18:57Z</time>
      </trkpt>
      <trkpt lat="44.05056" lon="7.20005">
        <ele>1656.48877</ele>
        <time>2011-05-15T06:18:59Z</time>
      </trkpt>
      <trkpt lat="44.05058" lon="7.19958">
        <ele>1654.085693</ele>
        <time>2011-05-15T06:19:05Z</time>
      </trkpt>
      <trkpt lat="44.05058" lon="7.199">
        <ele>1652.643555</ele>
        <time>2011-05-15T06:19:12Z</time>
      </trkpt>
      <trkpt lat="44.05063" lon="7.19841">
        <ele>1648.317627</ele>
        <time>2011-05-15T06:19:19Z</time>
      </trkpt>
      <trkpt lat="44.05066" lon="7.19816">
        <ele>1646.875732</ele>
        <time>2011-05-15T06:19:22Z</time>
      </trkpt>
      <trkpt lat="44.0507" lon="7.19782">
        <ele>1645.433838</ele>
        <time>2011-05-15T06:19:26Z</time>
      </trkpt>
      <trkpt lat="44.05069" lon="7.19748">
        <ele>1643.030273</ele>
        <time>2011-05-15T06:19:30Z</time>
      </trkpt>
      <trkpt lat="44.05064" lon="7.19723">
        <ele>1642.069092</ele>
        <time>2011-05-15T06:19:33Z</time>
      </trkpt>
      <trkpt lat="44.05079" lon="7.19697">
        <ele>1641.588379</ele>
        <time>2011-05-15T06:19:37Z</time>
      </trkpt>
      <trkpt lat="44.05091" lon="7.19668">
        <ele>1641.107666</ele>
        <time>2011-05-15T06:19:41Z</time>
      </trkpt>
      <trkpt lat="44.05094" lon="7.19659">
        <ele>1642.069092</ele>
        <time>2011-05-15T06:19:42Z</time>
      </trkpt>
      <trkpt lat="44.05098" lon="7.19603">
        <ele>1645.914551</ele>
        <time>2011-05-15T06:19:48Z</time>
      </trkpt>
      <trkpt lat="44.05097" lon="7.19594">
        <ele>1646.395264</ele>
        <time>2011-05-15T06:19:49Z</time>
      </trkpt>
      <trkpt lat="44.05092" lon="7.19556">
        <ele>1645.914551</ele>
        <time>2011-05-15T06:19:53Z</time>
      </trkpt>
      <trkpt lat="44.05089" lon="7.19502">
        <ele>1643.991699</ele>
        <time>2011-05-15T06:19:59Z</time>
      </trkpt>
      <trkpt lat="44.05082" lon="7.19483">
        <ele>1646.395264</ele>
        <time>2011-05-15T06:20:03Z</time>
      </trkpt>
      <trkpt lat="44.05073" lon="7.19469">
        <ele>1647.837158</ele>
        <time>2011-05-15T06:20:09Z</time>
      </trkpt>
      <trkpt lat="44.05069" lon="7.19459">
        <ele>1652.643555</ele>
        <time>2011-05-15T06:20:14Z</time>
      </trkpt>
      <trkpt lat="44.05067" lon="7.19454">
        <ele>1653.60498</ele>
        <time>2011-05-15T06:20:17Z</time>
      </trkpt>
      <trkpt lat="44.05064" lon="7.19449">
        <ele>1654.566162</ele>
        <time>2011-05-15T06:20:20Z</time>
      </trkpt>
      <trkpt lat="44.05061" lon="7.19443">
        <ele>1657.450195</ele>
        <time>2011-05-15T06:20:23Z</time>
      </trkpt>
      <trkpt lat="44.0506" lon="7.19442">
        <ele>1657.930908</ele>
        <time>2011-05-15T06:20:24Z</time>
      </trkpt>
      <trkpt lat="44.05057" lon="7.19439">
        <ele>1658.411377</ele>
        <time>2011-05-15T06:20:26Z</time>
      </trkpt>
      <trkpt lat="44.05049" lon="7.19426">
        <ele>1662.737549</ele>
        <time>2011-05-15T06:20:32Z</time>
      </trkpt>
      <trkpt lat="44.05041" lon="7.19417">
        <ele>1659.853271</ele>
        <time>2011-05-15T06:20:39Z</time>
      </trkpt>
      <trkpt lat="44.05036" lon="7.19406">
        <ele>1660.334229</ele>
        <time>2011-05-15T06:20:46Z</time>
      </trkpt>
      <trkpt lat="44.05032" lon="7.19396">
        <ele>1662.256836</ele>
        <time>2011-05-15T06:20:54Z</time>
      </trkpt>
      <trkpt lat="44.05026" lon="7.19385">
        <ele>1665.140869</ele>
        <time>2011-05-15T06:21:01Z</time>
      </trkpt>
      <trkpt lat="44.05019" lon="7.19374">
        <ele>1666.582764</ele>
        <time>2011-05-15T06:21:09Z</time>
      </trkpt>
      <trkpt lat="44.05016" lon="7.19362">
        <ele>1667.543945</ele>
        <time>2011-05-15T06:21:16Z</time>
      </trkpt>
      <trkpt lat="44.05013" lon="7.19347">
        <ele>1666.582764</ele>
        <time>2011-05-15T06:21:24Z</time>
      </trkpt>
      <trkpt lat="44.0501" lon="7.19335">
        <ele>1664.660156</ele>
        <time>2011-05-15T06:21:30Z</time>
      </trkpt>
      <trkpt lat="44.05007" lon="7.19326">
        <ele>1663.69873</ele>
        <time>2011-05-15T06:21:36Z</time>
      </trkpt>
      <trkpt lat="44.05006" lon="7.19309">
        <ele>1664.179443</ele>
        <time>2011-05-15T06:21:44Z</time>
      </trkpt>
      <trkpt lat="44.05005" lon="7.19293">
        <ele>1666.582764</ele>
        <time>2011-05-15T06:21:52Z</time>
      </trkpt>
      <trkpt lat="44.05004" lon="7.19283">
        <ele>1669.466797</ele>
        <time>2011-05-15T06:21:58Z</time>
      </trkpt>
      <trkpt lat="44.05002" lon="7.19274">
        <ele>1672.350586</ele>
        <time>2011-05-15T06:22:03Z</time>
      </trkpt>
      <trkpt lat="44.05001" lon="7.19271">
        <ele>1673.312012</ele>
        <time>2011-05-15T06:22:05Z</time>
      </trkpt>
      <trkpt lat="44.04997" lon="7.19258">
        <ele>1679.560547</ele>
        <time>2011-05-15T06:22:13Z</time>
      </trkpt>
      <trkpt lat="44.04996" lon="7.19255">
        <ele>1679.079834</ele>
        <time>2011-05-15T06:22:15Z</time>
      </trkpt>
      <trkpt lat="44.04994" lon="7.19247">
        <ele>1680.521973</ele>
        <time>2011-05-15T06:22:21Z</time>
      </trkpt>
      <trkpt lat="44.04993" lon="7.19243">
        <ele>1681.963867</ele>
        <time>2011-05-15T06:22:23Z</time>
      </trkpt>
      <trkpt lat="44.0499" lon="7.19227">
        <ele>1687.731689</ele>
        <time>2011-05-15T06:22:31Z</time>
      </trkpt>
      <trkpt lat="44.04982" lon="7.19213">
        <ele>1692.057861</ele>
        <time>2011-05-15T06:22:38Z</time>
      </trkpt>
      <trkpt lat="44.04978" lon="7.19205">
        <ele>1692.057861</ele>
        <time>2011-05-15T06:22:44Z</time>
      </trkpt>
      <trkpt lat="44.04976" lon="7.192">
        <ele>1690.615479</ele>
        <time>2011-05-15T06:22:47Z</time>
      </trkpt>
      <trkpt lat="44.04968" lon="7.19187">
        <ele>1687.731689</ele>
        <time>2011-05-15T06:22:56Z</time>
      </trkpt>
      <trkpt lat="44.04966" lon="7.19177">
        <ele>1687.731689</ele>
        <time>2011-05-15T06:23:01Z</time>
      </trkpt>
      <trkpt lat="44.04964" lon="7.19156">
        <ele>1690.13501</ele>
        <time>2011-05-15T06:23:11Z</time>
      </trkpt>
      <trkpt lat="44.04963" lon="7.19141">
        <ele>1693.499756</ele>
        <time>2011-05-15T06:23:19Z</time>
      </trkpt>
      <trkpt lat="44.04961" lon="7.19132">
        <ele>1698.306152</ele>
        <time>2011-05-15T06:23:24Z</time>
      </trkpt>
      <trkpt lat="44.04956" lon="7.19121">
        <ele>1702.151367</ele>
        <time>2011-05-15T06:23:31Z</time>
      </trkpt>
      <trkpt lat="44.04953" lon="7.19114">
        <ele>1704.074219</ele>
        <time>2011-05-15T06:23:36Z</time>
      </trkpt>
      <trkpt lat="44.04948" lon="7.19102">
        <ele>1707.438721</ele>
        <time>2011-05-15T06:23:44Z</time>
      </trkpt>
      <trkpt lat="44.04948" lon="7.191">
        <ele>1707.919434</ele>
        <time>2011-05-15T06:23:45Z</time>
      </trkpt>
      <trkpt lat="44.04941" lon="7.19089">
        <ele>1708.880859</ele>
        <time>2011-05-15T06:23:53Z</time>
      </trkpt>
      <trkpt lat="44.04935" lon="7.19079">
        <ele>1708.400146</ele>
        <time>2011-05-15T06:24:00Z</time>
      </trkpt>
      <trkpt lat="44.04931" lon="7.19069">
        <ele>1705.996582</ele>
        <time>2011-05-15T06:24:07Z</time>
      </trkpt>
      <trkpt lat="44.04931" lon="7.19067">
        <ele>1705.996582</ele>
        <time>2011-05-15T06:24:08Z</time>
      </trkpt>
      <trkpt lat="44.04929" lon="7.19053">
        <ele>1706.958008</ele>
        <time>2011-05-15T06:24:15Z</time>
      </trkpt>
      <trkpt lat="44.04929" lon="7.19051">
        <ele>1707.438721</ele>
        <time>2011-05-15T06:24:16Z</time>
      </trkpt>
      <trkpt lat="44.04928" lon="7.19032">
        <ele>1709.842041</ele>
        <time>2011-05-15T06:24:26Z</time>
      </trkpt>
      <trkpt lat="44.04926" lon="7.19016">
        <ele>1711.764893</ele>
        <time>2011-05-15T06:24:35Z</time>
      </trkpt>
      <trkpt lat="44.04926" lon="7.19009">
        <ele>1711.764893</ele>
        <time>2011-05-15T06:24:39Z</time>
      </trkpt>
      <trkpt lat="44.04925" lon="7.18998">
        <ele>1714.167969</ele>
        <time>2011-05-15T06:24:46Z</time>
      </trkpt>
      <trkpt lat="44.04925" lon="7.18995">
        <ele>1716.571289</ele>
        <time>2011-05-15T06:24:48Z</time>
      </trkpt>
      <trkpt lat="44.04928" lon="7.18983">
        <ele>1722.339111</ele>
        <time>2011-05-15T06:24:55Z</time>
      </trkpt>
      <trkpt lat="44.04928" lon="7.18981">
        <ele>1722.819824</ele>
        <time>2011-05-15T06:24:57Z</time>
      </trkpt>
      <trkpt lat="44.04929" lon="7.18971">
        <ele>1724.261963</ele>
        <time>2011-05-15T06:25:02Z</time>
      </trkpt>
      <trkpt lat="44.04929" lon="7.18963">
        <ele>1724.742676</ele>
        <time>2011-05-15T06:25:07Z</time>
      </trkpt>
      <trkpt lat="44.04928" lon="7.18956">
        <ele>1724.742676</ele>
        <time>2011-05-15T06:25:12Z</time>
      </trkpt>
      <trkpt lat="44.04929" lon="7.18951">
        <ele>1725.703857</ele>
        <time>2011-05-15T06:25:15Z</time>
      </trkpt>
      <trkpt lat="44.04928" lon="7.18942">
        <ele>1728.107178</ele>
        <time>2011-05-15T06:25:21Z</time>
      </trkpt>
      <trkpt lat="44.04927" lon="7.18935">
        <ele>1727.626465</ele>
        <time>2011-05-15T06:25:25Z</time>
      </trkpt>
      <trkpt lat="44.04928" lon="7.18918">
        <ele>1726.18457</ele>
        <time>2011-05-15T06:25:34Z</time>
      </trkpt>
      <trkpt lat="44.04932" lon="7.18898">
        <ele>1726.665283</ele>
        <time>2011-05-15T06:25:44Z</time>
      </trkpt>
      <trkpt lat="44.04937" lon="7.18879">
        <ele>1728.587891</ele>
        <time>2011-05-15T06:25:54Z</time>
      </trkpt>
      <trkpt lat="44.04937" lon="7.18868">
        <ele>1729.549072</ele>
        <time>2011-05-15T06:25:59Z</time>
      </trkpt>
      <trkpt lat="44.04932" lon="7.18863">
        <ele>1730.029785</ele>
        <time>2011-05-15T06:26:04Z</time>
      </trkpt>
      <trkpt lat="44.04926" lon="7.18868">
        <ele>1730.510498</ele>
        <time>2011-05-15T06:26:08Z</time>
      </trkpt>
      <trkpt lat="44.04914" lon="7.18882">
        <ele>1732.913574</ele>
        <time>2011-05-15T06:26:17Z</time>
      </trkpt>
      <trkpt lat="44.04907" lon="7.18894">
        <ele>1735.316895</ele>
        <time>2011-05-15T06:26:24Z</time>
      </trkpt>
      <trkpt lat="44.04904" lon="7.18907">
        <ele>1737.720215</ele>
        <time>2011-05-15T06:26:31Z</time>
      </trkpt>
      <trkpt lat="44.04897" lon="7.18918">
        <ele>1740.123779</ele>
        <time>2011-05-15T06:26:38Z</time>
      </trkpt>
      <trkpt lat="44.04889" lon="7.18931">
        <ele>1742.5271</ele>
        <time>2011-05-15T06:26:47Z</time>
      </trkpt>
      <trkpt lat="44.04883" lon="7.18944">
        <ele>1744.449463</ele>
        <time>2011-05-15T06:26:55Z</time>
      </trkpt>
      <trkpt lat="44.04878" lon="7.18958">
        <ele>1746.852783</ele>
        <time>2011-05-15T06:27:03Z</time>
      </trkpt>
      <trkpt lat="44.04876" lon="7.1897">
        <ele>1748.775391</ele>
        <time>2011-05-15T06:27:10Z</time>
      </trkpt>
      <trkpt lat="44.04872" lon="7.18984">
        <ele>1750.697998</ele>
        <time>2011-05-15T06:27:17Z</time>
      </trkpt>
      <trkpt lat="44.04869" lon="7.18988">
        <ele>1750.217529</ele>
        <time>2011-05-15T06:27:20Z</time>
      </trkpt>
      <trkpt lat="44.04866" lon="7.19">
        <ele>1752.139893</ele>
        <time>2011-05-15T06:27:26Z</time>
      </trkpt>
      <trkpt lat="44.04863" lon="7.19011">
        <ele>1754.543213</ele>
        <time>2011-05-15T06:27:32Z</time>
      </trkpt>
      <trkpt lat="44.04861" lon="7.19027">
        <ele>1756.946777</ele>
        <time>2011-05-15T06:27:40Z</time>
      </trkpt>
      <trkpt lat="44.04859" lon="7.19039">
        <ele>1758.869385</ele>
        <time>2011-05-15T06:27:46Z</time>
      </trkpt>
      <trkpt lat="44.04858" lon="7.19043">
        <ele>1760.311279</ele>
        <time>2011-05-15T06:27:51Z</time>
      </trkpt>
      <trkpt lat="44.04856" lon="7.19046">
        <ele>1762.233887</ele>
        <time>2011-05-15T06:27:56Z</time>
      </trkpt>
      <trkpt lat="44.04856" lon="7.19051">
        <ele>1764.156494</ele>
        <time>2011-05-15T06:28:01Z</time>
      </trkpt>
      <trkpt lat="44.04856" lon="7.19058">
        <ele>1766.079102</ele>
        <time>2011-05-15T06:28:08Z</time>
      </trkpt>
      <trkpt lat="44.04855" lon="7.19067">
        <ele>1768.001709</ele>
        <time>2011-05-15T06:28:16Z</time>
      </trkpt>
      <trkpt lat="44.04854" lon="7.19073">
        <ele>1770.405029</ele>
        <time>2011-05-15T06:28:23Z</time>
      </trkpt>
      <trkpt lat="44.04852" lon="7.1908">
        <ele>1773.769775</ele>
        <time>2011-05-15T06:28:30Z</time>
      </trkpt>
      <trkpt lat="44.0485" lon="7.1909">
        <ele>1776.653809</ele>
        <time>2011-05-15T06:28:39Z</time>
      </trkpt>
      <trkpt lat="44.04845" lon="7.191">
        <ele>1776.173096</ele>
        <time>2011-05-15T06:28:50Z</time>
      </trkpt>
      <trkpt lat="44.04841" lon="7.19106">
        <ele>1777.61499</ele>
        <time>2011-05-15T06:28:57Z</time>
      </trkpt>
      <trkpt lat="44.04839" lon="7.1911">
        <ele>1777.61499</ele>
        <time>2011-05-15T06:29:03Z</time>
      </trkpt>
      <trkpt lat="44.04837" lon="7.19115">
        <ele>1777.61499</ele>
        <time>2011-05-15T06:29:10Z</time>
      </trkpt>
      <trkpt lat="44.04836" lon="7.19117">
        <ele>1777.134521</ele>
        <time>2011-05-15T06:29:14Z</time>
      </trkpt>
      <trkpt lat="44.04833" lon="7.19123">
        <ele>1778.095703</ele>
        <time>2011-05-15T06:29:21Z</time>
      </trkpt>
      <trkpt lat="44.04829" lon="7.19129">
        <ele>1777.61499</ele>
        <time>2011-05-15T06:29:28Z</time>
      </trkpt>
      <trkpt lat="44.04824" lon="7.19136">
        <ele>1778.095703</ele>
        <time>2011-05-15T06:29:38Z</time>
      </trkpt>
      <trkpt lat="44.04822" lon="7.19143">
        <ele>1779.056885</ele>
        <time>2011-05-15T06:29:45Z</time>
      </trkpt>
      <trkpt lat="44.0482" lon="7.1915">
        <ele>1778.095703</ele>
        <time>2011-05-15T06:29:52Z</time>
      </trkpt>
      <trkpt lat="44.0482" lon="7.19161">
        <ele>1780.979736</ele>
        <time>2011-05-15T06:30:01Z</time>
      </trkpt>
      <trkpt lat="44.04822" lon="7.19173">
        <ele>1785.30542</ele>
        <time>2011-05-15T06:30:10Z</time>
      </trkpt>
      <trkpt lat="44.0482" lon="7.19182">
        <ele>1786.266846</ele>
        <time>2011-05-15T06:30:18Z</time>
      </trkpt>
      <trkpt lat="44.04819" lon="7.19191">
        <ele>1783.863525</ele>
        <time>2011-05-15T06:30:26Z</time>
      </trkpt>
      <trkpt lat="44.04814" lon="7.19203">
        <ele>1785.30542</ele>
        <time>2011-05-15T06:30:35Z</time>
      </trkpt>
      <trkpt lat="44.0481" lon="7.19215">
        <ele>1784.824951</ele>
        <time>2011-05-15T06:30:43Z</time>
      </trkpt>
      <trkpt lat="44.04814" lon="7.19222">
        <ele>1785.30542</ele>
        <time>2011-05-15T06:30:50Z</time>
      </trkpt>
      <trkpt lat="44.04818" lon="7.19234">
        <ele>1787.228027</ele>
        <time>2011-05-15T06:31:00Z</time>
      </trkpt>
      <trkpt lat="44.0482" lon="7.19243">
        <ele>1789.150879</ele>
        <time>2011-05-15T06:31:08Z</time>
      </trkpt>
      <trkpt lat="44.04821" lon="7.19254">
        <ele>1792.515625</ele>
        <time>2011-05-15T06:31:15Z</time>
      </trkpt>
      <trkpt lat="44.04823" lon="7.19264">
        <ele>1794.437988</ele>
        <time>2011-05-15T06:31:22Z</time>
      </trkpt>
      <trkpt lat="44.04823" lon="7.19274">
        <ele>1795.880127</ele>
        <time>2011-05-15T06:31:30Z</time>
      </trkpt>
      <trkpt lat="44.04823" lon="7.19281">
        <ele>1796.841309</ele>
        <time>2011-05-15T06:31:36Z</time>
      </trkpt>
      <trkpt lat="44.04823" lon="7.19293">
        <ele>1796.841309</ele>
        <time>2011-05-15T06:31:43Z</time>
      </trkpt>
      <trkpt lat="44.04825" lon="7.19307">
        <ele>1794.918701</ele>
        <time>2011-05-15T06:31:52Z</time>
      </trkpt>
      <trkpt lat="44.0483" lon="7.19322">
        <ele>1794.918701</ele>
        <time>2011-05-15T06:31:59Z</time>
      </trkpt>
      <trkpt lat="44.04834" lon="7.19334">
        <ele>1795.399414</ele>
        <time>2011-05-15T06:32:05Z</time>
      </trkpt>
      <trkpt lat="44.04835" lon="7.19354">
        <ele>1796.841309</ele>
        <time>2011-05-15T06:32:14Z</time>
      </trkpt>
      <trkpt lat="44.04837" lon="7.19368">
        <ele>1798.763916</ele>
        <time>2011-05-15T06:32:21Z</time>
      </trkpt>
      <trkpt lat="44.04838" lon="7.19381">
        <ele>1800.686523</ele>
        <time>2011-05-15T06:32:28Z</time>
      </trkpt>
      <trkpt lat="44.04837" lon="7.19388">
        <ele>1801.647949</ele>
        <time>2011-05-15T06:32:33Z</time>
      </trkpt>
      <trkpt lat="44.04839" lon="7.19398">
        <ele>1803.570557</ele>
        <time>2011-05-15T06:32:42Z</time>
      </trkpt>
      <trkpt lat="44.04841" lon="7.19407">
        <ele>1805.012695</ele>
        <time>2011-05-15T06:32:51Z</time>
      </trkpt>
      <trkpt lat="44.04845" lon="7.19414">
        <ele>1805.973877</ele>
        <time>2011-05-15T06:32:58Z</time>
      </trkpt>
      <trkpt lat="44.04847" lon="7.19427">
        <ele>1806.45459</ele>
        <time>2011-05-15T06:33:06Z</time>
      </trkpt>
      <trkpt lat="44.04848" lon="7.19439">
        <ele>1807.416016</ele>
        <time>2011-05-15T06:33:14Z</time>
      </trkpt>
      <trkpt lat="44.0485" lon="7.19447">
        <ele>1809.819092</ele>
        <time>2011-05-15T06:33:22Z</time>
      </trkpt>
      <trkpt lat="44.04852" lon="7.19455">
        <ele>1810.780518</ele>
        <time>2011-05-15T06:33:29Z</time>
      </trkpt>
      <trkpt lat="44.04852" lon="7.19464">
        <ele>1812.222412</ele>
        <time>2011-05-15T06:33:38Z</time>
      </trkpt>
      <trkpt lat="44.04852" lon="7.19474">
        <ele>1812.703125</ele>
        <time>2011-05-15T06:33:47Z</time>
      </trkpt>
      <trkpt lat="44.04852" lon="7.19481">
        <ele>1813.183838</ele>
        <time>2011-05-15T06:33:55Z</time>
      </trkpt>
      <trkpt lat="44.04852" lon="7.19489">
        <ele>1815.106445</ele>
        <time>2011-05-15T06:34:02Z</time>
      </trkpt>
      <trkpt lat="44.04853" lon="7.19497">
        <ele>1815.106445</ele>
        <time>2011-05-15T06:34:08Z</time>
      </trkpt>
      <trkpt lat="44.04852" lon="7.19501">
        <ele>1814.625732</ele>
        <time>2011-05-15T06:34:10Z</time>
      </trkpt>
      <trkpt lat="44.04849" lon="7.19514">
        <ele>1816.54834</ele>
        <time>2011-05-15T06:34:17Z</time>
      </trkpt>
      <trkpt lat="44.0485" lon="7.19528">
        <ele>1819.432373</ele>
        <time>2011-05-15T06:34:25Z</time>
      </trkpt>
      <trkpt lat="44.04851" lon="7.19541">
        <ele>1821.35498</ele>
        <time>2011-05-15T06:34:32Z</time>
      </trkpt>
      <trkpt lat="44.0485" lon="7.19555">
        <ele>1823.277832</ele>
        <time>2011-05-15T06:34:39Z</time>
      </trkpt>
      <trkpt lat="44.0485" lon="7.19567">
        <ele>1825.200195</ele>
        <time>2011-05-15T06:34:45Z</time>
      </trkpt>
      <trkpt lat="44.04846" lon="7.19583">
        <ele>1826.161621</ele>
        <time>2011-05-15T06:34:52Z</time>
      </trkpt>
      <trkpt lat="44.04846" lon="7.19598">
        <ele>1826.161621</ele>
        <time>2011-05-15T06:34:58Z</time>
      </trkpt>
      <trkpt lat="44.04846" lon="7.19612">
        <ele>1826.161621</ele>
        <time>2011-05-15T06:35:04Z</time>
      </trkpt>
      <trkpt lat="44.04844" lon="7.19633">
        <ele>1826.161621</ele>
        <time>2011-05-15T06:35:13Z</time>
      </trkpt>
      <trkpt lat="44.04837" lon="7.19657">
        <ele>1829.526123</ele>
        <time>2011-05-15T06:35:24Z</time>
      </trkpt>
      <trkpt lat="44.04831" lon="7.19676">
        <ele>1834.332764</ele>
        <time>2011-05-15T06:35:34Z</time>
      </trkpt>
      <trkpt lat="44.04826" lon="7.19687">
        <ele>1837.216797</ele>
        <time>2011-05-15T06:35:41Z</time>
      </trkpt>
      <trkpt lat="44.04819" lon="7.19702">
        <ele>1837.216797</ele>
        <time>2011-05-15T06:35:50Z</time>
      </trkpt>
      <trkpt lat="44.04812" lon="7.19717">
        <ele>1838.658936</ele>
        <time>2011-05-15T06:35:59Z</time>
      </trkpt>
      <trkpt lat="44.04806" lon="7.19731">
        <ele>1840.10083</ele>
        <time>2011-05-15T06:36:07Z</time>
      </trkpt>
      <trkpt lat="44.04802" lon="7.19742">
        <ele>1841.062012</ele>
        <time>2011-05-15T06:36:15Z</time>
      </trkpt>
      <trkpt lat="44.04801" lon="7.19748">
        <ele>1843.465332</ele>
        <time>2011-05-15T06:36:20Z</time>
      </trkpt>
      <trkpt lat="44.048" lon="7.19756">
        <ele>1844.426514</ele>
        <time>2011-05-15T06:36:25Z</time>
      </trkpt>
      <trkpt lat="44.04799" lon="7.1976">
        <ele>1844.907227</ele>
        <time>2011-05-15T06:36:27Z</time>
      </trkpt>
      <trkpt lat="44.04791" lon="7.19767">
        <ele>1845.387939</ele>
        <time>2011-05-15T06:36:35Z</time>
      </trkpt>
      <trkpt lat="44.0479" lon="7.19768">
        <ele>1845.868652</ele>
        <time>2011-05-15T06:36:36Z</time>
      </trkpt>
      <trkpt lat="44.04783" lon="7.19774">
        <ele>1851.155762</ele>
        <time>2011-05-15T06:36:44Z</time>
      </trkpt>
      <trkpt lat="44.04778" lon="7.19782">
        <ele>1855.481934</ele>
        <time>2011-05-15T06:36:53Z</time>
      </trkpt>
      <trkpt lat="44.04773" lon="7.19787">
        <ele>1858.846436</ele>
        <time>2011-05-15T06:37:02Z</time>
      </trkpt>
      <trkpt lat="44.0477" lon="7.19791">
        <ele>1859.327148</ele>
        <time>2011-05-15T06:37:08Z</time>
      </trkpt>
      <trkpt lat="44.04765" lon="7.19796">
        <ele>1860.28833</ele>
        <time>2011-05-15T06:37:16Z</time>
      </trkpt>
      <trkpt lat="44.0476" lon="7.198">
        <ele>1862.69165</ele>
        <time>2011-05-15T06:37:24Z</time>
      </trkpt>
      <trkpt lat="44.04755" lon="7.19805">
        <ele>1863.652832</ele>
        <time>2011-05-15T06:37:33Z</time>
      </trkpt>
      <trkpt lat="44.04749" lon="7.1981">
        <ele>1863.652832</ele>
        <time>2011-05-15T06:37:42Z</time>
      </trkpt>
      <trkpt lat="44.04744" lon="7.19815">
        <ele>1864.614258</ele>
        <time>2011-05-15T06:37:51Z</time>
      </trkpt>
      <trkpt lat="44.04736" lon="7.19819">
        <ele>1865.094971</ele>
        <time>2011-05-15T06:37:59Z</time>
      </trkpt>
      <trkpt lat="44.0473" lon="7.19824">
        <ele>1866.536865</ele>
        <time>2011-05-15T06:38:09Z</time>
      </trkpt>
      <trkpt lat="44.04725" lon="7.1983">
        <ele>1868.94043</ele>
        <time>2011-05-15T06:38:18Z</time>
      </trkpt>
      <trkpt lat="44.0472" lon="7.19835">
        <ele>1871.343506</ele>
        <time>2011-05-15T06:38:25Z</time>
      </trkpt>
      <trkpt lat="44.04715" lon="7.19844">
        <ele>1873.266357</ele>
        <time>2011-05-15T06:38:35Z</time>
      </trkpt>
      <trkpt lat="44.04714" lon="7.19849">
        <ele>1876.150146</ele>
        <time>2011-05-15T06:38:41Z</time>
      </trkpt>
      <trkpt lat="44.04712" lon="7.19856">
        <ele>1877.592041</ele>
        <time>2011-05-15T06:38:49Z</time>
      </trkpt>
      <trkpt lat="44.04708" lon="7.19862">
        <ele>1879.033936</ele>
        <time>2011-05-15T06:38:57Z</time>
      </trkpt>
      <trkpt lat="44.04703" lon="7.1987">
        <ele>1878.553467</ele>
        <time>2011-05-15T06:39:04Z</time>
      </trkpt>
      <trkpt lat="44.04699" lon="7.1988">
        <ele>1879.995361</ele>
        <time>2011-05-15T06:39:11Z</time>
      </trkpt>
      <trkpt lat="44.04696" lon="7.19887">
        <ele>1880.476074</ele>
        <time>2011-05-15T06:39:17Z</time>
      </trkpt>
      <trkpt lat="44.04691" lon="7.19897">
        <ele>1881.917969</ele>
        <time>2011-05-15T06:39:25Z</time>
      </trkpt>
      <trkpt lat="44.04687" lon="7.19907">
        <ele>1881.917969</ele>
        <time>2011-05-15T06:39:32Z</time>
      </trkpt>
      <trkpt lat="44.04684" lon="7.19918">
        <ele>1883.359863</ele>
        <time>2011-05-15T06:39:39Z</time>
      </trkpt>
      <trkpt lat="44.04681" lon="7.19931">
        <ele>1883.840576</ele>
        <time>2011-05-15T06:39:48Z</time>
      </trkpt>
      <trkpt lat="44.04678" lon="7.19938">
        <ele>1884.321533</ele>
        <time>2011-05-15T06:39:54Z</time>
      </trkpt>
      <trkpt lat="44.04676" lon="7.19942">
        <ele>1884.321533</ele>
        <time>2011-05-15T06:39:56Z</time>
      </trkpt>
      <trkpt lat="44.04675" lon="7.19945">
        <ele>1885.282715</ele>
        <time>2011-05-15T06:40:02Z</time>
      </trkpt>
      <trkpt lat="44.04673" lon="7.19951">
        <ele>1885.282715</ele>
        <time>2011-05-15T06:40:07Z</time>
      </trkpt>
      <trkpt lat="44.0467" lon="7.19961">
        <ele>1884.802246</ele>
        <time>2011-05-15T06:40:14Z</time>
      </trkpt>
      <trkpt lat="44.04667" lon="7.19971">
        <ele>1885.282715</ele>
        <time>2011-05-15T06:40:21Z</time>
      </trkpt>
      <trkpt lat="44.04665" lon="7.19979">
        <ele>1885.282715</ele>
        <time>2011-05-15T06:40:27Z</time>
      </trkpt>
      <trkpt lat="44.04663" lon="7.19989">
        <ele>1885.282715</ele>
        <time>2011-05-15T06:40:34Z</time>
      </trkpt>
      <trkpt lat="44.04662" lon="7.19993">
        <ele>1885.763428</ele>
        <time>2011-05-15T06:40:37Z</time>
      </trkpt>
      <trkpt lat="44.04659" lon="7.2001">
        <ele>1886.724609</ele>
        <time>2011-05-15T06:40:46Z</time>
      </trkpt>
      <trkpt lat="44.04657" lon="7.20027">
        <ele>1887.686035</ele>
        <time>2011-05-15T06:40:54Z</time>
      </trkpt>
      <trkpt lat="44.04656" lon="7.20043">
        <ele>1887.686035</ele>
        <time>2011-05-15T06:41:01Z</time>
      </trkpt>
      <trkpt lat="44.04655" lon="7.20058">
        <ele>1886.244141</ele>
        <time>2011-05-15T06:41:08Z</time>
      </trkpt>
      <trkpt lat="44.04651" lon="7.20081">
        <ele>1886.724609</ele>
        <time>2011-05-15T06:41:16Z</time>
      </trkpt>
      <trkpt lat="44.04646" lon="7.20102">
        <ele>1887.205322</ele>
        <time>2011-05-15T06:41:24Z</time>
      </trkpt>
      <trkpt lat="44.04645" lon="7.20105">
        <ele>1887.205322</ele>
        <time>2011-05-15T06:41:25Z</time>
      </trkpt>
      <trkpt lat="44.04634" lon="7.20122">
        <ele>1888.166748</ele>
        <time>2011-05-15T06:41:34Z</time>
      </trkpt>
      <trkpt lat="44.04626" lon="7.20138">
        <ele>1890.089355</ele>
        <time>2011-05-15T06:41:43Z</time>
      </trkpt>
      <trkpt lat="44.04615" lon="7.20154">
        <ele>1892.011963</ele>
        <time>2011-05-15T06:41:53Z</time>
      </trkpt>
      <trkpt lat="44.04608" lon="7.20162">
        <ele>1893.453857</ele>
        <time>2011-05-15T06:41:59Z</time>
      </trkpt>
      <trkpt lat="44.04599" lon="7.20174">
        <ele>1894.895752</ele>
        <time>2011-05-15T06:42:07Z</time>
      </trkpt>
      <trkpt lat="44.04598" lon="7.20176">
        <ele>1895.376465</ele>
        <time>2011-05-15T06:42:09Z</time>
      </trkpt>
      <trkpt lat="44.04595" lon="7.2018">
        <ele>1896.818359</ele>
        <time>2011-05-15T06:42:16Z</time>
      </trkpt>
      <trkpt lat="44.04591" lon="7.20185">
        <ele>1897.299072</ele>
        <time>2011-05-15T06:42:22Z</time>
      </trkpt>
      <trkpt lat="44.04587" lon="7.20191">
        <ele>1898.740967</ele>
        <time>2011-05-15T06:42:30Z</time>
      </trkpt>
      <trkpt lat="44.04582" lon="7.202">
        <ele>1898.740967</ele>
        <time>2011-05-15T06:42:40Z</time>
      </trkpt>
      <trkpt lat="44.04576" lon="7.20204">
        <ele>1898.260254</ele>
        <time>2011-05-15T06:42:46Z</time>
      </trkpt>
      <trkpt lat="44.04575" lon="7.20206">
        <ele>1897.779785</ele>
        <time>2011-05-15T06:42:48Z</time>
      </trkpt>
      <trkpt lat="44.04564" lon="7.20215">
        <ele>1895.376465</ele>
        <time>2011-05-15T06:42:55Z</time>
      </trkpt>
      <trkpt lat="44.04549" lon="7.20227">
        <ele>1892.492676</ele>
        <time>2011-05-15T06:43:00Z</time>
      </trkpt>
      <trkpt lat="44.04531" lon="7.20238">
        <ele>1891.050537</ele>
        <time>2011-05-15T06:43:06Z</time>
      </trkpt>
      <trkpt lat="44.04511" lon="7.20257">
        <ele>1889.608643</ele>
        <time>2011-05-15T06:43:12Z</time>
      </trkpt>
      <trkpt lat="44.04497" lon="7.20276">
        <ele>1889.608643</ele>
        <time>2011-05-15T06:43:17Z</time>
      </trkpt>
      <trkpt lat="44.04481" lon="7.203">
        <ele>1889.608643</ele>
        <time>2011-05-15T06:43:23Z</time>
      </trkpt>
      <trkpt lat="44.04477" lon="7.20319">
        <ele>1891.53125</ele>
        <time>2011-05-15T06:43:28Z</time>
      </trkpt>
      <trkpt lat="44.04473" lon="7.20325">
        <ele>1892.011963</ele>
        <time>2011-05-15T06:43:32Z</time>
      </trkpt>
      <trkpt lat="44.04463" lon="7.20337">
        <ele>1892.492676</ele>
        <time>2011-05-15T06:43:37Z</time>
      </trkpt>
      <trkpt lat="44.04454" lon="7.20352">
        <ele>1892.492676</ele>
        <time>2011-05-15T06:43:43Z</time>
      </trkpt>
      <trkpt lat="44.04445" lon="7.20363">
        <ele>1892.492676</ele>
        <time>2011-05-15T06:43:49Z</time>
      </trkpt>
      <trkpt lat="44.04435" lon="7.20372">
        <ele>1893.93457</ele>
        <time>2011-05-15T06:43:55Z</time>
      </trkpt>
      <trkpt lat="44.04425" lon="7.20381">
        <ele>1895.857178</ele>
        <time>2011-05-15T06:44:02Z</time>
      </trkpt>
      <trkpt lat="44.0441" lon="7.20397">
        <ele>1897.779785</ele>
        <time>2011-05-15T06:44:12Z</time>
      </trkpt>
      <trkpt lat="44.04394" lon="7.20409">
        <ele>1897.299072</ele>
        <time>2011-05-15T06:44:18Z</time>
      </trkpt>
      <trkpt lat="44.0438" lon="7.20418">
        <ele>1897.779785</ele>
        <time>2011-05-15T06:44:24Z</time>
      </trkpt>
      <trkpt lat="44.04366" lon="7.20429">
        <ele>1899.22168</ele>
        <time>2011-05-15T06:44:31Z</time>
      </trkpt>
      <trkpt lat="44.04355" lon="7.20434">
        <ele>1899.702393</ele>
        <time>2011-05-15T06:44:37Z</time>
      </trkpt>
      <trkpt lat="44.0434" lon="7.20443">
        <ele>1900.18335</ele>
        <time>2011-05-15T06:44:45Z</time>
      </trkpt>
      <trkpt lat="44.04332" lon="7.20448">
        <ele>1902.105713</ele>
        <time>2011-05-15T06:44:51Z</time>
      </trkpt>
      <trkpt lat="44.04326" lon="7.2045">
        <ele>1902.586426</ele>
        <time>2011-05-15T06:44:56Z</time>
      </trkpt>
      <trkpt lat="44.04316" lon="7.20454">
        <ele>1903.067139</ele>
        <time>2011-05-15T06:45:03Z</time>
      </trkpt>
      <trkpt lat="44.04304" lon="7.20461">
        <ele>1904.509033</ele>
        <time>2011-05-15T06:45:12Z</time>
      </trkpt>
      <trkpt lat="44.04297" lon="7.20467">
        <ele>1905.950928</ele>
        <time>2011-05-15T06:45:18Z</time>
      </trkpt>
      <trkpt lat="44.04288" lon="7.20472">
        <ele>1906.912354</ele>
        <time>2011-05-15T06:45:25Z</time>
      </trkpt>
      <trkpt lat="44.04278" lon="7.20478">
        <ele>1908.834961</ele>
        <time>2011-05-15T06:45:33Z</time>
      </trkpt>
      <trkpt lat="44.04266" lon="7.20481">
        <ele>1910.757568</ele>
        <time>2011-05-15T06:45:42Z</time>
      </trkpt>
      <trkpt lat="44.04255" lon="7.20482">
        <ele>1911.238281</ele>
        <time>2011-05-15T06:45:50Z</time>
      </trkpt>
      <trkpt lat="44.04242" lon="7.20479">
        <ele>1913.641357</ele>
        <time>2011-05-15T06:45:59Z</time>
      </trkpt>
      <trkpt lat="44.04231" lon="7.20476">
        <ele>1915.564209</ele>
        <time>2011-05-15T06:46:07Z</time>
      </trkpt>
      <trkpt lat="44.04219" lon="7.20472">
        <ele>1916.525635</ele>
        <time>2011-05-15T06:46:16Z</time>
      </trkpt>
      <trkpt lat="44.04208" lon="7.20469">
        <ele>1916.525635</ele>
        <time>2011-05-15T06:46:23Z</time>
      </trkpt>
      <trkpt lat="44.0419" lon="7.2047">
        <ele>1916.044922</ele>
        <time>2011-05-15T06:46:34Z</time>
      </trkpt>
      <trkpt lat="44.04176" lon="7.20475">
        <ele>1916.525635</ele>
        <time>2011-05-15T06:46:43Z</time>
      </trkpt>
      <trkpt lat="44.04166" lon="7.2048">
        <ele>1917.486816</ele>
        <time>2011-05-15T06:46:50Z</time>
      </trkpt>
      <trkpt lat="44.04158" lon="7.20484">
        <ele>1918.448242</ele>
        <time>2011-05-15T06:46:56Z</time>
      </trkpt>
      <trkpt lat="44.04148" lon="7.20487">
        <ele>1920.37085</ele>
        <time>2011-05-15T06:47:03Z</time>
      </trkpt>
      <trkpt lat="44.0414" lon="7.20486">
        <ele>1921.812744</ele>
        <time>2011-05-15T06:47:09Z</time>
      </trkpt>
      <trkpt lat="44.04126" lon="7.20481">
        <ele>1922.77417</ele>
        <time>2011-05-15T06:47:18Z</time>
      </trkpt>
      <trkpt lat="44.04114" lon="7.20479">
        <ele>1923.735352</ele>
        <time>2011-05-15T06:47:26Z</time>
      </trkpt>
      <trkpt lat="44.041" lon="7.20482">
        <ele>1924.696777</ele>
        <time>2011-05-15T06:47:35Z</time>
      </trkpt>
      <trkpt lat="44.04086" lon="7.20485">
        <ele>1925.177246</ele>
        <time>2011-05-15T06:47:44Z</time>
      </trkpt>
      <trkpt lat="44.04077" lon="7.20474">
        <ele>1926.138672</ele>
        <time>2011-05-15T06:47:51Z</time>
      </trkpt>
      <trkpt lat="44.0407" lon="7.20467">
        <ele>1926.619385</ele>
        <time>2011-05-15T06:47:56Z</time>
      </trkpt>
      <trkpt lat="44.0406" lon="7.20458">
        <ele>1927.580566</ele>
        <time>2011-05-15T06:48:04Z</time>
      </trkpt>
      <trkpt lat="44.04056" lon="7.20457">
        <ele>1928.541992</ele>
        <time>2011-05-15T06:48:10Z</time>
      </trkpt>
      <trkpt lat="44.04054" lon="7.20458">
        <ele>1927.100098</ele>
        <time>2011-05-15T06:48:17Z</time>
      </trkpt>
      <trkpt lat="44.04049" lon="7.20455">
        <ele>1929.983887</ele>
        <time>2011-05-15T06:48:25Z</time>
      </trkpt>
      <trkpt lat="44.04042" lon="7.20453">
        <ele>1933.348633</ele>
        <time>2011-05-15T06:48:32Z</time>
      </trkpt>
      <trkpt lat="44.04039" lon="7.20453">
        <ele>1935.27124</ele>
        <time>2011-05-15T06:48:36Z</time>
      </trkpt>
      <trkpt lat="44.04033" lon="7.20453">
        <ele>1935.751953</ele>
        <time>2011-05-15T06:48:42Z</time>
      </trkpt>
      <trkpt lat="44.04029" lon="7.20452">
        <ele>1936.713135</ele>
        <time>2011-05-15T06:48:47Z</time>
      </trkpt>
      <trkpt lat="44.04024" lon="7.2045">
        <ele>1936.713135</ele>
        <time>2011-05-15T06:48:54Z</time>
      </trkpt>
      <trkpt lat="44.04021" lon="7.20445">
        <ele>1941.519775</ele>
        <time>2011-05-15T06:49:00Z</time>
      </trkpt>
      <trkpt lat="44.04015" lon="7.20443">
        <ele>1942.96167</ele>
        <time>2011-05-15T06:49:08Z</time>
      </trkpt>
      <trkpt lat="44.04011" lon="7.2044">
        <ele>1945.36499</ele>
        <time>2011-05-15T06:49:14Z</time>
      </trkpt>
      <trkpt lat="44.04007" lon="7.20438">
        <ele>1948.729736</ele>
        <time>2011-05-15T06:49:21Z</time>
      </trkpt>
      <trkpt lat="44.04" lon="7.20435">
        <ele>1949.691162</ele>
        <time>2011-05-15T06:49:31Z</time>
      </trkpt>
      <trkpt lat="44.03994" lon="7.20432">
        <ele>1948.729736</ele>
        <time>2011-05-15T06:49:39Z</time>
      </trkpt>
      <trkpt lat="44.03988" lon="7.20428">
        <ele>1948.729736</ele>
        <time>2011-05-15T06:49:49Z</time>
      </trkpt>
      <trkpt lat="44.03982" lon="7.20425">
        <ele>1950.171875</ele>
        <time>2011-05-15T06:49:58Z</time>
      </trkpt>
      <trkpt lat="44.03976" lon="7.20421">
        <ele>1954.01709</ele>
        <time>2011-05-15T06:50:07Z</time>
      </trkpt>
      <trkpt lat="44.0397" lon="7.20418">
        <ele>1957.381592</ele>
        <time>2011-05-15T06:50:15Z</time>
      </trkpt>
      <trkpt lat="44.03963" lon="7.20413">
        <ele>1960.265381</ele>
        <time>2011-05-15T06:50:24Z</time>
      </trkpt>
      <trkpt lat="44.03955" lon="7.20409">
        <ele>1961.70752</ele>
        <time>2011-05-15T06:50:33Z</time>
      </trkpt>
      <trkpt lat="44.03946" lon="7.20409">
        <ele>1961.70752</ele>
        <time>2011-05-15T06:50:42Z</time>
      </trkpt>
      <trkpt lat="44.03941" lon="7.2041">
        <ele>1961.70752</ele>
        <time>2011-05-15T06:50:48Z</time>
      </trkpt>
      <trkpt lat="44.03936" lon="7.20416">
        <ele>1961.70752</ele>
        <time>2011-05-15T06:50:55Z</time>
      </trkpt>
      <trkpt lat="44.03934" lon="7.20418">
        <ele>1962.187988</ele>
        <time>2011-05-15T06:50:56Z</time>
      </trkpt>
      <trkpt lat="44.03931" lon="7.20426">
        <ele>1962.668701</ele>
        <time>2011-05-15T06:51:03Z</time>
      </trkpt>
      <trkpt lat="44.0393" lon="7.20429">
        <ele>1962.668701</ele>
        <time>2011-05-15T06:51:05Z</time>
      </trkpt>
      <trkpt lat="44.03926" lon="7.20446">
        <ele>1963.629883</ele>
        <time>2011-05-15T06:51:13Z</time>
      </trkpt>
      <trkpt lat="44.03923" lon="7.20468">
        <ele>1963.629883</ele>
        <time>2011-05-15T06:51:22Z</time>
      </trkpt>
      <trkpt lat="44.03922" lon="7.2049">
        <ele>1962.668701</ele>
        <time>2011-05-15T06:51:29Z</time>
      </trkpt>
      <trkpt lat="44.03917" lon="7.20508">
        <ele>1962.668701</ele>
        <time>2011-05-15T06:51:35Z</time>
      </trkpt>
      <trkpt lat="44.03908" lon="7.20524">
        <ele>1962.187988</ele>
        <time>2011-05-15T06:51:40Z</time>
      </trkpt>
      <trkpt lat="44.03894" lon="7.20552">
        <ele>1962.187988</ele>
        <time>2011-05-15T06:51:47Z</time>
      </trkpt>
      <trkpt lat="44.03884" lon="7.20567">
        <ele>1962.668701</ele>
        <time>2011-05-15T06:51:52Z</time>
      </trkpt>
      <trkpt lat="44.03874" lon="7.20583">
        <ele>1962.668701</ele>
        <time>2011-05-15T06:51:58Z</time>
      </trkpt>
      <trkpt lat="44.03868" lon="7.20597">
        <ele>1963.629883</ele>
        <time>2011-05-15T06:52:04Z</time>
      </trkpt>
      <trkpt lat="44.03862" lon="7.20612">
        <ele>1964.591553</ele>
        <time>2011-05-15T06:52:11Z</time>
      </trkpt>
      <trkpt lat="44.03857" lon="7.20622">
        <ele>1965.072266</ele>
        <time>2011-05-15T06:52:17Z</time>
      </trkpt>
      <trkpt lat="44.03856" lon="7.20626">
        <ele>1965.072266</ele>
        <time>2011-05-15T06:52:22Z</time>
      </trkpt>
      <trkpt lat="44.03852" lon="7.20634">
        <ele>1967.956055</ele>
        <time>2011-05-15T06:52:29Z</time>
      </trkpt>
      <trkpt lat="44.03848" lon="7.20645">
        <ele>1968.91748</ele>
        <time>2011-05-15T06:52:37Z</time>
      </trkpt>
      <trkpt lat="44.03844" lon="7.20653">
        <ele>1971.320557</ele>
        <time>2011-05-15T06:52:44Z</time>
      </trkpt>
      <trkpt lat="44.03841" lon="7.20662">
        <ele>1974.20459</ele>
        <time>2011-05-15T06:52:52Z</time>
      </trkpt>
      <trkpt lat="44.03838" lon="7.2067">
        <ele>1975.646484</ele>
        <time>2011-05-15T06:52:59Z</time>
      </trkpt>
      <trkpt lat="44.03834" lon="7.2068">
        <ele>1976.127197</ele>
        <time>2011-05-15T06:53:06Z</time>
      </trkpt>
      <trkpt lat="44.0383" lon="7.2069">
        <ele>1977.569092</ele>
        <time>2011-05-15T06:53:14Z</time>
      </trkpt>
      <trkpt lat="44.03826" lon="7.20701">
        <ele>1977.569092</ele>
        <time>2011-05-15T06:53:23Z</time>
      </trkpt>
      <trkpt lat="44.03825" lon="7.2071">
        <ele>1979.010986</ele>
        <time>2011-05-15T06:53:30Z</time>
      </trkpt>
      <trkpt lat="44.03822" lon="7.20722">
        <ele>1979.972412</ele>
        <time>2011-05-15T06:53:39Z</time>
      </trkpt>
      <trkpt lat="44.03821" lon="7.20726">
        <ele>1979.972412</ele>
        <time>2011-05-15T06:53:45Z</time>
      </trkpt>
      <trkpt lat="44.0382" lon="7.20729">
        <ele>1979.972412</ele>
        <time>2011-05-15T06:53:47Z</time>
      </trkpt>
      <trkpt lat="44.03817" lon="7.20749">
        <ele>1979.491699</ele>
        <time>2011-05-15T06:53:57Z</time>
      </trkpt>
      <trkpt lat="44.03809" lon="7.20763">
        <ele>1980.453369</ele>
        <time>2011-05-15T06:54:05Z</time>
      </trkpt>
      <trkpt lat="44.03806" lon="7.20774">
        <ele>1980.934082</ele>
        <time>2011-05-15T06:54:10Z</time>
      </trkpt>
      <trkpt lat="44.03797" lon="7.20793">
        <ele>1981.414551</ele>
        <time>2011-05-15T06:54:20Z</time>
      </trkpt>
      <trkpt lat="44.03787" lon="7.2081">
        <ele>1981.895264</ele>
        <time>2011-05-15T06:54:29Z</time>
      </trkpt>
      <trkpt lat="44.03777" lon="7.20826">
        <ele>1982.375977</ele>
        <time>2011-05-15T06:54:37Z</time>
      </trkpt>
      <trkpt lat="44.03768" lon="7.20842">
        <ele>1981.895264</ele>
        <time>2011-05-15T06:54:45Z</time>
      </trkpt>
      <trkpt lat="44.0376" lon="7.20856">
        <ele>1982.375977</ele>
        <time>2011-05-15T06:54:53Z</time>
      </trkpt>
      <trkpt lat="44.03751" lon="7.20873">
        <ele>1982.856445</ele>
        <time>2011-05-15T06:55:02Z</time>
      </trkpt>
      <trkpt lat="44.03742" lon="7.20882">
        <ele>1983.817871</ele>
        <time>2011-05-15T06:55:09Z</time>
      </trkpt>
      <trkpt lat="44.03732" lon="7.20889">
        <ele>1984.779297</ele>
        <time>2011-05-15T06:55:15Z</time>
      </trkpt>
      <trkpt lat="44.03721" lon="7.20889">
        <ele>1985.740479</ele>
        <time>2011-05-15T06:55:22Z</time>
      </trkpt>
      <trkpt lat="44.03713" lon="7.20885">
        <ele>1985.259766</ele>
        <time>2011-05-15T06:55:27Z</time>
      </trkpt>
      <trkpt lat="44.03697" lon="7.20882">
        <ele>1985.259766</ele>
        <time>2011-05-15T06:55:35Z</time>
      </trkpt>
      <trkpt lat="44.03681" lon="7.20894">
        <ele>1983.337158</ele>
        <time>2011-05-15T06:55:41Z</time>
      </trkpt>
      <trkpt lat="44.03666" lon="7.209">
        <ele>1981.895264</ele>
        <time>2011-05-15T06:55:45Z</time>
      </trkpt>
      <trkpt lat="44.03641" lon="7.20903">
        <ele>1980.453369</ele>
        <time>2011-05-15T06:55:51Z</time>
      </trkpt>
      <trkpt lat="44.03633" lon="7.20906">
        <ele>1980.453369</ele>
        <time>2011-05-15T06:55:53Z</time>
      </trkpt>
      <trkpt lat="44.03629" lon="7.20911">
        <ele>1980.934082</ele>
        <time>2011-05-15T06:55:55Z</time>
      </trkpt>
      <trkpt lat="44.03609" lon="7.20922">
        <ele>1979.972412</ele>
        <time>2011-05-15T06:56:01Z</time>
      </trkpt>
      <trkpt lat="44.03605" lon="7.20935">
        <ele>1981.414551</ele>
        <time>2011-05-15T06:56:05Z</time>
      </trkpt>
      <trkpt lat="44.03601" lon="7.2095">
        <ele>1982.375977</ele>
        <time>2011-05-15T06:56:11Z</time>
      </trkpt>
      <trkpt lat="44.036" lon="7.20963">
        <ele>1983.817871</ele>
        <time>2011-05-15T06:56:18Z</time>
      </trkpt>
      <trkpt lat="44.03592" lon="7.20976">
        <ele>1985.259766</ele>
        <time>2011-05-15T06:56:24Z</time>
      </trkpt>
      <trkpt lat="44.03583" lon="7.20987">
        <ele>1985.259766</ele>
        <time>2011-05-15T06:56:29Z</time>
      </trkpt>
      <trkpt lat="44.03572" lon="7.20997">
        <ele>1987.182373</ele>
        <time>2011-05-15T06:56:36Z</time>
      </trkpt>
      <trkpt lat="44.03566" lon="7.20997">
        <ele>1986.70166</ele>
        <time>2011-05-15T06:56:41Z</time>
      </trkpt>
      <trkpt lat="44.03564" lon="7.20998">
        <ele>1986.70166</ele>
        <time>2011-05-15T06:56:47Z</time>
      </trkpt>
      <trkpt lat="44.03559" lon="7.20999">
        <ele>1989.585693</ele>
        <time>2011-05-15T06:56:52Z</time>
      </trkpt>
      <trkpt lat="44.03556" lon="7.21001">
        <ele>1990.546875</ele>
        <time>2011-05-15T06:56:55Z</time>
      </trkpt>
      <trkpt lat="44.03548" lon="7.21008">
        <ele>1991.508301</ele>
        <time>2011-05-15T06:57:01Z</time>
      </trkpt>
      <trkpt lat="44.03543" lon="7.21013">
        <ele>1991.989014</ele>
        <time>2011-05-15T06:57:05Z</time>
      </trkpt>
      <trkpt lat="44.03532" lon="7.21021">
        <ele>1990.066406</ele>
        <time>2011-05-15T06:57:11Z</time>
      </trkpt>
      <trkpt lat="44.03519" lon="7.21027">
        <ele>1991.027588</ele>
        <time>2011-05-15T06:57:18Z</time>
      </trkpt>
      <trkpt lat="44.03504" lon="7.21038">
        <ele>1991.508301</ele>
        <time>2011-05-15T06:57:25Z</time>
      </trkpt>
      <trkpt lat="44.0349" lon="7.21048">
        <ele>1990.546875</ele>
        <time>2011-05-15T06:57:32Z</time>
      </trkpt>
      <trkpt lat="44.03479" lon="7.21055">
        <ele>1991.989014</ele>
        <time>2011-05-15T06:57:38Z</time>
      </trkpt>
      <trkpt lat="44.03466" lon="7.2106">
        <ele>1993.430908</ele>
        <time>2011-05-15T06:57:45Z</time>
      </trkpt>
      <trkpt lat="44.03462" lon="7.21063">
        <ele>1995.834229</ele>
        <time>2011-05-15T06:57:50Z</time>
      </trkpt>
      <trkpt lat="44.03458" lon="7.21063">
        <ele>1997.276367</ele>
        <time>2011-05-15T06:57:55Z</time>
      </trkpt>
      <trkpt lat="44.03452" lon="7.21064">
        <ele>2000.1604</ele>
        <time>2011-05-15T06:58:02Z</time>
      </trkpt>
      <trkpt lat="44.03444" lon="7.21067">
        <ele>2000.640869</ele>
        <time>2011-05-15T06:58:11Z</time>
      </trkpt>
      <trkpt lat="44.03437" lon="7.21072">
        <ele>2001.602295</ele>
        <time>2011-05-15T06:58:18Z</time>
      </trkpt>
      <trkpt lat="44.03432" lon="7.21076">
        <ele>2001.602295</ele>
        <time>2011-05-15T06:58:24Z</time>
      </trkpt>
      <trkpt lat="44.03423" lon="7.21084">
        <ele>2001.602295</ele>
        <time>2011-05-15T06:58:31Z</time>
      </trkpt>
      <trkpt lat="44.03412" lon="7.21089">
        <ele>2002.082764</ele>
        <time>2011-05-15T06:58:39Z</time>
      </trkpt>
      <trkpt lat="44.03405" lon="7.21092">
        <ele>2002.563477</ele>
        <time>2011-05-15T06:58:45Z</time>
      </trkpt>
      <trkpt lat="44.03399" lon="7.21095">
        <ele>2002.563477</ele>
        <time>2011-05-15T06:58:50Z</time>
      </trkpt>
      <trkpt lat="44.03395" lon="7.21097">
        <ele>2003.524902</ele>
        <time>2011-05-15T06:58:56Z</time>
      </trkpt>
      <trkpt lat="44.03389" lon="7.21101">
        <ele>2004.005615</ele>
        <time>2011-05-15T06:59:03Z</time>
      </trkpt>
      <trkpt lat="44.03383" lon="7.21105">
        <ele>2003.524902</ele>
        <time>2011-05-15T06:59:09Z</time>
      </trkpt>
      <trkpt lat="44.03376" lon="7.21111">
        <ele>2005.927979</ele>
        <time>2011-05-15T06:59:16Z</time>
      </trkpt>
      <trkpt lat="44.03374" lon="7.21112">
        <ele>2006.889404</ele>
        <time>2011-05-15T06:59:18Z</time>
      </trkpt>
      <trkpt lat="44.03364" lon="7.21116">
        <ele>2007.85083</ele>
        <time>2011-05-15T06:59:25Z</time>
      </trkpt>
      <trkpt lat="44.03362" lon="7.21117">
        <ele>2007.85083</ele>
        <time>2011-05-15T06:59:26Z</time>
      </trkpt>
      <trkpt lat="44.03349" lon="7.21118">
        <ele>2007.85083</ele>
        <time>2011-05-15T06:59:33Z</time>
      </trkpt>
      <trkpt lat="44.03339" lon="7.21114">
        <ele>2007.85083</ele>
        <time>2011-05-15T06:59:37Z</time>
      </trkpt>
      <trkpt lat="44.03326" lon="7.21108">
        <ele>2007.85083</ele>
        <time>2011-05-15T06:59:42Z</time>
      </trkpt>
      <trkpt lat="44.03324" lon="7.21107">
        <ele>2008.331299</ele>
        <time>2011-05-15T06:59:43Z</time>
      </trkpt>
      <trkpt lat="44.03317" lon="7.21097">
        <ele>2010.734619</ele>
        <time>2011-05-15T06:59:48Z</time>
      </trkpt>
      <trkpt lat="44.03315" lon="7.21094">
        <ele>2013.138184</ele>
        <time>2011-05-15T06:59:49Z</time>
      </trkpt>
      <trkpt lat="44.03295" lon="7.21092">
        <ele>2016.021973</ele>
        <time>2011-05-15T06:59:55Z</time>
      </trkpt>
      <trkpt lat="44.03279" lon="7.21101">
        <ele>2014.099365</ele>
        <time>2011-05-15T06:59:59Z</time>
      </trkpt>
      <trkpt lat="44.0327" lon="7.21107">
        <ele>2013.138184</ele>
        <time>2011-05-15T07:00:01Z</time>
      </trkpt>
      <trkpt lat="44.03262" lon="7.21112">
        <ele>2012.657471</ele>
        <time>2011-05-15T07:00:03Z</time>
      </trkpt>
      <trkpt lat="44.03255" lon="7.2112">
        <ele>2010.734619</ele>
        <time>2011-05-15T07:00:08Z</time>
      </trkpt>
      <trkpt lat="44.03254" lon="7.21121">
        <ele>2011.215332</ele>
        <time>2011-05-15T07:00:09Z</time>
      </trkpt>
      <trkpt lat="44.03244" lon="7.21132">
        <ele>2012.657471</ele>
        <time>2011-05-15T07:00:15Z</time>
      </trkpt>
      <trkpt lat="44.03233" lon="7.21149">
        <ele>2011.696045</ele>
        <time>2011-05-15T07:00:19Z</time>
      </trkpt>
      <trkpt lat="44.03218" lon="7.21173">
        <ele>2008.331299</ele>
        <time>2011-05-15T07:00:23Z</time>
      </trkpt>
      <trkpt lat="44.03201" lon="7.21209">
        <ele>2002.082764</ele>
        <time>2011-05-15T07:00:28Z</time>
      </trkpt>
      <trkpt lat="44.03199" lon="7.21244">
        <ele>1998.237549</ele>
        <time>2011-05-15T07:00:32Z</time>
      </trkpt>
      <trkpt lat="44.03206" lon="7.21291">
        <ele>1992.469727</ele>
        <time>2011-05-15T07:00:38Z</time>
      </trkpt>
      <trkpt lat="44.03207" lon="7.21329">
        <ele>1987.182373</ele>
        <time>2011-05-15T07:00:43Z</time>
      </trkpt>
      <trkpt lat="44.03207" lon="7.21347">
        <ele>1984.779297</ele>
        <time>2011-05-15T07:00:45Z</time>
      </trkpt>
      <trkpt lat="44.03206" lon="7.21369">
        <ele>1981.895264</ele>
        <time>2011-05-15T07:00:48Z</time>
      </trkpt>
      <trkpt lat="44.03206" lon="7.21386">
        <ele>1979.972412</ele>
        <time>2011-05-15T07:00:51Z</time>
      </trkpt>
      <trkpt lat="44.03202" lon="7.21416">
        <ele>1977.569092</ele>
        <time>2011-05-15T07:00:55Z</time>
      </trkpt>
      <trkpt lat="44.032" lon="7.21439">
        <ele>1975.165771</ele>
        <time>2011-05-15T07:00:59Z</time>
      </trkpt>
      <trkpt lat="44.03204" lon="7.21464">
        <ele>1971.80127</ele>
        <time>2011-05-15T07:01:03Z</time>
      </trkpt>
      <trkpt lat="44.03201" lon="7.21491">
        <ele>1967.956055</ele>
        <time>2011-05-15T07:01:07Z</time>
      </trkpt>
      <trkpt lat="44.03189" lon="7.21509">
        <ele>1966.033447</ele>
        <time>2011-05-15T07:01:10Z</time>
      </trkpt>
      <trkpt lat="44.03177" lon="7.21529">
        <ele>1963.629883</ele>
        <time>2011-05-15T07:01:15Z</time>
      </trkpt>
      <trkpt lat="44.03175" lon="7.21542">
        <ele>1962.187988</ele>
        <time>2011-05-15T07:01:18Z</time>
      </trkpt>
      <trkpt lat="44.0316" lon="7.2156">
        <ele>1961.70752</ele>
        <time>2011-05-15T07:01:24Z</time>
      </trkpt>
      <trkpt lat="44.03149" lon="7.21573">
        <ele>1962.187988</ele>
        <time>2011-05-15T07:01:30Z</time>
      </trkpt>
      <trkpt lat="44.03141" lon="7.2158">
        <ele>1962.187988</ele>
        <time>2011-05-15T07:01:35Z</time>
      </trkpt>
      <trkpt lat="44.03127" lon="7.21591">
        <ele>1960.265381</ele>
        <time>2011-05-15T07:01:40Z</time>
      </trkpt>
      <trkpt lat="44.03109" lon="7.21606">
        <ele>1958.342773</ele>
        <time>2011-05-15T07:01:44Z</time>
      </trkpt>
      <trkpt lat="44.03092" lon="7.21627">
        <ele>1955.458984</ele>
        <time>2011-05-15T07:01:48Z</time>
      </trkpt>
      <trkpt lat="44.03073" lon="7.2164">
        <ele>1952.094238</ele>
        <time>2011-05-15T07:01:52Z</time>
      </trkpt>
      <trkpt lat="44.0306" lon="7.21641">
        <ele>1949.691162</ele>
        <time>2011-05-15T07:01:54Z</time>
      </trkpt>
      <trkpt lat="44.03043" lon="7.21646">
        <ele>1945.845703</ele>
        <time>2011-05-15T07:01:57Z</time>
      </trkpt>
      <trkpt lat="44.03026" lon="7.21663">
        <ele>1943.923096</ele>
        <time>2011-05-15T07:02:02Z</time>
      </trkpt>
      <trkpt lat="44.03021" lon="7.21671">
        <ele>1943.442383</ele>
        <time>2011-05-15T07:02:04Z</time>
      </trkpt>
      <trkpt lat="44.03014" lon="7.21696">
        <ele>1943.442383</ele>
        <time>2011-05-15T07:02:10Z</time>
      </trkpt>
      <trkpt lat="44.03011" lon="7.21698">
        <ele>1944.403564</ele>
        <time>2011-05-15T07:02:14Z</time>
      </trkpt>
      <trkpt lat="44.03004" lon="7.21705">
        <ele>1943.923096</ele>
        <time>2011-05-15T07:02:19Z</time>
      </trkpt>
      <trkpt lat="44.03003" lon="7.21705">
        <ele>1943.923096</ele>
        <time>2011-05-15T07:02:20Z</time>
      </trkpt>
      <trkpt lat="44.02996" lon="7.21713">
        <ele>1945.845703</ele>
        <time>2011-05-15T07:02:28Z</time>
      </trkpt>
      <trkpt lat="44.02991" lon="7.21718">
        <ele>1947.768311</ele>
        <time>2011-05-15T07:02:35Z</time>
      </trkpt>
      <trkpt lat="44.02986" lon="7.21718">
        <ele>1948.249023</ele>
        <time>2011-05-15T07:02:40Z</time>
      </trkpt>
      <trkpt lat="44.02985" lon="7.21718">
        <ele>1947.768311</ele>
        <time>2011-05-15T07:02:41Z</time>
      </trkpt>
      <trkpt lat="44.02979" lon="7.21715">
        <ele>1948.249023</ele>
        <time>2011-05-15T07:02:47Z</time>
      </trkpt>
      <trkpt lat="44.02972" lon="7.21716">
        <ele>1948.249023</ele>
        <time>2011-05-15T07:02:54Z</time>
      </trkpt>
      <trkpt lat="44.02971" lon="7.21717">
        <ele>1948.249023</ele>
        <time>2011-05-15T07:02:55Z</time>
      </trkpt>
      <trkpt lat="44.02967" lon="7.2172">
        <ele>1949.210449</ele>
        <time>2011-05-15T07:02:59Z</time>
      </trkpt>
      <trkpt lat="44.02962" lon="7.21725">
        <ele>1948.729736</ele>
        <time>2011-05-15T07:03:04Z</time>
      </trkpt>
      <trkpt lat="44.02961" lon="7.21726">
        <ele>1948.249023</ele>
        <time>2011-05-15T07:03:05Z</time>
      </trkpt>
      <trkpt lat="44.02943" lon="7.21744">
        <ele>1946.326416</ele>
        <time>2011-05-15T07:03:10Z</time>
      </trkpt>
      <trkpt lat="44.0292" lon="7.21748">
        <ele>1943.923096</ele>
        <time>2011-05-15T07:03:14Z</time>
      </trkpt>
      <trkpt lat="44.02908" lon="7.21751">
        <ele>1942.96167</ele>
        <time>2011-05-15T07:03:16Z</time>
      </trkpt>
      <trkpt lat="44.02908" lon="7.21752">
        <ele>1941.519775</ele>
        <time>2011-05-15T07:03:20Z</time>
      </trkpt>
      <trkpt lat="44.02908" lon="7.21749">
        <ele>1939.597168</ele>
        <time>2011-05-15T07:03:25Z</time>
      </trkpt>
      <trkpt lat="44.02905" lon="7.21748">
        <ele>1941.039063</ele>
        <time>2011-05-15T07:03:30Z</time>
      </trkpt>
      <trkpt lat="44.029" lon="7.21749">
        <ele>1940.55835</ele>
        <time>2011-05-15T07:03:35Z</time>
      </trkpt>
      <trkpt lat="44.02893" lon="7.21758">
        <ele>1940.55835</ele>
        <time>2011-05-15T07:03:39Z</time>
      </trkpt>
      <trkpt lat="44.02888" lon="7.21773">
        <ele>1940.55835</ele>
        <time>2011-05-15T07:03:44Z</time>
      </trkpt>
      <trkpt lat="44.02887" lon="7.21776">
        <ele>1941.039063</ele>
        <time>2011-05-15T07:03:48Z</time>
      </trkpt>
      <trkpt lat="44.02886" lon="7.21779">
        <ele>1941.519775</ele>
        <time>2011-05-15T07:03:50Z</time>
      </trkpt>
      <trkpt lat="44.02885" lon="7.21794">
        <ele>1941.039063</ele>
        <time>2011-05-15T07:03:56Z</time>
      </trkpt>
      <trkpt lat="44.02886" lon="7.21801">
        <ele>1942.000488</ele>
        <time>2011-05-15T07:04:00Z</time>
      </trkpt>
      <trkpt lat="44.02877" lon="7.21819">
        <ele>1941.039063</ele>
        <time>2011-05-15T07:04:05Z</time>
      </trkpt>
      <trkpt lat="44.02863" lon="7.21836">
        <ele>1939.116455</ele>
        <time>2011-05-15T07:04:09Z</time>
      </trkpt>
      <trkpt lat="44.02853" lon="7.21842">
        <ele>1937.674561</ele>
        <time>2011-05-15T07:04:12Z</time>
      </trkpt>
      <trkpt lat="44.02841" lon="7.21847">
        <ele>1936.232666</ele>
        <time>2011-05-15T07:04:16Z</time>
      </trkpt>
      <trkpt lat="44.02822" lon="7.21857">
        <ele>1935.27124</ele>
        <time>2011-05-15T07:04:21Z</time>
      </trkpt>
      <trkpt lat="44.02811" lon="7.21874">
        <ele>1934.790771</ele>
        <time>2011-05-15T07:04:25Z</time>
      </trkpt>
      <trkpt lat="44.02806" lon="7.21885">
        <ele>1934.310059</ele>
        <time>2011-05-15T07:04:27Z</time>
      </trkpt>
      <trkpt lat="44.02795" lon="7.21915">
        <ele>1933.348633</ele>
        <time>2011-05-15T07:04:33Z</time>
      </trkpt>
      <trkpt lat="44.02792" lon="7.21924">
        <ele>1933.348633</ele>
        <time>2011-05-15T07:04:35Z</time>
      </trkpt>
      <trkpt lat="44.02779" lon="7.2195">
        <ele>1931.906494</ele>
        <time>2011-05-15T07:04:40Z</time>
      </trkpt>
      <trkpt lat="44.02759" lon="7.21983">
        <ele>1928.541992</ele>
        <time>2011-05-15T07:04:45Z</time>
      </trkpt>
      <trkpt lat="44.02726" lon="7.22021">
        <ele>1926.138672</ele>
        <time>2011-05-15T07:04:51Z</time>
      </trkpt>
      <trkpt lat="44.02721" lon="7.22027">
        <ele>1926.138672</ele>
        <time>2011-05-15T07:04:52Z</time>
      </trkpt>
      <trkpt lat="44.02698" lon="7.22055">
        <ele>1925.657959</ele>
        <time>2011-05-15T07:04:57Z</time>
      </trkpt>
      <trkpt lat="44.02687" lon="7.22086">
        <ele>1925.177246</ele>
        <time>2011-05-15T07:05:01Z</time>
      </trkpt>
      <trkpt lat="44.02684" lon="7.22114">
        <ele>1923.735352</ele>
        <time>2011-05-15T07:05:04Z</time>
      </trkpt>
      <trkpt lat="44.02676" lon="7.22144">
        <ele>1922.77417</ele>
        <time>2011-05-15T07:05:08Z</time>
      </trkpt>
      <trkpt lat="44.02674" lon="7.22184">
        <ele>1920.851563</ele>
        <time>2011-05-15T07:05:13Z</time>
      </trkpt>
      <trkpt lat="44.02678" lon="7.2221">
        <ele>1919.409668</ele>
        <time>2011-05-15T07:05:16Z</time>
      </trkpt>
      <trkpt lat="44.02676" lon="7.22242">
        <ele>1917.967529</ele>
        <time>2011-05-15T07:05:21Z</time>
      </trkpt>
      <trkpt lat="44.02662" lon="7.22269">
        <ele>1917.486816</ele>
        <time>2011-05-15T07:05:28Z</time>
      </trkpt>
      <trkpt lat="44.02654" lon="7.22285">
        <ele>1917.006348</ele>
        <time>2011-05-15T07:05:32Z</time>
      </trkpt>
      <trkpt lat="44.02641" lon="7.22309">
        <ele>1916.525635</ele>
        <time>2011-05-15T07:05:37Z</time>
      </trkpt>
      <trkpt lat="44.02628" lon="7.22324">
        <ele>1917.967529</ele>
        <time>2011-05-15T07:05:43Z</time>
      </trkpt>
      <trkpt lat="44.0262" lon="7.22331">
        <ele>1919.409668</ele>
        <time>2011-05-15T07:05:48Z</time>
      </trkpt>
      <trkpt lat="44.0261" lon="7.22338">
        <ele>1921.332031</ele>
        <time>2011-05-15T07:05:54Z</time>
      </trkpt>
      <trkpt lat="44.02599" lon="7.22345">
        <ele>1924.696777</ele>
        <time>2011-05-15T07:06:00Z</time>
      </trkpt>
      <trkpt lat="44.02588" lon="7.22348">
        <ele>1926.138672</ele>
        <time>2011-05-15T07:06:05Z</time>
      </trkpt>
      <trkpt lat="44.02579" lon="7.22354">
        <ele>1926.619385</ele>
        <time>2011-05-15T07:06:10Z</time>
      </trkpt>
      <trkpt lat="44.02578" lon="7.22356">
        <ele>1926.619385</ele>
        <time>2011-05-15T07:06:11Z</time>
      </trkpt>
      <trkpt lat="44.02572" lon="7.22361">
        <ele>1928.541992</ele>
        <time>2011-05-15T07:06:16Z</time>
      </trkpt>
      <trkpt lat="44.02569" lon="7.22366">
        <ele>1928.541992</ele>
        <time>2011-05-15T07:06:19Z</time>
      </trkpt>
      <trkpt lat="44.02565" lon="7.22372">
        <ele>1929.022461</ele>
        <time>2011-05-15T07:06:24Z</time>
      </trkpt>
      <trkpt lat="44.02563" lon="7.22373">
        <ele>1929.503174</ele>
        <time>2011-05-15T07:06:25Z</time>
      </trkpt>
      <trkpt lat="44.02558" lon="7.22377">
        <ele>1929.503174</ele>
        <time>2011-05-15T07:06:28Z</time>
      </trkpt>
      <trkpt lat="44.02544" lon="7.22386">
        <ele>1929.503174</ele>
        <time>2011-05-15T07:06:35Z</time>
      </trkpt>
      <trkpt lat="44.02535" lon="7.22393">
        <ele>1931.425781</ele>
        <time>2011-05-15T07:06:40Z</time>
      </trkpt>
      <trkpt lat="44.02528" lon="7.22401">
        <ele>1931.425781</ele>
        <time>2011-05-15T07:06:46Z</time>
      </trkpt>
      <trkpt lat="44.02518" lon="7.22408">
        <ele>1933.829346</ele>
        <time>2011-05-15T07:06:52Z</time>
      </trkpt>
      <trkpt lat="44.0251" lon="7.22416">
        <ele>1935.27124</ele>
        <time>2011-05-15T07:06:58Z</time>
      </trkpt>
      <trkpt lat="44.02505" lon="7.22427">
        <ele>1934.310059</ele>
        <time>2011-05-15T07:07:05Z</time>
      </trkpt>
      <trkpt lat="44.02501" lon="7.22439">
        <ele>1936.232666</ele>
        <time>2011-05-15T07:07:12Z</time>
      </trkpt>
      <trkpt lat="44.02501" lon="7.2244">
        <ele>1936.713135</ele>
        <time>2011-05-15T07:07:13Z</time>
      </trkpt>
      <trkpt lat="44.025" lon="7.22457">
        <ele>1936.713135</ele>
        <time>2011-05-15T07:07:22Z</time>
      </trkpt>
      <trkpt lat="44.02497" lon="7.22479">
        <ele>1939.116455</ele>
        <time>2011-05-15T07:07:32Z</time>
      </trkpt>
      <trkpt lat="44.02498" lon="7.22492">
        <ele>1939.597168</ele>
        <time>2011-05-15T07:07:38Z</time>
      </trkpt>
      <trkpt lat="44.02497" lon="7.22507">
        <ele>1940.077881</ele>
        <time>2011-05-15T07:07:45Z</time>
      </trkpt>
      <trkpt lat="44.02497" lon="7.22523">
        <ele>1942.481201</ele>
        <time>2011-05-15T07:07:52Z</time>
      </trkpt>
      <trkpt lat="44.02494" lon="7.2254">
        <ele>1943.442383</ele>
        <time>2011-05-15T07:07:59Z</time>
      </trkpt>
      <trkpt lat="44.02492" lon="7.22556">
        <ele>1944.403564</ele>
        <time>2011-05-15T07:08:06Z</time>
      </trkpt>
      <trkpt lat="44.0249" lon="7.2257">
        <ele>1945.845703</ele>
        <time>2011-05-15T07:08:13Z</time>
      </trkpt>
      <trkpt lat="44.02486" lon="7.2259">
        <ele>1946.806885</ele>
        <time>2011-05-15T07:08:23Z</time>
      </trkpt>
      <trkpt lat="44.02483" lon="7.22598">
        <ele>1948.249023</ele>
        <time>2011-05-15T07:08:28Z</time>
      </trkpt>
      <trkpt lat="44.02479" lon="7.22612">
        <ele>1949.691162</ele>
        <time>2011-05-15T07:08:36Z</time>
      </trkpt>
      <trkpt lat="44.02472" lon="7.22628">
        <ele>1952.574951</ele>
        <time>2011-05-15T07:08:44Z</time>
      </trkpt>
      <trkpt lat="44.02467" lon="7.22652">
        <ele>1954.978271</ele>
        <time>2011-05-15T07:08:54Z</time>
      </trkpt>
      <trkpt lat="44.02464" lon="7.22673">
        <ele>1955.458984</ele>
        <time>2011-05-15T07:09:01Z</time>
      </trkpt>
      <trkpt lat="44.02458" lon="7.22695">
        <ele>1956.420166</ele>
        <time>2011-05-15T07:09:08Z</time>
      </trkpt>
      <trkpt lat="44.02451" lon="7.22714">
        <ele>1955.939453</ele>
        <time>2011-05-15T07:09:14Z</time>
      </trkpt>
      <trkpt lat="44.02439" lon="7.22736">
        <ele>1954.497559</ele>
        <time>2011-05-15T07:09:18Z</time>
      </trkpt>
      <trkpt lat="44.02433" lon="7.22748">
        <ele>1953.055664</ele>
        <time>2011-05-15T07:09:20Z</time>
      </trkpt>
      <trkpt lat="44.02422" lon="7.22765">
        <ele>1951.61377</ele>
        <time>2011-05-15T07:09:23Z</time>
      </trkpt>
      <trkpt lat="44.02412" lon="7.22777">
        <ele>1950.652344</ele>
        <time>2011-05-15T07:09:26Z</time>
      </trkpt>
      <trkpt lat="44.02408" lon="7.22783">
        <ele>1950.171875</ele>
        <time>2011-05-15T07:09:28Z</time>
      </trkpt>
      <trkpt lat="44.02396" lon="7.22796">
        <ele>1950.652344</ele>
        <time>2011-05-15T07:09:33Z</time>
      </trkpt>
      <trkpt lat="44.02391" lon="7.22808">
        <ele>1952.094238</ele>
        <time>2011-05-15T07:09:37Z</time>
      </trkpt>
      <trkpt lat="44.02389" lon="7.22819">
        <ele>1953.536377</ele>
        <time>2011-05-15T07:09:42Z</time>
      </trkpt>
      <trkpt lat="44.02387" lon="7.22838">
        <ele>1955.458984</ele>
        <time>2011-05-15T07:09:48Z</time>
      </trkpt>
      <trkpt lat="44.02384" lon="7.22856">
        <ele>1956.900879</ele>
        <time>2011-05-15T07:09:55Z</time>
      </trkpt>
      <trkpt lat="44.02375" lon="7.22877">
        <ele>1957.862305</ele>
        <time>2011-05-15T07:10:02Z</time>
      </trkpt>
      <trkpt lat="44.02365" lon="7.22891">
        <ele>1959.304199</ele>
        <time>2011-05-15T07:10:08Z</time>
      </trkpt>
      <trkpt lat="44.02351" lon="7.22909">
        <ele>1960.265381</ele>
        <time>2011-05-15T07:10:15Z</time>
      </trkpt>
      <trkpt lat="44.0234" lon="7.22918">
        <ele>1960.265381</ele>
        <time>2011-05-15T07:10:19Z</time>
      </trkpt>
      <trkpt lat="44.02325" lon="7.22937">
        <ele>1960.265381</ele>
        <time>2011-05-15T07:10:24Z</time>
      </trkpt>
      <trkpt lat="44.02309" lon="7.22949">
        <ele>1958.823486</ele>
        <time>2011-05-15T07:10:28Z</time>
      </trkpt>
      <trkpt lat="44.02298" lon="7.22971">
        <ele>1958.342773</ele>
        <time>2011-05-15T07:10:32Z</time>
      </trkpt>
      <trkpt lat="44.02297" lon="7.22978">
        <ele>1957.381592</ele>
        <time>2011-05-15T07:10:33Z</time>
      </trkpt>
      <trkpt lat="44.02282" lon="7.23018">
        <ele>1956.420166</ele>
        <time>2011-05-15T07:10:39Z</time>
      </trkpt>
      <trkpt lat="44.02261" lon="7.23046">
        <ele>1955.939453</ele>
        <time>2011-05-15T07:10:44Z</time>
      </trkpt>
      <trkpt lat="44.02243" lon="7.23059">
        <ele>1955.458984</ele>
        <time>2011-05-15T07:10:49Z</time>
      </trkpt>
      <trkpt lat="44.02239" lon="7.23062">
        <ele>1954.978271</ele>
        <time>2011-05-15T07:10:50Z</time>
      </trkpt>
      <trkpt lat="44.02228" lon="7.23071">
        <ele>1953.536377</ele>
        <time>2011-05-15T07:10:53Z</time>
      </trkpt>
      <trkpt lat="44.022" lon="7.23086">
        <ele>1951.61377</ele>
        <time>2011-05-15T07:10:58Z</time>
      </trkpt>
      <trkpt lat="44.02194" lon="7.23089">
        <ele>1951.61377</ele>
        <time>2011-05-15T07:10:59Z</time>
      </trkpt>
      <trkpt lat="44.02171" lon="7.23093">
        <ele>1949.691162</ele>
        <time>2011-05-15T07:11:04Z</time>
      </trkpt>
      <trkpt lat="44.02154" lon="7.231">
        <ele>1948.729736</ele>
        <time>2011-05-15T07:11:08Z</time>
      </trkpt>
      <trkpt lat="44.02134" lon="7.2311">
        <ele>1948.249023</ele>
        <time>2011-05-15T07:11:13Z</time>
      </trkpt>
      <trkpt lat="44.02103" lon="7.23114">
        <ele>1945.845703</ele>
        <time>2011-05-15T07:11:19Z</time>
      </trkpt>
      <trkpt lat="44.02095" lon="7.2312">
        <ele>1944.884277</ele>
        <time>2011-05-15T07:11:21Z</time>
      </trkpt>
      <trkpt lat="44.02085" lon="7.23126">
        <ele>1944.403564</ele>
        <time>2011-05-15T07:11:23Z</time>
      </trkpt>
      <trkpt lat="44.02065" lon="7.23133">
        <ele>1942.96167</ele>
        <time>2011-05-15T07:11:27Z</time>
      </trkpt>
      <trkpt lat="44.02034" lon="7.23155">
        <ele>1939.597168</ele>
        <time>2011-05-15T07:11:33Z</time>
      </trkpt>
      <trkpt lat="44.0201" lon="7.23172">
        <ele>1936.713135</ele>
        <time>2011-05-15T07:11:38Z</time>
      </trkpt>
      <trkpt lat="44.01995" lon="7.23177">
        <ele>1935.751953</ele>
        <time>2011-05-15T07:11:42Z</time>
      </trkpt>
      <trkpt lat="44.02001" lon="7.23176">
        <ele>1934.310059</ele>
        <time>2011-05-15T07:11:47Z</time>
      </trkpt>
      <trkpt lat="44.02007" lon="7.2319">
        <ele>1918.928955</ele>
        <time>2011-05-15T07:12:09Z</time>
      </trkpt>
      <trkpt lat="44.02" lon="7.23182">
        <ele>1914.12207</ele>
        <time>2011-05-15T07:12:42Z</time>
      </trkpt>
      <trkpt lat="44.01999" lon="7.2318">
        <ele>1914.602783</ele>
        <time>2011-05-15T07:12:51Z</time>
      </trkpt>
      <trkpt lat="44.01998" lon="7.23178">
        <ele>1917.486816</ele>
        <time>2011-05-15T07:13:05Z</time>
      </trkpt>
      <trkpt lat="44.01997" lon="7.23178">
        <ele>1917.967529</ele>
        <time>2011-05-15T07:13:08Z</time>
      </trkpt>
      <trkpt lat="44.01997" lon="7.23178">
        <ele>1917.967529</ele>
        <time>2011-05-15T07:13:09Z</time>
      </trkpt>
      <trkpt lat="44.01997" lon="7.23176">
        <ele>1918.928955</ele>
        <time>2011-05-15T07:13:24Z</time>
      </trkpt>
      <trkpt lat="44.01998" lon="7.23177">
        <ele>1926.619385</ele>
        <time>2011-05-15T07:13:36Z</time>
      </trkpt>
      <trkpt lat="44.01997" lon="7.23178">
        <ele>1929.022461</ele>
        <time>2011-05-15T07:13:41Z</time>
      </trkpt>
      <trkpt lat="44.01993" lon="7.23179">
        <ele>1934.310059</ele>
        <time>2011-05-15T07:13:47Z</time>
      </trkpt>
      <trkpt lat="44.01985" lon="7.23179">
        <ele>1936.232666</ele>
        <time>2011-05-15T07:13:52Z</time>
      </trkpt>
      <trkpt lat="44.01978" lon="7.23178">
        <ele>1937.193848</ele>
        <time>2011-05-15T07:13:55Z</time>
      </trkpt>
      <trkpt lat="44.01968" lon="7.23178">
        <ele>1939.116455</ele>
        <time>2011-05-15T07:14:01Z</time>
      </trkpt>
      <trkpt lat="44.01953" lon="7.2318">
        <ele>1939.597168</ele>
        <time>2011-05-15T07:14:07Z</time>
      </trkpt>
      <trkpt lat="44.01945" lon="7.23179">
        <ele>1940.077881</ele>
        <time>2011-05-15T07:14:11Z</time>
      </trkpt>
      <trkpt lat="44.01937" lon="7.23177">
        <ele>1940.55835</ele>
        <time>2011-05-15T07:14:15Z</time>
      </trkpt>
      <trkpt lat="44.01926" lon="7.23178">
        <ele>1939.116455</ele>
        <time>2011-05-15T07:14:20Z</time>
      </trkpt>
      <trkpt lat="44.0192" lon="7.2318">
        <ele>1939.597168</ele>
        <time>2011-05-15T07:14:23Z</time>
      </trkpt>
      <trkpt lat="44.01909" lon="7.23181">
        <ele>1941.039063</ele>
        <time>2011-05-15T07:14:28Z</time>
      </trkpt>
      <trkpt lat="44.01899" lon="7.23181">
        <ele>1941.519775</ele>
        <time>2011-05-15T07:14:34Z</time>
      </trkpt>
      <trkpt lat="44.01891" lon="7.23178">
        <ele>1943.442383</ele>
        <time>2011-05-15T07:14:39Z</time>
      </trkpt>
      <trkpt lat="44.01881" lon="7.23171">
        <ele>1947.287598</ele>
        <time>2011-05-15T07:14:45Z</time>
      </trkpt>
      <trkpt lat="44.01875" lon="7.2317">
        <ele>1947.768311</ele>
        <time>2011-05-15T07:14:48Z</time>
      </trkpt>
      <trkpt lat="44.01867" lon="7.23172">
        <ele>1948.729736</ele>
        <time>2011-05-15T07:14:52Z</time>
      </trkpt>
      <trkpt lat="44.01851" lon="7.23175">
        <ele>1950.171875</ele>
        <time>2011-05-15T07:14:58Z</time>
      </trkpt>
      <trkpt lat="44.0184" lon="7.2318">
        <ele>1950.171875</ele>
        <time>2011-05-15T07:15:03Z</time>
      </trkpt>
      <trkpt lat="44.01837" lon="7.2318">
        <ele>1950.652344</ele>
        <time>2011-05-15T07:15:05Z</time>
      </trkpt>
      <trkpt lat="44.01826" lon="7.23175">
        <ele>1950.171875</ele>
        <time>2011-05-15T07:15:10Z</time>
      </trkpt>
      <trkpt lat="44.01815" lon="7.23176">
        <ele>1947.768311</ele>
        <time>2011-05-15T07:15:15Z</time>
      </trkpt>
      <trkpt lat="44.01814" lon="7.23175">
        <ele>1947.768311</ele>
        <time>2011-05-15T07:15:16Z</time>
      </trkpt>
      <trkpt lat="44.01808" lon="7.23177">
        <ele>1948.249023</ele>
        <time>2011-05-15T07:15:19Z</time>
      </trkpt>
      <trkpt lat="44.01799" lon="7.23173">
        <ele>1949.210449</ele>
        <time>2011-05-15T07:15:25Z</time>
      </trkpt>
      <trkpt lat="44.01791" lon="7.23168">
        <ele>1951.61377</ele>
        <time>2011-05-15T07:15:30Z</time>
      </trkpt>
      <trkpt lat="44.01789" lon="7.23168">
        <ele>1952.094238</ele>
        <time>2011-05-15T07:15:31Z</time>
      </trkpt>
      <trkpt lat="44.01778" lon="7.23165">
        <ele>1955.939453</ele>
        <time>2011-05-15T07:15:38Z</time>
      </trkpt>
      <trkpt lat="44.01775" lon="7.23163">
        <ele>1957.381592</ele>
        <time>2011-05-15T07:15:41Z</time>
      </trkpt>
      <trkpt lat="44.01767" lon="7.2316">
        <ele>1961.226807</ele>
        <time>2011-05-15T07:15:47Z</time>
      </trkpt>
      <trkpt lat="44.01753" lon="7.23167">
        <ele>1958.342773</ele>
        <time>2011-05-15T07:15:54Z</time>
      </trkpt>
      <trkpt lat="44.0174" lon="7.23168">
        <ele>1958.342773</ele>
        <time>2011-05-15T07:15:59Z</time>
      </trkpt>
      <trkpt lat="44.01723" lon="7.23168">
        <ele>1956.900879</ele>
        <time>2011-05-15T07:16:04Z</time>
      </trkpt>
      <trkpt lat="44.01704" lon="7.23169">
        <ele>1955.458984</ele>
        <time>2011-05-15T07:16:09Z</time>
      </trkpt>
      <trkpt lat="44.0168" lon="7.23175">
        <ele>1953.536377</ele>
        <time>2011-05-15T07:16:15Z</time>
      </trkpt>
      <trkpt lat="44.01673" lon="7.23177">
        <ele>1953.536377</ele>
        <time>2011-05-15T07:16:17Z</time>
      </trkpt>
      <trkpt lat="44.0166" lon="7.2317">
        <ele>1954.01709</ele>
        <time>2011-05-15T07:16:22Z</time>
      </trkpt>
      <trkpt lat="44.01654" lon="7.23167">
        <ele>1956.420166</ele>
        <time>2011-05-15T07:16:27Z</time>
      </trkpt>
      <trkpt lat="44.01645" lon="7.23166">
        <ele>1960.746094</ele>
        <time>2011-05-15T07:16:33Z</time>
      </trkpt>
      <trkpt lat="44.01629" lon="7.23168">
        <ele>1964.11084</ele>
        <time>2011-05-15T07:16:42Z</time>
      </trkpt>
      <trkpt lat="44.01627" lon="7.23168">
        <ele>1963.149414</ele>
        <time>2011-05-15T07:16:43Z</time>
      </trkpt>
      <trkpt lat="44.0162" lon="7.23169">
        <ele>1966.51416</ele>
        <time>2011-05-15T07:16:48Z</time>
      </trkpt>
      <trkpt lat="44.01614" lon="7.2317">
        <ele>1965.072266</ele>
        <time>2011-05-15T07:16:53Z</time>
      </trkpt>
      <trkpt lat="44.01608" lon="7.23169">
        <ele>1965.552979</ele>
        <time>2011-05-15T07:16:59Z</time>
      </trkpt>
      <trkpt lat="44.01605" lon="7.23167">
        <ele>1966.51416</ele>
        <time>2011-05-15T07:17:04Z</time>
      </trkpt>
      <trkpt lat="44.01593" lon="7.2316">
        <ele>1968.436768</ele>
        <time>2011-05-15T07:17:13Z</time>
      </trkpt>
      <trkpt lat="44.01587" lon="7.23155">
        <ele>1968.91748</ele>
        <time>2011-05-15T07:17:19Z</time>
      </trkpt>
      <trkpt lat="44.01587" lon="7.23152">
        <ele>1969.398193</ele>
        <time>2011-05-15T07:17:23Z</time>
      </trkpt>
      <trkpt lat="44.01586" lon="7.23145">
        <ele>1972.762695</ele>
        <time>2011-05-15T07:17:28Z</time>
      </trkpt>
      <trkpt lat="44.01583" lon="7.23137">
        <ele>1973.723877</ele>
        <time>2011-05-15T07:17:34Z</time>
      </trkpt>
      <trkpt lat="44.01578" lon="7.23132">
        <ele>1972.762695</ele>
        <time>2011-05-15T07:17:39Z</time>
      </trkpt>
      <trkpt lat="44.01568" lon="7.23126">
        <ele>1969.878662</ele>
        <time>2011-05-15T07:17:48Z</time>
      </trkpt>
      <trkpt lat="44.0156" lon="7.23117">
        <ele>1967.475342</ele>
        <time>2011-05-15T07:17:54Z</time>
      </trkpt>
      <trkpt lat="44.01549" lon="7.23103">
        <ele>1965.072266</ele>
        <time>2011-05-15T07:17:59Z</time>
      </trkpt>
      <trkpt lat="44.01545" lon="7.23096">
        <ele>1965.072266</ele>
        <time>2011-05-15T07:18:03Z</time>
      </trkpt>
      <trkpt lat="44.01545" lon="7.23093">
        <ele>1966.033447</ele>
        <time>2011-05-15T07:18:07Z</time>
      </trkpt>
      <trkpt lat="44.01548" lon="7.23087">
        <ele>1967.956055</ele>
        <time>2011-05-15T07:18:15Z</time>
      </trkpt>
      <trkpt lat="44.0155" lon="7.23081">
        <ele>1970.840088</ele>
        <time>2011-05-15T07:18:20Z</time>
      </trkpt>
      <trkpt lat="44.0155" lon="7.23079">
        <ele>1970.359375</ele>
        <time>2011-05-15T07:18:21Z</time>
      </trkpt>
      <trkpt lat="44.01548" lon="7.23063">
        <ele>1968.91748</ele>
        <time>2011-05-15T07:18:27Z</time>
      </trkpt>
      <trkpt lat="44.01548" lon="7.23058">
        <ele>1966.994873</ele>
        <time>2011-05-15T07:18:28Z</time>
      </trkpt>
      <trkpt lat="44.01547" lon="7.23034">
        <ele>1961.70752</ele>
        <time>2011-05-15T07:18:33Z</time>
      </trkpt>
      <trkpt lat="44.01537" lon="7.2301">
        <ele>1955.939453</ele>
        <time>2011-05-15T07:18:38Z</time>
      </trkpt>
      <trkpt lat="44.01533" lon="7.23005">
        <ele>1953.536377</ele>
        <time>2011-05-15T07:18:39Z</time>
      </trkpt>
      <trkpt lat="44.01513" lon="7.22995">
        <ele>1946.806885</ele>
        <time>2011-05-15T07:18:43Z</time>
      </trkpt>
      <trkpt lat="44.01497" lon="7.22991">
        <ele>1940.55835</ele>
        <time>2011-05-15T07:18:48Z</time>
      </trkpt>
      <trkpt lat="44.01485" lon="7.22972">
        <ele>1935.27124</ele>
        <time>2011-05-15T07:18:52Z</time>
      </trkpt>
      <trkpt lat="44.01475" lon="7.22956">
        <ele>1930.945313</ele>
        <time>2011-05-15T07:18:55Z</time>
      </trkpt>
      <trkpt lat="44.01469" lon="7.22933">
        <ele>1927.100098</ele>
        <time>2011-05-15T07:18:59Z</time>
      </trkpt>
      <trkpt lat="44.01468" lon="7.22912">
        <ele>1923.735352</ele>
        <time>2011-05-15T07:19:03Z</time>
      </trkpt>
      <trkpt lat="44.01467" lon="7.22905">
        <ele>1922.77417</ele>
        <time>2011-05-15T07:19:04Z</time>
      </trkpt>
      <trkpt lat="44.01468" lon="7.22882">
        <ele>1921.332031</ele>
        <time>2011-05-15T07:19:07Z</time>
      </trkpt>
      <trkpt lat="44.01464" lon="7.22861">
        <ele>1919.409668</ele>
        <time>2011-05-15T07:19:10Z</time>
      </trkpt>
      <trkpt lat="44.01449" lon="7.22847">
        <ele>1914.12207</ele>
        <time>2011-05-15T07:19:14Z</time>
      </trkpt>
      <trkpt lat="44.01423" lon="7.2283">
        <ele>1911.238281</ele>
        <time>2011-05-15T07:19:20Z</time>
      </trkpt>
      <trkpt lat="44.01402" lon="7.22822">
        <ele>1906.912354</ele>
        <time>2011-05-15T07:19:25Z</time>
      </trkpt>
      <trkpt lat="44.01389" lon="7.22819">
        <ele>1906.431641</ele>
        <time>2011-05-15T07:19:28Z</time>
      </trkpt>
      <trkpt lat="44.01376" lon="7.22817">
        <ele>1904.509033</ele>
        <time>2011-05-15T07:19:31Z</time>
      </trkpt>
      <trkpt lat="44.01365" lon="7.22816">
        <ele>1902.105713</ele>
        <time>2011-05-15T07:19:33Z</time>
      </trkpt>
      <trkpt lat="44.01358" lon="7.22816">
        <ele>1902.105713</ele>
        <time>2011-05-15T07:19:37Z</time>
      </trkpt>
      <trkpt lat="44.01366" lon="7.2281">
        <ele>1900.18335</ele>
        <time>2011-05-15T07:19:42Z</time>
      </trkpt>
      <trkpt lat="44.01382" lon="7.22802">
        <ele>1897.779785</ele>
        <time>2011-05-15T07:19:46Z</time>
      </trkpt>
      <trkpt lat="44.0139" lon="7.22798">
        <ele>1896.818359</ele>
        <time>2011-05-15T07:19:50Z</time>
      </trkpt>
      <trkpt lat="44.0139" lon="7.22797">
        <ele>1897.299072</ele>
        <time>2011-05-15T07:19:51Z</time>
      </trkpt>
      <trkpt lat="44.01378" lon="7.22797">
        <ele>1896.337891</ele>
        <time>2011-05-15T07:19:55Z</time>
      </trkpt>
      <trkpt lat="44.01357" lon="7.22793">
        <ele>1892.011963</ele>
        <time>2011-05-15T07:19:59Z</time>
      </trkpt>
      <trkpt lat="44.01337" lon="7.2279">
        <ele>1889.608643</ele>
        <time>2011-05-15T07:20:03Z</time>
      </trkpt>
      <trkpt lat="44.01325" lon="7.2279">
        <ele>1885.282715</ele>
        <time>2011-05-15T07:20:06Z</time>
      </trkpt>
      <trkpt lat="44.01307" lon="7.2278">
        <ele>1881.917969</ele>
        <time>2011-05-15T07:20:12Z</time>
      </trkpt>
      <trkpt lat="44.01319" lon="7.22781">
        <ele>1876.150146</ele>
        <time>2011-05-15T07:20:17Z</time>
      </trkpt>
      <trkpt lat="44.01335" lon="7.22774">
        <ele>1868.94043</ele>
        <time>2011-05-15T07:20:22Z</time>
      </trkpt>
      <trkpt lat="44.01342" lon="7.22755">
        <ele>1863.652832</ele>
        <time>2011-05-15T07:20:28Z</time>
      </trkpt>
      <trkpt lat="44.01341" lon="7.22751">
        <ele>1862.69165</ele>
        <time>2011-05-15T07:20:31Z</time>
      </trkpt>
      <trkpt lat="44.01329" lon="7.22758">
        <ele>1863.652832</ele>
        <time>2011-05-15T07:20:36Z</time>
      </trkpt>
      <trkpt lat="44.0132" lon="7.22765">
        <ele>1860.28833</ele>
        <time>2011-05-15T07:20:39Z</time>
      </trkpt>
      <trkpt lat="44.01317" lon="7.22766">
        <ele>1859.327148</ele>
        <time>2011-05-15T07:20:40Z</time>
      </trkpt>
      <trkpt lat="44.0131" lon="7.22752">
        <ele>1855.962402</ele>
        <time>2011-05-15T07:20:44Z</time>
      </trkpt>
      <trkpt lat="44.01293" lon="7.22737">
        <ele>1850.675049</ele>
        <time>2011-05-15T07:20:49Z</time>
      </trkpt>
      <trkpt lat="44.01284" lon="7.22728">
        <ele>1851.155762</ele>
        <time>2011-05-15T07:20:54Z</time>
      </trkpt>
      <trkpt lat="44.01282" lon="7.22725">
        <ele>1851.636475</ele>
        <time>2011-05-15T07:20:59Z</time>
      </trkpt>
      <trkpt lat="44.01273" lon="7.22711">
        <ele>1847.79126</ele>
        <time>2011-05-15T07:21:04Z</time>
      </trkpt>
      <trkpt lat="44.01268" lon="7.22693">
        <ele>1844.907227</ele>
        <time>2011-05-15T07:21:08Z</time>
      </trkpt>
      <trkpt lat="44.01254" lon="7.22686">
        <ele>1843.946045</ele>
        <time>2011-05-15T07:21:11Z</time>
      </trkpt>
      <trkpt lat="44.01241" lon="7.22677">
        <ele>1842.984619</ele>
        <time>2011-05-15T07:21:14Z</time>
      </trkpt>
      <trkpt lat="44.01223" lon="7.22666">
        <ele>1839.139404</ele>
        <time>2011-05-15T07:21:18Z</time>
      </trkpt>
      <trkpt lat="44.01218" lon="7.22645">
        <ele>1836.255615</ele>
        <time>2011-05-15T07:21:22Z</time>
      </trkpt>
      <trkpt lat="44.01218" lon="7.22638">
        <ele>1835.293945</ele>
        <time>2011-05-15T07:21:23Z</time>
      </trkpt>
      <trkpt lat="44.012" lon="7.22623">
        <ele>1831.929443</ele>
        <time>2011-05-15T07:21:28Z</time>
      </trkpt>
      <trkpt lat="44.01178" lon="7.22627">
        <ele>1826.642334</ele>
        <time>2011-05-15T07:21:32Z</time>
      </trkpt>
      <trkpt lat="44.01169" lon="7.22619">
        <ele>1823.277832</ele>
        <time>2011-05-15T07:21:36Z</time>
      </trkpt>
      <trkpt lat="44.01167" lon="7.22596">
        <ele>1821.35498</ele>
        <time>2011-05-15T07:21:40Z</time>
      </trkpt>
      <trkpt lat="44.01162" lon="7.2258">
        <ele>1819.432373</ele>
        <time>2011-05-15T07:21:43Z</time>
      </trkpt>
      <trkpt lat="44.01154" lon="7.22563">
        <ele>1819.912842</ele>
        <time>2011-05-15T07:21:46Z</time>
      </trkpt>
      <trkpt lat="44.01133" lon="7.22554">
        <ele>1817.509521</ele>
        <time>2011-05-15T07:21:51Z</time>
      </trkpt>
      <trkpt lat="44.01126" lon="7.22554">
        <ele>1817.029053</ele>
        <time>2011-05-15T07:21:52Z</time>
      </trkpt>
      <trkpt lat="44.0111" lon="7.22555">
        <ele>1814.14502</ele>
        <time>2011-05-15T07:21:55Z</time>
      </trkpt>
      <trkpt lat="44.01099" lon="7.22548">
        <ele>1813.183838</ele>
        <time>2011-05-15T07:21:59Z</time>
      </trkpt>
      <trkpt lat="44.01085" lon="7.22543">
        <ele>1806.935303</ele>
        <time>2011-05-15T07:22:04Z</time>
      </trkpt>
      <trkpt lat="44.01085" lon="7.22528">
        <ele>1802.609131</ele>
        <time>2011-05-15T07:22:07Z</time>
      </trkpt>
      <trkpt lat="44.01083" lon="7.22513">
        <ele>1803.089844</ele>
        <time>2011-05-15T07:22:09Z</time>
      </trkpt>
      <trkpt lat="44.01076" lon="7.22487">
        <ele>1802.128418</ele>
        <time>2011-05-15T07:22:13Z</time>
      </trkpt>
      <trkpt lat="44.01077" lon="7.22452">
        <ele>1797.322021</ele>
        <time>2011-05-15T07:22:18Z</time>
      </trkpt>
      <trkpt lat="44.01076" lon="7.2241">
        <ele>1794.437988</ele>
        <time>2011-05-15T07:22:23Z</time>
      </trkpt>
      <trkpt lat="44.01077" lon="7.22403">
        <ele>1792.996094</ele>
        <time>2011-05-15T07:22:24Z</time>
      </trkpt>
      <trkpt lat="44.0107" lon="7.22386">
        <ele>1791.073486</ele>
        <time>2011-05-15T07:22:28Z</time>
      </trkpt>
      <trkpt lat="44.01061" lon="7.22376">
        <ele>1789.150879</ele>
        <time>2011-05-15T07:22:30Z</time>
      </trkpt>
      <trkpt lat="44.01049" lon="7.22356">
        <ele>1787.228027</ele>
        <time>2011-05-15T07:22:33Z</time>
      </trkpt>
      <trkpt lat="44.01023" lon="7.22338">
        <ele>1783.382813</ele>
        <time>2011-05-15T07:22:38Z</time>
      </trkpt>
      <trkpt lat="44.01012" lon="7.22339">
        <ele>1780.018311</ele>
        <time>2011-05-15T07:22:40Z</time>
      </trkpt>
      <trkpt lat="44.01" lon="7.22341">
        <ele>1777.134521</ele>
        <time>2011-05-15T07:22:42Z</time>
      </trkpt>
      <trkpt lat="44.0099" lon="7.22344">
        <ele>1774.250488</ele>
        <time>2011-05-15T07:22:44Z</time>
      </trkpt>
      <trkpt lat="44.00962" lon="7.22343">
        <ele>1769.924316</ele>
        <time>2011-05-15T07:22:49Z</time>
      </trkpt>
      <trkpt lat="44.00957" lon="7.22342">
        <ele>1768.963135</ele>
        <time>2011-05-15T07:22:50Z</time>
      </trkpt>
      <trkpt lat="44.00925" lon="7.22335">
        <ele>1763.195313</ele>
        <time>2011-05-15T07:22:56Z</time>
      </trkpt>
      <trkpt lat="44.00911" lon="7.22339">
        <ele>1761.753418</ele>
        <time>2011-05-15T07:22:59Z</time>
      </trkpt>
      <trkpt lat="44.009" lon="7.22338">
        <ele>1760.311279</ele>
        <time>2011-05-15T07:23:02Z</time>
      </trkpt>
      <trkpt lat="44.00885" lon="7.22339">
        <ele>1756.946777</ele>
        <time>2011-05-15T07:23:06Z</time>
      </trkpt>
      <trkpt lat="44.00875" lon="7.22344">
        <ele>1755.985107</ele>
        <time>2011-05-15T07:23:08Z</time>
      </trkpt>
      <trkpt lat="44.00863" lon="7.22348">
        <ele>1754.543213</ele>
        <time>2011-05-15T07:23:11Z</time>
      </trkpt>
      <trkpt lat="44.00848" lon="7.22342">
        <ele>1752.139893</ele>
        <time>2011-05-15T07:23:15Z</time>
      </trkpt>
      <trkpt lat="44.00828" lon="7.22331">
        <ele>1749.736816</ele>
        <time>2011-05-15T07:23:20Z</time>
      </trkpt>
      <trkpt lat="44.00813" lon="7.2233">
        <ele>1747.333496</ele>
        <time>2011-05-15T07:23:24Z</time>
      </trkpt>
      <trkpt lat="44.00803" lon="7.22328">
        <ele>1747.333496</ele>
        <time>2011-05-15T07:23:26Z</time>
      </trkpt>
      <trkpt lat="44.00793" lon="7.22329">
        <ele>1747.814209</ele>
        <time>2011-05-15T07:23:28Z</time>
      </trkpt>
      <trkpt lat="44.00787" lon="7.2233">
        <ele>1750.217529</ele>
        <time>2011-05-15T07:23:33Z</time>
      </trkpt>
      <trkpt lat="44.00779" lon="7.22333">
        <ele>1748.775391</ele>
        <time>2011-05-15T07:23:39Z</time>
      </trkpt>
      <trkpt lat="44.00769" lon="7.22335">
        <ele>1747.814209</ele>
        <time>2011-05-15T07:23:42Z</time>
      </trkpt>
      <trkpt lat="44.00766" lon="7.22336">
        <ele>1746.372314</ele>
        <time>2011-05-15T07:23:45Z</time>
      </trkpt>
      <trkpt lat="44.00764" lon="7.22338">
        <ele>1744.449463</ele>
        <time>2011-05-15T07:23:49Z</time>
      </trkpt>
      <trkpt lat="44.00762" lon="7.22339">
        <ele>1743.007568</ele>
        <time>2011-05-15T07:23:51Z</time>
      </trkpt>
      <trkpt lat="44.00751" lon="7.22347">
        <ele>1740.604248</ele>
        <time>2011-05-15T07:23:56Z</time>
      </trkpt>
      <trkpt lat="44.00745" lon="7.22348">
        <ele>1738.200928</ele>
        <time>2011-05-15T07:24:00Z</time>
      </trkpt>
      <trkpt lat="44.00737" lon="7.22343">
        <ele>1736.758789</ele>
        <time>2011-05-15T07:24:04Z</time>
      </trkpt>
      <trkpt lat="44.00735" lon="7.22335">
        <ele>1736.758789</ele>
        <time>2011-05-15T07:24:06Z</time>
      </trkpt>
      <trkpt lat="44.00717" lon="7.22304">
        <ele>1733.875</ele>
        <time>2011-05-15T07:24:12Z</time>
      </trkpt>
      <trkpt lat="44.00711" lon="7.22298">
        <ele>1734.355713</ele>
        <time>2011-05-15T07:24:14Z</time>
      </trkpt>
      <trkpt lat="44.00699" lon="7.22287">
        <ele>1735.316895</ele>
        <time>2011-05-15T07:24:17Z</time>
      </trkpt>
      <trkpt lat="44.00679" lon="7.22282">
        <ele>1735.797607</ele>
        <time>2011-05-15T07:24:22Z</time>
      </trkpt>
      <trkpt lat="44.00659" lon="7.22287">
        <ele>1733.875</ele>
        <time>2011-05-15T07:24:28Z</time>
      </trkpt>
      <trkpt lat="44.00657" lon="7.22288">
        <ele>1732.913574</ele>
        <time>2011-05-15T07:24:30Z</time>
      </trkpt>
      <trkpt lat="44.00654" lon="7.2229">
        <ele>1732.433105</ele>
        <time>2011-05-15T07:24:34Z</time>
      </trkpt>
      <trkpt lat="44.00649" lon="7.22284">
        <ele>1731.952393</ele>
        <time>2011-05-15T07:24:39Z</time>
      </trkpt>
      <trkpt lat="44.00644" lon="7.22269">
        <ele>1729.549072</ele>
        <time>2011-05-15T07:24:44Z</time>
      </trkpt>
      <trkpt lat="44.00648" lon="7.22269">
        <ele>1728.107178</ele>
        <time>2011-05-15T07:24:50Z</time>
      </trkpt>
      <trkpt lat="44.00655" lon="7.22272">
        <ele>1725.703857</ele>
        <time>2011-05-15T07:24:56Z</time>
      </trkpt>
      <trkpt lat="44.00659" lon="7.22277">
        <ele>1718.974609</ele>
        <time>2011-05-15T07:25:01Z</time>
      </trkpt>
      <trkpt lat="44.00659" lon="7.22277">
        <ele>1715.610107</ele>
        <time>2011-05-15T07:25:06Z</time>
      </trkpt>
      <trkpt lat="44.0066" lon="7.22277">
        <ele>1715.129395</ele>
        <time>2011-05-15T07:25:08Z</time>
      </trkpt>
      <trkpt lat="44.00659" lon="7.22272">
        <ele>1714.167969</ele>
        <time>2011-05-15T07:25:12Z</time>
      </trkpt>
      <trkpt lat="44.00646" lon="7.22262">
        <ele>1717.052002</ele>
        <time>2011-05-15T07:25:18Z</time>
      </trkpt>
      <trkpt lat="44.0063" lon="7.22254">
        <ele>1717.532471</ele>
        <time>2011-05-15T07:25:23Z</time>
      </trkpt>
      <trkpt lat="44.00615" lon="7.2224">
        <ele>1720.416504</ele>
        <time>2011-05-15T07:25:28Z</time>
      </trkpt>
      <trkpt lat="44.00598" lon="7.22231">
        <ele>1721.858398</ele>
        <time>2011-05-15T07:25:33Z</time>
      </trkpt>
      <trkpt lat="44.00584" lon="7.22231">
        <ele>1724.742676</ele>
        <time>2011-05-15T07:25:37Z</time>
      </trkpt>
      <trkpt lat="44.00566" lon="7.22216">
        <ele>1724.742676</ele>
        <time>2011-05-15T07:25:43Z</time>
      </trkpt>
      <trkpt lat="44.00555" lon="7.22201">
        <ele>1722.819824</ele>
        <time>2011-05-15T07:25:47Z</time>
      </trkpt>
      <trkpt lat="44.00544" lon="7.2218">
        <ele>1722.819824</ele>
        <time>2011-05-15T07:25:53Z</time>
      </trkpt>
      <trkpt lat="44.0053" lon="7.22161">
        <ele>1724.742676</ele>
        <time>2011-05-15T07:25:59Z</time>
      </trkpt>
      <trkpt lat="44.00513" lon="7.22153">
        <ele>1725.223145</ele>
        <time>2011-05-15T07:26:04Z</time>
      </trkpt>
      <trkpt lat="44.00494" lon="7.22135">
        <ele>1725.703857</ele>
        <time>2011-05-15T07:26:10Z</time>
      </trkpt>
      <trkpt lat="44.00481" lon="7.22108">
        <ele>1725.223145</ele>
        <time>2011-05-15T07:26:16Z</time>
      </trkpt>
      <trkpt lat="44.00468" lon="7.22088">
        <ele>1726.18457</ele>
        <time>2011-05-15T07:26:21Z</time>
      </trkpt>
      <trkpt lat="44.00452" lon="7.22073">
        <ele>1729.068359</ele>
        <time>2011-05-15T07:26:27Z</time>
      </trkpt>
      <trkpt lat="44.00428" lon="7.22057">
        <ele>1731.47168</ele>
        <time>2011-05-15T07:26:34Z</time>
      </trkpt>
      <trkpt lat="44.00409" lon="7.22034">
        <ele>1731.47168</ele>
        <time>2011-05-15T07:26:40Z</time>
      </trkpt>
      <trkpt lat="44.004" lon="7.22013">
        <ele>1730.510498</ele>
        <time>2011-05-15T07:26:45Z</time>
      </trkpt>
      <trkpt lat="44.00389" lon="7.22">
        <ele>1731.952393</ele>
        <time>2011-05-15T07:26:49Z</time>
      </trkpt>
      <trkpt lat="44.0037" lon="7.21995">
        <ele>1735.316895</ele>
        <time>2011-05-15T07:26:55Z</time>
      </trkpt>
      <trkpt lat="44.00355" lon="7.21994">
        <ele>1737.720215</ele>
        <time>2011-05-15T07:27:00Z</time>
      </trkpt>
      <trkpt lat="44.00333" lon="7.22006">
        <ele>1734.355713</ele>
        <time>2011-05-15T07:27:07Z</time>
      </trkpt>
      <trkpt lat="44.00315" lon="7.2201">
        <ele>1732.433105</ele>
        <time>2011-05-15T07:27:12Z</time>
      </trkpt>
      <trkpt lat="44.00294" lon="7.2202">
        <ele>1731.47168</ele>
        <time>2011-05-15T07:27:16Z</time>
      </trkpt>
      <trkpt lat="44.00288" lon="7.22023">
        <ele>1730.510498</ele>
        <time>2011-05-15T07:27:17Z</time>
      </trkpt>
      <trkpt lat="44.00277" lon="7.2203">
        <ele>1727.626465</ele>
        <time>2011-05-15T07:27:19Z</time>
      </trkpt>
      <trkpt lat="44.00259" lon="7.22042">
        <ele>1722.819824</ele>
        <time>2011-05-15T07:27:22Z</time>
      </trkpt>
      <trkpt lat="44.00229" lon="7.22069">
        <ele>1721.858398</ele>
        <time>2011-05-15T07:27:27Z</time>
      </trkpt>
      <trkpt lat="44.00207" lon="7.22101">
        <ele>1721.377686</ele>
        <time>2011-05-15T07:27:32Z</time>
      </trkpt>
      <trkpt lat="44.00196" lon="7.22121">
        <ele>1721.858398</ele>
        <time>2011-05-15T07:27:35Z</time>
      </trkpt>
      <trkpt lat="44.00193" lon="7.22133">
        <ele>1719.935791</ele>
        <time>2011-05-15T07:27:38Z</time>
      </trkpt>
      <trkpt lat="44.0019" lon="7.22159">
        <ele>1718.974609</ele>
        <time>2011-05-15T07:27:43Z</time>
      </trkpt>
      <trkpt lat="44.00191" lon="7.22186">
        <ele>1716.090576</ele>
        <time>2011-05-15T07:27:48Z</time>
      </trkpt>
      <trkpt lat="44.00188" lon="7.22206">
        <ele>1715.129395</ele>
        <time>2011-05-15T07:27:51Z</time>
      </trkpt>
      <trkpt lat="44.00182" lon="7.22227">
        <ele>1716.571289</ele>
        <time>2011-05-15T07:27:55Z</time>
      </trkpt>
      <trkpt lat="44.00171" lon="7.22239">
        <ele>1716.090576</ele>
        <time>2011-05-15T07:28:00Z</time>
      </trkpt>
      <trkpt lat="44.00165" lon="7.22252">
        <ele>1715.129395</ele>
        <time>2011-05-15T07:28:04Z</time>
      </trkpt>
      <trkpt lat="44.00166" lon="7.22259">
        <ele>1713.206787</ele>
        <time>2011-05-15T07:28:06Z</time>
      </trkpt>
      <trkpt lat="44.00168" lon="7.2228">
        <ele>1711.28418</ele>
        <time>2011-05-15T07:28:12Z</time>
      </trkpt>
      <trkpt lat="44.00162" lon="7.22293">
        <ele>1714.167969</ele>
        <time>2011-05-15T07:28:16Z</time>
      </trkpt>
      <trkpt lat="44.00162" lon="7.22297">
        <ele>1714.167969</ele>
        <time>2011-05-15T07:28:17Z</time>
      </trkpt>
      <trkpt lat="44.00162" lon="7.22309">
        <ele>1714.167969</ele>
        <time>2011-05-15T07:28:20Z</time>
      </trkpt>
      <trkpt lat="44.00151" lon="7.22321">
        <ele>1716.571289</ele>
        <time>2011-05-15T07:28:25Z</time>
      </trkpt>
      <trkpt lat="44.0015" lon="7.2233">
        <ele>1718.013184</ele>
        <time>2011-05-15T07:28:29Z</time>
      </trkpt>
      <trkpt lat="44.00154" lon="7.22346">
        <ele>1718.013184</ele>
        <time>2011-05-15T07:28:35Z</time>
      </trkpt>
      <trkpt lat="44.00155" lon="7.22361">
        <ele>1717.532471</ele>
        <time>2011-05-15T07:28:40Z</time>
      </trkpt>
      <trkpt lat="44.00157" lon="7.22374">
        <ele>1717.532471</ele>
        <time>2011-05-15T07:28:45Z</time>
      </trkpt>
      <trkpt lat="44.00157" lon="7.22388">
        <ele>1717.532471</ele>
        <time>2011-05-15T07:28:50Z</time>
      </trkpt>
      <trkpt lat="44.0016" lon="7.22397">
        <ele>1717.532471</ele>
        <time>2011-05-15T07:28:54Z</time>
      </trkpt>
      <trkpt lat="44.00161" lon="7.22414">
        <ele>1718.974609</ele>
        <time>2011-05-15T07:29:02Z</time>
      </trkpt>
      <trkpt lat="44.00156" lon="7.22427">
        <ele>1724.742676</ele>
        <time>2011-05-15T07:29:08Z</time>
      </trkpt>
      <trkpt lat="44.00152" lon="7.22441">
        <ele>1723.781006</ele>
        <time>2011-05-15T07:29:15Z</time>
      </trkpt>
      <trkpt lat="44.00146" lon="7.22447">
        <ele>1728.107178</ele>
        <time>2011-05-15T07:29:19Z</time>
      </trkpt>
      <trkpt lat="44.00144" lon="7.22458">
        <ele>1730.510498</ele>
        <time>2011-05-15T07:29:25Z</time>
      </trkpt>
      <trkpt lat="44.00146" lon="7.22466">
        <ele>1730.510498</ele>
        <time>2011-05-15T07:29:30Z</time>
      </trkpt>
      <trkpt lat="44.00148" lon="7.22476">
        <ele>1731.47168</ele>
        <time>2011-05-15T07:29:35Z</time>
      </trkpt>
      <trkpt lat="44.00137" lon="7.22485">
        <ele>1735.316895</ele>
        <time>2011-05-15T07:29:43Z</time>
      </trkpt>
      <trkpt lat="44.0013" lon="7.22495">
        <ele>1737.239502</ele>
        <time>2011-05-15T07:29:49Z</time>
      </trkpt>
      <trkpt lat="44.0013" lon="7.22502">
        <ele>1737.720215</ele>
        <time>2011-05-15T07:29:54Z</time>
      </trkpt>
      <trkpt lat="44.00132" lon="7.22514">
        <ele>1736.27832</ele>
        <time>2011-05-15T07:30:01Z</time>
      </trkpt>
      <trkpt lat="44.00135" lon="7.22527">
        <ele>1733.394287</ele>
        <time>2011-05-15T07:30:07Z</time>
      </trkpt>
      <trkpt lat="44.00138" lon="7.22542">
        <ele>1731.952393</ele>
        <time>2011-05-15T07:30:13Z</time>
      </trkpt>
      <trkpt lat="44.0014" lon="7.22557">
        <ele>1731.952393</ele>
        <time>2011-05-15T07:30:19Z</time>
      </trkpt>
      <trkpt lat="44.00138" lon="7.22574">
        <ele>1731.952393</ele>
        <time>2011-05-15T07:30:24Z</time>
      </trkpt>
      <trkpt lat="44.00135" lon="7.22595">
        <ele>1731.952393</ele>
        <time>2011-05-15T07:30:28Z</time>
      </trkpt>
      <trkpt lat="44.00129" lon="7.22623">
        <ele>1731.952393</ele>
        <time>2011-05-15T07:30:32Z</time>
      </trkpt>
      <trkpt lat="44.00103" lon="7.22668">
        <ele>1735.316895</ele>
        <time>2011-05-15T07:30:39Z</time>
      </trkpt>
      <trkpt lat="44.00092" lon="7.22688">
        <ele>1735.797607</ele>
        <time>2011-05-15T07:30:42Z</time>
      </trkpt>
      <trkpt lat="44.00084" lon="7.22731">
        <ele>1734.836426</ele>
        <time>2011-05-15T07:30:48Z</time>
      </trkpt>
      <trkpt lat="44.00078" lon="7.2275">
        <ele>1732.433105</ele>
        <time>2011-05-15T07:30:51Z</time>
      </trkpt>
      <trkpt lat="44.00053" lon="7.22767">
        <ele>1732.433105</ele>
        <time>2011-05-15T07:30:57Z</time>
      </trkpt>
      <trkpt lat="44.00049" lon="7.22782">
        <ele>1731.952393</ele>
        <time>2011-05-15T07:31:00Z</time>
      </trkpt>
      <trkpt lat="44.00053" lon="7.22793">
        <ele>1730.029785</ele>
        <time>2011-05-15T07:31:02Z</time>
      </trkpt>
      <trkpt lat="44.00055" lon="7.22811">
        <ele>1730.029785</ele>
        <time>2011-05-15T07:31:05Z</time>
      </trkpt>
      <trkpt lat="44.00054" lon="7.22846">
        <ele>1730.510498</ele>
        <time>2011-05-15T07:31:11Z</time>
      </trkpt>
      <trkpt lat="44.00056" lon="7.22851">
        <ele>1730.510498</ele>
        <time>2011-05-15T07:31:12Z</time>
      </trkpt>
      <trkpt lat="44.00062" lon="7.22873">
        <ele>1730.991211</ele>
        <time>2011-05-15T07:31:16Z</time>
      </trkpt>
      <trkpt lat="44.00064" lon="7.22886">
        <ele>1732.433105</ele>
        <time>2011-05-15T07:31:18Z</time>
      </trkpt>
      <trkpt lat="44.00069" lon="7.22909">
        <ele>1733.394287</ele>
        <time>2011-05-15T07:31:22Z</time>
      </trkpt>
      <trkpt lat="44.00071" lon="7.22926">
        <ele>1733.394287</ele>
        <time>2011-05-15T07:31:25Z</time>
      </trkpt>
      <trkpt lat="44.00064" lon="7.22948">
        <ele>1729.068359</ele>
        <time>2011-05-15T07:31:30Z</time>
      </trkpt>
      <trkpt lat="44.0006" lon="7.22952">
        <ele>1728.587891</ele>
        <time>2011-05-15T07:31:31Z</time>
      </trkpt>
      <trkpt lat="44.00042" lon="7.22969">
        <ele>1728.107178</ele>
        <time>2011-05-15T07:31:36Z</time>
      </trkpt>
      <trkpt lat="44.00034" lon="7.22977">
        <ele>1728.107178</ele>
        <time>2011-05-15T07:31:38Z</time>
      </trkpt>
      <trkpt lat="44.0002" lon="7.22989">
        <ele>1731.47168</ele>
        <time>2011-05-15T07:31:41Z</time>
      </trkpt>
      <trkpt lat="44.00015" lon="7.22994">
        <ele>1732.192627</ele>
        <time>2011-05-15T07:31:42Z</time>
      </trkpt>
      <trkpt lat="43.99997" lon="7.23007">
        <ele>1732.068359</ele>
      </trkpt>
      <trkpt lat="43.99928" lon="7.23096">
        <ele>1738.068359</ele>
      </trkpt>
      <trkpt lat="43.99905" lon="7.23138">
        <ele>1729.068359</ele>
      </trkpt>
      <trkpt lat="43.99869" lon="7.23153">
        <ele>1724.068359</ele>
      </trkpt>
      <trkpt lat="43.99835" lon="7.23179">
        <ele>1722.068359</ele>
      </trkpt>
      <trkpt lat="43.99835" lon="7.23211">
        <ele>1721.068359</ele>
      </trkpt>
      <trkpt lat="43.99865" lon="7.23292">
        <ele>1716.068359</ele>
      </trkpt>
      <trkpt lat="43.99887" lon="7.23393">
        <ele>1706.068359</ele>
      </trkpt>
      <trkpt lat="43.99896" lon="7.23443">
        <ele>1701.068359</ele>
      </trkpt>
      <trkpt lat="43.99883" lon="7.23521">
        <ele>1696.068359</ele>
      </trkpt>
      <trkpt lat="43.99865" lon="7.23581">
        <ele>1692.068359</ele>
      </trkpt>
      <trkpt lat="43.99855" lon="7.23607">
        <ele>1682.925049</ele>
        <time>2009-05-31T06:42:30Z</time>
      </trkpt>
      <trkpt lat="43.99855" lon="7.23596">
        <ele>1678.599365</ele>
        <time>2009-05-31T06:42:33Z</time>
      </trkpt>
      <trkpt lat="43.99849" lon="7.2359">
        <ele>1676.676758</ele>
        <time>2009-05-31T06:42:36Z</time>
      </trkpt>
      <trkpt lat="43.99847" lon="7.23577">
        <ele>1675.715088</ele>
        <time>2009-05-31T06:42:40Z</time>
      </trkpt>
      <trkpt lat="43.99846" lon="7.23555">
        <ele>1676.676758</ele>
        <time>2009-05-31T06:42:44Z</time>
      </trkpt>
      <trkpt lat="43.99834" lon="7.23557">
        <ele>1673.312012</ele>
        <time>2009-05-31T06:42:49Z</time>
      </trkpt>
      <trkpt lat="43.99817" lon="7.23565">
        <ele>1671.38916</ele>
        <time>2009-05-31T06:42:54Z</time>
      </trkpt>
      <trkpt lat="43.9981" lon="7.23573">
        <ele>1669.466797</ele>
        <time>2009-05-31T06:42:57Z</time>
      </trkpt>
      <trkpt lat="43.99808" lon="7.23576">
        <ele>1668.986084</ele>
        <time>2009-05-31T06:42:58Z</time>
      </trkpt>
      <trkpt lat="43.99798" lon="7.23582">
        <ele>1664.660156</ele>
        <time>2009-05-31T06:43:02Z</time>
      </trkpt>
      <trkpt lat="43.99799" lon="7.23563">
        <ele>1659.853271</ele>
        <time>2009-05-31T06:43:07Z</time>
      </trkpt>
      <trkpt lat="43.99799" lon="7.23549">
        <ele>1657.450195</ele>
        <time>2009-05-31T06:43:11Z</time>
      </trkpt>
      <trkpt lat="43.9979" lon="7.23551">
        <ele>1654.566162</ele>
        <time>2009-05-31T06:43:15Z</time>
      </trkpt>
      <trkpt lat="43.99767" lon="7.23557">
        <ele>1650.720947</ele>
        <time>2009-05-31T06:43:19Z</time>
      </trkpt>
      <trkpt lat="43.99754" lon="7.23556">
        <ele>1650.720947</ele>
        <time>2009-05-31T06:43:22Z</time>
      </trkpt>
      <trkpt lat="43.99752" lon="7.23549">
        <ele>1649.759766</ele>
        <time>2009-05-31T06:43:24Z</time>
      </trkpt>
      <trkpt lat="43.99751" lon="7.23534">
        <ele>1645.433838</ele>
        <time>2009-05-31T06:43:31Z</time>
      </trkpt>
      <trkpt lat="43.99745" lon="7.23524">
        <ele>1641.588379</ele>
        <time>2009-05-31T06:43:36Z</time>
      </trkpt>
      <trkpt lat="43.99739" lon="7.23521">
        <ele>1638.223877</ele>
        <time>2009-05-31T06:43:40Z</time>
      </trkpt>
      <trkpt lat="43.99742" lon="7.2351">
        <ele>1635.339844</ele>
        <time>2009-05-31T06:43:42Z</time>
      </trkpt>
      <trkpt lat="43.99738" lon="7.235">
        <ele>1629.572021</ele>
        <time>2009-05-31T06:43:48Z</time>
      </trkpt>
      <trkpt lat="43.99728" lon="7.23506">
        <ele>1628.61084</ele>
        <time>2009-05-31T06:43:51Z</time>
      </trkpt>
      <trkpt lat="43.99722" lon="7.235">
        <ele>1625.726563</ele>
        <time>2009-05-31T06:43:54Z</time>
      </trkpt>
      <trkpt lat="43.99721" lon="7.23483">
        <ele>1622.842773</ele>
        <time>2009-05-31T06:43:58Z</time>
      </trkpt>
      <trkpt lat="43.99709" lon="7.23487">
        <ele>1621.400635</ele>
        <time>2009-05-31T06:44:01Z</time>
      </trkpt>
      <trkpt lat="43.99691" lon="7.23494">
        <ele>1620.439453</ele>
        <time>2009-05-31T06:44:05Z</time>
      </trkpt>
      <trkpt lat="43.99685" lon="7.2349">
        <ele>1618.516846</ele>
        <time>2009-05-31T06:44:09Z</time>
      </trkpt>
      <trkpt lat="43.9968" lon="7.23482">
        <ele>1616.113525</ele>
        <time>2009-05-31T06:44:14Z</time>
      </trkpt>
      <trkpt lat="43.99683" lon="7.2347">
        <ele>1613.229736</ele>
        <time>2009-05-31T06:44:17Z</time>
      </trkpt>
      <trkpt lat="43.99683" lon="7.23468">
        <ele>1613.229736</ele>
        <time>2009-05-31T06:44:18Z</time>
      </trkpt>
      <trkpt lat="43.99663" lon="7.23476">
        <ele>1611.306885</ele>
        <time>2009-05-31T06:44:24Z</time>
      </trkpt>
      <trkpt lat="43.99646" lon="7.23481">
        <ele>1608.903564</ele>
        <time>2009-05-31T06:44:28Z</time>
      </trkpt>
      <trkpt lat="43.99649" lon="7.23465">
        <ele>1608.903564</ele>
        <time>2009-05-31T06:44:31Z</time>
      </trkpt>
      <trkpt lat="43.99647" lon="7.23462">
        <ele>1601.693848</ele>
        <time>2009-05-31T06:44:35Z</time>
      </trkpt>
      <trkpt lat="43.99636" lon="7.23464">
        <ele>1602.174316</ele>
        <time>2009-05-31T06:44:39Z</time>
      </trkpt>
      <trkpt lat="43.99635" lon="7.23442">
        <ele>1601.213135</ele>
        <time>2009-05-31T06:44:44Z</time>
      </trkpt>
      <trkpt lat="43.9963" lon="7.2343">
        <ele>1598.329102</ele>
        <time>2009-05-31T06:44:47Z</time>
      </trkpt>
      <trkpt lat="43.99608" lon="7.23428">
        <ele>1596.406738</ele>
        <time>2009-05-31T06:44:51Z</time>
      </trkpt>
      <trkpt lat="43.99581" lon="7.23431">
        <ele>1588.235352</ele>
        <time>2009-05-31T06:44:55Z</time>
      </trkpt>
      <trkpt lat="43.99569" lon="7.23434">
        <ele>1582.947998</ele>
        <time>2009-05-31T06:44:57Z</time>
      </trkpt>
      <trkpt lat="43.99554" lon="7.23435">
        <ele>1579.102539</ele>
        <time>2009-05-31T06:45:00Z</time>
      </trkpt>
      <trkpt lat="43.99554" lon="7.23425">
        <ele>1574.776855</ele>
        <time>2009-05-31T06:45:03Z</time>
      </trkpt>
      <trkpt lat="43.99562" lon="7.23405">
        <ele>1572.373535</ele>
        <time>2009-05-31T06:45:06Z</time>
      </trkpt>
      <trkpt lat="43.99548" lon="7.23386">
        <ele>1571.892822</ele>
        <time>2009-05-31T06:45:09Z</time>
      </trkpt>
      <trkpt lat="43.99531" lon="7.23377">
        <ele>1571.412109</ele>
        <time>2009-05-31T06:45:11Z</time>
      </trkpt>
      <trkpt lat="43.99477" lon="7.23345">
        <ele>1568.047607</ele>
        <time>2009-05-31T06:45:17Z</time>
      </trkpt>
      <trkpt lat="43.99466" lon="7.23338">
        <ele>1564.683105</ele>
        <time>2009-05-31T06:45:19Z</time>
      </trkpt>
      <trkpt lat="43.99447" lon="7.23326">
        <ele>1557.473145</ele>
        <time>2009-05-31T06:45:23Z</time>
      </trkpt>
      <trkpt lat="43.99437" lon="7.23324">
        <ele>1555.069824</ele>
        <time>2009-05-31T06:45:25Z</time>
      </trkpt>
      <trkpt lat="43.99416" lon="7.23308">
        <ele>1550.743896</ele>
        <time>2009-05-31T06:45:30Z</time>
      </trkpt>
      <trkpt lat="43.99402" lon="7.23295">
        <ele>1546.417969</ele>
        <time>2009-05-31T06:45:34Z</time>
      </trkpt>
      <trkpt lat="43.99394" lon="7.23283">
        <ele>1538.727539</ele>
        <time>2009-05-31T06:45:38Z</time>
      </trkpt>
      <trkpt lat="43.99384" lon="7.23277">
        <ele>1533.920898</ele>
        <time>2009-05-31T06:45:42Z</time>
      </trkpt>
      <trkpt lat="43.99371" lon="7.23268">
        <ele>1530.075439</ele>
        <time>2009-05-31T06:45:46Z</time>
      </trkpt>
      <trkpt lat="43.99353" lon="7.23253">
        <ele>1524.78833</ele>
        <time>2009-05-31T06:45:50Z</time>
      </trkpt>
      <trkpt lat="43.99326" lon="7.23217">
        <ele>1518.059082</ele>
        <time>2009-05-31T06:45:55Z</time>
      </trkpt>
      <trkpt lat="43.99321" lon="7.23211">
        <ele>1516.617188</ele>
        <time>2009-05-31T06:45:56Z</time>
      </trkpt>
      <trkpt lat="43.99309" lon="7.232">
        <ele>1514.213623</ele>
        <time>2009-05-31T06:45:59Z</time>
      </trkpt>
      <trkpt lat="43.99298" lon="7.23197">
        <ele>1511.810547</ele>
        <time>2009-05-31T06:46:02Z</time>
      </trkpt>
      <trkpt lat="43.99288" lon="7.23193">
        <ele>1510.849121</ele>
        <time>2009-05-31T06:46:05Z</time>
      </trkpt>
      <trkpt lat="43.99273" lon="7.23186">
        <ele>1507.965332</ele>
        <time>2009-05-31T06:46:10Z</time>
      </trkpt>
      <trkpt lat="43.99257" lon="7.23193">
        <ele>1511.810547</ele>
        <time>2009-05-31T06:46:14Z</time>
      </trkpt>
      <trkpt lat="43.99244" lon="7.23191">
        <ele>1511.329834</ele>
        <time>2009-05-31T06:46:17Z</time>
      </trkpt>
      <trkpt lat="43.99224" lon="7.23184">
        <ele>1504.600586</ele>
        <time>2009-05-31T06:46:21Z</time>
      </trkpt>
      <trkpt lat="43.99199" lon="7.23163">
        <ele>1497.871338</ele>
        <time>2009-05-31T06:46:25Z</time>
      </trkpt>
      <trkpt lat="43.99186" lon="7.2316">
        <ele>1493.54541</ele>
        <time>2009-05-31T06:46:29Z</time>
      </trkpt>
      <trkpt lat="43.99183" lon="7.23163">
        <ele>1491.622803</ele>
        <time>2009-05-31T06:46:32Z</time>
      </trkpt>
      <trkpt lat="43.99166" lon="7.2317">
        <ele>1485.85498</ele>
        <time>2009-05-31T06:46:38Z</time>
      </trkpt>
      <trkpt lat="43.99155" lon="7.23171">
        <ele>1482.970703</ele>
        <time>2009-05-31T06:46:41Z</time>
      </trkpt>
      <trkpt lat="43.99126" lon="7.23173">
        <ele>1475.280273</ele>
        <time>2009-05-31T06:46:47Z</time>
      </trkpt>
      <trkpt lat="43.9911" lon="7.23176">
        <ele>1473.35791</ele>
        <time>2009-05-31T06:46:50Z</time>
      </trkpt>
      <trkpt lat="43.99096" lon="7.23183">
        <ele>1470.95459</ele>
        <time>2009-05-31T06:46:54Z</time>
      </trkpt>
      <trkpt lat="43.9908" lon="7.23186">
        <ele>1469.031982</ele>
        <time>2009-05-31T06:46:58Z</time>
      </trkpt>
      <trkpt lat="43.99054" lon="7.23191">
        <ele>1468.070557</ele>
        <time>2009-05-31T06:47:03Z</time>
      </trkpt>
      <trkpt lat="43.99041" lon="7.23183">
        <ele>1466.147705</ele>
        <time>2009-05-31T06:47:07Z</time>
      </trkpt>
      <trkpt lat="43.99032" lon="7.23178">
        <ele>1465.186523</ele>
        <time>2009-05-31T06:47:10Z</time>
      </trkpt>
      <trkpt lat="43.99034" lon="7.23167">
        <ele>1462.783203</ele>
        <time>2009-05-31T06:47:13Z</time>
      </trkpt>
      <trkpt lat="43.99039" lon="7.23152">
        <ele>1461.341309</ele>
        <time>2009-05-31T06:47:17Z</time>
      </trkpt>
      <trkpt lat="43.99033" lon="7.23157">
        <ele>1460.379883</ele>
        <time>2009-05-31T06:47:20Z</time>
      </trkpt>
      <trkpt lat="43.99022" lon="7.2316">
        <ele>1459.418701</ele>
        <time>2009-05-31T06:47:26Z</time>
      </trkpt>
      <trkpt lat="43.99015" lon="7.2316">
        <ele>1460.379883</ele>
        <time>2009-05-31T06:47:30Z</time>
      </trkpt>
      <trkpt lat="43.99012" lon="7.23161">
        <ele>1459.418701</ele>
        <time>2009-05-31T06:47:31Z</time>
      </trkpt>
      <trkpt lat="43.99007" lon="7.2316">
        <ele>1457.496094</ele>
        <time>2009-05-31T06:47:33Z</time>
      </trkpt>
      <trkpt lat="43.99013" lon="7.23145">
        <ele>1453.170166</ele>
        <time>2009-05-31T06:47:37Z</time>
      </trkpt>
      <trkpt lat="43.99012" lon="7.23144">
        <ele>1449.80542</ele>
        <time>2009-05-31T06:47:40Z</time>
      </trkpt>
      <trkpt lat="43.9901" lon="7.23143">
        <ele>1448.843994</ele>
        <time>2009-05-31T06:47:42Z</time>
      </trkpt>
      <trkpt lat="43.98999" lon="7.23143">
        <ele>1448.843994</ele>
        <time>2009-05-31T06:47:46Z</time>
      </trkpt>
      <trkpt lat="43.98977" lon="7.23133">
        <ele>1450.286133</ele>
        <time>2009-05-31T06:47:50Z</time>
      </trkpt>
      <trkpt lat="43.98966" lon="7.23132">
        <ele>1450.766602</ele>
        <time>2009-05-31T06:47:52Z</time>
      </trkpt>
      <trkpt lat="43.98959" lon="7.23133">
        <ele>1448.843994</ele>
        <time>2009-05-31T06:47:54Z</time>
      </trkpt>
      <trkpt lat="43.98957" lon="7.23142">
        <ele>1440.192383</ele>
        <time>2009-05-31T06:48:00Z</time>
      </trkpt>
      <trkpt lat="43.98956" lon="7.23142">
        <ele>1441.634277</ele>
        <time>2009-05-31T06:48:02Z</time>
      </trkpt>
      <trkpt lat="43.98953" lon="7.23142">
        <ele>1439.230957</ele>
        <time>2009-05-31T06:48:05Z</time>
      </trkpt>
      <trkpt lat="43.98943" lon="7.23151">
        <ele>1435.866211</ele>
        <time>2009-05-31T06:48:10Z</time>
      </trkpt>
      <trkpt lat="43.98933" lon="7.23159">
        <ele>1437.30835</ele>
        <time>2009-05-31T06:48:14Z</time>
      </trkpt>
      <trkpt lat="43.98918" lon="7.23165">
        <ele>1438.269775</ele>
        <time>2009-05-31T06:48:19Z</time>
      </trkpt>
      <trkpt lat="43.98914" lon="7.23166">
        <ele>1438.750488</ele>
        <time>2009-05-31T06:48:20Z</time>
      </trkpt>
      <trkpt lat="43.98892" lon="7.23163">
        <ele>1433.462891</ele>
        <time>2009-05-31T06:48:25Z</time>
      </trkpt>
      <trkpt lat="43.98883" lon="7.23156">
        <ele>1429.617676</ele>
        <time>2009-05-31T06:48:28Z</time>
      </trkpt>
      <trkpt lat="43.98866" lon="7.23159">
        <ele>1422.407959</ele>
        <time>2009-05-31T06:48:33Z</time>
      </trkpt>
      <trkpt lat="43.98854" lon="7.23162">
        <ele>1418.081787</ele>
        <time>2009-05-31T06:48:37Z</time>
      </trkpt>
      <trkpt lat="43.98845" lon="7.23163">
        <ele>1416.15918</ele>
        <time>2009-05-31T06:48:42Z</time>
      </trkpt>
      <trkpt lat="43.98849" lon="7.23157">
        <ele>1412.794678</ele>
        <time>2009-05-31T06:48:46Z</time>
      </trkpt>
      <trkpt lat="43.98843" lon="7.23153">
        <ele>1408.949463</ele>
        <time>2009-05-31T06:48:49Z</time>
      </trkpt>
      <trkpt lat="43.9883" lon="7.23159">
        <ele>1404.143066</ele>
        <time>2009-05-31T06:48:53Z</time>
      </trkpt>
      <trkpt lat="43.98813" lon="7.23174">
        <ele>1397.413574</ele>
        <time>2009-05-31T06:48:59Z</time>
      </trkpt>
      <trkpt lat="43.98807" lon="7.23174">
        <ele>1397.894287</ele>
        <time>2009-05-31T06:49:01Z</time>
      </trkpt>
      <trkpt lat="43.98805" lon="7.23164">
        <ele>1391.165039</ele>
        <time>2009-05-31T06:49:06Z</time>
      </trkpt>
      <trkpt lat="43.98801" lon="7.23161">
        <ele>1389.242432</ele>
        <time>2009-05-31T06:49:08Z</time>
      </trkpt>
      <trkpt lat="43.98794" lon="7.23161">
        <ele>1387.31958</ele>
        <time>2009-05-31T06:49:13Z</time>
      </trkpt>
      <trkpt lat="43.98794" lon="7.2316">
        <ele>1387.31958</ele>
        <time>2009-05-31T06:49:14Z</time>
      </trkpt>
      <trkpt lat="43.98796" lon="7.23148">
        <ele>1387.31958</ele>
        <time>2009-05-31T06:49:20Z</time>
      </trkpt>
      <trkpt lat="43.98795" lon="7.23147">
        <ele>1386.838867</ele>
        <time>2009-05-31T06:49:24Z</time>
      </trkpt>
      <trkpt lat="43.98792" lon="7.23149">
        <ele>1385.877686</ele>
        <time>2009-05-31T06:49:29Z</time>
      </trkpt>
      <trkpt lat="43.98791" lon="7.23144">
        <ele>1383.955078</ele>
        <time>2009-05-31T06:49:34Z</time>
      </trkpt>
      <trkpt lat="43.98785" lon="7.2314">
        <ele>1379.62915</ele>
        <time>2009-05-31T06:49:41Z</time>
      </trkpt>
      <trkpt lat="43.98784" lon="7.2314">
        <ele>1377.226074</ele>
        <time>2009-05-31T06:49:46Z</time>
      </trkpt>
      <trkpt lat="43.98783" lon="7.23141">
        <ele>1377.226074</ele>
        <time>2009-05-31T06:49:47Z</time>
      </trkpt>
      <trkpt lat="43.98775" lon="7.23145">
        <ele>1378.667969</ele>
        <time>2009-05-31T06:49:52Z</time>
      </trkpt>
      <trkpt lat="43.9877" lon="7.23146">
        <ele>1379.62915</ele>
        <time>2009-05-31T06:49:57Z</time>
      </trkpt>
      <trkpt lat="43.98769" lon="7.23147">
        <ele>1379.148438</ele>
        <time>2009-05-31T06:50:00Z</time>
      </trkpt>
      <trkpt lat="43.9876" lon="7.23153">
        <ele>1379.62915</ele>
        <time>2009-05-31T06:50:04Z</time>
      </trkpt>
      <trkpt lat="43.98742" lon="7.23165">
        <ele>1376.745361</ele>
        <time>2009-05-31T06:50:08Z</time>
      </trkpt>
      <trkpt lat="43.98726" lon="7.23176">
        <ele>1377.706543</ele>
        <time>2009-05-31T06:50:12Z</time>
      </trkpt>
      <trkpt lat="43.98709" lon="7.23187">
        <ele>1374.342041</ele>
        <time>2009-05-31T06:50:18Z</time>
      </trkpt>
      <trkpt lat="43.98701" lon="7.23199">
        <ele>1367.13208</ele>
        <time>2009-05-31T06:50:22Z</time>
      </trkpt>
      <trkpt lat="43.9869" lon="7.23204">
        <ele>1365.690186</ele>
        <time>2009-05-31T06:50:24Z</time>
      </trkpt>
      <trkpt lat="43.98665" lon="7.23213">
        <ele>1362.325439</ele>
        <time>2009-05-31T06:50:28Z</time>
      </trkpt>
      <trkpt lat="43.98643" lon="7.23223">
        <ele>1362.806152</ele>
        <time>2009-05-31T06:50:32Z</time>
      </trkpt>
      <trkpt lat="43.98621" lon="7.23234">
        <ele>1361.364258</ele>
        <time>2009-05-31T06:50:37Z</time>
      </trkpt>
      <trkpt lat="43.98608" lon="7.23237">
        <ele>1358.960938</ele>
        <time>2009-05-31T06:50:40Z</time>
      </trkpt>
      <trkpt lat="43.986" lon="7.23241">
        <ele>1358.480225</ele>
        <time>2009-05-31T06:50:42Z</time>
      </trkpt>
      <trkpt lat="43.98592" lon="7.23244">
        <ele>1357.03833</ele>
        <time>2009-05-31T06:50:44Z</time>
      </trkpt>
      <trkpt lat="43.98582" lon="7.23247">
        <ele>1355.115479</ele>
        <time>2009-05-31T06:50:49Z</time>
      </trkpt>
      <trkpt lat="43.98572" lon="7.23258">
        <ele>1353.673584</ele>
        <time>2009-05-31T06:50:52Z</time>
      </trkpt>
      <trkpt lat="43.98565" lon="7.2327">
        <ele>1352.712158</ele>
        <time>2009-05-31T06:50:55Z</time>
      </trkpt>
      <trkpt lat="43.98555" lon="7.2329">
        <ele>1351.270264</ele>
        <time>2009-05-31T06:51:00Z</time>
      </trkpt>
      <trkpt lat="43.98548" lon="7.233">
        <ele>1350.309082</ele>
        <time>2009-05-31T06:51:02Z</time>
      </trkpt>
      <trkpt lat="43.98531" lon="7.23329">
        <ele>1353.673584</ele>
        <time>2009-05-31T06:51:07Z</time>
      </trkpt>
      <trkpt lat="43.98508" lon="7.23353">
        <ele>1355.115479</ele>
        <time>2009-05-31T06:51:12Z</time>
      </trkpt>
      <trkpt lat="43.98487" lon="7.23369">
        <ele>1357.999756</ele>
        <time>2009-05-31T06:51:17Z</time>
      </trkpt>
      <trkpt lat="43.98481" lon="7.23378">
        <ele>1360.883545</ele>
        <time>2009-05-31T06:51:20Z</time>
      </trkpt>
      <trkpt lat="43.98476" lon="7.23385">
        <ele>1362.806152</ele>
        <time>2009-05-31T06:51:26Z</time>
      </trkpt>
      <trkpt lat="43.98471" lon="7.23396">
        <ele>1366.170654</ele>
        <time>2009-05-31T06:51:31Z</time>
      </trkpt>
      <trkpt lat="43.98465" lon="7.23401">
        <ele>1369.054688</ele>
        <time>2009-05-31T06:51:36Z</time>
      </trkpt>
      <trkpt lat="43.98461" lon="7.23406">
        <ele>1372.419434</ele>
        <time>2009-05-31T06:51:41Z</time>
      </trkpt>
      <trkpt lat="43.98459" lon="7.23408">
        <ele>1372.900146</ele>
        <time>2009-05-31T06:51:43Z</time>
      </trkpt>
      <trkpt lat="43.98452" lon="7.23415">
        <ele>1374.822754</ele>
        <time>2009-05-31T06:51:49Z</time>
      </trkpt>
      <trkpt lat="43.98448" lon="7.2342">
        <ele>1375.783936</ele>
        <time>2009-05-31T06:51:54Z</time>
      </trkpt>
      <trkpt lat="43.98445" lon="7.23429">
        <ele>1379.148438</ele>
        <time>2009-05-31T06:52:00Z</time>
      </trkpt>
      <trkpt lat="43.98442" lon="7.23436">
        <ele>1382.993652</ele>
        <time>2009-05-31T06:52:05Z</time>
      </trkpt>
      <trkpt lat="43.98441" lon="7.23443">
        <ele>1383.474365</ele>
        <time>2009-05-31T06:52:09Z</time>
      </trkpt>
      <trkpt lat="43.98437" lon="7.23452">
        <ele>1382.513184</ele>
        <time>2009-05-31T06:52:16Z</time>
      </trkpt>
      <trkpt lat="43.98429" lon="7.23465">
        <ele>1384.916504</ele>
        <time>2009-05-31T06:52:22Z</time>
      </trkpt>
      <trkpt lat="43.98419" lon="7.23476">
        <ele>1388.761963</ele>
        <time>2009-05-31T06:52:27Z</time>
      </trkpt>
      <trkpt lat="43.98406" lon="7.23483">
        <ele>1387.800293</ele>
        <time>2009-05-31T06:52:33Z</time>
      </trkpt>
      <trkpt lat="43.98391" lon="7.23491">
        <ele>1384.916504</ele>
        <time>2009-05-31T06:52:37Z</time>
      </trkpt>
      <trkpt lat="43.98367" lon="7.23507">
        <ele>1382.513184</ele>
        <time>2009-05-31T06:52:43Z</time>
      </trkpt>
      <trkpt lat="43.98347" lon="7.23523">
        <ele>1378.667969</ele>
        <time>2009-05-31T06:52:49Z</time>
      </trkpt>
      <trkpt lat="43.98324" lon="7.23541">
        <ele>1378.187256</ele>
        <time>2009-05-31T06:52:55Z</time>
      </trkpt>
      <trkpt lat="43.9832" lon="7.23544">
        <ele>1377.226074</ele>
        <time>2009-05-31T06:52:56Z</time>
      </trkpt>
      <trkpt lat="43.98302" lon="7.23553">
        <ele>1376.745361</ele>
        <time>2009-05-31T06:53:01Z</time>
      </trkpt>
      <trkpt lat="43.98284" lon="7.2356">
        <ele>1377.226074</ele>
        <time>2009-05-31T06:53:05Z</time>
      </trkpt>
      <trkpt lat="43.98266" lon="7.23572">
        <ele>1378.187256</ele>
        <time>2009-05-31T06:53:08Z</time>
      </trkpt>
      <trkpt lat="43.98233" lon="7.23595">
        <ele>1377.226074</ele>
        <time>2009-05-31T06:53:15Z</time>
      </trkpt>
      <trkpt lat="43.98229" lon="7.23598">
        <ele>1377.226074</ele>
        <time>2009-05-31T06:53:16Z</time>
      </trkpt>
      <trkpt lat="43.98221" lon="7.23601">
        <ele>1378.187256</ele>
        <time>2009-05-31T06:53:18Z</time>
      </trkpt>
      <trkpt lat="43.98207" lon="7.2361">
        <ele>1377.706543</ele>
        <time>2009-05-31T06:53:23Z</time>
      </trkpt>
      <trkpt lat="43.98199" lon="7.23613">
        <ele>1380.109863</ele>
        <time>2009-05-31T06:53:26Z</time>
      </trkpt>
      <trkpt lat="43.98183" lon="7.23611">
        <ele>1380.109863</ele>
        <time>2009-05-31T06:53:32Z</time>
      </trkpt>
      <trkpt lat="43.98174" lon="7.23606">
        <ele>1380.109863</ele>
        <time>2009-05-31T06:53:37Z</time>
      </trkpt>
      <trkpt lat="43.98164" lon="7.23595">
        <ele>1379.148438</ele>
        <time>2009-05-31T06:53:42Z</time>
      </trkpt>
      <trkpt lat="43.98155" lon="7.23581">
        <ele>1377.706543</ele>
        <time>2009-05-31T06:53:46Z</time>
      </trkpt>
      <trkpt lat="43.98142" lon="7.23575">
        <ele>1378.187256</ele>
        <time>2009-05-31T06:53:50Z</time>
      </trkpt>
      <trkpt lat="43.98118" lon="7.23566">
        <ele>1375.303223</ele>
        <time>2009-05-31T06:53:58Z</time>
      </trkpt>
      <trkpt lat="43.98104" lon="7.23556">
        <ele>1375.303223</ele>
        <time>2009-05-31T06:54:04Z</time>
      </trkpt>
      <trkpt lat="43.9809" lon="7.23549">
        <ele>1375.783936</ele>
        <time>2009-05-31T06:54:09Z</time>
      </trkpt>
      <trkpt lat="43.98076" lon="7.23539">
        <ele>1375.303223</ele>
        <time>2009-05-31T06:54:14Z</time>
      </trkpt>
      <trkpt lat="43.98063" lon="7.2352">
        <ele>1375.303223</ele>
        <time>2009-05-31T06:54:19Z</time>
      </trkpt>
      <trkpt lat="43.98049" lon="7.23499">
        <ele>1376.264648</ele>
        <time>2009-05-31T06:54:24Z</time>
      </trkpt>
      <trkpt lat="43.98033" lon="7.23486">
        <ele>1378.187256</ele>
        <time>2009-05-31T06:54:30Z</time>
      </trkpt>
      <trkpt lat="43.98018" lon="7.23479">
        <ele>1380.109863</ele>
        <time>2009-05-31T06:54:35Z</time>
      </trkpt>
      <trkpt lat="43.97998" lon="7.23464">
        <ele>1380.590576</ele>
        <time>2009-05-31T06:54:43Z</time>
      </trkpt>
      <trkpt lat="43.97985" lon="7.23456">
        <ele>1381.551758</ele>
        <time>2009-05-31T06:54:48Z</time>
      </trkpt>
      <trkpt lat="43.97973" lon="7.23446">
        <ele>1384.435791</ele>
        <time>2009-05-31T06:54:53Z</time>
      </trkpt>
      <trkpt lat="43.97957" lon="7.23433">
        <ele>1388.761963</ele>
        <time>2009-05-31T06:55:00Z</time>
      </trkpt>
      <trkpt lat="43.97941" lon="7.2343">
        <ele>1390.203857</ele>
        <time>2009-05-31T06:55:04Z</time>
      </trkpt>
      <trkpt lat="43.97926" lon="7.23424">
        <ele>1389.723145</ele>
        <time>2009-05-31T06:55:09Z</time>
      </trkpt>
      <trkpt lat="43.97911" lon="7.23423">
        <ele>1388.761963</ele>
        <time>2009-05-31T06:55:14Z</time>
      </trkpt>
      <trkpt lat="43.97896" lon="7.23426">
        <ele>1387.800293</ele>
        <time>2009-05-31T06:55:20Z</time>
      </trkpt>
      <trkpt lat="43.97882" lon="7.23434">
        <ele>1392.126465</ele>
        <time>2009-05-31T06:55:25Z</time>
      </trkpt>
      <trkpt lat="43.97869" lon="7.23446">
        <ele>1395.97168</ele>
        <time>2009-05-31T06:55:31Z</time>
      </trkpt>
      <trkpt lat="43.97854" lon="7.23458">
        <ele>1397.413574</ele>
        <time>2009-05-31T06:55:37Z</time>
      </trkpt>
      <trkpt lat="43.97836" lon="7.23468">
        <ele>1396.932861</ele>
        <time>2009-05-31T06:55:45Z</time>
      </trkpt>
      <trkpt lat="43.97819" lon="7.23482">
        <ele>1397.413574</ele>
        <time>2009-05-31T06:55:50Z</time>
      </trkpt>
      <trkpt lat="43.97801" lon="7.23494">
        <ele>1395.97168</ele>
        <time>2009-05-31T06:55:55Z</time>
      </trkpt>
      <trkpt lat="43.97793" lon="7.23496">
        <ele>1395.010254</ele>
        <time>2009-05-31T06:55:57Z</time>
      </trkpt>
      <trkpt lat="43.97781" lon="7.23503">
        <ele>1395.010254</ele>
        <time>2009-05-31T06:56:00Z</time>
      </trkpt>
      <trkpt lat="43.97755" lon="7.23519">
        <ele>1395.97168</ele>
        <time>2009-05-31T06:56:06Z</time>
      </trkpt>
      <trkpt lat="43.97738" lon="7.23537">
        <ele>1398.855469</ele>
        <time>2009-05-31T06:56:11Z</time>
      </trkpt>
      <trkpt lat="43.97734" lon="7.23549">
        <ele>1398.374756</ele>
        <time>2009-05-31T06:56:16Z</time>
      </trkpt>
      <trkpt lat="43.97732" lon="7.23558">
        <ele>1398.374756</ele>
        <time>2009-05-31T06:56:21Z</time>
      </trkpt>
      <trkpt lat="43.97729" lon="7.23569">
        <ele>1399.336182</ele>
        <time>2009-05-31T06:56:26Z</time>
      </trkpt>
      <trkpt lat="43.97724" lon="7.23581">
        <ele>1402.700684</ele>
        <time>2009-05-31T06:56:32Z</time>
      </trkpt>
      <trkpt lat="43.97718" lon="7.23585">
        <ele>1398.855469</ele>
        <time>2009-05-31T06:56:48Z</time>
      </trkpt>
      <trkpt lat="43.97718" lon="7.23591">
        <ele>1401.258789</ele>
        <time>2009-05-31T06:56:53Z</time>
      </trkpt>
      <trkpt lat="43.97715" lon="7.23598">
        <ele>1402.219971</ele>
        <time>2009-05-31T06:57:00Z</time>
      </trkpt>
      <trkpt lat="43.97714" lon="7.23605">
        <ele>1403.181396</ele>
        <time>2009-05-31T06:57:05Z</time>
      </trkpt>
      <trkpt lat="43.97712" lon="7.23611">
        <ele>1404.623535</ele>
        <time>2009-05-31T06:57:09Z</time>
      </trkpt>
      <trkpt lat="43.97705" lon="7.23619">
        <ele>1405.104248</ele>
        <time>2009-05-31T06:57:15Z</time>
      </trkpt>
      <trkpt lat="43.97702" lon="7.23626">
        <ele>1406.06543</ele>
        <time>2009-05-31T06:57:19Z</time>
      </trkpt>
      <trkpt lat="43.977" lon="7.23633">
        <ele>1407.026855</ele>
        <time>2009-05-31T06:57:25Z</time>
      </trkpt>
      <trkpt lat="43.97699" lon="7.23634">
        <ele>1406.06543</ele>
        <time>2009-05-31T06:57:26Z</time>
      </trkpt>
      <trkpt lat="43.97696" lon="7.23639">
        <ele>1407.026855</ele>
        <time>2009-05-31T06:57:30Z</time>
      </trkpt>
      <trkpt lat="43.97691" lon="7.23649">
        <ele>1405.104248</ele>
        <time>2009-05-31T06:57:38Z</time>
      </trkpt>
      <trkpt lat="43.97689" lon="7.23652">
        <ele>1406.546143</ele>
        <time>2009-05-31T06:57:40Z</time>
      </trkpt>
      <trkpt lat="43.97676" lon="7.23664">
        <ele>1405.584961</ele>
        <time>2009-05-31T06:57:47Z</time>
      </trkpt>
      <trkpt lat="43.97669" lon="7.23671">
        <ele>1405.584961</ele>
        <time>2009-05-31T06:57:53Z</time>
      </trkpt>
      <trkpt lat="43.97662" lon="7.23678">
        <ele>1407.507568</ele>
        <time>2009-05-31T06:57:59Z</time>
      </trkpt>
      <trkpt lat="43.97652" lon="7.23683">
        <ele>1410.391357</ele>
        <time>2009-05-31T06:58:06Z</time>
      </trkpt>
      <trkpt lat="43.97645" lon="7.23684">
        <ele>1409.910645</ele>
        <time>2009-05-31T06:58:13Z</time>
      </trkpt>
      <trkpt lat="43.9764" lon="7.23682">
        <ele>1411.352783</ele>
        <time>2009-05-31T06:58:19Z</time>
      </trkpt>
      <trkpt lat="43.97635" lon="7.2368">
        <ele>1412.794678</ele>
        <time>2009-05-31T06:58:23Z</time>
      </trkpt>
      <trkpt lat="43.97622" lon="7.23672">
        <ele>1412.794678</ele>
        <time>2009-05-31T06:58:28Z</time>
      </trkpt>
      <trkpt lat="43.97608" lon="7.23663">
        <ele>1413.755859</ele>
        <time>2009-05-31T06:58:33Z</time>
      </trkpt>
      <trkpt lat="43.97598" lon="7.23664">
        <ele>1414.717285</ele>
        <time>2009-05-31T06:58:36Z</time>
      </trkpt>
      <trkpt lat="43.97583" lon="7.23661">
        <ele>1417.601074</ele>
        <time>2009-05-31T06:58:40Z</time>
      </trkpt>
      <trkpt lat="43.97577" lon="7.23665">
        <ele>1416.15918</ele>
        <time>2009-05-31T06:58:42Z</time>
      </trkpt>
      <trkpt lat="43.97559" lon="7.23678">
        <ele>1415.678711</ele>
        <time>2009-05-31T06:58:47Z</time>
      </trkpt>
      <trkpt lat="43.97552" lon="7.23677">
        <ele>1416.15918</ele>
        <time>2009-05-31T06:58:49Z</time>
      </trkpt>
      <trkpt lat="43.97535" lon="7.23678">
        <ele>1415.678711</ele>
        <time>2009-05-31T06:58:54Z</time>
      </trkpt>
      <trkpt lat="43.97519" lon="7.23684">
        <ele>1418.081787</ele>
        <time>2009-05-31T06:58:58Z</time>
      </trkpt>
      <trkpt lat="43.97504" lon="7.23689">
        <ele>1417.601074</ele>
        <time>2009-05-31T06:59:01Z</time>
      </trkpt>
      <trkpt lat="43.97489" lon="7.23693">
        <ele>1414.236572</ele>
        <time>2009-05-31T06:59:05Z</time>
      </trkpt>
      <trkpt lat="43.97474" lon="7.23697">
        <ele>1412.313965</ele>
        <time>2009-05-31T06:59:09Z</time>
      </trkpt>
      <trkpt lat="43.97457" lon="7.23701">
        <ele>1410.391357</ele>
        <time>2009-05-31T06:59:13Z</time>
      </trkpt>
      <trkpt lat="43.9744" lon="7.23704">
        <ele>1408.949463</ele>
        <time>2009-05-31T06:59:17Z</time>
      </trkpt>
      <trkpt lat="43.97425" lon="7.23711">
        <ele>1407.507568</ele>
        <time>2009-05-31T06:59:21Z</time>
      </trkpt>
      <trkpt lat="43.9741" lon="7.23721">
        <ele>1407.988281</ele>
        <time>2009-05-31T06:59:24Z</time>
      </trkpt>
      <trkpt lat="43.97389" lon="7.23724">
        <ele>1406.06543</ele>
        <time>2009-05-31T06:59:29Z</time>
      </trkpt>
      <trkpt lat="43.97367" lon="7.23729">
        <ele>1407.988281</ele>
        <time>2009-05-31T06:59:34Z</time>
      </trkpt>
      <trkpt lat="43.97353" lon="7.23729">
        <ele>1410.391357</ele>
        <time>2009-05-31T06:59:39Z</time>
      </trkpt>
      <trkpt lat="43.97348" lon="7.23734">
        <ele>1412.313965</ele>
        <time>2009-05-31T06:59:44Z</time>
      </trkpt>
      <trkpt lat="43.97339" lon="7.23741">
        <ele>1412.313965</ele>
        <time>2009-05-31T06:59:51Z</time>
      </trkpt>
      <trkpt lat="43.97331" lon="7.23746">
        <ele>1412.313965</ele>
        <time>2009-05-31T06:59:56Z</time>
      </trkpt>
      <trkpt lat="43.97321" lon="7.23749">
        <ele>1414.236572</ele>
        <time>2009-05-31T07:00:02Z</time>
      </trkpt>
      <trkpt lat="43.97313" lon="7.23754">
        <ele>1413.275391</ele>
        <time>2009-05-31T07:00:07Z</time>
      </trkpt>
      <trkpt lat="43.97304" lon="7.23758">
        <ele>1413.275391</ele>
        <time>2009-05-31T07:00:13Z</time>
      </trkpt>
      <trkpt lat="43.97301" lon="7.23763">
        <ele>1412.794678</ele>
        <time>2009-05-31T07:00:16Z</time>
      </trkpt>
      <trkpt lat="43.97299" lon="7.23782">
        <ele>1410.87207</ele>
        <time>2009-05-31T07:00:21Z</time>
      </trkpt>
      <trkpt lat="43.97292" lon="7.23814">
        <ele>1407.507568</ele>
        <time>2009-05-31T07:00:25Z</time>
      </trkpt>
      <trkpt lat="43.97281" lon="7.23841">
        <ele>1406.06543</ele>
        <time>2009-05-31T07:00:28Z</time>
      </trkpt>
      <trkpt lat="43.9727" lon="7.23856">
        <ele>1404.143066</ele>
        <time>2009-05-31T07:00:30Z</time>
      </trkpt>
      <trkpt lat="43.97239" lon="7.23881">
        <ele>1404.623535</ele>
        <time>2009-05-31T07:00:35Z</time>
      </trkpt>
      <trkpt lat="43.97219" lon="7.23898">
        <ele>1406.06543</ele>
        <time>2009-05-31T07:00:39Z</time>
      </trkpt>
      <trkpt lat="43.97194" lon="7.2392">
        <ele>1406.06543</ele>
        <time>2009-05-31T07:00:45Z</time>
      </trkpt>
      <trkpt lat="43.97185" lon="7.23927">
        <ele>1404.143066</ele>
        <time>2009-05-31T07:00:47Z</time>
      </trkpt>
      <trkpt lat="43.9717" lon="7.23935">
        <ele>1404.623535</ele>
        <time>2009-05-31T07:00:50Z</time>
      </trkpt>
      <trkpt lat="43.97144" lon="7.23941">
        <ele>1403.662109</ele>
        <time>2009-05-31T07:00:56Z</time>
      </trkpt>
      <trkpt lat="43.97139" lon="7.23941">
        <ele>1402.700684</ele>
        <time>2009-05-31T07:00:58Z</time>
      </trkpt>
      <trkpt lat="43.97126" lon="7.23943">
        <ele>1403.181396</ele>
        <time>2009-05-31T07:01:03Z</time>
      </trkpt>
      <trkpt lat="43.97116" lon="7.23943">
        <ele>1402.700684</ele>
        <time>2009-05-31T07:01:09Z</time>
      </trkpt>
      <trkpt lat="43.97111" lon="7.23941">
        <ele>1403.181396</ele>
        <time>2009-05-31T07:01:14Z</time>
      </trkpt>
      <trkpt lat="43.97105" lon="7.23938">
        <ele>1402.219971</ele>
        <time>2009-05-31T07:01:18Z</time>
      </trkpt>
      <trkpt lat="43.97097" lon="7.23931">
        <ele>1400.778076</ele>
        <time>2009-05-31T07:01:22Z</time>
      </trkpt>
      <trkpt lat="43.97097" lon="7.23925">
        <ele>1398.855469</ele>
        <time>2009-05-31T07:01:29Z</time>
      </trkpt>
      <trkpt lat="43.97094" lon="7.23917">
        <ele>1398.855469</ele>
        <time>2009-05-31T07:01:33Z</time>
      </trkpt>
      <trkpt lat="43.97092" lon="7.2391">
        <ele>1398.374756</ele>
        <time>2009-05-31T07:01:39Z</time>
      </trkpt>
      <trkpt lat="43.97089" lon="7.23907">
        <ele>1398.855469</ele>
        <time>2009-05-31T07:01:43Z</time>
      </trkpt>
      <trkpt lat="43.97086" lon="7.23895">
        <ele>1398.374756</ele>
        <time>2009-05-31T07:01:48Z</time>
      </trkpt>
      <trkpt lat="43.97077" lon="7.23887">
        <ele>1397.413574</ele>
        <time>2009-05-31T07:01:52Z</time>
      </trkpt>
      <trkpt lat="43.97073" lon="7.23882">
        <ele>1396.932861</ele>
        <time>2009-05-31T07:01:57Z</time>
      </trkpt>
      <trkpt lat="43.97071" lon="7.23876">
        <ele>1396.452393</ele>
        <time>2009-05-31T07:02:06Z</time>
      </trkpt>
      <trkpt lat="43.97067" lon="7.23869">
        <ele>1395.490967</ele>
        <time>2009-05-31T07:02:11Z</time>
      </trkpt>
      <trkpt lat="43.9706" lon="7.23852">
        <ele>1395.490967</ele>
        <time>2009-05-31T07:02:17Z</time>
      </trkpt>
      <trkpt lat="43.97055" lon="7.23838">
        <ele>1395.490967</ele>
        <time>2009-05-31T07:02:22Z</time>
      </trkpt>
      <trkpt lat="43.97045" lon="7.23838">
        <ele>1394.049072</ele>
        <time>2009-05-31T07:02:27Z</time>
      </trkpt>
      <trkpt lat="43.97028" lon="7.23835">
        <ele>1393.087646</ele>
        <time>2009-05-31T07:02:32Z</time>
      </trkpt>
      <trkpt lat="43.97005" lon="7.23821">
        <ele>1392.607178</ele>
        <time>2009-05-31T07:02:39Z</time>
      </trkpt>
      <trkpt lat="43.96996" lon="7.23811">
        <ele>1393.087646</ele>
        <time>2009-05-31T07:02:43Z</time>
      </trkpt>
      <trkpt lat="43.96986" lon="7.23795">
        <ele>1395.010254</ele>
        <time>2009-05-31T07:02:49Z</time>
      </trkpt>
      <trkpt lat="43.96983" lon="7.23792">
        <ele>1395.97168</ele>
        <time>2009-05-31T07:02:51Z</time>
      </trkpt>
      <trkpt lat="43.96976" lon="7.23784">
        <ele>1396.452393</ele>
        <time>2009-05-31T07:02:55Z</time>
      </trkpt>
      <trkpt lat="43.96961" lon="7.23777">
        <ele>1396.452393</ele>
        <time>2009-05-31T07:03:01Z</time>
      </trkpt>
      <trkpt lat="43.96947" lon="7.23767">
        <ele>1396.932861</ele>
        <time>2009-05-31T07:03:07Z</time>
      </trkpt>
      <trkpt lat="43.96936" lon="7.23758">
        <ele>1397.413574</ele>
        <time>2009-05-31T07:03:12Z</time>
      </trkpt>
      <trkpt lat="43.96933" lon="7.23756">
        <ele>1397.413574</ele>
        <time>2009-05-31T07:03:13Z</time>
      </trkpt>
      <trkpt lat="43.96913" lon="7.23755">
        <ele>1396.932861</ele>
        <time>2009-05-31T07:03:18Z</time>
      </trkpt>
      <trkpt lat="43.96889" lon="7.23752">
        <ele>1395.97168</ele>
        <time>2009-05-31T07:03:25Z</time>
      </trkpt>
      <trkpt lat="43.96875" lon="7.23754">
        <ele>1399.336182</ele>
        <time>2009-05-31T07:03:30Z</time>
      </trkpt>
      <trkpt lat="43.96861" lon="7.23756">
        <ele>1404.623535</ele>
        <time>2009-05-31T07:03:37Z</time>
      </trkpt>
      <trkpt lat="43.96846" lon="7.23757">
        <ele>1407.026855</ele>
        <time>2009-05-31T07:03:45Z</time>
      </trkpt>
      <trkpt lat="43.96831" lon="7.23761">
        <ele>1411.352783</ele>
        <time>2009-05-31T07:03:52Z</time>
      </trkpt>
      <trkpt lat="43.96815" lon="7.23761">
        <ele>1411.352783</ele>
        <time>2009-05-31T07:04:00Z</time>
      </trkpt>
      <trkpt lat="43.96799" lon="7.2376">
        <ele>1411.833496</ele>
        <time>2009-05-31T07:04:08Z</time>
      </trkpt>
      <trkpt lat="43.96788" lon="7.23758">
        <ele>1409.430176</ele>
        <time>2009-05-31T07:04:13Z</time>
      </trkpt>
      <trkpt lat="43.96774" lon="7.23759">
        <ele>1408.949463</ele>
        <time>2009-05-31T07:04:18Z</time>
      </trkpt>
      <trkpt lat="43.96759" lon="7.23764">
        <ele>1410.391357</ele>
        <time>2009-05-31T07:04:23Z</time>
      </trkpt>
      <trkpt lat="43.9674" lon="7.23768">
        <ele>1409.910645</ele>
        <time>2009-05-31T07:04:28Z</time>
      </trkpt>
      <trkpt lat="43.96722" lon="7.23772">
        <ele>1410.87207</ele>
        <time>2009-05-31T07:04:33Z</time>
      </trkpt>
      <trkpt lat="43.96712" lon="7.23776">
        <ele>1411.352783</ele>
        <time>2009-05-31T07:04:35Z</time>
      </trkpt>
      <trkpt lat="43.96694" lon="7.23774">
        <ele>1410.391357</ele>
        <time>2009-05-31T07:04:39Z</time>
      </trkpt>
      <trkpt lat="43.96672" lon="7.23774">
        <ele>1408.949463</ele>
        <time>2009-05-31T07:04:43Z</time>
      </trkpt>
      <trkpt lat="43.96654" lon="7.23781">
        <ele>1407.507568</ele>
        <time>2009-05-31T07:04:47Z</time>
      </trkpt>
      <trkpt lat="43.96635" lon="7.23785">
        <ele>1407.507568</ele>
        <time>2009-05-31T07:04:52Z</time>
      </trkpt>
      <trkpt lat="43.96613" lon="7.23783">
        <ele>1408.949463</ele>
        <time>2009-05-31T07:05:00Z</time>
      </trkpt>
      <trkpt lat="43.96602" lon="7.23783">
        <ele>1410.87207</ele>
        <time>2009-05-31T07:05:06Z</time>
      </trkpt>
      <trkpt lat="43.96589" lon="7.23787">
        <ele>1414.236572</ele>
        <time>2009-05-31T07:05:12Z</time>
      </trkpt>
      <trkpt lat="43.96573" lon="7.23788">
        <ele>1413.755859</ele>
        <time>2009-05-31T07:05:19Z</time>
      </trkpt>
      <trkpt lat="43.96564" lon="7.23789">
        <ele>1415.678711</ele>
        <time>2009-05-31T07:05:24Z</time>
      </trkpt>
      <trkpt lat="43.96554" lon="7.23792">
        <ele>1415.678711</ele>
        <time>2009-05-31T07:05:30Z</time>
      </trkpt>
      <trkpt lat="43.96539" lon="7.23799">
        <ele>1417.601074</ele>
        <time>2009-05-31T07:05:37Z</time>
      </trkpt>
      <trkpt lat="43.96519" lon="7.23809">
        <ele>1417.601074</ele>
        <time>2009-05-31T07:05:43Z</time>
      </trkpt>
      <trkpt lat="43.96504" lon="7.2382">
        <ele>1418.5625</ele>
        <time>2009-05-31T07:05:49Z</time>
      </trkpt>
      <trkpt lat="43.96492" lon="7.23829">
        <ele>1420.004639</ele>
        <time>2009-05-31T07:05:55Z</time>
      </trkpt>
      <trkpt lat="43.96482" lon="7.23836">
        <ele>1420.004639</ele>
        <time>2009-05-31T07:05:59Z</time>
      </trkpt>
      <trkpt lat="43.96466" lon="7.23851">
        <ele>1419.043213</ele>
        <time>2009-05-31T07:06:04Z</time>
      </trkpt>
      <trkpt lat="43.96447" lon="7.23865">
        <ele>1417.601074</ele>
        <time>2009-05-31T07:06:08Z</time>
      </trkpt>
      <trkpt lat="43.96443" lon="7.23868">
        <ele>1416.639893</ele>
        <time>2009-05-31T07:06:09Z</time>
      </trkpt>
      <trkpt lat="43.96427" lon="7.2388">
        <ele>1412.794678</ele>
        <time>2009-05-31T07:06:13Z</time>
      </trkpt>
      <trkpt lat="43.96421" lon="7.23883">
        <ele>1412.313965</ele>
        <time>2009-05-31T07:06:14Z</time>
      </trkpt>
      <trkpt lat="43.96406" lon="7.2389">
        <ele>1410.87207</ele>
        <time>2009-05-31T07:06:17Z</time>
      </trkpt>
      <trkpt lat="43.9639" lon="7.23902">
        <ele>1410.391357</ele>
        <time>2009-05-31T07:06:20Z</time>
      </trkpt>
      <trkpt lat="43.96347" lon="7.23922">
        <ele>1404.143066</ele>
        <time>2009-05-31T07:06:26Z</time>
      </trkpt>
      <trkpt lat="43.9632" lon="7.23935">
        <ele>1402.700684</ele>
        <time>2009-05-31T07:06:30Z</time>
      </trkpt>
      <trkpt lat="43.96301" lon="7.23945">
        <ele>1402.219971</ele>
        <time>2009-05-31T07:06:33Z</time>
      </trkpt>
      <trkpt lat="43.96268" lon="7.23971">
        <ele>1396.932861</ele>
        <time>2009-05-31T07:06:39Z</time>
      </trkpt>
      <trkpt lat="43.96233" lon="7.24003">
        <ele>1395.97168</ele>
        <time>2009-05-31T07:06:45Z</time>
      </trkpt>
      <trkpt lat="43.96209" lon="7.2402">
        <ele>1395.490967</ele>
        <time>2009-05-31T07:06:49Z</time>
      </trkpt>
      <trkpt lat="43.96198" lon="7.24041">
        <ele>1393.087646</ele>
        <time>2009-05-31T07:06:53Z</time>
      </trkpt>
      <trkpt lat="43.96183" lon="7.2406">
        <ele>1391.645752</ele>
        <time>2009-05-31T07:06:56Z</time>
      </trkpt>
      <trkpt lat="43.96156" lon="7.24073">
        <ele>1392.607178</ele>
        <time>2009-05-31T07:07:01Z</time>
      </trkpt>
      <trkpt lat="43.96145" lon="7.2408">
        <ele>1392.607178</ele>
        <time>2009-05-31T07:07:04Z</time>
      </trkpt>
      <trkpt lat="43.96125" lon="7.2409">
        <ele>1393.568359</ele>
        <time>2009-05-31T07:07:09Z</time>
      </trkpt>
      <trkpt lat="43.96111" lon="7.241">
        <ele>1394.049072</ele>
        <time>2009-05-31T07:07:12Z</time>
      </trkpt>
      <trkpt lat="43.96095" lon="7.24113">
        <ele>1394.529541</ele>
        <time>2009-05-31T07:07:16Z</time>
      </trkpt>
      <trkpt lat="43.96093" lon="7.24116">
        <ele>1394.529541</ele>
        <time>2009-05-31T07:07:17Z</time>
      </trkpt>
      <trkpt lat="43.96082" lon="7.24133">
        <ele>1394.529541</ele>
        <time>2009-05-31T07:07:21Z</time>
      </trkpt>
      <trkpt lat="43.9607" lon="7.24148">
        <ele>1395.490967</ele>
        <time>2009-05-31T07:07:24Z</time>
      </trkpt>
      <trkpt lat="43.96049" lon="7.24188">
        <ele>1395.97168</ele>
        <time>2009-05-31T07:07:31Z</time>
      </trkpt>
      <trkpt lat="43.96035" lon="7.24216">
        <ele>1396.452393</ele>
        <time>2009-05-31T07:07:36Z</time>
      </trkpt>
      <trkpt lat="43.96009" lon="7.2424">
        <ele>1397.413574</ele>
        <time>2009-05-31T07:07:41Z</time>
      </trkpt>
      <trkpt lat="43.96006" lon="7.24243">
        <ele>1396.452393</ele>
        <time>2009-05-31T07:07:42Z</time>
      </trkpt>
      <trkpt lat="43.95992" lon="7.24257">
        <ele>1396.932861</ele>
        <time>2009-05-31T07:07:46Z</time>
      </trkpt>
      <trkpt lat="43.95982" lon="7.24269">
        <ele>1395.97168</ele>
        <time>2009-05-31T07:07:49Z</time>
      </trkpt>
      <trkpt lat="43.95959" lon="7.2429">
        <ele>1397.413574</ele>
        <time>2009-05-31T07:07:54Z</time>
      </trkpt>
      <trkpt lat="43.95954" lon="7.24291">
        <ele>1396.932861</ele>
        <time>2009-05-31T07:07:55Z</time>
      </trkpt>
      <trkpt lat="43.95939" lon="7.24293">
        <ele>1394.529541</ele>
        <time>2009-05-31T07:07:58Z</time>
      </trkpt>
      <trkpt lat="43.95929" lon="7.24299">
        <ele>1394.049072</ele>
        <time>2009-05-31T07:08:00Z</time>
      </trkpt>
      <trkpt lat="43.95919" lon="7.24302">
        <ele>1394.529541</ele>
        <time>2009-05-31T07:08:03Z</time>
      </trkpt>
      <trkpt lat="43.959" lon="7.24304">
        <ele>1396.452393</ele>
        <time>2009-05-31T07:08:10Z</time>
      </trkpt>
      <trkpt lat="43.9589" lon="7.24307">
        <ele>1396.932861</ele>
        <time>2009-05-31T07:08:14Z</time>
      </trkpt>
      <trkpt lat="43.95887" lon="7.24307">
        <ele>1398.855469</ele>
        <time>2009-05-31T07:08:19Z</time>
      </trkpt>
      <trkpt lat="43.95884" lon="7.24309">
        <ele>1400.297607</ele>
        <time>2009-05-31T07:08:23Z</time>
      </trkpt>
      <trkpt lat="43.95872" lon="7.24315">
        <ele>1400.778076</ele>
        <time>2009-05-31T07:08:30Z</time>
      </trkpt>
      <trkpt lat="43.95856" lon="7.24319">
        <ele>1400.297607</ele>
        <time>2009-05-31T07:08:38Z</time>
      </trkpt>
      <trkpt lat="43.95844" lon="7.24321">
        <ele>1402.700684</ele>
        <time>2009-05-31T07:08:44Z</time>
      </trkpt>
      <trkpt lat="43.95833" lon="7.24321">
        <ele>1403.181396</ele>
        <time>2009-05-31T07:08:49Z</time>
      </trkpt>
      <trkpt lat="43.95818" lon="7.24319">
        <ele>1403.662109</ele>
        <time>2009-05-31T07:08:55Z</time>
      </trkpt>
      <trkpt lat="43.95803" lon="7.24319">
        <ele>1404.623535</ele>
        <time>2009-05-31T07:09:01Z</time>
      </trkpt>
      <trkpt lat="43.95789" lon="7.24317">
        <ele>1406.06543</ele>
        <time>2009-05-31T07:09:06Z</time>
      </trkpt>
      <trkpt lat="43.95776" lon="7.24315">
        <ele>1406.546143</ele>
        <time>2009-05-31T07:09:11Z</time>
      </trkpt>
      <trkpt lat="43.95766" lon="7.24313">
        <ele>1407.026855</ele>
        <time>2009-05-31T07:09:15Z</time>
      </trkpt>
      <trkpt lat="43.95754" lon="7.24303">
        <ele>1406.546143</ele>
        <time>2009-05-31T07:09:20Z</time>
      </trkpt>
      <trkpt lat="43.95747" lon="7.24302">
        <ele>1407.507568</ele>
        <time>2009-05-31T07:09:23Z</time>
      </trkpt>
      <trkpt lat="43.95736" lon="7.24296">
        <ele>1408.46875</ele>
        <time>2009-05-31T07:09:28Z</time>
      </trkpt>
      <trkpt lat="43.95716" lon="7.24292">
        <ele>1409.430176</ele>
        <time>2009-05-31T07:09:34Z</time>
      </trkpt>
      <trkpt lat="43.95703" lon="7.24292">
        <ele>1411.352783</ele>
        <time>2009-05-31T07:09:38Z</time>
      </trkpt>
      <trkpt lat="43.95688" lon="7.24284">
        <ele>1414.236572</ele>
        <time>2009-05-31T07:09:44Z</time>
      </trkpt>
      <trkpt lat="43.95671" lon="7.24275">
        <ele>1413.755859</ele>
        <time>2009-05-31T07:09:51Z</time>
      </trkpt>
      <trkpt lat="43.95658" lon="7.24266">
        <ele>1414.717285</ele>
        <time>2009-05-31T07:09:58Z</time>
      </trkpt>
      <trkpt lat="43.9565" lon="7.24259">
        <ele>1415.678711</ele>
        <time>2009-05-31T07:10:04Z</time>
      </trkpt>
      <trkpt lat="43.95634" lon="7.24247">
        <ele>1418.5625</ele>
        <time>2009-05-31T07:10:14Z</time>
      </trkpt>
      <trkpt lat="43.95623" lon="7.24238">
        <ele>1420.485352</ele>
        <time>2009-05-31T07:10:22Z</time>
      </trkpt>
      <trkpt lat="43.95611" lon="7.24232">
        <ele>1420.004639</ele>
        <time>2009-05-31T07:10:29Z</time>
      </trkpt>
      <trkpt lat="43.95603" lon="7.24223">
        <ele>1422.888672</ele>
        <time>2009-05-31T07:10:37Z</time>
      </trkpt>
      <trkpt lat="43.95601" lon="7.2422">
        <ele>1423.369385</ele>
        <time>2009-05-31T07:10:41Z</time>
      </trkpt>
      <trkpt lat="43.95594" lon="7.24213">
        <ele>1424.811279</ele>
        <time>2009-05-31T07:10:49Z</time>
      </trkpt>
      <trkpt lat="43.95584" lon="7.24211">
        <ele>1425.291748</ele>
        <time>2009-05-31T07:10:57Z</time>
      </trkpt>
      <trkpt lat="43.95574" lon="7.24209">
        <ele>1425.772461</ele>
        <time>2009-05-31T07:11:05Z</time>
      </trkpt>
      <trkpt lat="43.95561" lon="7.24206">
        <ele>1426.733887</ele>
        <time>2009-05-31T07:11:13Z</time>
      </trkpt>
      <trkpt lat="43.95551" lon="7.24202">
        <ele>1427.695068</ele>
        <time>2009-05-31T07:11:19Z</time>
      </trkpt>
      <trkpt lat="43.95545" lon="7.242">
        <ele>1429.617676</ele>
        <time>2009-05-31T07:11:23Z</time>
      </trkpt>
      <trkpt lat="43.95535" lon="7.24193">
        <ele>1431.059814</ele>
        <time>2009-05-31T07:11:30Z</time>
      </trkpt>
      <trkpt lat="43.9553" lon="7.24191">
        <ele>1431.540283</ele>
        <time>2009-05-31T07:11:34Z</time>
      </trkpt>
      <trkpt lat="43.95528" lon="7.24191">
        <ele>1432.501709</ele>
        <time>2009-05-31T07:11:36Z</time>
      </trkpt>
      <trkpt lat="43.95518" lon="7.2419">
        <ele>1432.982178</ele>
        <time>2009-05-31T07:11:44Z</time>
      </trkpt>
      <trkpt lat="43.9551" lon="7.24184">
        <ele>1432.982178</ele>
        <time>2009-05-31T07:11:52Z</time>
      </trkpt>
      <trkpt lat="43.95498" lon="7.24183">
        <ele>1436.827637</ele>
        <time>2009-05-31T07:12:01Z</time>
      </trkpt>
      <trkpt lat="43.95492" lon="7.24187">
        <ele>1441.153564</ele>
        <time>2009-05-31T07:12:08Z</time>
      </trkpt>
      <trkpt lat="43.95491" lon="7.24185">
        <ele>1439.71167</ele>
        <time>2009-05-31T07:12:13Z</time>
      </trkpt>
      <trkpt lat="43.95501" lon="7.2417">
        <ele>1433.462891</ele>
        <time>2009-05-31T07:12:46Z</time>
      </trkpt>
      <trkpt lat="43.95503" lon="7.2417">
        <ele>1439.230957</ele>
        <time>2009-05-31T07:12:55Z</time>
      </trkpt>
      <trkpt lat="43.95502" lon="7.24177">
        <ele>1444.998779</ele>
        <time>2009-05-31T07:13:10Z</time>
      </trkpt>
      <trkpt lat="43.95503" lon="7.24178">
        <ele>1445.960205</ele>
        <time>2009-05-31T07:13:19Z</time>
      </trkpt>
      <trkpt lat="43.95506" lon="7.24176">
        <ele>1448.363281</ele>
        <time>2009-05-31T07:13:36Z</time>
      </trkpt>
      <trkpt lat="43.95507" lon="7.24175">
        <ele>1448.363281</ele>
        <time>2009-05-31T07:13:39Z</time>
      </trkpt>
      <trkpt lat="43.95508" lon="7.24173">
        <ele>1444.518066</ele>
        <time>2009-05-31T07:13:52Z</time>
      </trkpt>
      <trkpt lat="43.95507" lon="7.24173">
        <ele>1443.556885</ele>
        <time>2009-05-31T07:14:01Z</time>
      </trkpt>
      <trkpt lat="43.95506" lon="7.24174">
        <ele>1443.556885</ele>
        <time>2009-05-31T07:14:03Z</time>
      </trkpt>
      <trkpt lat="43.95503" lon="7.24178">
        <ele>1443.556885</ele>
        <time>2009-05-31T07:14:12Z</time>
      </trkpt>
      <trkpt lat="43.95503" lon="7.2418">
        <ele>1446.440918</ele>
        <time>2009-05-31T07:14:23Z</time>
      </trkpt>
      <trkpt lat="43.95503" lon="7.24181">
        <ele>1447.882813</ele>
        <time>2009-05-31T07:14:31Z</time>
      </trkpt>
      <trkpt lat="43.95503" lon="7.24181">
        <ele>1447.882813</ele>
        <time>2009-05-31T07:14:33Z</time>
      </trkpt>
      <trkpt lat="43.95503" lon="7.24181">
        <ele>1447.882813</ele>
        <time>2009-05-31T07:14:34Z</time>
      </trkpt>
      <trkpt lat="43.95503" lon="7.24181">
        <ele>1448.363281</ele>
        <time>2009-05-31T07:14:44Z</time>
      </trkpt>
      <trkpt lat="43.95503" lon="7.24181">
        <ele>1448.843994</ele>
        <time>2009-05-31T07:14:48Z</time>
      </trkpt>
      <trkpt lat="43.95503" lon="7.24183">
        <ele>1448.363281</ele>
        <time>2009-05-31T07:15:09Z</time>
      </trkpt>
      <trkpt lat="43.95497" lon="7.24188">
        <ele>1444.998779</ele>
        <time>2009-05-31T07:15:16Z</time>
      </trkpt>
      <trkpt lat="43.95495" lon="7.2419">
        <ele>1445.479492</ele>
        <time>2009-05-31T07:15:18Z</time>
      </trkpt>
      <trkpt lat="43.9549" lon="7.24184">
        <ele>1444.518066</ele>
        <time>2009-05-31T07:15:25Z</time>
      </trkpt>
      <trkpt lat="43.95489" lon="7.24182">
        <ele>1445.479492</ele>
        <time>2009-05-31T07:15:27Z</time>
      </trkpt>
      <trkpt lat="43.95483" lon="7.24188">
        <ele>1444.518066</ele>
        <time>2009-05-31T07:15:33Z</time>
      </trkpt>
      <trkpt lat="43.95481" lon="7.24191">
        <ele>1445.479492</ele>
        <time>2009-05-31T07:15:36Z</time>
      </trkpt>
      <trkpt lat="43.95475" lon="7.2419">
        <ele>1446.440918</ele>
        <time>2009-05-31T07:15:42Z</time>
      </trkpt>
      <trkpt lat="43.95473" lon="7.2419">
        <ele>1446.440918</ele>
        <time>2009-05-31T07:15:43Z</time>
      </trkpt>
      <trkpt lat="43.95467" lon="7.24186">
        <ele>1447.882813</ele>
        <time>2009-05-31T07:15:51Z</time>
      </trkpt>
      <trkpt lat="43.95461" lon="7.24184">
        <ele>1449.80542</ele>
        <time>2009-05-31T07:15:57Z</time>
      </trkpt>
      <trkpt lat="43.95458" lon="7.24184">
        <ele>1452.689453</ele>
        <time>2009-05-31T07:16:02Z</time>
      </trkpt>
      <trkpt lat="43.95457" lon="7.24191">
        <ele>1454.612061</ele>
        <time>2009-05-31T07:16:08Z</time>
      </trkpt>
      <trkpt lat="43.95454" lon="7.24192">
        <ele>1452.689453</ele>
        <time>2009-05-31T07:16:14Z</time>
      </trkpt>
      <trkpt lat="43.95451" lon="7.24192">
        <ele>1456.534668</ele>
        <time>2009-05-31T07:16:20Z</time>
      </trkpt>
      <trkpt lat="43.9545" lon="7.24198">
        <ele>1458.937988</ele>
        <time>2009-05-31T07:16:28Z</time>
      </trkpt>
      <trkpt lat="43.95448" lon="7.24198">
        <ele>1461.822021</ele>
        <time>2009-05-31T07:16:33Z</time>
      </trkpt>
      <trkpt lat="43.95448" lon="7.24205">
        <ele>1466.628418</ele>
        <time>2009-05-31T07:16:41Z</time>
      </trkpt>
      <trkpt lat="43.95445" lon="7.24213">
        <ele>1466.147705</ele>
        <time>2009-05-31T07:16:47Z</time>
      </trkpt>
      <trkpt lat="43.95443" lon="7.24214">
        <ele>1468.070557</ele>
        <time>2009-05-31T07:16:49Z</time>
      </trkpt>
      <trkpt lat="43.95437" lon="7.24214">
        <ele>1472.877197</ele>
        <time>2009-05-31T07:16:55Z</time>
      </trkpt>
      <trkpt lat="43.95435" lon="7.24214">
        <ele>1472.396484</ele>
        <time>2009-05-31T07:16:59Z</time>
      </trkpt>
      <trkpt lat="43.95436" lon="7.24215">
        <ele>1468.070557</ele>
        <time>2009-05-31T07:17:05Z</time>
      </trkpt>
      <trkpt lat="43.95436" lon="7.24218">
        <ele>1466.628418</ele>
        <time>2009-05-31T07:17:11Z</time>
      </trkpt>
      <trkpt lat="43.95432" lon="7.24224">
        <ele>1464.225098</ele>
        <time>2009-05-31T07:17:17Z</time>
      </trkpt>
      <trkpt lat="43.95426" lon="7.24229">
        <ele>1466.628418</ele>
        <time>2009-05-31T07:17:24Z</time>
      </trkpt>
      <trkpt lat="43.95425" lon="7.24234">
        <ele>1469.993164</ele>
        <time>2009-05-31T07:17:30Z</time>
      </trkpt>
      <trkpt lat="43.9542" lon="7.24234">
        <ele>1469.512695</ele>
        <time>2009-05-31T07:17:37Z</time>
      </trkpt>
      <trkpt lat="43.95416" lon="7.24239">
        <ele>1471.435059</ele>
        <time>2009-05-31T07:17:44Z</time>
      </trkpt>
      <trkpt lat="43.95414" lon="7.24241">
        <ele>1473.838379</ele>
        <time>2009-05-31T07:17:49Z</time>
      </trkpt>
      <trkpt lat="43.95413" lon="7.24244">
        <ele>1474.319092</ele>
        <time>2009-05-31T07:17:55Z</time>
      </trkpt>
      <trkpt lat="43.95408" lon="7.2425">
        <ele>1478.64502</ele>
        <time>2009-05-31T07:18:05Z</time>
      </trkpt>
      <trkpt lat="43.95406" lon="7.24253">
        <ele>1477.683594</ele>
        <time>2009-05-31T07:18:11Z</time>
      </trkpt>
      <trkpt lat="43.95406" lon="7.24253">
        <ele>1476.722412</ele>
        <time>2009-05-31T07:18:12Z</time>
      </trkpt>
      <trkpt lat="43.95402" lon="7.24258">
        <ele>1475.760986</ele>
        <time>2009-05-31T07:18:16Z</time>
      </trkpt>
      <trkpt lat="43.95398" lon="7.24264">
        <ele>1477.203125</ele>
        <time>2009-05-31T07:18:21Z</time>
      </trkpt>
      <trkpt lat="43.95392" lon="7.24263">
        <ele>1474.799805</ele>
        <time>2009-05-31T07:18:26Z</time>
      </trkpt>
      <trkpt lat="43.95371" lon="7.24265">
        <ele>1474.319092</ele>
        <time>2009-05-31T07:18:33Z</time>
      </trkpt>
      <trkpt lat="43.95355" lon="7.24267">
        <ele>1474.319092</ele>
        <time>2009-05-31T07:18:38Z</time>
      </trkpt>
      <trkpt lat="43.95335" lon="7.2427">
        <ele>1473.35791</ele>
        <time>2009-05-31T07:18:43Z</time>
      </trkpt>
      <trkpt lat="43.95329" lon="7.24269">
        <ele>1473.838379</ele>
        <time>2009-05-31T07:18:47Z</time>
      </trkpt>
      <trkpt lat="43.95322" lon="7.24275">
        <ele>1478.64502</ele>
        <time>2009-05-31T07:18:54Z</time>
      </trkpt>
      <trkpt lat="43.95321" lon="7.24276">
        <ele>1479.606201</ele>
        <time>2009-05-31T07:18:55Z</time>
      </trkpt>
      <trkpt lat="43.95316" lon="7.24279">
        <ele>1480.086914</ele>
        <time>2009-05-31T07:18:59Z</time>
      </trkpt>
      <trkpt lat="43.95308" lon="7.24277">
        <ele>1482.970703</ele>
        <time>2009-05-31T07:19:07Z</time>
      </trkpt>
      <trkpt lat="43.953" lon="7.24276">
        <ele>1485.374268</ele>
        <time>2009-05-31T07:19:14Z</time>
      </trkpt>
      <trkpt lat="43.95293" lon="7.2428">
        <ele>1487.777588</ele>
        <time>2009-05-31T07:19:20Z</time>
      </trkpt>
      <trkpt lat="43.95287" lon="7.24279">
        <ele>1487.296875</ele>
        <time>2009-05-31T07:19:26Z</time>
      </trkpt>
      <trkpt lat="43.95282" lon="7.24278">
        <ele>1489.219482</ele>
        <time>2009-05-31T07:19:32Z</time>
      </trkpt>
      <trkpt lat="43.95276" lon="7.2428">
        <ele>1494.506592</ele>
        <time>2009-05-31T07:19:38Z</time>
      </trkpt>
      <trkpt lat="43.95272" lon="7.24282">
        <ele>1498.83252</ele>
        <time>2009-05-31T07:19:43Z</time>
      </trkpt>
      <trkpt lat="43.95267" lon="7.24285">
        <ele>1501.236084</ele>
        <time>2009-05-31T07:19:48Z</time>
      </trkpt>
      <trkpt lat="43.95263" lon="7.24288">
        <ele>1504.120117</ele>
        <time>2009-05-31T07:19:53Z</time>
      </trkpt>
      <trkpt lat="43.95261" lon="7.24289">
        <ele>1502.677979</ele>
        <time>2009-05-31T07:19:57Z</time>
      </trkpt>
      <trkpt lat="43.95259" lon="7.2429">
        <ele>1501.236084</ele>
        <time>2009-05-31T07:20:00Z</time>
      </trkpt>
      <trkpt lat="43.95244" lon="7.24302">
        <ele>1495.94873</ele>
        <time>2009-05-31T07:20:06Z</time>
      </trkpt>
      <trkpt lat="43.95234" lon="7.24313">
        <ele>1495.94873</ele>
        <time>2009-05-31T07:20:10Z</time>
      </trkpt>
      <trkpt lat="43.9522" lon="7.24316">
        <ele>1494.506592</ele>
        <time>2009-05-31T07:20:15Z</time>
      </trkpt>
      <trkpt lat="43.95213" lon="7.24312">
        <ele>1493.54541</ele>
        <time>2009-05-31T07:20:19Z</time>
      </trkpt>
      <trkpt lat="43.9521" lon="7.2431">
        <ele>1494.026123</ele>
        <time>2009-05-31T07:20:23Z</time>
      </trkpt>
      <trkpt lat="43.95209" lon="7.24305">
        <ele>1494.506592</ele>
        <time>2009-05-31T07:20:31Z</time>
      </trkpt>
      <trkpt lat="43.95208" lon="7.24301">
        <ele>1492.103516</ele>
        <time>2009-05-31T07:20:37Z</time>
      </trkpt>
      <trkpt lat="43.95205" lon="7.24301">
        <ele>1494.026123</ele>
        <time>2009-05-31T07:20:44Z</time>
      </trkpt>
      <trkpt lat="43.95201" lon="7.24297">
        <ele>1496.429443</ele>
        <time>2009-05-31T07:20:53Z</time>
      </trkpt>
      <trkpt lat="43.95199" lon="7.24289">
        <ele>1499.313232</ele>
        <time>2009-05-31T07:21:01Z</time>
      </trkpt>
      <trkpt lat="43.95195" lon="7.24289">
        <ele>1501.716797</ele>
        <time>2009-05-31T07:21:07Z</time>
      </trkpt>
      <trkpt lat="43.95192" lon="7.24291">
        <ele>1503.158691</ele>
        <time>2009-05-31T07:21:13Z</time>
      </trkpt>
      <trkpt lat="43.95197" lon="7.24294">
        <ele>1506.04248</ele>
        <time>2009-05-31T07:21:21Z</time>
      </trkpt>
      <trkpt lat="43.95196" lon="7.24296">
        <ele>1507.003906</ele>
        <time>2009-05-31T07:21:26Z</time>
      </trkpt>
      <trkpt lat="43.95194" lon="7.24296">
        <ele>1509.407227</ele>
        <time>2009-05-31T07:21:33Z</time>
      </trkpt>
      <trkpt lat="43.95198" lon="7.24301">
        <ele>1513.252441</ele>
        <time>2009-05-31T07:21:41Z</time>
      </trkpt>
      <trkpt lat="43.95197" lon="7.24303">
        <ele>1515.175049</ele>
        <time>2009-05-31T07:21:46Z</time>
      </trkpt>
      <trkpt lat="43.95193" lon="7.24307">
        <ele>1518.059082</ele>
        <time>2009-05-31T07:21:53Z</time>
      </trkpt>
      <trkpt lat="43.95191" lon="7.24308">
        <ele>1519.981689</ele>
        <time>2009-05-31T07:21:59Z</time>
      </trkpt>
      <trkpt lat="43.95187" lon="7.24309">
        <ele>1520.943115</ele>
        <time>2009-05-31T07:22:08Z</time>
      </trkpt>
      <trkpt lat="43.95184" lon="7.24313">
        <ele>1521.904297</ele>
        <time>2009-05-31T07:22:18Z</time>
      </trkpt>
      <trkpt lat="43.95183" lon="7.24315">
        <ele>1523.346436</ele>
        <time>2009-05-31T07:22:19Z</time>
      </trkpt>
      <trkpt lat="43.95179" lon="7.24322">
        <ele>1526.230225</ele>
        <time>2009-05-31T07:22:26Z</time>
      </trkpt>
      <trkpt lat="43.95176" lon="7.24321">
        <ele>1526.230225</ele>
        <time>2009-05-31T07:22:32Z</time>
      </trkpt>
      <trkpt lat="43.95176" lon="7.24317">
        <ele>1526.230225</ele>
        <time>2009-05-31T07:22:37Z</time>
      </trkpt>
      <trkpt lat="43.95174" lon="7.24314">
        <ele>1525.749512</ele>
        <time>2009-05-31T07:22:44Z</time>
      </trkpt>
      <trkpt lat="43.95173" lon="7.24313">
        <ele>1526.230225</ele>
        <time>2009-05-31T07:22:49Z</time>
      </trkpt>
      <trkpt lat="43.95172" lon="7.24316">
        <ele>1525.749512</ele>
        <time>2009-05-31T07:22:57Z</time>
      </trkpt>
      <trkpt lat="43.95173" lon="7.24318">
        <ele>1525.749512</ele>
        <time>2009-05-31T07:23:02Z</time>
      </trkpt>
      <trkpt lat="43.9517" lon="7.24322">
        <ele>1528.633545</ele>
        <time>2009-05-31T07:23:08Z</time>
      </trkpt>
      <trkpt lat="43.95166" lon="7.24327">
        <ele>1533.440186</ele>
        <time>2009-05-31T07:23:16Z</time>
      </trkpt>
      <trkpt lat="43.95166" lon="7.24331">
        <ele>1534.882324</ele>
        <time>2009-05-31T07:23:25Z</time>
      </trkpt>
      <trkpt lat="43.95162" lon="7.24337">
        <ele>1538.727539</ele>
        <time>2009-05-31T07:23:33Z</time>
      </trkpt>
      <trkpt lat="43.95161" lon="7.24343">
        <ele>1537.766113</ele>
        <time>2009-05-31T07:23:41Z</time>
      </trkpt>
      <trkpt lat="43.95162" lon="7.24343">
        <ele>1535.843506</ele>
        <time>2009-05-31T07:23:44Z</time>
      </trkpt>
      <trkpt lat="43.9516" lon="7.24349">
        <ele>1533.920898</ele>
        <time>2009-05-31T07:23:52Z</time>
      </trkpt>
      <trkpt lat="43.95158" lon="7.24351">
        <ele>1535.843506</ele>
        <time>2009-05-31T07:23:59Z</time>
      </trkpt>
      <trkpt lat="43.95156" lon="7.24353">
        <ele>1536.804688</ele>
        <time>2009-05-31T07:24:04Z</time>
      </trkpt>
      <trkpt lat="43.95152" lon="7.24356">
        <ele>1535.843506</ele>
        <time>2009-05-31T07:24:10Z</time>
      </trkpt>
      <trkpt lat="43.95145" lon="7.24359">
        <ele>1533.920898</ele>
        <time>2009-05-31T07:24:17Z</time>
      </trkpt>
      <trkpt lat="43.95135" lon="7.24368">
        <ele>1532.479004</ele>
        <time>2009-05-31T07:24:26Z</time>
      </trkpt>
      <trkpt lat="43.95126" lon="7.24372">
        <ele>1531.036865</ele>
        <time>2009-05-31T07:24:34Z</time>
      </trkpt>
      <trkpt lat="43.95119" lon="7.24366">
        <ele>1531.517334</ele>
        <time>2009-05-31T07:24:40Z</time>
      </trkpt>
      <trkpt lat="43.95118" lon="7.24365">
        <ele>1531.517334</ele>
        <time>2009-05-31T07:24:41Z</time>
      </trkpt>
      <trkpt lat="43.95115" lon="7.24365">
        <ele>1531.517334</ele>
        <time>2009-05-31T07:24:44Z</time>
      </trkpt>
      <trkpt lat="43.95103" lon="7.24373">
        <ele>1531.517334</ele>
        <time>2009-05-31T07:24:53Z</time>
      </trkpt>
      <trkpt lat="43.95095" lon="7.24378">
        <ele>1530.556152</ele>
        <time>2009-05-31T07:25:00Z</time>
      </trkpt>
      <trkpt lat="43.95094" lon="7.24378">
        <ele>1530.075439</ele>
        <time>2009-05-31T07:25:01Z</time>
      </trkpt>
      <trkpt lat="43.95086" lon="7.24371">
        <ele>1530.075439</ele>
        <time>2009-05-31T07:25:10Z</time>
      </trkpt>
      <trkpt lat="43.9508" lon="7.24367">
        <ele>1530.556152</ele>
        <time>2009-05-31T07:25:17Z</time>
      </trkpt>
      <trkpt lat="43.95078" lon="7.24365">
        <ele>1530.556152</ele>
        <time>2009-05-31T07:25:19Z</time>
      </trkpt>
      <trkpt lat="43.95077" lon="7.24359">
        <ele>1531.517334</ele>
        <time>2009-05-31T07:25:25Z</time>
      </trkpt>
      <trkpt lat="43.95074" lon="7.24355">
        <ele>1532.479004</ele>
        <time>2009-05-31T07:25:30Z</time>
      </trkpt>
      <trkpt lat="43.95067" lon="7.24349">
        <ele>1532.959473</ele>
        <time>2009-05-31T07:25:35Z</time>
      </trkpt>
      <trkpt lat="43.95061" lon="7.24335">
        <ele>1532.479004</ele>
        <time>2009-05-31T07:25:40Z</time>
      </trkpt>
      <trkpt lat="43.9506" lon="7.24324">
        <ele>1533.920898</ele>
        <time>2009-05-31T07:25:45Z</time>
      </trkpt>
      <trkpt lat="43.9506" lon="7.24321">
        <ele>1534.401611</ele>
        <time>2009-05-31T07:25:46Z</time>
      </trkpt>
      <trkpt lat="43.95057" lon="7.24311">
        <ele>1536.324219</ele>
        <time>2009-05-31T07:25:51Z</time>
      </trkpt>
      <trkpt lat="43.95053" lon="7.2431">
        <ele>1537.766113</ele>
        <time>2009-05-31T07:25:57Z</time>
      </trkpt>
      <trkpt lat="43.9505" lon="7.2431">
        <ele>1537.2854</ele>
        <time>2009-05-31T07:26:01Z</time>
      </trkpt>
      <trkpt lat="43.95039" lon="7.2432">
        <ele>1534.401611</ele>
        <time>2009-05-31T07:26:07Z</time>
      </trkpt>
      <trkpt lat="43.95034" lon="7.24326">
        <ele>1530.075439</ele>
        <time>2009-05-31T07:26:12Z</time>
      </trkpt>
      <trkpt lat="43.95026" lon="7.2433">
        <ele>1528.152832</ele>
        <time>2009-05-31T07:26:15Z</time>
      </trkpt>
      <trkpt lat="43.95015" lon="7.24338">
        <ele>1525.749512</ele>
        <time>2009-05-31T07:26:19Z</time>
      </trkpt>
      <trkpt lat="43.95008" lon="7.24347">
        <ele>1523.346436</ele>
        <time>2009-05-31T07:26:24Z</time>
      </trkpt>
      <trkpt lat="43.94996" lon="7.24356">
        <ele>1520.943115</ele>
        <time>2009-05-31T07:26:29Z</time>
      </trkpt>
      <trkpt lat="43.94988" lon="7.24361">
        <ele>1518.539795</ele>
        <time>2009-05-31T07:26:34Z</time>
      </trkpt>
      <trkpt lat="43.94986" lon="7.24358">
        <ele>1521.423584</ele>
        <time>2009-05-31T07:26:40Z</time>
      </trkpt>
      <trkpt lat="43.94974" lon="7.24354">
        <ele>1524.307617</ele>
        <time>2009-05-31T07:26:45Z</time>
      </trkpt>
      <trkpt lat="43.94965" lon="7.24349">
        <ele>1523.826904</ele>
        <time>2009-05-31T07:26:48Z</time>
      </trkpt>
      <trkpt lat="43.94953" lon="7.24335">
        <ele>1531.517334</ele>
        <time>2009-05-31T07:26:53Z</time>
      </trkpt>
      <trkpt lat="43.94949" lon="7.24336">
        <ele>1530.075439</ele>
        <time>2009-05-31T07:26:54Z</time>
      </trkpt>
      <trkpt lat="43.94934" lon="7.24339">
        <ele>1522.38501</ele>
        <time>2009-05-31T07:26:59Z</time>
      </trkpt>
      <trkpt lat="43.94932" lon="7.24343">
        <ele>1520.943115</ele>
        <time>2009-05-31T07:27:00Z</time>
      </trkpt>
      <trkpt lat="43.94914" lon="7.24366">
        <ele>1516.617188</ele>
        <time>2009-05-31T07:27:06Z</time>
      </trkpt>
      <trkpt lat="43.94908" lon="7.2438">
        <ele>1510.849121</ele>
        <time>2009-05-31T07:27:10Z</time>
      </trkpt>
      <trkpt lat="43.94894" lon="7.24396">
        <ele>1504.120117</ele>
        <time>2009-05-31T07:27:16Z</time>
      </trkpt>
      <trkpt lat="43.94883" lon="7.24399">
        <ele>1498.351807</ele>
        <time>2009-05-31T07:27:22Z</time>
      </trkpt>
      <trkpt lat="43.9488" lon="7.244">
        <ele>1496.429443</ele>
        <time>2009-05-31T07:27:24Z</time>
      </trkpt>
      <trkpt lat="43.94872" lon="7.24401">
        <ele>1491.14209</ele>
        <time>2009-05-31T07:27:31Z</time>
      </trkpt>
      <trkpt lat="43.94873" lon="7.24396">
        <ele>1490.661377</ele>
        <time>2009-05-31T07:27:36Z</time>
      </trkpt>
      <trkpt lat="43.94877" lon="7.24393">
        <ele>1490.180908</ele>
        <time>2009-05-31T07:27:39Z</time>
      </trkpt>
      <trkpt lat="43.94882" lon="7.24384">
        <ele>1490.180908</ele>
        <time>2009-05-31T07:27:45Z</time>
      </trkpt>
      <trkpt lat="43.94883" lon="7.24379">
        <ele>1488.258301</ele>
        <time>2009-05-31T07:27:50Z</time>
      </trkpt>
      <trkpt lat="43.94884" lon="7.24375">
        <ele>1487.296875</ele>
        <time>2009-05-31T07:27:55Z</time>
      </trkpt>
      <trkpt lat="43.94885" lon="7.24374">
        <ele>1487.296875</ele>
        <time>2009-05-31T07:27:56Z</time>
      </trkpt>
      <trkpt lat="43.94888" lon="7.24361">
        <ele>1483.451416</ele>
        <time>2009-05-31T07:28:00Z</time>
      </trkpt>
      <trkpt lat="43.94891" lon="7.24351">
        <ele>1481.04834</ele>
        <time>2009-05-31T07:28:04Z</time>
      </trkpt>
      <trkpt lat="43.94892" lon="7.24341">
        <ele>1478.64502</ele>
        <time>2009-05-31T07:28:07Z</time>
      </trkpt>
      <trkpt lat="43.94891" lon="7.24342">
        <ele>1476.722412</ele>
        <time>2009-05-31T07:28:11Z</time>
      </trkpt>
      <trkpt lat="43.94889" lon="7.24347">
        <ele>1475.760986</ele>
        <time>2009-05-31T07:28:16Z</time>
      </trkpt>
      <trkpt lat="43.94884" lon="7.24351">
        <ele>1475.280273</ele>
        <time>2009-05-31T07:28:20Z</time>
      </trkpt>
      <trkpt lat="43.94884" lon="7.24346">
        <ele>1473.35791</ele>
        <time>2009-05-31T07:28:26Z</time>
      </trkpt>
      <trkpt lat="43.94882" lon="7.24339">
        <ele>1469.512695</ele>
        <time>2009-05-31T07:28:33Z</time>
      </trkpt>
      <trkpt lat="43.94881" lon="7.2434">
        <ele>1468.55127</ele>
        <time>2009-05-31T07:28:35Z</time>
      </trkpt>
      <trkpt lat="43.94875" lon="7.24348">
        <ele>1465.667236</ele>
        <time>2009-05-31T07:28:39Z</time>
      </trkpt>
      <trkpt lat="43.94866" lon="7.24363">
        <ele>1463.263916</ele>
        <time>2009-05-31T07:28:45Z</time>
      </trkpt>
      <trkpt lat="43.94858" lon="7.2437">
        <ele>1464.705811</ele>
        <time>2009-05-31T07:28:49Z</time>
      </trkpt>
      <trkpt lat="43.94847" lon="7.24382">
        <ele>1461.822021</ele>
        <time>2009-05-31T07:28:54Z</time>
      </trkpt>
      <trkpt lat="43.94843" lon="7.24384">
        <ele>1460.860596</ele>
        <time>2009-05-31T07:28:57Z</time>
      </trkpt>
      <trkpt lat="43.94843" lon="7.24384">
        <ele>1461.341309</ele>
        <time>2009-05-31T07:28:58Z</time>
      </trkpt>
      <trkpt lat="43.94839" lon="7.24389">
        <ele>1458.937988</ele>
        <time>2009-05-31T07:29:02Z</time>
      </trkpt>
      <trkpt lat="43.94826" lon="7.24404">
        <ele>1457.976807</ele>
        <time>2009-05-31T07:29:08Z</time>
      </trkpt>
      <trkpt lat="43.94815" lon="7.24412">
        <ele>1456.534668</ele>
        <time>2009-05-31T07:29:13Z</time>
      </trkpt>
      <trkpt lat="43.94802" lon="7.24419">
        <ele>1455.573486</ele>
        <time>2009-05-31T07:29:18Z</time>
      </trkpt>
      <trkpt lat="43.94795" lon="7.24422">
        <ele>1453.650879</ele>
        <time>2009-05-31T07:29:23Z</time>
      </trkpt>
      <trkpt lat="43.94788" lon="7.24425">
        <ele>1452.20874</ele>
        <time>2009-05-31T07:29:28Z</time>
      </trkpt>
      <trkpt lat="43.94787" lon="7.24422">
        <ele>1451.728027</ele>
        <time>2009-05-31T07:29:31Z</time>
      </trkpt>
      <trkpt lat="43.94794" lon="7.24406">
        <ele>1448.363281</ele>
        <time>2009-05-31T07:29:37Z</time>
      </trkpt>
      <trkpt lat="43.94796" lon="7.24395">
        <ele>1445.479492</ele>
        <time>2009-05-31T07:29:43Z</time>
      </trkpt>
      <trkpt lat="43.9479" lon="7.24398">
        <ele>1443.556885</ele>
        <time>2009-05-31T07:29:46Z</time>
      </trkpt>
      <trkpt lat="43.94777" lon="7.24409">
        <ele>1441.634277</ele>
        <time>2009-05-31T07:29:52Z</time>
      </trkpt>
      <trkpt lat="43.94778" lon="7.24399">
        <ele>1438.269775</ele>
        <time>2009-05-31T07:29:56Z</time>
      </trkpt>
      <trkpt lat="43.94782" lon="7.24382">
        <ele>1433.462891</ele>
        <time>2009-05-31T07:30:00Z</time>
      </trkpt>
      <trkpt lat="43.9478" lon="7.24371">
        <ele>1429.136963</ele>
        <time>2009-05-31T07:30:05Z</time>
      </trkpt>
      <trkpt lat="43.94768" lon="7.24374">
        <ele>1424.811279</ele>
        <time>2009-05-31T07:30:10Z</time>
      </trkpt>
      <trkpt lat="43.94763" lon="7.24374">
        <ele>1421.446533</ele>
        <time>2009-05-31T07:30:14Z</time>
      </trkpt>
      <trkpt lat="43.94756" lon="7.24374">
        <ele>1418.5625</ele>
        <time>2009-05-31T07:30:19Z</time>
      </trkpt>
      <trkpt lat="43.94756" lon="7.24364">
        <ele>1416.639893</ele>
        <time>2009-05-31T07:30:24Z</time>
      </trkpt>
      <trkpt lat="43.94759" lon="7.24356">
        <ele>1413.275391</ele>
        <time>2009-05-31T07:30:29Z</time>
      </trkpt>
      <trkpt lat="43.94753" lon="7.24353">
        <ele>1411.352783</ele>
        <time>2009-05-31T07:30:34Z</time>
      </trkpt>
      <trkpt lat="43.94745" lon="7.24356">
        <ele>1408.949463</ele>
        <time>2009-05-31T07:30:38Z</time>
      </trkpt>
      <trkpt lat="43.94738" lon="7.24357">
        <ele>1407.026855</ele>
        <time>2009-05-31T07:30:43Z</time>
      </trkpt>
      <trkpt lat="43.94733" lon="7.24356">
        <ele>1404.623535</ele>
        <time>2009-05-31T07:30:47Z</time>
      </trkpt>
      <trkpt lat="43.94728" lon="7.24352">
        <ele>1403.181396</ele>
        <time>2009-05-31T07:30:51Z</time>
      </trkpt>
      <trkpt lat="43.94727" lon="7.24357">
        <ele>1402.700684</ele>
        <time>2009-05-31T07:30:54Z</time>
      </trkpt>
      <trkpt lat="43.94724" lon="7.24355">
        <ele>1400.778076</ele>
        <time>2009-05-31T07:30:57Z</time>
      </trkpt>
      <trkpt lat="43.94723" lon="7.24353">
        <ele>1400.297607</ele>
        <time>2009-05-31T07:30:58Z</time>
      </trkpt>
      <trkpt lat="43.9472" lon="7.24351">
        <ele>1399.816895</ele>
        <time>2009-05-31T07:31:00Z</time>
      </trkpt>
      <trkpt lat="43.94718" lon="7.24352">
        <ele>1398.855469</ele>
        <time>2009-05-31T07:31:04Z</time>
      </trkpt>
      <trkpt lat="43.94714" lon="7.24349">
        <ele>1397.413574</ele>
        <time>2009-05-31T07:31:09Z</time>
      </trkpt>
      <trkpt lat="43.9471" lon="7.24348">
        <ele>1396.452393</ele>
        <time>2009-05-31T07:31:13Z</time>
      </trkpt>
      <trkpt lat="43.94709" lon="7.24345">
        <ele>1395.010254</ele>
        <time>2009-05-31T07:31:16Z</time>
      </trkpt>
      <trkpt lat="43.94707" lon="7.2434">
        <ele>1393.568359</ele>
        <time>2009-05-31T07:31:21Z</time>
      </trkpt>
      <trkpt lat="43.94701" lon="7.24345">
        <ele>1391.645752</ele>
        <time>2009-05-31T07:31:25Z</time>
      </trkpt>
      <trkpt lat="43.94699" lon="7.24341">
        <ele>1390.203857</ele>
        <time>2009-05-31T07:31:28Z</time>
      </trkpt>
      <trkpt lat="43.94699" lon="7.24338">
        <ele>1389.242432</ele>
        <time>2009-05-31T07:31:31Z</time>
      </trkpt>
      <trkpt lat="43.94696" lon="7.2434">
        <ele>1387.800293</ele>
        <time>2009-05-31T07:31:34Z</time>
      </trkpt>
      <trkpt lat="43.94695" lon="7.24331">
        <ele>1386.358398</ele>
        <time>2009-05-31T07:31:39Z</time>
      </trkpt>
      <trkpt lat="43.94696" lon="7.2432">
        <ele>1383.955078</ele>
        <time>2009-05-31T07:31:43Z</time>
      </trkpt>
      <trkpt lat="43.94686" lon="7.24318">
        <ele>1380.590576</ele>
        <time>2009-05-31T07:31:49Z</time>
      </trkpt>
      <trkpt lat="43.94678" lon="7.24319">
        <ele>1378.667969</ele>
        <time>2009-05-31T07:31:53Z</time>
      </trkpt>
      <trkpt lat="43.94676" lon="7.24314">
        <ele>1375.783936</ele>
        <time>2009-05-31T07:31:57Z</time>
      </trkpt>
      <trkpt lat="43.94676" lon="7.24306">
        <ele>1371.938477</ele>
        <time>2009-05-31T07:32:02Z</time>
      </trkpt>
      <trkpt lat="43.94677" lon="7.24304">
        <ele>1371.938477</ele>
        <time>2009-05-31T07:32:03Z</time>
      </trkpt>
      <trkpt lat="43.94677" lon="7.24297">
        <ele>1370.496582</ele>
        <time>2009-05-31T07:32:08Z</time>
      </trkpt>
      <trkpt lat="43.94675" lon="7.24296">
        <ele>1370.496582</ele>
        <time>2009-05-31T07:32:10Z</time>
      </trkpt>
      <trkpt lat="43.94666" lon="7.24293">
        <ele>1370.496582</ele>
        <time>2009-05-31T07:32:16Z</time>
      </trkpt>
      <trkpt lat="43.94656" lon="7.24289">
        <ele>1368.093262</ele>
        <time>2009-05-31T07:32:21Z</time>
      </trkpt>
      <trkpt lat="43.94646" lon="7.24278">
        <ele>1366.170654</ele>
        <time>2009-05-31T07:32:24Z</time>
      </trkpt>
      <trkpt lat="43.94626" lon="7.2425">
        <ele>1362.806152</ele>
        <time>2009-05-31T07:32:29Z</time>
      </trkpt>
      <trkpt lat="43.94617" lon="7.24229">
        <ele>1361.364258</ele>
        <time>2009-05-31T07:32:33Z</time>
      </trkpt>
      <trkpt lat="43.94611" lon="7.24215">
        <ele>1359.922119</ele>
        <time>2009-05-31T07:32:36Z</time>
      </trkpt>
      <trkpt lat="43.94602" lon="7.24196">
        <ele>1361.364258</ele>
        <time>2009-05-31T07:32:40Z</time>
      </trkpt>
      <trkpt lat="43.94587" lon="7.24167">
        <ele>1364.72876</ele>
        <time>2009-05-31T07:32:46Z</time>
      </trkpt>
      <trkpt lat="43.94585" lon="7.24162">
        <ele>1365.209473</ele>
        <time>2009-05-31T07:32:47Z</time>
      </trkpt>
      <trkpt lat="43.94577" lon="7.24138">
        <ele>1362.325439</ele>
        <time>2009-05-31T07:32:51Z</time>
      </trkpt>
      <trkpt lat="43.94569" lon="7.24125">
        <ele>1363.286865</ele>
        <time>2009-05-31T07:32:54Z</time>
      </trkpt>
      <trkpt lat="43.94558" lon="7.24108">
        <ele>1366.170654</ele>
        <time>2009-05-31T07:33:00Z</time>
      </trkpt>
      <trkpt lat="43.94558" lon="7.24099">
        <ele>1367.612549</ele>
        <time>2009-05-31T07:33:03Z</time>
      </trkpt>
      <trkpt lat="43.94558" lon="7.24083">
        <ele>1366.170654</ele>
        <time>2009-05-31T07:33:08Z</time>
      </trkpt>
      <trkpt lat="43.94558" lon="7.24079">
        <ele>1365.690186</ele>
        <time>2009-05-31T07:33:09Z</time>
      </trkpt>
      <trkpt lat="43.94558" lon="7.24056">
        <ele>1366.170654</ele>
        <time>2009-05-31T07:33:15Z</time>
      </trkpt>
      <trkpt lat="43.94558" lon="7.24052">
        <ele>1367.13208</ele>
        <time>2009-05-31T07:33:16Z</time>
      </trkpt>
      <trkpt lat="43.94558" lon="7.24039">
        <ele>1366.170654</ele>
        <time>2009-05-31T07:33:20Z</time>
      </trkpt>
      <trkpt lat="43.94557" lon="7.24018">
        <ele>1363.286865</ele>
        <time>2009-05-31T07:33:24Z</time>
      </trkpt>
      <trkpt lat="43.94553" lon="7.23996">
        <ele>1360.402832</ele>
        <time>2009-05-31T07:33:28Z</time>
      </trkpt>
      <trkpt lat="43.94551" lon="7.23993">
        <ele>1359.922119</ele>
        <time>2009-05-31T07:33:29Z</time>
      </trkpt>
      <trkpt lat="43.94549" lon="7.2398">
        <ele>1359.922119</ele>
        <time>2009-05-31T07:33:35Z</time>
      </trkpt>
      <trkpt lat="43.94545" lon="7.23975">
        <ele>1359.44165</ele>
        <time>2009-05-31T07:33:39Z</time>
      </trkpt>
      <trkpt lat="43.94541" lon="7.23976">
        <ele>1357.999756</ele>
        <time>2009-05-31T07:33:44Z</time>
      </trkpt>
      <trkpt lat="43.94532" lon="7.2398">
        <ele>1355.596191</ele>
        <time>2009-05-31T07:33:49Z</time>
      </trkpt>
      <trkpt lat="43.94519" lon="7.23986">
        <ele>1354.634766</ele>
        <time>2009-05-31T07:33:53Z</time>
      </trkpt>
      <trkpt lat="43.94504" lon="7.23994">
        <ele>1352.712158</ele>
        <time>2009-05-31T07:33:57Z</time>
      </trkpt>
      <trkpt lat="43.94491" lon="7.24003">
        <ele>1351.270264</ele>
        <time>2009-05-31T07:34:00Z</time>
      </trkpt>
      <trkpt lat="43.94481" lon="7.24008">
        <ele>1350.789551</ele>
        <time>2009-05-31T07:34:02Z</time>
      </trkpt>
      <trkpt lat="43.94468" lon="7.24012">
        <ele>1350.789551</ele>
        <time>2009-05-31T07:34:04Z</time>
      </trkpt>
      <trkpt lat="43.94439" lon="7.24015">
        <ele>1351.750977</ele>
        <time>2009-05-31T07:34:09Z</time>
      </trkpt>
      <trkpt lat="43.94432" lon="7.24014">
        <ele>1352.231445</ele>
        <time>2009-05-31T07:34:11Z</time>
      </trkpt>
      <trkpt lat="43.9442" lon="7.24009">
        <ele>1352.231445</ele>
        <time>2009-05-31T07:34:15Z</time>
      </trkpt>
      <trkpt lat="43.94392" lon="7.24011">
        <ele>1349.347656</ele>
        <time>2009-05-31T07:34:21Z</time>
      </trkpt>
      <trkpt lat="43.94355" lon="7.24008">
        <ele>1350.309082</ele>
        <time>2009-05-31T07:34:27Z</time>
      </trkpt>
      <trkpt lat="43.94332" lon="7.24005">
        <ele>1351.750977</ele>
        <time>2009-05-31T07:34:31Z</time>
      </trkpt>
      <trkpt lat="43.94313" lon="7.24002">
        <ele>1354.154297</ele>
        <time>2009-05-31T07:34:34Z</time>
      </trkpt>
      <trkpt lat="43.94296" lon="7.23996">
        <ele>1355.596191</ele>
        <time>2009-05-31T07:34:37Z</time>
      </trkpt>
      <trkpt lat="43.94283" lon="7.23989">
        <ele>1354.154297</ele>
        <time>2009-05-31T07:34:39Z</time>
      </trkpt>
      <trkpt lat="43.94251" lon="7.23978">
        <ele>1357.519043</ele>
        <time>2009-05-31T07:34:44Z</time>
      </trkpt>
      <trkpt lat="43.94226" lon="7.23948">
        <ele>1353.192871</ele>
        <time>2009-05-31T07:34:49Z</time>
      </trkpt>
      <trkpt lat="43.94231" lon="7.23924">
        <ele>1349.347656</ele>
        <time>2009-05-31T07:34:51Z</time>
      </trkpt>
      <trkpt lat="43.94232" lon="7.23882">
        <ele>1342.137939</ele>
        <time>2009-05-31T07:34:55Z</time>
      </trkpt>
      <trkpt lat="43.94234" lon="7.23872">
        <ele>1340.695801</ele>
        <time>2009-05-31T07:34:56Z</time>
      </trkpt>
      <trkpt lat="43.94241" lon="7.23851">
        <ele>1337.331055</ele>
        <time>2009-05-31T07:34:58Z</time>
      </trkpt>
      <trkpt lat="43.94252" lon="7.23791">
        <ele>1330.121338</ele>
        <time>2009-05-31T07:35:03Z</time>
      </trkpt>
      <trkpt lat="43.94259" lon="7.23767">
        <ele>1326.756836</ele>
        <time>2009-05-31T07:35:05Z</time>
      </trkpt>
      <trkpt lat="43.94269" lon="7.23747">
        <ele>1324.353516</ele>
        <time>2009-05-31T07:35:07Z</time>
      </trkpt>
      <trkpt lat="43.94277" lon="7.23716">
        <ele>1319.066162</ele>
        <time>2009-05-31T07:35:11Z</time>
      </trkpt>
      <trkpt lat="43.94262" lon="7.23723">
        <ele>1314.259521</ele>
        <time>2009-05-31T07:35:15Z</time>
      </trkpt>
      <trkpt lat="43.94258" lon="7.23731">
        <ele>1313.29834</ele>
        <time>2009-05-31T07:35:16Z</time>
      </trkpt>
      <trkpt lat="43.9425" lon="7.2375">
        <ele>1311.375732</ele>
        <time>2009-05-31T07:35:18Z</time>
      </trkpt>
      <trkpt lat="43.9423" lon="7.23788">
        <ele>1307.530273</ele>
        <time>2009-05-31T07:35:22Z</time>
      </trkpt>
      <trkpt lat="43.94222" lon="7.23808">
        <ele>1305.607666</ele>
        <time>2009-05-31T07:35:24Z</time>
      </trkpt>
      <trkpt lat="43.94207" lon="7.23847">
        <ele>1302.24292</ele>
        <time>2009-05-31T07:35:28Z</time>
      </trkpt>
      <trkpt lat="43.94177" lon="7.23866">
        <ele>1296.955811</ele>
        <time>2009-05-31T07:35:33Z</time>
      </trkpt>
      <trkpt lat="43.94148" lon="7.23865">
        <ele>1293.591309</ele>
        <time>2009-05-31T07:35:37Z</time>
      </trkpt>
      <trkpt lat="43.94113" lon="7.23852">
        <ele>1291.668457</ele>
        <time>2009-05-31T07:35:41Z</time>
      </trkpt>
      <trkpt lat="43.9409" lon="7.2384">
        <ele>1290.226563</ele>
        <time>2009-05-31T07:35:44Z</time>
      </trkpt>
      <trkpt lat="43.94075" lon="7.23846">
        <ele>1286.381348</ele>
        <time>2009-05-31T07:35:47Z</time>
      </trkpt>
      <trkpt lat="43.94073" lon="7.23861">
        <ele>1283.978027</ele>
        <time>2009-05-31T07:35:49Z</time>
      </trkpt>
      <trkpt lat="43.94075" lon="7.23875">
        <ele>1283.497314</ele>
        <time>2009-05-31T07:35:51Z</time>
      </trkpt>
      <trkpt lat="43.94072" lon="7.2391">
        <ele>1279.171387</ele>
        <time>2009-05-31T07:35:56Z</time>
      </trkpt>
      <trkpt lat="43.9406" lon="7.23923">
        <ele>1275.806641</ele>
        <time>2009-05-31T07:35:59Z</time>
      </trkpt>
      <trkpt lat="43.94051" lon="7.23933">
        <ele>1272.442139</ele>
        <time>2009-05-31T07:36:01Z</time>
      </trkpt>
      <trkpt lat="43.9404" lon="7.23947">
        <ele>1269.077637</ele>
        <time>2009-05-31T07:36:04Z</time>
      </trkpt>
      <trkpt lat="43.94023" lon="7.23952">
        <ele>1266.674316</ele>
        <time>2009-05-31T07:36:08Z</time>
      </trkpt>
      <trkpt lat="43.94011" lon="7.23948">
        <ele>1265.232422</ele>
        <time>2009-05-31T07:36:10Z</time>
      </trkpt>
      <trkpt lat="43.93983" lon="7.23947">
        <ele>1261.86792</ele>
        <time>2009-05-31T07:36:15Z</time>
      </trkpt>
      <trkpt lat="43.93966" lon="7.23958">
        <ele>1261.387207</ele>
        <time>2009-05-31T07:36:19Z</time>
      </trkpt>
      <trkpt lat="43.93958" lon="7.23963">
        <ele>1260.906494</ele>
        <time>2009-05-31T07:36:22Z</time>
      </trkpt>
      <trkpt lat="43.93936" lon="7.23972">
        <ele>1259.464355</ele>
        <time>2009-05-31T07:36:27Z</time>
      </trkpt>
      <trkpt lat="43.93917" lon="7.2398">
        <ele>1259.944824</ele>
        <time>2009-05-31T07:36:30Z</time>
      </trkpt>
      <trkpt lat="43.93893" lon="7.23993">
        <ele>1260.906494</ele>
        <time>2009-05-31T07:36:35Z</time>
      </trkpt>
      <trkpt lat="43.93889" lon="7.23995">
        <ele>1260.906494</ele>
        <time>2009-05-31T07:36:36Z</time>
      </trkpt>
      <trkpt lat="43.93866" lon="7.2399">
        <ele>1261.387207</ele>
        <time>2009-05-31T07:36:41Z</time>
      </trkpt>
      <trkpt lat="43.93856" lon="7.23982">
        <ele>1260.906494</ele>
        <time>2009-05-31T07:36:43Z</time>
      </trkpt>
      <trkpt lat="43.93839" lon="7.23984">
        <ele>1257.541748</ele>
        <time>2009-05-31T07:36:47Z</time>
      </trkpt>
      <trkpt lat="43.93826" lon="7.23987">
        <ele>1257.061035</ele>
        <time>2009-05-31T07:36:50Z</time>
      </trkpt>
      <trkpt lat="43.93821" lon="7.23984">
        <ele>1257.061035</ele>
        <time>2009-05-31T07:36:51Z</time>
      </trkpt>
      <trkpt lat="43.93799" lon="7.23981">
        <ele>1251.293213</ele>
        <time>2009-05-31T07:36:56Z</time>
      </trkpt>
      <trkpt lat="43.93792" lon="7.23995">
        <ele>1247.928711</ele>
        <time>2009-05-31T07:36:58Z</time>
      </trkpt>
      <trkpt lat="43.93788" lon="7.24032">
        <ele>1241.679932</ele>
        <time>2009-05-31T07:37:03Z</time>
      </trkpt>
      <trkpt lat="43.93785" lon="7.2404">
        <ele>1241.199219</ele>
        <time>2009-05-31T07:37:04Z</time>
      </trkpt>
      <trkpt lat="43.93787" lon="7.24063">
        <ele>1239.757324</ele>
        <time>2009-05-31T07:37:08Z</time>
      </trkpt>
      <trkpt lat="43.93796" lon="7.24081">
        <ele>1237.834717</ele>
        <time>2009-05-31T07:37:11Z</time>
      </trkpt>
      <trkpt lat="43.938" lon="7.24126">
        <ele>1234.950928</ele>
        <time>2009-05-31T07:37:17Z</time>
      </trkpt>
      <trkpt lat="43.93795" lon="7.24154">
        <ele>1233.028076</ele>
        <time>2009-05-31T07:37:22Z</time>
      </trkpt>
      <trkpt lat="43.93781" lon="7.2418">
        <ele>1232.066895</ele>
        <time>2009-05-31T07:37:26Z</time>
      </trkpt>
      <trkpt lat="43.93776" lon="7.24203">
        <ele>1230.625</ele>
        <time>2009-05-31T07:37:29Z</time>
      </trkpt>
      <trkpt lat="43.93769" lon="7.24216">
        <ele>1228.702393</ele>
        <time>2009-05-31T07:37:31Z</time>
      </trkpt>
      <trkpt lat="43.93745" lon="7.24238">
        <ele>1226.779541</ele>
        <time>2009-05-31T07:37:36Z</time>
      </trkpt>
      <trkpt lat="43.93739" lon="7.24238">
        <ele>1226.779541</ele>
        <time>2009-05-31T07:37:37Z</time>
      </trkpt>
      <trkpt lat="43.93713" lon="7.24249">
        <ele>1224.856934</ele>
        <time>2009-05-31T07:37:42Z</time>
      </trkpt>
      <trkpt lat="43.93705" lon="7.24262">
        <ele>1223.895508</ele>
        <time>2009-05-31T07:37:44Z</time>
      </trkpt>
      <trkpt lat="43.93686" lon="7.24286">
        <ele>1221.011719</ele>
        <time>2009-05-31T07:37:49Z</time>
      </trkpt>
      <trkpt lat="43.9367" lon="7.24298">
        <ele>1218.608398</ele>
        <time>2009-05-31T07:37:52Z</time>
      </trkpt>
      <trkpt lat="43.93661" lon="7.24321">
        <ele>1216.205078</ele>
        <time>2009-05-31T07:37:55Z</time>
      </trkpt>
      <trkpt lat="43.93647" lon="7.2433">
        <ele>1214.763184</ele>
        <time>2009-05-31T07:37:58Z</time>
      </trkpt>
      <trkpt lat="43.93635" lon="7.24333">
        <ele>1214.763184</ele>
        <time>2009-05-31T07:38:00Z</time>
      </trkpt>
      <trkpt lat="43.93622" lon="7.24338">
        <ele>1213.321289</ele>
        <time>2009-05-31T07:38:03Z</time>
      </trkpt>
      <trkpt lat="43.93597" lon="7.24339">
        <ele>1211.398438</ele>
        <time>2009-05-31T07:38:08Z</time>
      </trkpt>
      <trkpt lat="43.9358" lon="7.24333">
        <ele>1211.87915</ele>
        <time>2009-05-31T07:38:11Z</time>
      </trkpt>
      <trkpt lat="43.93569" lon="7.24349">
        <ele>1210.437012</ele>
        <time>2009-05-31T07:38:14Z</time>
      </trkpt>
      <trkpt lat="43.93557" lon="7.24354">
        <ele>1210.917725</ele>
        <time>2009-05-31T07:38:17Z</time>
      </trkpt>
      <trkpt lat="43.93531" lon="7.24348">
        <ele>1210.917725</ele>
        <time>2009-05-31T07:38:22Z</time>
      </trkpt>
      <trkpt lat="43.93526" lon="7.24348">
        <ele>1210.917725</ele>
        <time>2009-05-31T07:38:23Z</time>
      </trkpt>
      <trkpt lat="43.93515" lon="7.24348">
        <ele>1210.917725</ele>
        <time>2009-05-31T07:38:25Z</time>
      </trkpt>
      <trkpt lat="43.93488" lon="7.24335">
        <ele>1211.87915</ele>
        <time>2009-05-31T07:38:30Z</time>
      </trkpt>
      <trkpt lat="43.93466" lon="7.2432">
        <ele>1212.359863</ele>
        <time>2009-05-31T07:38:34Z</time>
      </trkpt>
      <trkpt lat="43.93444" lon="7.24305">
        <ele>1211.87915</ele>
        <time>2009-05-31T07:38:38Z</time>
      </trkpt>
      <trkpt lat="43.93424" lon="7.24302">
        <ele>1211.398438</ele>
        <time>2009-05-31T07:38:42Z</time>
      </trkpt>
      <trkpt lat="43.93412" lon="7.24315">
        <ele>1210.437012</ele>
        <time>2009-05-31T07:38:45Z</time>
      </trkpt>
      <trkpt lat="43.93407" lon="7.24319">
        <ele>1209.956299</ele>
        <time>2009-05-31T07:38:46Z</time>
      </trkpt>
      <trkpt lat="43.9338" lon="7.24338">
        <ele>1204.669189</ele>
        <time>2009-05-31T07:38:51Z</time>
      </trkpt>
      <trkpt lat="43.93365" lon="7.24353">
        <ele>1202.265869</ele>
        <time>2009-05-31T07:38:54Z</time>
      </trkpt>
      <trkpt lat="43.93349" lon="7.24367">
        <ele>1198.420654</ele>
        <time>2009-05-31T07:38:58Z</time>
      </trkpt>
      <trkpt lat="43.93333" lon="7.24369">
        <ele>1196.97876</ele>
        <time>2009-05-31T07:39:02Z</time>
      </trkpt>
      <trkpt lat="43.93319" lon="7.24374">
        <ele>1193.614014</ele>
        <time>2009-05-31T07:39:06Z</time>
      </trkpt>
      <trkpt lat="43.93299" lon="7.24387">
        <ele>1187.846191</ele>
        <time>2009-05-31T07:39:12Z</time>
      </trkpt>
      <trkpt lat="43.93282" lon="7.24392">
        <ele>1183.520264</ele>
        <time>2009-05-31T07:39:16Z</time>
      </trkpt>
      <trkpt lat="43.93279" lon="7.24394">
        <ele>1182.078369</ele>
        <time>2009-05-31T07:39:17Z</time>
      </trkpt>
      <trkpt lat="43.93267" lon="7.24406">
        <ele>1177.271729</ele>
        <time>2009-05-31T07:39:21Z</time>
      </trkpt>
      <trkpt lat="43.93251" lon="7.24418">
        <ele>1172.465088</ele>
        <time>2009-05-31T07:39:25Z</time>
      </trkpt>
      <trkpt lat="43.93237" lon="7.24435">
        <ele>1166.697266</ele>
        <time>2009-05-31T07:39:30Z</time>
      </trkpt>
      <trkpt lat="43.93217" lon="7.24449">
        <ele>1161.890625</ele>
        <time>2009-05-31T07:39:34Z</time>
      </trkpt>
      <trkpt lat="43.93206" lon="7.24466">
        <ele>1159.487305</ele>
        <time>2009-05-31T07:39:37Z</time>
      </trkpt>
      <trkpt lat="43.93203" lon="7.24473">
        <ele>1158.525879</ele>
        <time>2009-05-31T07:39:38Z</time>
      </trkpt>
      <trkpt lat="43.93193" lon="7.24489">
        <ele>1155.64209</ele>
        <time>2009-05-31T07:39:40Z</time>
      </trkpt>
      <trkpt lat="43.93182" lon="7.24507">
        <ele>1151.796875</ele>
        <time>2009-05-31T07:39:44Z</time>
      </trkpt>
      <trkpt lat="43.93179" lon="7.24511">
        <ele>1150.835449</ele>
        <time>2009-05-31T07:39:45Z</time>
      </trkpt>
      <trkpt lat="43.93168" lon="7.24525">
        <ele>1147.470703</ele>
        <time>2009-05-31T07:39:48Z</time>
      </trkpt>
      <trkpt lat="43.93152" lon="7.24538">
        <ele>1143.625488</ele>
        <time>2009-05-31T07:39:53Z</time>
      </trkpt>
      <trkpt lat="43.93139" lon="7.24538">
        <ele>1139.299561</ele>
        <time>2009-05-31T07:39:57Z</time>
      </trkpt>
      <trkpt lat="43.93129" lon="7.24528">
        <ele>1136.415771</ele>
        <time>2009-05-31T07:40:01Z</time>
      </trkpt>
      <trkpt lat="43.93113" lon="7.2452">
        <ele>1133.051025</ele>
        <time>2009-05-31T07:40:06Z</time>
      </trkpt>
      <trkpt lat="43.93093" lon="7.24524">
        <ele>1129.686279</ele>
        <time>2009-05-31T07:40:10Z</time>
      </trkpt>
      <trkpt lat="43.93087" lon="7.24525">
        <ele>1129.205566</ele>
        <time>2009-05-31T07:40:11Z</time>
      </trkpt>
      <trkpt lat="43.93072" lon="7.24529">
        <ele>1129.205566</ele>
        <time>2009-05-31T07:40:15Z</time>
      </trkpt>
      <trkpt lat="43.93064" lon="7.24526">
        <ele>1129.205566</ele>
        <time>2009-05-31T07:40:18Z</time>
      </trkpt>
      <trkpt lat="43.93058" lon="7.24512">
        <ele>1127.283203</ele>
        <time>2009-05-31T07:40:22Z</time>
      </trkpt>
      <trkpt lat="43.93045" lon="7.24501">
        <ele>1125.360352</ele>
        <time>2009-05-31T07:40:26Z</time>
      </trkpt>
      <trkpt lat="43.93028" lon="7.24494">
        <ele>1121.99585</ele>
        <time>2009-05-31T07:40:30Z</time>
      </trkpt>
      <trkpt lat="43.93016" lon="7.24501">
        <ele>1120.553955</ele>
        <time>2009-05-31T07:40:33Z</time>
      </trkpt>
      <trkpt lat="43.93005" lon="7.24511">
        <ele>1118.150635</ele>
        <time>2009-05-31T07:40:36Z</time>
      </trkpt>
      <trkpt lat="43.92992" lon="7.24513">
        <ele>1115.266602</ele>
        <time>2009-05-31T07:40:40Z</time>
      </trkpt>
      <trkpt lat="43.9298" lon="7.24507">
        <ele>1112.863281</ele>
        <time>2009-05-31T07:40:44Z</time>
      </trkpt>
      <trkpt lat="43.92975" lon="7.24506">
        <ele>1112.382568</ele>
        <time>2009-05-31T07:40:45Z</time>
      </trkpt>
      <trkpt lat="43.92952" lon="7.24497">
        <ele>1108.056885</ele>
        <time>2009-05-31T07:40:51Z</time>
      </trkpt>
      <trkpt lat="43.92949" lon="7.24493">
        <ele>1107.576172</ele>
        <time>2009-05-31T07:40:52Z</time>
      </trkpt>
      <trkpt lat="43.92932" lon="7.24496">
        <ele>1106.134033</ele>
        <time>2009-05-31T07:40:56Z</time>
      </trkpt>
      <trkpt lat="43.92923" lon="7.24504">
        <ele>1104.21167</ele>
        <time>2009-05-31T07:40:59Z</time>
      </trkpt>
      <trkpt lat="43.92916" lon="7.24504">
        <ele>1103.250244</ele>
        <time>2009-05-31T07:41:01Z</time>
      </trkpt>
      <trkpt lat="43.92894" lon="7.24502">
        <ele>1102.288818</ele>
        <time>2009-05-31T07:41:07Z</time>
      </trkpt>
      <trkpt lat="43.92884" lon="7.24518">
        <ele>1101.80835</ele>
        <time>2009-05-31T07:41:11Z</time>
      </trkpt>
      <trkpt lat="43.92868" lon="7.24523">
        <ele>1100.846924</ele>
        <time>2009-05-31T07:41:15Z</time>
      </trkpt>
      <trkpt lat="43.92861" lon="7.24527">
        <ele>1099.885498</ele>
        <time>2009-05-31T07:41:17Z</time>
      </trkpt>
      <trkpt lat="43.92849" lon="7.2454">
        <ele>1097.482178</ele>
        <time>2009-05-31T07:41:21Z</time>
      </trkpt>
      <trkpt lat="43.92839" lon="7.24532">
        <ele>1093.636963</ele>
        <time>2009-05-31T07:41:26Z</time>
      </trkpt>
      <trkpt lat="43.92835" lon="7.24525">
        <ele>1092.195068</ele>
        <time>2009-05-31T07:41:28Z</time>
      </trkpt>
      <trkpt lat="43.92828" lon="7.24519">
        <ele>1090.75293</ele>
        <time>2009-05-31T07:41:30Z</time>
      </trkpt>
      <trkpt lat="43.92809" lon="7.24523">
        <ele>1087.388428</ele>
        <time>2009-05-31T07:41:34Z</time>
      </trkpt>
      <trkpt lat="43.92789" lon="7.24531">
        <ele>1085.946533</ele>
        <time>2009-05-31T07:41:38Z</time>
      </trkpt>
      <trkpt lat="43.92773" lon="7.24535">
        <ele>1083.062256</ele>
        <time>2009-05-31T07:41:42Z</time>
      </trkpt>
      <trkpt lat="43.92768" lon="7.24535">
        <ele>1083.062256</ele>
        <time>2009-05-31T07:41:43Z</time>
      </trkpt>
      <trkpt lat="43.92757" lon="7.24537">
        <ele>1082.101074</ele>
        <time>2009-05-31T07:41:46Z</time>
      </trkpt>
      <trkpt lat="43.92752" lon="7.24543">
        <ele>1079.697754</ele>
        <time>2009-05-31T07:41:50Z</time>
      </trkpt>
      <trkpt lat="43.92751" lon="7.24543">
        <ele>1079.217041</ele>
        <time>2009-05-31T07:41:51Z</time>
      </trkpt>
      <trkpt lat="43.92746" lon="7.24528">
        <ele>1076.813965</ele>
        <time>2009-05-31T07:41:55Z</time>
      </trkpt>
      <trkpt lat="43.9274" lon="7.24515">
        <ele>1074.410645</ele>
        <time>2009-05-31T07:41:58Z</time>
      </trkpt>
      <trkpt lat="43.92731" lon="7.24495">
        <ele>1071.526611</ele>
        <time>2009-05-31T07:42:02Z</time>
      </trkpt>
      <trkpt lat="43.92724" lon="7.24476">
        <ele>1072.488037</ele>
        <time>2009-05-31T07:42:07Z</time>
      </trkpt>
      <trkpt lat="43.92723" lon="7.24471">
        <ele>1073.449463</ele>
        <time>2009-05-31T07:42:11Z</time>
      </trkpt>
      <trkpt lat="43.92717" lon="7.24466">
        <ele>1073.449463</ele>
        <time>2009-05-31T07:42:17Z</time>
      </trkpt>
      <trkpt lat="43.92704" lon="7.24468">
        <ele>1073.449463</ele>
        <time>2009-05-31T07:42:23Z</time>
      </trkpt>
      <trkpt lat="43.92693" lon="7.24468">
        <ele>1075.852539</ele>
        <time>2009-05-31T07:42:30Z</time>
      </trkpt>
      <trkpt lat="43.92688" lon="7.24465">
        <ele>1077.775146</ele>
        <time>2009-05-31T07:42:37Z</time>
      </trkpt>
      <trkpt lat="43.9268" lon="7.24459">
        <ele>1076.813965</ele>
        <time>2009-05-31T07:42:44Z</time>
      </trkpt>
      <trkpt lat="43.9267" lon="7.24444">
        <ele>1075.371826</ele>
        <time>2009-05-31T07:42:49Z</time>
      </trkpt>
      <trkpt lat="43.92661" lon="7.24445">
        <ele>1074.410645</ele>
        <time>2009-05-31T07:42:52Z</time>
      </trkpt>
      <trkpt lat="43.92651" lon="7.24449">
        <ele>1073.449463</ele>
        <time>2009-05-31T07:42:54Z</time>
      </trkpt>
      <trkpt lat="43.92635" lon="7.24455">
        <ele>1072.488037</ele>
        <time>2009-05-31T07:42:57Z</time>
      </trkpt>
      <trkpt lat="43.92614" lon="7.24459">
        <ele>1071.526611</ele>
        <time>2009-05-31T07:43:02Z</time>
      </trkpt>
      <trkpt lat="43.92603" lon="7.24463">
        <ele>1066.719971</ele>
        <time>2009-05-31T07:43:08Z</time>
      </trkpt>
      <trkpt lat="43.92598" lon="7.24456">
        <ele>1064.31665</ele>
        <time>2009-05-31T07:43:11Z</time>
      </trkpt>
      <trkpt lat="43.92591" lon="7.24447">
        <ele>1061.432861</ele>
        <time>2009-05-31T07:43:15Z</time>
      </trkpt>
      <trkpt lat="43.92587" lon="7.2443">
        <ele>1057.587646</ele>
        <time>2009-05-31T07:43:20Z</time>
      </trkpt>
      <trkpt lat="43.92587" lon="7.24424">
        <ele>1056.145508</ele>
        <time>2009-05-31T07:43:22Z</time>
      </trkpt>
      <trkpt lat="43.92579" lon="7.2441">
        <ele>1053.261719</ele>
        <time>2009-05-31T07:43:28Z</time>
      </trkpt>
      <trkpt lat="43.92574" lon="7.24402">
        <ele>1051.338867</ele>
        <time>2009-05-31T07:43:32Z</time>
      </trkpt>
      <trkpt lat="43.9257" lon="7.24402">
        <ele>1049.41626</ele>
        <time>2009-05-31T07:43:35Z</time>
      </trkpt>
      <trkpt lat="43.92552" lon="7.24412">
        <ele>1044.12915</ele>
        <time>2009-05-31T07:43:40Z</time>
      </trkpt>
      <trkpt lat="43.92539" lon="7.24417">
        <ele>1040.283936</ele>
        <time>2009-05-31T07:43:43Z</time>
      </trkpt>
      <trkpt lat="43.92531" lon="7.24421">
        <ele>1038.842041</ele>
        <time>2009-05-31T07:43:45Z</time>
      </trkpt>
      <trkpt lat="43.92529" lon="7.24423">
        <ele>1037.399902</ele>
        <time>2009-05-31T07:43:47Z</time>
      </trkpt>
      <trkpt lat="43.9254" lon="7.24426">
        <ele>1032.593262</ele>
        <time>2009-05-31T07:43:53Z</time>
      </trkpt>
      <trkpt lat="43.92547" lon="7.24436">
        <ele>1030.189941</ele>
        <time>2009-05-31T07:43:57Z</time>
      </trkpt>
      <trkpt lat="43.92538" lon="7.24435">
        <ele>1026.825439</ele>
        <time>2009-05-31T07:44:03Z</time>
      </trkpt>
      <trkpt lat="43.9253" lon="7.24439">
        <ele>1023.941406</ele>
        <time>2009-05-31T07:44:06Z</time>
      </trkpt>
      <trkpt lat="43.92509" lon="7.24452">
        <ele>1018.17334</ele>
        <time>2009-05-31T07:44:12Z</time>
      </trkpt>
      <trkpt lat="43.92493" lon="7.24465">
        <ele>1014.328125</ele>
        <time>2009-05-31T07:44:16Z</time>
      </trkpt>
      <trkpt lat="43.92484" lon="7.24474">
        <ele>1010.963623</ele>
        <time>2009-05-31T07:44:20Z</time>
      </trkpt>
      <trkpt lat="43.92481" lon="7.24477">
        <ele>1010.48291</ele>
        <time>2009-05-31T07:44:21Z</time>
      </trkpt>
      <trkpt lat="43.9248" lon="7.24481">
        <ele>1008.560303</ele>
        <time>2009-05-31T07:44:25Z</time>
      </trkpt>
      <trkpt lat="43.92486" lon="7.24482">
        <ele>1008.079834</ele>
        <time>2009-05-31T07:44:29Z</time>
      </trkpt>
      <trkpt lat="43.92485" lon="7.24483">
        <ele>1008.079834</ele>
        <time>2009-05-31T07:44:30Z</time>
      </trkpt>
      <trkpt lat="43.92476" lon="7.24495">
        <ele>1004.234619</ele>
        <time>2009-05-31T07:44:35Z</time>
      </trkpt>
      <trkpt lat="43.92474" lon="7.24496">
        <ele>1002.792236</ele>
        <time>2009-05-31T07:44:36Z</time>
      </trkpt>
      <trkpt lat="43.92464" lon="7.24499">
        <ele>998.466309</ele>
        <time>2009-05-31T07:44:40Z</time>
      </trkpt>
      <trkpt lat="43.92451" lon="7.24505">
        <ele>993.179199</ele>
        <time>2009-05-31T07:44:45Z</time>
      </trkpt>
      <trkpt lat="43.92449" lon="7.24511">
        <ele>990.775879</ele>
        <time>2009-05-31T07:44:49Z</time>
      </trkpt>
      <trkpt lat="43.9245" lon="7.24512">
        <ele>990.775879</ele>
        <time>2009-05-31T07:44:50Z</time>
      </trkpt>
      <trkpt lat="43.92454" lon="7.24518">
        <ele>987.891846</ele>
        <time>2009-05-31T07:44:56Z</time>
      </trkpt>
      <trkpt lat="43.92447" lon="7.24527">
        <ele>985.488525</ele>
        <time>2009-05-31T07:45:00Z</time>
      </trkpt>
      <trkpt lat="43.92438" lon="7.24543">
        <ele>981.643311</ele>
        <time>2009-05-31T07:45:04Z</time>
      </trkpt>
      <trkpt lat="43.92425" lon="7.24569">
        <ele>973.472412</ele>
        <time>2009-05-31T07:45:11Z</time>
      </trkpt>
      <trkpt lat="43.92414" lon="7.2458">
        <ele>971.549316</ele>
        <time>2009-05-31T07:45:14Z</time>
      </trkpt>
      <trkpt lat="43.92403" lon="7.24573">
        <ele>971.068848</ele>
        <time>2009-05-31T07:45:18Z</time>
      </trkpt>
      <trkpt lat="43.92394" lon="7.24565">
        <ele>970.588135</ele>
        <time>2009-05-31T07:45:23Z</time>
      </trkpt>
      <trkpt lat="43.92385" lon="7.24565">
        <ele>971.549316</ele>
        <time>2009-05-31T07:45:28Z</time>
      </trkpt>
      <trkpt lat="43.92382" lon="7.24566">
        <ele>972.030273</ele>
        <time>2009-05-31T07:45:30Z</time>
      </trkpt>
      <trkpt lat="43.92373" lon="7.24555">
        <ele>972.030273</ele>
        <time>2009-05-31T07:45:36Z</time>
      </trkpt>
      <trkpt lat="43.9237" lon="7.24549">
        <ele>971.068848</ele>
        <time>2009-05-31T07:45:38Z</time>
      </trkpt>
      <trkpt lat="43.9236" lon="7.24529">
        <ele>967.223633</ele>
        <time>2009-05-31T07:45:44Z</time>
      </trkpt>
      <trkpt lat="43.92352" lon="7.24517">
        <ele>964.3396</ele>
        <time>2009-05-31T07:45:48Z</time>
      </trkpt>
      <trkpt lat="43.9235" lon="7.24515">
        <ele>963.378418</ele>
        <time>2009-05-31T07:45:49Z</time>
      </trkpt>
      <trkpt lat="43.92348" lon="7.24506">
        <ele>960.975098</ele>
        <time>2009-05-31T07:45:55Z</time>
      </trkpt>
      <trkpt lat="43.92346" lon="7.24509">
        <ele>960.013672</ele>
        <time>2009-05-31T07:46:00Z</time>
      </trkpt>
      <trkpt lat="43.92345" lon="7.24507">
        <ele>959.533203</ele>
        <time>2009-05-31T07:46:04Z</time>
      </trkpt>
      <trkpt lat="43.9234" lon="7.24493">
        <ele>957.129883</ele>
        <time>2009-05-31T07:46:09Z</time>
      </trkpt>
      <trkpt lat="43.92334" lon="7.24491">
        <ele>955.207031</ele>
        <time>2009-05-31T07:46:13Z</time>
      </trkpt>
      <trkpt lat="43.92334" lon="7.24494">
        <ele>953.284424</ele>
        <time>2009-05-31T07:46:16Z</time>
      </trkpt>
      <trkpt lat="43.9233" lon="7.24491">
        <ele>951.842529</ele>
        <time>2009-05-31T07:46:20Z</time>
      </trkpt>
      <trkpt lat="43.92321" lon="7.24474">
        <ele>947.997314</ele>
        <time>2009-05-31T07:46:26Z</time>
      </trkpt>
      <trkpt lat="43.92319" lon="7.24472">
        <ele>947.516602</ele>
        <time>2009-05-31T07:46:27Z</time>
      </trkpt>
      <trkpt lat="43.92315" lon="7.24462">
        <ele>943.190674</ele>
        <time>2009-05-31T07:46:32Z</time>
      </trkpt>
      <trkpt lat="43.9231" lon="7.24449">
        <ele>940.306885</ele>
        <time>2009-05-31T07:46:36Z</time>
      </trkpt>
      <trkpt lat="43.92309" lon="7.24438">
        <ele>935.980713</ele>
        <time>2009-05-31T07:46:40Z</time>
      </trkpt>
      <trkpt lat="43.92311" lon="7.24428">
        <ele>934.058105</ele>
        <time>2009-05-31T07:46:42Z</time>
      </trkpt>
      <trkpt lat="43.92316" lon="7.24407">
        <ele>932.616211</ele>
        <time>2009-05-31T07:46:48Z</time>
      </trkpt>
      <trkpt lat="43.92313" lon="7.24401">
        <ele>932.135498</ele>
        <time>2009-05-31T07:46:53Z</time>
      </trkpt>
      <trkpt lat="43.92308" lon="7.24395">
        <ele>931.654785</ele>
        <time>2009-05-31T07:46:58Z</time>
      </trkpt>
      <trkpt lat="43.92301" lon="7.2439">
        <ele>931.174316</ele>
        <time>2009-05-31T07:47:03Z</time>
      </trkpt>
      <trkpt lat="43.9229" lon="7.24395">
        <ele>929.732178</ele>
        <time>2009-05-31T07:47:11Z</time>
      </trkpt>
      <trkpt lat="43.92282" lon="7.24398">
        <ele>930.212891</ele>
        <time>2009-05-31T07:47:17Z</time>
      </trkpt>
      <trkpt lat="43.92276" lon="7.24398">
        <ele>930.212891</ele>
        <time>2009-05-31T07:47:21Z</time>
      </trkpt>
      <trkpt lat="43.92267" lon="7.24392">
        <ele>930.212891</ele>
        <time>2009-05-31T07:47:25Z</time>
      </trkpt>
      <trkpt lat="43.92262" lon="7.2439">
        <ele>926.367676</ele>
        <time>2009-05-31T07:47:28Z</time>
      </trkpt>
      <trkpt lat="43.92265" lon="7.24391">
        <ele>922.522217</ele>
        <time>2009-05-31T07:47:31Z</time>
      </trkpt>
      <trkpt lat="43.92253" lon="7.24388">
        <ele>920.118896</ele>
        <time>2009-05-31T07:47:36Z</time>
      </trkpt>
      <trkpt lat="43.9225" lon="7.24378">
        <ele>917.715576</ele>
        <time>2009-05-31T07:47:38Z</time>
      </trkpt>
      <trkpt lat="43.92239" lon="7.24367">
        <ele>915.793213</ele>
        <time>2009-05-31T07:47:43Z</time>
      </trkpt>
      <trkpt lat="43.92223" lon="7.24376">
        <ele>915.793213</ele>
        <time>2009-05-31T07:47:47Z</time>
      </trkpt>
      <trkpt lat="43.92218" lon="7.24378">
        <ele>914.831787</ele>
        <time>2009-05-31T07:47:48Z</time>
      </trkpt>
      <trkpt lat="43.92207" lon="7.24363">
        <ele>907.621826</ele>
        <time>2009-05-31T07:47:52Z</time>
      </trkpt>
      <trkpt lat="43.92206" lon="7.2436">
        <ele>907.141113</ele>
        <time>2009-05-31T07:47:53Z</time>
      </trkpt>
      <trkpt lat="43.92194" lon="7.24342">
        <ele>906.6604</ele>
        <time>2009-05-31T07:47:59Z</time>
      </trkpt>
      <trkpt lat="43.92193" lon="7.24341">
        <ele>906.6604</ele>
        <time>2009-05-31T07:48:00Z</time>
      </trkpt>
      <trkpt lat="43.92188" lon="7.24334">
        <ele>906.179688</ele>
        <time>2009-05-31T07:48:06Z</time>
      </trkpt>
      <trkpt lat="43.92172" lon="7.24331">
        <ele>906.6604</ele>
        <time>2009-05-31T07:48:11Z</time>
      </trkpt>
      <trkpt lat="43.92161" lon="7.24335">
        <ele>902.815186</ele>
        <time>2009-05-31T07:48:16Z</time>
      </trkpt>
      <trkpt lat="43.9216" lon="7.24337">
        <ele>901.373291</ele>
        <time>2009-05-31T07:48:17Z</time>
      </trkpt>
      <trkpt lat="43.92144" lon="7.24357">
        <ele>897.528076</ele>
        <time>2009-05-31T07:48:23Z</time>
      </trkpt>
      <trkpt lat="43.92136" lon="7.24368">
        <ele>891.279297</ele>
        <time>2009-05-31T07:48:27Z</time>
      </trkpt>
      <trkpt lat="43.92134" lon="7.24372">
        <ele>890.318115</ele>
        <time>2009-05-31T07:48:28Z</time>
      </trkpt>
      <trkpt lat="43.92119" lon="7.24376">
        <ele>883.588867</ele>
        <time>2009-05-31T07:48:33Z</time>
      </trkpt>
      <trkpt lat="43.92113" lon="7.24374">
        <ele>880.705078</ele>
        <time>2009-05-31T07:48:35Z</time>
      </trkpt>
      <trkpt lat="43.92108" lon="7.24371">
        <ele>878.301758</ele>
        <time>2009-05-31T07:48:37Z</time>
      </trkpt>
      <trkpt lat="43.92102" lon="7.24377">
        <ele>873.495117</ele>
        <time>2009-05-31T07:48:42Z</time>
      </trkpt>
      <trkpt lat="43.92097" lon="7.24375">
        <ele>871.091797</ele>
        <time>2009-05-31T07:48:45Z</time>
      </trkpt>
      <trkpt lat="43.92085" lon="7.24373">
        <ele>867.246582</ele>
        <time>2009-05-31T07:48:49Z</time>
      </trkpt>
      <trkpt lat="43.92081" lon="7.24371">
        <ele>866.285156</ele>
        <time>2009-05-31T07:48:50Z</time>
      </trkpt>
      <trkpt lat="43.92073" lon="7.24365">
        <ele>863.401367</ele>
        <time>2009-05-31T07:48:53Z</time>
      </trkpt>
      <trkpt lat="43.92067" lon="7.2437">
        <ele>860.517334</ele>
        <time>2009-05-31T07:48:57Z</time>
      </trkpt>
      <trkpt lat="43.92064" lon="7.24367">
        <ele>859.075195</ele>
        <time>2009-05-31T07:49:00Z</time>
      </trkpt>
      <trkpt lat="43.92056" lon="7.24354">
        <ele>855.710693</ele>
        <time>2009-05-31T07:49:04Z</time>
      </trkpt>
      <trkpt lat="43.92053" lon="7.2434">
        <ele>852.82666</ele>
        <time>2009-05-31T07:49:10Z</time>
      </trkpt>
      <trkpt lat="43.92051" lon="7.24324">
        <ele>853.307373</ele>
        <time>2009-05-31T07:49:17Z</time>
      </trkpt>
      <trkpt lat="43.92047" lon="7.24316">
        <ele>854.268799</ele>
        <time>2009-05-31T07:49:23Z</time>
      </trkpt>
      <trkpt lat="43.9204" lon="7.24305">
        <ele>854.749268</ele>
        <time>2009-05-31T07:49:30Z</time>
      </trkpt>
      <trkpt lat="43.92039" lon="7.24303">
        <ele>855.22998</ele>
        <time>2009-05-31T07:49:31Z</time>
      </trkpt>
      <trkpt lat="43.92032" lon="7.24288">
        <ele>857.152588</ele>
        <time>2009-05-31T07:49:40Z</time>
      </trkpt>
      <trkpt lat="43.9203" lon="7.24285">
        <ele>857.152588</ele>
        <time>2009-05-31T07:49:44Z</time>
      </trkpt>
      <trkpt lat="43.9202" lon="7.24277">
        <ele>860.517334</ele>
        <time>2009-05-31T07:49:53Z</time>
      </trkpt>
      <trkpt lat="43.9201" lon="7.24272">
        <ele>861.959473</ele>
        <time>2009-05-31T07:50:00Z</time>
      </trkpt>
      <trkpt lat="43.92001" lon="7.24268">
        <ele>863.401367</ele>
        <time>2009-05-31T07:50:08Z</time>
      </trkpt>
      <trkpt lat="43.91992" lon="7.2426">
        <ele>864.843262</ele>
        <time>2009-05-31T07:50:16Z</time>
      </trkpt>
      <trkpt lat="43.91985" lon="7.24254">
        <ele>866.285156</ele>
        <time>2009-05-31T07:50:24Z</time>
      </trkpt>
      <trkpt lat="43.91976" lon="7.24243">
        <ele>867.727051</ele>
        <time>2009-05-31T07:50:34Z</time>
      </trkpt>
      <trkpt lat="43.91973" lon="7.24235">
        <ele>869.169189</ele>
        <time>2009-05-31T07:50:40Z</time>
      </trkpt>
      <trkpt lat="43.91969" lon="7.2423">
        <ele>870.611084</ele>
        <time>2009-05-31T07:50:45Z</time>
      </trkpt>
      <trkpt lat="43.91972" lon="7.24228">
        <ele>871.091797</ele>
        <time>2009-05-31T07:50:50Z</time>
      </trkpt>
      <trkpt lat="43.91973" lon="7.24228">
        <ele>871.091797</ele>
        <time>2009-05-31T07:50:51Z</time>
      </trkpt>
      <trkpt lat="43.91983" lon="7.24234">
        <ele>870.130371</ele>
        <time>2009-05-31T07:51:01Z</time>
      </trkpt>
      <trkpt lat="43.91991" lon="7.24237">
        <ele>871.091797</ele>
        <time>2009-05-31T07:51:08Z</time>
      </trkpt>
      <trkpt lat="43.91992" lon="7.24237">
        <ele>871.572266</ele>
        <time>2009-05-31T07:51:09Z</time>
      </trkpt>
      <trkpt lat="43.91999" lon="7.24233">
        <ele>872.533691</ele>
        <time>2009-05-31T07:51:16Z</time>
      </trkpt>
      <trkpt lat="43.92005" lon="7.24221">
        <ele>872.052979</ele>
        <time>2009-05-31T07:51:25Z</time>
      </trkpt>
      <trkpt lat="43.92013" lon="7.24212">
        <ele>872.533691</ele>
        <time>2009-05-31T07:51:33Z</time>
      </trkpt>
      <trkpt lat="43.92024" lon="7.24211">
        <ele>871.572266</ele>
        <time>2009-05-31T07:51:39Z</time>
      </trkpt>
      <trkpt lat="43.92042" lon="7.24209">
        <ele>871.572266</ele>
        <time>2009-05-31T07:51:46Z</time>
      </trkpt>
      <trkpt lat="43.92062" lon="7.24201">
        <ele>871.091797</ele>
        <time>2009-05-31T07:51:53Z</time>
      </trkpt>
      <trkpt lat="43.9207" lon="7.24183">
        <ele>872.052979</ele>
        <time>2009-05-31T07:51:59Z</time>
      </trkpt>
      <trkpt lat="43.92073" lon="7.24154">
        <ele>872.052979</ele>
        <time>2009-05-31T07:52:05Z</time>
      </trkpt>
      <trkpt lat="43.92074" lon="7.24132">
        <ele>873.014404</ele>
        <time>2009-05-31T07:52:10Z</time>
      </trkpt>
      <trkpt lat="43.92076" lon="7.24112">
        <ele>875.41748</ele>
        <time>2009-05-31T07:52:16Z</time>
      </trkpt>
      <trkpt lat="43.92085" lon="7.24099">
        <ele>876.859863</ele>
        <time>2009-05-31T07:52:21Z</time>
      </trkpt>
      <trkpt lat="43.92097" lon="7.24089">
        <ele>878.782471</ele>
        <time>2009-05-31T07:52:27Z</time>
      </trkpt>
      <trkpt lat="43.92112" lon="7.24081">
        <ele>878.782471</ele>
        <time>2009-05-31T07:52:32Z</time>
      </trkpt>
      <trkpt lat="43.92123" lon="7.24067">
        <ele>879.262939</ele>
        <time>2009-05-31T07:52:36Z</time>
      </trkpt>
      <trkpt lat="43.92131" lon="7.24045">
        <ele>880.705078</ele>
        <time>2009-05-31T07:52:41Z</time>
      </trkpt>
      <trkpt lat="43.92138" lon="7.24021">
        <ele>883.108154</ele>
        <time>2009-05-31T07:52:47Z</time>
      </trkpt>
      <trkpt lat="43.92136" lon="7.23995">
        <ele>883.108154</ele>
        <time>2009-05-31T07:52:52Z</time>
      </trkpt>
      <trkpt lat="43.92138" lon="7.23972">
        <ele>882.627686</ele>
        <time>2009-05-31T07:52:55Z</time>
      </trkpt>
      <trkpt lat="43.92139" lon="7.2395">
        <ele>881.66626</ele>
        <time>2009-05-31T07:52:58Z</time>
      </trkpt>
      <trkpt lat="43.92138" lon="7.23924">
        <ele>882.146973</ele>
        <time>2009-05-31T07:53:03Z</time>
      </trkpt>
      <trkpt lat="43.9213" lon="7.239">
        <ele>882.627686</ele>
        <time>2009-05-31T07:53:09Z</time>
      </trkpt>
      <trkpt lat="43.92123" lon="7.23888">
        <ele>882.627686</ele>
        <time>2009-05-31T07:53:14Z</time>
      </trkpt>
      <trkpt lat="43.92111" lon="7.23887">
        <ele>884.550293</ele>
        <time>2009-05-31T07:53:20Z</time>
      </trkpt>
      <trkpt lat="43.9211" lon="7.23887">
        <ele>885.511475</ele>
        <time>2009-05-31T07:53:21Z</time>
      </trkpt>
      <trkpt lat="43.92095" lon="7.23898">
        <ele>891.76001</ele>
        <time>2009-05-31T07:53:30Z</time>
      </trkpt>
      <trkpt lat="43.92079" lon="7.23901">
        <ele>895.605469</ele>
        <time>2009-05-31T07:53:38Z</time>
      </trkpt>
      <trkpt lat="43.92069" lon="7.23898">
        <ele>897.528076</ele>
        <time>2009-05-31T07:53:44Z</time>
      </trkpt>
      <trkpt lat="43.92057" lon="7.23895">
        <ele>900.412109</ele>
        <time>2009-05-31T07:53:53Z</time>
      </trkpt>
      <trkpt lat="43.92051" lon="7.23885">
        <ele>899.931396</ele>
        <time>2009-05-31T07:54:00Z</time>
      </trkpt>
      <trkpt lat="43.92051" lon="7.23883">
        <ele>899.931396</ele>
        <time>2009-05-31T07:54:01Z</time>
      </trkpt>
      <trkpt lat="43.92046" lon="7.2387">
        <ele>899.931396</ele>
        <time>2009-05-31T07:54:09Z</time>
      </trkpt>
      <trkpt lat="43.9204" lon="7.23854">
        <ele>899.450684</ele>
        <time>2009-05-31T07:54:17Z</time>
      </trkpt>
      <trkpt lat="43.92032" lon="7.23848">
        <ele>900.412109</ele>
        <time>2009-05-31T07:54:23Z</time>
      </trkpt>
      <trkpt lat="43.92027" lon="7.23839">
        <ele>899.931396</ele>
        <time>2009-05-31T07:54:30Z</time>
      </trkpt>
      <trkpt lat="43.92028" lon="7.23825">
        <ele>898.489258</ele>
        <time>2009-05-31T07:54:38Z</time>
      </trkpt>
      <trkpt lat="43.92028" lon="7.23823">
        <ele>898.489258</ele>
        <time>2009-05-31T07:54:39Z</time>
      </trkpt>
      <trkpt lat="43.92033" lon="7.23814">
        <ele>898.008789</ele>
        <time>2009-05-31T07:54:44Z</time>
      </trkpt>
      <trkpt lat="43.92044" lon="7.23793">
        <ele>897.047363</ele>
        <time>2009-05-31T07:54:49Z</time>
      </trkpt>
      <trkpt lat="43.92044" lon="7.2377">
        <ele>896.566895</ele>
        <time>2009-05-31T07:54:53Z</time>
      </trkpt>
      <trkpt lat="43.92039" lon="7.23748">
        <ele>896.566895</ele>
        <time>2009-05-31T07:54:58Z</time>
      </trkpt>
      <trkpt lat="43.92035" lon="7.23722">
        <ele>896.566895</ele>
        <time>2009-05-31T07:55:04Z</time>
      </trkpt>
      <trkpt lat="43.92037" lon="7.23697">
        <ele>898.008789</ele>
        <time>2009-05-31T07:55:10Z</time>
      </trkpt>
      <trkpt lat="43.92041" lon="7.23674">
        <ele>898.008789</ele>
        <time>2009-05-31T07:55:15Z</time>
      </trkpt>
      <trkpt lat="43.92047" lon="7.23646">
        <ele>898.008789</ele>
        <time>2009-05-31T07:55:21Z</time>
      </trkpt>
      <trkpt lat="43.9205" lon="7.23614">
        <ele>898.008789</ele>
        <time>2009-05-31T07:55:28Z</time>
      </trkpt>
      <trkpt lat="43.92049" lon="7.23611">
        <ele>898.008789</ele>
        <time>2009-05-31T07:55:29Z</time>
      </trkpt>
      <trkpt lat="43.92043" lon="7.23592">
        <ele>900.412109</ele>
        <time>2009-05-31T07:55:34Z</time>
      </trkpt>
      <trkpt lat="43.92042" lon="7.23562">
        <ele>900.412109</ele>
        <time>2009-05-31T07:55:41Z</time>
      </trkpt>
      <trkpt lat="43.92041" lon="7.23537">
        <ele>900.892578</ele>
        <time>2009-05-31T07:55:47Z</time>
      </trkpt>
      <trkpt lat="43.9204" lon="7.23516">
        <ele>902.815186</ele>
        <time>2009-05-31T07:55:54Z</time>
      </trkpt>
      <trkpt lat="43.92036" lon="7.23498">
        <ele>905.218506</ele>
        <time>2009-05-31T07:56:00Z</time>
      </trkpt>
      <trkpt lat="43.92028" lon="7.23479">
        <ele>910.505859</ele>
        <time>2009-05-31T07:56:09Z</time>
      </trkpt>
      <trkpt lat="43.92023" lon="7.23465">
        <ele>912.90918</ele>
        <time>2009-05-31T07:56:16Z</time>
      </trkpt>
      <trkpt lat="43.92019" lon="7.23453">
        <ele>916.273682</ele>
        <time>2009-05-31T07:56:24Z</time>
      </trkpt>
      <trkpt lat="43.92017" lon="7.23442">
        <ele>919.157715</ele>
        <time>2009-05-31T07:56:30Z</time>
      </trkpt>
      <trkpt lat="43.92019" lon="7.23428">
        <ele>921.080322</ele>
        <time>2009-05-31T07:56:37Z</time>
      </trkpt>
      <trkpt lat="43.9202" lon="7.23425">
        <ele>921.080322</ele>
        <time>2009-05-31T07:56:38Z</time>
      </trkpt>
      <trkpt lat="43.92028" lon="7.23415">
        <ele>921.560791</ele>
        <time>2009-05-31T07:56:44Z</time>
      </trkpt>
      <trkpt lat="43.92033" lon="7.2341">
        <ele>923.00293</ele>
        <time>2009-05-31T07:56:49Z</time>
      </trkpt>
      <trkpt lat="43.92036" lon="7.23409">
        <ele>922.041504</ele>
        <time>2009-05-31T07:56:52Z</time>
      </trkpt>
      <trkpt lat="43.92043" lon="7.23404">
        <ele>918.677002</ele>
        <time>2009-05-31T07:56:59Z</time>
      </trkpt>
      <trkpt lat="43.92044" lon="7.23403">
        <ele>919.157715</ele>
        <time>2009-05-31T07:57:00Z</time>
      </trkpt>
      <trkpt lat="43.9205" lon="7.23402">
        <ele>916.754395</ele>
        <time>2009-05-31T07:57:05Z</time>
      </trkpt>
      <trkpt lat="43.92059" lon="7.23402">
        <ele>914.831787</ele>
        <time>2009-05-31T07:57:10Z</time>
      </trkpt>
      <trkpt lat="43.92073" lon="7.23395">
        <ele>914.831787</ele>
        <time>2009-05-31T07:57:15Z</time>
      </trkpt>
      <trkpt lat="43.92075" lon="7.23393">
        <ele>913.870361</ele>
        <time>2009-05-31T07:57:16Z</time>
      </trkpt>
      <trkpt lat="43.9208" lon="7.23387">
        <ele>914.351074</ele>
        <time>2009-05-31T07:57:23Z</time>
      </trkpt>
      <trkpt lat="43.92087" lon="7.2338">
        <ele>914.831787</ele>
        <time>2009-05-31T07:57:30Z</time>
      </trkpt>
      <trkpt lat="43.92091" lon="7.23377">
        <ele>917.715576</ele>
        <time>2009-05-31T07:57:35Z</time>
      </trkpt>
      <trkpt lat="43.92097" lon="7.23375">
        <ele>920.599609</ele>
        <time>2009-05-31T07:57:41Z</time>
      </trkpt>
      <trkpt lat="43.92103" lon="7.23373">
        <ele>920.599609</ele>
        <time>2009-05-31T07:57:45Z</time>
      </trkpt>
      <trkpt lat="43.92104" lon="7.23361">
        <ele>920.599609</ele>
        <time>2009-05-31T07:57:52Z</time>
      </trkpt>
      <trkpt lat="43.92101" lon="7.23354">
        <ele>920.118896</ele>
        <time>2009-05-31T07:57:54Z</time>
      </trkpt>
      <trkpt lat="43.92085" lon="7.2332">
        <ele>918.196289</ele>
        <time>2009-05-31T07:58:01Z</time>
      </trkpt>
      <trkpt lat="43.92099" lon="7.23284">
        <ele>916.754395</ele>
        <time>2009-05-31T07:58:05Z</time>
      </trkpt>
      <trkpt lat="43.92112" lon="7.23258">
        <ele>917.235107</ele>
        <time>2009-05-31T07:58:08Z</time>
      </trkpt>
      <trkpt lat="43.92128" lon="7.23245">
        <ele>918.196289</ele>
        <time>2009-05-31T07:58:11Z</time>
      </trkpt>
      <trkpt lat="43.92132" lon="7.23239">
        <ele>918.196289</ele>
        <time>2009-05-31T07:58:13Z</time>
      </trkpt>
      <trkpt lat="43.92136" lon="7.23226">
        <ele>920.118896</ele>
        <time>2009-05-31T07:58:18Z</time>
      </trkpt>
      <trkpt lat="43.92146" lon="7.23211">
        <ele>919.638428</ele>
        <time>2009-05-31T07:58:25Z</time>
      </trkpt>
      <trkpt lat="43.92163" lon="7.23199">
        <ele>920.599609</ele>
        <time>2009-05-31T07:58:30Z</time>
      </trkpt>
      <trkpt lat="43.9217" lon="7.23189">
        <ele>923.00293</ele>
        <time>2009-05-31T07:58:35Z</time>
      </trkpt>
      <trkpt lat="43.92175" lon="7.23175">
        <ele>923.00293</ele>
        <time>2009-05-31T07:58:42Z</time>
      </trkpt>
      <trkpt lat="43.92182" lon="7.23167">
        <ele>922.041504</ele>
        <time>2009-05-31T07:58:47Z</time>
      </trkpt>
      <trkpt lat="43.92192" lon="7.23155">
        <ele>924.445068</ele>
        <time>2009-05-31T07:58:55Z</time>
      </trkpt>
      <trkpt lat="43.92197" lon="7.23145">
        <ele>928.290283</ele>
        <time>2009-05-31T07:59:01Z</time>
      </trkpt>
      <trkpt lat="43.92204" lon="7.23126">
        <ele>928.290283</ele>
        <time>2009-05-31T07:59:08Z</time>
      </trkpt>
      <trkpt lat="43.9221" lon="7.23113">
        <ele>930.693604</ele>
        <time>2009-05-31T07:59:15Z</time>
      </trkpt>
      <trkpt lat="43.92218" lon="7.23106">
        <ele>930.693604</ele>
        <time>2009-05-31T07:59:22Z</time>
      </trkpt>
      <trkpt lat="43.92232" lon="7.23094">
        <ele>927.329102</ele>
        <time>2009-05-31T07:59:30Z</time>
      </trkpt>
      <trkpt lat="43.9224" lon="7.23084">
        <ele>925.40625</ele>
        <time>2009-05-31T07:59:34Z</time>
      </trkpt>
      <trkpt lat="43.92244" lon="7.23074">
        <ele>925.40625</ele>
        <time>2009-05-31T07:59:37Z</time>
      </trkpt>
      <trkpt lat="43.92245" lon="7.23072">
        <ele>928.290283</ele>
        <time>2009-05-31T07:59:41Z</time>
      </trkpt>
      <trkpt lat="43.92246" lon="7.23062">
        <ele>934.058105</ele>
        <time>2009-05-31T07:59:50Z</time>
      </trkpt>
      <trkpt lat="43.92249" lon="7.23056">
        <ele>935.5</ele>
        <time>2009-05-31T07:59:56Z</time>
      </trkpt>
      <trkpt lat="43.92251" lon="7.23054">
        <ele>935.019531</ele>
        <time>2009-05-31T07:59:57Z</time>
      </trkpt>
      <trkpt lat="43.92258" lon="7.23035">
        <ele>936.941895</ele>
        <time>2009-05-31T08:00:05Z</time>
      </trkpt>
      <trkpt lat="43.92258" lon="7.23025">
        <ele>937.422607</ele>
        <time>2009-05-31T08:00:10Z</time>
      </trkpt>
      <trkpt lat="43.92257" lon="7.2301">
        <ele>935.5</ele>
        <time>2009-05-31T08:00:16Z</time>
      </trkpt>
      <trkpt lat="43.92257" lon="7.23002">
        <ele>934.058105</ele>
        <time>2009-05-31T08:00:18Z</time>
      </trkpt>
      <trkpt lat="43.92266" lon="7.22975">
        <ele>929.732178</ele>
        <time>2009-05-31T08:00:22Z</time>
      </trkpt>
      <trkpt lat="43.92276" lon="7.2296">
        <ele>927.329102</ele>
        <time>2009-05-31T08:00:25Z</time>
      </trkpt>
      <trkpt lat="43.9228" lon="7.22952">
        <ele>928.770996</ele>
        <time>2009-05-31T08:00:27Z</time>
      </trkpt>
      <trkpt lat="43.92289" lon="7.22941">
        <ele>930.693604</ele>
        <time>2009-05-31T08:00:31Z</time>
      </trkpt>
      <trkpt lat="43.92293" lon="7.22935">
        <ele>931.174316</ele>
        <time>2009-05-31T08:00:33Z</time>
      </trkpt>
      <trkpt lat="43.92295" lon="7.22926">
        <ele>934.058105</ele>
        <time>2009-05-31T08:00:38Z</time>
      </trkpt>
      <trkpt lat="43.92298" lon="7.22918">
        <ele>936.941895</ele>
        <time>2009-05-31T08:00:44Z</time>
      </trkpt>
      <trkpt lat="43.923" lon="7.2291">
        <ele>936.941895</ele>
        <time>2009-05-31T08:00:49Z</time>
      </trkpt>
      <trkpt lat="43.92303" lon="7.22897">
        <ele>939.345215</ele>
        <time>2009-05-31T08:00:58Z</time>
      </trkpt>
      <trkpt lat="43.92304" lon="7.22894">
        <ele>940.306885</ele>
        <time>2009-05-31T08:01:01Z</time>
      </trkpt>
      <trkpt lat="43.92308" lon="7.22887">
        <ele>940.787354</ele>
        <time>2009-05-31T08:01:07Z</time>
      </trkpt>
      <trkpt lat="43.9231" lon="7.22883">
        <ele>942.229492</ele>
        <time>2009-05-31T08:01:09Z</time>
      </trkpt>
      <trkpt lat="43.92311" lon="7.2287">
        <ele>941.268066</ele>
        <time>2009-05-31T08:01:16Z</time>
      </trkpt>
      <trkpt lat="43.92311" lon="7.22868">
        <ele>941.748779</ele>
        <time>2009-05-31T08:01:17Z</time>
      </trkpt>
      <trkpt lat="43.9231" lon="7.22857">
        <ele>939.825928</ele>
        <time>2009-05-31T08:01:24Z</time>
      </trkpt>
      <trkpt lat="43.92316" lon="7.22854">
        <ele>937.90332</ele>
        <time>2009-05-31T08:01:29Z</time>
      </trkpt>
      <trkpt lat="43.92327" lon="7.22848">
        <ele>937.90332</ele>
        <time>2009-05-31T08:01:34Z</time>
      </trkpt>
      <trkpt lat="43.92332" lon="7.22842">
        <ele>940.787354</ele>
        <time>2009-05-31T08:01:37Z</time>
      </trkpt>
      <trkpt lat="43.92346" lon="7.22839">
        <ele>943.671387</ele>
        <time>2009-05-31T08:01:44Z</time>
      </trkpt>
      <trkpt lat="43.92361" lon="7.22843">
        <ele>948.958496</ele>
        <time>2009-05-31T08:01:48Z</time>
      </trkpt>
      <trkpt lat="43.92378" lon="7.22837">
        <ele>947.997314</ele>
        <time>2009-05-31T08:01:54Z</time>
      </trkpt>
      <trkpt lat="43.9239" lon="7.2283">
        <ele>949.919922</ele>
        <time>2009-05-31T08:01:59Z</time>
      </trkpt>
      <trkpt lat="43.92405" lon="7.2284">
        <ele>954.24585</ele>
        <time>2009-05-31T08:02:05Z</time>
      </trkpt>
      <trkpt lat="43.92425" lon="7.22852">
        <ele>953.284424</ele>
        <time>2009-05-31T08:02:10Z</time>
      </trkpt>
      <trkpt lat="43.92442" lon="7.22851">
        <ele>952.322998</ele>
        <time>2009-05-31T08:02:14Z</time>
      </trkpt>
      <trkpt lat="43.92456" lon="7.22847">
        <ele>951.361816</ele>
        <time>2009-05-31T08:02:18Z</time>
      </trkpt>
      <trkpt lat="43.92472" lon="7.22838">
        <ele>951.361816</ele>
        <time>2009-05-31T08:02:25Z</time>
      </trkpt>
      <trkpt lat="43.92488" lon="7.22817">
        <ele>951.842529</ele>
        <time>2009-05-31T08:02:32Z</time>
      </trkpt>
      <trkpt lat="43.92503" lon="7.22804">
        <ele>952.322998</ele>
        <time>2009-05-31T08:02:38Z</time>
      </trkpt>
      <trkpt lat="43.92514" lon="7.22801">
        <ele>953.284424</ele>
        <time>2009-05-31T08:02:42Z</time>
      </trkpt>
      <trkpt lat="43.92532" lon="7.22789">
        <ele>953.765137</ele>
        <time>2009-05-31T08:02:49Z</time>
      </trkpt>
      <trkpt lat="43.92536" lon="7.22784">
        <ele>954.726318</ele>
        <time>2009-05-31T08:02:51Z</time>
      </trkpt>
      <trkpt lat="43.92545" lon="7.22764">
        <ele>954.726318</ele>
        <time>2009-05-31T08:02:58Z</time>
      </trkpt>
      <trkpt lat="43.92546" lon="7.22747">
        <ele>953.765137</ele>
        <time>2009-05-31T08:03:04Z</time>
      </trkpt>
      <trkpt lat="43.92543" lon="7.2273">
        <ele>953.765137</ele>
        <time>2009-05-31T08:03:09Z</time>
      </trkpt>
      <trkpt lat="43.9254" lon="7.22715">
        <ele>950.881104</ele>
        <time>2009-05-31T08:03:13Z</time>
      </trkpt>
      <trkpt lat="43.92535" lon="7.22699">
        <ele>949.439209</ele>
        <time>2009-05-31T08:03:16Z</time>
      </trkpt>
      <trkpt lat="43.92529" lon="7.22668">
        <ele>947.997314</ele>
        <time>2009-05-31T08:03:20Z</time>
      </trkpt>
      <trkpt lat="43.92522" lon="7.22648">
        <ele>946.55542</ele>
        <time>2009-05-31T08:03:23Z</time>
      </trkpt>
      <trkpt lat="43.92512" lon="7.22625">
        <ele>946.074707</ele>
        <time>2009-05-31T08:03:27Z</time>
      </trkpt>
      <trkpt lat="43.92501" lon="7.22595">
        <ele>946.55542</ele>
        <time>2009-05-31T08:03:31Z</time>
      </trkpt>
      <trkpt lat="43.92489" lon="7.22568">
        <ele>946.074707</ele>
        <time>2009-05-31T08:03:35Z</time>
      </trkpt>
      <trkpt lat="43.92485" lon="7.22554">
        <ele>947.035889</ele>
        <time>2009-05-31T08:03:37Z</time>
      </trkpt>
      <trkpt lat="43.92471" lon="7.22548">
        <ele>946.074707</ele>
        <time>2009-05-31T08:03:40Z</time>
      </trkpt>
      <trkpt lat="43.92452" lon="7.22559">
        <ele>944.1521</ele>
        <time>2009-05-31T08:03:43Z</time>
      </trkpt>
      <trkpt lat="43.92436" lon="7.22578">
        <ele>942.229492</ele>
        <time>2009-05-31T08:03:46Z</time>
      </trkpt>
      <trkpt lat="43.92413" lon="7.22596">
        <ele>944.632568</ele>
        <time>2009-05-31T08:03:51Z</time>
      </trkpt>
      <trkpt lat="43.92395" lon="7.22587">
        <ele>947.035889</ele>
        <time>2009-05-31T08:03:54Z</time>
      </trkpt>
      <trkpt lat="43.92388" lon="7.22585">
        <ele>948.477783</ele>
        <time>2009-05-31T08:03:56Z</time>
      </trkpt>
      <trkpt lat="43.92373" lon="7.22584">
        <ele>951.842529</ele>
        <time>2009-05-31T08:04:00Z</time>
      </trkpt>
      <trkpt lat="43.92367" lon="7.22583">
        <ele>952.803711</ele>
        <time>2009-05-31T08:04:02Z</time>
      </trkpt>
      <trkpt lat="43.92357" lon="7.22585">
        <ele>956.168457</ele>
        <time>2009-05-31T08:04:07Z</time>
      </trkpt>
      <trkpt lat="43.92354" lon="7.22583">
        <ele>957.129883</ele>
        <time>2009-05-31T08:04:08Z</time>
      </trkpt>
      <trkpt lat="43.92343" lon="7.22563">
        <ele>960.013672</ele>
        <time>2009-05-31T08:04:13Z</time>
      </trkpt>
      <trkpt lat="43.92335" lon="7.22535">
        <ele>960.013672</ele>
        <time>2009-05-31T08:04:17Z</time>
      </trkpt>
      <trkpt lat="43.92332" lon="7.22526">
        <ele>960.975098</ele>
        <time>2009-05-31T08:04:18Z</time>
      </trkpt>
      <trkpt lat="43.92327" lon="7.22521">
        <ele>960.494385</ele>
        <time>2009-05-31T08:04:20Z</time>
      </trkpt>
      <trkpt lat="43.92331" lon="7.22501">
        <ele>959.05249</ele>
        <time>2009-05-31T08:04:25Z</time>
      </trkpt>
      <trkpt lat="43.92339" lon="7.22488">
        <ele>957.610596</ele>
        <time>2009-05-31T08:04:28Z</time>
      </trkpt>
      <trkpt lat="43.9234" lon="7.22463">
        <ele>958.571777</ele>
        <time>2009-05-31T08:04:33Z</time>
      </trkpt>
      <trkpt lat="43.92335" lon="7.22451">
        <ele>958.091309</ele>
        <time>2009-05-31T08:04:38Z</time>
      </trkpt>
      <trkpt lat="43.92328" lon="7.2244">
        <ele>958.571777</ele>
        <time>2009-05-31T08:04:43Z</time>
      </trkpt>
      <trkpt lat="43.92323" lon="7.22438">
        <ele>957.610596</ele>
        <time>2009-05-31T08:04:45Z</time>
      </trkpt>
      <trkpt lat="43.92299" lon="7.22433">
        <ele>954.24585</ele>
        <time>2009-05-31T08:04:52Z</time>
      </trkpt>
      <trkpt lat="43.92295" lon="7.22424">
        <ele>953.284424</ele>
        <time>2009-05-31T08:04:55Z</time>
      </trkpt>
      <trkpt lat="43.92295" lon="7.22414">
        <ele>954.726318</ele>
        <time>2009-05-31T08:05:00Z</time>
      </trkpt>
      <trkpt lat="43.92296" lon="7.22403">
        <ele>957.610596</ele>
        <time>2009-05-31T08:05:08Z</time>
      </trkpt>
      <trkpt lat="43.92294" lon="7.22397">
        <ele>958.571777</ele>
        <time>2009-05-31T08:05:12Z</time>
      </trkpt>
      <trkpt lat="43.92284" lon="7.22391">
        <ele>958.091309</ele>
        <time>2009-05-31T08:05:20Z</time>
      </trkpt>
      <trkpt lat="43.92276" lon="7.22384">
        <ele>956.168457</ele>
        <time>2009-05-31T08:05:26Z</time>
      </trkpt>
      <trkpt lat="43.9227" lon="7.22376">
        <ele>956.64917</ele>
        <time>2009-05-31T08:05:33Z</time>
      </trkpt>
      <trkpt lat="43.92263" lon="7.22366">
        <ele>958.571777</ele>
        <time>2009-05-31T08:05:42Z</time>
      </trkpt>
      <trkpt lat="43.92261" lon="7.22359">
        <ele>960.975098</ele>
        <time>2009-05-31T08:05:49Z</time>
      </trkpt>
      <trkpt lat="43.92257" lon="7.22359">
        <ele>961.936523</ele>
        <time>2009-05-31T08:05:55Z</time>
      </trkpt>
      <trkpt lat="43.92254" lon="7.22355">
        <ele>963.858887</ele>
        <time>2009-05-31T08:06:01Z</time>
      </trkpt>
      <trkpt lat="43.92251" lon="7.22352">
        <ele>964.820313</ele>
        <time>2009-05-31T08:06:05Z</time>
      </trkpt>
      <trkpt lat="43.92242" lon="7.22346">
        <ele>964.820313</ele>
        <time>2009-05-31T08:06:11Z</time>
      </trkpt>
      <trkpt lat="43.92235" lon="7.22338">
        <ele>966.262207</ele>
        <time>2009-05-31T08:06:19Z</time>
      </trkpt>
      <trkpt lat="43.92229" lon="7.22331">
        <ele>966.262207</ele>
        <time>2009-05-31T08:06:25Z</time>
      </trkpt>
      <trkpt lat="43.92223" lon="7.22325">
        <ele>970.107422</ele>
        <time>2009-05-31T08:06:33Z</time>
      </trkpt>
      <trkpt lat="43.92219" lon="7.22323">
        <ele>970.107422</ele>
        <time>2009-05-31T08:06:37Z</time>
      </trkpt>
      <trkpt lat="43.92214" lon="7.22324">
        <ele>972.510986</ele>
        <time>2009-05-31T08:06:41Z</time>
      </trkpt>
      <trkpt lat="43.92211" lon="7.22326">
        <ele>972.030273</ele>
        <time>2009-05-31T08:06:44Z</time>
      </trkpt>
      <trkpt lat="43.92205" lon="7.22327">
        <ele>971.549316</ele>
        <time>2009-05-31T08:06:49Z</time>
      </trkpt>
      <trkpt lat="43.92197" lon="7.22325">
        <ele>972.991699</ele>
        <time>2009-05-31T08:06:57Z</time>
      </trkpt>
      <trkpt lat="43.92192" lon="7.22324">
        <ele>972.991699</ele>
        <time>2009-05-31T08:07:04Z</time>
      </trkpt>
      <trkpt lat="43.92189" lon="7.22323">
        <ele>974.914307</ele>
        <time>2009-05-31T08:07:10Z</time>
      </trkpt>
      <trkpt lat="43.92185" lon="7.22324">
        <ele>977.798096</ele>
        <time>2009-05-31T08:07:16Z</time>
      </trkpt>
      <trkpt lat="43.92182" lon="7.22325">
        <ele>979.23999</ele>
        <time>2009-05-31T08:07:21Z</time>
      </trkpt>
      <trkpt lat="43.92176" lon="7.22327">
        <ele>979.23999</ele>
        <time>2009-05-31T08:07:27Z</time>
      </trkpt>
      <trkpt lat="43.92171" lon="7.22327">
        <ele>982.124023</ele>
        <time>2009-05-31T08:07:31Z</time>
      </trkpt>
      <trkpt lat="43.92168" lon="7.22323">
        <ele>983.565918</ele>
        <time>2009-05-31T08:07:37Z</time>
      </trkpt>
      <trkpt lat="43.92161" lon="7.22323">
        <ele>985.969238</ele>
        <time>2009-05-31T08:07:46Z</time>
      </trkpt>
      <trkpt lat="43.92154" lon="7.22321">
        <ele>987.891846</ele>
        <time>2009-05-31T08:07:51Z</time>
      </trkpt>
      <trkpt lat="43.9215" lon="7.22321">
        <ele>989.333984</ele>
        <time>2009-05-31T08:07:54Z</time>
      </trkpt>
      <trkpt lat="43.92146" lon="7.22321">
        <ele>991.737305</ele>
        <time>2009-05-31T08:07:58Z</time>
      </trkpt>
      <trkpt lat="43.92144" lon="7.22317">
        <ele>992.218018</ele>
        <time>2009-05-31T08:08:05Z</time>
      </trkpt>
      <trkpt lat="43.92141" lon="7.22313">
        <ele>992.218018</ele>
        <time>2009-05-31T08:08:13Z</time>
      </trkpt>
      <trkpt lat="43.92134" lon="7.22311">
        <ele>992.218018</ele>
        <time>2009-05-31T08:08:21Z</time>
      </trkpt>
      <trkpt lat="43.92129" lon="7.2231">
        <ele>994.140625</ele>
        <time>2009-05-31T08:08:29Z</time>
      </trkpt>
      <trkpt lat="43.92122" lon="7.22309">
        <ele>998.947021</ele>
        <time>2009-05-31T08:08:39Z</time>
      </trkpt>
      <trkpt lat="43.92117" lon="7.22309">
        <ele>1000.38916</ele>
        <time>2009-05-31T08:08:46Z</time>
      </trkpt>
      <trkpt lat="43.92111" lon="7.22307">
        <ele>1001.350342</ele>
        <time>2009-05-31T08:08:54Z</time>
      </trkpt>
      <trkpt lat="43.92107" lon="7.22308">
        <ele>1000.869629</ele>
        <time>2009-05-31T08:09:02Z</time>
      </trkpt>
      <trkpt lat="43.92103" lon="7.22309">
        <ele>1001.350342</ele>
        <time>2009-05-31T08:09:09Z</time>
      </trkpt>
      <trkpt lat="43.921" lon="7.22305">
        <ele>1002.311523</ele>
        <time>2009-05-31T08:09:15Z</time>
      </trkpt>
      <trkpt lat="43.92095" lon="7.22306">
        <ele>1001.350342</ele>
        <time>2009-05-31T08:09:21Z</time>
      </trkpt>
      <trkpt lat="43.9209" lon="7.22306">
        <ele>1005.676514</ele>
        <time>2009-05-31T08:09:31Z</time>
      </trkpt>
      <trkpt lat="43.92086" lon="7.22307">
        <ele>1010.002197</ele>
        <time>2009-05-31T08:09:40Z</time>
      </trkpt>
      <trkpt lat="43.92083" lon="7.22309">
        <ele>1013.847412</ele>
        <time>2009-05-31T08:09:47Z</time>
      </trkpt>
      <trkpt lat="43.9208" lon="7.2231">
        <ele>1016.250732</ele>
        <time>2009-05-31T08:09:54Z</time>
      </trkpt>
      <trkpt lat="43.92077" lon="7.22307">
        <ele>1019.615479</ele>
        <time>2009-05-31T08:10:01Z</time>
      </trkpt>
      <trkpt lat="43.9207" lon="7.22307">
        <ele>1025.383301</ele>
        <time>2009-05-31T08:10:10Z</time>
      </trkpt>
      <trkpt lat="43.92063" lon="7.22304">
        <ele>1027.306152</ele>
        <time>2009-05-31T08:10:18Z</time>
      </trkpt>
      <trkpt lat="43.92057" lon="7.22303">
        <ele>1026.344727</ele>
        <time>2009-05-31T08:10:25Z</time>
      </trkpt>
      <trkpt lat="43.92052" lon="7.22301">
        <ele>1025.864014</ele>
        <time>2009-05-31T08:10:33Z</time>
      </trkpt>
      <trkpt lat="43.92043" lon="7.22299">
        <ele>1022.980225</ele>
        <time>2009-05-31T08:10:43Z</time>
      </trkpt>
      <trkpt lat="43.92037" lon="7.22296">
        <ele>1022.499512</ele>
        <time>2009-05-31T08:10:51Z</time>
      </trkpt>
      <trkpt lat="43.92032" lon="7.22293">
        <ele>1024.422119</ele>
        <time>2009-05-31T08:10:57Z</time>
      </trkpt>
      <trkpt lat="43.92028" lon="7.22295">
        <ele>1026.825439</ele>
        <time>2009-05-31T08:11:01Z</time>
      </trkpt>
      <trkpt lat="43.92023" lon="7.22295">
        <ele>1028.748047</ele>
        <time>2009-05-31T08:11:05Z</time>
      </trkpt>
      <trkpt lat="43.92015" lon="7.22292">
        <ele>1027.786621</ele>
        <time>2009-05-31T08:11:14Z</time>
      </trkpt>
      <trkpt lat="43.92007" lon="7.22289">
        <ele>1027.786621</ele>
        <time>2009-05-31T08:11:21Z</time>
      </trkpt>
      <trkpt lat="43.92002" lon="7.2229">
        <ele>1029.228516</ele>
        <time>2009-05-31T08:11:25Z</time>
      </trkpt>
      <trkpt lat="43.91999" lon="7.22289">
        <ele>1028.748047</ele>
        <time>2009-05-31T08:11:29Z</time>
      </trkpt>
      <trkpt lat="43.9199" lon="7.22285">
        <ele>1031.631836</ele>
        <time>2009-05-31T08:11:37Z</time>
      </trkpt>
      <trkpt lat="43.9198" lon="7.22288">
        <ele>1032.593262</ele>
        <time>2009-05-31T08:11:44Z</time>
      </trkpt>
      <trkpt lat="43.91974" lon="7.22291">
        <ele>1034.996582</ele>
        <time>2009-05-31T08:11:48Z</time>
      </trkpt>
      <trkpt lat="43.91966" lon="7.22283">
        <ele>1034.035156</ele>
        <time>2009-05-31T08:11:56Z</time>
      </trkpt>
      <trkpt lat="43.91965" lon="7.22275">
        <ele>1036.919189</ele>
        <time>2009-05-31T08:12:03Z</time>
      </trkpt>
      <trkpt lat="43.91963" lon="7.22274">
        <ele>1037.880615</ele>
        <time>2009-05-31T08:12:06Z</time>
      </trkpt>
      <trkpt lat="43.91957" lon="7.22262">
        <ele>1038.842041</ele>
        <time>2009-05-31T08:12:11Z</time>
      </trkpt>
      <trkpt lat="43.91946" lon="7.22255">
        <ele>1041.72583</ele>
        <time>2009-05-31T08:12:17Z</time>
      </trkpt>
      <trkpt lat="43.91936" lon="7.22248">
        <ele>1043.167725</ele>
        <time>2009-05-31T08:12:24Z</time>
      </trkpt>
      <trkpt lat="43.91926" lon="7.22242">
        <ele>1046.532471</ele>
        <time>2009-05-31T08:12:32Z</time>
      </trkpt>
      <trkpt lat="43.91922" lon="7.22241">
        <ele>1047.012939</ele>
        <time>2009-05-31T08:12:34Z</time>
      </trkpt>
      <trkpt lat="43.91918" lon="7.22249">
        <ele>1048.935547</ele>
        <time>2009-05-31T08:12:40Z</time>
      </trkpt>
      <trkpt lat="43.91915" lon="7.22263">
        <ele>1052.300293</ele>
        <time>2009-05-31T08:12:48Z</time>
      </trkpt>
      <trkpt lat="43.91911" lon="7.22269">
        <ele>1052.300293</ele>
        <time>2009-05-31T08:12:53Z</time>
      </trkpt>
      <trkpt lat="43.91903" lon="7.22281">
        <ele>1054.223145</ele>
        <time>2009-05-31T08:12:59Z</time>
      </trkpt>
      <trkpt lat="43.91902" lon="7.22303">
        <ele>1056.145508</ele>
        <time>2009-05-31T08:13:05Z</time>
      </trkpt>
      <trkpt lat="43.91903" lon="7.22325">
        <ele>1056.626221</ele>
        <time>2009-05-31T08:13:10Z</time>
      </trkpt>
      <trkpt lat="43.91906" lon="7.22349">
        <ele>1054.703613</ele>
        <time>2009-05-31T08:13:16Z</time>
      </trkpt>
      <trkpt lat="43.91912" lon="7.22369">
        <ele>1054.703613</ele>
        <time>2009-05-31T08:13:23Z</time>
      </trkpt>
      <trkpt lat="43.91914" lon="7.22389">
        <ele>1054.703613</ele>
        <time>2009-05-31T08:13:30Z</time>
      </trkpt>
      <trkpt lat="43.91915" lon="7.22417">
        <ele>1052.300293</ele>
        <time>2009-05-31T08:13:35Z</time>
      </trkpt>
      <trkpt lat="43.91908" lon="7.22439">
        <ele>1051.338867</ele>
        <time>2009-05-31T08:13:38Z</time>
      </trkpt>
      <trkpt lat="43.91899" lon="7.22459">
        <ele>1050.858154</ele>
        <time>2009-05-31T08:13:41Z</time>
      </trkpt>
      <trkpt lat="43.91886" lon="7.22474">
        <ele>1052.300293</ele>
        <time>2009-05-31T08:13:44Z</time>
      </trkpt>
      <trkpt lat="43.91866" lon="7.22484">
        <ele>1053.742432</ele>
        <time>2009-05-31T08:13:48Z</time>
      </trkpt>
      <trkpt lat="43.91835" lon="7.22504">
        <ele>1053.261719</ele>
        <time>2009-05-31T08:13:56Z</time>
      </trkpt>
      <trkpt lat="43.91801" lon="7.22544">
        <ele>1050.858154</ele>
        <time>2009-05-31T08:14:04Z</time>
      </trkpt>
      <trkpt lat="43.91793" lon="7.22556">
        <ele>1049.41626</ele>
        <time>2009-05-31T08:14:06Z</time>
      </trkpt>
      <trkpt lat="43.9177" lon="7.22568">
        <ele>1050.377686</ele>
        <time>2009-05-31T08:14:10Z</time>
      </trkpt>
      <trkpt lat="43.91751" lon="7.2258">
        <ele>1047.974365</ele>
        <time>2009-05-31T08:14:14Z</time>
      </trkpt>
      <trkpt lat="43.91729" lon="7.22595">
        <ele>1047.493652</ele>
        <time>2009-05-31T08:14:18Z</time>
      </trkpt>
      <trkpt lat="43.9171" lon="7.22626">
        <ele>1042.687256</ele>
        <time>2009-05-31T08:14:23Z</time>
      </trkpt>
      <trkpt lat="43.917" lon="7.22656">
        <ele>1038.842041</ele>
        <time>2009-05-31T08:14:26Z</time>
      </trkpt>
      <trkpt lat="43.91692" lon="7.22688">
        <ele>1034.035156</ele>
        <time>2009-05-31T08:14:29Z</time>
      </trkpt>
      <trkpt lat="43.91685" lon="7.22707">
        <ele>1032.112549</ele>
        <time>2009-05-31T08:14:31Z</time>
      </trkpt>
      <trkpt lat="43.9168" lon="7.22749">
        <ele>1025.864014</ele>
        <time>2009-05-31T08:14:35Z</time>
      </trkpt>
      <trkpt lat="43.91677" lon="7.22771">
        <ele>1022.980225</ele>
        <time>2009-05-31T08:14:37Z</time>
      </trkpt>
      <trkpt lat="43.91667" lon="7.22788">
        <ele>1019.134766</ele>
        <time>2009-05-31T08:14:40Z</time>
      </trkpt>
      <trkpt lat="43.91657" lon="7.22798">
        <ele>1016.731445</ele>
        <time>2009-05-31T08:14:42Z</time>
      </trkpt>
      <trkpt lat="43.91644" lon="7.22817">
        <ele>1014.328125</ele>
        <time>2009-05-31T08:14:45Z</time>
      </trkpt>
      <trkpt lat="43.91637" lon="7.22836">
        <ele>1014.808838</ele>
        <time>2009-05-31T08:14:49Z</time>
      </trkpt>
      <trkpt lat="43.91633" lon="7.22859">
        <ele>1018.654053</ele>
        <time>2009-05-31T08:14:58Z</time>
      </trkpt>
      <trkpt lat="43.91628" lon="7.22876">
        <ele>1020.576904</ele>
        <time>2009-05-31T08:15:06Z</time>
      </trkpt>
      <trkpt lat="43.91619" lon="7.22892">
        <ele>1022.980225</ele>
        <time>2009-05-31T08:15:13Z</time>
      </trkpt>
      <trkpt lat="43.91609" lon="7.22917">
        <ele>1025.383301</ele>
        <time>2009-05-31T08:15:22Z</time>
      </trkpt>
      <trkpt lat="43.91599" lon="7.22936">
        <ele>1026.344727</ele>
        <time>2009-05-31T08:15:30Z</time>
      </trkpt>
      <trkpt lat="43.91599" lon="7.22953">
        <ele>1027.306152</ele>
        <time>2009-05-31T08:15:36Z</time>
      </trkpt>
      <trkpt lat="43.916" lon="7.2297">
        <ele>1028.748047</ele>
        <time>2009-05-31T08:15:43Z</time>
      </trkpt>
      <trkpt lat="43.916" lon="7.22991">
        <ele>1032.593262</ele>
        <time>2009-05-31T08:15:52Z</time>
      </trkpt>
      <trkpt lat="43.91602" lon="7.23013">
        <ele>1035.477051</ele>
        <time>2009-05-31T08:16:02Z</time>
      </trkpt>
      <trkpt lat="43.91608" lon="7.23029">
        <ele>1036.438721</ele>
        <time>2009-05-31T08:16:09Z</time>
      </trkpt>
      <trkpt lat="43.91614" lon="7.23045">
        <ele>1037.880615</ele>
        <time>2009-05-31T08:16:17Z</time>
      </trkpt>
      <trkpt lat="43.91621" lon="7.23058">
        <ele>1039.803223</ele>
        <time>2009-05-31T08:16:25Z</time>
      </trkpt>
      <trkpt lat="43.91625" lon="7.2307">
        <ele>1041.72583</ele>
        <time>2009-05-31T08:16:32Z</time>
      </trkpt>
      <trkpt lat="43.91628" lon="7.23085">
        <ele>1043.648438</ele>
        <time>2009-05-31T08:16:40Z</time>
      </trkpt>
      <trkpt lat="43.91629" lon="7.23094">
        <ele>1044.609619</ele>
        <time>2009-05-31T08:16:45Z</time>
      </trkpt>
      <trkpt lat="43.91628" lon="7.23099">
        <ele>1045.090332</ele>
        <time>2009-05-31T08:16:49Z</time>
      </trkpt>
      <trkpt lat="43.91624" lon="7.23109">
        <ele>1047.493652</ele>
        <time>2009-05-31T08:16:59Z</time>
      </trkpt>
      <trkpt lat="43.91618" lon="7.23111">
        <ele>1048.454834</ele>
        <time>2009-05-31T08:17:06Z</time>
      </trkpt>
      <trkpt lat="43.91615" lon="7.23112">
        <ele>1048.454834</ele>
        <time>2009-05-31T08:17:11Z</time>
      </trkpt>
      <trkpt lat="43.91611" lon="7.2311">
        <ele>1048.454834</ele>
        <time>2009-05-31T08:17:15Z</time>
      </trkpt>
      <trkpt lat="43.91603" lon="7.23108">
        <ele>1049.41626</ele>
        <time>2009-05-31T08:17:20Z</time>
      </trkpt>
      <trkpt lat="43.91591" lon="7.23102">
        <ele>1050.377686</ele>
        <time>2009-05-31T08:17:28Z</time>
      </trkpt>
      <trkpt lat="43.91578" lon="7.23103">
        <ele>1051.338867</ele>
        <time>2009-05-31T08:17:36Z</time>
      </trkpt>
      <trkpt lat="43.91565" lon="7.23113">
        <ele>1052.781006</ele>
        <time>2009-05-31T08:17:44Z</time>
      </trkpt>
      <trkpt lat="43.91549" lon="7.23129">
        <ele>1054.703613</ele>
        <time>2009-05-31T08:17:55Z</time>
      </trkpt>
      <trkpt lat="43.91535" lon="7.23139">
        <ele>1055.665039</ele>
        <time>2009-05-31T08:18:04Z</time>
      </trkpt>
      <trkpt lat="43.91512" lon="7.2315">
        <ele>1057.587646</ele>
        <time>2009-05-31T08:18:18Z</time>
      </trkpt>
      <trkpt lat="43.91493" lon="7.23155">
        <ele>1059.510254</ele>
        <time>2009-05-31T08:18:29Z</time>
      </trkpt>
      <trkpt lat="43.91479" lon="7.23159">
        <ele>1061.432861</ele>
        <time>2009-05-31T08:18:37Z</time>
      </trkpt>
      <trkpt lat="43.9147" lon="7.23163">
        <ele>1062.394043</ele>
        <time>2009-05-31T08:18:43Z</time>
      </trkpt>
      <trkpt lat="43.91458" lon="7.23161">
        <ele>1063.355469</ele>
        <time>2009-05-31T08:18:50Z</time>
      </trkpt>
      <trkpt lat="43.91453" lon="7.23158">
        <ele>1064.31665</ele>
        <time>2009-05-31T08:18:54Z</time>
      </trkpt>
      <trkpt lat="43.91445" lon="7.23154">
        <ele>1065.758789</ele>
        <time>2009-05-31T08:19:01Z</time>
      </trkpt>
      <trkpt lat="43.91443" lon="7.23152">
        <ele>1065.758789</ele>
        <time>2009-05-31T08:19:03Z</time>
      </trkpt>
      <trkpt lat="43.91436" lon="7.23147">
        <ele>1065.278076</ele>
        <time>2009-05-31T08:19:12Z</time>
      </trkpt>
      <trkpt lat="43.9143" lon="7.23143">
        <ele>1065.758789</ele>
        <time>2009-05-31T08:19:19Z</time>
      </trkpt>
      <trkpt lat="43.91421" lon="7.23135">
        <ele>1067.681152</ele>
        <time>2009-05-31T08:19:30Z</time>
      </trkpt>
      <trkpt lat="43.91417" lon="7.23132">
        <ele>1068.642822</ele>
        <time>2009-05-31T08:19:34Z</time>
      </trkpt>
      <trkpt lat="43.91412" lon="7.23126">
        <ele>1070.084717</ele>
        <time>2009-05-31T08:19:40Z</time>
      </trkpt>
      <trkpt lat="43.9141" lon="7.23124">
        <ele>1070.56543</ele>
        <time>2009-05-31T08:19:42Z</time>
      </trkpt>
      <trkpt lat="43.91403" lon="7.23117">
        <ele>1072.488037</ele>
        <time>2009-05-31T08:19:51Z</time>
      </trkpt>
      <trkpt lat="43.91402" lon="7.23118">
        <ele>1072.96875</ele>
        <time>2009-05-31T08:19:56Z</time>
      </trkpt>
      <trkpt lat="43.91404" lon="7.2313">
        <ele>1075.852539</ele>
        <time>2009-05-31T08:20:04Z</time>
      </trkpt>
      <trkpt lat="43.91404" lon="7.23145">
        <ele>1080.178467</ele>
        <time>2009-05-31T08:20:14Z</time>
      </trkpt>
      <trkpt lat="43.91404" lon="7.23153">
        <ele>1081.620361</ele>
        <time>2009-05-31T08:20:19Z</time>
      </trkpt>
      <trkpt lat="43.914" lon="7.2315">
        <ele>1082.581787</ele>
        <time>2009-05-31T08:20:24Z</time>
      </trkpt>
      <trkpt lat="43.91393" lon="7.23143">
        <ele>1084.504639</ele>
        <time>2009-05-31T08:20:33Z</time>
      </trkpt>
      <trkpt lat="43.91388" lon="7.23133">
        <ele>1084.504639</ele>
        <time>2009-05-31T08:20:40Z</time>
      </trkpt>
      <trkpt lat="43.91385" lon="7.23127">
        <ele>1084.023926</ele>
        <time>2009-05-31T08:20:44Z</time>
      </trkpt>
      <trkpt lat="43.91378" lon="7.23117">
        <ele>1084.504639</ele>
        <time>2009-05-31T08:20:51Z</time>
      </trkpt>
      <trkpt lat="43.91376" lon="7.23117">
        <ele>1084.985352</ele>
        <time>2009-05-31T08:20:56Z</time>
      </trkpt>
      <trkpt lat="43.91378" lon="7.23131">
        <ele>1087.388428</ele>
        <time>2009-05-31T08:21:06Z</time>
      </trkpt>
      <trkpt lat="43.91377" lon="7.23144">
        <ele>1089.791748</ele>
        <time>2009-05-31T08:21:15Z</time>
      </trkpt>
      <trkpt lat="43.91377" lon="7.23149">
        <ele>1090.75293</ele>
        <time>2009-05-31T08:21:18Z</time>
      </trkpt>
      <trkpt lat="43.91375" lon="7.23152">
        <ele>1091.233643</ele>
        <time>2009-05-31T08:21:21Z</time>
      </trkpt>
      <trkpt lat="43.91372" lon="7.2315">
        <ele>1092.195068</ele>
        <time>2009-05-31T08:21:25Z</time>
      </trkpt>
      <trkpt lat="43.91367" lon="7.23137">
        <ele>1093.15625</ele>
        <time>2009-05-31T08:21:34Z</time>
      </trkpt>
      <trkpt lat="43.91359" lon="7.23125">
        <ele>1094.598145</ele>
        <time>2009-05-31T08:21:43Z</time>
      </trkpt>
      <trkpt lat="43.91357" lon="7.23124">
        <ele>1095.078857</ele>
        <time>2009-05-31T08:21:48Z</time>
      </trkpt>
      <trkpt lat="43.91352" lon="7.23125">
        <ele>1094.598145</ele>
        <time>2009-05-31T08:21:54Z</time>
      </trkpt>
      <trkpt lat="43.91355" lon="7.23134">
        <ele>1095.55957</ele>
        <time>2009-05-31T08:22:01Z</time>
      </trkpt>
      <trkpt lat="43.91354" lon="7.2315">
        <ele>1097.001465</ele>
        <time>2009-05-31T08:22:10Z</time>
      </trkpt>
      <trkpt lat="43.91353" lon="7.23155">
        <ele>1097.482178</ele>
        <time>2009-05-31T08:22:13Z</time>
      </trkpt>
      <trkpt lat="43.9135" lon="7.23153">
        <ele>1098.924072</ele>
        <time>2009-05-31T08:22:18Z</time>
      </trkpt>
      <trkpt lat="43.91346" lon="7.23141">
        <ele>1101.327637</ele>
        <time>2009-05-31T08:22:26Z</time>
      </trkpt>
      <trkpt lat="43.91338" lon="7.23131">
        <ele>1102.288818</ele>
        <time>2009-05-31T08:22:34Z</time>
      </trkpt>
      <trkpt lat="43.91334" lon="7.23135">
        <ele>1103.250244</ele>
        <time>2009-05-31T08:22:40Z</time>
      </trkpt>
      <trkpt lat="43.91335" lon="7.23137">
        <ele>1102.769531</ele>
        <time>2009-05-31T08:22:42Z</time>
      </trkpt>
      <trkpt lat="43.91337" lon="7.2314">
        <ele>1102.769531</ele>
        <time>2009-05-31T08:22:45Z</time>
      </trkpt>
      <trkpt lat="43.91336" lon="7.23149">
        <ele>1104.692139</ele>
        <time>2009-05-31T08:22:50Z</time>
      </trkpt>
      <trkpt lat="43.91334" lon="7.23159">
        <ele>1105.653564</ele>
        <time>2009-05-31T08:22:56Z</time>
      </trkpt>
      <trkpt lat="43.91332" lon="7.23159">
        <ele>1105.653564</ele>
        <time>2009-05-31T08:22:59Z</time>
      </trkpt>
      <trkpt lat="43.91331" lon="7.23154">
        <ele>1105.172852</ele>
        <time>2009-05-31T08:23:03Z</time>
      </trkpt>
      <trkpt lat="43.91324" lon="7.23143">
        <ele>1107.095459</ele>
        <time>2009-05-31T08:23:12Z</time>
      </trkpt>
      <trkpt lat="43.91316" lon="7.23138">
        <ele>1108.537354</ele>
        <time>2009-05-31T08:23:19Z</time>
      </trkpt>
      <trkpt lat="43.91309" lon="7.23134">
        <ele>1110.940674</ele>
        <time>2009-05-31T08:23:26Z</time>
      </trkpt>
      <trkpt lat="43.91309" lon="7.23133">
        <ele>1110.940674</ele>
        <time>2009-05-31T08:23:27Z</time>
      </trkpt>
      <trkpt lat="43.91311" lon="7.23137">
        <ele>1110.459961</ele>
        <time>2009-05-31T08:23:33Z</time>
      </trkpt>
      <trkpt lat="43.91313" lon="7.23144">
        <ele>1113.343994</ele>
        <time>2009-05-31T08:23:39Z</time>
      </trkpt>
      <trkpt lat="43.91313" lon="7.23148">
        <ele>1112.863281</ele>
        <time>2009-05-31T08:23:45Z</time>
      </trkpt>
      <trkpt lat="43.91308" lon="7.23151">
        <ele>1116.70874</ele>
        <time>2009-05-31T08:23:52Z</time>
      </trkpt>
      <trkpt lat="43.91305" lon="7.23151">
        <ele>1118.150635</ele>
        <time>2009-05-31T08:23:58Z</time>
      </trkpt>
      <trkpt lat="43.91302" lon="7.23153">
        <ele>1118.150635</ele>
        <time>2009-05-31T08:24:03Z</time>
      </trkpt>
      <trkpt lat="43.91299" lon="7.23153">
        <ele>1119.112061</ele>
        <time>2009-05-31T08:24:09Z</time>
      </trkpt>
      <trkpt lat="43.91295" lon="7.23153">
        <ele>1121.99585</ele>
        <time>2009-05-31T08:24:15Z</time>
      </trkpt>
      <trkpt lat="43.91291" lon="7.23152">
        <ele>1118.631348</ele>
        <time>2009-05-31T08:24:21Z</time>
      </trkpt>
      <trkpt lat="43.91289" lon="7.23152">
        <ele>1118.631348</ele>
        <time>2009-05-31T08:24:27Z</time>
      </trkpt>
      <trkpt lat="43.91286" lon="7.23148">
        <ele>1121.034668</ele>
        <time>2009-05-31T08:24:33Z</time>
      </trkpt>
      <trkpt lat="43.91284" lon="7.23146">
        <ele>1122.476563</ele>
        <time>2009-05-31T08:24:38Z</time>
      </trkpt>
      <trkpt lat="43.9128" lon="7.23142">
        <ele>1125.360352</ele>
        <time>2009-05-31T08:24:43Z</time>
      </trkpt>
      <trkpt lat="43.91279" lon="7.23134">
        <ele>1124.879883</ele>
        <time>2009-05-31T08:24:50Z</time>
      </trkpt>
      <trkpt lat="43.9128" lon="7.23133">
        <ele>1128.244385</ele>
        <time>2009-05-31T08:24:56Z</time>
      </trkpt>
      <trkpt lat="43.91278" lon="7.23137">
        <ele>1134.493164</ele>
        <time>2009-05-31T08:25:02Z</time>
      </trkpt>
      <trkpt lat="43.91277" lon="7.23138">
        <ele>1137.376953</ele>
        <time>2009-05-31T08:25:04Z</time>
      </trkpt>
      <trkpt lat="43.91272" lon="7.2314">
        <ele>1138.819092</ele>
        <time>2009-05-31T08:25:10Z</time>
      </trkpt>
      <trkpt lat="43.9127" lon="7.23147">
        <ele>1138.338379</ele>
        <time>2009-05-31T08:25:16Z</time>
      </trkpt>
      <trkpt lat="43.91271" lon="7.23154">
        <ele>1136.415771</ele>
        <time>2009-05-31T08:25:22Z</time>
      </trkpt>
      <trkpt lat="43.91271" lon="7.23168">
        <ele>1136.415771</ele>
        <time>2009-05-31T08:25:32Z</time>
      </trkpt>
      <trkpt lat="43.91267" lon="7.23177">
        <ele>1137.376953</ele>
        <time>2009-05-31T08:25:40Z</time>
      </trkpt>
      <trkpt lat="43.91264" lon="7.23171">
        <ele>1139.299561</ele>
        <time>2009-05-31T08:25:47Z</time>
      </trkpt>
      <trkpt lat="43.91258" lon="7.23162">
        <ele>1143.144775</ele>
        <time>2009-05-31T08:25:55Z</time>
      </trkpt>
      <trkpt lat="43.91252" lon="7.23149">
        <ele>1143.144775</ele>
        <time>2009-05-31T08:26:03Z</time>
      </trkpt>
      <trkpt lat="43.91249" lon="7.23144">
        <ele>1144.58667</ele>
        <time>2009-05-31T08:26:08Z</time>
      </trkpt>
      <trkpt lat="43.91247" lon="7.2315">
        <ele>1145.067383</ele>
        <time>2009-05-31T08:26:15Z</time>
      </trkpt>
      <trkpt lat="43.91249" lon="7.23157">
        <ele>1146.028809</ele>
        <time>2009-05-31T08:26:22Z</time>
      </trkpt>
      <trkpt lat="43.91251" lon="7.23162">
        <ele>1147.470703</ele>
        <time>2009-05-31T08:26:25Z</time>
      </trkpt>
      <trkpt lat="43.91249" lon="7.23175">
        <ele>1146.028809</ele>
        <time>2009-05-31T08:26:34Z</time>
      </trkpt>
      <trkpt lat="43.91245" lon="7.23185">
        <ele>1146.028809</ele>
        <time>2009-05-31T08:26:41Z</time>
      </trkpt>
      <trkpt lat="43.91242" lon="7.23179">
        <ele>1147.470703</ele>
        <time>2009-05-31T08:26:47Z</time>
      </trkpt>
      <trkpt lat="43.91236" lon="7.2317">
        <ele>1152.758057</ele>
        <time>2009-05-31T08:26:55Z</time>
      </trkpt>
      <trkpt lat="43.91232" lon="7.23164">
        <ele>1154.680664</ele>
        <time>2009-05-31T08:27:00Z</time>
      </trkpt>
      <trkpt lat="43.9123" lon="7.2316">
        <ele>1153.719482</ele>
        <time>2009-05-31T08:27:05Z</time>
      </trkpt>
      <trkpt lat="43.91231" lon="7.23163">
        <ele>1155.161377</ele>
        <time>2009-05-31T08:27:10Z</time>
      </trkpt>
      <trkpt lat="43.91231" lon="7.23175">
        <ele>1156.122559</ele>
        <time>2009-05-31T08:27:18Z</time>
      </trkpt>
      <trkpt lat="43.91228" lon="7.23189">
        <ele>1156.122559</ele>
        <time>2009-05-31T08:27:26Z</time>
      </trkpt>
      <trkpt lat="43.91219" lon="7.23197">
        <ele>1157.083984</ele>
        <time>2009-05-31T08:27:34Z</time>
      </trkpt>
      <trkpt lat="43.91213" lon="7.23203">
        <ele>1157.083984</ele>
        <time>2009-05-31T08:27:42Z</time>
      </trkpt>
      <trkpt lat="43.91206" lon="7.23206">
        <ele>1158.04541</ele>
        <time>2009-05-31T08:27:51Z</time>
      </trkpt>
      <trkpt lat="43.912" lon="7.23209">
        <ele>1158.525879</ele>
        <time>2009-05-31T08:27:59Z</time>
      </trkpt>
      <trkpt lat="43.91193" lon="7.23214">
        <ele>1159.487305</ele>
        <time>2009-05-31T08:28:07Z</time>
      </trkpt>
      <trkpt lat="43.91189" lon="7.23216">
        <ele>1159.967773</ele>
        <time>2009-05-31T08:28:14Z</time>
      </trkpt>
      <trkpt lat="43.91182" lon="7.23217">
        <ele>1163.33252</ele>
        <time>2009-05-31T08:28:22Z</time>
      </trkpt>
      <trkpt lat="43.91174" lon="7.23213">
        <ele>1164.774658</ele>
        <time>2009-05-31T08:28:30Z</time>
      </trkpt>
      <trkpt lat="43.9116" lon="7.23216">
        <ele>1165.736084</ele>
        <time>2009-05-31T08:28:38Z</time>
      </trkpt>
      <trkpt lat="43.91145" lon="7.2321">
        <ele>1166.697266</ele>
        <time>2009-05-31T08:28:47Z</time>
      </trkpt>
      <trkpt lat="43.91132" lon="7.23194">
        <ele>1167.658447</ele>
        <time>2009-05-31T08:28:55Z</time>
      </trkpt>
      <trkpt lat="43.91121" lon="7.23173">
        <ele>1169.581299</ele>
        <time>2009-05-31T08:29:03Z</time>
      </trkpt>
      <trkpt lat="43.91117" lon="7.2315">
        <ele>1171.023193</ele>
        <time>2009-05-31T08:29:11Z</time>
      </trkpt>
      <trkpt lat="43.91114" lon="7.23117">
        <ele>1172.465088</ele>
        <time>2009-05-31T08:29:21Z</time>
      </trkpt>
      <trkpt lat="43.91109" lon="7.23083">
        <ele>1174.387695</ele>
        <time>2009-05-31T08:29:31Z</time>
      </trkpt>
      <trkpt lat="43.911" lon="7.23054">
        <ele>1176.310303</ele>
        <time>2009-05-31T08:29:40Z</time>
      </trkpt>
      <trkpt lat="43.91089" lon="7.2303">
        <ele>1176.791016</ele>
        <time>2009-05-31T08:29:48Z</time>
      </trkpt>
      <trkpt lat="43.91076" lon="7.23">
        <ele>1177.271729</ele>
        <time>2009-05-31T08:29:57Z</time>
      </trkpt>
      <trkpt lat="43.91069" lon="7.2298">
        <ele>1178.23291</ele>
        <time>2009-05-31T08:30:03Z</time>
      </trkpt>
      <trkpt lat="43.91059" lon="7.22951">
        <ele>1178.713623</ele>
        <time>2009-05-31T08:30:11Z</time>
      </trkpt>
      <trkpt lat="43.91045" lon="7.22928">
        <ele>1178.23291</ele>
        <time>2009-05-31T08:30:19Z</time>
      </trkpt>
      <trkpt lat="43.91044" lon="7.2293">
        <ele>1177.752197</ele>
        <time>2009-05-31T08:30:24Z</time>
      </trkpt>
      <trkpt lat="43.91043" lon="7.22932">
        <ele>1176.791016</ele>
        <time>2009-05-31T08:30:28Z</time>
      </trkpt>
      <trkpt lat="43.91043" lon="7.22933">
        <ele>1175.82959</ele>
        <time>2009-05-31T08:30:33Z</time>
      </trkpt>
      <trkpt lat="43.91043" lon="7.22934">
        <ele>1175.348877</ele>
        <time>2009-05-31T08:30:38Z</time>
      </trkpt>
      <trkpt lat="43.91043" lon="7.22934">
        <ele>1175.348877</ele>
        <time>2009-05-31T08:30:39Z</time>
      </trkpt>
      <trkpt lat="43.91044" lon="7.22934">
        <ele>1175.82959</ele>
        <time>2009-05-31T08:30:51Z</time>
      </trkpt>
      <trkpt lat="43.91042" lon="7.22936">
        <ele>1178.713623</ele>
        <time>2009-05-31T08:31:03Z</time>
      </trkpt>
      <trkpt lat="43.91042" lon="7.22936">
        <ele>1179.674805</ele>
        <time>2009-05-31T08:31:07Z</time>
      </trkpt>
      <trkpt lat="43.91041" lon="7.22936">
        <ele>1180.155762</ele>
        <time>2009-05-31T08:31:12Z</time>
      </trkpt>
      <trkpt lat="43.9104" lon="7.22936">
        <ele>1181.597656</ele>
        <time>2009-05-31T08:31:22Z</time>
      </trkpt>
      <trkpt lat="43.91039" lon="7.22936">
        <ele>1182.078369</ele>
        <time>2009-05-31T08:31:28Z</time>
      </trkpt>
      <trkpt lat="43.91039" lon="7.22935">
        <ele>1183.039551</ele>
        <time>2009-05-31T08:31:44Z</time>
      </trkpt>
      <trkpt lat="43.91039" lon="7.22935">
        <ele>1183.520264</ele>
        <time>2009-05-31T08:31:49Z</time>
      </trkpt>
      <trkpt lat="43.91039" lon="7.22935">
        <ele>1183.520264</ele>
        <time>2009-05-31T08:31:52Z</time>
      </trkpt>
      <trkpt lat="43.9104" lon="7.22935">
        <ele>1180.155762</ele>
        <time>2009-05-31T08:32:09Z</time>
      </trkpt>
      <trkpt lat="43.91039" lon="7.22935">
        <ele>1180.636475</ele>
        <time>2009-05-31T08:32:10Z</time>
      </trkpt>
      <trkpt lat="43.9104" lon="7.22935">
        <ele>1179.674805</ele>
        <time>2009-05-31T08:32:35Z</time>
      </trkpt>
      <trkpt lat="43.91041" lon="7.22936">
        <ele>1176.791016</ele>
        <time>2009-05-31T08:33:00Z</time>
      </trkpt>
      <trkpt lat="43.91042" lon="7.22936">
        <ele>1175.82959</ele>
        <time>2009-05-31T08:33:22Z</time>
      </trkpt>
      <trkpt lat="43.91042" lon="7.22936">
        <ele>1175.82959</ele>
        <time>2009-05-31T08:33:27Z</time>
      </trkpt>
      <trkpt lat="43.91042" lon="7.22936">
        <ele>1176.310303</ele>
        <time>2009-05-31T08:33:39Z</time>
      </trkpt>
      <trkpt lat="43.91042" lon="7.22936">
        <ele>1180.636475</ele>
        <time>2009-05-31T08:35:14Z</time>
      </trkpt>
      <trkpt lat="43.91042" lon="7.22936">
        <ele>1180.636475</ele>
        <time>2009-05-31T08:35:15Z</time>
      </trkpt>
      <trkpt lat="43.9104" lon="7.22936">
        <ele>1180.155762</ele>
        <time>2009-05-31T08:35:35Z</time>
      </trkpt>
      <trkpt lat="43.91042" lon="7.22937">
        <ele>1176.791016</ele>
        <time>2009-05-31T08:35:48Z</time>
      </trkpt>
      <trkpt lat="43.91041" lon="7.22936">
        <ele>1176.310303</ele>
        <time>2009-05-31T08:35:50Z</time>
      </trkpt>
      <trkpt lat="43.91039" lon="7.22924">
        <ele>1175.82959</ele>
        <time>2009-05-31T08:35:55Z</time>
      </trkpt>
      <trkpt lat="43.91032" lon="7.22916">
        <ele>1175.82959</ele>
        <time>2009-05-31T08:35:58Z</time>
      </trkpt>
      <trkpt lat="43.91011" lon="7.22887">
        <ele>1175.82959</ele>
        <time>2009-05-31T08:36:06Z</time>
      </trkpt>
      <trkpt lat="43.90994" lon="7.22862">
        <ele>1176.310303</ele>
        <time>2009-05-31T08:36:12Z</time>
      </trkpt>
      <trkpt lat="43.90976" lon="7.22847">
        <ele>1176.310303</ele>
        <time>2009-05-31T08:36:18Z</time>
      </trkpt>
      <trkpt lat="43.90969" lon="7.22816">
        <ele>1175.82959</ele>
        <time>2009-05-31T08:36:27Z</time>
      </trkpt>
      <trkpt lat="43.90968" lon="7.22808">
        <ele>1173.906982</ele>
        <time>2009-05-31T08:36:31Z</time>
      </trkpt>
      <trkpt lat="43.90965" lon="7.22801">
        <ele>1173.906982</ele>
        <time>2009-05-31T08:36:36Z</time>
      </trkpt>
      <trkpt lat="43.90963" lon="7.22797">
        <ele>1171.984375</ele>
        <time>2009-05-31T08:36:41Z</time>
      </trkpt>
      <trkpt lat="43.90961" lon="7.22791">
        <ele>1168.13916</ele>
        <time>2009-05-31T08:36:47Z</time>
      </trkpt>
      <trkpt lat="43.90959" lon="7.22784">
        <ele>1165.736084</ele>
        <time>2009-05-31T08:36:54Z</time>
      </trkpt>
      <trkpt lat="43.90956" lon="7.22783">
        <ele>1164.293945</ele>
        <time>2009-05-31T08:36:59Z</time>
      </trkpt>
      <trkpt lat="43.90956" lon="7.22777">
        <ele>1163.812988</ele>
        <time>2009-05-31T08:37:03Z</time>
      </trkpt>
      <trkpt lat="43.90955" lon="7.2277">
        <ele>1164.293945</ele>
        <time>2009-05-31T08:37:08Z</time>
      </trkpt>
      <trkpt lat="43.90953" lon="7.22758">
        <ele>1165.255371</ele>
        <time>2009-05-31T08:37:15Z</time>
      </trkpt>
      <trkpt lat="43.90952" lon="7.22748">
        <ele>1165.736084</ele>
        <time>2009-05-31T08:37:22Z</time>
      </trkpt>
      <trkpt lat="43.9095" lon="7.2274">
        <ele>1164.774658</ele>
        <time>2009-05-31T08:37:28Z</time>
      </trkpt>
      <trkpt lat="43.90946" lon="7.22737">
        <ele>1162.851807</ele>
        <time>2009-05-31T08:37:34Z</time>
      </trkpt>
      <trkpt lat="43.90945" lon="7.22727">
        <ele>1160.448486</ele>
        <time>2009-05-31T08:37:41Z</time>
      </trkpt>
      <trkpt lat="43.90942" lon="7.2272">
        <ele>1159.487305</ele>
        <time>2009-05-31T08:37:45Z</time>
      </trkpt>
      <trkpt lat="43.90939" lon="7.22717">
        <ele>1157.564697</ele>
        <time>2009-05-31T08:37:51Z</time>
      </trkpt>
      <trkpt lat="43.90936" lon="7.22714">
        <ele>1155.64209</ele>
        <time>2009-05-31T08:37:55Z</time>
      </trkpt>
      <trkpt lat="43.90932" lon="7.22705">
        <ele>1153.719482</ele>
        <time>2009-05-31T08:38:00Z</time>
      </trkpt>
      <trkpt lat="43.90931" lon="7.22703">
        <ele>1153.719482</ele>
        <time>2009-05-31T08:38:01Z</time>
      </trkpt>
      <trkpt lat="43.90928" lon="7.22696">
        <ele>1154.200195</ele>
        <time>2009-05-31T08:38:04Z</time>
      </trkpt>
      <trkpt lat="43.90924" lon="7.22688">
        <ele>1154.200195</ele>
        <time>2009-05-31T08:38:08Z</time>
      </trkpt>
      <trkpt lat="43.90918" lon="7.22679">
        <ele>1153.23877</ele>
        <time>2009-05-31T08:38:15Z</time>
      </trkpt>
      <trkpt lat="43.9091" lon="7.2267">
        <ele>1151.316162</ele>
        <time>2009-05-31T08:38:19Z</time>
      </trkpt>
      <trkpt lat="43.90902" lon="7.22665">
        <ele>1148.912842</ele>
        <time>2009-05-31T08:38:23Z</time>
      </trkpt>
      <trkpt lat="43.90887" lon="7.22654">
        <ele>1143.625488</ele>
        <time>2009-05-31T08:38:29Z</time>
      </trkpt>
      <trkpt lat="43.90885" lon="7.22653">
        <ele>1143.144775</ele>
        <time>2009-05-31T08:38:30Z</time>
      </trkpt>
      <trkpt lat="43.90878" lon="7.22655">
        <ele>1139.780273</ele>
        <time>2009-05-31T08:38:34Z</time>
      </trkpt>
      <trkpt lat="43.90867" lon="7.22646">
        <ele>1135.935059</ele>
        <time>2009-05-31T08:38:40Z</time>
      </trkpt>
      <trkpt lat="43.90861" lon="7.22641">
        <ele>1133.531738</ele>
        <time>2009-05-31T08:38:44Z</time>
      </trkpt>
      <trkpt lat="43.90854" lon="7.22636">
        <ele>1130.647705</ele>
        <time>2009-05-31T08:38:49Z</time>
      </trkpt>
      <trkpt lat="43.90848" lon="7.22634">
        <ele>1128.244385</ele>
        <time>2009-05-31T08:38:52Z</time>
      </trkpt>
      <trkpt lat="43.90831" lon="7.22623">
        <ele>1121.99585</ele>
        <time>2009-05-31T08:38:59Z</time>
      </trkpt>
      <trkpt lat="43.90818" lon="7.22612">
        <ele>1117.669922</ele>
        <time>2009-05-31T08:39:03Z</time>
      </trkpt>
      <trkpt lat="43.90807" lon="7.22596">
        <ele>1115.266602</ele>
        <time>2009-05-31T08:39:07Z</time>
      </trkpt>
      <trkpt lat="43.90796" lon="7.22581">
        <ele>1112.863281</ele>
        <time>2009-05-31T08:39:12Z</time>
      </trkpt>
      <trkpt lat="43.90782" lon="7.22567">
        <ele>1109.979248</ele>
        <time>2009-05-31T08:39:16Z</time>
      </trkpt>
      <trkpt lat="43.90769" lon="7.22556">
        <ele>1107.095459</ele>
        <time>2009-05-31T08:39:20Z</time>
      </trkpt>
      <trkpt lat="43.90763" lon="7.22547">
        <ele>1105.172852</ele>
        <time>2009-05-31T08:39:25Z</time>
      </trkpt>
      <trkpt lat="43.90757" lon="7.22541">
        <ele>1104.692139</ele>
        <time>2009-05-31T08:39:29Z</time>
      </trkpt>
      <trkpt lat="43.90754" lon="7.22534">
        <ele>1104.692139</ele>
        <time>2009-05-31T08:39:35Z</time>
      </trkpt>
      <trkpt lat="43.90751" lon="7.22533">
        <ele>1104.21167</ele>
        <time>2009-05-31T08:39:40Z</time>
      </trkpt>
      <trkpt lat="43.90748" lon="7.2253">
        <ele>1101.80835</ele>
        <time>2009-05-31T08:39:47Z</time>
      </trkpt>
      <trkpt lat="43.90744" lon="7.22527">
        <ele>1100.846924</ele>
        <time>2009-05-31T08:39:53Z</time>
      </trkpt>
      <trkpt lat="43.9074" lon="7.22525">
        <ele>1099.404785</ele>
        <time>2009-05-31T08:39:57Z</time>
      </trkpt>
      <trkpt lat="43.90738" lon="7.22524">
        <ele>1098.924072</ele>
        <time>2009-05-31T08:39:58Z</time>
      </trkpt>
      <trkpt lat="43.90721" lon="7.22509">
        <ele>1094.598145</ele>
        <time>2009-05-31T08:40:04Z</time>
      </trkpt>
      <trkpt lat="43.90719" lon="7.22506">
        <ele>1094.117676</ele>
        <time>2009-05-31T08:40:05Z</time>
      </trkpt>
      <trkpt lat="43.90705" lon="7.22498">
        <ele>1089.311035</ele>
        <time>2009-05-31T08:40:12Z</time>
      </trkpt>
      <trkpt lat="43.90694" lon="7.22491">
        <ele>1084.504639</ele>
        <time>2009-05-31T08:40:17Z</time>
      </trkpt>
      <trkpt lat="43.90689" lon="7.22482">
        <ele>1082.581787</ele>
        <time>2009-05-31T08:40:22Z</time>
      </trkpt>
      <trkpt lat="43.90683" lon="7.22476">
        <ele>1079.697754</ele>
        <time>2009-05-31T08:40:28Z</time>
      </trkpt>
      <trkpt lat="43.90681" lon="7.22474">
        <ele>1078.255859</ele>
        <time>2009-05-31T08:40:30Z</time>
      </trkpt>
      <trkpt lat="43.90672" lon="7.22468">
        <ele>1075.371826</ele>
        <time>2009-05-31T08:40:34Z</time>
      </trkpt>
      <trkpt lat="43.90669" lon="7.22463">
        <ele>1073.929932</ele>
        <time>2009-05-31T08:40:37Z</time>
      </trkpt>
      <trkpt lat="43.90666" lon="7.22461">
        <ele>1072.007324</ele>
        <time>2009-05-31T08:40:39Z</time>
      </trkpt>
      <trkpt lat="43.90657" lon="7.22447">
        <ele>1069.604248</ele>
        <time>2009-05-31T08:40:43Z</time>
      </trkpt>
      <trkpt lat="43.90651" lon="7.22448">
        <ele>1066.239258</ele>
        <time>2009-05-31T08:40:48Z</time>
      </trkpt>
      <trkpt lat="43.90644" lon="7.2245">
        <ele>1064.31665</ele>
        <time>2009-05-31T08:40:51Z</time>
      </trkpt>
      <trkpt lat="43.90635" lon="7.22451">
        <ele>1060.471436</ele>
        <time>2009-05-31T08:40:56Z</time>
      </trkpt>
      <trkpt lat="43.90632" lon="7.2246">
        <ele>1059.029541</ele>
        <time>2009-05-31T08:40:58Z</time>
      </trkpt>
      <trkpt lat="43.90622" lon="7.22495">
        <ele>1052.300293</ele>
        <time>2009-05-31T08:41:04Z</time>
      </trkpt>
      <trkpt lat="43.90615" lon="7.2253">
        <ele>1044.12915</ele>
        <time>2009-05-31T08:41:09Z</time>
      </trkpt>
      <trkpt lat="43.90613" lon="7.22542">
        <ele>1041.72583</ele>
        <time>2009-05-31T08:41:11Z</time>
      </trkpt>
      <trkpt lat="43.90603" lon="7.22548">
        <ele>1036.919189</ele>
        <time>2009-05-31T08:41:15Z</time>
      </trkpt>
      <trkpt lat="43.9059" lon="7.22528">
        <ele>1034.996582</ele>
        <time>2009-05-31T08:41:19Z</time>
      </trkpt>
      <trkpt lat="43.90575" lon="7.22509">
        <ele>1030.189941</ele>
        <time>2009-05-31T08:41:23Z</time>
      </trkpt>
      <trkpt lat="43.90573" lon="7.22504">
        <ele>1029.228516</ele>
        <time>2009-05-31T08:41:24Z</time>
      </trkpt>
      <trkpt lat="43.90567" lon="7.22496">
        <ele>1026.825439</ele>
        <time>2009-05-31T08:41:26Z</time>
      </trkpt>
      <trkpt lat="43.90561" lon="7.22499">
        <ele>1022.980225</ele>
        <time>2009-05-31T08:41:30Z</time>
      </trkpt>
      <trkpt lat="43.90559" lon="7.22513">
        <ele>1020.576904</ele>
        <time>2009-05-31T08:41:32Z</time>
      </trkpt>
      <trkpt lat="43.90559" lon="7.22554">
        <ele>1012.405518</ele>
        <time>2009-05-31T08:41:38Z</time>
      </trkpt>
      <trkpt lat="43.90559" lon="7.22559">
        <ele>1010.963623</ele>
        <time>2009-05-31T08:41:39Z</time>
      </trkpt>
      <trkpt lat="43.90554" lon="7.22569">
        <ele>1006.156982</ele>
        <time>2009-05-31T08:41:43Z</time>
      </trkpt>
      <trkpt lat="43.90549" lon="7.2256">
        <ele>1005.195801</ele>
        <time>2009-05-31T08:41:45Z</time>
      </trkpt>
      <trkpt lat="43.9054" lon="7.22542">
        <ele>1000.38916</ele>
        <time>2009-05-31T08:41:48Z</time>
      </trkpt>
      <trkpt lat="43.90532" lon="7.22529">
        <ele>997.98584</ele>
        <time>2009-05-31T08:41:50Z</time>
      </trkpt>
      <trkpt lat="43.9052" lon="7.22505">
        <ele>998.466309</ele>
        <time>2009-05-31T08:41:53Z</time>
      </trkpt>
      <trkpt lat="43.90514" lon="7.22473">
        <ele>997.98584</ele>
        <time>2009-05-31T08:41:57Z</time>
      </trkpt>
      <trkpt lat="43.90511" lon="7.2246">
        <ele>997.98584</ele>
        <time>2009-05-31T08:41:59Z</time>
      </trkpt>
      <trkpt lat="43.90497" lon="7.22437">
        <ele>995.58252</ele>
        <time>2009-05-31T08:42:03Z</time>
      </trkpt>
      <trkpt lat="43.90488" lon="7.22417">
        <ele>993.179199</ele>
        <time>2009-05-31T08:42:06Z</time>
      </trkpt>
      <trkpt lat="43.90484" lon="7.224">
        <ele>990.775879</ele>
        <time>2009-05-31T08:42:08Z</time>
      </trkpt>
      <trkpt lat="43.90467" lon="7.22382">
        <ele>987.411133</ele>
        <time>2009-05-31T08:42:12Z</time>
      </trkpt>
      <trkpt lat="43.90425" lon="7.22363">
        <ele>980.682129</ele>
        <time>2009-05-31T08:42:18Z</time>
      </trkpt>
      <trkpt lat="43.90403" lon="7.22358">
        <ele>977.798096</ele>
        <time>2009-05-31T08:42:21Z</time>
      </trkpt>
      <trkpt lat="43.90371" lon="7.22345">
        <ele>973.472412</ele>
        <time>2009-05-31T08:42:25Z</time>
      </trkpt>
      <trkpt lat="43.90343" lon="7.22349">
        <ele>967.704102</ele>
        <time>2009-05-31T08:42:28Z</time>
      </trkpt>
      <trkpt lat="43.90294" lon="7.22366">
        <ele>962.416992</ele>
        <time>2009-05-31T08:42:33Z</time>
      </trkpt>
      <trkpt lat="43.90259" lon="7.22388">
        <ele>959.533203</ele>
        <time>2009-05-31T08:42:37Z</time>
      </trkpt>
      <trkpt lat="43.90233" lon="7.22411">
        <ele>959.533203</ele>
        <time>2009-05-31T08:42:41Z</time>
      </trkpt>
      <trkpt lat="43.90225" lon="7.22423">
        <ele>959.533203</ele>
        <time>2009-05-31T08:42:43Z</time>
      </trkpt>
      <trkpt lat="43.90202" lon="7.2246">
        <ele>959.533203</ele>
        <time>2009-05-31T08:42:50Z</time>
      </trkpt>
      <trkpt lat="43.90199" lon="7.22466">
        <ele>960.013672</ele>
        <time>2009-05-31T08:42:51Z</time>
      </trkpt>
      <trkpt lat="43.90199" lon="7.22494">
        <ele>960.494385</ele>
        <time>2009-05-31T08:42:55Z</time>
      </trkpt>
      <trkpt lat="43.90203" lon="7.22513">
        <ele>961.455811</ele>
        <time>2009-05-31T08:42:58Z</time>
      </trkpt>
      <trkpt lat="43.90206" lon="7.22532">
        <ele>961.455811</ele>
        <time>2009-05-31T08:43:02Z</time>
      </trkpt>
      <trkpt lat="43.90202" lon="7.22548">
        <ele>961.936523</ele>
        <time>2009-05-31T08:43:06Z</time>
      </trkpt>
      <trkpt lat="43.902" lon="7.2255">
        <ele>962.416992</ele>
        <time>2009-05-31T08:43:07Z</time>
      </trkpt>
      <trkpt lat="43.90189" lon="7.22552">
        <ele>967.223633</ele>
        <time>2009-05-31T08:43:14Z</time>
      </trkpt>
      <trkpt lat="43.90184" lon="7.22547">
        <ele>969.14624</ele>
        <time>2009-05-31T08:43:19Z</time>
      </trkpt>
      <trkpt lat="43.90178" lon="7.22539">
        <ele>972.030273</ele>
        <time>2009-05-31T08:43:26Z</time>
      </trkpt>
      <trkpt lat="43.90176" lon="7.22537">
        <ele>971.549316</ele>
        <time>2009-05-31T08:43:30Z</time>
      </trkpt>
      <trkpt lat="43.90171" lon="7.22539">
        <ele>971.549316</ele>
        <time>2009-05-31T08:43:34Z</time>
      </trkpt>
      <trkpt lat="43.90168" lon="7.22542">
        <ele>972.991699</ele>
        <time>2009-05-31T08:43:38Z</time>
      </trkpt>
      <trkpt lat="43.90162" lon="7.2255">
        <ele>976.356201</ele>
        <time>2009-05-31T08:43:45Z</time>
      </trkpt>
      <trkpt lat="43.90158" lon="7.2256">
        <ele>976.836914</ele>
        <time>2009-05-31T08:43:52Z</time>
      </trkpt>
      <trkpt lat="43.90149" lon="7.22563">
        <ele>982.604736</ele>
        <time>2009-05-31T08:44:00Z</time>
      </trkpt>
      <trkpt lat="43.90145" lon="7.2256">
        <ele>987.891846</ele>
        <time>2009-05-31T08:44:06Z</time>
      </trkpt>
      <trkpt lat="43.90141" lon="7.22561">
        <ele>990.29541</ele>
        <time>2009-05-31T08:44:12Z</time>
      </trkpt>
      <trkpt lat="43.90134" lon="7.22565">
        <ele>995.58252</ele>
        <time>2009-05-31T08:44:18Z</time>
      </trkpt>
      <trkpt lat="43.90127" lon="7.22568">
        <ele>1003.753662</ele>
        <time>2009-05-31T08:44:23Z</time>
      </trkpt>
      <trkpt lat="43.90116" lon="7.2257">
        <ele>1014.808838</ele>
        <time>2009-05-31T08:44:31Z</time>
      </trkpt>
      <trkpt lat="43.9011" lon="7.22569">
        <ele>1018.654053</ele>
        <time>2009-05-31T08:44:38Z</time>
      </trkpt>
      <trkpt lat="43.90104" lon="7.22567">
        <ele>1024.422119</ele>
        <time>2009-05-31T08:44:45Z</time>
      </trkpt>
      <trkpt lat="43.90097" lon="7.22564">
        <ele>1025.383301</ele>
        <time>2009-05-31T08:44:52Z</time>
      </trkpt>
      <trkpt lat="43.90092" lon="7.22561">
        <ele>1027.786621</ele>
        <time>2009-05-31T08:44:58Z</time>
      </trkpt>
      <trkpt lat="43.90091" lon="7.22561">
        <ele>1028.748047</ele>
        <time>2009-05-31T08:44:59Z</time>
      </trkpt>
      <trkpt lat="43.90088" lon="7.22557">
        <ele>1029.709229</ele>
        <time>2009-05-31T08:45:04Z</time>
      </trkpt>
      <trkpt lat="43.90082" lon="7.22552">
        <ele>1027.306152</ele>
        <time>2009-05-31T08:45:10Z</time>
      </trkpt>
      <trkpt lat="43.90075" lon="7.22552">
        <ele>1027.306152</ele>
        <time>2009-05-31T08:45:15Z</time>
      </trkpt>
      <trkpt lat="43.90063" lon="7.22544">
        <ele>1010.002197</ele>
        <time>2009-05-31T08:45:27Z</time>
      </trkpt>
      <trkpt lat="43.90059" lon="7.22543">
        <ele>1009.041016</ele>
        <time>2009-05-31T08:45:33Z</time>
      </trkpt>
      <trkpt lat="43.90046" lon="7.22545">
        <ele>1011.925049</ele>
        <time>2009-05-31T08:45:45Z</time>
      </trkpt>
      <trkpt lat="43.90044" lon="7.22546">
        <ele>1010.002197</ele>
        <time>2009-05-31T08:45:49Z</time>
      </trkpt>
      <trkpt lat="43.90041" lon="7.22548">
        <ele>1010.48291</ele>
        <time>2009-05-31T08:45:54Z</time>
      </trkpt>
      <trkpt lat="43.90039" lon="7.2255">
        <ele>1011.925049</ele>
        <time>2009-05-31T08:45:55Z</time>
      </trkpt>
      <trkpt lat="43.90035" lon="7.22563">
        <ele>1018.17334</ele>
        <time>2009-05-31T08:46:03Z</time>
      </trkpt>
      <trkpt lat="43.90034" lon="7.22569">
        <ele>1019.615479</ele>
        <time>2009-05-31T08:46:07Z</time>
      </trkpt>
      <trkpt lat="43.90027" lon="7.22575">
        <ele>1022.980225</ele>
        <time>2009-05-31T08:46:12Z</time>
      </trkpt>
      <trkpt lat="43.9002" lon="7.22583">
        <ele>1023.941406</ele>
        <time>2009-05-31T08:46:19Z</time>
      </trkpt>
      <trkpt lat="43.90016" lon="7.22592">
        <ele>1019.615479</ele>
        <time>2009-05-31T08:46:27Z</time>
      </trkpt>
      <trkpt lat="43.90008" lon="7.22596">
        <ele>1020.096191</ele>
        <time>2009-05-31T08:46:33Z</time>
      </trkpt>
      <trkpt lat="43.9" lon="7.22597">
        <ele>1021.538086</ele>
        <time>2009-05-31T08:46:39Z</time>
      </trkpt>
      <trkpt lat="43.89994" lon="7.22602">
        <ele>1026.344727</ele>
        <time>2009-05-31T08:46:44Z</time>
      </trkpt>
      <trkpt lat="43.89991" lon="7.22603">
        <ele>1023.460938</ele>
        <time>2009-05-31T08:46:50Z</time>
      </trkpt>
      <trkpt lat="43.89988" lon="7.22608">
        <ele>1023.941406</ele>
        <time>2009-05-31T08:46:54Z</time>
      </trkpt>
      <trkpt lat="43.89985" lon="7.22612">
        <ele>1024.422119</ele>
        <time>2009-05-31T08:46:58Z</time>
      </trkpt>
      <trkpt lat="43.89977" lon="7.22618">
        <ele>1026.344727</ele>
        <time>2009-05-31T08:47:05Z</time>
      </trkpt>
      <trkpt lat="43.89967" lon="7.22623">
        <ele>1028.748047</ele>
        <time>2009-05-31T08:47:11Z</time>
      </trkpt>
      <trkpt lat="43.89958" lon="7.22627">
        <ele>1028.267334</ele>
        <time>2009-05-31T08:47:18Z</time>
      </trkpt>
      <trkpt lat="43.89949" lon="7.22628">
        <ele>1026.344727</ele>
        <time>2009-05-31T08:47:24Z</time>
      </trkpt>
      <trkpt lat="43.89946" lon="7.22631">
        <ele>1024.902832</ele>
        <time>2009-05-31T08:47:27Z</time>
      </trkpt>
      <trkpt lat="43.89943" lon="7.22632">
        <ele>1024.902832</ele>
        <time>2009-05-31T08:47:29Z</time>
      </trkpt>
      <trkpt lat="43.89937" lon="7.22642">
        <ele>1022.980225</ele>
        <time>2009-05-31T08:47:37Z</time>
      </trkpt>
      <trkpt lat="43.89928" lon="7.22649">
        <ele>1024.902832</ele>
        <time>2009-05-31T08:47:45Z</time>
      </trkpt>
      <trkpt lat="43.89923" lon="7.22655">
        <ele>1030.189941</ele>
        <time>2009-05-31T08:47:49Z</time>
      </trkpt>
      <trkpt lat="43.89915" lon="7.22663">
        <ele>1035.477051</ele>
        <time>2009-05-31T08:47:56Z</time>
      </trkpt>
      <trkpt lat="43.89908" lon="7.22672">
        <ele>1034.515869</ele>
        <time>2009-05-31T08:48:04Z</time>
      </trkpt>
      <trkpt lat="43.89906" lon="7.22673">
        <ele>1033.554443</ele>
        <time>2009-05-31T08:48:05Z</time>
      </trkpt>
      <trkpt lat="43.89897" lon="7.22681">
        <ele>1034.515869</ele>
        <time>2009-05-31T08:48:13Z</time>
      </trkpt>
      <trkpt lat="43.8989" lon="7.22692">
        <ele>1033.554443</ele>
        <time>2009-05-31T08:48:22Z</time>
      </trkpt>
      <trkpt lat="43.89885" lon="7.22696">
        <ele>1034.996582</ele>
        <time>2009-05-31T08:48:27Z</time>
      </trkpt>
      <trkpt lat="43.89871" lon="7.22702">
        <ele>1034.996582</ele>
        <time>2009-05-31T08:48:38Z</time>
      </trkpt>
      <trkpt lat="43.89862" lon="7.22697">
        <ele>1037.399902</ele>
        <time>2009-05-31T08:48:47Z</time>
      </trkpt>
      <trkpt lat="43.89854" lon="7.22691">
        <ele>1038.842041</ele>
        <time>2009-05-31T08:48:55Z</time>
      </trkpt>
      <trkpt lat="43.89843" lon="7.22679">
        <ele>1039.32251</ele>
        <time>2009-05-31T08:49:05Z</time>
      </trkpt>
      <trkpt lat="43.8984" lon="7.22662">
        <ele>1039.803223</ele>
        <time>2009-05-31T08:49:12Z</time>
      </trkpt>
      <trkpt lat="43.89852" lon="7.2265">
        <ele>1039.32251</ele>
        <time>2009-05-31T08:49:18Z</time>
      </trkpt>
      <trkpt lat="43.89862" lon="7.22629">
        <ele>1038.842041</ele>
        <time>2009-05-31T08:49:24Z</time>
      </trkpt>
      <trkpt lat="43.8987" lon="7.22598">
        <ele>1039.803223</ele>
        <time>2009-05-31T08:49:32Z</time>
      </trkpt>
      <trkpt lat="43.89875" lon="7.22558">
        <ele>1042.206543</ele>
        <time>2009-05-31T08:49:43Z</time>
      </trkpt>
      <trkpt lat="43.89878" lon="7.22531">
        <ele>1044.12915</ele>
        <time>2009-05-31T08:49:51Z</time>
      </trkpt>
      <trkpt lat="43.89881" lon="7.225">
        <ele>1047.012939</ele>
        <time>2009-05-31T08:50:00Z</time>
      </trkpt>
      <trkpt lat="43.89877" lon="7.22478">
        <ele>1048.935547</ele>
        <time>2009-05-31T08:50:07Z</time>
      </trkpt>
      <trkpt lat="43.89873" lon="7.22447">
        <ele>1051.338867</ele>
        <time>2009-05-31T08:50:17Z</time>
      </trkpt>
      <trkpt lat="43.89869" lon="7.22422">
        <ele>1052.300293</ele>
        <time>2009-05-31T08:50:24Z</time>
      </trkpt>
      <trkpt lat="43.89866" lon="7.22398">
        <ele>1053.261719</ele>
        <time>2009-05-31T08:50:31Z</time>
      </trkpt>
      <trkpt lat="43.89862" lon="7.22383">
        <ele>1053.742432</ele>
        <time>2009-05-31T08:50:36Z</time>
      </trkpt>
      <trkpt lat="43.89857" lon="7.22366">
        <ele>1055.184326</ele>
        <time>2009-05-31T08:50:42Z</time>
      </trkpt>
      <trkpt lat="43.89851" lon="7.22341">
        <ele>1056.145508</ele>
        <time>2009-05-31T08:50:50Z</time>
      </trkpt>
      <trkpt lat="43.89838" lon="7.22312">
        <ele>1056.145508</ele>
        <time>2009-05-31T08:50:57Z</time>
      </trkpt>
      <trkpt lat="43.89829" lon="7.2228">
        <ele>1054.703613</ele>
        <time>2009-05-31T08:51:03Z</time>
      </trkpt>
      <trkpt lat="43.89827" lon="7.22274">
        <ele>1054.703613</ele>
        <time>2009-05-31T08:51:04Z</time>
      </trkpt>
      <trkpt lat="43.89819" lon="7.22225">
        <ele>1054.703613</ele>
        <time>2009-05-31T08:51:11Z</time>
      </trkpt>
      <trkpt lat="43.89818" lon="7.22219">
        <ele>1054.703613</ele>
        <time>2009-05-31T08:51:12Z</time>
      </trkpt>
      <trkpt lat="43.89804" lon="7.22177">
        <ele>1055.184326</ele>
        <time>2009-05-31T08:51:19Z</time>
      </trkpt>
      <trkpt lat="43.89798" lon="7.22158">
        <ele>1056.145508</ele>
        <time>2009-05-31T08:51:23Z</time>
      </trkpt>
      <trkpt lat="43.89791" lon="7.22144">
        <ele>1056.145508</ele>
        <time>2009-05-31T08:51:26Z</time>
      </trkpt>
      <trkpt lat="43.89781" lon="7.22112">
        <ele>1057.106934</ele>
        <time>2009-05-31T08:51:33Z</time>
      </trkpt>
      <trkpt lat="43.89772" lon="7.22075">
        <ele>1057.106934</ele>
        <time>2009-05-31T08:51:40Z</time>
      </trkpt>
      <trkpt lat="43.89767" lon="7.2204">
        <ele>1058.548828</ele>
        <time>2009-05-31T08:51:47Z</time>
      </trkpt>
      <trkpt lat="43.89761" lon="7.22017">
        <ele>1059.510254</ele>
        <time>2009-05-31T08:51:52Z</time>
      </trkpt>
      <trkpt lat="43.89748" lon="7.21989">
        <ele>1060.952148</ele>
        <time>2009-05-31T08:51:59Z</time>
      </trkpt>
      <trkpt lat="43.89735" lon="7.2196">
        <ele>1061.913574</ele>
        <time>2009-05-31T08:52:06Z</time>
      </trkpt>
      <trkpt lat="43.89725" lon="7.21937">
        <ele>1061.913574</ele>
        <time>2009-05-31T08:52:11Z</time>
      </trkpt>
      <trkpt lat="43.89713" lon="7.21901">
        <ele>1061.432861</ele>
        <time>2009-05-31T08:52:17Z</time>
      </trkpt>
      <trkpt lat="43.89706" lon="7.2188">
        <ele>1060.471436</ele>
        <time>2009-05-31T08:52:21Z</time>
      </trkpt>
      <trkpt lat="43.89702" lon="7.21854">
        <ele>1059.510254</ele>
        <time>2009-05-31T08:52:26Z</time>
      </trkpt>
      <trkpt lat="43.89698" lon="7.21838">
        <ele>1057.587646</ele>
        <time>2009-05-31T08:52:29Z</time>
      </trkpt>
      <trkpt lat="43.89682" lon="7.21814">
        <ele>1053.261719</ele>
        <time>2009-05-31T08:52:35Z</time>
      </trkpt>
      <trkpt lat="43.89677" lon="7.21789">
        <ele>1050.858154</ele>
        <time>2009-05-31T08:52:39Z</time>
      </trkpt>
      <trkpt lat="43.89679" lon="7.21774">
        <ele>1049.41626</ele>
        <time>2009-05-31T08:52:43Z</time>
      </trkpt>
      <trkpt lat="43.89677" lon="7.21771">
        <ele>1047.493652</ele>
        <time>2009-05-31T08:52:48Z</time>
      </trkpt>
      <trkpt lat="43.89676" lon="7.21771">
        <ele>1046.051758</ele>
        <time>2009-05-31T08:52:50Z</time>
      </trkpt>
      <trkpt lat="43.89668" lon="7.21768">
        <ele>1043.167725</ele>
        <time>2009-05-31T08:52:55Z</time>
      </trkpt>
      <trkpt lat="43.89656" lon="7.21764">
        <ele>1040.283936</ele>
        <time>2009-05-31T08:52:59Z</time>
      </trkpt>
      <trkpt lat="43.89639" lon="7.2176">
        <ele>1036.438721</ele>
        <time>2009-05-31T08:53:05Z</time>
      </trkpt>
      <trkpt lat="43.89634" lon="7.21758">
        <ele>1036.919189</ele>
        <time>2009-05-31T08:53:08Z</time>
      </trkpt>
      <trkpt lat="43.89627" lon="7.21753">
        <ele>1037.880615</ele>
        <time>2009-05-31T08:53:12Z</time>
      </trkpt>
      <trkpt lat="43.89612" lon="7.21745">
        <ele>1037.399902</ele>
        <time>2009-05-31T08:53:17Z</time>
      </trkpt>
      <trkpt lat="43.89595" lon="7.21727">
        <ele>1035.957764</ele>
        <time>2009-05-31T08:53:21Z</time>
      </trkpt>
      <trkpt lat="43.89592" lon="7.21721">
        <ele>1034.996582</ele>
        <time>2009-05-31T08:53:22Z</time>
      </trkpt>
      <trkpt lat="43.89574" lon="7.21698">
        <ele>1031.631836</ele>
        <time>2009-05-31T08:53:27Z</time>
      </trkpt>
      <trkpt lat="43.89568" lon="7.21687">
        <ele>1030.189941</ele>
        <time>2009-05-31T08:53:29Z</time>
      </trkpt>
      <trkpt lat="43.89557" lon="7.21652">
        <ele>1020.096191</ele>
        <time>2009-05-31T08:53:35Z</time>
      </trkpt>
      <trkpt lat="43.89555" lon="7.21641">
        <ele>1017.692627</ele>
        <time>2009-05-31T08:53:37Z</time>
      </trkpt>
      <trkpt lat="43.89553" lon="7.21616">
        <ele>1008.560303</ele>
        <time>2009-05-31T08:53:42Z</time>
      </trkpt>
      <trkpt lat="43.89549" lon="7.21604">
        <ele>1006.156982</ele>
        <time>2009-05-31T08:53:44Z</time>
      </trkpt>
      <trkpt lat="43.89536" lon="7.21583">
        <ele>1001.831055</ele>
        <time>2009-05-31T08:53:48Z</time>
      </trkpt>
      <trkpt lat="43.89528" lon="7.21568">
        <ele>997.98584</ele>
        <time>2009-05-31T08:53:53Z</time>
      </trkpt>
      <trkpt lat="43.89524" lon="7.21559">
        <ele>997.505127</ele>
        <time>2009-05-31T08:53:55Z</time>
      </trkpt>
      <trkpt lat="43.8952" lon="7.21539">
        <ele>993.659912</ele>
        <time>2009-05-31T08:54:00Z</time>
      </trkpt>
      <trkpt lat="43.89521" lon="7.21516">
        <ele>986.449951</ele>
        <time>2009-05-31T08:54:05Z</time>
      </trkpt>
      <trkpt lat="43.89523" lon="7.21493">
        <ele>983.085205</ele>
        <time>2009-05-31T08:54:09Z</time>
      </trkpt>
      <trkpt lat="43.89523" lon="7.21469">
        <ele>980.201416</ele>
        <time>2009-05-31T08:54:13Z</time>
      </trkpt>
      <trkpt lat="43.89516" lon="7.21427">
        <ele>975.875488</ele>
        <time>2009-05-31T08:54:19Z</time>
      </trkpt>
      <trkpt lat="43.89515" lon="7.21419">
        <ele>972.991699</ele>
        <time>2009-05-31T08:54:20Z</time>
      </trkpt>
      <trkpt lat="43.89511" lon="7.21392">
        <ele>971.068848</ele>
        <time>2009-05-31T08:54:25Z</time>
      </trkpt>
      <trkpt lat="43.89508" lon="7.2136">
        <ele>977.317627</ele>
        <time>2009-05-31T08:54:34Z</time>
      </trkpt>
      <trkpt lat="43.89509" lon="7.21331">
        <ele>972.510986</ele>
        <time>2009-05-31T08:54:39Z</time>
      </trkpt>
      <trkpt lat="43.89508" lon="7.21323">
        <ele>970.107422</ele>
        <time>2009-05-31T08:54:41Z</time>
      </trkpt>
      <trkpt lat="43.8951" lon="7.21304">
        <ele>964.3396</ele>
        <time>2009-05-31T08:54:46Z</time>
      </trkpt>
      <trkpt lat="43.89511" lon="7.21285">
        <ele>961.455811</ele>
        <time>2009-05-31T08:54:50Z</time>
      </trkpt>
      <trkpt lat="43.8951" lon="7.21277">
        <ele>961.936523</ele>
        <time>2009-05-31T08:54:54Z</time>
      </trkpt>
      <trkpt lat="43.89507" lon="7.21263">
        <ele>961.455811</ele>
        <time>2009-05-31T08:54:59Z</time>
      </trkpt>
      <trkpt lat="43.89507" lon="7.21261">
        <ele>961.455811</ele>
        <time>2009-05-31T08:55:00Z</time>
      </trkpt>
      <trkpt lat="43.89507" lon="7.21256">
        <ele>960.494385</ele>
        <time>2009-05-31T08:55:02Z</time>
      </trkpt>
      <trkpt lat="43.89503" lon="7.21236">
        <ele>960.494385</ele>
        <time>2009-05-31T08:55:07Z</time>
      </trkpt>
      <trkpt lat="43.89497" lon="7.21223">
        <ele>959.533203</ele>
        <time>2009-05-31T08:55:11Z</time>
      </trkpt>
      <trkpt lat="43.89495" lon="7.2122">
        <ele>959.533203</ele>
        <time>2009-05-31T08:55:12Z</time>
      </trkpt>
      <trkpt lat="43.89491" lon="7.21217">
        <ele>960.013672</ele>
        <time>2009-05-31T08:55:14Z</time>
      </trkpt>
      <trkpt lat="43.89482" lon="7.21204">
        <ele>956.64917</ele>
        <time>2009-05-31T08:55:20Z</time>
      </trkpt>
      <trkpt lat="43.89474" lon="7.21193">
        <ele>954.24585</ele>
        <time>2009-05-31T08:55:24Z</time>
      </trkpt>
      <trkpt lat="43.89463" lon="7.21183">
        <ele>952.803711</ele>
        <time>2009-05-31T08:55:29Z</time>
      </trkpt>
      <trkpt lat="43.89453" lon="7.21173">
        <ele>951.842529</ele>
        <time>2009-05-31T08:55:34Z</time>
      </trkpt>
      <trkpt lat="43.89442" lon="7.21166">
        <ele>952.803711</ele>
        <time>2009-05-31T08:55:39Z</time>
      </trkpt>
      <trkpt lat="43.89426" lon="7.21157">
        <ele>953.284424</ele>
        <time>2009-05-31T08:55:44Z</time>
      </trkpt>
      <trkpt lat="43.8941" lon="7.21136">
        <ele>954.726318</ele>
        <time>2009-05-31T08:55:49Z</time>
      </trkpt>
      <trkpt lat="43.89404" lon="7.2113">
        <ele>953.765137</ele>
        <time>2009-05-31T08:55:51Z</time>
      </trkpt>
      <trkpt lat="43.89396" lon="7.21121">
        <ele>954.726318</ele>
        <time>2009-05-31T08:55:53Z</time>
      </trkpt>
      <trkpt lat="43.89373" lon="7.21101">
        <ele>952.322998</ele>
        <time>2009-05-31T08:55:59Z</time>
      </trkpt>
      <trkpt lat="43.89369" lon="7.21097">
        <ele>951.361816</ele>
        <time>2009-05-31T08:56:00Z</time>
      </trkpt>
      <trkpt lat="43.89357" lon="7.21088">
        <ele>948.958496</ele>
        <time>2009-05-31T08:56:03Z</time>
      </trkpt>
      <trkpt lat="43.89341" lon="7.21076">
        <ele>948.477783</ele>
        <time>2009-05-31T08:56:06Z</time>
      </trkpt>
      <trkpt lat="43.89329" lon="7.2107">
        <ele>947.997314</ele>
        <time>2009-05-31T08:56:08Z</time>
      </trkpt>
      <trkpt lat="43.89321" lon="7.21061">
        <ele>947.035889</ele>
        <time>2009-05-31T08:56:10Z</time>
      </trkpt>
      <trkpt lat="43.89303" lon="7.21047">
        <ele>944.1521</ele>
        <time>2009-05-31T08:56:14Z</time>
      </trkpt>
      <trkpt lat="43.89297" lon="7.21042">
        <ele>943.190674</ele>
        <time>2009-05-31T08:56:15Z</time>
      </trkpt>
      <trkpt lat="43.89277" lon="7.21031">
        <ele>940.787354</ele>
        <time>2009-05-31T08:56:18Z</time>
      </trkpt>
      <trkpt lat="43.89256" lon="7.21023">
        <ele>937.422607</ele>
        <time>2009-05-31T08:56:22Z</time>
      </trkpt>
      <trkpt lat="43.89244" lon="7.21017">
        <ele>935.019531</ele>
        <time>2009-05-31T08:56:24Z</time>
      </trkpt>
      <trkpt lat="43.89234" lon="7.21013">
        <ele>933.09668</ele>
        <time>2009-05-31T08:56:26Z</time>
      </trkpt>
      <trkpt lat="43.89223" lon="7.21002">
        <ele>929.251465</ele>
        <time>2009-05-31T08:56:31Z</time>
      </trkpt>
      <trkpt lat="43.89209" lon="7.20987">
        <ele>923.483643</ele>
        <time>2009-05-31T08:56:36Z</time>
      </trkpt>
      <trkpt lat="43.89194" lon="7.20971">
        <ele>920.118896</ele>
        <time>2009-05-31T08:56:40Z</time>
      </trkpt>
      <trkpt lat="43.8919" lon="7.20966">
        <ele>918.677002</ele>
        <time>2009-05-31T08:56:41Z</time>
      </trkpt>
      <trkpt lat="43.89177" lon="7.20959">
        <ele>917.235107</ele>
        <time>2009-05-31T08:56:43Z</time>
      </trkpt>
      <trkpt lat="43.89141" lon="7.20951">
        <ele>914.351074</ele>
        <time>2009-05-31T08:56:48Z</time>
      </trkpt>
      <trkpt lat="43.8913" lon="7.20947">
        <ele>913.870361</ele>
        <time>2009-05-31T08:56:50Z</time>
      </trkpt>
      <trkpt lat="43.89114" lon="7.20945">
        <ele>914.351074</ele>
        <time>2009-05-31T08:56:53Z</time>
      </trkpt>
      <trkpt lat="43.891" lon="7.2094">
        <ele>914.831787</ele>
        <time>2009-05-31T08:56:57Z</time>
      </trkpt>
      <trkpt lat="43.89079" lon="7.20922">
        <ele>912.90918</ele>
        <time>2009-05-31T08:57:02Z</time>
      </trkpt>
      <trkpt lat="43.89073" lon="7.20918">
        <ele>912.428467</ele>
        <time>2009-05-31T08:57:03Z</time>
      </trkpt>
      <trkpt lat="43.89063" lon="7.20901">
        <ele>911.467285</ele>
        <time>2009-05-31T08:57:06Z</time>
      </trkpt>
      <trkpt lat="43.89048" lon="7.20878">
        <ele>910.505859</ele>
        <time>2009-05-31T08:57:10Z</time>
      </trkpt>
      <trkpt lat="43.89046" lon="7.20871">
        <ele>910.025146</ele>
        <time>2009-05-31T08:57:11Z</time>
      </trkpt>
      <trkpt lat="43.89042" lon="7.20853">
        <ele>910.505859</ele>
        <time>2009-05-31T08:57:16Z</time>
      </trkpt>
      <trkpt lat="43.89036" lon="7.20832">
        <ele>910.505859</ele>
        <time>2009-05-31T08:57:21Z</time>
      </trkpt>
      <trkpt lat="43.89031" lon="7.20824">
        <ele>911.947998</ele>
        <time>2009-05-31T08:57:24Z</time>
      </trkpt>
      <trkpt lat="43.89026" lon="7.20811">
        <ele>912.90918</ele>
        <time>2009-05-31T08:57:29Z</time>
      </trkpt>
      <trkpt lat="43.89013" lon="7.20797">
        <ele>911.947998</ele>
        <time>2009-05-31T08:57:35Z</time>
      </trkpt>
      <trkpt lat="43.88998" lon="7.2079">
        <ele>909.544678</ele>
        <time>2009-05-31T08:57:39Z</time>
      </trkpt>
      <trkpt lat="43.88982" lon="7.20782">
        <ele>905.699219</ele>
        <time>2009-05-31T08:57:43Z</time>
      </trkpt>
      <trkpt lat="43.88973" lon="7.20779">
        <ele>903.776611</ele>
        <time>2009-05-31T08:57:45Z</time>
      </trkpt>
      <trkpt lat="43.88958" lon="7.20767">
        <ele>898.969971</ele>
        <time>2009-05-31T08:57:49Z</time>
      </trkpt>
      <trkpt lat="43.88954" lon="7.20764">
        <ele>898.008789</ele>
        <time>2009-05-31T08:57:50Z</time>
      </trkpt>
      <trkpt lat="43.88935" lon="7.20746">
        <ele>891.76001</ele>
        <time>2009-05-31T08:57:56Z</time>
      </trkpt>
      <trkpt lat="43.88929" lon="7.2074">
        <ele>888.876221</ele>
        <time>2009-05-31T08:57:59Z</time>
      </trkpt>
      <trkpt lat="43.88926" lon="7.2074">
        <ele>886.4729</ele>
        <time>2009-05-31T08:58:04Z</time>
      </trkpt>
      <trkpt lat="43.88923" lon="7.20737">
        <ele>884.550293</ele>
        <time>2009-05-31T08:58:10Z</time>
      </trkpt>
      <trkpt lat="43.88921" lon="7.20735">
        <ele>884.06958</ele>
        <time>2009-05-31T08:58:12Z</time>
      </trkpt>
      <trkpt lat="43.88914" lon="7.20724">
        <ele>880.224365</ele>
        <time>2009-05-31T08:58:17Z</time>
      </trkpt>
      <trkpt lat="43.88895" lon="7.20708">
        <ele>876.859863</ele>
        <time>2009-05-31T08:58:22Z</time>
      </trkpt>
      <trkpt lat="43.88876" lon="7.20695">
        <ele>873.495117</ele>
        <time>2009-05-31T08:58:26Z</time>
      </trkpt>
      <trkpt lat="43.88871" lon="7.20692">
        <ele>872.052979</ele>
        <time>2009-05-31T08:58:27Z</time>
      </trkpt>
      <trkpt lat="43.88848" lon="7.20684">
        <ele>867.727051</ele>
        <time>2009-05-31T08:58:32Z</time>
      </trkpt>
      <trkpt lat="43.88843" lon="7.20668">
        <ele>865.804688</ele>
        <time>2009-05-31T08:58:35Z</time>
      </trkpt>
      <trkpt lat="43.88843" lon="7.20653">
        <ele>864.843262</ele>
        <time>2009-05-31T08:58:37Z</time>
      </trkpt>
      <trkpt lat="43.88847" lon="7.20602">
        <ele>856.671875</ele>
        <time>2009-05-31T08:58:43Z</time>
      </trkpt>
      <trkpt lat="43.8886" lon="7.20565">
        <ele>849.942871</ele>
        <time>2009-05-31T08:58:47Z</time>
      </trkpt>
      <trkpt lat="43.88861" lon="7.20527">
        <ele>843.213379</ele>
        <time>2009-05-31T08:58:52Z</time>
      </trkpt>
      <trkpt lat="43.88846" lon="7.20508">
        <ele>842.73291</ele>
        <time>2009-05-31T08:58:55Z</time>
      </trkpt>
      <trkpt lat="43.88821" lon="7.20492">
        <ele>843.213379</ele>
        <time>2009-05-31T08:58:59Z</time>
      </trkpt>
      <trkpt lat="43.88804" lon="7.20479">
        <ele>841.290771</ele>
        <time>2009-05-31T08:59:02Z</time>
      </trkpt>
      <trkpt lat="43.88788" lon="7.20468">
        <ele>839.368164</ele>
        <time>2009-05-31T08:59:05Z</time>
      </trkpt>
      <trkpt lat="43.88769" lon="7.20461">
        <ele>836.003662</ele>
        <time>2009-05-31T08:59:08Z</time>
      </trkpt>
      <trkpt lat="43.88741" lon="7.20449">
        <ele>830.23584</ele>
        <time>2009-05-31T08:59:12Z</time>
      </trkpt>
      <trkpt lat="43.88715" lon="7.20449">
        <ele>827.351807</ele>
        <time>2009-05-31T08:59:16Z</time>
      </trkpt>
      <trkpt lat="43.88686" lon="7.20453">
        <ele>825.428955</ele>
        <time>2009-05-31T08:59:21Z</time>
      </trkpt>
      <trkpt lat="43.88661" lon="7.20459">
        <ele>818.219238</ele>
        <time>2009-05-31T08:59:26Z</time>
      </trkpt>
      <trkpt lat="43.88652" lon="7.20462">
        <ele>815.816162</ele>
        <time>2009-05-31T08:59:28Z</time>
      </trkpt>
      <trkpt lat="43.88633" lon="7.20468">
        <ele>813.893311</ele>
        <time>2009-05-31T08:59:32Z</time>
      </trkpt>
      <trkpt lat="43.88614" lon="7.2047">
        <ele>811.48999</ele>
        <time>2009-05-31T08:59:35Z</time>
      </trkpt>
      <trkpt lat="43.88595" lon="7.20468">
        <ele>810.528564</ele>
        <time>2009-05-31T08:59:39Z</time>
      </trkpt>
      <trkpt lat="43.88593" lon="7.20468">
        <ele>810.047852</ele>
        <time>2009-05-31T08:59:42Z</time>
      </trkpt>
      <trkpt lat="43.88589" lon="7.20469">
        <ele>809.567383</ele>
        <time>2009-05-31T08:59:47Z</time>
      </trkpt>
      <trkpt lat="43.88583" lon="7.20469">
        <ele>809.08667</ele>
        <time>2009-05-31T08:59:52Z</time>
      </trkpt>
      <trkpt lat="43.88568" lon="7.20467">
        <ele>807.644775</ele>
        <time>2009-05-31T08:59:57Z</time>
      </trkpt>
      <trkpt lat="43.88554" lon="7.20468">
        <ele>805.722168</ele>
        <time>2009-05-31T09:00:01Z</time>
      </trkpt>
      <trkpt lat="43.88533" lon="7.20475">
        <ele>805.241455</ele>
        <time>2009-05-31T09:00:06Z</time>
      </trkpt>
      <trkpt lat="43.88518" lon="7.20477">
        <ele>803.799561</ele>
        <time>2009-05-31T09:00:10Z</time>
      </trkpt>
      <trkpt lat="43.88493" lon="7.20475">
        <ele>804.280273</ele>
        <time>2009-05-31T09:00:15Z</time>
      </trkpt>
      <trkpt lat="43.88478" lon="7.20474">
        <ele>807.644775</ele>
        <time>2009-05-31T09:00:20Z</time>
      </trkpt>
      <trkpt lat="43.88464" lon="7.20479">
        <ele>809.567383</ele>
        <time>2009-05-31T09:00:24Z</time>
      </trkpt>
      <trkpt lat="43.88452" lon="7.20496">
        <ele>810.047852</ele>
        <time>2009-05-31T09:00:28Z</time>
      </trkpt>
      <trkpt lat="43.8844" lon="7.20515">
        <ele>810.047852</ele>
        <time>2009-05-31T09:00:33Z</time>
      </trkpt>
      <trkpt lat="43.88423" lon="7.20531">
        <ele>809.08667</ele>
        <time>2009-05-31T09:00:38Z</time>
      </trkpt>
      <trkpt lat="43.88405" lon="7.20546">
        <ele>807.164063</ele>
        <time>2009-05-31T09:00:44Z</time>
      </trkpt>
      <trkpt lat="43.88389" lon="7.20559">
        <ele>809.567383</ele>
        <time>2009-05-31T09:00:49Z</time>
      </trkpt>
      <trkpt lat="43.88372" lon="7.20573">
        <ele>813.412842</ele>
        <time>2009-05-31T09:00:56Z</time>
      </trkpt>
      <trkpt lat="43.88357" lon="7.20584">
        <ele>813.412842</ele>
        <time>2009-05-31T09:01:01Z</time>
      </trkpt>
      <trkpt lat="43.88342" lon="7.20592">
        <ele>812.451416</ele>
        <time>2009-05-31T09:01:06Z</time>
      </trkpt>
      <trkpt lat="43.88325" lon="7.20597">
        <ele>812.451416</ele>
        <time>2009-05-31T09:01:11Z</time>
      </trkpt>
      <trkpt lat="43.88311" lon="7.20601">
        <ele>814.374023</ele>
        <time>2009-05-31T09:01:16Z</time>
      </trkpt>
      <trkpt lat="43.88298" lon="7.20603">
        <ele>815.335449</ele>
        <time>2009-05-31T09:01:22Z</time>
      </trkpt>
      <trkpt lat="43.88278" lon="7.20611">
        <ele>815.816162</ele>
        <time>2009-05-31T09:01:28Z</time>
      </trkpt>
      <trkpt lat="43.88258" lon="7.20623">
        <ele>815.335449</ele>
        <time>2009-05-31T09:01:32Z</time>
      </trkpt>
      <trkpt lat="43.88235" lon="7.2063">
        <ele>815.335449</ele>
        <time>2009-05-31T09:01:36Z</time>
      </trkpt>
      <trkpt lat="43.88218" lon="7.20638">
        <ele>814.374023</ele>
        <time>2009-05-31T09:01:39Z</time>
      </trkpt>
      <trkpt lat="43.88204" lon="7.20656">
        <ele>814.854736</ele>
        <time>2009-05-31T09:01:43Z</time>
      </trkpt>
      <trkpt lat="43.88195" lon="7.20655">
        <ele>813.412842</ele>
        <time>2009-05-31T09:01:46Z</time>
      </trkpt>
      <trkpt lat="43.88177" lon="7.20654">
        <ele>812.932129</ele>
        <time>2009-05-31T09:01:50Z</time>
      </trkpt>
      <trkpt lat="43.88151" lon="7.20653">
        <ele>811.970703</ele>
        <time>2009-05-31T09:01:55Z</time>
      </trkpt>
      <trkpt lat="43.88134" lon="7.20654">
        <ele>811.48999</ele>
        <time>2009-05-31T09:01:58Z</time>
      </trkpt>
      <trkpt lat="43.88123" lon="7.20651">
        <ele>811.009277</ele>
        <time>2009-05-31T09:02:00Z</time>
      </trkpt>
      <trkpt lat="43.88095" lon="7.20645">
        <ele>813.412842</ele>
        <time>2009-05-31T09:02:05Z</time>
      </trkpt>
      <trkpt lat="43.88066" lon="7.20636">
        <ele>814.374023</ele>
        <time>2009-05-31T09:02:11Z</time>
      </trkpt>
      <trkpt lat="43.88062" lon="7.20636">
        <ele>814.374023</ele>
        <time>2009-05-31T09:02:12Z</time>
      </trkpt>
      <trkpt lat="43.88053" lon="7.20634">
        <ele>814.374023</ele>
        <time>2009-05-31T09:02:14Z</time>
      </trkpt>
      <trkpt lat="43.88036" lon="7.20636">
        <ele>814.374023</ele>
        <time>2009-05-31T09:02:18Z</time>
      </trkpt>
      <trkpt lat="43.88017" lon="7.20638">
        <ele>815.335449</ele>
        <time>2009-05-31T09:02:22Z</time>
      </trkpt>
      <trkpt lat="43.87997" lon="7.20634">
        <ele>814.854736</ele>
        <time>2009-05-31T09:02:26Z</time>
      </trkpt>
      <trkpt lat="43.87968" lon="7.20623">
        <ele>811.009277</ele>
        <time>2009-05-31T09:02:32Z</time>
      </trkpt>
      <trkpt lat="43.87947" lon="7.20625">
        <ele>810.047852</ele>
        <time>2009-05-31T09:02:36Z</time>
      </trkpt>
      <trkpt lat="43.87941" lon="7.20625">
        <ele>810.047852</ele>
        <time>2009-05-31T09:02:37Z</time>
      </trkpt>
      <trkpt lat="43.87929" lon="7.20627">
        <ele>808.605957</ele>
        <time>2009-05-31T09:02:39Z</time>
      </trkpt>
      <trkpt lat="43.87917" lon="7.20628">
        <ele>807.644775</ele>
        <time>2009-05-31T09:02:41Z</time>
      </trkpt>
      <trkpt lat="43.87901" lon="7.20633">
        <ele>806.68335</ele>
        <time>2009-05-31T09:02:44Z</time>
      </trkpt>
      <trkpt lat="43.8788" lon="7.2065">
        <ele>804.280273</ele>
        <time>2009-05-31T09:02:49Z</time>
      </trkpt>
      <trkpt lat="43.87868" lon="7.20667">
        <ele>802.838135</ele>
        <time>2009-05-31T09:02:52Z</time>
      </trkpt>
      <trkpt lat="43.8786" lon="7.20696">
        <ele>801.39624</ele>
        <time>2009-05-31T09:02:57Z</time>
      </trkpt>
      <trkpt lat="43.87848" lon="7.20715">
        <ele>800.435059</ele>
        <time>2009-05-31T09:03:01Z</time>
      </trkpt>
      <trkpt lat="43.87836" lon="7.20724">
        <ele>799.473633</ele>
        <time>2009-05-31T09:03:04Z</time>
      </trkpt>
      <trkpt lat="43.87827" lon="7.20736">
        <ele>799.473633</ele>
        <time>2009-05-31T09:03:06Z</time>
      </trkpt>
      <trkpt lat="43.87799" lon="7.20754">
        <ele>799.954346</ele>
        <time>2009-05-31T09:03:11Z</time>
      </trkpt>
      <trkpt lat="43.87787" lon="7.2076">
        <ele>799.473633</ele>
        <time>2009-05-31T09:03:13Z</time>
      </trkpt>
      <trkpt lat="43.87774" lon="7.20761">
        <ele>798.512207</ele>
        <time>2009-05-31T09:03:15Z</time>
      </trkpt>
      <trkpt lat="43.87743" lon="7.20777">
        <ele>798.031738</ele>
        <time>2009-05-31T09:03:20Z</time>
      </trkpt>
      <trkpt lat="43.87714" lon="7.20786">
        <ele>797.070313</ele>
        <time>2009-05-31T09:03:24Z</time>
      </trkpt>
      <trkpt lat="43.87706" lon="7.20789">
        <ele>796.109131</ele>
        <time>2009-05-31T09:03:25Z</time>
      </trkpt>
      <trkpt lat="43.8768" lon="7.20801">
        <ele>793.224854</ele>
        <time>2009-05-31T09:03:29Z</time>
      </trkpt>
      <trkpt lat="43.87659" lon="7.2081">
        <ele>789.379639</ele>
        <time>2009-05-31T09:03:33Z</time>
      </trkpt>
      <trkpt lat="43.87648" lon="7.20809">
        <ele>786.976318</ele>
        <time>2009-05-31T09:03:35Z</time>
      </trkpt>
      <trkpt lat="43.87614" lon="7.20806">
        <ele>778.324463</ele>
        <time>2009-05-31T09:03:41Z</time>
      </trkpt>
      <trkpt lat="43.87598" lon="7.20811">
        <ele>774.959961</ele>
        <time>2009-05-31T09:03:44Z</time>
      </trkpt>
      <trkpt lat="43.87579" lon="7.20815">
        <ele>770.15332</ele>
        <time>2009-05-31T09:03:48Z</time>
      </trkpt>
      <trkpt lat="43.87566" lon="7.20819">
        <ele>766.308105</ele>
        <time>2009-05-31T09:03:51Z</time>
      </trkpt>
      <trkpt lat="43.87557" lon="7.20816">
        <ele>761.020752</ele>
        <time>2009-05-31T09:03:54Z</time>
      </trkpt>
      <trkpt lat="43.87544" lon="7.20812">
        <ele>756.214111</ele>
        <time>2009-05-31T09:03:58Z</time>
      </trkpt>
      <trkpt lat="43.8754" lon="7.20811">
        <ele>754.772217</ele>
        <time>2009-05-31T09:03:59Z</time>
      </trkpt>
      <trkpt lat="43.87519" lon="7.20806">
        <ele>750.446533</ele>
        <time>2009-05-31T09:04:03Z</time>
      </trkpt>
      <trkpt lat="43.87499" lon="7.20803">
        <ele>744.678223</ele>
        <time>2009-05-31T09:04:07Z</time>
      </trkpt>
      <trkpt lat="43.87481" lon="7.20806">
        <ele>741.794434</ele>
        <time>2009-05-31T09:04:11Z</time>
      </trkpt>
      <trkpt lat="43.87452" lon="7.20804">
        <ele>737.468506</ele>
        <time>2009-05-31T09:04:17Z</time>
      </trkpt>
      <trkpt lat="43.87439" lon="7.20804">
        <ele>735.06543</ele>
        <time>2009-05-31T09:04:19Z</time>
      </trkpt>
      <trkpt lat="43.87403" lon="7.20797">
        <ele>730.739258</ele>
        <time>2009-05-31T09:04:24Z</time>
      </trkpt>
      <trkpt lat="43.87383" lon="7.20799">
        <ele>729.777832</ele>
        <time>2009-05-31T09:04:27Z</time>
      </trkpt>
      <trkpt lat="43.87363" lon="7.20799">
        <ele>726.894043</ele>
        <time>2009-05-31T09:04:31Z</time>
      </trkpt>
      <trkpt lat="43.87354" lon="7.20807">
        <ele>724.490723</ele>
        <time>2009-05-31T09:04:34Z</time>
      </trkpt>
      <trkpt lat="43.87333" lon="7.2082">
        <ele>720.164795</ele>
        <time>2009-05-31T09:04:39Z</time>
      </trkpt>
      <trkpt lat="43.87329" lon="7.20821">
        <ele>719.684326</ele>
        <time>2009-05-31T09:04:40Z</time>
      </trkpt>
      <trkpt lat="43.87308" lon="7.20824">
        <ele>714.396729</ele>
        <time>2009-05-31T09:04:44Z</time>
      </trkpt>
      <trkpt lat="43.87279" lon="7.20838">
        <ele>712.474121</ele>
        <time>2009-05-31T09:04:49Z</time>
      </trkpt>
      <trkpt lat="43.87265" lon="7.20837">
        <ele>710.070801</ele>
        <time>2009-05-31T09:04:53Z</time>
      </trkpt>
      <trkpt lat="43.87248" lon="7.20833">
        <ele>704.783691</ele>
        <time>2009-05-31T09:04:57Z</time>
      </trkpt>
      <trkpt lat="43.87229" lon="7.20835">
        <ele>703.341797</ele>
        <time>2009-05-31T09:05:00Z</time>
      </trkpt>
      <trkpt lat="43.87216" lon="7.20835">
        <ele>700.458008</ele>
        <time>2009-05-31T09:05:02Z</time>
      </trkpt>
      <trkpt lat="43.87209" lon="7.20836">
        <ele>698.534912</ele>
        <time>2009-05-31T09:05:04Z</time>
      </trkpt>
      <trkpt lat="43.87202" lon="7.20831">
        <ele>695.651123</ele>
        <time>2009-05-31T09:05:08Z</time>
      </trkpt>
      <trkpt lat="43.87181" lon="7.20818">
        <ele>688.922119</ele>
        <time>2009-05-31T09:05:14Z</time>
      </trkpt>
      <trkpt lat="43.87167" lon="7.20815">
        <ele>686.038086</ele>
        <time>2009-05-31T09:05:18Z</time>
      </trkpt>
      <trkpt lat="43.87163" lon="7.20827">
        <ele>684.115479</ele>
        <time>2009-05-31T09:05:22Z</time>
      </trkpt>
      <trkpt lat="43.87164" lon="7.20837">
        <ele>683.153809</ele>
        <time>2009-05-31T09:05:24Z</time>
      </trkpt>
      <trkpt lat="43.87174" lon="7.20864">
        <ele>681.231445</ele>
        <time>2009-05-31T09:05:30Z</time>
      </trkpt>
      <trkpt lat="43.87184" lon="7.20877">
        <ele>680.750732</ele>
        <time>2009-05-31T09:05:33Z</time>
      </trkpt>
      <trkpt lat="43.87199" lon="7.20881">
        <ele>680.27002</ele>
        <time>2009-05-31T09:05:37Z</time>
      </trkpt>
      <trkpt lat="43.87217" lon="7.20882">
        <ele>683.153809</ele>
        <time>2009-05-31T09:05:42Z</time>
      </trkpt>
      <trkpt lat="43.87221" lon="7.20881">
        <ele>683.153809</ele>
        <time>2009-05-31T09:05:43Z</time>
      </trkpt>
      <trkpt lat="43.87243" lon="7.20887">
        <ele>683.634521</ele>
        <time>2009-05-31T09:05:48Z</time>
      </trkpt>
      <trkpt lat="43.87248" lon="7.20887">
        <ele>683.634521</ele>
        <time>2009-05-31T09:05:49Z</time>
      </trkpt>
      <trkpt lat="43.87267" lon="7.20892">
        <ele>682.192627</ele>
        <time>2009-05-31T09:05:52Z</time>
      </trkpt>
      <trkpt lat="43.8729" lon="7.20893">
        <ele>681.711914</ele>
        <time>2009-05-31T09:05:56Z</time>
      </trkpt>
      <trkpt lat="43.87303" lon="7.20896">
        <ele>683.634521</ele>
        <time>2009-05-31T09:05:59Z</time>
      </trkpt>
      <trkpt lat="43.87346" lon="7.20903">
        <ele>677.866699</ele>
        <time>2009-05-31T09:06:06Z</time>
      </trkpt>
      <trkpt lat="43.87374" lon="7.20903">
        <ele>676.424805</ele>
        <time>2009-05-31T09:06:10Z</time>
      </trkpt>
      <trkpt lat="43.87398" lon="7.2092">
        <ele>676.905518</ele>
        <time>2009-05-31T09:06:14Z</time>
      </trkpt>
      <trkpt lat="43.8743" lon="7.20958">
        <ele>677.38623</ele>
        <time>2009-05-31T09:06:20Z</time>
      </trkpt>
      <trkpt lat="43.87436" lon="7.20962">
        <ele>675.944092</ele>
        <time>2009-05-31T09:06:21Z</time>
      </trkpt>
      <trkpt lat="43.87465" lon="7.20976">
        <ele>675.944092</ele>
        <time>2009-05-31T09:06:26Z</time>
      </trkpt>
      <trkpt lat="43.87484" lon="7.20991">
        <ele>674.021484</ele>
        <time>2009-05-31T09:06:30Z</time>
      </trkpt>
      <trkpt lat="43.87509" lon="7.21006">
        <ele>674.021484</ele>
        <time>2009-05-31T09:06:36Z</time>
      </trkpt>
      <trkpt lat="43.87522" lon="7.21028">
        <ele>673.541016</ele>
        <time>2009-05-31T09:06:40Z</time>
      </trkpt>
      <trkpt lat="43.87529" lon="7.21048">
        <ele>672.098877</ele>
        <time>2009-05-31T09:06:45Z</time>
      </trkpt>
      <trkpt lat="43.87532" lon="7.21052">
        <ele>672.57959</ele>
        <time>2009-05-31T09:06:47Z</time>
      </trkpt>
      <trkpt lat="43.87535" lon="7.21058">
        <ele>674.502197</ele>
        <time>2009-05-31T09:06:49Z</time>
      </trkpt>
      <trkpt lat="43.8754" lon="7.21059">
        <ele>675.944092</ele>
        <time>2009-05-31T09:06:54Z</time>
      </trkpt>
      <trkpt lat="43.87546" lon="7.21062">
        <ele>677.38623</ele>
        <time>2009-05-31T09:07:01Z</time>
      </trkpt>
      <trkpt lat="43.87556" lon="7.21066">
        <ele>680.27002</ele>
        <time>2009-05-31T09:07:09Z</time>
      </trkpt>
      <trkpt lat="43.87562" lon="7.21067">
        <ele>685.076904</ele>
        <time>2009-05-31T09:07:16Z</time>
      </trkpt>
      <trkpt lat="43.87576" lon="7.21074">
        <ele>685.076904</ele>
        <time>2009-05-31T09:07:22Z</time>
      </trkpt>
      <trkpt lat="43.87601" lon="7.21085">
        <ele>686.518799</ele>
        <time>2009-05-31T09:07:30Z</time>
      </trkpt>
      <trkpt lat="43.8762" lon="7.21094">
        <ele>691.325195</ele>
        <time>2009-05-31T09:07:38Z</time>
      </trkpt>
      <trkpt lat="43.87642" lon="7.21105">
        <ele>692.767334</ele>
        <time>2009-05-31T09:07:45Z</time>
      </trkpt>
      <trkpt lat="43.87661" lon="7.21122">
        <ele>693.247803</ele>
        <time>2009-05-31T09:07:52Z</time>
      </trkpt>
      <trkpt lat="43.87672" lon="7.21144">
        <ele>702.861084</ele>
        <time>2009-05-31T09:08:00Z</time>
      </trkpt>
      <trkpt lat="43.87681" lon="7.21162">
        <ele>706.706299</ele>
        <time>2009-05-31T09:08:06Z</time>
      </trkpt>
      <trkpt lat="43.87696" lon="7.21176">
        <ele>700.458008</ele>
        <time>2009-05-31T09:08:11Z</time>
      </trkpt>
      <trkpt lat="43.87713" lon="7.21179">
        <ele>692.286621</ele>
        <time>2009-05-31T09:08:15Z</time>
      </trkpt>
      <trkpt lat="43.87716" lon="7.21179">
        <ele>691.805908</ele>
        <time>2009-05-31T09:08:16Z</time>
      </trkpt>
      <trkpt lat="43.87729" lon="7.21192">
        <ele>689.883301</ele>
        <time>2009-05-31T09:08:22Z</time>
      </trkpt>
      <trkpt lat="43.8774" lon="7.21208">
        <ele>686.038086</ele>
        <time>2009-05-31T09:08:28Z</time>
      </trkpt>
      <trkpt lat="43.87748" lon="7.21229">
        <ele>689.402588</ele>
        <time>2009-05-31T09:08:34Z</time>
      </trkpt>
      <trkpt lat="43.87751" lon="7.21235">
        <ele>687.960693</ele>
        <time>2009-05-31T09:08:38Z</time>
      </trkpt>
      <trkpt lat="43.87756" lon="7.2124">
        <ele>687.960693</ele>
        <time>2009-05-31T09:08:45Z</time>
      </trkpt>
      <trkpt lat="43.87759" lon="7.21247">
        <ele>691.325195</ele>
        <time>2009-05-31T09:08:52Z</time>
      </trkpt>
      <trkpt lat="43.87766" lon="7.21252">
        <ele>694.209229</ele>
        <time>2009-05-31T09:09:02Z</time>
      </trkpt>
      <trkpt lat="43.87773" lon="7.21255">
        <ele>696.612549</ele>
        <time>2009-05-31T09:09:10Z</time>
      </trkpt>
      <trkpt lat="43.87778" lon="7.21256">
        <ele>698.054443</ele>
        <time>2009-05-31T09:09:16Z</time>
      </trkpt>
      <trkpt lat="43.8778" lon="7.21255">
        <ele>699.015625</ele>
        <time>2009-05-31T09:09:18Z</time>
      </trkpt>
      <trkpt lat="43.87788" lon="7.21252">
        <ele>700.938477</ele>
        <time>2009-05-31T09:09:25Z</time>
      </trkpt>
      <trkpt lat="43.8779" lon="7.21251">
        <ele>701.899902</ele>
        <time>2009-05-31T09:09:26Z</time>
      </trkpt>
      <trkpt lat="43.87806" lon="7.21239">
        <ele>701.899902</ele>
        <time>2009-05-31T09:09:35Z</time>
      </trkpt>
      <trkpt lat="43.8782" lon="7.21222">
        <ele>703.341797</ele>
        <time>2009-05-31T09:09:44Z</time>
      </trkpt>
      <trkpt lat="43.8783" lon="7.21213">
        <ele>706.225586</ele>
        <time>2009-05-31T09:09:50Z</time>
      </trkpt>
      <trkpt lat="43.87837" lon="7.21204">
        <ele>706.706299</ele>
        <time>2009-05-31T09:09:55Z</time>
      </trkpt>
      <trkpt lat="43.87842" lon="7.21196">
        <ele>706.706299</ele>
        <time>2009-05-31T09:10:02Z</time>
      </trkpt>
      <trkpt lat="43.87845" lon="7.21191">
        <ele>706.706299</ele>
        <time>2009-05-31T09:10:07Z</time>
      </trkpt>
      <trkpt lat="43.87854" lon="7.21178">
        <ele>705.745117</ele>
        <time>2009-05-31T09:10:13Z</time>
      </trkpt>
      <trkpt lat="43.87866" lon="7.21164">
        <ele>706.225586</ele>
        <time>2009-05-31T09:10:18Z</time>
      </trkpt>
      <trkpt lat="43.87874" lon="7.21156">
        <ele>707.187012</ele>
        <time>2009-05-31T09:10:22Z</time>
      </trkpt>
      <trkpt lat="43.87885" lon="7.21146">
        <ele>705.745117</ele>
        <time>2009-05-31T09:10:26Z</time>
      </trkpt>
      <trkpt lat="43.87902" lon="7.21139">
        <ele>707.187012</ele>
        <time>2009-05-31T09:10:31Z</time>
      </trkpt>
      <trkpt lat="43.87921" lon="7.21133">
        <ele>707.187012</ele>
        <time>2009-05-31T09:10:36Z</time>
      </trkpt>
      <trkpt lat="43.87935" lon="7.21127">
        <ele>706.225586</ele>
        <time>2009-05-31T09:10:39Z</time>
      </trkpt>
      <trkpt lat="43.87946" lon="7.21127">
        <ele>706.225586</ele>
        <time>2009-05-31T09:10:42Z</time>
      </trkpt>
      <trkpt lat="43.87975" lon="7.21136">
        <ele>704.303223</ele>
        <time>2009-05-31T09:10:48Z</time>
      </trkpt>
      <trkpt lat="43.87998" lon="7.21135">
        <ele>702.861084</ele>
        <time>2009-05-31T09:10:52Z</time>
      </trkpt>
      <trkpt lat="43.88003" lon="7.21133">
        <ele>702.380371</ele>
        <time>2009-05-31T09:10:53Z</time>
      </trkpt>
      <trkpt lat="43.88014" lon="7.2113">
        <ele>700.458008</ele>
        <time>2009-05-31T09:10:55Z</time>
      </trkpt>
      <trkpt lat="43.88033" lon="7.21118">
        <ele>698.534912</ele>
        <time>2009-05-31T09:10:59Z</time>
      </trkpt>
      <trkpt lat="43.8804" lon="7.21112">
        <ele>698.054443</ele>
        <time>2009-05-31T09:11:01Z</time>
      </trkpt>
      <trkpt lat="43.88054" lon="7.21099">
        <ele>698.534912</ele>
        <time>2009-05-31T09:11:05Z</time>
      </trkpt>
      <trkpt lat="43.88072" lon="7.21091">
        <ele>697.57373</ele>
        <time>2009-05-31T09:11:10Z</time>
      </trkpt>
      <trkpt lat="43.88086" lon="7.21086">
        <ele>698.054443</ele>
        <time>2009-05-31T09:11:14Z</time>
      </trkpt>
      <trkpt lat="43.88097" lon="7.21081">
        <ele>699.015625</ele>
        <time>2009-05-31T09:11:18Z</time>
      </trkpt>
      <trkpt lat="43.88099" lon="7.2108">
        <ele>699.496338</ele>
        <time>2009-05-31T09:11:19Z</time>
      </trkpt>
      <trkpt lat="43.8812" lon="7.2108">
        <ele>698.054443</ele>
        <time>2009-05-31T09:11:24Z</time>
      </trkpt>
      <trkpt lat="43.88131" lon="7.21074">
        <ele>698.534912</ele>
        <time>2009-05-31T09:11:27Z</time>
      </trkpt>
      <trkpt lat="43.88146" lon="7.21066">
        <ele>696.131836</ele>
        <time>2009-05-31T09:11:31Z</time>
      </trkpt>
      <trkpt lat="43.88164" lon="7.21062">
        <ele>692.767334</ele>
        <time>2009-05-31T09:11:35Z</time>
      </trkpt>
      <trkpt lat="43.88176" lon="7.21058">
        <ele>691.805908</ele>
        <time>2009-05-31T09:11:38Z</time>
      </trkpt>
      <trkpt lat="43.88186" lon="7.21055">
        <ele>691.805908</ele>
        <time>2009-05-31T09:11:40Z</time>
      </trkpt>
      <trkpt lat="43.88192" lon="7.21051">
        <ele>692.767334</ele>
        <time>2009-05-31T09:11:44Z</time>
      </trkpt>
      <trkpt lat="43.88198" lon="7.21046">
        <ele>694.209229</ele>
        <time>2009-05-31T09:11:49Z</time>
      </trkpt>
      <trkpt lat="43.88207" lon="7.2104">
        <ele>694.209229</ele>
        <time>2009-05-31T09:11:55Z</time>
      </trkpt>
      <trkpt lat="43.88222" lon="7.21033">
        <ele>695.651123</ele>
        <time>2009-05-31T09:12:00Z</time>
      </trkpt>
      <trkpt lat="43.88242" lon="7.2103">
        <ele>696.612549</ele>
        <time>2009-05-31T09:12:06Z</time>
      </trkpt>
      <trkpt lat="43.88255" lon="7.21032">
        <ele>695.651123</ele>
        <time>2009-05-31T09:12:11Z</time>
      </trkpt>
      <trkpt lat="43.88263" lon="7.21033">
        <ele>695.17041</ele>
        <time>2009-05-31T09:12:15Z</time>
      </trkpt>
      <trkpt lat="43.88282" lon="7.21034">
        <ele>693.247803</ele>
        <time>2009-05-31T09:12:20Z</time>
      </trkpt>
      <trkpt lat="43.88301" lon="7.21025">
        <ele>690.844482</ele>
        <time>2009-05-31T09:12:24Z</time>
      </trkpt>
      <trkpt lat="43.88306" lon="7.21021">
        <ele>690.364014</ele>
        <time>2009-05-31T09:12:25Z</time>
      </trkpt>
      <trkpt lat="43.88321" lon="7.21003">
        <ele>688.441406</ele>
        <time>2009-05-31T09:12:29Z</time>
      </trkpt>
      <trkpt lat="43.88338" lon="7.20991">
        <ele>687.47998</ele>
        <time>2009-05-31T09:12:33Z</time>
      </trkpt>
      <trkpt lat="43.88353" lon="7.20975">
        <ele>687.960693</ele>
        <time>2009-05-31T09:12:37Z</time>
      </trkpt>
      <trkpt lat="43.88372" lon="7.20964">
        <ele>687.47998</ele>
        <time>2009-05-31T09:12:42Z</time>
      </trkpt>
      <trkpt lat="43.88377" lon="7.20962">
        <ele>685.557373</ele>
        <time>2009-05-31T09:12:45Z</time>
      </trkpt>
      <trkpt lat="43.8838" lon="7.20962">
        <ele>685.557373</ele>
        <time>2009-05-31T09:12:47Z</time>
      </trkpt>
      <trkpt lat="43.88388" lon="7.20964">
        <ele>687.47998</ele>
        <time>2009-05-31T09:12:53Z</time>
      </trkpt>
      <trkpt lat="43.88394" lon="7.20967">
        <ele>688.441406</ele>
        <time>2009-05-31T09:12:57Z</time>
      </trkpt>
      <trkpt lat="43.88398" lon="7.20969">
        <ele>686.999268</ele>
        <time>2009-05-31T09:13:00Z</time>
      </trkpt>
      <trkpt lat="43.88398" lon="7.20977">
        <ele>684.596191</ele>
        <time>2009-05-31T09:13:07Z</time>
      </trkpt>
      <trkpt lat="43.88394" lon="7.2098">
        <ele>684.115479</ele>
        <time>2009-05-31T09:13:10Z</time>
      </trkpt>
      <trkpt lat="43.88385" lon="7.2099">
        <ele>685.557373</ele>
        <time>2009-05-31T09:13:17Z</time>
      </trkpt>
      <trkpt lat="43.88379" lon="7.21001">
        <ele>684.115479</ele>
        <time>2009-05-31T09:13:20Z</time>
      </trkpt>
      <trkpt lat="43.88379" lon="7.21034">
        <ele>682.192627</ele>
        <time>2009-05-31T09:13:25Z</time>
      </trkpt>
      <trkpt lat="43.8838" lon="7.21041">
        <ele>681.231445</ele>
        <time>2009-05-31T09:13:26Z</time>
      </trkpt>
      <trkpt lat="43.88385" lon="7.21066">
        <ele>678.828125</ele>
        <time>2009-05-31T09:13:30Z</time>
      </trkpt>
      <trkpt lat="43.8839" lon="7.21071">
        <ele>678.828125</ele>
        <time>2009-05-31T09:13:32Z</time>
      </trkpt>
      <trkpt lat="43.88399" lon="7.21086">
        <ele>675.463379</ele>
        <time>2009-05-31T09:13:37Z</time>
      </trkpt>
      <trkpt lat="43.88393" lon="7.21107">
        <ele>674.021484</ele>
        <time>2009-05-31T09:13:41Z</time>
      </trkpt>
      <trkpt lat="43.88391" lon="7.21126">
        <ele>672.57959</ele>
        <time>2009-05-31T09:13:44Z</time>
      </trkpt>
      <trkpt lat="43.884" lon="7.21154">
        <ele>672.57959</ele>
        <time>2009-05-31T09:13:49Z</time>
      </trkpt>
      <trkpt lat="43.88399" lon="7.21162">
        <ele>672.098877</ele>
        <time>2009-05-31T09:13:52Z</time>
      </trkpt>
      <trkpt lat="43.88395" lon="7.21163">
        <ele>672.098877</ele>
        <time>2009-05-31T09:13:54Z</time>
      </trkpt>
      <trkpt lat="43.88376" lon="7.2118">
        <ele>674.021484</ele>
        <time>2009-05-31T09:14:02Z</time>
      </trkpt>
      <trkpt lat="43.88361" lon="7.21198">
        <ele>676.424805</ele>
        <time>2009-05-31T09:14:09Z</time>
      </trkpt>
      <trkpt lat="43.88352" lon="7.21219">
        <ele>674.502197</ele>
        <time>2009-05-31T09:14:14Z</time>
      </trkpt>
      <trkpt lat="43.8835" lon="7.21243">
        <ele>674.98291</ele>
        <time>2009-05-31T09:14:19Z</time>
      </trkpt>
      <trkpt lat="43.88349" lon="7.21261">
        <ele>673.060303</ele>
        <time>2009-05-31T09:14:23Z</time>
      </trkpt>
      <trkpt lat="43.8834" lon="7.21278">
        <ele>671.618164</ele>
        <time>2009-05-31T09:14:28Z</time>
      </trkpt>
      <trkpt lat="43.88338" lon="7.21301">
        <ele>670.656982</ele>
        <time>2009-05-31T09:14:32Z</time>
      </trkpt>
      <trkpt lat="43.88338" lon="7.21308">
        <ele>670.656982</ele>
        <time>2009-05-31T09:14:33Z</time>
      </trkpt>
      <trkpt lat="43.8834" lon="7.21333">
        <ele>670.17627</ele>
        <time>2009-05-31T09:14:37Z</time>
      </trkpt>
      <trkpt lat="43.8834" lon="7.21343">
        <ele>670.17627</ele>
        <time>2009-05-31T09:14:39Z</time>
      </trkpt>
      <trkpt lat="43.88337" lon="7.21359">
        <ele>669.215088</ele>
        <time>2009-05-31T09:14:43Z</time>
      </trkpt>
      <trkpt lat="43.88338" lon="7.21374">
        <ele>668.253662</ele>
        <time>2009-05-31T09:14:48Z</time>
      </trkpt>
      <trkpt lat="43.88339" lon="7.2138">
        <ele>668.734375</ele>
        <time>2009-05-31T09:14:50Z</time>
      </trkpt>
      <trkpt lat="43.88342" lon="7.21391">
        <ele>667.292236</ele>
        <time>2009-05-31T09:14:54Z</time>
      </trkpt>
      <trkpt lat="43.88348" lon="7.21404">
        <ele>667.292236</ele>
        <time>2009-05-31T09:14:58Z</time>
      </trkpt>
      <trkpt lat="43.88354" lon="7.21409">
        <ele>667.292236</ele>
        <time>2009-05-31T09:15:02Z</time>
      </trkpt>
      <trkpt lat="43.88363" lon="7.21407">
        <ele>667.772705</ele>
        <time>2009-05-31T09:15:06Z</time>
      </trkpt>
      <trkpt lat="43.8837" lon="7.21431">
        <ele>663.92749</ele>
        <time>2009-05-31T09:15:10Z</time>
      </trkpt>
      <trkpt lat="43.88369" lon="7.21457">
        <ele>660.082275</ele>
        <time>2009-05-31T09:15:13Z</time>
      </trkpt>
      <trkpt lat="43.88369" lon="7.21466">
        <ele>656.237061</ele>
        <time>2009-05-31T09:15:15Z</time>
      </trkpt>
      <trkpt lat="43.88369" lon="7.21473">
        <ele>655.275879</ele>
        <time>2009-05-31T09:15:17Z</time>
      </trkpt>
      <trkpt lat="43.8837" lon="7.21478">
        <ele>649.988525</ele>
        <time>2009-05-31T09:15:20Z</time>
      </trkpt>
      <trkpt lat="43.88371" lon="7.21495">
        <ele>644.701172</ele>
        <time>2009-05-31T09:15:25Z</time>
      </trkpt>
      <trkpt lat="43.88373" lon="7.21507">
        <ele>641.33667</ele>
        <time>2009-05-31T09:15:28Z</time>
      </trkpt>
      <trkpt lat="43.88375" lon="7.21519">
        <ele>640.855957</ele>
        <time>2009-05-31T09:15:33Z</time>
      </trkpt>
      <trkpt lat="43.88378" lon="7.21529">
        <ele>641.817383</ele>
        <time>2009-05-31T09:15:36Z</time>
      </trkpt>
      <trkpt lat="43.88393" lon="7.21554">
        <ele>639.894775</ele>
        <time>2009-05-31T09:15:40Z</time>
      </trkpt>
      <trkpt lat="43.88411" lon="7.21581">
        <ele>637.491455</ele>
        <time>2009-05-31T09:15:44Z</time>
      </trkpt>
      <trkpt lat="43.88435" lon="7.21608">
        <ele>630.762207</ele>
        <time>2009-05-31T09:15:49Z</time>
      </trkpt>
      <trkpt lat="43.88446" lon="7.2162">
        <ele>627.878174</ele>
        <time>2009-05-31T09:15:52Z</time>
      </trkpt>
      <trkpt lat="43.88459" lon="7.21641">
        <ele>621.14917</ele>
        <time>2009-05-31T09:15:57Z</time>
      </trkpt>
      <trkpt lat="43.88475" lon="7.21667">
        <ele>616.822998</ele>
        <time>2009-05-31T09:16:02Z</time>
      </trkpt>
      <trkpt lat="43.88485" lon="7.21696">
        <ele>617.303711</ele>
        <time>2009-05-31T09:16:07Z</time>
      </trkpt>
      <trkpt lat="43.88492" lon="7.21707">
        <ele>616.822998</ele>
        <time>2009-05-31T09:16:09Z</time>
      </trkpt>
      <trkpt lat="43.88496" lon="7.21735">
        <ele>614.419678</ele>
        <time>2009-05-31T09:16:13Z</time>
      </trkpt>
      <trkpt lat="43.88495" lon="7.21742">
        <ele>613.938965</ele>
        <time>2009-05-31T09:16:14Z</time>
      </trkpt>
      <trkpt lat="43.88493" lon="7.21758">
        <ele>614.900391</ele>
        <time>2009-05-31T09:16:16Z</time>
      </trkpt>
      <trkpt lat="43.88488" lon="7.21774">
        <ele>613.458496</ele>
        <time>2009-05-31T09:16:19Z</time>
      </trkpt>
      <trkpt lat="43.88479" lon="7.21789">
        <ele>613.938965</ele>
        <time>2009-05-31T09:16:23Z</time>
      </trkpt>
      <trkpt lat="43.88472" lon="7.21809">
        <ele>614.900391</ele>
        <time>2009-05-31T09:16:30Z</time>
      </trkpt>
      <trkpt lat="43.88471" lon="7.21824">
        <ele>616.822998</ele>
        <time>2009-05-31T09:16:36Z</time>
      </trkpt>
      <trkpt lat="43.88472" lon="7.21829">
        <ele>620.668457</ele>
        <time>2009-05-31T09:16:39Z</time>
      </trkpt>
      <trkpt lat="43.88473" lon="7.21834">
        <ele>623.071777</ele>
        <time>2009-05-31T09:16:42Z</time>
      </trkpt>
      <trkpt lat="43.88471" lon="7.21852">
        <ele>623.071777</ele>
        <time>2009-05-31T09:16:49Z</time>
      </trkpt>
      <trkpt lat="43.88467" lon="7.21886">
        <ele>621.629639</ele>
        <time>2009-05-31T09:16:57Z</time>
      </trkpt>
      <trkpt lat="43.88464" lon="7.21907">
        <ele>621.629639</ele>
        <time>2009-05-31T09:17:02Z</time>
      </trkpt>
      <trkpt lat="43.8846" lon="7.21915">
        <ele>621.14917</ele>
        <time>2009-05-31T09:17:05Z</time>
      </trkpt>
      <trkpt lat="43.88457" lon="7.21937">
        <ele>620.668457</ele>
        <time>2009-05-31T09:17:10Z</time>
      </trkpt>
      <trkpt lat="43.88457" lon="7.21939">
        <ele>620.668457</ele>
        <time>2009-05-31T09:17:11Z</time>
      </trkpt>
      <trkpt lat="43.88457" lon="7.21947">
        <ele>620.187744</ele>
        <time>2009-05-31T09:17:17Z</time>
      </trkpt>
      <trkpt lat="43.88459" lon="7.21963">
        <ele>622.591064</ele>
        <time>2009-05-31T09:17:26Z</time>
      </trkpt>
      <trkpt lat="43.88464" lon="7.21975">
        <ele>626.436279</ele>
        <time>2009-05-31T09:17:34Z</time>
      </trkpt>
      <trkpt lat="43.88467" lon="7.21987">
        <ele>630.281494</ele>
        <time>2009-05-31T09:17:42Z</time>
      </trkpt>
      <trkpt lat="43.88472" lon="7.22001">
        <ele>632.684814</ele>
        <time>2009-05-31T09:17:52Z</time>
      </trkpt>
      <trkpt lat="43.88475" lon="7.22006">
        <ele>634.607422</ele>
        <time>2009-05-31T09:17:58Z</time>
      </trkpt>
      <trkpt lat="43.88479" lon="7.2201">
        <ele>637.491455</ele>
        <time>2009-05-31T09:18:03Z</time>
      </trkpt>
      <trkpt lat="43.88485" lon="7.22013">
        <ele>636.049561</ele>
        <time>2009-05-31T09:18:08Z</time>
      </trkpt>
      <trkpt lat="43.88488" lon="7.22014">
        <ele>636.530273</ele>
        <time>2009-05-31T09:18:12Z</time>
      </trkpt>
      <trkpt lat="43.88494" lon="7.22022">
        <ele>636.049561</ele>
        <time>2009-05-31T09:18:20Z</time>
      </trkpt>
      <trkpt lat="43.88498" lon="7.2203">
        <ele>639.414063</ele>
        <time>2009-05-31T09:18:27Z</time>
      </trkpt>
      <trkpt lat="43.88502" lon="7.22038">
        <ele>639.894775</ele>
        <time>2009-05-31T09:18:34Z</time>
      </trkpt>
      <trkpt lat="43.88507" lon="7.22048">
        <ele>642.778809</ele>
        <time>2009-05-31T09:18:42Z</time>
      </trkpt>
      <trkpt lat="43.88513" lon="7.22057">
        <ele>645.181885</ele>
        <time>2009-05-31T09:18:50Z</time>
      </trkpt>
      <trkpt lat="43.88519" lon="7.22067">
        <ele>646.624023</ele>
        <time>2009-05-31T09:18:59Z</time>
      </trkpt>
      <trkpt lat="43.88525" lon="7.22077">
        <ele>649.507813</ele>
        <time>2009-05-31T09:19:09Z</time>
      </trkpt>
      <trkpt lat="43.8853" lon="7.22081">
        <ele>652.391846</ele>
        <time>2009-05-31T09:19:17Z</time>
      </trkpt>
      <trkpt lat="43.88535" lon="7.2209">
        <ele>654.314697</ele>
        <time>2009-05-31T09:19:25Z</time>
      </trkpt>
      <trkpt lat="43.8854" lon="7.22102">
        <ele>654.795166</ele>
        <time>2009-05-31T09:19:35Z</time>
      </trkpt>
      <trkpt lat="43.88546" lon="7.22112">
        <ele>655.756592</ele>
        <time>2009-05-31T09:19:42Z</time>
      </trkpt>
      <trkpt lat="43.88552" lon="7.22122">
        <ele>656.237061</ele>
        <time>2009-05-31T09:19:50Z</time>
      </trkpt>
      <trkpt lat="43.88553" lon="7.22123">
        <ele>655.756592</ele>
        <time>2009-05-31T09:19:52Z</time>
      </trkpt>
      <trkpt lat="43.8856" lon="7.22132">
        <ele>656.237061</ele>
        <time>2009-05-31T09:19:59Z</time>
      </trkpt>
      <trkpt lat="43.8857" lon="7.22143">
        <ele>657.198486</ele>
        <time>2009-05-31T09:20:05Z</time>
      </trkpt>
      <trkpt lat="43.88583" lon="7.22155">
        <ele>659.121094</ele>
        <time>2009-05-31T09:20:12Z</time>
      </trkpt>
      <trkpt lat="43.88595" lon="7.22171">
        <ele>660.082275</ele>
        <time>2009-05-31T09:20:18Z</time>
      </trkpt>
      <trkpt lat="43.88606" lon="7.22188">
        <ele>661.524414</ele>
        <time>2009-05-31T09:20:25Z</time>
      </trkpt>
      <trkpt lat="43.88609" lon="7.22192">
        <ele>661.524414</ele>
        <time>2009-05-31T09:20:27Z</time>
      </trkpt>
      <trkpt lat="43.88613" lon="7.22201">
        <ele>664.888916</ele>
        <time>2009-05-31T09:20:34Z</time>
      </trkpt>
      <trkpt lat="43.88616" lon="7.22203">
        <ele>666.330811</ele>
        <time>2009-05-31T09:20:38Z</time>
      </trkpt>
      <trkpt lat="43.88625" lon="7.22212">
        <ele>666.811523</ele>
        <time>2009-05-31T09:20:48Z</time>
      </trkpt>
      <trkpt lat="43.8863" lon="7.22217">
        <ele>667.292236</ele>
        <time>2009-05-31T09:20:54Z</time>
      </trkpt>
      <trkpt lat="43.88636" lon="7.22217">
        <ele>666.811523</ele>
        <time>2009-05-31T09:21:00Z</time>
      </trkpt>
      <trkpt lat="43.88644" lon="7.22221">
        <ele>667.292236</ele>
        <time>2009-05-31T09:21:06Z</time>
      </trkpt>
      <trkpt lat="43.88652" lon="7.2223">
        <ele>668.253662</ele>
        <time>2009-05-31T09:21:13Z</time>
      </trkpt>
      <trkpt lat="43.88661" lon="7.22235">
        <ele>670.656982</ele>
        <time>2009-05-31T09:21:21Z</time>
      </trkpt>
      <trkpt lat="43.8867" lon="7.22239">
        <ele>672.57959</ele>
        <time>2009-05-31T09:21:29Z</time>
      </trkpt>
      <trkpt lat="43.88678" lon="7.22245">
        <ele>673.541016</ele>
        <time>2009-05-31T09:21:37Z</time>
      </trkpt>
      <trkpt lat="43.88684" lon="7.2225">
        <ele>674.502197</ele>
        <time>2009-05-31T09:21:43Z</time>
      </trkpt>
      <trkpt lat="43.88689" lon="7.22255">
        <ele>675.944092</ele>
        <time>2009-05-31T09:21:50Z</time>
      </trkpt>
      <trkpt lat="43.8869" lon="7.22262">
        <ele>674.021484</ele>
        <time>2009-05-31T09:21:55Z</time>
      </trkpt>
      <trkpt lat="43.88694" lon="7.22271">
        <ele>671.137695</ele>
        <time>2009-05-31T09:22:01Z</time>
      </trkpt>
      <trkpt lat="43.88701" lon="7.22286">
        <ele>668.253662</ele>
        <time>2009-05-31T09:22:08Z</time>
      </trkpt>
      <trkpt lat="43.88702" lon="7.22288">
        <ele>667.772705</ele>
        <time>2009-05-31T09:22:11Z</time>
      </trkpt>
      <trkpt lat="43.88707" lon="7.22306">
        <ele>666.330811</ele>
        <time>2009-05-31T09:22:18Z</time>
      </trkpt>
      <trkpt lat="43.8871" lon="7.22313">
        <ele>666.330811</ele>
        <time>2009-05-31T09:22:20Z</time>
      </trkpt>
      <trkpt lat="43.8872" lon="7.2232">
        <ele>664.888916</ele>
        <time>2009-05-31T09:22:26Z</time>
      </trkpt>
      <trkpt lat="43.8872" lon="7.22326">
        <ele>664.408203</ele>
        <time>2009-05-31T09:22:30Z</time>
      </trkpt>
      <trkpt lat="43.8872" lon="7.2233">
        <ele>664.408203</ele>
        <time>2009-05-31T09:22:32Z</time>
      </trkpt>
      <trkpt lat="43.88712" lon="7.22344">
        <ele>662.485596</ele>
        <time>2009-05-31T09:22:37Z</time>
      </trkpt>
      <trkpt lat="43.88707" lon="7.2236">
        <ele>658.640381</ele>
        <time>2009-05-31T09:22:40Z</time>
      </trkpt>
      <trkpt lat="43.887" lon="7.22362">
        <ele>653.353271</ele>
        <time>2009-05-31T09:22:44Z</time>
      </trkpt>
      <trkpt lat="43.88695" lon="7.2237">
        <ele>649.988525</ele>
        <time>2009-05-31T09:22:47Z</time>
      </trkpt>
      <trkpt lat="43.88696" lon="7.22384">
        <ele>646.624023</ele>
        <time>2009-05-31T09:22:50Z</time>
      </trkpt>
      <trkpt lat="43.88697" lon="7.22389">
        <ele>646.143311</ele>
        <time>2009-05-31T09:22:51Z</time>
      </trkpt>
      <trkpt lat="43.88703" lon="7.22416">
        <ele>641.33667</ele>
        <time>2009-05-31T09:22:56Z</time>
      </trkpt>
      <trkpt lat="43.88707" lon="7.22442">
        <ele>636.530273</ele>
        <time>2009-05-31T09:23:00Z</time>
      </trkpt>
      <trkpt lat="43.8871" lon="7.22472">
        <ele>632.204102</ele>
        <time>2009-05-31T09:23:05Z</time>
      </trkpt>
      <trkpt lat="43.88715" lon="7.22488">
        <ele>630.281494</ele>
        <time>2009-05-31T09:23:08Z</time>
      </trkpt>
      <trkpt lat="43.88713" lon="7.22504">
        <ele>626.436279</ele>
        <time>2009-05-31T09:23:11Z</time>
      </trkpt>
      <trkpt lat="43.88712" lon="7.22526">
        <ele>619.707031</ele>
        <time>2009-05-31T09:23:16Z</time>
      </trkpt>
      <trkpt lat="43.88712" lon="7.2254">
        <ele>615.381104</ele>
        <time>2009-05-31T09:23:20Z</time>
      </trkpt>
      <trkpt lat="43.88713" lon="7.22544">
        <ele>614.419678</ele>
        <time>2009-05-31T09:23:21Z</time>
      </trkpt>
      <trkpt lat="43.8871" lon="7.22562">
        <ele>610.574463</ele>
        <time>2009-05-31T09:23:25Z</time>
      </trkpt>
      <trkpt lat="43.88713" lon="7.22572">
        <ele>610.574463</ele>
        <time>2009-05-31T09:23:27Z</time>
      </trkpt>
      <trkpt lat="43.8873" lon="7.22594">
        <ele>606.729248</ele>
        <time>2009-05-31T09:23:33Z</time>
      </trkpt>
      <trkpt lat="43.88733" lon="7.226">
        <ele>606.248535</ele>
        <time>2009-05-31T09:23:35Z</time>
      </trkpt>
      <trkpt lat="43.88732" lon="7.22615">
        <ele>600.480713</ele>
        <time>2009-05-31T09:23:40Z</time>
      </trkpt>
      <trkpt lat="43.8873" lon="7.22627">
        <ele>595.674072</ele>
        <time>2009-05-31T09:23:44Z</time>
      </trkpt>
      <trkpt lat="43.88725" lon="7.22628">
        <ele>593.270752</ele>
        <time>2009-05-31T09:23:47Z</time>
      </trkpt>
      <trkpt lat="43.8872" lon="7.22633">
        <ele>592.30957</ele>
        <time>2009-05-31T09:23:51Z</time>
      </trkpt>
      <trkpt lat="43.8872" lon="7.22654">
        <ele>590.386963</ele>
        <time>2009-05-31T09:23:55Z</time>
      </trkpt>
      <trkpt lat="43.88715" lon="7.22677">
        <ele>584.618896</ele>
        <time>2009-05-31T09:24:00Z</time>
      </trkpt>
      <trkpt lat="43.88715" lon="7.22702">
        <ele>578.851074</ele>
        <time>2009-05-31T09:24:04Z</time>
      </trkpt>
      <trkpt lat="43.88716" lon="7.22708">
        <ele>577.889648</ele>
        <time>2009-05-31T09:24:05Z</time>
      </trkpt>
      <trkpt lat="43.88715" lon="7.22733">
        <ele>574.525146</ele>
        <time>2009-05-31T09:24:09Z</time>
      </trkpt>
      <trkpt lat="43.88714" lon="7.22751">
        <ele>570.198975</ele>
        <time>2009-05-31T09:24:13Z</time>
      </trkpt>
      <trkpt lat="43.88708" lon="7.22761">
        <ele>567.795654</ele>
        <time>2009-05-31T09:24:16Z</time>
      </trkpt>
      <trkpt lat="43.88702" lon="7.2277">
        <ele>564.431152</ele>
        <time>2009-05-31T09:24:20Z</time>
      </trkpt>
      <trkpt lat="43.88696" lon="7.22783">
        <ele>562.508545</ele>
        <time>2009-05-31T09:24:26Z</time>
      </trkpt>
      <trkpt lat="43.88696" lon="7.22783">
        <ele>563.469971</ele>
        <time>2009-05-31T09:24:30Z</time>
      </trkpt>
      <trkpt lat="43.88694" lon="7.22771">
        <ele>561.547363</ele>
        <time>2009-05-31T09:24:35Z</time>
      </trkpt>
      <trkpt lat="43.88689" lon="7.22778">
        <ele>559.624756</ele>
        <time>2009-05-31T09:24:38Z</time>
      </trkpt>
      <trkpt lat="43.88684" lon="7.22786">
        <ele>557.221436</ele>
        <time>2009-05-31T09:24:41Z</time>
      </trkpt>
      <trkpt lat="43.8868" lon="7.22776">
        <ele>555.298584</ele>
        <time>2009-05-31T09:24:44Z</time>
      </trkpt>
      <trkpt lat="43.88676" lon="7.2277">
        <ele>554.817871</ele>
        <time>2009-05-31T09:24:46Z</time>
      </trkpt>
      <trkpt lat="43.88675" lon="7.22756">
        <ele>552.414551</ele>
        <time>2009-05-31T09:24:50Z</time>
      </trkpt>
      <trkpt lat="43.88673" lon="7.22752">
        <ele>551.453369</ele>
        <time>2009-05-31T09:24:51Z</time>
      </trkpt>
      <trkpt lat="43.88657" lon="7.22737">
        <ele>547.608154</ele>
        <time>2009-05-31T09:24:57Z</time>
      </trkpt>
      <trkpt lat="43.88637" lon="7.22746">
        <ele>544.724243</ele>
        <time>2009-05-31T09:25:03Z</time>
      </trkpt>
      <trkpt lat="43.8862" lon="7.22757">
        <ele>542.801514</ele>
        <time>2009-05-31T09:25:07Z</time>
      </trkpt>
      <trkpt lat="43.88614" lon="7.22757">
        <ele>541.359497</ele>
        <time>2009-05-31T09:25:09Z</time>
      </trkpt>
      <trkpt lat="43.88605" lon="7.22772">
        <ele>538.956299</ele>
        <time>2009-05-31T09:25:14Z</time>
      </trkpt>
      <trkpt lat="43.88594" lon="7.22791">
        <ele>537.514282</ele>
        <time>2009-05-31T09:25:17Z</time>
      </trkpt>
      <trkpt lat="43.88583" lon="7.22808">
        <ele>536.553101</ele>
        <time>2009-05-31T09:25:20Z</time>
      </trkpt>
      <trkpt lat="43.88585" lon="7.22822">
        <ele>535.110962</ele>
        <time>2009-05-31T09:25:24Z</time>
      </trkpt>
      <trkpt lat="43.88596" lon="7.22824">
        <ele>532.227051</ele>
        <time>2009-05-31T09:25:28Z</time>
      </trkpt>
      <trkpt lat="43.886" lon="7.22826">
        <ele>530.785156</ele>
        <time>2009-05-31T09:25:31Z</time>
      </trkpt>
      <trkpt lat="43.88604" lon="7.22838">
        <ele>527.901001</ele>
        <time>2009-05-31T09:25:35Z</time>
      </trkpt>
      <trkpt lat="43.88611" lon="7.22852">
        <ele>524.536499</ele>
        <time>2009-05-31T09:25:40Z</time>
      </trkpt>
      <trkpt lat="43.88619" lon="7.22874">
        <ele>521.652588</ele>
        <time>2009-05-31T09:25:46Z</time>
      </trkpt>
      <trkpt lat="43.88621" lon="7.22877">
        <ele>522.133179</ele>
        <time>2009-05-31T09:25:47Z</time>
      </trkpt>
      <trkpt lat="43.88623" lon="7.22889">
        <ele>520.210571</ele>
        <time>2009-05-31T09:25:52Z</time>
      </trkpt>
      <trkpt lat="43.88631" lon="7.22894">
        <ele>518.768555</ele>
        <time>2009-05-31T09:25:55Z</time>
      </trkpt>
      <trkpt lat="43.88634" lon="7.22901">
        <ele>517.32666</ele>
        <time>2009-05-31T09:25:58Z</time>
      </trkpt>
      <trkpt lat="43.88628" lon="7.22923">
        <ele>513.962036</ele>
        <time>2009-05-31T09:26:02Z</time>
      </trkpt>
      <trkpt lat="43.88623" lon="7.22933">
        <ele>513.000732</ele>
        <time>2009-05-31T09:26:04Z</time>
      </trkpt>
      <trkpt lat="43.88619" lon="7.22955">
        <ele>509.155396</ele>
        <time>2009-05-31T09:26:08Z</time>
      </trkpt>
      <trkpt lat="43.88618" lon="7.22985">
        <ele>501.945557</ele>
        <time>2009-05-31T09:26:13Z</time>
      </trkpt>
      <trkpt lat="43.88619" lon="7.23008">
        <ele>494.735596</ele>
        <time>2009-05-31T09:26:17Z</time>
      </trkpt>
      <trkpt lat="43.88625" lon="7.23018">
        <ele>491.851685</ele>
        <time>2009-05-31T09:26:20Z</time>
      </trkpt>
      <trkpt lat="43.8863" lon="7.23026">
        <ele>488.487183</ele>
        <time>2009-05-31T09:26:23Z</time>
      </trkpt>
      <trkpt lat="43.8863" lon="7.2303">
        <ele>485.603027</ele>
        <time>2009-05-31T09:26:25Z</time>
      </trkpt>
      <trkpt lat="43.88622" lon="7.23048">
        <ele>479.835083</ele>
        <time>2009-05-31T09:26:30Z</time>
      </trkpt>
      <trkpt lat="43.8862" lon="7.23062">
        <ele>473.58667</ele>
        <time>2009-05-31T09:26:33Z</time>
      </trkpt>
      <trkpt lat="43.88626" lon="7.23077">
        <ele>471.66394</ele>
        <time>2009-05-31T09:26:37Z</time>
      </trkpt>
      <trkpt lat="43.88632" lon="7.23073">
        <ele>469.260742</ele>
        <time>2009-05-31T09:26:40Z</time>
      </trkpt>
      <trkpt lat="43.88643" lon="7.23076">
        <ele>465.415527</ele>
        <time>2009-05-31T09:26:43Z</time>
      </trkpt>
      <trkpt lat="43.88651" lon="7.23079">
        <ele>463.973389</ele>
        <time>2009-05-31T09:26:45Z</time>
      </trkpt>
      <trkpt lat="43.88667" lon="7.23078">
        <ele>462.531372</ele>
        <time>2009-05-31T09:26:50Z</time>
      </trkpt>
      <trkpt lat="43.88677" lon="7.23102">
        <ele>457.244263</ele>
        <time>2009-05-31T09:26:56Z</time>
      </trkpt>
      <trkpt lat="43.88677" lon="7.23106">
        <ele>455.321533</ele>
        <time>2009-05-31T09:26:57Z</time>
      </trkpt>
      <trkpt lat="43.88684" lon="7.23125">
        <ele>450.995605</ele>
        <time>2009-05-31T09:27:02Z</time>
      </trkpt>
      <trkpt lat="43.88695" lon="7.23131">
        <ele>452.437622</ele>
        <time>2009-05-31T09:27:05Z</time>
      </trkpt>
      <trkpt lat="43.88707" lon="7.23145">
        <ele>452.918213</ele>
        <time>2009-05-31T09:27:08Z</time>
      </trkpt>
      <trkpt lat="43.8872" lon="7.23168">
        <ele>452.918213</ele>
        <time>2009-05-31T09:27:12Z</time>
      </trkpt>
      <trkpt lat="43.88725" lon="7.23179">
        <ele>451.957031</ele>
        <time>2009-05-31T09:27:14Z</time>
      </trkpt>
      <trkpt lat="43.88741" lon="7.23196">
        <ele>450.034424</ele>
        <time>2009-05-31T09:27:18Z</time>
      </trkpt>
      <trkpt lat="43.88751" lon="7.23207">
        <ele>449.072998</ele>
        <time>2009-05-31T09:27:20Z</time>
      </trkpt>
      <trkpt lat="43.8876" lon="7.23224">
        <ele>446.189087</ele>
        <time>2009-05-31T09:27:24Z</time>
      </trkpt>
      <trkpt lat="43.88762" lon="7.23238">
        <ele>443.305054</ele>
        <time>2009-05-31T09:27:29Z</time>
      </trkpt>
      <trkpt lat="43.88766" lon="7.23248">
        <ele>441.863159</ele>
        <time>2009-05-31T09:27:32Z</time>
      </trkpt>
      <trkpt lat="43.88773" lon="7.23255">
        <ele>438.979126</ele>
        <time>2009-05-31T09:27:35Z</time>
      </trkpt>
      <trkpt lat="43.88768" lon="7.23258">
        <ele>434.172607</ele>
        <time>2009-05-31T09:27:39Z</time>
      </trkpt>
      <trkpt lat="43.88766" lon="7.23262">
        <ele>433.211304</ele>
        <time>2009-05-31T09:27:42Z</time>
      </trkpt>
      <trkpt lat="43.88774" lon="7.23272">
        <ele>430.327271</ele>
        <time>2009-05-31T09:27:46Z</time>
      </trkpt>
      <trkpt lat="43.88779" lon="7.23275">
        <ele>427.92395</ele>
        <time>2009-05-31T09:27:51Z</time>
      </trkpt>
      <trkpt lat="43.8878" lon="7.23276">
        <ele>427.92395</ele>
        <time>2009-05-31T09:27:52Z</time>
      </trkpt>
      <trkpt lat="43.88778" lon="7.23278">
        <ele>426.001343</ele>
        <time>2009-05-31T09:27:56Z</time>
      </trkpt>
      <trkpt lat="43.88774" lon="7.2328">
        <ele>423.598022</ele>
        <time>2009-05-31T09:28:02Z</time>
      </trkpt>
      <trkpt lat="43.88776" lon="7.23281">
        <ele>422.636719</ele>
        <time>2009-05-31T09:28:06Z</time>
      </trkpt>
      <trkpt lat="43.88768" lon="7.23284">
        <ele>416.388184</ele>
        <time>2009-05-31T09:28:13Z</time>
      </trkpt>
      <trkpt lat="43.88765" lon="7.23285">
        <ele>416.388184</ele>
        <time>2009-05-31T09:28:14Z</time>
      </trkpt>
      <trkpt lat="43.88756" lon="7.23286">
        <ele>411.581665</ele>
        <time>2009-05-31T09:28:19Z</time>
      </trkpt>
      <trkpt lat="43.88749" lon="7.23295">
        <ele>410.620239</ele>
        <time>2009-05-31T09:28:22Z</time>
      </trkpt>
      <trkpt lat="43.88742" lon="7.23306">
        <ele>411.581665</ele>
        <time>2009-05-31T09:28:26Z</time>
      </trkpt>
      <trkpt lat="43.88731" lon="7.23305">
        <ele>412.542847</ele>
        <time>2009-05-31T09:28:29Z</time>
      </trkpt>
      <trkpt lat="43.88726" lon="7.23307">
        <ele>411.100952</ele>
        <time>2009-05-31T09:28:31Z</time>
      </trkpt>
      <trkpt lat="43.88712" lon="7.23296">
        <ele>408.697632</ele>
        <time>2009-05-31T09:28:36Z</time>
      </trkpt>
      <trkpt lat="43.88707" lon="7.23294">
        <ele>408.217041</ele>
        <time>2009-05-31T09:28:37Z</time>
      </trkpt>
      <trkpt lat="43.88693" lon="7.23293">
        <ele>402.929688</ele>
        <time>2009-05-31T09:28:40Z</time>
      </trkpt>
      <trkpt lat="43.88682" lon="7.23306">
        <ele>398.60376</ele>
        <time>2009-05-31T09:28:44Z</time>
      </trkpt>
      <trkpt lat="43.88679" lon="7.2331">
        <ele>397.161743</ele>
        <time>2009-05-31T09:28:45Z</time>
      </trkpt>
      <trkpt lat="43.88655" lon="7.23325">
        <ele>392.355347</ele>
        <time>2009-05-31T09:28:50Z</time>
      </trkpt>
      <trkpt lat="43.8863" lon="7.23339">
        <ele>387.548584</ele>
        <time>2009-05-31T09:28:55Z</time>
      </trkpt>
      <trkpt lat="43.8862" lon="7.2335">
        <ele>384.664795</ele>
        <time>2009-05-31T09:28:58Z</time>
      </trkpt>
      <trkpt lat="43.8861" lon="7.23358">
        <ele>379.377441</ele>
        <time>2009-05-31T09:29:02Z</time>
      </trkpt>
      <trkpt lat="43.8861" lon="7.23369">
        <ele>378.416138</ele>
        <time>2009-05-31T09:29:05Z</time>
      </trkpt>
      <trkpt lat="43.8861" lon="7.23384">
        <ele>377.454834</ele>
        <time>2009-05-31T09:29:10Z</time>
      </trkpt>
      <trkpt lat="43.88612" lon="7.23389">
        <ele>377.935425</ele>
        <time>2009-05-31T09:29:13Z</time>
      </trkpt>
      <trkpt lat="43.88612" lon="7.234">
        <ele>378.416138</ele>
        <time>2009-05-31T09:29:19Z</time>
      </trkpt>
      <trkpt lat="43.88607" lon="7.23409">
        <ele>377.454834</ele>
        <time>2009-05-31T09:29:22Z</time>
      </trkpt>
      <trkpt lat="43.88586" lon="7.23439">
        <ele>373.128906</ele>
        <time>2009-05-31T09:29:29Z</time>
      </trkpt>
      <trkpt lat="43.88564" lon="7.23471">
        <ele>374.570801</ele>
        <time>2009-05-31T09:29:35Z</time>
      </trkpt>
      <trkpt lat="43.88555" lon="7.23483">
        <ele>375.532104</ele>
        <time>2009-05-31T09:29:38Z</time>
      </trkpt>
      <trkpt lat="43.8855" lon="7.23491">
        <ele>376.49353</ele>
        <time>2009-05-31T09:29:40Z</time>
      </trkpt>
      <trkpt lat="43.88534" lon="7.23508">
        <ele>378.896851</ele>
        <time>2009-05-31T09:29:46Z</time>
      </trkpt>
      <trkpt lat="43.88517" lon="7.23522">
        <ele>380.819458</ele>
        <time>2009-05-31T09:29:53Z</time>
      </trkpt>
      <trkpt lat="43.88504" lon="7.23532">
        <ele>381.78064</ele>
        <time>2009-05-31T09:29:59Z</time>
      </trkpt>
      <trkpt lat="43.88486" lon="7.23544">
        <ele>385.145386</ele>
        <time>2009-05-31T09:30:08Z</time>
      </trkpt>
      <trkpt lat="43.88477" lon="7.23556">
        <ele>384.664795</ele>
        <time>2009-05-31T09:30:14Z</time>
      </trkpt>
      <trkpt lat="43.88469" lon="7.23564">
        <ele>386.587402</ele>
        <time>2009-05-31T09:30:19Z</time>
      </trkpt>
      <trkpt lat="43.88461" lon="7.2358">
        <ele>391.393799</ele>
        <time>2009-05-31T09:30:28Z</time>
      </trkpt>
      <trkpt lat="43.88459" lon="7.23593">
        <ele>393.316528</ele>
        <time>2009-05-31T09:30:35Z</time>
      </trkpt>
      <trkpt lat="43.88458" lon="7.23609">
        <ele>395.719849</ele>
        <time>2009-05-31T09:30:42Z</time>
      </trkpt>
      <trkpt lat="43.88457" lon="7.23629">
        <ele>396.200562</ele>
        <time>2009-05-31T09:30:50Z</time>
      </trkpt>
      <trkpt lat="43.88456" lon="7.23644">
        <ele>396.200562</ele>
        <time>2009-05-31T09:30:57Z</time>
      </trkpt>
      <trkpt lat="43.88455" lon="7.23649">
        <ele>396.681152</ele>
        <time>2009-05-31T09:31:00Z</time>
      </trkpt>
      <trkpt lat="43.88457" lon="7.23649">
        <ele>396.681152</ele>
        <time>2009-05-31T09:31:04Z</time>
      </trkpt>
      <trkpt lat="43.88461" lon="7.23645">
        <ele>396.681152</ele>
        <time>2009-05-31T09:31:08Z</time>
      </trkpt>
      <trkpt lat="43.88461" lon="7.23649">
        <ele>398.60376</ele>
        <time>2009-05-31T09:31:14Z</time>
      </trkpt>
      <trkpt lat="43.88463" lon="7.23654">
        <ele>400.045898</ele>
        <time>2009-05-31T09:31:20Z</time>
      </trkpt>
      <trkpt lat="43.88467" lon="7.23661">
        <ele>401.487793</ele>
        <time>2009-05-31T09:31:27Z</time>
      </trkpt>
      <trkpt lat="43.88469" lon="7.23666">
        <ele>402.929688</ele>
        <time>2009-05-31T09:31:30Z</time>
      </trkpt>
      <trkpt lat="43.88472" lon="7.23679">
        <ele>405.333008</ele>
        <time>2009-05-31T09:31:37Z</time>
      </trkpt>
      <trkpt lat="43.88472" lon="7.23684">
        <ele>407.255615</ele>
        <time>2009-05-31T09:31:39Z</time>
      </trkpt>
      <trkpt lat="43.88478" lon="7.23701">
        <ele>407.255615</ele>
        <time>2009-05-31T09:31:49Z</time>
      </trkpt>
      <trkpt lat="43.88482" lon="7.23716">
        <ele>405.813721</ele>
        <time>2009-05-31T09:31:56Z</time>
      </trkpt>
      <trkpt lat="43.88485" lon="7.23732">
        <ele>404.371704</ele>
        <time>2009-05-31T09:32:01Z</time>
      </trkpt>
      <trkpt lat="43.88488" lon="7.23739">
        <ele>404.371704</ele>
        <time>2009-05-31T09:32:05Z</time>
      </trkpt>
      <trkpt lat="43.88491" lon="7.23751">
        <ele>404.852295</ele>
        <time>2009-05-31T09:32:13Z</time>
      </trkpt>
      <trkpt lat="43.88489" lon="7.23765">
        <ele>406.294312</ele>
        <time>2009-05-31T09:32:21Z</time>
      </trkpt>
      <trkpt lat="43.88489" lon="7.23767">
        <ele>406.294312</ele>
        <time>2009-05-31T09:32:22Z</time>
      </trkpt>
      <trkpt lat="43.88487" lon="7.23781">
        <ele>408.217041</ele>
        <time>2009-05-31T09:32:30Z</time>
      </trkpt>
      <trkpt lat="43.88484" lon="7.23789">
        <ele>408.697632</ele>
        <time>2009-05-31T09:32:36Z</time>
      </trkpt>
      <trkpt lat="43.88478" lon="7.23805">
        <ele>406.294312</ele>
        <time>2009-05-31T09:32:41Z</time>
      </trkpt>
      <trkpt lat="43.88476" lon="7.23816">
        <ele>409.178345</ele>
        <time>2009-05-31T09:32:46Z</time>
      </trkpt>
      <trkpt lat="43.88477" lon="7.2382">
        <ele>410.620239</ele>
        <time>2009-05-31T09:32:49Z</time>
      </trkpt>
      <trkpt lat="43.8848" lon="7.23831">
        <ele>414.946167</ele>
        <time>2009-05-31T09:32:57Z</time>
      </trkpt>
      <trkpt lat="43.8848" lon="7.2384">
        <ele>416.388184</ele>
        <time>2009-05-31T09:33:03Z</time>
      </trkpt>
      <trkpt lat="43.8848" lon="7.23852">
        <ele>416.868896</ele>
        <time>2009-05-31T09:33:11Z</time>
      </trkpt>
      <trkpt lat="43.8848" lon="7.23862">
        <ele>416.388184</ele>
        <time>2009-05-31T09:33:18Z</time>
      </trkpt>
      <trkpt lat="43.88481" lon="7.23877">
        <ele>415.42688</ele>
        <time>2009-05-31T09:33:24Z</time>
      </trkpt>
      <trkpt lat="43.88479" lon="7.23902">
        <ele>412.542847</ele>
        <time>2009-05-31T09:33:31Z</time>
      </trkpt>
      <trkpt lat="43.88478" lon="7.23918">
        <ele>412.062256</ele>
        <time>2009-05-31T09:33:36Z</time>
      </trkpt>
      <trkpt lat="43.88476" lon="7.23934">
        <ele>410.139648</ele>
        <time>2009-05-31T09:33:40Z</time>
      </trkpt>
      <trkpt lat="43.88478" lon="7.23963">
        <ele>410.139648</ele>
        <time>2009-05-31T09:33:46Z</time>
      </trkpt>
      <trkpt lat="43.88481" lon="7.23979">
        <ele>409.178345</ele>
        <time>2009-05-31T09:33:50Z</time>
      </trkpt>
      <trkpt lat="43.88483" lon="7.24">
        <ele>408.217041</ele>
        <time>2009-05-31T09:33:55Z</time>
      </trkpt>
      <trkpt lat="43.88489" lon="7.24022">
        <ele>408.217041</ele>
        <time>2009-05-31T09:34:00Z</time>
      </trkpt>
      <trkpt lat="43.88496" lon="7.24035">
        <ele>408.217041</ele>
        <time>2009-05-31T09:34:04Z</time>
      </trkpt>
      <trkpt lat="43.885" lon="7.24042">
        <ele>409.178345</ele>
        <time>2009-05-31T09:34:08Z</time>
      </trkpt>
      <trkpt lat="43.88512" lon="7.2405">
        <ele>412.062256</ele>
        <time>2009-05-31T09:34:13Z</time>
      </trkpt>
      <trkpt lat="43.88525" lon="7.24061">
        <ele>412.542847</ele>
        <time>2009-05-31T09:34:18Z</time>
      </trkpt>
      <trkpt lat="43.88536" lon="7.24079">
        <ele>413.504272</ele>
        <time>2009-05-31T09:34:23Z</time>
      </trkpt>
      <trkpt lat="43.88538" lon="7.24082">
        <ele>413.504272</ele>
        <time>2009-05-31T09:34:24Z</time>
      </trkpt>
      <trkpt lat="43.88535" lon="7.24083">
        <ele>412.542847</ele>
        <time>2009-05-31T09:34:28Z</time>
      </trkpt>
      <trkpt lat="43.88519" lon="7.2407">
        <ele>407.255615</ele>
        <time>2009-05-31T09:34:34Z</time>
      </trkpt>
      <trkpt lat="43.88504" lon="7.24068">
        <ele>403.891113</ele>
        <time>2009-05-31T09:34:38Z</time>
      </trkpt>
      <trkpt lat="43.88487" lon="7.24068">
        <ele>399.565063</ele>
        <time>2009-05-31T09:34:43Z</time>
      </trkpt>
      <trkpt lat="43.88475" lon="7.24059">
        <ele>396.200562</ele>
        <time>2009-05-31T09:34:48Z</time>
      </trkpt>
      <trkpt lat="43.88464" lon="7.24041">
        <ele>392.355347</ele>
        <time>2009-05-31T09:34:53Z</time>
      </trkpt>
      <trkpt lat="43.88459" lon="7.24036">
        <ele>390.432617</ele>
        <time>2009-05-31T09:34:55Z</time>
      </trkpt>
      <trkpt lat="43.88449" lon="7.24012">
        <ele>386.587402</ele>
        <time>2009-05-31T09:35:00Z</time>
      </trkpt>
      <trkpt lat="43.88444" lon="7.23993">
        <ele>383.222656</ele>
        <time>2009-05-31T09:35:04Z</time>
      </trkpt>
      <trkpt lat="43.88438" lon="7.23968">
        <ele>380.338745</ele>
        <time>2009-05-31T09:35:09Z</time>
      </trkpt>
      <trkpt lat="43.88427" lon="7.23942">
        <ele>376.49353</ele>
        <time>2009-05-31T09:35:14Z</time>
      </trkpt>
      <trkpt lat="43.88424" lon="7.23936">
        <ele>375.051514</ele>
        <time>2009-05-31T09:35:15Z</time>
      </trkpt>
      <trkpt lat="43.88411" lon="7.2391">
        <ele>374.570801</ele>
        <time>2009-05-31T09:35:20Z</time>
      </trkpt>
      <trkpt lat="43.88409" lon="7.23902">
        <ele>373.609497</ele>
        <time>2009-05-31T09:35:22Z</time>
      </trkpt>
      <trkpt lat="43.88404" lon="7.23881">
        <ele>369.283691</ele>
        <time>2009-05-31T09:35:28Z</time>
      </trkpt>
      <trkpt lat="43.88399" lon="7.2389">
        <ele>366.880249</ele>
        <time>2009-05-31T09:35:33Z</time>
      </trkpt>
      <trkpt lat="43.88394" lon="7.23903">
        <ele>363.515747</ele>
        <time>2009-05-31T09:35:37Z</time>
      </trkpt>
      <trkpt lat="43.8839" lon="7.23896">
        <ele>362.07373</ele>
        <time>2009-05-31T09:35:41Z</time>
      </trkpt>
      <trkpt lat="43.88391" lon="7.23879">
        <ele>359.67041</ele>
        <time>2009-05-31T09:35:45Z</time>
      </trkpt>
      <trkpt lat="43.88388" lon="7.23856">
        <ele>355.825195</ele>
        <time>2009-05-31T09:35:51Z</time>
      </trkpt>
      <trkpt lat="43.88375" lon="7.23832">
        <ele>351.979858</ele>
        <time>2009-05-31T09:35:56Z</time>
      </trkpt>
      <trkpt lat="43.8837" lon="7.23819">
        <ele>350.057251</ele>
        <time>2009-05-31T09:35:58Z</time>
      </trkpt>
      <trkpt lat="43.88358" lon="7.23782">
        <ele>348.615234</ele>
        <time>2009-05-31T09:36:03Z</time>
      </trkpt>
      <trkpt lat="43.88349" lon="7.23758">
        <ele>347.173218</ele>
        <time>2009-05-31T09:36:06Z</time>
      </trkpt>
      <trkpt lat="43.88337" lon="7.23738">
        <ele>346.212036</ele>
        <time>2009-05-31T09:36:09Z</time>
      </trkpt>
      <trkpt lat="43.88327" lon="7.23704">
        <ele>344.289429</ele>
        <time>2009-05-31T09:36:14Z</time>
      </trkpt>
      <trkpt lat="43.88326" lon="7.23699">
        <ele>344.289429</ele>
        <time>2009-05-31T09:36:15Z</time>
      </trkpt>
      <trkpt lat="43.88317" lon="7.23672">
        <ele>343.327881</ele>
        <time>2009-05-31T09:36:21Z</time>
      </trkpt>
      <trkpt lat="43.88307" lon="7.23658">
        <ele>344.77002</ele>
        <time>2009-05-31T09:36:25Z</time>
      </trkpt>
      <trkpt lat="43.883" lon="7.23628">
        <ele>344.289429</ele>
        <time>2009-05-31T09:36:31Z</time>
      </trkpt>
      <trkpt lat="43.883" lon="7.23609">
        <ele>344.289429</ele>
        <time>2009-05-31T09:36:35Z</time>
      </trkpt>
      <trkpt lat="43.88297" lon="7.23595">
        <ele>345.25061</ele>
        <time>2009-05-31T09:36:40Z</time>
      </trkpt>
      <trkpt lat="43.88293" lon="7.23591">
        <ele>343.327881</ele>
        <time>2009-05-31T09:36:42Z</time>
      </trkpt>
      <trkpt lat="43.88276" lon="7.23577">
        <ele>341.885986</ele>
        <time>2009-05-31T09:36:46Z</time>
      </trkpt>
      <trkpt lat="43.88264" lon="7.23569">
        <ele>339.963379</ele>
        <time>2009-05-31T09:36:48Z</time>
      </trkpt>
      <trkpt lat="43.88234" lon="7.23547">
        <ele>329.388916</ele>
        <time>2009-05-31T09:36:53Z</time>
      </trkpt>
      <trkpt lat="43.88224" lon="7.23524">
        <ele>325.062988</ele>
        <time>2009-05-31T09:36:57Z</time>
      </trkpt>
      <trkpt lat="43.88214" lon="7.23515">
        <ele>317.853027</ele>
        <time>2009-05-31T09:37:02Z</time>
      </trkpt>
      <trkpt lat="43.88205" lon="7.23514">
        <ele>316.411011</ele>
        <time>2009-05-31T09:37:05Z</time>
      </trkpt>
      <trkpt lat="43.88199" lon="7.23496">
        <ele>311.123779</ele>
        <time>2009-05-31T09:37:10Z</time>
      </trkpt>
      <trkpt lat="43.88194" lon="7.23473">
        <ele>305.83667</ele>
        <time>2009-05-31T09:37:14Z</time>
      </trkpt>
      <trkpt lat="43.88193" lon="7.23463">
        <ele>302.952515</ele>
        <time>2009-05-31T09:37:16Z</time>
      </trkpt>
      <trkpt lat="43.88194" lon="7.23452">
        <ele>301.029907</ele>
        <time>2009-05-31T09:37:20Z</time>
      </trkpt>
      <trkpt lat="43.88189" lon="7.23454">
        <ele>300.068726</ele>
        <time>2009-05-31T09:37:22Z</time>
      </trkpt>
      <trkpt lat="43.88181" lon="7.23457">
        <ele>299.1073</ele>
        <time>2009-05-31T09:37:24Z</time>
      </trkpt>
      <trkpt lat="43.88182" lon="7.23447">
        <ele>297.665405</ele>
        <time>2009-05-31T09:37:28Z</time>
      </trkpt>
      <trkpt lat="43.88188" lon="7.23435">
        <ele>296.223511</ele>
        <time>2009-05-31T09:37:31Z</time>
      </trkpt>
      <trkpt lat="43.88177" lon="7.23429">
        <ele>292.858765</ele>
        <time>2009-05-31T09:37:34Z</time>
      </trkpt>
      <trkpt lat="43.88155" lon="7.23418">
        <ele>288.532959</ele>
        <time>2009-05-31T09:37:38Z</time>
      </trkpt>
      <trkpt lat="43.88145" lon="7.23415">
        <ele>286.610229</ele>
        <time>2009-05-31T09:37:40Z</time>
      </trkpt>
      <trkpt lat="43.8813" lon="7.23414">
        <ele>283.245605</ele>
        <time>2009-05-31T09:37:43Z</time>
      </trkpt>
      <trkpt lat="43.88108" lon="7.23416">
        <ele>277.958252</ele>
        <time>2009-05-31T09:37:48Z</time>
      </trkpt>
      <trkpt lat="43.881" lon="7.23428">
        <ele>276.035645</ele>
        <time>2009-05-31T09:37:51Z</time>
      </trkpt>
      <trkpt lat="43.88096" lon="7.23428">
        <ele>276.035645</ele>
        <time>2009-05-31T09:37:53Z</time>
      </trkpt>
      <trkpt lat="43.88097" lon="7.23424">
        <ele>276.516357</ele>
        <time>2009-05-31T09:37:54Z</time>
      </trkpt>
      <trkpt lat="43.88109" lon="7.23404">
        <ele>276.035645</ele>
        <time>2009-05-31T09:37:58Z</time>
      </trkpt>
      <trkpt lat="43.88106" lon="7.23392">
        <ele>275.074463</ele>
        <time>2009-05-31T09:38:02Z</time>
      </trkpt>
      <trkpt lat="43.881" lon="7.23397">
        <ele>273.632446</ele>
        <time>2009-05-31T09:38:04Z</time>
      </trkpt>
      <trkpt lat="43.88095" lon="7.23388">
        <ele>271.709717</ele>
        <time>2009-05-31T09:38:09Z</time>
      </trkpt>
      <trkpt lat="43.881" lon="7.23386">
        <ele>270.2677</ele>
        <time>2009-05-31T09:38:12Z</time>
      </trkpt>
      <trkpt lat="43.88102" lon="7.23386">
        <ele>270.2677</ele>
        <time>2009-05-31T09:38:13Z</time>
      </trkpt>
      <trkpt lat="43.88102" lon="7.23385">
        <ele>269.787109</ele>
        <time>2009-05-31T09:38:17Z</time>
      </trkpt>
      <trkpt lat="43.88101" lon="7.23379">
        <ele>267.864502</ele>
        <time>2009-05-31T09:38:21Z</time>
      </trkpt>
      <trkpt lat="43.88107" lon="7.23381">
        <ele>265.461304</ele>
        <time>2009-05-31T09:38:24Z</time>
      </trkpt>
      <trkpt lat="43.88105" lon="7.23377">
        <ele>265.461304</ele>
        <time>2009-05-31T09:38:27Z</time>
      </trkpt>
      <trkpt lat="43.88099" lon="7.23375">
        <ele>262.096558</ele>
        <time>2009-05-31T09:38:29Z</time>
      </trkpt>
      <trkpt lat="43.88092" lon="7.23376">
        <ele>260.654541</ele>
        <time>2009-05-31T09:38:31Z</time>
      </trkpt>
      <trkpt lat="43.88087" lon="7.23365">
        <ele>257.770752</ele>
        <time>2009-05-31T09:38:34Z</time>
      </trkpt>
      <trkpt lat="43.881" lon="7.23358">
        <ele>256.809326</ele>
        <time>2009-05-31T09:38:37Z</time>
      </trkpt>
      <trkpt lat="43.8811" lon="7.23352">
        <ele>253.444702</ele>
        <time>2009-05-31T09:38:41Z</time>
      </trkpt>
      <trkpt lat="43.88119" lon="7.2335">
        <ele>251.522095</ele>
        <time>2009-05-31T09:38:44Z</time>
      </trkpt>
      <trkpt lat="43.88139" lon="7.23349">
        <ele>249.118774</ele>
        <time>2009-05-31T09:38:49Z</time>
      </trkpt>
      <trkpt lat="43.88148" lon="7.2335">
        <ele>247.676758</ele>
        <time>2009-05-31T09:38:52Z</time>
      </trkpt>
      <trkpt lat="43.88155" lon="7.23342">
        <ele>244.792847</ele>
        <time>2009-05-31T09:38:57Z</time>
      </trkpt>
      <trkpt lat="43.88156" lon="7.23329">
        <ele>243.831543</ele>
        <time>2009-05-31T09:39:02Z</time>
      </trkpt>
      <trkpt lat="43.88142" lon="7.2332">
        <ele>245.273438</ele>
        <time>2009-05-31T09:39:07Z</time>
      </trkpt>
      <trkpt lat="43.88117" lon="7.23304">
        <ele>245.273438</ele>
        <time>2009-05-31T09:39:14Z</time>
      </trkpt>
      <trkpt lat="43.88103" lon="7.23289">
        <ele>244.312256</ele>
        <time>2009-05-31T09:39:19Z</time>
      </trkpt>
      <trkpt lat="43.88093" lon="7.23276">
        <ele>243.831543</ele>
        <time>2009-05-31T09:39:24Z</time>
      </trkpt>
      <trkpt lat="43.88083" lon="7.23273">
        <ele>241.428223</ele>
        <time>2009-05-31T09:39:28Z</time>
      </trkpt>
      <trkpt lat="43.88057" lon="7.23271">
        <ele>233.737671</ele>
        <time>2009-05-31T09:39:34Z</time>
      </trkpt>
      <trkpt lat="43.88044" lon="7.23277">
        <ele>230.85376</ele>
        <time>2009-05-31T09:39:37Z</time>
      </trkpt>
      <trkpt lat="43.88021" lon="7.23272">
        <ele>227.969727</ele>
        <time>2009-05-31T09:39:42Z</time>
      </trkpt>
      <trkpt lat="43.88018" lon="7.23268">
        <ele>227.489136</ele>
        <time>2009-05-31T09:39:43Z</time>
      </trkpt>
      <trkpt lat="43.87998" lon="7.23254">
        <ele>223.643799</ele>
        <time>2009-05-31T09:39:48Z</time>
      </trkpt>
      <trkpt lat="43.8798" lon="7.23254">
        <ele>219.798584</ele>
        <time>2009-05-31T09:39:52Z</time>
      </trkpt>
      <trkpt lat="43.87974" lon="7.23265">
        <ele>213.550049</ele>
        <time>2009-05-31T09:39:56Z</time>
      </trkpt>
      <trkpt lat="43.87975" lon="7.23267">
        <ele>212.588623</ele>
        <time>2009-05-31T09:39:57Z</time>
      </trkpt>
      <trkpt lat="43.87973" lon="7.23272">
        <ele>209.224121</ele>
        <time>2009-05-31T09:39:59Z</time>
      </trkpt>
      <trkpt lat="43.87969" lon="7.23267">
        <ele>206.340088</ele>
        <time>2009-05-31T09:40:03Z</time>
      </trkpt>
      <trkpt lat="43.87965" lon="7.23235">
        <ele>207.782104</ele>
        <time>2009-05-31T09:40:09Z</time>
      </trkpt>
      <trkpt lat="43.87962" lon="7.23212">
        <ele>205.859497</ele>
        <time>2009-05-31T09:40:13Z</time>
      </trkpt>
      <trkpt lat="43.87961" lon="7.23207">
        <ele>204.898071</ele>
        <time>2009-05-31T09:40:14Z</time>
      </trkpt>
      <trkpt lat="43.8796" lon="7.23197">
        <ele>204.898071</ele>
        <time>2009-05-31T09:40:16Z</time>
      </trkpt>
      <trkpt lat="43.87957" lon="7.23175">
        <ele>202.014282</ele>
        <time>2009-05-31T09:40:21Z</time>
      </trkpt>
      <trkpt lat="43.87952" lon="7.23143">
        <ele>200.572266</ele>
        <time>2009-05-31T09:40:27Z</time>
      </trkpt>
      <trkpt lat="43.87948" lon="7.23122">
        <ele>204.41748</ele>
        <time>2009-05-31T09:40:31Z</time>
      </trkpt>
      <trkpt lat="43.87947" lon="7.23119">
        <ele>204.898071</ele>
        <time>2009-05-31T09:40:32Z</time>
      </trkpt>
      <trkpt lat="43.87946" lon="7.23142">
        <ele>202.975464</ele>
        <time>2009-05-31T09:40:36Z</time>
      </trkpt>
      <trkpt lat="43.87949" lon="7.23196">
        <ele>196.726929</ele>
        <time>2009-05-31T09:40:42Z</time>
      </trkpt>
      <trkpt lat="43.8795" lon="7.23229">
        <ele>194.32373</ele>
        <time>2009-05-31T09:40:45Z</time>
      </trkpt>
      <trkpt lat="43.87949" lon="7.23254">
        <ele>193.843018</ele>
        <time>2009-05-31T09:40:48Z</time>
      </trkpt>
      <trkpt lat="43.87941" lon="7.23255">
        <ele>194.32373</ele>
        <time>2009-05-31T09:40:51Z</time>
      </trkpt>
      <trkpt lat="43.87936" lon="7.23239">
        <ele>192.401123</ele>
        <time>2009-05-31T09:40:54Z</time>
      </trkpt>
      <trkpt lat="43.87933" lon="7.23212">
        <ele>190.958984</ele>
        <time>2009-05-31T09:40:57Z</time>
      </trkpt>
      <trkpt lat="43.87924" lon="7.23181">
        <ele>191.439575</ele>
        <time>2009-05-31T09:41:00Z</time>
      </trkpt>
      <trkpt lat="43.87922" lon="7.2317">
        <ele>191.920288</ele>
        <time>2009-05-31T09:41:01Z</time>
      </trkpt>
      <trkpt lat="43.87912" lon="7.2314">
        <ele>188.075073</ele>
        <time>2009-05-31T09:41:06Z</time>
      </trkpt>
      <trkpt lat="43.87911" lon="7.23139">
        <ele>187.11377</ele>
        <time>2009-05-31T09:41:07Z</time>
      </trkpt>
      <trkpt lat="43.879" lon="7.23132">
        <ele>186.633179</ele>
        <time>2009-05-31T09:41:12Z</time>
      </trkpt>
      <trkpt lat="43.87887" lon="7.2313">
        <ele>183.749023</ele>
        <time>2009-05-31T09:41:16Z</time>
      </trkpt>
      <trkpt lat="43.87883" lon="7.23132">
        <ele>182.787842</ele>
        <time>2009-05-31T09:41:20Z</time>
      </trkpt>
      <trkpt lat="43.87876" lon="7.23135">
        <ele>181.826416</ele>
        <time>2009-05-31T09:41:26Z</time>
      </trkpt>
      <trkpt lat="43.87862" lon="7.23139">
        <ele>180.865234</ele>
        <time>2009-05-31T09:41:34Z</time>
      </trkpt>
      <trkpt lat="43.87846" lon="7.23141">
        <ele>179.423218</ele>
        <time>2009-05-31T09:41:40Z</time>
      </trkpt>
      <trkpt lat="43.87843" lon="7.23148">
        <ele>178.461914</ele>
        <time>2009-05-31T09:41:44Z</time>
      </trkpt>
      <trkpt lat="43.87843" lon="7.2315">
        <ele>178.461914</ele>
        <time>2009-05-31T09:41:45Z</time>
      </trkpt>
      <trkpt lat="43.87845" lon="7.23159">
        <ele>180.384521</ele>
        <time>2009-05-31T09:41:51Z</time>
      </trkpt>
      <trkpt lat="43.87844" lon="7.23167">
        <ele>179.423218</ele>
        <time>2009-05-31T09:41:57Z</time>
      </trkpt>
      <trkpt lat="43.87842" lon="7.23171">
        <ele>178.942627</ele>
        <time>2009-05-31T09:42:00Z</time>
      </trkpt>
      <trkpt lat="43.87838" lon="7.23175">
        <ele>177.50061</ele>
        <time>2009-05-31T09:42:04Z</time>
      </trkpt>
      <trkpt lat="43.87839" lon="7.2318">
        <ele>181.826416</ele>
        <time>2009-05-31T09:42:11Z</time>
      </trkpt>
      <trkpt lat="43.87837" lon="7.23184">
        <ele>183.268433</ele>
        <time>2009-05-31T09:42:17Z</time>
      </trkpt>
      <trkpt lat="43.87836" lon="7.23188">
        <ele>187.59436</ele>
        <time>2009-05-31T09:42:22Z</time>
      </trkpt>
      <trkpt lat="43.87835" lon="7.23195">
        <ele>190.478394</ele>
        <time>2009-05-31T09:42:29Z</time>
      </trkpt>
      <trkpt lat="43.87833" lon="7.23195">
        <ele>190.958984</ele>
        <time>2009-05-31T09:42:33Z</time>
      </trkpt>
      <trkpt lat="43.87833" lon="7.23186">
        <ele>190.958984</ele>
        <time>2009-05-31T09:42:40Z</time>
      </trkpt>
      <trkpt lat="43.87834" lon="7.23179">
        <ele>194.32373</ele>
        <time>2009-05-31T09:42:47Z</time>
      </trkpt>
      <trkpt lat="43.87833" lon="7.23174">
        <ele>195.284912</ele>
        <time>2009-05-31T09:42:51Z</time>
      </trkpt>
      <trkpt lat="43.87831" lon="7.23167">
        <ele>195.765625</ele>
        <time>2009-05-31T09:42:58Z</time>
      </trkpt>
      <trkpt lat="43.87829" lon="7.23159">
        <ele>196.246338</ele>
        <time>2009-05-31T09:43:05Z</time>
      </trkpt>
      <trkpt lat="43.87827" lon="7.23149">
        <ele>193.362305</ele>
        <time>2009-05-31T09:43:13Z</time>
      </trkpt>
      <trkpt lat="43.87825" lon="7.23144">
        <ele>194.32373</ele>
        <time>2009-05-31T09:43:19Z</time>
      </trkpt>
      <trkpt lat="43.87823" lon="7.23138">
        <ele>198.168945</ele>
        <time>2009-05-31T09:43:25Z</time>
      </trkpt>
      <trkpt lat="43.87821" lon="7.23128">
        <ele>198.168945</ele>
        <time>2009-05-31T09:43:33Z</time>
      </trkpt>
      <trkpt lat="43.87821" lon="7.23123">
        <ele>202.494873</ele>
        <time>2009-05-31T09:43:38Z</time>
      </trkpt>
      <trkpt lat="43.87819" lon="7.23114">
        <ele>204.898071</ele>
        <time>2009-05-31T09:43:47Z</time>
      </trkpt>
      <trkpt lat="43.87819" lon="7.23103">
        <ele>207.301392</ele>
        <time>2009-05-31T09:43:55Z</time>
      </trkpt>
      <trkpt lat="43.87819" lon="7.23095">
        <ele>207.782104</ele>
        <time>2009-05-31T09:44:01Z</time>
      </trkpt>
      <trkpt lat="43.87814" lon="7.23089">
        <ele>208.262817</ele>
        <time>2009-05-31T09:44:10Z</time>
      </trkpt>
      <trkpt lat="43.87811" lon="7.23085">
        <ele>212.108032</ele>
        <time>2009-05-31T09:44:17Z</time>
      </trkpt>
      <trkpt lat="43.87806" lon="7.23083">
        <ele>213.550049</ele>
        <time>2009-05-31T09:44:23Z</time>
      </trkpt>
      <trkpt lat="43.87801" lon="7.23079">
        <ele>217.875977</ele>
        <time>2009-05-31T09:44:30Z</time>
      </trkpt>
      <trkpt lat="43.87796" lon="7.23078">
        <ele>217.395386</ele>
        <time>2009-05-31T09:44:35Z</time>
      </trkpt>
      <trkpt lat="43.87794" lon="7.23078">
        <ele>220.759888</ele>
        <time>2009-05-31T09:44:39Z</time>
      </trkpt>
      <trkpt lat="43.87796" lon="7.23083">
        <ele>220.279175</ele>
        <time>2009-05-31T09:44:44Z</time>
      </trkpt>
      <trkpt lat="43.87794" lon="7.23086">
        <ele>217.875977</ele>
        <time>2009-05-31T09:44:50Z</time>
      </trkpt>
      <trkpt lat="43.8779" lon="7.23082">
        <ele>217.875977</ele>
        <time>2009-05-31T09:44:57Z</time>
      </trkpt>
      <trkpt lat="43.87783" lon="7.2308">
        <ele>218.356567</ele>
        <time>2009-05-31T09:45:04Z</time>
      </trkpt>
      <trkpt lat="43.8778" lon="7.23075">
        <ele>217.875977</ele>
        <time>2009-05-31T09:45:09Z</time>
      </trkpt>
      <trkpt lat="43.87775" lon="7.23067">
        <ele>218.83728</ele>
        <time>2009-05-31T09:45:17Z</time>
      </trkpt>
      <trkpt lat="43.8777" lon="7.23062">
        <ele>220.759888</ele>
        <time>2009-05-31T09:45:23Z</time>
      </trkpt>
      <trkpt lat="43.87765" lon="7.23053">
        <ele>219.317993</ele>
        <time>2009-05-31T09:45:32Z</time>
      </trkpt>
      <trkpt lat="43.8776" lon="7.23047">
        <ele>218.356567</ele>
        <time>2009-05-31T09:45:39Z</time>
      </trkpt>
      <trkpt lat="43.87757" lon="7.23045">
        <ele>225.566528</ele>
        <time>2009-05-31T09:45:44Z</time>
      </trkpt>
      <trkpt lat="43.87749" lon="7.23043">
        <ele>230.85376</ele>
        <time>2009-05-31T09:45:51Z</time>
      </trkpt>
      <trkpt lat="43.87746" lon="7.23041">
        <ele>233.737671</ele>
        <time>2009-05-31T09:45:55Z</time>
      </trkpt>
      <trkpt lat="43.87743" lon="7.23038">
        <ele>233.737671</ele>
        <time>2009-05-31T09:46:01Z</time>
      </trkpt>
      <trkpt lat="43.87739" lon="7.23036">
        <ele>234.218384</ele>
        <time>2009-05-31T09:46:09Z</time>
      </trkpt>
      <trkpt lat="43.87738" lon="7.23035">
        <ele>237.582886</ele>
        <time>2009-05-31T09:46:14Z</time>
      </trkpt>
      <trkpt lat="43.87734" lon="7.2303">
        <ele>234.218384</ele>
        <time>2009-05-31T09:46:21Z</time>
      </trkpt>
      <trkpt lat="43.87726" lon="7.23019">
        <ele>233.25708</ele>
        <time>2009-05-31T09:46:25Z</time>
      </trkpt>
      <trkpt lat="43.87719" lon="7.23015">
        <ele>236.140991</ele>
        <time>2009-05-31T09:46:30Z</time>
      </trkpt>
      <trkpt lat="43.8771" lon="7.23014">
        <ele>237.582886</ele>
        <time>2009-05-31T09:46:37Z</time>
      </trkpt>
      <trkpt lat="43.87705" lon="7.23012">
        <ele>239.024902</ele>
        <time>2009-05-31T09:46:42Z</time>
      </trkpt>
      <trkpt lat="43.87699" lon="7.23008">
        <ele>240.467041</ele>
        <time>2009-05-31T09:46:49Z</time>
      </trkpt>
      <trkpt lat="43.87694" lon="7.23006">
        <ele>240.467041</ele>
        <time>2009-05-31T09:46:56Z</time>
      </trkpt>
      <trkpt lat="43.87686" lon="7.23005">
        <ele>238.063599</ele>
        <time>2009-05-31T09:47:03Z</time>
      </trkpt>
      <trkpt lat="43.87678" lon="7.22999">
        <ele>247.676758</ele>
        <time>2009-05-31T09:47:11Z</time>
      </trkpt>
      <trkpt lat="43.87673" lon="7.22995">
        <ele>248.157593</ele>
        <time>2009-05-31T09:47:18Z</time>
      </trkpt>
      <trkpt lat="43.87665" lon="7.22989">
        <ele>247.196045</ele>
        <time>2009-05-31T09:47:27Z</time>
      </trkpt>
      <trkpt lat="43.87659" lon="7.22982">
        <ele>249.599487</ele>
        <time>2009-05-31T09:47:35Z</time>
      </trkpt>
      <trkpt lat="43.87654" lon="7.22979">
        <ele>252.002808</ele>
        <time>2009-05-31T09:47:42Z</time>
      </trkpt>
      <trkpt lat="43.87648" lon="7.22973">
        <ele>252.483398</ele>
        <time>2009-05-31T09:47:50Z</time>
      </trkpt>
      <trkpt lat="43.87645" lon="7.22969">
        <ele>250.0802</ele>
        <time>2009-05-31T09:47:55Z</time>
      </trkpt>
      <trkpt lat="43.87641" lon="7.22965">
        <ele>252.963989</ele>
        <time>2009-05-31T09:48:00Z</time>
      </trkpt>
      <trkpt lat="43.87637" lon="7.22949">
        <ele>254.886597</ele>
        <time>2009-05-31T09:48:08Z</time>
      </trkpt>
      <trkpt lat="43.87634" lon="7.22928">
        <ele>258.251343</ele>
        <time>2009-05-31T09:48:17Z</time>
      </trkpt>
      <trkpt lat="43.87628" lon="7.22911">
        <ele>259.693359</ele>
        <time>2009-05-31T09:48:24Z</time>
      </trkpt>
      <trkpt lat="43.87618" lon="7.22896">
        <ele>258.731934</ele>
        <time>2009-05-31T09:48:33Z</time>
      </trkpt>
      <trkpt lat="43.87612" lon="7.2289">
        <ele>257.770752</ele>
        <time>2009-05-31T09:48:38Z</time>
      </trkpt>
      <trkpt lat="43.87609" lon="7.22882">
        <ele>258.251343</ele>
        <time>2009-05-31T09:48:42Z</time>
      </trkpt>
      <trkpt lat="43.87601" lon="7.22866">
        <ele>258.251343</ele>
        <time>2009-05-31T09:48:50Z</time>
      </trkpt>
      <trkpt lat="43.87589" lon="7.22859">
        <ele>255.36731</ele>
        <time>2009-05-31T09:48:56Z</time>
      </trkpt>
      <trkpt lat="43.87576" lon="7.22858">
        <ele>254.886597</ele>
        <time>2009-05-31T09:49:03Z</time>
      </trkpt>
      <trkpt lat="43.87564" lon="7.22858">
        <ele>253.925415</ele>
        <time>2009-05-31T09:49:10Z</time>
      </trkpt>
      <trkpt lat="43.8756" lon="7.22858">
        <ele>252.963989</ele>
        <time>2009-05-31T09:49:17Z</time>
      </trkpt>
      <trkpt lat="43.87559" lon="7.22852">
        <ele>269.306519</ele>
        <time>2009-05-31T09:49:43Z</time>
      </trkpt>
      <trkpt lat="43.8756" lon="7.22849">
        <ele>285.168213</ele>
        <time>2009-05-31T09:49:53Z</time>
      </trkpt>
      <trkpt lat="43.87556" lon="7.22848">
        <ele>284.687622</ele>
        <time>2009-05-31T09:49:56Z</time>
      </trkpt>
      <trkpt lat="43.87545" lon="7.22845">
        <ele>276.035645</ele>
        <time>2009-05-31T09:50:03Z</time>
      </trkpt>
      <trkpt lat="43.87543" lon="7.22831">
        <ele>274.113037</ele>
        <time>2009-05-31T09:50:09Z</time>
      </trkpt>
      <trkpt lat="43.87549" lon="7.22822">
        <ele>268.345093</ele>
        <time>2009-05-31T09:50:15Z</time>
      </trkpt>
      <trkpt lat="43.87551" lon="7.2282">
        <ele>263.057861</ele>
        <time>2009-05-31T09:50:19Z</time>
      </trkpt>
      <trkpt lat="43.87556" lon="7.22812">
        <ele>260.654541</ele>
        <time>2009-05-31T09:50:27Z</time>
      </trkpt>
      <trkpt lat="43.87559" lon="7.22802">
        <ele>253.444702</ele>
        <time>2009-05-31T09:50:37Z</time>
      </trkpt>
      <trkpt lat="43.87562" lon="7.22795">
        <ele>253.444702</ele>
        <time>2009-05-31T09:50:43Z</time>
      </trkpt>
      <trkpt lat="43.87565" lon="7.22791">
        <ele>254.886597</ele>
        <time>2009-05-31T09:50:47Z</time>
      </trkpt>
      <trkpt lat="43.87569" lon="7.22787">
        <ele>258.731934</ele>
        <time>2009-05-31T09:50:51Z</time>
      </trkpt>
      <trkpt lat="43.87571" lon="7.22783">
        <ele>263.538574</ele>
        <time>2009-05-31T09:50:54Z</time>
      </trkpt>
      <trkpt lat="43.87571" lon="7.22777">
        <ele>265.941895</ele>
        <time>2009-05-31T09:51:00Z</time>
      </trkpt>
      <trkpt lat="43.87571" lon="7.22768">
        <ele>267.383911</ele>
        <time>2009-05-31T09:51:07Z</time>
      </trkpt>
      <trkpt lat="43.87571" lon="7.22761">
        <ele>269.306519</ele>
        <time>2009-05-31T09:51:13Z</time>
      </trkpt>
      <trkpt lat="43.87569" lon="7.22753">
        <ele>267.383911</ele>
        <time>2009-05-31T09:51:19Z</time>
      </trkpt>
      <trkpt lat="43.87565" lon="7.22745">
        <ele>266.903198</ele>
        <time>2009-05-31T09:51:27Z</time>
      </trkpt>
      <trkpt lat="43.87561" lon="7.22738">
        <ele>267.864502</ele>
        <time>2009-05-31T09:51:35Z</time>
      </trkpt>
      <trkpt lat="43.8756" lon="7.22734">
        <ele>269.787109</ele>
        <time>2009-05-31T09:51:40Z</time>
      </trkpt>
      <trkpt lat="43.87553" lon="7.22725">
        <ele>266.903198</ele>
        <time>2009-05-31T09:51:49Z</time>
      </trkpt>
      <trkpt lat="43.87549" lon="7.2272">
        <ele>269.787109</ele>
        <time>2009-05-31T09:51:56Z</time>
      </trkpt>
      <trkpt lat="43.87545" lon="7.22712">
        <ele>275.555054</ele>
        <time>2009-05-31T09:52:04Z</time>
      </trkpt>
      <trkpt lat="43.8754" lon="7.22706">
        <ele>276.99707</ele>
        <time>2009-05-31T09:52:11Z</time>
      </trkpt>
      <trkpt lat="43.87537" lon="7.22706">
        <ele>278.438965</ele>
        <time>2009-05-31T09:52:17Z</time>
      </trkpt>
      <trkpt lat="43.87537" lon="7.22711">
        <ele>281.322998</ele>
        <time>2009-05-31T09:52:21Z</time>
      </trkpt>
      <trkpt lat="43.87539" lon="7.22719">
        <ele>284.687622</ele>
        <time>2009-05-31T09:52:28Z</time>
      </trkpt>
      <trkpt lat="43.8754" lon="7.22728">
        <ele>287.571411</ele>
        <time>2009-05-31T09:52:35Z</time>
      </trkpt>
      <trkpt lat="43.8754" lon="7.22737">
        <ele>290.455566</ele>
        <time>2009-05-31T09:52:42Z</time>
      </trkpt>
      <trkpt lat="43.87539" lon="7.22745">
        <ele>292.378174</ele>
        <time>2009-05-31T09:52:49Z</time>
      </trkpt>
      <trkpt lat="43.87538" lon="7.2275">
        <ele>292.378174</ele>
        <time>2009-05-31T09:52:55Z</time>
      </trkpt>
      <trkpt lat="43.87537" lon="7.22758">
        <ele>293.820068</ele>
        <time>2009-05-31T09:53:02Z</time>
      </trkpt>
      <trkpt lat="43.87533" lon="7.22764">
        <ele>295.261963</ele>
        <time>2009-05-31T09:53:10Z</time>
      </trkpt>
      <trkpt lat="43.87534" lon="7.22758">
        <ele>294.300781</ele>
        <time>2009-05-31T09:53:15Z</time>
      </trkpt>
      <trkpt lat="43.87529" lon="7.22748">
        <ele>290.455566</ele>
        <time>2009-05-31T09:53:24Z</time>
      </trkpt>
      <trkpt lat="43.87525" lon="7.2274">
        <ele>288.052246</ele>
        <time>2009-05-31T09:53:31Z</time>
      </trkpt>
      <trkpt lat="43.87523" lon="7.22728">
        <ele>287.09082</ele>
        <time>2009-05-31T09:53:41Z</time>
      </trkpt>
      <trkpt lat="43.8752" lon="7.22719">
        <ele>290.455566</ele>
        <time>2009-05-31T09:53:49Z</time>
      </trkpt>
      <trkpt lat="43.87517" lon="7.22723">
        <ele>292.858765</ele>
        <time>2009-05-31T09:53:54Z</time>
      </trkpt>
      <trkpt lat="43.87517" lon="7.22729">
        <ele>295.742676</ele>
        <time>2009-05-31T09:53:58Z</time>
      </trkpt>
      <trkpt lat="43.87516" lon="7.22743">
        <ele>300.068726</ele>
        <time>2009-05-31T09:54:08Z</time>
      </trkpt>
      <trkpt lat="43.87516" lon="7.22751">
        <ele>302.952515</ele>
        <time>2009-05-31T09:54:15Z</time>
      </trkpt>
      <trkpt lat="43.87513" lon="7.22747">
        <ele>302.471924</ele>
        <time>2009-05-31T09:54:20Z</time>
      </trkpt>
      <trkpt lat="43.87512" lon="7.22739">
        <ele>302.471924</ele>
        <time>2009-05-31T09:54:26Z</time>
      </trkpt>
      <trkpt lat="43.87511" lon="7.22733">
        <ele>303.91394</ele>
        <time>2009-05-31T09:54:31Z</time>
      </trkpt>
      <trkpt lat="43.87508" lon="7.22724">
        <ele>305.83667</ele>
        <time>2009-05-31T09:54:39Z</time>
      </trkpt>
      <trkpt lat="43.87506" lon="7.22715">
        <ele>305.355957</ele>
        <time>2009-05-31T09:54:47Z</time>
      </trkpt>
      <trkpt lat="43.87502" lon="7.22707">
        <ele>307.759277</ele>
        <time>2009-05-31T09:54:56Z</time>
      </trkpt>
      <trkpt lat="43.87501" lon="7.22711">
        <ele>310.643066</ele>
        <time>2009-05-31T09:55:00Z</time>
      </trkpt>
      <trkpt lat="43.875" lon="7.22719">
        <ele>313.527222</ele>
        <time>2009-05-31T09:55:07Z</time>
      </trkpt>
      <trkpt lat="43.875" lon="7.22727">
        <ele>315.93042</ele>
        <time>2009-05-31T09:55:13Z</time>
      </trkpt>
      <trkpt lat="43.87497" lon="7.22731">
        <ele>317.853027</ele>
        <time>2009-05-31T09:55:18Z</time>
      </trkpt>
      <trkpt lat="43.87497" lon="7.22738">
        <ele>318.814331</ele>
        <time>2009-05-31T09:55:24Z</time>
      </trkpt>
      <trkpt lat="43.87492" lon="7.22747">
        <ele>318.814331</ele>
        <time>2009-05-31T09:55:32Z</time>
      </trkpt>
      <trkpt lat="43.87489" lon="7.22747">
        <ele>317.853027</ele>
        <time>2009-05-31T09:55:36Z</time>
      </trkpt>
      <trkpt lat="43.87488" lon="7.22742">
        <ele>317.853027</ele>
        <time>2009-05-31T09:55:40Z</time>
      </trkpt>
      <trkpt lat="43.8749" lon="7.22734">
        <ele>318.333618</ele>
        <time>2009-05-31T09:55:46Z</time>
      </trkpt>
      <trkpt lat="43.8749" lon="7.22732">
        <ele>318.333618</ele>
        <time>2009-05-31T09:55:48Z</time>
      </trkpt>
      <trkpt lat="43.87492" lon="7.22724">
        <ele>321.217773</ele>
        <time>2009-05-31T09:55:55Z</time>
      </trkpt>
      <trkpt lat="43.87489" lon="7.2272">
        <ele>320.737061</ele>
        <time>2009-05-31T09:55:59Z</time>
      </trkpt>
      <trkpt lat="43.87487" lon="7.22714">
        <ele>320.256348</ele>
        <time>2009-05-31T09:56:04Z</time>
      </trkpt>
      <trkpt lat="43.87484" lon="7.22702">
        <ele>319.775635</ele>
        <time>2009-05-31T09:56:13Z</time>
      </trkpt>
      <trkpt lat="43.87483" lon="7.22693">
        <ele>319.295044</ele>
        <time>2009-05-31T09:56:20Z</time>
      </trkpt>
      <trkpt lat="43.87481" lon="7.2269">
        <ele>322.659668</ele>
        <time>2009-05-31T09:56:26Z</time>
      </trkpt>
      <trkpt lat="43.8748" lon="7.22696">
        <ele>327.466187</ele>
        <time>2009-05-31T09:56:33Z</time>
      </trkpt>
      <trkpt lat="43.87477" lon="7.227">
        <ele>330.35022</ele>
        <time>2009-05-31T09:56:39Z</time>
      </trkpt>
      <trkpt lat="43.87476" lon="7.22706">
        <ele>331.792114</ele>
        <time>2009-05-31T09:56:45Z</time>
      </trkpt>
      <trkpt lat="43.87477" lon="7.22716">
        <ele>334.676147</ele>
        <time>2009-05-31T09:56:53Z</time>
      </trkpt>
      <trkpt lat="43.87476" lon="7.22722">
        <ele>335.637329</ele>
        <time>2009-05-31T09:56:59Z</time>
      </trkpt>
      <trkpt lat="43.87472" lon="7.22721">
        <ele>335.156738</ele>
        <time>2009-05-31T09:57:05Z</time>
      </trkpt>
      <trkpt lat="43.87468" lon="7.22713">
        <ele>331.792114</ele>
        <time>2009-05-31T09:57:12Z</time>
      </trkpt>
      <trkpt lat="43.87467" lon="7.22706">
        <ele>333.714722</ele>
        <time>2009-05-31T09:57:19Z</time>
      </trkpt>
      <trkpt lat="43.87465" lon="7.22704">
        <ele>336.598877</ele>
        <time>2009-05-31T09:57:24Z</time>
      </trkpt>
      <trkpt lat="43.87464" lon="7.2271">
        <ele>338.040771</ele>
        <time>2009-05-31T09:57:29Z</time>
      </trkpt>
      <trkpt lat="43.87461" lon="7.22718">
        <ele>340.444092</ele>
        <time>2009-05-31T09:57:38Z</time>
      </trkpt>
      <trkpt lat="43.87458" lon="7.22721">
        <ele>341.885986</ele>
        <time>2009-05-31T09:57:44Z</time>
      </trkpt>
      <trkpt lat="43.87457" lon="7.22713">
        <ele>342.366699</ele>
        <time>2009-05-31T09:57:51Z</time>
      </trkpt>
      <trkpt lat="43.87456" lon="7.22708">
        <ele>340.924683</ele>
        <time>2009-05-31T09:57:56Z</time>
      </trkpt>
      <trkpt lat="43.87454" lon="7.22702">
        <ele>343.808594</ele>
        <time>2009-05-31T09:58:02Z</time>
      </trkpt>
      <trkpt lat="43.87455" lon="7.22689">
        <ele>346.692627</ele>
        <time>2009-05-31T09:58:10Z</time>
      </trkpt>
      <trkpt lat="43.87458" lon="7.22677">
        <ele>348.134644</ele>
        <time>2009-05-31T09:58:18Z</time>
      </trkpt>
      <trkpt lat="43.87458" lon="7.2267">
        <ele>350.057251</ele>
        <time>2009-05-31T09:58:23Z</time>
      </trkpt>
      <trkpt lat="43.87456" lon="7.22662">
        <ele>350.537842</ele>
        <time>2009-05-31T09:58:30Z</time>
      </trkpt>
      <trkpt lat="43.87456" lon="7.22653">
        <ele>351.499146</ele>
        <time>2009-05-31T09:58:37Z</time>
      </trkpt>
      <trkpt lat="43.87453" lon="7.22653">
        <ele>351.979858</ele>
        <time>2009-05-31T09:58:41Z</time>
      </trkpt>
      <trkpt lat="43.87453" lon="7.22651">
        <ele>352.460571</ele>
        <time>2009-05-31T09:58:42Z</time>
      </trkpt>
      <trkpt lat="43.87452" lon="7.2264">
        <ele>350.537842</ele>
        <time>2009-05-31T09:58:48Z</time>
      </trkpt>
      <trkpt lat="43.87447" lon="7.22635">
        <ele>350.537842</ele>
        <time>2009-05-31T09:58:55Z</time>
      </trkpt>
      <trkpt lat="43.87444" lon="7.22631">
        <ele>350.537842</ele>
        <time>2009-05-31T09:59:01Z</time>
      </trkpt>
      <trkpt lat="43.87441" lon="7.22634">
        <ele>352.460571</ele>
        <time>2009-05-31T09:59:06Z</time>
      </trkpt>
      <trkpt lat="43.87443" lon="7.22644">
        <ele>354.86377</ele>
        <time>2009-05-31T09:59:14Z</time>
      </trkpt>
      <trkpt lat="43.87442" lon="7.22651">
        <ele>357.26709</ele>
        <time>2009-05-31T09:59:20Z</time>
      </trkpt>
      <trkpt lat="43.87439" lon="7.22646">
        <ele>358.228394</ele>
        <time>2009-05-31T09:59:25Z</time>
      </trkpt>
      <trkpt lat="43.87435" lon="7.22638">
        <ele>358.708984</ele>
        <time>2009-05-31T09:59:32Z</time>
      </trkpt>
      <trkpt lat="43.8743" lon="7.22636">
        <ele>360.151123</ele>
        <time>2009-05-31T09:59:38Z</time>
      </trkpt>
      <trkpt lat="43.87423" lon="7.22634">
        <ele>359.67041</ele>
        <time>2009-05-31T09:59:46Z</time>
      </trkpt>
      <trkpt lat="43.87415" lon="7.22635">
        <ele>358.708984</ele>
        <time>2009-05-31T09:59:53Z</time>
      </trkpt>
      <trkpt lat="43.8741" lon="7.22636">
        <ele>359.67041</ele>
        <time>2009-05-31T10:00:00Z</time>
      </trkpt>
      <trkpt lat="43.87405" lon="7.22639">
        <ele>362.554321</ele>
        <time>2009-05-31T10:00:08Z</time>
      </trkpt>
      <trkpt lat="43.874" lon="7.22645">
        <ele>366.399536</ele>
        <time>2009-05-31T10:00:16Z</time>
      </trkpt>
      <trkpt lat="43.8739" lon="7.22653">
        <ele>367.841553</ele>
        <time>2009-05-31T10:00:24Z</time>
      </trkpt>
      <trkpt lat="43.87383" lon="7.22657">
        <ele>369.764282</ele>
        <time>2009-05-31T10:00:31Z</time>
      </trkpt>
      <trkpt lat="43.87378" lon="7.22664">
        <ele>374.570801</ele>
        <time>2009-05-31T10:00:40Z</time>
      </trkpt>
      <trkpt lat="43.87373" lon="7.2267">
        <ele>375.532104</ele>
        <time>2009-05-31T10:00:46Z</time>
      </trkpt>
      <trkpt lat="43.87365" lon="7.22676">
        <ele>378.416138</ele>
        <time>2009-05-31T10:00:54Z</time>
      </trkpt>
      <trkpt lat="43.87361" lon="7.22679">
        <ele>378.896851</ele>
        <time>2009-05-31T10:01:00Z</time>
      </trkpt>
      <trkpt lat="43.8736" lon="7.22681">
        <ele>379.377441</ele>
        <time>2009-05-31T10:01:01Z</time>
      </trkpt>
      <trkpt lat="43.87354" lon="7.22684">
        <ele>386.587402</ele>
        <time>2009-05-31T10:01:09Z</time>
      </trkpt>
      <trkpt lat="43.8735" lon="7.22685">
        <ele>392.355347</ele>
        <time>2009-05-31T10:01:15Z</time>
      </trkpt>
      <trkpt lat="43.87348" lon="7.22686">
        <ele>395.239136</ele>
        <time>2009-05-31T10:01:21Z</time>
      </trkpt>
      <trkpt lat="43.87343" lon="7.22686">
        <ele>403.4104</ele>
        <time>2009-05-31T10:01:27Z</time>
      </trkpt>
      <trkpt lat="43.87339" lon="7.22688">
        <ele>401.487793</ele>
        <time>2009-05-31T10:01:31Z</time>
      </trkpt>
      <trkpt lat="43.87333" lon="7.22689">
        <ele>402.449097</ele>
        <time>2009-05-31T10:01:37Z</time>
      </trkpt>
      <trkpt lat="43.87326" lon="7.22685">
        <ele>404.371704</ele>
        <time>2009-05-31T10:01:46Z</time>
      </trkpt>
      <trkpt lat="43.87318" lon="7.22685">
        <ele>402.449097</ele>
        <time>2009-05-31T10:01:54Z</time>
      </trkpt>
      <trkpt lat="43.87311" lon="7.2268">
        <ele>403.4104</ele>
        <time>2009-05-31T10:02:01Z</time>
      </trkpt>
      <trkpt lat="43.87309" lon="7.22681">
        <ele>401.487793</ele>
        <time>2009-05-31T10:02:04Z</time>
      </trkpt>
      <trkpt lat="43.87306" lon="7.22677">
        <ele>402.449097</ele>
        <time>2009-05-31T10:02:07Z</time>
      </trkpt>
      <trkpt lat="43.87305" lon="7.22665">
        <ele>412.062256</ele>
        <time>2009-05-31T10:02:13Z</time>
      </trkpt>
      <trkpt lat="43.873" lon="7.22654">
        <ele>405.813721</ele>
        <time>2009-05-31T10:02:19Z</time>
      </trkpt>
      <trkpt lat="43.87291" lon="7.22645">
        <ele>393.316528</ele>
        <time>2009-05-31T10:02:27Z</time>
      </trkpt>
      <trkpt lat="43.87289" lon="7.22642">
        <ele>391.874512</ele>
        <time>2009-05-31T10:02:29Z</time>
      </trkpt>
      <trkpt lat="43.87279" lon="7.22632">
        <ele>388.029297</ele>
        <time>2009-05-31T10:02:37Z</time>
      </trkpt>
      <trkpt lat="43.87276" lon="7.22628">
        <ele>387.067993</ele>
        <time>2009-05-31T10:02:40Z</time>
      </trkpt>
      <trkpt lat="43.87273" lon="7.22619">
        <ele>389.471191</ele>
        <time>2009-05-31T10:02:47Z</time>
      </trkpt>
      <trkpt lat="43.87272" lon="7.22618">
        <ele>389.471191</ele>
        <time>2009-05-31T10:02:48Z</time>
      </trkpt>
      <trkpt lat="43.8727" lon="7.22614">
        <ele>389.951904</ele>
        <time>2009-05-31T10:02:53Z</time>
      </trkpt>
      <trkpt lat="43.87266" lon="7.22608">
        <ele>391.874512</ele>
        <time>2009-05-31T10:03:00Z</time>
      </trkpt>
      <trkpt lat="43.87262" lon="7.22599">
        <ele>392.835938</ele>
        <time>2009-05-31T10:03:08Z</time>
      </trkpt>
      <trkpt lat="43.8726" lon="7.22592">
        <ele>394.277954</ele>
        <time>2009-05-31T10:03:13Z</time>
      </trkpt>
      <trkpt lat="43.87257" lon="7.22584">
        <ele>396.681152</ele>
        <time>2009-05-31T10:03:20Z</time>
      </trkpt>
      <trkpt lat="43.87255" lon="7.22579">
        <ele>400.045898</ele>
        <time>2009-05-31T10:03:27Z</time>
      </trkpt>
      <trkpt lat="43.87249" lon="7.22572">
        <ele>400.526489</ele>
        <time>2009-05-31T10:03:34Z</time>
      </trkpt>
      <trkpt lat="43.87242" lon="7.22565">
        <ele>401.968506</ele>
        <time>2009-05-31T10:03:43Z</time>
      </trkpt>
      <trkpt lat="43.87236" lon="7.22561">
        <ele>401.968506</ele>
        <time>2009-05-31T10:03:49Z</time>
      </trkpt>
      <trkpt lat="43.8723" lon="7.22555">
        <ele>401.487793</ele>
        <time>2009-05-31T10:03:55Z</time>
      </trkpt>
      <trkpt lat="43.87226" lon="7.22549">
        <ele>402.449097</ele>
        <time>2009-05-31T10:04:01Z</time>
      </trkpt>
      <trkpt lat="43.87219" lon="7.22542">
        <ele>407.255615</ele>
        <time>2009-05-31T10:04:10Z</time>
      </trkpt>
      <trkpt lat="43.87215" lon="7.22535">
        <ele>404.852295</ele>
        <time>2009-05-31T10:04:15Z</time>
      </trkpt>
      <trkpt lat="43.87213" lon="7.22523">
        <ele>406.774902</ele>
        <time>2009-05-31T10:04:23Z</time>
      </trkpt>
      <trkpt lat="43.87211" lon="7.2252">
        <ele>407.255615</ele>
        <time>2009-05-31T10:04:26Z</time>
      </trkpt>
      <trkpt lat="43.87207" lon="7.22517">
        <ele>406.774902</ele>
        <time>2009-05-31T10:04:31Z</time>
      </trkpt>
      <trkpt lat="43.87201" lon="7.22509">
        <ele>405.333008</ele>
        <time>2009-05-31T10:04:40Z</time>
      </trkpt>
      <trkpt lat="43.87195" lon="7.22503">
        <ele>407.255615</ele>
        <time>2009-05-31T10:04:48Z</time>
      </trkpt>
      <trkpt lat="43.8719" lon="7.22504">
        <ele>408.217041</ele>
        <time>2009-05-31T10:04:54Z</time>
      </trkpt>
      <trkpt lat="43.87188" lon="7.22507">
        <ele>408.697632</ele>
        <time>2009-05-31T10:04:57Z</time>
      </trkpt>
      <trkpt lat="43.87186" lon="7.22518">
        <ele>411.581665</ele>
        <time>2009-05-31T10:05:06Z</time>
      </trkpt>
      <trkpt lat="43.87183" lon="7.22527">
        <ele>413.984863</ele>
        <time>2009-05-31T10:05:13Z</time>
      </trkpt>
      <trkpt lat="43.87181" lon="7.22529">
        <ele>413.02356</ele>
        <time>2009-05-31T10:05:16Z</time>
      </trkpt>
      <trkpt lat="43.87174" lon="7.22536">
        <ele>413.02356</ele>
        <time>2009-05-31T10:05:24Z</time>
      </trkpt>
      <trkpt lat="43.87168" lon="7.22541">
        <ele>413.504272</ele>
        <time>2009-05-31T10:05:30Z</time>
      </trkpt>
      <trkpt lat="43.87162" lon="7.22545">
        <ele>414.946167</ele>
        <time>2009-05-31T10:05:36Z</time>
      </trkpt>
      <trkpt lat="43.87156" lon="7.22548">
        <ele>415.42688</ele>
        <time>2009-05-31T10:05:42Z</time>
      </trkpt>
      <trkpt lat="43.87147" lon="7.22556">
        <ele>418.791504</ele>
        <time>2009-05-31T10:05:51Z</time>
      </trkpt>
      <trkpt lat="43.8714" lon="7.22563">
        <ele>421.194824</ele>
        <time>2009-05-31T10:05:58Z</time>
      </trkpt>
      <trkpt lat="43.87138" lon="7.22564">
        <ele>421.194824</ele>
        <time>2009-05-31T10:05:59Z</time>
      </trkpt>
      <trkpt lat="43.87132" lon="7.22573">
        <ele>419.272217</ele>
        <time>2009-05-31T10:06:06Z</time>
      </trkpt>
      <trkpt lat="43.87121" lon="7.22587">
        <ele>422.156006</ele>
        <time>2009-05-31T10:06:13Z</time>
      </trkpt>
      <trkpt lat="43.87111" lon="7.22601">
        <ele>427.92395</ele>
        <time>2009-05-31T10:06:20Z</time>
      </trkpt>
      <trkpt lat="43.871" lon="7.22617">
        <ele>432.25</ele>
        <time>2009-05-31T10:06:26Z</time>
      </trkpt>
      <trkpt lat="43.87093" lon="7.22634">
        <ele>431.288574</ele>
        <time>2009-05-31T10:06:31Z</time>
      </trkpt>
      <trkpt lat="43.87087" lon="7.22652">
        <ele>432.25</ele>
        <time>2009-05-31T10:06:36Z</time>
      </trkpt>
      <trkpt lat="43.87076" lon="7.22653">
        <ele>432.25</ele>
        <time>2009-05-31T10:06:41Z</time>
      </trkpt>
      <trkpt lat="43.87075" lon="7.2265">
        <ele>431.769165</ele>
        <time>2009-05-31T10:06:42Z</time>
      </trkpt>
      <trkpt lat="43.87067" lon="7.22634">
        <ele>433.211304</ele>
        <time>2009-05-31T10:06:48Z</time>
      </trkpt>
      <trkpt lat="43.87059" lon="7.22619">
        <ele>438.498535</ele>
        <time>2009-05-31T10:06:55Z</time>
      </trkpt>
      <trkpt lat="43.87057" lon="7.22613">
        <ele>429.846558</ele>
        <time>2009-05-31T10:07:00Z</time>
      </trkpt>
      <trkpt lat="43.87055" lon="7.22602">
        <ele>429.846558</ele>
        <time>2009-05-31T10:07:07Z</time>
      </trkpt>
      <trkpt lat="43.87055" lon="7.226">
        <ele>428.885376</ele>
        <time>2009-05-31T10:07:11Z</time>
      </trkpt>
      <trkpt lat="43.87051" lon="7.22599">
        <ele>428.404663</ele>
        <time>2009-05-31T10:07:15Z</time>
      </trkpt>
      <trkpt lat="43.87041" lon="7.22596">
        <ele>429.365967</ele>
        <time>2009-05-31T10:07:24Z</time>
      </trkpt>
      <trkpt lat="43.87038" lon="7.22593">
        <ele>431.288574</ele>
        <time>2009-05-31T10:07:28Z</time>
      </trkpt>
      <trkpt lat="43.87031" lon="7.22587">
        <ele>435.614502</ele>
        <time>2009-05-31T10:07:36Z</time>
      </trkpt>
      <trkpt lat="43.8703" lon="7.22584">
        <ele>435.614502</ele>
        <time>2009-05-31T10:07:38Z</time>
      </trkpt>
      <trkpt lat="43.87022" lon="7.22581">
        <ele>436.575928</ele>
        <time>2009-05-31T10:07:46Z</time>
      </trkpt>
      <trkpt lat="43.87019" lon="7.2258">
        <ele>437.537109</ele>
        <time>2009-05-31T10:07:49Z</time>
      </trkpt>
      <trkpt lat="43.87013" lon="7.22578">
        <ele>439.459717</ele>
        <time>2009-05-31T10:07:57Z</time>
      </trkpt>
      <trkpt lat="43.87009" lon="7.22579">
        <ele>439.94043</ele>
        <time>2009-05-31T10:08:02Z</time>
      </trkpt>
      <trkpt lat="43.87008" lon="7.2258">
        <ele>439.94043</ele>
        <time>2009-05-31T10:08:03Z</time>
      </trkpt>
      <trkpt lat="43.86999" lon="7.22584">
        <ele>439.459717</ele>
        <time>2009-05-31T10:08:10Z</time>
      </trkpt>
      <trkpt lat="43.86992" lon="7.22583">
        <ele>439.94043</ele>
        <time>2009-05-31T10:08:16Z</time>
      </trkpt>
      <trkpt lat="43.86988" lon="7.22584">
        <ele>438.979126</ele>
        <time>2009-05-31T10:08:20Z</time>
      </trkpt>
      <trkpt lat="43.86995" lon="7.22587">
        <ele>440.421265</ele>
        <time>2009-05-31T10:08:27Z</time>
      </trkpt>
      <trkpt lat="43.87001" lon="7.22589">
        <ele>442.343872</ele>
        <time>2009-05-31T10:08:33Z</time>
      </trkpt>
      <trkpt lat="43.87007" lon="7.226">
        <ele>443.305054</ele>
        <time>2009-05-31T10:08:42Z</time>
      </trkpt>
      <trkpt lat="43.87008" lon="7.22602">
        <ele>442.343872</ele>
        <time>2009-05-31T10:08:44Z</time>
      </trkpt>
      <trkpt lat="43.87011" lon="7.22605">
        <ele>444.266479</ele>
        <time>2009-05-31T10:08:48Z</time>
      </trkpt>
      <trkpt lat="43.87017" lon="7.22614">
        <ele>449.072998</ele>
        <time>2009-05-31T10:08:56Z</time>
      </trkpt>
      <trkpt lat="43.87019" lon="7.22619">
        <ele>448.111816</ele>
        <time>2009-05-31T10:09:00Z</time>
      </trkpt>
      <trkpt lat="43.87016" lon="7.22622">
        <ele>447.150269</ele>
        <time>2009-05-31T10:09:05Z</time>
      </trkpt>
      <trkpt lat="43.87011" lon="7.22616">
        <ele>447.150269</ele>
        <time>2009-05-31T10:09:11Z</time>
      </trkpt>
      <trkpt lat="43.87008" lon="7.22616">
        <ele>446.669678</ele>
        <time>2009-05-31T10:09:14Z</time>
      </trkpt>
      <trkpt lat="43.86998" lon="7.22616">
        <ele>447.630981</ele>
        <time>2009-05-31T10:09:23Z</time>
      </trkpt>
      <trkpt lat="43.86993" lon="7.22614">
        <ele>449.072998</ele>
        <time>2009-05-31T10:09:30Z</time>
      </trkpt>
      <trkpt lat="43.86987" lon="7.22615">
        <ele>450.995605</ele>
        <time>2009-05-31T10:09:38Z</time>
      </trkpt>
      <trkpt lat="43.86982" lon="7.22615">
        <ele>455.802246</ele>
        <time>2009-05-31T10:09:45Z</time>
      </trkpt>
      <trkpt lat="43.86979" lon="7.22615">
        <ele>456.76355</ele>
        <time>2009-05-31T10:09:48Z</time>
      </trkpt>
      <trkpt lat="43.86972" lon="7.22618">
        <ele>460.608765</ele>
        <time>2009-05-31T10:09:54Z</time>
      </trkpt>
      <trkpt lat="43.86967" lon="7.22621">
        <ele>463.012085</ele>
        <time>2009-05-31T10:10:00Z</time>
      </trkpt>
      <trkpt lat="43.86961" lon="7.22624">
        <ele>465.415527</ele>
        <time>2009-05-31T10:10:07Z</time>
      </trkpt>
      <trkpt lat="43.86956" lon="7.22623">
        <ele>467.338135</ele>
        <time>2009-05-31T10:10:15Z</time>
      </trkpt>
      <trkpt lat="43.8695" lon="7.22627">
        <ele>465.415527</ele>
        <time>2009-05-31T10:10:22Z</time>
      </trkpt>
      <trkpt lat="43.86945" lon="7.22629">
        <ele>462.050781</ele>
        <time>2009-05-31T10:10:27Z</time>
      </trkpt>
      <trkpt lat="43.86941" lon="7.2263">
        <ele>462.531372</ele>
        <time>2009-05-31T10:10:31Z</time>
      </trkpt>
      <trkpt lat="43.86934" lon="7.22633">
        <ele>460.128174</ele>
        <time>2009-05-31T10:10:39Z</time>
      </trkpt>
      <trkpt lat="43.8693" lon="7.22639">
        <ele>459.16687</ele>
        <time>2009-05-31T10:10:45Z</time>
      </trkpt>
      <trkpt lat="43.86927" lon="7.22642">
        <ele>460.128174</ele>
        <time>2009-05-31T10:10:48Z</time>
      </trkpt>
      <trkpt lat="43.8692" lon="7.2265">
        <ele>459.16687</ele>
        <time>2009-05-31T10:10:56Z</time>
      </trkpt>
      <trkpt lat="43.86913" lon="7.22656">
        <ele>463.492798</ele>
        <time>2009-05-31T10:11:03Z</time>
      </trkpt>
      <trkpt lat="43.8691" lon="7.2266">
        <ele>464.934814</ele>
        <time>2009-05-31T10:11:07Z</time>
      </trkpt>
      <trkpt lat="43.86909" lon="7.22664">
        <ele>469.260742</ele>
        <time>2009-05-31T10:11:11Z</time>
      </trkpt>
      <trkpt lat="43.86905" lon="7.22669">
        <ele>470.221924</ele>
        <time>2009-05-31T10:11:16Z</time>
      </trkpt>
      <trkpt lat="43.86902" lon="7.22672">
        <ele>471.66394</ele>
        <time>2009-05-31T10:11:21Z</time>
      </trkpt>
      <trkpt lat="43.86898" lon="7.22678">
        <ele>473.106079</ele>
        <time>2009-05-31T10:11:29Z</time>
      </trkpt>
      <trkpt lat="43.86893" lon="7.22684">
        <ele>461.089478</ele>
        <time>2009-05-31T10:11:36Z</time>
      </trkpt>
      <trkpt lat="43.8689" lon="7.22685">
        <ele>463.973389</ele>
        <time>2009-05-31T10:11:39Z</time>
      </trkpt>
      <trkpt lat="43.86885" lon="7.22687">
        <ele>472.625366</ele>
        <time>2009-05-31T10:11:45Z</time>
      </trkpt>
      <trkpt lat="43.86879" lon="7.22694">
        <ele>471.66394</ele>
        <time>2009-05-31T10:11:51Z</time>
      </trkpt>
      <trkpt lat="43.86874" lon="7.22698">
        <ele>473.106079</ele>
        <time>2009-05-31T10:11:56Z</time>
      </trkpt>
      <trkpt lat="43.86865" lon="7.22703">
        <ele>474.547974</ele>
        <time>2009-05-31T10:12:03Z</time>
      </trkpt>
      <trkpt lat="43.86858" lon="7.22711">
        <ele>474.067261</ele>
        <time>2009-05-31T10:12:10Z</time>
      </trkpt>
      <trkpt lat="43.86854" lon="7.22715">
        <ele>474.547974</ele>
        <time>2009-05-31T10:12:15Z</time>
      </trkpt>
      <trkpt lat="43.86854" lon="7.22722">
        <ele>477.912476</ele>
        <time>2009-05-31T10:12:24Z</time>
      </trkpt>
      <trkpt lat="43.86856" lon="7.22732">
        <ele>475.028687</ele>
        <time>2009-05-31T10:12:32Z</time>
      </trkpt>
      <trkpt lat="43.86858" lon="7.22739">
        <ele>476.470581</ele>
        <time>2009-05-31T10:12:38Z</time>
      </trkpt>
      <trkpt lat="43.86859" lon="7.22748">
        <ele>479.835083</ele>
        <time>2009-05-31T10:12:45Z</time>
      </trkpt>
      <trkpt lat="43.8686" lon="7.22754">
        <ele>489.448364</ele>
        <time>2009-05-31T10:12:52Z</time>
      </trkpt>
      <trkpt lat="43.86856" lon="7.22758">
        <ele>489.929077</ele>
        <time>2009-05-31T10:12:56Z</time>
      </trkpt>
      <trkpt lat="43.86853" lon="7.22759">
        <ele>489.448364</ele>
        <time>2009-05-31T10:12:58Z</time>
      </trkpt>
      <trkpt lat="43.86847" lon="7.22761">
        <ele>492.332397</ele>
        <time>2009-05-31T10:13:04Z</time>
      </trkpt>
      <trkpt lat="43.86839" lon="7.22771">
        <ele>493.774292</ele>
        <time>2009-05-31T10:13:12Z</time>
      </trkpt>
      <trkpt lat="43.86835" lon="7.22772">
        <ele>492.332397</ele>
        <time>2009-05-31T10:13:15Z</time>
      </trkpt>
      <trkpt lat="43.86827" lon="7.22776">
        <ele>486.564453</ele>
        <time>2009-05-31T10:13:22Z</time>
      </trkpt>
      <trkpt lat="43.86823" lon="7.22782">
        <ele>488.487183</ele>
        <time>2009-05-31T10:13:28Z</time>
      </trkpt>
      <trkpt lat="43.86817" lon="7.22794">
        <ele>486.08374</ele>
        <time>2009-05-31T10:13:35Z</time>
      </trkpt>
      <trkpt lat="43.86816" lon="7.22796">
        <ele>486.564453</ele>
        <time>2009-05-31T10:13:37Z</time>
      </trkpt>
      <trkpt lat="43.86817" lon="7.22801">
        <ele>483.68042</ele>
        <time>2009-05-31T10:13:40Z</time>
      </trkpt>
      <trkpt lat="43.86814" lon="7.22806">
        <ele>484.641846</ele>
        <time>2009-05-31T10:13:46Z</time>
      </trkpt>
      <trkpt lat="43.86806" lon="7.22818">
        <ele>485.122437</ele>
        <time>2009-05-31T10:13:53Z</time>
      </trkpt>
      <trkpt lat="43.86804" lon="7.22822">
        <ele>476.470581</ele>
        <time>2009-05-31T10:14:00Z</time>
      </trkpt>
      <trkpt lat="43.86797" lon="7.22825">
        <ele>479.354492</ele>
        <time>2009-05-31T10:14:07Z</time>
      </trkpt>
      <trkpt lat="43.86787" lon="7.22828">
        <ele>479.835083</ele>
        <time>2009-05-31T10:14:18Z</time>
      </trkpt>
      <trkpt lat="43.86783" lon="7.22829">
        <ele>480.796631</ele>
        <time>2009-05-31T10:14:22Z</time>
      </trkpt>
      <trkpt lat="43.86772" lon="7.22828">
        <ele>486.564453</ele>
        <time>2009-05-31T10:14:31Z</time>
      </trkpt>
      <trkpt lat="43.86768" lon="7.22826">
        <ele>492.332397</ele>
        <time>2009-05-31T10:14:36Z</time>
      </trkpt>
      <trkpt lat="43.86762" lon="7.22828">
        <ele>494.735596</ele>
        <time>2009-05-31T10:14:42Z</time>
      </trkpt>
      <trkpt lat="43.86756" lon="7.22833">
        <ele>498.100342</ele>
        <time>2009-05-31T10:14:46Z</time>
      </trkpt>
      <trkpt lat="43.8675" lon="7.2284">
        <ele>498.100342</ele>
        <time>2009-05-31T10:14:51Z</time>
      </trkpt>
      <trkpt lat="43.86741" lon="7.2284">
        <ele>501.464844</ele>
        <time>2009-05-31T10:14:58Z</time>
      </trkpt>
      <trkpt lat="43.86734" lon="7.22845">
        <ele>504.829468</ele>
        <time>2009-05-31T10:15:03Z</time>
      </trkpt>
      <trkpt lat="43.86728" lon="7.22847">
        <ele>507.713501</ele>
        <time>2009-05-31T10:15:09Z</time>
      </trkpt>
      <trkpt lat="43.86716" lon="7.22855">
        <ele>501.945557</ele>
        <time>2009-05-31T10:15:17Z</time>
      </trkpt>
      <trkpt lat="43.86708" lon="7.22852">
        <ele>501.464844</ele>
        <time>2009-05-31T10:15:23Z</time>
      </trkpt>
      <trkpt lat="43.86707" lon="7.22851">
        <ele>500.984131</ele>
        <time>2009-05-31T10:15:24Z</time>
      </trkpt>
      <trkpt lat="43.86698" lon="7.22838">
        <ele>500.022949</ele>
        <time>2009-05-31T10:15:31Z</time>
      </trkpt>
      <trkpt lat="43.86687" lon="7.22831">
        <ele>498.580933</ele>
        <time>2009-05-31T10:15:37Z</time>
      </trkpt>
      <trkpt lat="43.86672" lon="7.22832">
        <ele>491.851685</ele>
        <time>2009-05-31T10:15:44Z</time>
      </trkpt>
      <trkpt lat="43.86657" lon="7.22837">
        <ele>493.293579</ele>
        <time>2009-05-31T10:15:51Z</time>
      </trkpt>
      <trkpt lat="43.86649" lon="7.22842">
        <ele>494.255005</ele>
        <time>2009-05-31T10:15:56Z</time>
      </trkpt>
      <trkpt lat="43.8664" lon="7.22851">
        <ele>500.022949</ele>
        <time>2009-05-31T10:16:02Z</time>
      </trkpt>
      <trkpt lat="43.86632" lon="7.22859">
        <ele>501.945557</ele>
        <time>2009-05-31T10:16:08Z</time>
      </trkpt>
      <trkpt lat="43.86623" lon="7.22868">
        <ele>504.348877</ele>
        <time>2009-05-31T10:16:14Z</time>
      </trkpt>
      <trkpt lat="43.8662" lon="7.22871">
        <ele>503.868164</ele>
        <time>2009-05-31T10:16:16Z</time>
      </trkpt>
      <trkpt lat="43.86617" lon="7.22878">
        <ele>507.232788</ele>
        <time>2009-05-31T10:16:21Z</time>
      </trkpt>
      <trkpt lat="43.86617" lon="7.22882">
        <ele>514.92334</ele>
        <time>2009-05-31T10:16:26Z</time>
      </trkpt>
      <trkpt lat="43.86615" lon="7.22886">
        <ele>518.768555</ele>
        <time>2009-05-31T10:16:29Z</time>
      </trkpt>
      <trkpt lat="43.86615" lon="7.22895">
        <ele>521.171997</ele>
        <time>2009-05-31T10:16:37Z</time>
      </trkpt>
      <trkpt lat="43.86617" lon="7.22891">
        <ele>523.575195</ele>
        <time>2009-05-31T10:16:42Z</time>
      </trkpt>
      <trkpt lat="43.86623" lon="7.22885">
        <ele>526.939819</ele>
        <time>2009-05-31T10:16:50Z</time>
      </trkpt>
      <trkpt lat="43.86626" lon="7.22884">
        <ele>526.939819</ele>
        <time>2009-05-31T10:16:53Z</time>
      </trkpt>
      <trkpt lat="43.86633" lon="7.22882">
        <ele>527.42041</ele>
        <time>2009-05-31T10:17:00Z</time>
      </trkpt>
      <trkpt lat="43.86642" lon="7.22876">
        <ele>533.188354</ele>
        <time>2009-05-31T10:17:10Z</time>
      </trkpt>
      <trkpt lat="43.86653" lon="7.22878">
        <ele>536.072388</ele>
        <time>2009-05-31T10:17:19Z</time>
      </trkpt>
      <trkpt lat="43.86664" lon="7.22883">
        <ele>525.497803</ele>
        <time>2009-05-31T10:17:29Z</time>
      </trkpt>
      <trkpt lat="43.86672" lon="7.22889">
        <ele>516.365234</ele>
        <time>2009-05-31T10:17:36Z</time>
      </trkpt>
      <trkpt lat="43.86678" lon="7.22893">
        <ele>505.790894</ele>
        <time>2009-05-31T10:17:40Z</time>
      </trkpt>
      <trkpt lat="43.86683" lon="7.22903">
        <ele>501.945557</ele>
        <time>2009-05-31T10:17:47Z</time>
      </trkpt>
      <trkpt lat="43.86685" lon="7.2291">
        <ele>498.580933</ele>
        <time>2009-05-31T10:17:51Z</time>
      </trkpt>
      <trkpt lat="43.86686" lon="7.22917">
        <ele>498.100342</ele>
        <time>2009-05-31T10:17:55Z</time>
      </trkpt>
      <trkpt lat="43.86691" lon="7.22926">
        <ele>492.812988</ele>
        <time>2009-05-31T10:18:01Z</time>
      </trkpt>
      <trkpt lat="43.86696" lon="7.22933">
        <ele>502.906738</ele>
        <time>2009-05-31T10:18:10Z</time>
      </trkpt>
      <trkpt lat="43.86698" lon="7.22937">
        <ele>508.194092</ele>
        <time>2009-05-31T10:18:13Z</time>
      </trkpt>
      <trkpt lat="43.86705" lon="7.22942">
        <ele>517.32666</ele>
        <time>2009-05-31T10:18:17Z</time>
      </trkpt>
      <trkpt lat="43.86712" lon="7.22935">
        <ele>524.055786</ele>
        <time>2009-05-31T10:18:22Z</time>
      </trkpt>
      <trkpt lat="43.86716" lon="7.22926">
        <ele>522.613892</ele>
        <time>2009-05-31T10:18:27Z</time>
      </trkpt>
      <trkpt lat="43.86726" lon="7.22912">
        <ele>524.536499</ele>
        <time>2009-05-31T10:18:36Z</time>
      </trkpt>
      <trkpt lat="43.86733" lon="7.22907">
        <ele>528.862549</ele>
        <time>2009-05-31T10:18:42Z</time>
      </trkpt>
      <trkpt lat="43.86737" lon="7.22905">
        <ele>527.901001</ele>
        <time>2009-05-31T10:18:45Z</time>
      </trkpt>
      <trkpt lat="43.8674" lon="7.22903">
        <ele>548.569336</ele>
        <time>2009-05-31T10:18:52Z</time>
      </trkpt>
      <trkpt lat="43.86746" lon="7.22908">
        <ele>550.011475</ele>
        <time>2009-05-31T10:18:59Z</time>
      </trkpt>
      <trkpt lat="43.86751" lon="7.22911">
        <ele>540.878906</ele>
        <time>2009-05-31T10:19:04Z</time>
      </trkpt>
      <trkpt lat="43.86755" lon="7.22911">
        <ele>536.072388</ele>
        <time>2009-05-31T10:19:08Z</time>
      </trkpt>
      <trkpt lat="43.86759" lon="7.22911">
        <ele>535.110962</ele>
        <time>2009-05-31T10:19:12Z</time>
      </trkpt>
      <trkpt lat="43.86764" lon="7.22909">
        <ele>536.553101</ele>
        <time>2009-05-31T10:19:17Z</time>
      </trkpt>
      <trkpt lat="43.86772" lon="7.22911">
        <ele>534.149658</ele>
        <time>2009-05-31T10:19:23Z</time>
      </trkpt>
      <trkpt lat="43.86777" lon="7.22906">
        <ele>533.188354</ele>
        <time>2009-05-31T10:19:28Z</time>
      </trkpt>
      <trkpt lat="43.86785" lon="7.22907">
        <ele>526.939819</ele>
        <time>2009-05-31T10:19:35Z</time>
      </trkpt>
      <trkpt lat="43.86787" lon="7.22908">
        <ele>537.994995</ele>
        <time>2009-05-31T10:19:41Z</time>
      </trkpt>
      <trkpt lat="43.86795" lon="7.22916">
        <ele>533.188354</ele>
        <time>2009-05-31T10:19:49Z</time>
      </trkpt>
      <trkpt lat="43.86803" lon="7.22922">
        <ele>530.304443</ele>
        <time>2009-05-31T10:19:56Z</time>
      </trkpt>
      <trkpt lat="43.8681" lon="7.22925">
        <ele>529.34314</ele>
        <time>2009-05-31T10:20:03Z</time>
      </trkpt>
      <trkpt lat="43.86813" lon="7.22925">
        <ele>538.475708</ele>
        <time>2009-05-31T10:20:09Z</time>
      </trkpt>
      <trkpt lat="43.86817" lon="7.22925">
        <ele>540.398315</ele>
        <time>2009-05-31T10:20:14Z</time>
      </trkpt>
      <trkpt lat="43.8682" lon="7.22926">
        <ele>542.801514</ele>
        <time>2009-05-31T10:20:17Z</time>
      </trkpt>
      <trkpt lat="43.86827" lon="7.22922">
        <ele>552.414551</ele>
        <time>2009-05-31T10:20:25Z</time>
      </trkpt>
      <trkpt lat="43.86834" lon="7.22921">
        <ele>549.530762</ele>
        <time>2009-05-31T10:20:32Z</time>
      </trkpt>
      <trkpt lat="43.86835" lon="7.22921">
        <ele>548.088867</ele>
        <time>2009-05-31T10:20:33Z</time>
      </trkpt>
      <trkpt lat="43.86841" lon="7.2292">
        <ele>542.801514</ele>
        <time>2009-05-31T10:20:38Z</time>
      </trkpt>
      <trkpt lat="43.86849" lon="7.22912">
        <ele>550.972656</ele>
        <time>2009-05-31T10:20:46Z</time>
      </trkpt>
      <trkpt lat="43.86854" lon="7.22909">
        <ele>552.895264</ele>
        <time>2009-05-31T10:20:50Z</time>
      </trkpt>
      <trkpt lat="43.8686" lon="7.22911">
        <ele>552.895264</ele>
        <time>2009-05-31T10:20:56Z</time>
      </trkpt>
      <trkpt lat="43.86863" lon="7.22911">
        <ele>551.453369</ele>
        <time>2009-05-31T10:20:59Z</time>
      </trkpt>
      <trkpt lat="43.8687" lon="7.22912">
        <ele>549.050049</ele>
        <time>2009-05-31T10:21:07Z</time>
      </trkpt>
      <trkpt lat="43.86876" lon="7.22915">
        <ele>547.127441</ele>
        <time>2009-05-31T10:21:15Z</time>
      </trkpt>
      <trkpt lat="43.86883" lon="7.22916">
        <ele>551.453369</ele>
        <time>2009-05-31T10:21:22Z</time>
      </trkpt>
      <trkpt lat="43.86887" lon="7.22917">
        <ele>552.414551</ele>
        <time>2009-05-31T10:21:25Z</time>
      </trkpt>
      <trkpt lat="43.86893" lon="7.22922">
        <ele>554.817871</ele>
        <time>2009-05-31T10:21:32Z</time>
      </trkpt>
      <trkpt lat="43.86896" lon="7.22923">
        <ele>559.144043</ele>
        <time>2009-05-31T10:21:36Z</time>
      </trkpt>
      <trkpt lat="43.86902" lon="7.22923">
        <ele>560.585938</ele>
        <time>2009-05-31T10:21:42Z</time>
      </trkpt>
      <trkpt lat="43.86906" lon="7.22923">
        <ele>561.547363</ele>
        <time>2009-05-31T10:21:46Z</time>
      </trkpt>
      <trkpt lat="43.86916" lon="7.22922">
        <ele>558.182861</ele>
        <time>2009-05-31T10:21:54Z</time>
      </trkpt>
      <trkpt lat="43.86919" lon="7.22922">
        <ele>556.740723</ele>
        <time>2009-05-31T10:21:56Z</time>
      </trkpt>
      <trkpt lat="43.86924" lon="7.22922">
        <ele>554.817871</ele>
        <time>2009-05-31T10:22:00Z</time>
      </trkpt>
      <trkpt lat="43.86929" lon="7.22924">
        <ele>552.414551</ele>
        <time>2009-05-31T10:22:08Z</time>
      </trkpt>
      <trkpt lat="43.86933" lon="7.22921">
        <ele>556.740723</ele>
        <time>2009-05-31T10:22:13Z</time>
      </trkpt>
      <trkpt lat="43.86938" lon="7.22917">
        <ele>559.624756</ele>
        <time>2009-05-31T10:22:18Z</time>
      </trkpt>
      <trkpt lat="43.86945" lon="7.22909">
        <ele>555.779297</ele>
        <time>2009-05-31T10:22:27Z</time>
      </trkpt>
      <trkpt lat="43.86947" lon="7.22906">
        <ele>556.019653</ele>
        <time>2009-05-31T10:22:30Z</time>
      </trkpt>
      <trkpt lat="43.86949" lon="7.22906">
        <ele>561.547363</ele>
        <time>2011-05-07T06:31:26Z</time>
      </trkpt>
      <trkpt lat="43.86951" lon="7.22904">
        <ele>560.585938</ele>
        <time>2011-05-07T06:31:28Z</time>
      </trkpt>
      <trkpt lat="43.86961" lon="7.22903">
        <ele>562.508545</ele>
        <time>2011-05-07T06:31:34Z</time>
      </trkpt>
      <trkpt lat="43.86961" lon="7.22914">
        <ele>563.469971</ele>
        <time>2011-05-07T06:31:39Z</time>
      </trkpt>
      <trkpt lat="43.8696" lon="7.22916">
        <ele>563.950439</ele>
        <time>2011-05-07T06:31:40Z</time>
      </trkpt>
      <trkpt lat="43.86954" lon="7.2293">
        <ele>570.679688</ele>
        <time>2011-05-07T06:31:47Z</time>
      </trkpt>
      <trkpt lat="43.86954" lon="7.22935">
        <ele>571.1604</ele>
        <time>2011-05-07T06:31:49Z</time>
      </trkpt>
      <trkpt lat="43.86951" lon="7.22942">
        <ele>573.083252</ele>
        <time>2011-05-07T06:31:53Z</time>
      </trkpt>
      <trkpt lat="43.86945" lon="7.22956">
        <ele>571.640869</ele>
        <time>2011-05-07T06:32:00Z</time>
      </trkpt>
      <trkpt lat="43.86935" lon="7.22959">
        <ele>571.640869</ele>
        <time>2011-05-07T06:32:05Z</time>
      </trkpt>
      <trkpt lat="43.86921" lon="7.2296">
        <ele>572.121826</ele>
        <time>2011-05-07T06:32:10Z</time>
      </trkpt>
      <trkpt lat="43.86904" lon="7.2296">
        <ele>571.1604</ele>
        <time>2011-05-07T06:32:15Z</time>
      </trkpt>
      <trkpt lat="43.86892" lon="7.22959">
        <ele>573.083252</ele>
        <time>2011-05-07T06:32:19Z</time>
      </trkpt>
      <trkpt lat="43.86878" lon="7.22962">
        <ele>574.044434</ele>
        <time>2011-05-07T06:32:25Z</time>
      </trkpt>
      <trkpt lat="43.86864" lon="7.22967">
        <ele>574.525146</ele>
        <time>2011-05-07T06:32:31Z</time>
      </trkpt>
      <trkpt lat="43.86852" lon="7.22974">
        <ele>575.486328</ele>
        <time>2011-05-07T06:32:37Z</time>
      </trkpt>
      <trkpt lat="43.86842" lon="7.22979">
        <ele>575.967041</ele>
        <time>2011-05-07T06:32:41Z</time>
      </trkpt>
      <trkpt lat="43.86832" lon="7.22984">
        <ele>576.447754</ele>
        <time>2011-05-07T06:32:46Z</time>
      </trkpt>
      <trkpt lat="43.86828" lon="7.22988">
        <ele>576.928467</ele>
        <time>2011-05-07T06:32:48Z</time>
      </trkpt>
      <trkpt lat="43.86816" lon="7.22991">
        <ele>579.812256</ele>
        <time>2011-05-07T06:32:54Z</time>
      </trkpt>
      <trkpt lat="43.86804" lon="7.22991">
        <ele>580.773682</ele>
        <time>2011-05-07T06:32:59Z</time>
      </trkpt>
      <trkpt lat="43.86791" lon="7.22998">
        <ele>578.851074</ele>
        <time>2011-05-07T06:33:05Z</time>
      </trkpt>
      <trkpt lat="43.86781" lon="7.23006">
        <ele>578.370361</ele>
        <time>2011-05-07T06:33:11Z</time>
      </trkpt>
      <trkpt lat="43.86774" lon="7.23015">
        <ele>579.812256</ele>
        <time>2011-05-07T06:33:17Z</time>
      </trkpt>
      <trkpt lat="43.86774" lon="7.23016">
        <ele>579.812256</ele>
        <time>2011-05-07T06:33:18Z</time>
      </trkpt>
      <trkpt lat="43.86766" lon="7.23027">
        <ele>579.331543</ele>
        <time>2011-05-07T06:33:24Z</time>
      </trkpt>
      <trkpt lat="43.8676" lon="7.23037">
        <ele>578.851074</ele>
        <time>2011-05-07T06:33:30Z</time>
      </trkpt>
      <trkpt lat="43.86752" lon="7.23047">
        <ele>580.773682</ele>
        <time>2011-05-07T06:33:37Z</time>
      </trkpt>
      <trkpt lat="43.86748" lon="7.23055">
        <ele>582.215576</ele>
        <time>2011-05-07T06:33:42Z</time>
      </trkpt>
      <trkpt lat="43.86739" lon="7.23063">
        <ele>583.657471</ele>
        <time>2011-05-07T06:33:48Z</time>
      </trkpt>
      <trkpt lat="43.86736" lon="7.23069">
        <ele>585.099609</ele>
        <time>2011-05-07T06:33:51Z</time>
      </trkpt>
      <trkpt lat="43.86724" lon="7.23078">
        <ele>587.021973</ele>
        <time>2011-05-07T06:33:57Z</time>
      </trkpt>
      <trkpt lat="43.86709" lon="7.23084">
        <ele>588.464355</ele>
        <time>2011-05-07T06:34:02Z</time>
      </trkpt>
      <trkpt lat="43.86694" lon="7.23093">
        <ele>588.945068</ele>
        <time>2011-05-07T06:34:08Z</time>
      </trkpt>
      <trkpt lat="43.86686" lon="7.23102">
        <ele>587.502686</ele>
        <time>2011-05-07T06:34:12Z</time>
      </trkpt>
      <trkpt lat="43.86676" lon="7.23117">
        <ele>590.386963</ele>
        <time>2011-05-07T06:34:17Z</time>
      </trkpt>
      <trkpt lat="43.86668" lon="7.23138">
        <ele>590.867432</ele>
        <time>2011-05-07T06:34:21Z</time>
      </trkpt>
      <trkpt lat="43.86659" lon="7.23155">
        <ele>592.30957</ele>
        <time>2011-05-07T06:34:26Z</time>
      </trkpt>
      <trkpt lat="43.8665" lon="7.2317">
        <ele>592.30957</ele>
        <time>2011-05-07T06:34:30Z</time>
      </trkpt>
      <trkpt lat="43.86642" lon="7.23187">
        <ele>593.270752</ele>
        <time>2011-05-07T06:34:34Z</time>
      </trkpt>
      <trkpt lat="43.86631" lon="7.23198">
        <ele>593.270752</ele>
        <time>2011-05-07T06:34:38Z</time>
      </trkpt>
      <trkpt lat="43.86624" lon="7.2321">
        <ele>591.828857</ele>
        <time>2011-05-07T06:34:42Z</time>
      </trkpt>
      <trkpt lat="43.86623" lon="7.23212">
        <ele>591.348145</ele>
        <time>2011-05-07T06:34:43Z</time>
      </trkpt>
      <trkpt lat="43.86614" lon="7.23212">
        <ele>591.348145</ele>
        <time>2011-05-07T06:34:48Z</time>
      </trkpt>
      <trkpt lat="43.86604" lon="7.23208">
        <ele>594.232178</ele>
        <time>2011-05-07T06:34:52Z</time>
      </trkpt>
      <trkpt lat="43.86601" lon="7.23207">
        <ele>595.193359</ele>
        <time>2011-05-07T06:34:54Z</time>
      </trkpt>
      <trkpt lat="43.86591" lon="7.2321">
        <ele>597.59668</ele>
        <time>2011-05-07T06:34:59Z</time>
      </trkpt>
      <trkpt lat="43.86582" lon="7.23213">
        <ele>599.038574</ele>
        <time>2011-05-07T06:35:04Z</time>
      </trkpt>
      <trkpt lat="43.86579" lon="7.23213">
        <ele>598.557861</ele>
        <time>2011-05-07T06:35:06Z</time>
      </trkpt>
      <trkpt lat="43.8657" lon="7.23214">
        <ele>601.441895</ele>
        <time>2011-05-07T06:35:12Z</time>
      </trkpt>
      <trkpt lat="43.86557" lon="7.23218">
        <ele>604.326172</ele>
        <time>2011-05-07T06:35:20Z</time>
      </trkpt>
      <trkpt lat="43.86549" lon="7.23223">
        <ele>604.806641</ele>
        <time>2011-05-07T06:35:26Z</time>
      </trkpt>
      <trkpt lat="43.86545" lon="7.2323">
        <ele>606.729248</ele>
        <time>2011-05-07T06:35:32Z</time>
      </trkpt>
      <trkpt lat="43.86546" lon="7.23231">
        <ele>606.729248</ele>
        <time>2011-05-07T06:35:33Z</time>
      </trkpt>
      <trkpt lat="43.86556" lon="7.23236">
        <ele>608.651855</ele>
        <time>2011-05-07T06:35:40Z</time>
      </trkpt>
      <trkpt lat="43.86561" lon="7.23242">
        <ele>610.09375</ele>
        <time>2011-05-07T06:35:46Z</time>
      </trkpt>
      <trkpt lat="43.86562" lon="7.23243">
        <ele>611.055176</ele>
        <time>2011-05-07T06:35:48Z</time>
      </trkpt>
      <trkpt lat="43.86568" lon="7.23247">
        <ele>611.535889</ele>
        <time>2011-05-07T06:35:55Z</time>
      </trkpt>
      <trkpt lat="43.86569" lon="7.2325">
        <ele>610.574463</ele>
        <time>2011-05-07T06:36:00Z</time>
      </trkpt>
      <trkpt lat="43.86571" lon="7.23254">
        <ele>610.09375</ele>
        <time>2011-05-07T06:36:05Z</time>
      </trkpt>
      <trkpt lat="43.86572" lon="7.23261">
        <ele>613.938965</ele>
        <time>2011-05-07T06:36:14Z</time>
      </trkpt>
      <trkpt lat="43.86575" lon="7.23267">
        <ele>618.264893</ele>
        <time>2011-05-07T06:36:21Z</time>
      </trkpt>
      <trkpt lat="43.86577" lon="7.23271">
        <ele>619.707031</ele>
        <time>2011-05-07T06:36:27Z</time>
      </trkpt>
      <trkpt lat="43.86582" lon="7.23276">
        <ele>622.110352</ele>
        <time>2011-05-07T06:36:34Z</time>
      </trkpt>
      <trkpt lat="43.86586" lon="7.2328">
        <ele>624.513672</ele>
        <time>2011-05-07T06:36:41Z</time>
      </trkpt>
      <trkpt lat="43.86591" lon="7.23283">
        <ele>626.916992</ele>
        <time>2011-05-07T06:36:48Z</time>
      </trkpt>
      <trkpt lat="43.86596" lon="7.23286">
        <ele>629.320068</ele>
        <time>2011-05-07T06:36:55Z</time>
      </trkpt>
      <trkpt lat="43.866" lon="7.23291">
        <ele>633.165283</ele>
        <time>2011-05-07T06:37:03Z</time>
      </trkpt>
      <trkpt lat="43.86604" lon="7.23295">
        <ele>637.491455</ele>
        <time>2011-05-07T06:37:11Z</time>
      </trkpt>
      <trkpt lat="43.86605" lon="7.23299">
        <ele>638.452881</ele>
        <time>2011-05-07T06:37:18Z</time>
      </trkpt>
      <trkpt lat="43.86613" lon="7.23301">
        <ele>638.452881</ele>
        <time>2011-05-07T06:37:26Z</time>
      </trkpt>
      <trkpt lat="43.86615" lon="7.23304">
        <ele>638.933594</ele>
        <time>2011-05-07T06:37:31Z</time>
      </trkpt>
      <trkpt lat="43.86612" lon="7.23305">
        <ele>640.855957</ele>
        <time>2011-05-07T06:37:38Z</time>
      </trkpt>
      <trkpt lat="43.86612" lon="7.23309">
        <ele>641.817383</ele>
        <time>2011-05-07T06:37:43Z</time>
      </trkpt>
      <trkpt lat="43.86619" lon="7.23312">
        <ele>641.817383</ele>
        <time>2011-05-07T06:37:52Z</time>
      </trkpt>
      <trkpt lat="43.86621" lon="7.23313">
        <ele>642.298096</ele>
        <time>2011-05-07T06:37:59Z</time>
      </trkpt>
      <trkpt lat="43.86623" lon="7.23315">
        <ele>640.855957</ele>
        <time>2011-05-07T06:38:07Z</time>
      </trkpt>
      <trkpt lat="43.86629" lon="7.23315">
        <ele>641.33667</ele>
        <time>2011-05-07T06:38:14Z</time>
      </trkpt>
      <trkpt lat="43.86636" lon="7.23315">
        <ele>644.220703</ele>
        <time>2011-05-07T06:38:21Z</time>
      </trkpt>
      <trkpt lat="43.86638" lon="7.23314">
        <ele>644.701172</ele>
        <time>2011-05-07T06:38:22Z</time>
      </trkpt>
      <trkpt lat="43.86649" lon="7.23311">
        <ele>648.065918</ele>
        <time>2011-05-07T06:38:31Z</time>
      </trkpt>
      <trkpt lat="43.86655" lon="7.23311">
        <ele>646.624023</ele>
        <time>2011-05-07T06:38:36Z</time>
      </trkpt>
      <trkpt lat="43.86667" lon="7.23309">
        <ele>646.624023</ele>
        <time>2011-05-07T06:38:43Z</time>
      </trkpt>
      <trkpt lat="43.86674" lon="7.23305">
        <ele>648.546387</ele>
        <time>2011-05-07T06:38:48Z</time>
      </trkpt>
      <trkpt lat="43.86682" lon="7.23303">
        <ele>649.0271</ele>
        <time>2011-05-07T06:38:53Z</time>
      </trkpt>
      <trkpt lat="43.86685" lon="7.23301">
        <ele>649.507813</ele>
        <time>2011-05-07T06:38:55Z</time>
      </trkpt>
      <trkpt lat="43.86688" lon="7.23301">
        <ele>650.469238</ele>
        <time>2011-05-07T06:38:59Z</time>
      </trkpt>
      <trkpt lat="43.86689" lon="7.23301">
        <ele>653.833984</ele>
        <time>2011-05-07T06:39:04Z</time>
      </trkpt>
      <trkpt lat="43.86694" lon="7.23297">
        <ele>656.717773</ele>
        <time>2011-05-07T06:39:10Z</time>
      </trkpt>
      <trkpt lat="43.86699" lon="7.23294">
        <ele>656.237061</ele>
        <time>2011-05-07T06:39:15Z</time>
      </trkpt>
      <trkpt lat="43.86703" lon="7.23292">
        <ele>659.121094</ele>
        <time>2011-05-07T06:39:19Z</time>
      </trkpt>
      <trkpt lat="43.86712" lon="7.2329">
        <ele>662.966309</ele>
        <time>2011-05-07T06:39:28Z</time>
      </trkpt>
      <trkpt lat="43.86717" lon="7.23291">
        <ele>662.485596</ele>
        <time>2011-05-07T06:39:35Z</time>
      </trkpt>
      <trkpt lat="43.86724" lon="7.23288">
        <ele>662.005127</ele>
        <time>2011-05-07T06:39:44Z</time>
      </trkpt>
      <trkpt lat="43.86729" lon="7.23286">
        <ele>663.447021</ele>
        <time>2011-05-07T06:39:51Z</time>
      </trkpt>
      <trkpt lat="43.86733" lon="7.23285">
        <ele>664.888916</ele>
        <time>2011-05-07T06:39:58Z</time>
      </trkpt>
      <trkpt lat="43.86737" lon="7.23281">
        <ele>665.369629</ele>
        <time>2011-05-07T06:40:05Z</time>
      </trkpt>
      <trkpt lat="43.86747" lon="7.23279">
        <ele>665.850342</ele>
        <time>2011-05-07T06:40:15Z</time>
      </trkpt>
      <trkpt lat="43.86749" lon="7.23282">
        <ele>667.292236</ele>
        <time>2011-05-07T06:40:23Z</time>
      </trkpt>
      <trkpt lat="43.86746" lon="7.23283">
        <ele>667.772705</ele>
        <time>2011-05-07T06:40:30Z</time>
      </trkpt>
      <trkpt lat="43.86742" lon="7.23284">
        <ele>667.772705</ele>
        <time>2011-05-07T06:40:37Z</time>
      </trkpt>
      <trkpt lat="43.86741" lon="7.23285">
        <ele>667.772705</ele>
        <time>2011-05-07T06:40:38Z</time>
      </trkpt>
      <trkpt lat="43.86727" lon="7.23295">
        <ele>668.734375</ele>
        <time>2011-05-07T06:40:46Z</time>
      </trkpt>
      <trkpt lat="43.86712" lon="7.23312">
        <ele>668.253662</ele>
        <time>2011-05-07T06:40:53Z</time>
      </trkpt>
      <trkpt lat="43.86699" lon="7.23325">
        <ele>668.253662</ele>
        <time>2011-05-07T06:40:58Z</time>
      </trkpt>
      <trkpt lat="43.86686" lon="7.23343">
        <ele>668.734375</ele>
        <time>2011-05-07T06:41:03Z</time>
      </trkpt>
      <trkpt lat="43.86663" lon="7.23364">
        <ele>667.772705</ele>
        <time>2011-05-07T06:41:10Z</time>
      </trkpt>
      <trkpt lat="43.86635" lon="7.23375">
        <ele>667.292236</ele>
        <time>2011-05-07T06:41:17Z</time>
      </trkpt>
      <trkpt lat="43.86611" lon="7.23377">
        <ele>667.772705</ele>
        <time>2011-05-07T06:41:22Z</time>
      </trkpt>
      <trkpt lat="43.8658" lon="7.23377">
        <ele>667.772705</ele>
        <time>2011-05-07T06:41:29Z</time>
      </trkpt>
      <trkpt lat="43.86576" lon="7.23378">
        <ele>667.772705</ele>
        <time>2011-05-07T06:41:30Z</time>
      </trkpt>
      <trkpt lat="43.86559" lon="7.23387">
        <ele>667.772705</ele>
        <time>2011-05-07T06:41:34Z</time>
      </trkpt>
      <trkpt lat="43.86531" lon="7.23416">
        <ele>668.253662</ele>
        <time>2011-05-07T06:41:42Z</time>
      </trkpt>
      <trkpt lat="43.86513" lon="7.23441">
        <ele>667.772705</ele>
        <time>2011-05-07T06:41:48Z</time>
      </trkpt>
      <trkpt lat="43.86507" lon="7.23449">
        <ele>666.811523</ele>
        <time>2011-05-07T06:41:50Z</time>
      </trkpt>
      <trkpt lat="43.86492" lon="7.23475">
        <ele>668.253662</ele>
        <time>2011-05-07T06:41:56Z</time>
      </trkpt>
      <trkpt lat="43.86478" lon="7.23507">
        <ele>668.734375</ele>
        <time>2011-05-07T06:42:02Z</time>
      </trkpt>
      <trkpt lat="43.86475" lon="7.23519">
        <ele>668.734375</ele>
        <time>2011-05-07T06:42:04Z</time>
      </trkpt>
      <trkpt lat="43.86475" lon="7.23547">
        <ele>667.772705</ele>
        <time>2011-05-07T06:42:09Z</time>
      </trkpt>
      <trkpt lat="43.86472" lon="7.23571">
        <ele>665.850342</ele>
        <time>2011-05-07T06:42:13Z</time>
      </trkpt>
      <trkpt lat="43.86469" lon="7.23584">
        <ele>664.888916</ele>
        <time>2011-05-07T06:42:15Z</time>
      </trkpt>
      <trkpt lat="43.86452" lon="7.23619">
        <ele>662.485596</ele>
        <time>2011-05-07T06:42:22Z</time>
      </trkpt>
      <trkpt lat="43.8643" lon="7.23664">
        <ele>660.562988</ele>
        <time>2011-05-07T06:42:30Z</time>
      </trkpt>
      <trkpt lat="43.86414" lon="7.23693">
        <ele>661.524414</ele>
        <time>2011-05-07T06:42:36Z</time>
      </trkpt>
      <trkpt lat="43.86403" lon="7.23713">
        <ele>661.043701</ele>
        <time>2011-05-07T06:42:40Z</time>
      </trkpt>
      <trkpt lat="43.86396" lon="7.23742">
        <ele>658.159912</ele>
        <time>2011-05-07T06:42:45Z</time>
      </trkpt>
      <trkpt lat="43.86383" lon="7.23763">
        <ele>655.756592</ele>
        <time>2011-05-07T06:42:50Z</time>
      </trkpt>
      <trkpt lat="43.86375" lon="7.23762">
        <ele>655.756592</ele>
        <time>2011-05-07T06:42:52Z</time>
      </trkpt>
      <trkpt lat="43.86363" lon="7.23755">
        <ele>656.717773</ele>
        <time>2011-05-07T06:42:55Z</time>
      </trkpt>
      <trkpt lat="43.86351" lon="7.23737">
        <ele>656.717773</ele>
        <time>2011-05-07T06:43:00Z</time>
      </trkpt>
      <trkpt lat="43.86337" lon="7.23718">
        <ele>656.237061</ele>
        <time>2011-05-07T06:43:05Z</time>
      </trkpt>
      <trkpt lat="43.86324" lon="7.23719">
        <ele>657.198486</ele>
        <time>2011-05-07T06:43:08Z</time>
      </trkpt>
      <trkpt lat="43.8631" lon="7.23725">
        <ele>658.159912</ele>
        <time>2011-05-07T06:43:11Z</time>
      </trkpt>
      <trkpt lat="43.86281" lon="7.23744">
        <ele>659.121094</ele>
        <time>2011-05-07T06:43:18Z</time>
      </trkpt>
      <trkpt lat="43.86273" lon="7.23751">
        <ele>659.601807</ele>
        <time>2011-05-07T06:43:20Z</time>
      </trkpt>
      <trkpt lat="43.86242" lon="7.23767">
        <ele>660.562988</ele>
        <time>2011-05-07T06:43:27Z</time>
      </trkpt>
      <trkpt lat="43.86237" lon="7.2377">
        <ele>660.562988</ele>
        <time>2011-05-07T06:43:28Z</time>
      </trkpt>
      <trkpt lat="43.86206" lon="7.23782">
        <ele>661.524414</ele>
        <time>2011-05-07T06:43:35Z</time>
      </trkpt>
      <trkpt lat="43.86189" lon="7.23788">
        <ele>661.524414</ele>
        <time>2011-05-07T06:43:39Z</time>
      </trkpt>
      <trkpt lat="43.86168" lon="7.23784">
        <ele>662.485596</ele>
        <time>2011-05-07T06:43:44Z</time>
      </trkpt>
      <trkpt lat="43.86165" lon="7.23771">
        <ele>662.005127</ele>
        <time>2011-05-07T06:43:47Z</time>
      </trkpt>
      <trkpt lat="43.86168" lon="7.23735">
        <ele>661.043701</ele>
        <time>2011-05-07T06:43:53Z</time>
      </trkpt>
      <trkpt lat="43.86171" lon="7.23706">
        <ele>661.043701</ele>
        <time>2011-05-07T06:43:58Z</time>
      </trkpt>
      <trkpt lat="43.86171" lon="7.23692">
        <ele>660.562988</ele>
        <time>2011-05-07T06:44:03Z</time>
      </trkpt>
      <trkpt lat="43.86172" lon="7.23691">
        <ele>660.082275</ele>
        <time>2011-05-07T06:44:10Z</time>
      </trkpt>
      <trkpt lat="43.86169" lon="7.23676">
        <ele>659.121094</ele>
        <time>2011-05-07T06:44:15Z</time>
      </trkpt>
      <trkpt lat="43.86162" lon="7.23664">
        <ele>660.562988</ele>
        <time>2011-05-07T06:44:21Z</time>
      </trkpt>
      <trkpt lat="43.86153" lon="7.23659">
        <ele>662.485596</ele>
        <time>2011-05-07T06:44:25Z</time>
      </trkpt>
      <trkpt lat="43.86152" lon="7.23659">
        <ele>662.966309</ele>
        <time>2011-05-07T06:44:26Z</time>
      </trkpt>
      <trkpt lat="43.86151" lon="7.23671">
        <ele>665.850342</ele>
        <time>2011-05-07T06:44:31Z</time>
      </trkpt>
      <trkpt lat="43.86152" lon="7.23674">
        <ele>665.369629</ele>
        <time>2011-05-07T06:44:32Z</time>
      </trkpt>
      <trkpt lat="43.86155" lon="7.23693">
        <ele>666.330811</ele>
        <time>2011-05-07T06:44:38Z</time>
      </trkpt>
      <trkpt lat="43.86154" lon="7.23719">
        <ele>666.811523</ele>
        <time>2011-05-07T06:44:45Z</time>
      </trkpt>
      <trkpt lat="43.86149" lon="7.23746">
        <ele>666.811523</ele>
        <time>2011-05-07T06:44:52Z</time>
      </trkpt>
      <trkpt lat="43.86142" lon="7.23769">
        <ele>667.772705</ele>
        <time>2011-05-07T06:44:59Z</time>
      </trkpt>
      <trkpt lat="43.86137" lon="7.23787">
        <ele>667.772705</ele>
        <time>2011-05-07T06:45:05Z</time>
      </trkpt>
      <trkpt lat="43.86131" lon="7.23808">
        <ele>669.215088</ele>
        <time>2011-05-07T06:45:12Z</time>
      </trkpt>
      <trkpt lat="43.86126" lon="7.23833">
        <ele>670.656982</ele>
        <time>2011-05-07T06:45:20Z</time>
      </trkpt>
      <trkpt lat="43.86126" lon="7.23851">
        <ele>672.098877</ele>
        <time>2011-05-07T06:45:26Z</time>
      </trkpt>
      <trkpt lat="43.86131" lon="7.23876">
        <ele>673.541016</ele>
        <time>2011-05-07T06:45:35Z</time>
      </trkpt>
      <trkpt lat="43.86133" lon="7.23894">
        <ele>676.424805</ele>
        <time>2011-05-07T06:45:42Z</time>
      </trkpt>
      <trkpt lat="43.86131" lon="7.2391">
        <ele>679.308594</ele>
        <time>2011-05-07T06:45:49Z</time>
      </trkpt>
      <trkpt lat="43.86128" lon="7.23927">
        <ele>682.67334</ele>
        <time>2011-05-07T06:45:57Z</time>
      </trkpt>
      <trkpt lat="43.86131" lon="7.23943">
        <ele>684.115479</ele>
        <time>2011-05-07T06:46:04Z</time>
      </trkpt>
      <trkpt lat="43.86135" lon="7.23962">
        <ele>685.557373</ele>
        <time>2011-05-07T06:46:12Z</time>
      </trkpt>
      <trkpt lat="43.8614" lon="7.23984">
        <ele>685.557373</ele>
        <time>2011-05-07T06:46:20Z</time>
      </trkpt>
      <trkpt lat="43.86137" lon="7.24001">
        <ele>687.960693</ele>
        <time>2011-05-07T06:46:27Z</time>
      </trkpt>
      <trkpt lat="43.86132" lon="7.24021">
        <ele>684.115479</ele>
        <time>2011-05-07T06:46:34Z</time>
      </trkpt>
      <trkpt lat="43.86137" lon="7.24043">
        <ele>685.076904</ele>
        <time>2011-05-07T06:46:39Z</time>
      </trkpt>
      <trkpt lat="43.86149" lon="7.24073">
        <ele>683.634521</ele>
        <time>2011-05-07T06:46:44Z</time>
      </trkpt>
      <trkpt lat="43.86152" lon="7.24112">
        <ele>682.192627</ele>
        <time>2011-05-07T06:46:49Z</time>
      </trkpt>
      <trkpt lat="43.86164" lon="7.24131">
        <ele>681.231445</ele>
        <time>2011-05-07T06:46:52Z</time>
      </trkpt>
      <trkpt lat="43.86181" lon="7.24147">
        <ele>680.27002</ele>
        <time>2011-05-07T06:46:55Z</time>
      </trkpt>
      <trkpt lat="43.86195" lon="7.24165">
        <ele>679.308594</ele>
        <time>2011-05-07T06:46:58Z</time>
      </trkpt>
      <trkpt lat="43.86197" lon="7.24171">
        <ele>679.308594</ele>
        <time>2011-05-07T06:46:59Z</time>
      </trkpt>
      <trkpt lat="43.86198" lon="7.24191">
        <ele>679.308594</ele>
        <time>2011-05-07T06:47:02Z</time>
      </trkpt>
      <trkpt lat="43.86194" lon="7.24233">
        <ele>678.828125</ele>
        <time>2011-05-07T06:47:09Z</time>
      </trkpt>
      <trkpt lat="43.8619" lon="7.24261">
        <ele>682.192627</ele>
        <time>2011-05-07T06:47:16Z</time>
      </trkpt>
      <trkpt lat="43.86194" lon="7.24274">
        <ele>685.076904</ele>
        <time>2011-05-07T06:47:20Z</time>
      </trkpt>
      <trkpt lat="43.86197" lon="7.24294">
        <ele>685.076904</ele>
        <time>2011-05-07T06:47:26Z</time>
      </trkpt>
      <trkpt lat="43.86195" lon="7.24322">
        <ele>685.076904</ele>
        <time>2011-05-07T06:47:34Z</time>
      </trkpt>
      <trkpt lat="43.86198" lon="7.24341">
        <ele>687.960693</ele>
        <time>2011-05-07T06:47:39Z</time>
      </trkpt>
      <trkpt lat="43.86198" lon="7.24356">
        <ele>688.441406</ele>
        <time>2011-05-07T06:47:44Z</time>
      </trkpt>
      <trkpt lat="43.86195" lon="7.24388">
        <ele>688.441406</ele>
        <time>2011-05-07T06:47:53Z</time>
      </trkpt>
      <trkpt lat="43.86191" lon="7.24412">
        <ele>688.441406</ele>
        <time>2011-05-07T06:47:59Z</time>
      </trkpt>
      <trkpt lat="43.86189" lon="7.24438">
        <ele>690.844482</ele>
        <time>2011-05-07T06:48:06Z</time>
      </trkpt>
      <trkpt lat="43.86191" lon="7.24459">
        <ele>692.767334</ele>
        <time>2011-05-07T06:48:12Z</time>
      </trkpt>
      <trkpt lat="43.86199" lon="7.24488">
        <ele>695.651123</ele>
        <time>2011-05-07T06:48:21Z</time>
      </trkpt>
      <trkpt lat="43.86204" lon="7.24515">
        <ele>697.093018</ele>
        <time>2011-05-07T06:48:28Z</time>
      </trkpt>
      <trkpt lat="43.86207" lon="7.24548">
        <ele>697.093018</ele>
        <time>2011-05-07T06:48:35Z</time>
      </trkpt>
      <trkpt lat="43.86208" lon="7.2458">
        <ele>698.054443</ele>
        <time>2011-05-07T06:48:42Z</time>
      </trkpt>
      <trkpt lat="43.86207" lon="7.246">
        <ele>698.054443</ele>
        <time>2011-05-07T06:48:47Z</time>
      </trkpt>
      <trkpt lat="43.86201" lon="7.24634">
        <ele>694.689697</ele>
        <time>2011-05-07T06:48:55Z</time>
      </trkpt>
      <trkpt lat="43.86185" lon="7.24654">
        <ele>694.209229</ele>
        <time>2011-05-07T06:49:01Z</time>
      </trkpt>
      <trkpt lat="43.86171" lon="7.24676">
        <ele>694.689697</ele>
        <time>2011-05-07T06:49:09Z</time>
      </trkpt>
      <trkpt lat="43.86164" lon="7.24687">
        <ele>695.17041</ele>
        <time>2011-05-07T06:49:14Z</time>
      </trkpt>
      <trkpt lat="43.86165" lon="7.24696">
        <ele>697.57373</ele>
        <time>2011-05-07T06:49:19Z</time>
      </trkpt>
      <trkpt lat="43.86171" lon="7.24696">
        <ele>699.496338</ele>
        <time>2011-05-07T06:49:23Z</time>
      </trkpt>
      <trkpt lat="43.8618" lon="7.24694">
        <ele>701.419189</ele>
        <time>2011-05-07T06:49:29Z</time>
      </trkpt>
      <trkpt lat="43.86181" lon="7.24694">
        <ele>701.899902</ele>
        <time>2011-05-07T06:49:30Z</time>
      </trkpt>
      <trkpt lat="43.86184" lon="7.24695">
        <ele>703.341797</ele>
        <time>2011-05-07T06:49:35Z</time>
      </trkpt>
      <trkpt lat="43.86185" lon="7.247">
        <ele>704.783691</ele>
        <time>2011-05-07T06:49:41Z</time>
      </trkpt>
      <trkpt lat="43.86184" lon="7.24703">
        <ele>706.706299</ele>
        <time>2011-05-07T06:49:48Z</time>
      </trkpt>
      <trkpt lat="43.86182" lon="7.24705">
        <ele>707.187012</ele>
        <time>2011-05-07T06:49:53Z</time>
      </trkpt>
      <trkpt lat="43.86177" lon="7.24719">
        <ele>707.667725</ele>
        <time>2011-05-07T06:50:01Z</time>
      </trkpt>
      <trkpt lat="43.86176" lon="7.24725">
        <ele>708.628906</ele>
        <time>2011-05-07T06:50:04Z</time>
      </trkpt>
      <trkpt lat="43.86176" lon="7.24729">
        <ele>709.590332</ele>
        <time>2011-05-07T06:50:10Z</time>
      </trkpt>
      <trkpt lat="43.86176" lon="7.24739">
        <ele>711.512939</ele>
        <time>2011-05-07T06:50:18Z</time>
      </trkpt>
      <trkpt lat="43.86179" lon="7.24745">
        <ele>712.474121</ele>
        <time>2011-05-07T06:50:25Z</time>
      </trkpt>
      <trkpt lat="43.86179" lon="7.24752">
        <ele>712.474121</ele>
        <time>2011-05-07T06:50:31Z</time>
      </trkpt>
      <trkpt lat="43.86178" lon="7.24755">
        <ele>712.474121</ele>
        <time>2011-05-07T06:50:37Z</time>
      </trkpt>
      <trkpt lat="43.86177" lon="7.24763">
        <ele>712.954834</ele>
        <time>2011-05-07T06:50:42Z</time>
      </trkpt>
      <trkpt lat="43.86178" lon="7.24778">
        <ele>714.396729</ele>
        <time>2011-05-07T06:50:49Z</time>
      </trkpt>
      <trkpt lat="43.8618" lon="7.24791">
        <ele>715.358154</ele>
        <time>2011-05-07T06:50:55Z</time>
      </trkpt>
      <trkpt lat="43.86181" lon="7.24808">
        <ele>716.800293</ele>
        <time>2011-05-07T06:51:03Z</time>
      </trkpt>
      <trkpt lat="43.86184" lon="7.24825">
        <ele>718.7229</ele>
        <time>2011-05-07T06:51:11Z</time>
      </trkpt>
      <trkpt lat="43.86185" lon="7.24834">
        <ele>720.645508</ele>
        <time>2011-05-07T06:51:16Z</time>
      </trkpt>
      <trkpt lat="43.86188" lon="7.24839">
        <ele>724.01001</ele>
        <time>2011-05-07T06:51:23Z</time>
      </trkpt>
      <trkpt lat="43.86191" lon="7.24841">
        <ele>726.894043</ele>
        <time>2011-05-07T06:51:31Z</time>
      </trkpt>
      <trkpt lat="43.86196" lon="7.24842">
        <ele>727.374756</ele>
        <time>2011-05-07T06:51:38Z</time>
      </trkpt>
      <trkpt lat="43.86198" lon="7.24849">
        <ele>729.297119</ele>
        <time>2011-05-07T06:51:45Z</time>
      </trkpt>
      <trkpt lat="43.862" lon="7.24857">
        <ele>732.181396</ele>
        <time>2011-05-07T06:51:54Z</time>
      </trkpt>
      <trkpt lat="43.86203" lon="7.24865">
        <ele>735.06543</ele>
        <time>2011-05-07T06:52:03Z</time>
      </trkpt>
      <trkpt lat="43.86209" lon="7.24872">
        <ele>738.429932</ele>
        <time>2011-05-07T06:52:13Z</time>
      </trkpt>
      <trkpt lat="43.86213" lon="7.2488">
        <ele>740.833008</ele>
        <time>2011-05-07T06:52:22Z</time>
      </trkpt>
      <trkpt lat="43.86218" lon="7.24883">
        <ele>740.352539</ele>
        <time>2011-05-07T06:52:29Z</time>
      </trkpt>
      <trkpt lat="43.86223" lon="7.24888">
        <ele>741.313721</ele>
        <time>2011-05-07T06:52:38Z</time>
      </trkpt>
      <trkpt lat="43.86227" lon="7.24896">
        <ele>741.794434</ele>
        <time>2011-05-07T06:52:47Z</time>
      </trkpt>
      <trkpt lat="43.86231" lon="7.24898">
        <ele>745.158936</ele>
        <time>2011-05-07T06:52:54Z</time>
      </trkpt>
      <trkpt lat="43.86232" lon="7.24906">
        <ele>745.158936</ele>
        <time>2011-05-07T06:53:01Z</time>
      </trkpt>
      <trkpt lat="43.86234" lon="7.24916">
        <ele>746.120361</ele>
        <time>2011-05-07T06:53:08Z</time>
      </trkpt>
      <trkpt lat="43.86238" lon="7.24923">
        <ele>747.562256</ele>
        <time>2011-05-07T06:53:15Z</time>
      </trkpt>
      <trkpt lat="43.8624" lon="7.24931">
        <ele>748.523682</ele>
        <time>2011-05-07T06:53:22Z</time>
      </trkpt>
      <trkpt lat="43.86244" lon="7.24938">
        <ele>749.004395</ele>
        <time>2011-05-07T06:53:29Z</time>
      </trkpt>
      <trkpt lat="43.86245" lon="7.24946">
        <ele>749.96582</ele>
        <time>2011-05-07T06:53:35Z</time>
      </trkpt>
      <trkpt lat="43.86248" lon="7.24952">
        <ele>749.96582</ele>
        <time>2011-05-07T06:53:40Z</time>
      </trkpt>
      <trkpt lat="43.86252" lon="7.24965">
        <ele>751.407715</ele>
        <time>2011-05-07T06:53:49Z</time>
      </trkpt>
      <trkpt lat="43.86254" lon="7.24968">
        <ele>751.407715</ele>
        <time>2011-05-07T06:53:52Z</time>
      </trkpt>
      <trkpt lat="43.86257" lon="7.24974">
        <ele>753.330322</ele>
        <time>2011-05-07T06:54:00Z</time>
      </trkpt>
      <trkpt lat="43.86261" lon="7.24981">
        <ele>756.214111</ele>
        <time>2011-05-07T06:54:09Z</time>
      </trkpt>
      <trkpt lat="43.86263" lon="7.24992">
        <ele>756.694824</ele>
        <time>2011-05-07T06:54:16Z</time>
      </trkpt>
      <trkpt lat="43.86266" lon="7.25">
        <ele>758.617432</ele>
        <time>2011-05-07T06:54:24Z</time>
      </trkpt>
      <trkpt lat="43.86271" lon="7.25007">
        <ele>760.540039</ele>
        <time>2011-05-07T06:54:32Z</time>
      </trkpt>
      <trkpt lat="43.86274" lon="7.25015">
        <ele>763.904541</ele>
        <time>2011-05-07T06:54:41Z</time>
      </trkpt>
      <trkpt lat="43.86278" lon="7.25023">
        <ele>764.866211</ele>
        <time>2011-05-07T06:54:50Z</time>
      </trkpt>
      <trkpt lat="43.86281" lon="7.2503">
        <ele>761.982178</ele>
        <time>2011-05-07T06:54:57Z</time>
      </trkpt>
      <trkpt lat="43.86283" lon="7.25035">
        <ele>762.462646</ele>
        <time>2011-05-07T06:55:04Z</time>
      </trkpt>
      <trkpt lat="43.86285" lon="7.25037">
        <ele>763.424072</ele>
        <time>2011-05-07T06:55:08Z</time>
      </trkpt>
      <trkpt lat="43.86285" lon="7.25039">
        <ele>762.943359</ele>
        <time>2011-05-07T06:55:13Z</time>
      </trkpt>
      <trkpt lat="43.86286" lon="7.25043">
        <ele>763.904541</ele>
        <time>2011-05-07T06:55:19Z</time>
      </trkpt>
      <trkpt lat="43.86287" lon="7.25051">
        <ele>765.827637</ele>
        <time>2011-05-07T06:55:24Z</time>
      </trkpt>
      <trkpt lat="43.86293" lon="7.25066">
        <ele>763.904541</ele>
        <time>2011-05-07T06:55:33Z</time>
      </trkpt>
      <trkpt lat="43.86296" lon="7.2508">
        <ele>762.943359</ele>
        <time>2011-05-07T06:55:39Z</time>
      </trkpt>
      <trkpt lat="43.86298" lon="7.25087">
        <ele>762.462646</ele>
        <time>2011-05-07T06:55:42Z</time>
      </trkpt>
      <trkpt lat="43.86301" lon="7.25098">
        <ele>763.424072</ele>
        <time>2011-05-07T06:55:48Z</time>
      </trkpt>
      <trkpt lat="43.86306" lon="7.25117">
        <ele>765.827637</ele>
        <time>2011-05-07T06:55:55Z</time>
      </trkpt>
      <trkpt lat="43.86309" lon="7.25138">
        <ele>766.788818</ele>
        <time>2011-05-07T06:56:01Z</time>
      </trkpt>
      <trkpt lat="43.86312" lon="7.25155">
        <ele>768.711426</ele>
        <time>2011-05-07T06:56:06Z</time>
      </trkpt>
      <trkpt lat="43.86316" lon="7.25169">
        <ele>769.672852</ele>
        <time>2011-05-07T06:56:10Z</time>
      </trkpt>
      <trkpt lat="43.86319" lon="7.25184">
        <ele>771.114746</ele>
        <time>2011-05-07T06:56:16Z</time>
      </trkpt>
      <trkpt lat="43.86324" lon="7.252">
        <ele>771.114746</ele>
        <time>2011-05-07T06:56:21Z</time>
      </trkpt>
      <trkpt lat="43.86326" lon="7.25216">
        <ele>770.15332</ele>
        <time>2011-05-07T06:56:26Z</time>
      </trkpt>
      <trkpt lat="43.86329" lon="7.25229">
        <ele>770.15332</ele>
        <time>2011-05-07T06:56:30Z</time>
      </trkpt>
      <trkpt lat="43.86332" lon="7.25242">
        <ele>768.711426</ele>
        <time>2011-05-07T06:56:34Z</time>
      </trkpt>
      <trkpt lat="43.86333" lon="7.25263">
        <ele>767.75</ele>
        <time>2011-05-07T06:56:40Z</time>
      </trkpt>
      <trkpt lat="43.86336" lon="7.25291">
        <ele>766.788818</ele>
        <time>2011-05-07T06:56:48Z</time>
      </trkpt>
      <trkpt lat="43.86337" lon="7.25308">
        <ele>765.346924</ele>
        <time>2011-05-07T06:56:53Z</time>
      </trkpt>
      <trkpt lat="43.86335" lon="7.25328">
        <ele>763.424072</ele>
        <time>2011-05-07T06:56:59Z</time>
      </trkpt>
      <trkpt lat="43.86333" lon="7.25338">
        <ele>761.982178</ele>
        <time>2011-05-07T06:57:02Z</time>
      </trkpt>
      <trkpt lat="43.86327" lon="7.25354">
        <ele>764.385498</ele>
        <time>2011-05-07T06:57:07Z</time>
      </trkpt>
      <trkpt lat="43.86327" lon="7.25358">
        <ele>765.346924</ele>
        <time>2011-05-07T06:57:08Z</time>
      </trkpt>
      <trkpt lat="43.86331" lon="7.25394">
        <ele>766.308105</ele>
        <time>2011-05-07T06:57:16Z</time>
      </trkpt>
      <trkpt lat="43.86333" lon="7.25417">
        <ele>768.711426</ele>
        <time>2011-05-07T06:57:21Z</time>
      </trkpt>
      <trkpt lat="43.86335" lon="7.25426">
        <ele>770.15332</ele>
        <time>2011-05-07T06:57:25Z</time>
      </trkpt>
      <trkpt lat="43.86336" lon="7.25432">
        <ele>771.114746</ele>
        <time>2011-05-07T06:57:30Z</time>
      </trkpt>
      <trkpt lat="43.86335" lon="7.25433">
        <ele>773.037354</ele>
        <time>2011-05-07T06:57:35Z</time>
      </trkpt>
      <trkpt lat="43.86335" lon="7.25434">
        <ele>773.998535</ele>
        <time>2011-05-07T06:57:41Z</time>
      </trkpt>
      <trkpt lat="43.86335" lon="7.25434">
        <ele>773.998535</ele>
        <time>2011-05-07T06:57:51Z</time>
      </trkpt>
      <trkpt lat="43.86337" lon="7.25441">
        <ele>774.479248</ele>
        <time>2011-05-07T06:57:55Z</time>
      </trkpt>
      <trkpt lat="43.86343" lon="7.2546">
        <ele>774.479248</ele>
        <time>2011-05-07T06:58:01Z</time>
      </trkpt>
      <trkpt lat="43.86346" lon="7.25482">
        <ele>773.518066</ele>
        <time>2011-05-07T06:58:06Z</time>
      </trkpt>
      <trkpt lat="43.86346" lon="7.25511">
        <ele>771.595215</ele>
        <time>2011-05-07T06:58:12Z</time>
      </trkpt>
      <trkpt lat="43.86351" lon="7.25534">
        <ele>771.595215</ele>
        <time>2011-05-07T06:58:16Z</time>
      </trkpt>
      <trkpt lat="43.86355" lon="7.25549">
        <ele>773.037354</ele>
        <time>2011-05-07T06:58:19Z</time>
      </trkpt>
      <trkpt lat="43.86355" lon="7.25566">
        <ele>772.556641</ele>
        <time>2011-05-07T06:58:23Z</time>
      </trkpt>
      <trkpt lat="43.86358" lon="7.25588">
        <ele>775.44043</ele>
        <time>2011-05-07T06:58:28Z</time>
      </trkpt>
      <trkpt lat="43.86368" lon="7.25606">
        <ele>775.921143</ele>
        <time>2011-05-07T06:58:33Z</time>
      </trkpt>
      <trkpt lat="43.86376" lon="7.25623">
        <ele>775.44043</ele>
        <time>2011-05-07T06:58:38Z</time>
      </trkpt>
      <trkpt lat="43.86386" lon="7.25646">
        <ele>774.959961</ele>
        <time>2011-05-07T06:58:44Z</time>
      </trkpt>
      <trkpt lat="43.86393" lon="7.25665">
        <ele>775.921143</ele>
        <time>2011-05-07T06:58:49Z</time>
      </trkpt>
      <trkpt lat="43.86399" lon="7.2568">
        <ele>775.921143</ele>
        <time>2011-05-07T06:58:53Z</time>
      </trkpt>
      <trkpt lat="43.8641" lon="7.257">
        <ele>776.882568</ele>
        <time>2011-05-07T06:58:58Z</time>
      </trkpt>
      <trkpt lat="43.8642" lon="7.25721">
        <ele>776.882568</ele>
        <time>2011-05-07T06:59:03Z</time>
      </trkpt>
      <trkpt lat="43.86425" lon="7.25736">
        <ele>776.882568</ele>
        <time>2011-05-07T06:59:08Z</time>
      </trkpt>
      <trkpt lat="43.86424" lon="7.25737">
        <ele>775.921143</ele>
        <time>2011-05-07T06:59:16Z</time>
      </trkpt>
      <trkpt lat="43.86424" lon="7.2574">
        <ele>776.401855</ele>
        <time>2011-05-07T06:59:24Z</time>
      </trkpt>
      <trkpt lat="43.86427" lon="7.25748">
        <ele>775.921143</ele>
        <time>2011-05-07T06:59:29Z</time>
      </trkpt>
      <trkpt lat="43.86431" lon="7.25762">
        <ele>774.959961</ele>
        <time>2011-05-07T06:59:33Z</time>
      </trkpt>
      <trkpt lat="43.86436" lon="7.25774">
        <ele>774.959961</ele>
        <time>2011-05-07T06:59:37Z</time>
      </trkpt>
      <trkpt lat="43.86439" lon="7.2579">
        <ele>773.998535</ele>
        <time>2011-05-07T06:59:42Z</time>
      </trkpt>
      <trkpt lat="43.86441" lon="7.25801">
        <ele>775.44043</ele>
        <time>2011-05-07T06:59:45Z</time>
      </trkpt>
      <trkpt lat="43.86442" lon="7.25811">
        <ele>775.44043</ele>
        <time>2011-05-07T06:59:48Z</time>
      </trkpt>
      <trkpt lat="43.86446" lon="7.25826">
        <ele>773.998535</ele>
        <time>2011-05-07T06:59:53Z</time>
      </trkpt>
      <trkpt lat="43.86448" lon="7.25846">
        <ele>773.037354</ele>
        <time>2011-05-07T06:59:59Z</time>
      </trkpt>
      <trkpt lat="43.86448" lon="7.2585">
        <ele>774.959961</ele>
        <time>2011-05-07T07:00:03Z</time>
      </trkpt>
      <trkpt lat="43.86449" lon="7.25856">
        <ele>776.882568</ele>
        <time>2011-05-07T07:00:08Z</time>
      </trkpt>
      <trkpt lat="43.86449" lon="7.25871">
        <ele>775.44043</ele>
        <time>2011-05-07T07:00:13Z</time>
      </trkpt>
      <trkpt lat="43.86449" lon="7.25886">
        <ele>777.84375</ele>
        <time>2011-05-07T07:00:18Z</time>
      </trkpt>
      <trkpt lat="43.86455" lon="7.25905">
        <ele>781.689209</ele>
        <time>2011-05-07T07:00:24Z</time>
      </trkpt>
      <trkpt lat="43.86457" lon="7.2591">
        <ele>783.131104</ele>
        <time>2011-05-07T07:00:28Z</time>
      </trkpt>
      <trkpt lat="43.86456" lon="7.2591">
        <ele>788.89917</ele>
        <time>2011-05-07T07:00:52Z</time>
      </trkpt>
      <trkpt lat="43.86458" lon="7.25913">
        <ele>788.418457</ele>
        <time>2011-05-07T07:00:58Z</time>
      </trkpt>
      <trkpt lat="43.86456" lon="7.25916">
        <ele>792.744385</ele>
        <time>2011-05-07T07:01:04Z</time>
      </trkpt>
      <trkpt lat="43.86454" lon="7.25916">
        <ele>795.147461</ele>
        <time>2011-05-07T07:01:10Z</time>
      </trkpt>
      <trkpt lat="43.86454" lon="7.2592">
        <ele>795.628174</ele>
        <time>2011-05-07T07:01:14Z</time>
      </trkpt>
      <trkpt lat="43.86451" lon="7.25923">
        <ele>797.070313</ele>
        <time>2011-05-07T07:01:20Z</time>
      </trkpt>
      <trkpt lat="43.8645" lon="7.25927">
        <ele>798.99292</ele>
        <time>2011-05-07T07:01:27Z</time>
      </trkpt>
      <trkpt lat="43.86451" lon="7.25929">
        <ele>804.280273</ele>
        <time>2011-05-07T07:01:33Z</time>
      </trkpt>
      <trkpt lat="43.86454" lon="7.25936">
        <ele>808.605957</ele>
        <time>2011-05-07T07:01:39Z</time>
      </trkpt>
      <trkpt lat="43.86456" lon="7.25943">
        <ele>812.451416</ele>
        <time>2011-05-07T07:01:45Z</time>
      </trkpt>
      <trkpt lat="43.86457" lon="7.25951">
        <ele>810.528564</ele>
        <time>2011-05-07T07:01:52Z</time>
      </trkpt>
      <trkpt lat="43.86458" lon="7.25956">
        <ele>807.644775</ele>
        <time>2011-05-07T07:01:58Z</time>
      </trkpt>
      <trkpt lat="43.8646" lon="7.25961">
        <ele>805.241455</ele>
        <time>2011-05-07T07:02:03Z</time>
      </trkpt>
      <trkpt lat="43.86462" lon="7.25966">
        <ele>800.435059</ele>
        <time>2011-05-07T07:02:08Z</time>
      </trkpt>
      <trkpt lat="43.86464" lon="7.25967">
        <ele>800.435059</ele>
        <time>2011-05-07T07:02:11Z</time>
      </trkpt>
      <trkpt lat="43.86469" lon="7.25969">
        <ele>796.589844</ele>
        <time>2011-05-07T07:02:15Z</time>
      </trkpt>
      <trkpt lat="43.86473" lon="7.25977">
        <ele>799.473633</ele>
        <time>2011-05-07T07:02:19Z</time>
      </trkpt>
      <trkpt lat="43.86477" lon="7.25979">
        <ele>800.915527</ele>
        <time>2011-05-07T07:02:23Z</time>
      </trkpt>
      <trkpt lat="43.86481" lon="7.25984">
        <ele>803.799561</ele>
        <time>2011-05-07T07:02:28Z</time>
      </trkpt>
      <trkpt lat="43.86489" lon="7.2599">
        <ele>805.241455</ele>
        <time>2011-05-07T07:02:35Z</time>
      </trkpt>
      <trkpt lat="43.86494" lon="7.25991">
        <ele>811.970703</ele>
        <time>2011-05-07T07:02:42Z</time>
      </trkpt>
      <trkpt lat="43.86497" lon="7.25992">
        <ele>814.854736</ele>
        <time>2011-05-07T07:02:47Z</time>
      </trkpt>
      <trkpt lat="43.86502" lon="7.25995">
        <ele>819.661377</ele>
        <time>2011-05-07T07:02:54Z</time>
      </trkpt>
      <trkpt lat="43.86506" lon="7.26">
        <ele>820.622559</ele>
        <time>2011-05-07T07:02:59Z</time>
      </trkpt>
      <trkpt lat="43.86509" lon="7.26004">
        <ele>822.064453</ele>
        <time>2011-05-07T07:03:06Z</time>
      </trkpt>
      <trkpt lat="43.86514" lon="7.2601">
        <ele>823.506592</ele>
        <time>2011-05-07T07:03:13Z</time>
      </trkpt>
      <trkpt lat="43.86517" lon="7.26015">
        <ele>823.506592</ele>
        <time>2011-05-07T07:03:19Z</time>
      </trkpt>
      <trkpt lat="43.8652" lon="7.26021">
        <ele>824.467773</ele>
        <time>2011-05-07T07:03:26Z</time>
      </trkpt>
      <trkpt lat="43.86522" lon="7.26026">
        <ele>824.467773</ele>
        <time>2011-05-07T07:03:32Z</time>
      </trkpt>
      <trkpt lat="43.86527" lon="7.2603">
        <ele>825.909668</ele>
        <time>2011-05-07T07:03:37Z</time>
      </trkpt>
      <trkpt lat="43.86529" lon="7.26032">
        <ele>826.871094</ele>
        <time>2011-05-07T07:03:39Z</time>
      </trkpt>
      <trkpt lat="43.86533" lon="7.2604">
        <ele>825.428955</ele>
        <time>2011-05-07T07:03:46Z</time>
      </trkpt>
      <trkpt lat="43.86537" lon="7.26045">
        <ele>825.428955</ele>
        <time>2011-05-07T07:03:52Z</time>
      </trkpt>
      <trkpt lat="43.86538" lon="7.26046">
        <ele>836.003662</ele>
        <time>2011-05-07T07:03:57Z</time>
      </trkpt>
      <trkpt lat="43.86541" lon="7.26049">
        <ele>838.887695</ele>
        <time>2011-05-07T07:04:02Z</time>
      </trkpt>
      <trkpt lat="43.86543" lon="7.26053">
        <ele>836.964844</ele>
        <time>2011-05-07T07:04:10Z</time>
      </trkpt>
      <trkpt lat="43.86544" lon="7.26057">
        <ele>836.003662</ele>
        <time>2011-05-07T07:04:16Z</time>
      </trkpt>
      <trkpt lat="43.86545" lon="7.26058">
        <ele>836.003662</ele>
        <time>2011-05-07T07:04:19Z</time>
      </trkpt>
      <trkpt lat="43.86552" lon="7.26064">
        <ele>834.561768</ele>
        <time>2011-05-07T07:04:27Z</time>
      </trkpt>
      <trkpt lat="43.86557" lon="7.26067">
        <ele>834.081055</ele>
        <time>2011-05-07T07:04:34Z</time>
      </trkpt>
      <trkpt lat="43.86563" lon="7.26068">
        <ele>834.561768</ele>
        <time>2011-05-07T07:04:39Z</time>
      </trkpt>
      <trkpt lat="43.86568" lon="7.26071">
        <ele>832.63916</ele>
        <time>2011-05-07T07:04:44Z</time>
      </trkpt>
      <trkpt lat="43.86567" lon="7.26074">
        <ele>838.406982</ele>
        <time>2011-05-07T07:04:51Z</time>
      </trkpt>
      <trkpt lat="43.86564" lon="7.26074">
        <ele>838.406982</ele>
        <time>2011-05-07T07:04:56Z</time>
      </trkpt>
      <trkpt lat="43.8656" lon="7.26072">
        <ele>843.213379</ele>
        <time>2011-05-07T07:05:01Z</time>
      </trkpt>
      <trkpt lat="43.86559" lon="7.26071">
        <ele>845.13623</ele>
        <time>2011-05-07T07:05:02Z</time>
      </trkpt>
      <trkpt lat="43.86552" lon="7.2607">
        <ele>851.384766</ele>
        <time>2011-05-07T07:05:08Z</time>
      </trkpt>
      <trkpt lat="43.86551" lon="7.2607">
        <ele>852.345947</ele>
        <time>2011-05-07T07:05:09Z</time>
      </trkpt>
      <trkpt lat="43.86542" lon="7.26073">
        <ele>849.462158</ele>
        <time>2011-05-07T07:05:16Z</time>
      </trkpt>
      <trkpt lat="43.86535" lon="7.2607">
        <ele>848.500732</ele>
        <time>2011-05-07T07:05:21Z</time>
      </trkpt>
      <trkpt lat="43.86533" lon="7.26069">
        <ele>848.981445</ele>
        <time>2011-05-07T07:05:22Z</time>
      </trkpt>
      <trkpt lat="43.86527" lon="7.26068">
        <ele>849.942871</ele>
        <time>2011-05-07T07:05:25Z</time>
      </trkpt>
      <trkpt lat="43.86518" lon="7.26059">
        <ele>849.462158</ele>
        <time>2011-05-07T07:05:31Z</time>
      </trkpt>
      <trkpt lat="43.86512" lon="7.26056">
        <ele>848.981445</ele>
        <time>2011-05-07T07:05:34Z</time>
      </trkpt>
      <trkpt lat="43.86506" lon="7.26057">
        <ele>849.462158</ele>
        <time>2011-05-07T07:05:38Z</time>
      </trkpt>
      <trkpt lat="43.8649" lon="7.26052">
        <ele>847.539551</ele>
        <time>2011-05-07T07:05:45Z</time>
      </trkpt>
      <trkpt lat="43.86483" lon="7.26049">
        <ele>848.500732</ele>
        <time>2011-05-07T07:05:49Z</time>
      </trkpt>
      <trkpt lat="43.8648" lon="7.26048">
        <ele>849.462158</ele>
        <time>2011-05-07T07:05:50Z</time>
      </trkpt>
      <trkpt lat="43.86467" lon="7.26048">
        <ele>850.423584</ele>
        <time>2011-05-07T07:05:56Z</time>
      </trkpt>
      <trkpt lat="43.86464" lon="7.26051">
        <ele>851.384766</ele>
        <time>2011-05-07T07:05:58Z</time>
      </trkpt>
      <trkpt lat="43.86456" lon="7.2605">
        <ele>852.82666</ele>
        <time>2011-05-07T07:06:03Z</time>
      </trkpt>
      <trkpt lat="43.86455" lon="7.26049">
        <ele>852.82666</ele>
        <time>2011-05-07T07:06:04Z</time>
      </trkpt>
      <trkpt lat="43.86453" lon="7.26043">
        <ele>853.307373</ele>
        <time>2011-05-07T07:06:08Z</time>
      </trkpt>
      <trkpt lat="43.86444" lon="7.26034">
        <ele>850.904053</ele>
        <time>2011-05-07T07:06:13Z</time>
      </trkpt>
      <trkpt lat="43.86436" lon="7.26025">
        <ele>850.423584</ele>
        <time>2011-05-07T07:06:17Z</time>
      </trkpt>
      <trkpt lat="43.86423" lon="7.26018">
        <ele>848.981445</ele>
        <time>2011-05-07T07:06:22Z</time>
      </trkpt>
      <trkpt lat="43.8641" lon="7.26006">
        <ele>849.462158</ele>
        <time>2011-05-07T07:06:28Z</time>
      </trkpt>
      <trkpt lat="43.86398" lon="7.25995">
        <ele>849.462158</ele>
        <time>2011-05-07T07:06:33Z</time>
      </trkpt>
      <trkpt lat="43.86396" lon="7.25994">
        <ele>849.462158</ele>
        <time>2011-05-07T07:06:34Z</time>
      </trkpt>
      <trkpt lat="43.86383" lon="7.25986">
        <ele>847.539551</ele>
        <time>2011-05-07T07:06:40Z</time>
      </trkpt>
      <trkpt lat="43.86372" lon="7.2598">
        <ele>846.578369</ele>
        <time>2011-05-07T07:06:44Z</time>
      </trkpt>
      <trkpt lat="43.86355" lon="7.25972">
        <ele>846.097656</ele>
        <time>2011-05-07T07:06:50Z</time>
      </trkpt>
      <trkpt lat="43.86342" lon="7.25966">
        <ele>846.097656</ele>
        <time>2011-05-07T07:06:55Z</time>
      </trkpt>
      <trkpt lat="43.86332" lon="7.25959">
        <ele>848.020264</ele>
        <time>2011-05-07T07:06:58Z</time>
      </trkpt>
      <trkpt lat="43.86329" lon="7.25957">
        <ele>848.981445</ele>
        <time>2011-05-07T07:06:59Z</time>
      </trkpt>
      <trkpt lat="43.86316" lon="7.25954">
        <ele>849.942871</ele>
        <time>2011-05-07T07:07:04Z</time>
      </trkpt>
      <trkpt lat="43.86314" lon="7.25952">
        <ele>850.423584</ele>
        <time>2011-05-07T07:07:05Z</time>
      </trkpt>
      <trkpt lat="43.86297" lon="7.25936">
        <ele>852.82666</ele>
        <time>2011-05-07T07:07:12Z</time>
      </trkpt>
      <trkpt lat="43.86287" lon="7.25924">
        <ele>855.710693</ele>
        <time>2011-05-07T07:07:16Z</time>
      </trkpt>
      <trkpt lat="43.8627" lon="7.25908">
        <ele>854.749268</ele>
        <time>2011-05-07T07:07:22Z</time>
      </trkpt>
      <trkpt lat="43.86256" lon="7.25894">
        <ele>854.268799</ele>
        <time>2011-05-07T07:07:26Z</time>
      </trkpt>
      <trkpt lat="43.86243" lon="7.25882">
        <ele>852.345947</ele>
        <time>2011-05-07T07:07:30Z</time>
      </trkpt>
      <trkpt lat="43.8624" lon="7.25861">
        <ele>850.423584</ele>
        <time>2011-05-07T07:07:35Z</time>
      </trkpt>
      <trkpt lat="43.86226" lon="7.25833">
        <ele>845.616943</ele>
        <time>2011-05-07T07:07:40Z</time>
      </trkpt>
      <trkpt lat="43.86218" lon="7.25817">
        <ele>841.771484</ele>
        <time>2011-05-07T07:07:43Z</time>
      </trkpt>
      <trkpt lat="43.86209" lon="7.25802">
        <ele>839.848877</ele>
        <time>2011-05-07T07:07:46Z</time>
      </trkpt>
      <trkpt lat="43.86203" lon="7.25794">
        <ele>838.887695</ele>
        <time>2011-05-07T07:07:48Z</time>
      </trkpt>
      <trkpt lat="43.86197" lon="7.25786">
        <ele>838.887695</ele>
        <time>2011-05-07T07:07:50Z</time>
      </trkpt>
      <trkpt lat="43.86184" lon="7.25768">
        <ele>836.003662</ele>
        <time>2011-05-07T07:07:54Z</time>
      </trkpt>
      <trkpt lat="43.86174" lon="7.25755">
        <ele>834.561768</ele>
        <time>2011-05-07T07:07:56Z</time>
      </trkpt>
      <trkpt lat="43.86163" lon="7.25737">
        <ele>830.23584</ele>
        <time>2011-05-07T07:07:59Z</time>
      </trkpt>
      <trkpt lat="43.86147" lon="7.25715">
        <ele>824.948486</ele>
        <time>2011-05-07T07:08:04Z</time>
      </trkpt>
      <trkpt lat="43.86139" lon="7.25704">
        <ele>821.58374</ele>
        <time>2011-05-07T07:08:07Z</time>
      </trkpt>
      <trkpt lat="43.86135" lon="7.25702">
        <ele>820.141846</ele>
        <time>2011-05-07T07:08:08Z</time>
      </trkpt>
      <trkpt lat="43.86111" lon="7.25702">
        <ele>816.296631</ele>
        <time>2011-05-07T07:08:13Z</time>
      </trkpt>
      <trkpt lat="43.86098" lon="7.25689">
        <ele>812.451416</ele>
        <time>2011-05-07T07:08:16Z</time>
      </trkpt>
      <trkpt lat="43.86084" lon="7.25669">
        <ele>808.125488</ele>
        <time>2011-05-07T07:08:20Z</time>
      </trkpt>
      <trkpt lat="43.8608" lon="7.2566">
        <ele>807.164063</ele>
        <time>2011-05-07T07:08:22Z</time>
      </trkpt>
      <trkpt lat="43.86074" lon="7.25655">
        <ele>805.241455</ele>
        <time>2011-05-07T07:08:26Z</time>
      </trkpt>
      <trkpt lat="43.86054" lon="7.25644">
        <ele>803.318848</ele>
        <time>2011-05-07T07:08:31Z</time>
      </trkpt>
      <trkpt lat="43.86031" lon="7.25634">
        <ele>799.954346</ele>
        <time>2011-05-07T07:08:35Z</time>
      </trkpt>
      <trkpt lat="43.86011" lon="7.25629">
        <ele>797.551025</ele>
        <time>2011-05-07T07:08:38Z</time>
      </trkpt>
      <trkpt lat="43.85992" lon="7.25617">
        <ele>793.705566</ele>
        <time>2011-05-07T07:08:42Z</time>
      </trkpt>
      <trkpt lat="43.85987" lon="7.25614">
        <ele>792.744385</ele>
        <time>2011-05-07T07:08:43Z</time>
      </trkpt>
      <trkpt lat="43.85973" lon="7.25607">
        <ele>789.860352</ele>
        <time>2011-05-07T07:08:46Z</time>
      </trkpt>
      <trkpt lat="43.85971" lon="7.25586">
        <ele>787.937744</ele>
        <time>2011-05-07T07:08:50Z</time>
      </trkpt>
      <trkpt lat="43.85957" lon="7.25573">
        <ele>784.573242</ele>
        <time>2011-05-07T07:08:54Z</time>
      </trkpt>
      <trkpt lat="43.85936" lon="7.25564">
        <ele>782.169922</ele>
        <time>2011-05-07T07:08:58Z</time>
      </trkpt>
      <trkpt lat="43.85932" lon="7.25535">
        <ele>780.247314</ele>
        <time>2011-05-07T07:09:02Z</time>
      </trkpt>
      <trkpt lat="43.85928" lon="7.25522">
        <ele>779.766357</ele>
        <time>2011-05-07T07:09:04Z</time>
      </trkpt>
      <trkpt lat="43.85916" lon="7.25509">
        <ele>779.766357</ele>
        <time>2011-05-07T07:09:07Z</time>
      </trkpt>
      <trkpt lat="43.85898" lon="7.25493">
        <ele>780.247314</ele>
        <time>2011-05-07T07:09:11Z</time>
      </trkpt>
      <trkpt lat="43.85878" lon="7.25459">
        <ele>777.84375</ele>
        <time>2011-05-07T07:09:16Z</time>
      </trkpt>
      <trkpt lat="43.85868" lon="7.25447">
        <ele>776.882568</ele>
        <time>2011-05-07T07:09:18Z</time>
      </trkpt>
      <trkpt lat="43.85846" lon="7.25426">
        <ele>776.882568</ele>
        <time>2011-05-07T07:09:23Z</time>
      </trkpt>
      <trkpt lat="43.85836" lon="7.25412">
        <ele>774.959961</ele>
        <time>2011-05-07T07:09:26Z</time>
      </trkpt>
      <trkpt lat="43.85818" lon="7.25394">
        <ele>776.882568</ele>
        <time>2011-05-07T07:09:31Z</time>
      </trkpt>
      <trkpt lat="43.85806" lon="7.25392">
        <ele>778.805176</ele>
        <time>2011-05-07T07:09:34Z</time>
      </trkpt>
      <trkpt lat="43.85797" lon="7.25392">
        <ele>779.766357</ele>
        <time>2011-05-07T07:09:36Z</time>
      </trkpt>
      <trkpt lat="43.85781" lon="7.254">
        <ele>782.650635</ele>
        <time>2011-05-07T07:09:41Z</time>
      </trkpt>
      <trkpt lat="43.85777" lon="7.25405">
        <ele>783.611816</ele>
        <time>2011-05-07T07:09:43Z</time>
      </trkpt>
      <trkpt lat="43.85765" lon="7.25416">
        <ele>783.131104</ele>
        <time>2011-05-07T07:09:49Z</time>
      </trkpt>
      <trkpt lat="43.85765" lon="7.25418">
        <ele>783.131104</ele>
        <time>2011-05-07T07:09:53Z</time>
      </trkpt>
      <trkpt lat="43.85765" lon="7.25419">
        <ele>777.363281</ele>
        <time>2011-05-07T07:10:07Z</time>
      </trkpt>
      <trkpt lat="43.85764" lon="7.25418">
        <ele>775.921143</ele>
        <time>2011-05-07T07:10:13Z</time>
      </trkpt>
      <trkpt lat="43.85764" lon="7.25417">
        <ele>775.44043</ele>
        <time>2011-05-07T07:10:19Z</time>
      </trkpt>
      <trkpt lat="43.85763" lon="7.25417">
        <ele>775.44043</ele>
        <time>2011-05-07T07:10:25Z</time>
      </trkpt>
      <trkpt lat="43.85763" lon="7.25417">
        <ele>776.401855</ele>
        <time>2011-05-07T07:10:31Z</time>
      </trkpt>
      <trkpt lat="43.85762" lon="7.25417">
        <ele>776.882568</ele>
        <time>2011-05-07T07:10:37Z</time>
      </trkpt>
      <trkpt lat="43.85763" lon="7.25417">
        <ele>779.285645</ele>
        <time>2011-05-07T07:10:47Z</time>
      </trkpt>
      <trkpt lat="43.85762" lon="7.25417">
        <ele>780.728027</ele>
        <time>2011-05-07T07:10:55Z</time>
      </trkpt>
      <trkpt lat="43.85762" lon="7.25418">
        <ele>781.689209</ele>
        <time>2011-05-07T07:11:10Z</time>
      </trkpt>
      <trkpt lat="43.8576" lon="7.2542">
        <ele>782.169922</ele>
        <time>2011-05-07T07:11:19Z</time>
      </trkpt>
      <trkpt lat="43.85758" lon="7.25422">
        <ele>781.689209</ele>
        <time>2011-05-07T07:11:21Z</time>
      </trkpt>
      <trkpt lat="43.85743" lon="7.25424">
        <ele>780.247314</ele>
        <time>2011-05-07T07:11:26Z</time>
      </trkpt>
      <trkpt lat="43.85727" lon="7.25412">
        <ele>779.766357</ele>
        <time>2011-05-07T07:11:30Z</time>
      </trkpt>
      <trkpt lat="43.85721" lon="7.25411">
        <ele>779.285645</ele>
        <time>2011-05-07T07:11:31Z</time>
      </trkpt>
      <trkpt lat="43.85691" lon="7.25399">
        <ele>776.882568</ele>
        <time>2011-05-07T07:11:36Z</time>
      </trkpt>
      <trkpt lat="43.85664" lon="7.25397">
        <ele>774.479248</ele>
        <time>2011-05-07T07:11:40Z</time>
      </trkpt>
      <trkpt lat="43.85651" lon="7.25401">
        <ele>772.075928</ele>
        <time>2011-05-07T07:11:44Z</time>
      </trkpt>
      <trkpt lat="43.85644" lon="7.25389">
        <ele>771.114746</ele>
        <time>2011-05-07T07:11:47Z</time>
      </trkpt>
      <trkpt lat="43.85638" lon="7.25388">
        <ele>770.634033</ele>
        <time>2011-05-07T07:11:48Z</time>
      </trkpt>
      <trkpt lat="43.85619" lon="7.25386">
        <ele>769.192139</ele>
        <time>2011-05-07T07:11:51Z</time>
      </trkpt>
      <trkpt lat="43.85596" lon="7.25379">
        <ele>767.75</ele>
        <time>2011-05-07T07:11:55Z</time>
      </trkpt>
      <trkpt lat="43.85571" lon="7.25375">
        <ele>767.269531</ele>
        <time>2011-05-07T07:11:59Z</time>
      </trkpt>
      <trkpt lat="43.85561" lon="7.25372">
        <ele>766.788818</ele>
        <time>2011-05-07T07:12:01Z</time>
      </trkpt>
      <trkpt lat="43.85538" lon="7.2536">
        <ele>766.788818</ele>
        <time>2011-05-07T07:12:06Z</time>
      </trkpt>
      <trkpt lat="43.85519" lon="7.2536">
        <ele>767.269531</ele>
        <time>2011-05-07T07:12:10Z</time>
      </trkpt>
      <trkpt lat="43.85515" lon="7.25357">
        <ele>766.788818</ele>
        <time>2011-05-07T07:12:11Z</time>
      </trkpt>
      <trkpt lat="43.85508" lon="7.25351">
        <ele>766.308105</ele>
        <time>2011-05-07T07:12:13Z</time>
      </trkpt>
      <trkpt lat="43.85487" lon="7.25341">
        <ele>765.346924</ele>
        <time>2011-05-07T07:12:17Z</time>
      </trkpt>
      <trkpt lat="43.8547" lon="7.25345">
        <ele>765.827637</ele>
        <time>2011-05-07T07:12:21Z</time>
      </trkpt>
      <trkpt lat="43.85466" lon="7.25348">
        <ele>765.346924</ele>
        <time>2011-05-07T07:12:22Z</time>
      </trkpt>
      <trkpt lat="43.85458" lon="7.25335">
        <ele>763.424072</ele>
        <time>2011-05-07T07:12:26Z</time>
      </trkpt>
      <trkpt lat="43.85449" lon="7.25332">
        <ele>765.827637</ele>
        <time>2011-05-07T07:12:28Z</time>
      </trkpt>
      <trkpt lat="43.85437" lon="7.25332">
        <ele>767.269531</ele>
        <time>2011-05-07T07:12:31Z</time>
      </trkpt>
      <trkpt lat="43.85417" lon="7.2533">
        <ele>765.827637</ele>
        <time>2011-05-07T07:12:36Z</time>
      </trkpt>
      <trkpt lat="43.85408" lon="7.25325">
        <ele>764.385498</ele>
        <time>2011-05-07T07:12:38Z</time>
      </trkpt>
      <trkpt lat="43.85367" lon="7.25311">
        <ele>761.020752</ele>
        <time>2011-05-07T07:12:44Z</time>
      </trkpt>
      <trkpt lat="43.85335" lon="7.25306">
        <ele>758.136963</ele>
        <time>2011-05-07T07:12:48Z</time>
      </trkpt>
      <trkpt lat="43.85291" lon="7.25316">
        <ele>753.330322</ele>
        <time>2011-05-07T07:12:53Z</time>
      </trkpt>
      <trkpt lat="43.85252" lon="7.25327">
        <ele>747.562256</ele>
        <time>2011-05-07T07:12:57Z</time>
      </trkpt>
      <trkpt lat="43.85232" lon="7.25331">
        <ele>745.158936</ele>
        <time>2011-05-07T07:12:59Z</time>
      </trkpt>
      <trkpt lat="43.85215" lon="7.25338">
        <ele>742.755859</ele>
        <time>2011-05-07T07:13:01Z</time>
      </trkpt>
      <trkpt lat="43.85191" lon="7.25338">
        <ele>738.910645</ele>
        <time>2011-05-07T07:13:05Z</time>
      </trkpt>
      <trkpt lat="43.85184" lon="7.25325">
        <ele>735.545898</ele>
        <time>2011-05-07T07:13:08Z</time>
      </trkpt>
      <trkpt lat="43.85181" lon="7.25317">
        <ele>733.623291</ele>
        <time>2011-05-07T07:13:10Z</time>
      </trkpt>
      <trkpt lat="43.85176" lon="7.25309">
        <ele>732.662109</ele>
        <time>2011-05-07T07:13:12Z</time>
      </trkpt>
      <trkpt lat="43.85155" lon="7.25293">
        <ele>730.258545</ele>
        <time>2011-05-07T07:13:17Z</time>
      </trkpt>
      <trkpt lat="43.85136" lon="7.25269">
        <ele>726.41333</ele>
        <time>2011-05-07T07:13:22Z</time>
      </trkpt>
      <trkpt lat="43.85132" lon="7.25264">
        <ele>726.41333</ele>
        <time>2011-05-07T07:13:23Z</time>
      </trkpt>
      <trkpt lat="43.85112" lon="7.25247">
        <ele>721.606689</ele>
        <time>2011-05-07T07:13:29Z</time>
      </trkpt>
      <trkpt lat="43.85109" lon="7.25245">
        <ele>721.606689</ele>
        <time>2011-05-07T07:13:30Z</time>
      </trkpt>
      <trkpt lat="43.85101" lon="7.25242">
        <ele>720.164795</ele>
        <time>2011-05-07T07:13:32Z</time>
      </trkpt>
      <trkpt lat="43.85083" lon="7.25232">
        <ele>717.281006</ele>
        <time>2011-05-07T07:13:37Z</time>
      </trkpt>
      <trkpt lat="43.85071" lon="7.25227">
        <ele>714.396729</ele>
        <time>2011-05-07T07:13:40Z</time>
      </trkpt>
      <trkpt lat="43.85064" lon="7.25221">
        <ele>711.512939</ele>
        <time>2011-05-07T07:13:42Z</time>
      </trkpt>
      <trkpt lat="43.85055" lon="7.25212">
        <ele>708.628906</ele>
        <time>2011-05-07T07:13:45Z</time>
      </trkpt>
      <trkpt lat="43.8504" lon="7.25212">
        <ele>704.303223</ele>
        <time>2011-05-07T07:13:49Z</time>
      </trkpt>
      <trkpt lat="43.85028" lon="7.25211">
        <ele>700.938477</ele>
        <time>2011-05-07T07:13:52Z</time>
      </trkpt>
      <trkpt lat="43.8502" lon="7.25206">
        <ele>699.496338</ele>
        <time>2011-05-07T07:13:54Z</time>
      </trkpt>
      <trkpt lat="43.84988" lon="7.25192">
        <ele>699.015625</ele>
        <time>2011-05-07T07:14:00Z</time>
      </trkpt>
      <trkpt lat="43.84961" lon="7.25188">
        <ele>699.977051</ele>
        <time>2011-05-07T07:14:05Z</time>
      </trkpt>
      <trkpt lat="43.84954" lon="7.25185">
        <ele>699.496338</ele>
        <time>2011-05-07T07:14:07Z</time>
      </trkpt>
      <trkpt lat="43.84948" lon="7.25181">
        <ele>699.015625</ele>
        <time>2011-05-07T07:14:09Z</time>
      </trkpt>
      <trkpt lat="43.84921" lon="7.25177">
        <ele>698.534912</ele>
        <time>2011-05-07T07:14:15Z</time>
      </trkpt>
      <trkpt lat="43.84912" lon="7.25174">
        <ele>698.054443</ele>
        <time>2011-05-07T07:14:17Z</time>
      </trkpt>
      <trkpt lat="43.84903" lon="7.2517">
        <ele>699.496338</ele>
        <time>2011-05-07T07:14:20Z</time>
      </trkpt>
      <trkpt lat="43.84894" lon="7.25154">
        <ele>698.534912</ele>
        <time>2011-05-07T07:14:24Z</time>
      </trkpt>
      <trkpt lat="43.84891" lon="7.25153">
        <ele>699.015625</ele>
        <time>2011-05-07T07:14:27Z</time>
      </trkpt>
      <trkpt lat="43.84891" lon="7.25153">
        <ele>698.534912</ele>
        <time>2011-05-07T07:14:28Z</time>
      </trkpt>
      <trkpt lat="43.84882" lon="7.25139">
        <ele>695.17041</ele>
        <time>2011-05-07T07:14:32Z</time>
      </trkpt>
      <trkpt lat="43.84879" lon="7.25119">
        <ele>689.402588</ele>
        <time>2011-05-07T07:14:36Z</time>
      </trkpt>
      <trkpt lat="43.84871" lon="7.2511">
        <ele>686.518799</ele>
        <time>2011-05-07T07:14:39Z</time>
      </trkpt>
      <trkpt lat="43.84868" lon="7.251">
        <ele>682.67334</ele>
        <time>2011-05-07T07:14:42Z</time>
      </trkpt>
      <trkpt lat="43.84858" lon="7.25083">
        <ele>677.38623</ele>
        <time>2011-05-07T07:14:47Z</time>
      </trkpt>
      <trkpt lat="43.84843" lon="7.2508">
        <ele>675.463379</ele>
        <time>2011-05-07T07:14:50Z</time>
      </trkpt>
      <trkpt lat="43.84832" lon="7.25082">
        <ele>674.98291</ele>
        <time>2011-05-07T07:14:52Z</time>
      </trkpt>
      <trkpt lat="43.84813" lon="7.25074">
        <ele>671.618164</ele>
        <time>2011-05-07T07:14:56Z</time>
      </trkpt>
      <trkpt lat="43.84802" lon="7.25068">
        <ele>669.215088</ele>
        <time>2011-05-07T07:14:58Z</time>
      </trkpt>
      <trkpt lat="43.84787" lon="7.25054">
        <ele>664.888916</ele>
        <time>2011-05-07T07:15:02Z</time>
      </trkpt>
      <trkpt lat="43.84773" lon="7.25039">
        <ele>663.447021</ele>
        <time>2011-05-07T07:15:05Z</time>
      </trkpt>
      <trkpt lat="43.84756" lon="7.25023">
        <ele>662.485596</ele>
        <time>2011-05-07T07:15:09Z</time>
      </trkpt>
      <trkpt lat="43.84735" lon="7.25006">
        <ele>661.043701</ele>
        <time>2011-05-07T07:15:14Z</time>
      </trkpt>
      <trkpt lat="43.8473" lon="7.25005">
        <ele>661.043701</ele>
        <time>2011-05-07T07:15:15Z</time>
      </trkpt>
      <trkpt lat="43.84696" lon="7.24986">
        <ele>656.237061</ele>
        <time>2011-05-07T07:15:21Z</time>
      </trkpt>
      <trkpt lat="43.84657" lon="7.24976">
        <ele>651.43042</ele>
        <time>2011-05-07T07:15:26Z</time>
      </trkpt>
      <trkpt lat="43.84642" lon="7.24971">
        <ele>649.0271</ele>
        <time>2011-05-07T07:15:28Z</time>
      </trkpt>
      <trkpt lat="43.84631" lon="7.24969">
        <ele>647.585205</ele>
        <time>2011-05-07T07:15:31Z</time>
      </trkpt>
      <trkpt lat="43.84633" lon="7.24968">
        <ele>649.988525</ele>
        <time>2011-05-07T07:15:44Z</time>
      </trkpt>
      <trkpt lat="43.84636" lon="7.24971">
        <ele>650.469238</ele>
        <time>2011-05-07T07:15:50Z</time>
      </trkpt>
      <trkpt lat="43.84637" lon="7.24974">
        <ele>650.949707</ele>
        <time>2011-05-07T07:15:53Z</time>
      </trkpt>
      <trkpt lat="43.84642" lon="7.24987">
        <ele>649.507813</ele>
        <time>2011-05-07T07:15:59Z</time>
      </trkpt>
      <trkpt lat="43.84654" lon="7.24997">
        <ele>648.546387</ele>
        <time>2011-05-07T07:16:04Z</time>
      </trkpt>
      <trkpt lat="43.84667" lon="7.25004">
        <ele>649.507813</ele>
        <time>2011-05-07T07:16:10Z</time>
      </trkpt>
      <trkpt lat="43.8468" lon="7.25006">
        <ele>650.949707</ele>
        <time>2011-05-07T07:16:16Z</time>
      </trkpt>
      <trkpt lat="43.84686" lon="7.25009">
        <ele>650.949707</ele>
        <time>2011-05-07T07:16:19Z</time>
      </trkpt>
      <trkpt lat="43.84689" lon="7.25014">
        <ele>650.469238</ele>
        <time>2011-05-07T07:16:21Z</time>
      </trkpt>
      <trkpt lat="43.847" lon="7.25034">
        <ele>649.0271</ele>
        <time>2011-05-07T07:16:26Z</time>
      </trkpt>
      <trkpt lat="43.84712" lon="7.2505">
        <ele>651.43042</ele>
        <time>2011-05-07T07:16:33Z</time>
      </trkpt>
      <trkpt lat="43.84725" lon="7.25057">
        <ele>652.391846</ele>
        <time>2011-05-07T07:16:40Z</time>
      </trkpt>
      <trkpt lat="43.84734" lon="7.25065">
        <ele>652.391846</ele>
        <time>2011-05-07T07:16:46Z</time>
      </trkpt>
      <trkpt lat="43.84743" lon="7.25074">
        <ele>652.391846</ele>
        <time>2011-05-07T07:16:51Z</time>
      </trkpt>
      <trkpt lat="43.84744" lon="7.25075">
        <ele>652.391846</ele>
        <time>2011-05-07T07:16:52Z</time>
      </trkpt>
      <trkpt lat="43.84745" lon="7.25086">
        <ele>652.872559</ele>
        <time>2011-05-07T07:16:57Z</time>
      </trkpt>
      <trkpt lat="43.84743" lon="7.25095">
        <ele>654.795166</ele>
        <time>2011-05-07T07:17:02Z</time>
      </trkpt>
      <trkpt lat="43.84742" lon="7.25096">
        <ele>655.756592</ele>
        <time>2011-05-07T07:17:03Z</time>
      </trkpt>
      <trkpt lat="43.84731" lon="7.25105">
        <ele>657.679199</ele>
        <time>2011-05-07T07:17:10Z</time>
      </trkpt>
      <trkpt lat="43.84719" lon="7.25116">
        <ele>661.043701</ele>
        <time>2011-05-07T07:17:17Z</time>
      </trkpt>
      <trkpt lat="43.8471" lon="7.25125">
        <ele>662.485596</ele>
        <time>2011-05-07T07:17:22Z</time>
      </trkpt>
      <trkpt lat="43.84707" lon="7.25128">
        <ele>662.485596</ele>
        <time>2011-05-07T07:17:23Z</time>
      </trkpt>
      <trkpt lat="43.84691" lon="7.25128">
        <ele>661.043701</ele>
        <time>2011-05-07T07:17:29Z</time>
      </trkpt>
      <trkpt lat="43.84688" lon="7.25128">
        <ele>660.562988</ele>
        <time>2011-05-07T07:17:30Z</time>
      </trkpt>
      <trkpt lat="43.84672" lon="7.25131">
        <ele>662.485596</ele>
        <time>2011-05-07T07:17:37Z</time>
      </trkpt>
      <trkpt lat="43.84657" lon="7.25135">
        <ele>663.92749</ele>
        <time>2011-05-07T07:17:43Z</time>
      </trkpt>
      <trkpt lat="43.8465" lon="7.25138">
        <ele>665.369629</ele>
        <time>2011-05-07T07:17:46Z</time>
      </trkpt>
      <trkpt lat="43.84631" lon="7.25141">
        <ele>666.330811</ele>
        <time>2011-05-07T07:17:53Z</time>
      </trkpt>
      <trkpt lat="43.8462" lon="7.25146">
        <ele>666.330811</ele>
        <time>2011-05-07T07:17:58Z</time>
      </trkpt>
      <trkpt lat="43.84612" lon="7.2515">
        <ele>666.330811</ele>
        <time>2011-05-07T07:18:03Z</time>
      </trkpt>
      <trkpt lat="43.84599" lon="7.25156">
        <ele>665.850342</ele>
        <time>2011-05-07T07:18:08Z</time>
      </trkpt>
      <trkpt lat="43.84593" lon="7.25159">
        <ele>666.330811</ele>
        <time>2011-05-07T07:18:10Z</time>
      </trkpt>
      <trkpt lat="43.84588" lon="7.25176">
        <ele>665.369629</ele>
        <time>2011-05-07T07:18:15Z</time>
      </trkpt>
      <trkpt lat="43.84586" lon="7.2518">
        <ele>665.850342</ele>
        <time>2011-05-07T07:18:16Z</time>
      </trkpt>
      <trkpt lat="43.84574" lon="7.25197">
        <ele>666.811523</ele>
        <time>2011-05-07T07:18:22Z</time>
      </trkpt>
      <trkpt lat="43.84559" lon="7.25208">
        <ele>666.330811</ele>
        <time>2011-05-07T07:18:27Z</time>
      </trkpt>
      <trkpt lat="43.84545" lon="7.25216">
        <ele>664.888916</ele>
        <time>2011-05-07T07:18:32Z</time>
      </trkpt>
      <trkpt lat="43.8453" lon="7.25224">
        <ele>664.408203</ele>
        <time>2011-05-07T07:18:37Z</time>
      </trkpt>
      <trkpt lat="43.84513" lon="7.25229">
        <ele>664.408203</ele>
        <time>2011-05-07T07:18:43Z</time>
      </trkpt>
      <trkpt lat="43.84509" lon="7.25233">
        <ele>665.369629</ele>
        <time>2011-05-07T07:18:45Z</time>
      </trkpt>
      <trkpt lat="43.84511" lon="7.25239">
        <ele>667.292236</ele>
        <time>2011-05-07T07:18:50Z</time>
      </trkpt>
      <trkpt lat="43.84515" lon="7.2524">
        <ele>668.253662</ele>
        <time>2011-05-07T07:18:52Z</time>
      </trkpt>
      <trkpt lat="43.84533" lon="7.25244">
        <ele>671.137695</ele>
        <time>2011-05-07T07:19:02Z</time>
      </trkpt>
      <trkpt lat="43.84545" lon="7.25251">
        <ele>674.021484</ele>
        <time>2011-05-07T07:19:10Z</time>
      </trkpt>
      <trkpt lat="43.84555" lon="7.25256">
        <ele>675.463379</ele>
        <time>2011-05-07T07:19:17Z</time>
      </trkpt>
      <trkpt lat="43.84566" lon="7.25258">
        <ele>678.347412</ele>
        <time>2011-05-07T07:19:25Z</time>
      </trkpt>
      <trkpt lat="43.84578" lon="7.25257">
        <ele>678.347412</ele>
        <time>2011-05-07T07:19:33Z</time>
      </trkpt>
      <trkpt lat="43.84587" lon="7.25258">
        <ele>681.231445</ele>
        <time>2011-05-07T07:19:40Z</time>
      </trkpt>
      <trkpt lat="43.84599" lon="7.25258">
        <ele>683.634521</ele>
        <time>2011-05-07T07:19:48Z</time>
      </trkpt>
      <trkpt lat="43.84611" lon="7.25259">
        <ele>686.038086</ele>
        <time>2011-05-07T07:19:57Z</time>
      </trkpt>
      <trkpt lat="43.84621" lon="7.2526">
        <ele>688.922119</ele>
        <time>2011-05-07T07:20:05Z</time>
      </trkpt>
      <trkpt lat="43.84631" lon="7.2526">
        <ele>691.325195</ele>
        <time>2011-05-07T07:20:11Z</time>
      </trkpt>
      <trkpt lat="43.84644" lon="7.25261">
        <ele>695.651123</ele>
        <time>2011-05-07T07:20:18Z</time>
      </trkpt>
      <trkpt lat="43.84657" lon="7.25261">
        <ele>697.57373</ele>
        <time>2011-05-07T07:20:26Z</time>
      </trkpt>
      <trkpt lat="43.84673" lon="7.25265">
        <ele>699.015625</ele>
        <time>2011-05-07T07:20:34Z</time>
      </trkpt>
      <trkpt lat="43.84687" lon="7.25268">
        <ele>701.419189</ele>
        <time>2011-05-07T07:20:41Z</time>
      </trkpt>
      <trkpt lat="43.847" lon="7.25275">
        <ele>700.458008</ele>
        <time>2011-05-07T07:20:48Z</time>
      </trkpt>
      <trkpt lat="43.84719" lon="7.25286">
        <ele>699.977051</ele>
        <time>2011-05-07T07:20:56Z</time>
      </trkpt>
      <trkpt lat="43.84744" lon="7.25303">
        <ele>699.015625</ele>
        <time>2011-05-07T07:21:04Z</time>
      </trkpt>
      <trkpt lat="43.84762" lon="7.25314">
        <ele>697.57373</ele>
        <time>2011-05-07T07:21:10Z</time>
      </trkpt>
      <trkpt lat="43.84781" lon="7.25328">
        <ele>696.131836</ele>
        <time>2011-05-07T07:21:16Z</time>
      </trkpt>
      <trkpt lat="43.84809" lon="7.25352">
        <ele>693.247803</ele>
        <time>2011-05-07T07:21:22Z</time>
      </trkpt>
      <trkpt lat="43.84846" lon="7.25385">
        <ele>690.844482</ele>
        <time>2011-05-07T07:21:29Z</time>
      </trkpt>
      <trkpt lat="43.84875" lon="7.25412">
        <ele>688.441406</ele>
        <time>2011-05-07T07:21:34Z</time>
      </trkpt>
      <trkpt lat="43.84906" lon="7.25436">
        <ele>686.518799</ele>
        <time>2011-05-07T07:21:39Z</time>
      </trkpt>
      <trkpt lat="43.84935" lon="7.25446">
        <ele>684.115479</ele>
        <time>2011-05-07T07:21:43Z</time>
      </trkpt>
      <trkpt lat="43.84949" lon="7.25454">
        <ele>682.192627</ele>
        <time>2011-05-07T07:21:45Z</time>
      </trkpt>
      <trkpt lat="43.84979" lon="7.2547">
        <ele>678.347412</ele>
        <time>2011-05-07T07:21:49Z</time>
      </trkpt>
      <trkpt lat="43.84993" lon="7.25483">
        <ele>675.944092</ele>
        <time>2011-05-07T07:21:51Z</time>
      </trkpt>
      <trkpt lat="43.85009" lon="7.25495">
        <ele>673.541016</ele>
        <time>2011-05-07T07:21:53Z</time>
      </trkpt>
      <trkpt lat="43.85038" lon="7.25527">
        <ele>669.215088</ele>
        <time>2011-05-07T07:21:57Z</time>
      </trkpt>
      <trkpt lat="43.85066" lon="7.25556">
        <ele>666.811523</ele>
        <time>2011-05-07T07:22:02Z</time>
      </trkpt>
      <trkpt lat="43.85073" lon="7.25565">
        <ele>666.811523</ele>
        <time>2011-05-07T07:22:04Z</time>
      </trkpt>
      <trkpt lat="43.85071" lon="7.25573">
        <ele>667.772705</ele>
        <time>2011-05-07T07:22:08Z</time>
      </trkpt>
      <trkpt lat="43.85063" lon="7.25582">
        <ele>667.772705</ele>
        <time>2011-05-07T07:22:13Z</time>
      </trkpt>
      <trkpt lat="43.85061" lon="7.25584">
        <ele>668.253662</ele>
        <time>2011-05-07T07:22:14Z</time>
      </trkpt>
      <trkpt lat="43.85046" lon="7.25616">
        <ele>671.137695</ele>
        <time>2011-05-07T07:22:22Z</time>
      </trkpt>
      <trkpt lat="43.85049" lon="7.25642">
        <ele>670.656982</ele>
        <time>2011-05-07T07:22:27Z</time>
      </trkpt>
      <trkpt lat="43.85051" lon="7.25668">
        <ele>669.215088</ele>
        <time>2011-05-07T07:22:31Z</time>
      </trkpt>
      <trkpt lat="43.85052" lon="7.25703">
        <ele>665.850342</ele>
        <time>2011-05-07T07:22:35Z</time>
      </trkpt>
      <trkpt lat="43.85058" lon="7.25731">
        <ele>664.408203</ele>
        <time>2011-05-07T07:22:38Z</time>
      </trkpt>
      <trkpt lat="43.85063" lon="7.25746">
        <ele>662.966309</ele>
        <time>2011-05-07T07:22:40Z</time>
      </trkpt>
      <trkpt lat="43.85063" lon="7.25768">
        <ele>663.92749</ele>
        <time>2011-05-07T07:22:44Z</time>
      </trkpt>
      <trkpt lat="43.85062" lon="7.25778">
        <ele>663.92749</ele>
        <time>2011-05-07T07:22:46Z</time>
      </trkpt>
      <trkpt lat="43.85069" lon="7.25809">
        <ele>662.485596</ele>
        <time>2011-05-07T07:22:51Z</time>
      </trkpt>
      <trkpt lat="43.85072" lon="7.25813">
        <ele>662.005127</ele>
        <time>2011-05-07T07:22:52Z</time>
      </trkpt>
      <trkpt lat="43.85083" lon="7.25842">
        <ele>659.121094</ele>
        <time>2011-05-07T07:22:59Z</time>
      </trkpt>
      <trkpt lat="43.85081" lon="7.25849">
        <ele>658.640381</ele>
        <time>2011-05-07T07:23:02Z</time>
      </trkpt>
      <trkpt lat="43.85075" lon="7.25852">
        <ele>658.640381</ele>
        <time>2011-05-07T07:23:06Z</time>
      </trkpt>
      <trkpt lat="43.85061" lon="7.25857">
        <ele>659.121094</ele>
        <time>2011-05-07T07:23:15Z</time>
      </trkpt>
      <trkpt lat="43.85058" lon="7.2586">
        <ele>660.082275</ele>
        <time>2011-05-07T07:23:17Z</time>
      </trkpt>
      <trkpt lat="43.85051" lon="7.25864">
        <ele>661.043701</ele>
        <time>2011-05-07T07:23:21Z</time>
      </trkpt>
      <trkpt lat="43.85042" lon="7.25861">
        <ele>661.043701</ele>
        <time>2011-05-07T07:23:27Z</time>
      </trkpt>
      <trkpt lat="43.85033" lon="7.25857">
        <ele>662.005127</ele>
        <time>2011-05-07T07:23:32Z</time>
      </trkpt>
      <trkpt lat="43.85025" lon="7.25846">
        <ele>665.369629</ele>
        <time>2011-05-07T07:23:38Z</time>
      </trkpt>
      <trkpt lat="43.85018" lon="7.25842">
        <ele>667.772705</ele>
        <time>2011-05-07T07:23:43Z</time>
      </trkpt>
      <trkpt lat="43.85015" lon="7.25841">
        <ele>668.734375</ele>
        <time>2011-05-07T07:23:45Z</time>
      </trkpt>
      <trkpt lat="43.85009" lon="7.2585">
        <ele>672.098877</ele>
        <time>2011-05-07T07:23:51Z</time>
      </trkpt>
      <trkpt lat="43.85005" lon="7.25856">
        <ele>674.98291</ele>
        <time>2011-05-07T07:23:56Z</time>
      </trkpt>
      <trkpt lat="43.85003" lon="7.25858">
        <ele>675.944092</ele>
        <time>2011-05-07T07:23:58Z</time>
      </trkpt>
      <trkpt lat="43.84995" lon="7.25867">
        <ele>679.789307</ele>
        <time>2011-05-07T07:24:05Z</time>
      </trkpt>
      <trkpt lat="43.84994" lon="7.25877">
        <ele>682.192627</ele>
        <time>2011-05-07T07:24:11Z</time>
      </trkpt>
      <trkpt lat="43.84989" lon="7.25875">
        <ele>683.153809</ele>
        <time>2011-05-07T07:24:16Z</time>
      </trkpt>
      <trkpt lat="43.84985" lon="7.25876">
        <ele>684.115479</ele>
        <time>2011-05-07T07:24:21Z</time>
      </trkpt>
      <trkpt lat="43.84985" lon="7.25878">
        <ele>684.596191</ele>
        <time>2011-05-07T07:24:22Z</time>
      </trkpt>
      <trkpt lat="43.84987" lon="7.2589">
        <ele>686.999268</ele>
        <time>2011-05-07T07:24:30Z</time>
      </trkpt>
      <trkpt lat="43.84983" lon="7.25892">
        <ele>687.960693</ele>
        <time>2011-05-07T07:24:35Z</time>
      </trkpt>
      <trkpt lat="43.84978" lon="7.25885">
        <ele>689.883301</ele>
        <time>2011-05-07T07:24:43Z</time>
      </trkpt>
      <trkpt lat="43.84974" lon="7.25881">
        <ele>693.728516</ele>
        <time>2011-05-07T07:24:49Z</time>
      </trkpt>
      <trkpt lat="43.84969" lon="7.25877">
        <ele>693.728516</ele>
        <time>2011-05-07T07:24:57Z</time>
      </trkpt>
      <trkpt lat="43.84964" lon="7.2587">
        <ele>691.325195</ele>
        <time>2011-05-07T07:25:04Z</time>
      </trkpt>
      <trkpt lat="43.84959" lon="7.25867">
        <ele>692.767334</ele>
        <time>2011-05-07T07:25:11Z</time>
      </trkpt>
      <trkpt lat="43.84958" lon="7.25874">
        <ele>694.209229</ele>
        <time>2011-05-07T07:25:16Z</time>
      </trkpt>
      <trkpt lat="43.84954" lon="7.25879">
        <ele>695.651123</ele>
        <time>2011-05-07T07:25:23Z</time>
      </trkpt>
      <trkpt lat="43.84949" lon="7.25874">
        <ele>696.612549</ele>
        <time>2011-05-07T07:25:29Z</time>
      </trkpt>
      <trkpt lat="43.84946" lon="7.25878">
        <ele>698.534912</ele>
        <time>2011-05-07T07:25:33Z</time>
      </trkpt>
      <trkpt lat="43.84946" lon="7.25884">
        <ele>699.977051</ele>
        <time>2011-05-07T07:25:37Z</time>
      </trkpt>
      <trkpt lat="43.84939" lon="7.25889">
        <ele>704.303223</ele>
        <time>2011-05-07T07:25:46Z</time>
      </trkpt>
      <trkpt lat="43.84932" lon="7.25886">
        <ele>710.551514</ele>
        <time>2011-05-07T07:25:54Z</time>
      </trkpt>
      <trkpt lat="43.84927" lon="7.25885">
        <ele>712.954834</ele>
        <time>2011-05-07T07:26:01Z</time>
      </trkpt>
      <trkpt lat="43.84921" lon="7.25887">
        <ele>713.435547</ele>
        <time>2011-05-07T07:26:09Z</time>
      </trkpt>
      <trkpt lat="43.84914" lon="7.25889">
        <ele>713.916016</ele>
        <time>2011-05-07T07:26:15Z</time>
      </trkpt>
      <trkpt lat="43.84909" lon="7.2589">
        <ele>712.954834</ele>
        <time>2011-05-07T07:26:20Z</time>
      </trkpt>
      <trkpt lat="43.84904" lon="7.25894">
        <ele>714.396729</ele>
        <time>2011-05-07T07:26:25Z</time>
      </trkpt>
      <trkpt lat="43.84899" lon="7.25899">
        <ele>715.358154</ele>
        <time>2011-05-07T07:26:30Z</time>
      </trkpt>
      <trkpt lat="43.8489" lon="7.25912">
        <ele>715.838867</ele>
        <time>2011-05-07T07:26:37Z</time>
      </trkpt>
      <trkpt lat="43.8488" lon="7.25927">
        <ele>716.800293</ele>
        <time>2011-05-07T07:26:45Z</time>
      </trkpt>
      <trkpt lat="43.84872" lon="7.25944">
        <ele>718.7229</ele>
        <time>2011-05-07T07:26:53Z</time>
      </trkpt>
      <trkpt lat="43.84869" lon="7.25956">
        <ele>719.203613</ele>
        <time>2011-05-07T07:26:58Z</time>
      </trkpt>
      <trkpt lat="43.84864" lon="7.25974">
        <ele>719.684326</ele>
        <time>2011-05-07T07:27:06Z</time>
      </trkpt>
      <trkpt lat="43.84858" lon="7.2599">
        <ele>720.164795</ele>
        <time>2011-05-07T07:27:13Z</time>
      </trkpt>
      <trkpt lat="43.84848" lon="7.26005">
        <ele>721.126221</ele>
        <time>2011-05-07T07:27:20Z</time>
      </trkpt>
      <trkpt lat="43.84842" lon="7.26016">
        <ele>723.048828</ele>
        <time>2011-05-07T07:27:27Z</time>
      </trkpt>
      <trkpt lat="43.84838" lon="7.26022">
        <ele>724.01001</ele>
        <time>2011-05-07T07:27:31Z</time>
      </trkpt>
      <trkpt lat="43.8483" lon="7.26023">
        <ele>724.971436</ele>
        <time>2011-05-07T07:27:37Z</time>
      </trkpt>
      <trkpt lat="43.84823" lon="7.26021">
        <ele>725.932617</ele>
        <time>2011-05-07T07:27:42Z</time>
      </trkpt>
      <trkpt lat="43.84819" lon="7.26024">
        <ele>726.894043</ele>
        <time>2011-05-07T07:27:45Z</time>
      </trkpt>
      <trkpt lat="43.84815" lon="7.26022">
        <ele>727.855225</ele>
        <time>2011-05-07T07:27:48Z</time>
      </trkpt>
      <trkpt lat="43.84807" lon="7.26023">
        <ele>727.855225</ele>
        <time>2011-05-07T07:27:54Z</time>
      </trkpt>
      <trkpt lat="43.84802" lon="7.26024">
        <ele>727.855225</ele>
        <time>2011-05-07T07:27:57Z</time>
      </trkpt>
      <trkpt lat="43.84797" lon="7.26028">
        <ele>727.374756</ele>
        <time>2011-05-07T07:28:04Z</time>
      </trkpt>
      <trkpt lat="43.84792" lon="7.26033">
        <ele>728.335938</ele>
        <time>2011-05-07T07:28:10Z</time>
      </trkpt>
      <trkpt lat="43.84782" lon="7.26041">
        <ele>728.81665</ele>
        <time>2011-05-07T07:28:16Z</time>
      </trkpt>
      <trkpt lat="43.84771" lon="7.2605">
        <ele>727.855225</ele>
        <time>2011-05-07T07:28:23Z</time>
      </trkpt>
      <trkpt lat="43.84763" lon="7.26056">
        <ele>727.855225</ele>
        <time>2011-05-07T07:28:28Z</time>
      </trkpt>
      <trkpt lat="43.84758" lon="7.26061">
        <ele>729.777832</ele>
        <time>2011-05-07T07:28:32Z</time>
      </trkpt>
      <trkpt lat="43.84753" lon="7.26066">
        <ele>731.219971</ele>
        <time>2011-05-07T07:28:36Z</time>
      </trkpt>
      <trkpt lat="43.84739" lon="7.26069">
        <ele>733.142578</ele>
        <time>2011-05-07T07:28:43Z</time>
      </trkpt>
      <trkpt lat="43.84727" lon="7.26079">
        <ele>734.104004</ele>
        <time>2011-05-07T07:28:51Z</time>
      </trkpt>
      <trkpt lat="43.84716" lon="7.26086">
        <ele>736.026611</ele>
        <time>2011-05-07T07:28:58Z</time>
      </trkpt>
      <trkpt lat="43.84706" lon="7.26096">
        <ele>737.949219</ele>
        <time>2011-05-07T07:29:05Z</time>
      </trkpt>
      <trkpt lat="43.84695" lon="7.26101">
        <ele>740.352539</ele>
        <time>2011-05-07T07:29:12Z</time>
      </trkpt>
      <trkpt lat="43.84686" lon="7.26109">
        <ele>741.313721</ele>
        <time>2011-05-07T07:29:19Z</time>
      </trkpt>
      <trkpt lat="43.84677" lon="7.2612">
        <ele>745.639648</ele>
        <time>2011-05-07T07:29:27Z</time>
      </trkpt>
      <trkpt lat="43.84674" lon="7.26124">
        <ele>748.043213</ele>
        <time>2011-05-07T07:29:31Z</time>
      </trkpt>
      <trkpt lat="43.84669" lon="7.26129">
        <ele>753.811035</ele>
        <time>2011-05-07T07:29:39Z</time>
      </trkpt>
      <trkpt lat="43.84665" lon="7.26133">
        <ele>756.694824</ele>
        <time>2011-05-07T07:29:45Z</time>
      </trkpt>
      <trkpt lat="43.84658" lon="7.26135">
        <ele>758.617432</ele>
        <time>2011-05-07T07:29:53Z</time>
      </trkpt>
      <trkpt lat="43.84653" lon="7.26144">
        <ele>761.501465</ele>
        <time>2011-05-07T07:30:00Z</time>
      </trkpt>
      <trkpt lat="43.84646" lon="7.26146">
        <ele>761.501465</ele>
        <time>2011-05-07T07:30:07Z</time>
      </trkpt>
      <trkpt lat="43.8464" lon="7.26147">
        <ele>762.462646</ele>
        <time>2011-05-07T07:30:15Z</time>
      </trkpt>
      <trkpt lat="43.84635" lon="7.26148">
        <ele>760.540039</ele>
        <time>2011-05-07T07:30:22Z</time>
      </trkpt>
      <trkpt lat="43.84626" lon="7.26149">
        <ele>759.098145</ele>
        <time>2011-05-07T07:30:29Z</time>
      </trkpt>
      <trkpt lat="43.84616" lon="7.26151">
        <ele>758.136963</ele>
        <time>2011-05-07T07:30:36Z</time>
      </trkpt>
      <trkpt lat="43.84612" lon="7.26153">
        <ele>759.098145</ele>
        <time>2011-05-07T07:30:39Z</time>
      </trkpt>
      <trkpt lat="43.84606" lon="7.26153">
        <ele>758.617432</ele>
        <time>2011-05-07T07:30:43Z</time>
      </trkpt>
      <trkpt lat="43.84603" lon="7.26162">
        <ele>758.617432</ele>
        <time>2011-05-07T07:30:48Z</time>
      </trkpt>
      <trkpt lat="43.84599" lon="7.2617">
        <ele>758.617432</ele>
        <time>2011-05-07T07:30:52Z</time>
      </trkpt>
      <trkpt lat="43.84594" lon="7.26174">
        <ele>758.617432</ele>
        <time>2011-05-07T07:30:55Z</time>
      </trkpt>
      <trkpt lat="43.84591" lon="7.26189">
        <ele>759.578857</ele>
        <time>2011-05-07T07:31:01Z</time>
      </trkpt>
      <trkpt lat="43.8459" lon="7.26192">
        <ele>760.540039</ele>
        <time>2011-05-07T07:31:04Z</time>
      </trkpt>
      <trkpt lat="43.84585" lon="7.26208">
        <ele>761.501465</ele>
        <time>2011-05-07T07:31:12Z</time>
      </trkpt>
      <trkpt lat="43.84579" lon="7.26221">
        <ele>763.424072</ele>
        <time>2011-05-07T07:31:18Z</time>
      </trkpt>
      <trkpt lat="43.84573" lon="7.26233">
        <ele>764.385498</ele>
        <time>2011-05-07T07:31:24Z</time>
      </trkpt>
      <trkpt lat="43.84565" lon="7.2625">
        <ele>764.866211</ele>
        <time>2011-05-07T07:31:32Z</time>
      </trkpt>
      <trkpt lat="43.84559" lon="7.26264">
        <ele>768.711426</ele>
        <time>2011-05-07T07:31:39Z</time>
      </trkpt>
      <trkpt lat="43.84559" lon="7.26277">
        <ele>770.15332</ele>
        <time>2011-05-07T07:31:45Z</time>
      </trkpt>
      <trkpt lat="43.84558" lon="7.26282">
        <ele>770.15332</ele>
        <time>2011-05-07T07:31:47Z</time>
      </trkpt>
      <trkpt lat="43.84549" lon="7.26295">
        <ele>773.518066</ele>
        <time>2011-05-07T07:31:55Z</time>
      </trkpt>
      <trkpt lat="43.84544" lon="7.26301">
        <ele>774.959961</ele>
        <time>2011-05-07T07:32:01Z</time>
      </trkpt>
      <trkpt lat="43.84539" lon="7.26307">
        <ele>775.921143</ele>
        <time>2011-05-07T07:32:06Z</time>
      </trkpt>
      <trkpt lat="43.84539" lon="7.26309">
        <ele>775.921143</ele>
        <time>2011-05-07T07:32:07Z</time>
      </trkpt>
      <trkpt lat="43.84537" lon="7.26312">
        <ele>777.84375</ele>
        <time>2011-05-07T07:32:13Z</time>
      </trkpt>
      <trkpt lat="43.84534" lon="7.26317">
        <ele>779.285645</ele>
        <time>2011-05-07T07:32:18Z</time>
      </trkpt>
      <trkpt lat="43.84528" lon="7.26322">
        <ele>780.728027</ele>
        <time>2011-05-07T07:32:24Z</time>
      </trkpt>
      <trkpt lat="43.8452" lon="7.26328">
        <ele>782.650635</ele>
        <time>2011-05-07T07:32:32Z</time>
      </trkpt>
      <trkpt lat="43.8451" lon="7.26339">
        <ele>784.092529</ele>
        <time>2011-05-07T07:32:39Z</time>
      </trkpt>
      <trkpt lat="43.84501" lon="7.26351">
        <ele>785.053955</ele>
        <time>2011-05-07T07:32:45Z</time>
      </trkpt>
      <trkpt lat="43.84491" lon="7.2636">
        <ele>785.053955</ele>
        <time>2011-05-07T07:32:50Z</time>
      </trkpt>
      <trkpt lat="43.84474" lon="7.26371">
        <ele>783.131104</ele>
        <time>2011-05-07T07:32:55Z</time>
      </trkpt>
      <trkpt lat="43.84462" lon="7.26387">
        <ele>783.611816</ele>
        <time>2011-05-07T07:33:00Z</time>
      </trkpt>
      <trkpt lat="43.84455" lon="7.26398">
        <ele>785.053955</ele>
        <time>2011-05-07T07:33:06Z</time>
      </trkpt>
      <trkpt lat="43.84452" lon="7.26402">
        <ele>785.053955</ele>
        <time>2011-05-07T07:33:09Z</time>
      </trkpt>
      <trkpt lat="43.84447" lon="7.26409">
        <ele>786.015137</ele>
        <time>2011-05-07T07:33:16Z</time>
      </trkpt>
      <trkpt lat="43.84446" lon="7.2641">
        <ele>786.015137</ele>
        <time>2011-05-07T07:33:17Z</time>
      </trkpt>
      <trkpt lat="43.84438" lon="7.2642">
        <ele>788.89917</ele>
        <time>2011-05-07T07:33:26Z</time>
      </trkpt>
      <trkpt lat="43.84433" lon="7.26428">
        <ele>790.341064</ele>
        <time>2011-05-07T07:33:33Z</time>
      </trkpt>
      <trkpt lat="43.84426" lon="7.26436">
        <ele>791.302246</ele>
        <time>2011-05-07T07:33:40Z</time>
      </trkpt>
      <trkpt lat="43.84416" lon="7.26445">
        <ele>787.937744</ele>
        <time>2011-05-07T07:33:47Z</time>
      </trkpt>
      <trkpt lat="43.84402" lon="7.26457">
        <ele>786.015137</ele>
        <time>2011-05-07T07:33:55Z</time>
      </trkpt>
      <trkpt lat="43.84392" lon="7.2647">
        <ele>788.418457</ele>
        <time>2011-05-07T07:34:01Z</time>
      </trkpt>
      <trkpt lat="43.84389" lon="7.26474">
        <ele>790.341064</ele>
        <time>2011-05-07T07:34:05Z</time>
      </trkpt>
      <trkpt lat="43.84387" lon="7.26478">
        <ele>790.821533</ele>
        <time>2011-05-07T07:34:09Z</time>
      </trkpt>
      <trkpt lat="43.84383" lon="7.26483">
        <ele>791.782959</ele>
        <time>2011-05-07T07:34:13Z</time>
      </trkpt>
      <trkpt lat="43.84376" lon="7.26488">
        <ele>793.224854</ele>
        <time>2011-05-07T07:34:21Z</time>
      </trkpt>
      <trkpt lat="43.84374" lon="7.2649">
        <ele>793.224854</ele>
        <time>2011-05-07T07:34:23Z</time>
      </trkpt>
      <trkpt lat="43.84364" lon="7.26501">
        <ele>794.186279</ele>
        <time>2011-05-07T07:34:30Z</time>
      </trkpt>
      <trkpt lat="43.84353" lon="7.26512">
        <ele>795.147461</ele>
        <time>2011-05-07T07:34:37Z</time>
      </trkpt>
      <trkpt lat="43.84349" lon="7.26523">
        <ele>794.666748</ele>
        <time>2011-05-07T07:34:42Z</time>
      </trkpt>
      <trkpt lat="43.84348" lon="7.26529">
        <ele>794.186279</ele>
        <time>2011-05-07T07:34:44Z</time>
      </trkpt>
      <trkpt lat="43.84352" lon="7.2654">
        <ele>793.705566</ele>
        <time>2011-05-07T07:34:49Z</time>
      </trkpt>
      <trkpt lat="43.84357" lon="7.26547">
        <ele>792.744385</ele>
        <time>2011-05-07T07:34:55Z</time>
      </trkpt>
      <trkpt lat="43.84361" lon="7.26555">
        <ele>792.263672</ele>
        <time>2011-05-07T07:35:01Z</time>
      </trkpt>
      <trkpt lat="43.84361" lon="7.26556">
        <ele>792.263672</ele>
        <time>2011-05-07T07:35:02Z</time>
      </trkpt>
      <trkpt lat="43.84363" lon="7.26565">
        <ele>789.860352</ele>
        <time>2011-05-07T07:35:08Z</time>
      </trkpt>
      <trkpt lat="43.84364" lon="7.26568">
        <ele>789.379639</ele>
        <time>2011-05-07T07:35:10Z</time>
      </trkpt>
      <trkpt lat="43.84368" lon="7.26579">
        <ele>789.860352</ele>
        <time>2011-05-07T07:35:16Z</time>
      </trkpt>
      <trkpt lat="43.84373" lon="7.26591">
        <ele>791.302246</ele>
        <time>2011-05-07T07:35:22Z</time>
      </trkpt>
      <trkpt lat="43.84384" lon="7.26609">
        <ele>790.821533</ele>
        <time>2011-05-07T07:35:29Z</time>
      </trkpt>
      <trkpt lat="43.84391" lon="7.26615">
        <ele>789.379639</ele>
        <time>2011-05-07T07:35:33Z</time>
      </trkpt>
      <trkpt lat="43.84392" lon="7.26621">
        <ele>790.341064</ele>
        <time>2011-05-07T07:35:37Z</time>
      </trkpt>
      <trkpt lat="43.84393" lon="7.26631">
        <ele>792.744385</ele>
        <time>2011-05-07T07:35:44Z</time>
      </trkpt>
      <trkpt lat="43.84393" lon="7.26635">
        <ele>793.705566</ele>
        <time>2011-05-07T07:35:47Z</time>
      </trkpt>
      <trkpt lat="43.84389" lon="7.26641">
        <ele>795.628174</ele>
        <time>2011-05-07T07:35:51Z</time>
      </trkpt>
      <trkpt lat="43.84381" lon="7.26647">
        <ele>795.628174</ele>
        <time>2011-05-07T07:35:57Z</time>
      </trkpt>
      <trkpt lat="43.84371" lon="7.26655">
        <ele>799.473633</ele>
        <time>2011-05-07T07:36:04Z</time>
      </trkpt>
      <trkpt lat="43.84368" lon="7.26657">
        <ele>801.876953</ele>
        <time>2011-05-07T07:36:06Z</time>
      </trkpt>
      <trkpt lat="43.84361" lon="7.26658">
        <ele>803.799561</ele>
        <time>2011-05-07T07:36:11Z</time>
      </trkpt>
      <trkpt lat="43.84359" lon="7.26659">
        <ele>803.799561</ele>
        <time>2011-05-07T07:36:12Z</time>
      </trkpt>
      <trkpt lat="43.84347" lon="7.26661">
        <ele>804.760742</ele>
        <time>2011-05-07T07:36:19Z</time>
      </trkpt>
      <trkpt lat="43.84334" lon="7.26666">
        <ele>804.280273</ele>
        <time>2011-05-07T07:36:25Z</time>
      </trkpt>
      <trkpt lat="43.84324" lon="7.26675">
        <ele>805.722168</ele>
        <time>2011-05-07T07:36:31Z</time>
      </trkpt>
      <trkpt lat="43.84311" lon="7.2668">
        <ele>808.125488</ele>
        <time>2011-05-07T07:36:38Z</time>
      </trkpt>
      <trkpt lat="43.84298" lon="7.26687">
        <ele>807.644775</ele>
        <time>2011-05-07T07:36:46Z</time>
      </trkpt>
      <trkpt lat="43.84286" lon="7.26694">
        <ele>810.528564</ele>
        <time>2011-05-07T07:36:53Z</time>
      </trkpt>
      <trkpt lat="43.84277" lon="7.267">
        <ele>812.451416</ele>
        <time>2011-05-07T07:36:59Z</time>
      </trkpt>
      <trkpt lat="43.84269" lon="7.26705">
        <ele>813.893311</ele>
        <time>2011-05-07T07:37:04Z</time>
      </trkpt>
      <trkpt lat="43.8426" lon="7.26711">
        <ele>815.335449</ele>
        <time>2011-05-07T07:37:11Z</time>
      </trkpt>
      <trkpt lat="43.84251" lon="7.26715">
        <ele>816.296631</ele>
        <time>2011-05-07T07:37:17Z</time>
      </trkpt>
      <trkpt lat="43.84244" lon="7.26722">
        <ele>817.738525</ele>
        <time>2011-05-07T07:37:22Z</time>
      </trkpt>
      <trkpt lat="43.84236" lon="7.26728">
        <ele>818.699951</ele>
        <time>2011-05-07T07:37:29Z</time>
      </trkpt>
      <trkpt lat="43.84231" lon="7.26732">
        <ele>820.141846</ele>
        <time>2011-05-07T07:37:36Z</time>
      </trkpt>
      <trkpt lat="43.84226" lon="7.26736">
        <ele>821.58374</ele>
        <time>2011-05-07T07:37:43Z</time>
      </trkpt>
      <trkpt lat="43.84217" lon="7.26742">
        <ele>823.987061</ele>
        <time>2011-05-07T07:37:53Z</time>
      </trkpt>
      <trkpt lat="43.84207" lon="7.2675">
        <ele>827.351807</ele>
        <time>2011-05-07T07:38:01Z</time>
      </trkpt>
      <trkpt lat="43.84203" lon="7.26755">
        <ele>831.197266</ele>
        <time>2011-05-07T07:38:07Z</time>
      </trkpt>
      <trkpt lat="43.84198" lon="7.26765">
        <ele>831.197266</ele>
        <time>2011-05-07T07:38:16Z</time>
      </trkpt>
      <trkpt lat="43.84193" lon="7.26772">
        <ele>832.158447</ele>
        <time>2011-05-07T07:38:23Z</time>
      </trkpt>
      <trkpt lat="43.84191" lon="7.26774">
        <ele>833.119629</ele>
        <time>2011-05-07T07:38:25Z</time>
      </trkpt>
      <trkpt lat="43.84184" lon="7.26785">
        <ele>837.445557</ele>
        <time>2011-05-07T07:38:35Z</time>
      </trkpt>
      <trkpt lat="43.84184" lon="7.26787">
        <ele>837.445557</ele>
        <time>2011-05-07T07:38:36Z</time>
      </trkpt>
      <trkpt lat="43.8418" lon="7.26792">
        <ele>837.445557</ele>
        <time>2011-05-07T07:38:41Z</time>
      </trkpt>
      <trkpt lat="43.84173" lon="7.268">
        <ele>836.484375</ele>
        <time>2011-05-07T07:38:47Z</time>
      </trkpt>
      <trkpt lat="43.84171" lon="7.26801">
        <ele>836.964844</ele>
        <time>2011-05-07T07:38:48Z</time>
      </trkpt>
      <trkpt lat="43.84158" lon="7.26811">
        <ele>836.484375</ele>
        <time>2011-05-07T07:38:56Z</time>
      </trkpt>
      <trkpt lat="43.84152" lon="7.26818">
        <ele>837.92627</ele>
        <time>2011-05-07T07:39:01Z</time>
      </trkpt>
      <trkpt lat="43.84149" lon="7.26821">
        <ele>839.848877</ele>
        <time>2011-05-07T07:39:05Z</time>
      </trkpt>
      <trkpt lat="43.84143" lon="7.26834">
        <ele>840.32959</ele>
        <time>2011-05-07T07:39:11Z</time>
      </trkpt>
      <trkpt lat="43.84137" lon="7.26839">
        <ele>842.252197</ele>
        <time>2011-05-07T07:39:15Z</time>
      </trkpt>
      <trkpt lat="43.84134" lon="7.26845">
        <ele>842.252197</ele>
        <time>2011-05-07T07:39:21Z</time>
      </trkpt>
      <trkpt lat="43.84128" lon="7.26851">
        <ele>843.694092</ele>
        <time>2011-05-07T07:39:28Z</time>
      </trkpt>
      <trkpt lat="43.84126" lon="7.26853">
        <ele>844.175049</ele>
        <time>2011-05-07T07:39:30Z</time>
      </trkpt>
      <trkpt lat="43.84118" lon="7.26861">
        <ele>846.097656</ele>
        <time>2011-05-07T07:39:40Z</time>
      </trkpt>
      <trkpt lat="43.84111" lon="7.26867">
        <ele>848.500732</ele>
        <time>2011-05-07T07:39:47Z</time>
      </trkpt>
      <trkpt lat="43.84107" lon="7.26872">
        <ele>849.942871</ele>
        <time>2011-05-07T07:39:53Z</time>
      </trkpt>
      <trkpt lat="43.84103" lon="7.26878">
        <ele>849.942871</ele>
        <time>2011-05-07T07:40:01Z</time>
      </trkpt>
      <trkpt lat="43.84097" lon="7.26883">
        <ele>852.82666</ele>
        <time>2011-05-07T07:40:08Z</time>
      </trkpt>
      <trkpt lat="43.8409" lon="7.26889">
        <ele>855.710693</ele>
        <time>2011-05-07T07:40:16Z</time>
      </trkpt>
      <trkpt lat="43.84085" lon="7.26893">
        <ele>855.710693</ele>
        <time>2011-05-07T07:40:22Z</time>
      </trkpt>
      <trkpt lat="43.84079" lon="7.26897">
        <ele>856.191162</ele>
        <time>2011-05-07T07:40:29Z</time>
      </trkpt>
      <trkpt lat="43.84073" lon="7.26902">
        <ele>856.191162</ele>
        <time>2011-05-07T07:40:34Z</time>
      </trkpt>
      <trkpt lat="43.84064" lon="7.26912">
        <ele>856.671875</ele>
        <time>2011-05-07T07:40:41Z</time>
      </trkpt>
      <trkpt lat="43.84063" lon="7.26912">
        <ele>857.152588</ele>
        <time>2011-05-07T07:40:42Z</time>
      </trkpt>
      <trkpt lat="43.8406" lon="7.2692">
        <ele>860.036621</ele>
        <time>2011-05-07T07:40:49Z</time>
      </trkpt>
      <trkpt lat="43.84055" lon="7.26925">
        <ele>860.998047</ele>
        <time>2011-05-07T07:40:56Z</time>
      </trkpt>
      <trkpt lat="43.84049" lon="7.26931">
        <ele>862.439941</ele>
        <time>2011-05-07T07:41:02Z</time>
      </trkpt>
      <trkpt lat="43.84046" lon="7.26934">
        <ele>863.401367</ele>
        <time>2011-05-07T07:41:05Z</time>
      </trkpt>
      <trkpt lat="43.84041" lon="7.26945">
        <ele>864.362549</ele>
        <time>2011-05-07T07:41:16Z</time>
      </trkpt>
      <trkpt lat="43.84035" lon="7.26952">
        <ele>865.804688</ele>
        <time>2011-05-07T07:41:23Z</time>
      </trkpt>
      <trkpt lat="43.84029" lon="7.26961">
        <ele>866.765869</ele>
        <time>2011-05-07T07:41:29Z</time>
      </trkpt>
      <trkpt lat="43.84023" lon="7.26968">
        <ele>868.688477</ele>
        <time>2011-05-07T07:41:34Z</time>
      </trkpt>
      <trkpt lat="43.84022" lon="7.26976">
        <ele>866.765869</ele>
        <time>2011-05-07T07:41:40Z</time>
      </trkpt>
      <trkpt lat="43.84021" lon="7.26982">
        <ele>866.765869</ele>
        <time>2011-05-07T07:41:44Z</time>
      </trkpt>
      <trkpt lat="43.84017" lon="7.26986">
        <ele>868.207764</ele>
        <time>2011-05-07T07:41:48Z</time>
      </trkpt>
      <trkpt lat="43.84015" lon="7.26988">
        <ele>870.130371</ele>
        <time>2011-05-07T07:41:54Z</time>
      </trkpt>
      <trkpt lat="43.84013" lon="7.26989">
        <ele>870.130371</ele>
        <time>2011-05-07T07:42:04Z</time>
      </trkpt>
      <trkpt lat="43.8401" lon="7.2699">
        <ele>878.301758</ele>
        <time>2011-05-07T07:42:29Z</time>
      </trkpt>
      <trkpt lat="43.8401" lon="7.2699">
        <ele>879.262939</ele>
        <time>2011-05-07T07:42:36Z</time>
      </trkpt>
      <trkpt lat="43.84009" lon="7.26991">
        <ele>879.262939</ele>
        <time>2011-05-07T07:42:54Z</time>
      </trkpt>
      <trkpt lat="43.84008" lon="7.26991">
        <ele>875.41748</ele>
        <time>2011-05-07T07:43:02Z</time>
      </trkpt>
      <trkpt lat="43.84007" lon="7.2699">
        <ele>873.014404</ele>
        <time>2011-05-07T07:43:10Z</time>
      </trkpt>
      <trkpt lat="43.84006" lon="7.2699">
        <ele>869.649902</ele>
        <time>2011-05-07T07:43:57Z</time>
      </trkpt>
      <trkpt lat="43.84005" lon="7.26989">
        <ele>870.130371</ele>
        <time>2011-05-07T07:44:30Z</time>
      </trkpt>
      <trkpt lat="43.84005" lon="7.2699">
        <ele>870.130371</ele>
        <time>2011-05-07T07:45:01Z</time>
      </trkpt>
      <trkpt lat="43.84005" lon="7.26992">
        <ele>868.688477</ele>
        <time>2011-05-07T07:45:17Z</time>
      </trkpt>
      <trkpt lat="43.84002" lon="7.26996">
        <ele>868.688477</ele>
        <time>2011-05-07T07:45:22Z</time>
      </trkpt>
      <trkpt lat="43.83998" lon="7.27005">
        <ele>869.169189</ele>
        <time>2011-05-07T07:45:28Z</time>
      </trkpt>
      <trkpt lat="43.83992" lon="7.27017">
        <ele>869.649902</ele>
        <time>2011-05-07T07:45:34Z</time>
      </trkpt>
      <trkpt lat="43.83984" lon="7.27026">
        <ele>870.130371</ele>
        <time>2011-05-07T07:45:41Z</time>
      </trkpt>
      <trkpt lat="43.8398" lon="7.27031">
        <ele>872.052979</ele>
        <time>2011-05-07T07:45:44Z</time>
      </trkpt>
      <trkpt lat="43.83978" lon="7.27042">
        <ele>874.937012</ele>
        <time>2011-05-07T07:45:50Z</time>
      </trkpt>
      <trkpt lat="43.83974" lon="7.27047">
        <ele>873.975586</ele>
        <time>2011-05-07T07:45:53Z</time>
      </trkpt>
      <trkpt lat="43.83971" lon="7.27049">
        <ele>874.456299</ele>
        <time>2011-05-07T07:45:55Z</time>
      </trkpt>
      <trkpt lat="43.83969" lon="7.27055">
        <ele>874.456299</ele>
        <time>2011-05-07T07:45:59Z</time>
      </trkpt>
      <trkpt lat="43.83966" lon="7.27062">
        <ele>871.572266</ele>
        <time>2011-05-07T07:46:05Z</time>
      </trkpt>
      <trkpt lat="43.8396" lon="7.27065">
        <ele>871.572266</ele>
        <time>2011-05-07T07:46:10Z</time>
      </trkpt>
      <trkpt lat="43.83958" lon="7.27066">
        <ele>872.052979</ele>
        <time>2011-05-07T07:46:12Z</time>
      </trkpt>
      <trkpt lat="43.83956" lon="7.27067">
        <ele>872.052979</ele>
        <time>2011-05-07T07:46:15Z</time>
      </trkpt>
      <trkpt lat="43.83947" lon="7.27075">
        <ele>873.014404</ele>
        <time>2011-05-07T07:46:22Z</time>
      </trkpt>
      <trkpt lat="43.83934" lon="7.27082">
        <ele>874.937012</ele>
        <time>2011-05-07T07:46:31Z</time>
      </trkpt>
      <trkpt lat="43.83925" lon="7.27085">
        <ele>875.898193</ele>
        <time>2011-05-07T07:46:35Z</time>
      </trkpt>
      <trkpt lat="43.83913" lon="7.27091">
        <ele>876.859863</ele>
        <time>2011-05-07T07:46:40Z</time>
      </trkpt>
      <trkpt lat="43.83895" lon="7.271">
        <ele>875.41748</ele>
        <time>2011-05-07T07:46:47Z</time>
      </trkpt>
      <trkpt lat="43.8388" lon="7.27108">
        <ele>873.975586</ele>
        <time>2011-05-07T07:46:53Z</time>
      </trkpt>
      <trkpt lat="43.83864" lon="7.27115">
        <ele>869.649902</ele>
        <time>2011-05-07T07:46:58Z</time>
      </trkpt>
      <trkpt lat="43.8385" lon="7.27127">
        <ele>866.765869</ele>
        <time>2011-05-07T07:47:02Z</time>
      </trkpt>
      <trkpt lat="43.83831" lon="7.27123">
        <ele>863.401367</ele>
        <time>2011-05-07T07:47:08Z</time>
      </trkpt>
      <trkpt lat="43.83819" lon="7.27114">
        <ele>861.959473</ele>
        <time>2011-05-07T07:47:13Z</time>
      </trkpt>
      <trkpt lat="43.83813" lon="7.27104">
        <ele>862.439941</ele>
        <time>2011-05-07T07:47:18Z</time>
      </trkpt>
      <trkpt lat="43.83809" lon="7.27097">
        <ele>862.920654</ele>
        <time>2011-05-07T07:47:21Z</time>
      </trkpt>
      <trkpt lat="43.83804" lon="7.27093">
        <ele>863.401367</ele>
        <time>2011-05-07T07:47:25Z</time>
      </trkpt>
      <trkpt lat="43.83793" lon="7.27087">
        <ele>863.881836</ele>
        <time>2011-05-07T07:47:31Z</time>
      </trkpt>
      <trkpt lat="43.83784" lon="7.27079">
        <ele>863.881836</ele>
        <time>2011-05-07T07:47:36Z</time>
      </trkpt>
      <trkpt lat="43.8378" lon="7.27079">
        <ele>862.920654</ele>
        <time>2011-05-07T07:47:38Z</time>
      </trkpt>
      <trkpt lat="43.83769" lon="7.2708">
        <ele>863.881836</ele>
        <time>2011-05-07T07:47:44Z</time>
      </trkpt>
      <trkpt lat="43.83765" lon="7.27081">
        <ele>863.881836</ele>
        <time>2011-05-07T07:47:46Z</time>
      </trkpt>
      <trkpt lat="43.83756" lon="7.27085">
        <ele>867.246582</ele>
        <time>2011-05-07T07:47:51Z</time>
      </trkpt>
      <trkpt lat="43.83751" lon="7.27084">
        <ele>869.169189</ele>
        <time>2011-05-07T07:47:57Z</time>
      </trkpt>
      <trkpt lat="43.83744" lon="7.27083">
        <ele>869.649902</ele>
        <time>2011-05-07T07:48:01Z</time>
      </trkpt>
      <trkpt lat="43.83735" lon="7.27088">
        <ele>873.014404</ele>
        <time>2011-05-07T07:48:07Z</time>
      </trkpt>
      <trkpt lat="43.83725" lon="7.27088">
        <ele>872.052979</ele>
        <time>2011-05-07T07:48:13Z</time>
      </trkpt>
      <trkpt lat="43.83709" lon="7.27098">
        <ele>874.937012</ele>
        <time>2011-05-07T07:48:21Z</time>
      </trkpt>
      <trkpt lat="43.837" lon="7.27104">
        <ele>879.262939</ele>
        <time>2011-05-07T07:48:26Z</time>
      </trkpt>
      <trkpt lat="43.83687" lon="7.27105">
        <ele>880.705078</ele>
        <time>2011-05-07T07:48:34Z</time>
      </trkpt>
      <trkpt lat="43.83676" lon="7.27105">
        <ele>882.146973</ele>
        <time>2011-05-07T07:48:40Z</time>
      </trkpt>
      <trkpt lat="43.83664" lon="7.2711">
        <ele>884.06958</ele>
        <time>2011-05-07T07:48:46Z</time>
      </trkpt>
      <trkpt lat="43.83653" lon="7.27115">
        <ele>887.914795</ele>
        <time>2011-05-07T07:48:52Z</time>
      </trkpt>
      <trkpt lat="43.83643" lon="7.27118">
        <ele>888.876221</ele>
        <time>2011-05-07T07:48:57Z</time>
      </trkpt>
      <trkpt lat="43.83632" lon="7.27126">
        <ele>888.395508</ele>
        <time>2011-05-07T07:49:02Z</time>
      </trkpt>
      <trkpt lat="43.83624" lon="7.27136">
        <ele>889.356689</ele>
        <time>2011-05-07T07:49:07Z</time>
      </trkpt>
      <trkpt lat="43.83619" lon="7.27137">
        <ele>889.837402</ele>
        <time>2011-05-07T07:49:09Z</time>
      </trkpt>
      <trkpt lat="43.83605" lon="7.27143">
        <ele>891.76001</ele>
        <time>2011-05-07T07:49:15Z</time>
      </trkpt>
      <trkpt lat="43.83602" lon="7.27147">
        <ele>892.240967</ele>
        <time>2011-05-07T07:49:17Z</time>
      </trkpt>
      <trkpt lat="43.83584" lon="7.2715">
        <ele>894.163574</ele>
        <time>2011-05-07T07:49:25Z</time>
      </trkpt>
      <trkpt lat="43.83569" lon="7.27149">
        <ele>893.202148</ele>
        <time>2011-05-07T07:49:31Z</time>
      </trkpt>
      <trkpt lat="43.83553" lon="7.2715">
        <ele>893.202148</ele>
        <time>2011-05-07T07:49:38Z</time>
      </trkpt>
      <trkpt lat="43.83537" lon="7.2715">
        <ele>892.72168</ele>
        <time>2011-05-07T07:49:43Z</time>
      </trkpt>
      <trkpt lat="43.83521" lon="7.27152">
        <ele>893.202148</ele>
        <time>2011-05-07T07:49:49Z</time>
      </trkpt>
      <trkpt lat="43.8351" lon="7.27159">
        <ele>892.72168</ele>
        <time>2011-05-07T07:49:54Z</time>
      </trkpt>
      <trkpt lat="43.83496" lon="7.27167">
        <ele>894.644043</ele>
        <time>2011-05-07T07:50:00Z</time>
      </trkpt>
      <trkpt lat="43.83492" lon="7.27169">
        <ele>895.124756</ele>
        <time>2011-05-07T07:50:02Z</time>
      </trkpt>
      <trkpt lat="43.83479" lon="7.27173">
        <ele>897.047363</ele>
        <time>2011-05-07T07:50:08Z</time>
      </trkpt>
      <trkpt lat="43.83469" lon="7.27177">
        <ele>898.969971</ele>
        <time>2011-05-07T07:50:13Z</time>
      </trkpt>
      <trkpt lat="43.8346" lon="7.27182">
        <ele>900.412109</ele>
        <time>2011-05-07T07:50:18Z</time>
      </trkpt>
      <trkpt lat="43.83449" lon="7.27187">
        <ele>901.373291</ele>
        <time>2011-05-07T07:50:23Z</time>
      </trkpt>
      <trkpt lat="43.83443" lon="7.27192">
        <ele>903.295898</ele>
        <time>2011-05-07T07:50:26Z</time>
      </trkpt>
      <trkpt lat="43.83428" lon="7.27202">
        <ele>904.257324</ele>
        <time>2011-05-07T07:50:33Z</time>
      </trkpt>
      <trkpt lat="43.83414" lon="7.27217">
        <ele>904.737793</ele>
        <time>2011-05-07T07:50:39Z</time>
      </trkpt>
      <trkpt lat="43.834" lon="7.27231">
        <ele>903.776611</ele>
        <time>2011-05-07T07:50:44Z</time>
      </trkpt>
      <trkpt lat="43.8339" lon="7.27247">
        <ele>903.295898</ele>
        <time>2011-05-07T07:50:48Z</time>
      </trkpt>
      <trkpt lat="43.83379" lon="7.2726">
        <ele>900.412109</ele>
        <time>2011-05-07T07:50:52Z</time>
      </trkpt>
      <trkpt lat="43.83369" lon="7.27273">
        <ele>898.008789</ele>
        <time>2011-05-07T07:50:55Z</time>
      </trkpt>
      <trkpt lat="43.83362" lon="7.27284">
        <ele>897.047363</ele>
        <time>2011-05-07T07:50:57Z</time>
      </trkpt>
      <trkpt lat="43.83356" lon="7.27298">
        <ele>896.086182</ele>
        <time>2011-05-07T07:51:00Z</time>
      </trkpt>
      <trkpt lat="43.83353" lon="7.27308">
        <ele>895.124756</ele>
        <time>2011-05-07T07:51:04Z</time>
      </trkpt>
      <trkpt lat="43.83349" lon="7.27313">
        <ele>895.605469</ele>
        <time>2011-05-07T07:51:09Z</time>
      </trkpt>
      <trkpt lat="43.83338" lon="7.27325">
        <ele>894.163574</ele>
        <time>2011-05-07T07:51:14Z</time>
      </trkpt>
      <trkpt lat="43.83333" lon="7.27338">
        <ele>893.682861</ele>
        <time>2011-05-07T07:51:18Z</time>
      </trkpt>
      <trkpt lat="43.83328" lon="7.27361">
        <ele>893.202148</ele>
        <time>2011-05-07T07:51:23Z</time>
      </trkpt>
      <trkpt lat="43.83328" lon="7.27376">
        <ele>889.837402</ele>
        <time>2011-05-07T07:51:27Z</time>
      </trkpt>
      <trkpt lat="43.83326" lon="7.27387">
        <ele>887.914795</ele>
        <time>2011-05-07T07:51:33Z</time>
      </trkpt>
      <trkpt lat="43.83327" lon="7.27387">
        <ele>887.434082</ele>
        <time>2011-05-07T07:51:44Z</time>
      </trkpt>
      <trkpt lat="43.83327" lon="7.27388">
        <ele>887.914795</ele>
        <time>2011-05-07T07:51:54Z</time>
      </trkpt>
      <trkpt lat="43.83327" lon="7.27388">
        <ele>887.434082</ele>
        <time>2011-05-07T07:52:08Z</time>
      </trkpt>
      <trkpt lat="43.83327" lon="7.27388">
        <ele>887.434082</ele>
        <time>2011-05-07T07:52:21Z</time>
      </trkpt>
      <trkpt lat="43.83326" lon="7.27388">
        <ele>887.434082</ele>
        <time>2011-05-07T07:52:56Z</time>
      </trkpt>
      <trkpt lat="43.83326" lon="7.27388">
        <ele>886.953369</ele>
        <time>2011-05-07T07:53:00Z</time>
      </trkpt>
      <trkpt lat="43.83323" lon="7.2739">
        <ele>885.992188</ele>
        <time>2011-05-07T07:53:05Z</time>
      </trkpt>
      <trkpt lat="43.83308" lon="7.27391">
        <ele>883.108154</ele>
        <time>2011-05-07T07:53:11Z</time>
      </trkpt>
      <trkpt lat="43.83303" lon="7.27375">
        <ele>880.705078</ele>
        <time>2011-05-07T07:53:15Z</time>
      </trkpt>
      <trkpt lat="43.83301" lon="7.27366">
        <ele>878.782471</ele>
        <time>2011-05-07T07:53:18Z</time>
      </trkpt>
      <trkpt lat="43.83296" lon="7.27351">
        <ele>875.898193</ele>
        <time>2011-05-07T07:53:22Z</time>
      </trkpt>
      <trkpt lat="43.8329" lon="7.27347">
        <ele>873.495117</ele>
        <time>2011-05-07T07:53:25Z</time>
      </trkpt>
      <trkpt lat="43.83278" lon="7.27343">
        <ele>869.649902</ele>
        <time>2011-05-07T07:53:29Z</time>
      </trkpt>
      <trkpt lat="43.83274" lon="7.27341">
        <ele>868.688477</ele>
        <time>2011-05-07T07:53:30Z</time>
      </trkpt>
      <trkpt lat="43.8327" lon="7.27338">
        <ele>866.285156</ele>
        <time>2011-05-07T07:53:32Z</time>
      </trkpt>
      <trkpt lat="43.83272" lon="7.27326">
        <ele>860.517334</ele>
        <time>2011-05-07T07:53:36Z</time>
      </trkpt>
      <trkpt lat="43.83265" lon="7.27321">
        <ele>856.191162</ele>
        <time>2011-05-07T07:53:40Z</time>
      </trkpt>
      <trkpt lat="43.83253" lon="7.27314">
        <ele>848.500732</ele>
        <time>2011-05-07T07:53:45Z</time>
      </trkpt>
      <trkpt lat="43.83242" lon="7.27306">
        <ele>843.213379</ele>
        <time>2011-05-07T07:53:50Z</time>
      </trkpt>
      <trkpt lat="43.83233" lon="7.273">
        <ele>838.887695</ele>
        <time>2011-05-07T07:53:54Z</time>
      </trkpt>
      <trkpt lat="43.8322" lon="7.27292">
        <ele>836.003662</ele>
        <time>2011-05-07T07:53:58Z</time>
      </trkpt>
      <trkpt lat="43.83211" lon="7.27287">
        <ele>833.119629</ele>
        <time>2011-05-07T07:54:01Z</time>
      </trkpt>
      <trkpt lat="43.83191" lon="7.27273">
        <ele>831.197266</ele>
        <time>2011-05-07T07:54:06Z</time>
      </trkpt>
      <trkpt lat="43.83186" lon="7.27271">
        <ele>831.677734</ele>
        <time>2011-05-07T07:54:07Z</time>
      </trkpt>
      <trkpt lat="43.83173" lon="7.27265">
        <ele>830.23584</ele>
        <time>2011-05-07T07:54:11Z</time>
      </trkpt>
      <trkpt lat="43.83158" lon="7.27255">
        <ele>827.351807</ele>
        <time>2011-05-07T07:54:15Z</time>
      </trkpt>
      <trkpt lat="43.83134" lon="7.27243">
        <ele>822.545166</ele>
        <time>2011-05-07T07:54:21Z</time>
      </trkpt>
      <trkpt lat="43.83115" lon="7.27234">
        <ele>820.141846</ele>
        <time>2011-05-07T07:54:26Z</time>
      </trkpt>
      <trkpt lat="43.83105" lon="7.27234">
        <ele>820.622559</ele>
        <time>2011-05-07T07:54:30Z</time>
      </trkpt>
      <trkpt lat="43.83099" lon="7.27232">
        <ele>821.103271</ele>
        <time>2011-05-07T07:54:33Z</time>
      </trkpt>
      <trkpt lat="43.83078" lon="7.27226">
        <ele>818.699951</ele>
        <time>2011-05-07T07:54:40Z</time>
      </trkpt>
      <trkpt lat="43.83063" lon="7.27221">
        <ele>813.412842</ele>
        <time>2011-05-07T07:54:45Z</time>
      </trkpt>
      <trkpt lat="43.8306" lon="7.27219">
        <ele>811.970703</ele>
        <time>2011-05-07T07:54:46Z</time>
      </trkpt>
      <trkpt lat="43.83043" lon="7.2722">
        <ele>808.125488</ele>
        <time>2011-05-07T07:54:51Z</time>
      </trkpt>
      <trkpt lat="43.8303" lon="7.27224">
        <ele>804.760742</ele>
        <time>2011-05-07T07:54:55Z</time>
      </trkpt>
      <trkpt lat="43.8301" lon="7.2723">
        <ele>800.435059</ele>
        <time>2011-05-07T07:55:00Z</time>
      </trkpt>
      <trkpt lat="43.82992" lon="7.2723">
        <ele>797.070313</ele>
        <time>2011-05-07T07:55:04Z</time>
      </trkpt>
      <trkpt lat="43.82985" lon="7.27228">
        <ele>796.109131</ele>
        <time>2011-05-07T07:55:06Z</time>
      </trkpt>
      <trkpt lat="43.82973" lon="7.27225">
        <ele>793.224854</ele>
        <time>2011-05-07T07:55:09Z</time>
      </trkpt>
      <trkpt lat="43.8295" lon="7.27221">
        <ele>789.860352</ele>
        <time>2011-05-07T07:55:13Z</time>
      </trkpt>
      <trkpt lat="43.82937" lon="7.27217">
        <ele>788.418457</ele>
        <time>2011-05-07T07:55:15Z</time>
      </trkpt>
      <trkpt lat="43.82914" lon="7.27205">
        <ele>784.573242</ele>
        <time>2011-05-07T07:55:19Z</time>
      </trkpt>
      <trkpt lat="43.82891" lon="7.27191">
        <ele>781.20874</ele>
        <time>2011-05-07T07:55:23Z</time>
      </trkpt>
      <trkpt lat="43.82876" lon="7.27179">
        <ele>779.766357</ele>
        <time>2011-05-07T07:55:27Z</time>
      </trkpt>
      <trkpt lat="43.82856" lon="7.27164">
        <ele>777.363281</ele>
        <time>2011-05-07T07:55:32Z</time>
      </trkpt>
      <trkpt lat="43.8285" lon="7.27157">
        <ele>774.959961</ele>
        <time>2011-05-07T07:55:35Z</time>
      </trkpt>
      <trkpt lat="43.82832" lon="7.27149">
        <ele>773.037354</ele>
        <time>2011-05-07T07:55:39Z</time>
      </trkpt>
      <trkpt lat="43.82816" lon="7.27146">
        <ele>770.634033</ele>
        <time>2011-05-07T07:55:44Z</time>
      </trkpt>
      <trkpt lat="43.82808" lon="7.27146">
        <ele>768.230713</ele>
        <time>2011-05-07T07:55:46Z</time>
      </trkpt>
      <trkpt lat="43.82783" lon="7.27153">
        <ele>761.020752</ele>
        <time>2011-05-07T07:55:51Z</time>
      </trkpt>
      <trkpt lat="43.82774" lon="7.27154">
        <ele>759.098145</ele>
        <time>2011-05-07T07:55:53Z</time>
      </trkpt>
      <trkpt lat="43.82757" lon="7.27157">
        <ele>755.733643</ele>
        <time>2011-05-07T07:55:57Z</time>
      </trkpt>
      <trkpt lat="43.82735" lon="7.27157">
        <ele>749.485107</ele>
        <time>2011-05-07T07:56:02Z</time>
      </trkpt>
      <trkpt lat="43.82713" lon="7.27162">
        <ele>744.678223</ele>
        <time>2011-05-07T07:56:06Z</time>
      </trkpt>
      <trkpt lat="43.82698" lon="7.27159">
        <ele>739.391113</ele>
        <time>2011-05-07T07:56:10Z</time>
      </trkpt>
      <trkpt lat="43.82692" lon="7.27156">
        <ele>736.026611</ele>
        <time>2011-05-07T07:56:12Z</time>
      </trkpt>
      <trkpt lat="43.82676" lon="7.2715">
        <ele>731.219971</ele>
        <time>2011-05-07T07:56:17Z</time>
      </trkpt>
      <trkpt lat="43.82663" lon="7.2715">
        <ele>728.335938</ele>
        <time>2011-05-07T07:56:20Z</time>
      </trkpt>
      <trkpt lat="43.82643" lon="7.27151">
        <ele>721.606689</ele>
        <time>2011-05-07T07:56:26Z</time>
      </trkpt>
      <trkpt lat="43.82638" lon="7.2715">
        <ele>719.203613</ele>
        <time>2011-05-07T07:56:29Z</time>
      </trkpt>
      <trkpt lat="43.82631" lon="7.27144">
        <ele>714.396729</ele>
        <time>2011-05-07T07:56:34Z</time>
      </trkpt>
      <trkpt lat="43.82633" lon="7.2714">
        <ele>711.993652</ele>
        <time>2011-05-07T07:56:37Z</time>
      </trkpt>
      <trkpt lat="43.82634" lon="7.27134">
        <ele>709.109619</ele>
        <time>2011-05-07T07:56:41Z</time>
      </trkpt>
      <trkpt lat="43.82631" lon="7.27129">
        <ele>707.667725</ele>
        <time>2011-05-07T07:56:43Z</time>
      </trkpt>
      <trkpt lat="43.82632" lon="7.2712">
        <ele>704.783691</ele>
        <time>2011-05-07T07:56:47Z</time>
      </trkpt>
      <trkpt lat="43.8264" lon="7.27108">
        <ele>700.938477</ele>
        <time>2011-05-07T07:56:51Z</time>
      </trkpt>
      <trkpt lat="43.82642" lon="7.27102">
        <ele>699.015625</ele>
        <time>2011-05-07T07:56:53Z</time>
      </trkpt>
      <trkpt lat="43.82642" lon="7.27097">
        <ele>697.093018</ele>
        <time>2011-05-07T07:56:55Z</time>
      </trkpt>
      <trkpt lat="43.82645" lon="7.27083">
        <ele>693.728516</ele>
        <time>2011-05-07T07:56:59Z</time>
      </trkpt>
      <trkpt lat="43.82658" lon="7.27059">
        <ele>688.922119</ele>
        <time>2011-05-07T07:57:04Z</time>
      </trkpt>
      <trkpt lat="43.82663" lon="7.2705">
        <ele>685.557373</ele>
        <time>2011-05-07T07:57:08Z</time>
      </trkpt>
      <trkpt lat="43.82667" lon="7.27043">
        <ele>683.153809</ele>
        <time>2011-05-07T07:57:12Z</time>
      </trkpt>
      <trkpt lat="43.82664" lon="7.27039">
        <ele>684.115479</ele>
        <time>2011-05-07T07:57:16Z</time>
      </trkpt>
      <trkpt lat="43.8266" lon="7.27041">
        <ele>684.596191</ele>
        <time>2011-05-07T07:57:21Z</time>
      </trkpt>
      <trkpt lat="43.82657" lon="7.2704">
        <ele>685.076904</ele>
        <time>2011-05-07T07:57:28Z</time>
      </trkpt>
      <trkpt lat="43.82656" lon="7.27038">
        <ele>686.518799</ele>
        <time>2011-05-07T07:57:38Z</time>
      </trkpt>
      <trkpt lat="43.82653" lon="7.27037">
        <ele>689.883301</ele>
        <time>2011-05-07T07:58:01Z</time>
      </trkpt>
      <trkpt lat="43.82652" lon="7.27036">
        <ele>692.767334</ele>
        <time>2011-05-07T07:58:13Z</time>
      </trkpt>
      <trkpt lat="43.82651" lon="7.27036">
        <ele>694.209229</ele>
        <time>2011-05-07T07:58:29Z</time>
      </trkpt>
      <trkpt lat="43.82652" lon="7.27036">
        <ele>694.689697</ele>
        <time>2011-05-07T07:58:38Z</time>
      </trkpt>
      <trkpt lat="43.82652" lon="7.27035">
        <ele>695.17041</ele>
        <time>2011-05-07T07:58:57Z</time>
      </trkpt>
      <trkpt lat="43.82653" lon="7.27036">
        <ele>695.651123</ele>
        <time>2011-05-07T07:59:05Z</time>
      </trkpt>
      <trkpt lat="43.82653" lon="7.27036">
        <ele>698.534912</ele>
        <time>2011-05-07T07:59:12Z</time>
      </trkpt>
      <trkpt lat="43.82653" lon="7.27036">
        <ele>700.458008</ele>
        <time>2011-05-07T07:59:17Z</time>
      </trkpt>
      <trkpt lat="43.82655" lon="7.27034">
        <ele>700.938477</ele>
        <time>2011-05-07T07:59:47Z</time>
      </trkpt>
      <trkpt lat="43.82655" lon="7.27033">
        <ele>699.496338</ele>
        <time>2011-05-07T07:59:58Z</time>
      </trkpt>
      <trkpt lat="43.82653" lon="7.27031">
        <ele>696.131836</ele>
        <time>2011-05-07T08:00:20Z</time>
      </trkpt>
      <trkpt lat="43.82653" lon="7.27031">
        <ele>694.209229</ele>
        <time>2011-05-07T08:00:30Z</time>
      </trkpt>
      <trkpt lat="43.82652" lon="7.27031">
        <ele>694.209229</ele>
        <time>2011-05-07T08:00:31Z</time>
      </trkpt>
      <trkpt lat="43.82637" lon="7.27032">
        <ele>690.364014</ele>
        <time>2011-05-07T08:00:36Z</time>
      </trkpt>
      <trkpt lat="43.82632" lon="7.27031">
        <ele>688.441406</ele>
        <time>2011-05-07T08:00:38Z</time>
      </trkpt>
      <trkpt lat="43.82638" lon="7.27014">
        <ele>682.67334</ele>
        <time>2011-05-07T08:00:42Z</time>
      </trkpt>
      <trkpt lat="43.82642" lon="7.27004">
        <ele>678.828125</ele>
        <time>2011-05-07T08:00:45Z</time>
      </trkpt>
      <trkpt lat="43.82653" lon="7.26992">
        <ele>673.060303</ele>
        <time>2011-05-07T08:00:49Z</time>
      </trkpt>
      <trkpt lat="43.82657" lon="7.26988">
        <ele>670.17627</ele>
        <time>2011-05-07T08:00:52Z</time>
      </trkpt>
      <trkpt lat="43.8265" lon="7.26981">
        <ele>666.330811</ele>
        <time>2011-05-07T08:00:57Z</time>
      </trkpt>
      <trkpt lat="43.82647" lon="7.26971">
        <ele>662.005127</ele>
        <time>2011-05-07T08:01:02Z</time>
      </trkpt>
      <trkpt lat="43.82644" lon="7.26966">
        <ele>658.640381</ele>
        <time>2011-05-07T08:01:05Z</time>
      </trkpt>
      <trkpt lat="43.82627" lon="7.26957">
        <ele>655.275879</ele>
        <time>2011-05-07T08:01:09Z</time>
      </trkpt>
      <trkpt lat="43.82601" lon="7.2696">
        <ele>656.717773</ele>
        <time>2011-05-07T08:01:13Z</time>
      </trkpt>
      <trkpt lat="43.82592" lon="7.26965">
        <ele>655.756592</ele>
        <time>2011-05-07T08:01:15Z</time>
      </trkpt>
      <trkpt lat="43.82586" lon="7.26978">
        <ele>654.314697</ele>
        <time>2011-05-07T08:01:19Z</time>
      </trkpt>
      <trkpt lat="43.82573" lon="7.26985">
        <ele>653.833984</ele>
        <time>2011-05-07T08:01:23Z</time>
      </trkpt>
      <trkpt lat="43.8257" lon="7.26989">
        <ele>653.353271</ele>
        <time>2011-05-07T08:01:24Z</time>
      </trkpt>
      <trkpt lat="43.82564" lon="7.26999">
        <ele>650.949707</ele>
        <time>2011-05-07T08:01:28Z</time>
      </trkpt>
      <trkpt lat="43.82564" lon="7.26999">
        <ele>649.507813</ele>
        <time>2011-05-07T08:01:34Z</time>
      </trkpt>
      <trkpt lat="43.82559" lon="7.27003">
        <ele>648.065918</ele>
        <time>2011-05-07T08:01:37Z</time>
      </trkpt>
      <trkpt lat="43.82543" lon="7.27014">
        <ele>645.181885</ele>
        <time>2011-05-07T08:01:42Z</time>
      </trkpt>
      <trkpt lat="43.82528" lon="7.2701">
        <ele>643.259277</ele>
        <time>2011-05-07T08:01:46Z</time>
      </trkpt>
      <trkpt lat="43.82515" lon="7.27006">
        <ele>645.662598</ele>
        <time>2011-05-07T08:01:49Z</time>
      </trkpt>
      <trkpt lat="43.82506" lon="7.27009">
        <ele>645.662598</ele>
        <time>2011-05-07T08:01:51Z</time>
      </trkpt>
      <trkpt lat="43.82488" lon="7.27016">
        <ele>644.220703</ele>
        <time>2011-05-07T08:01:55Z</time>
      </trkpt>
      <trkpt lat="43.82463" lon="7.27028">
        <ele>647.104492</ele>
        <time>2011-05-07T08:02:01Z</time>
      </trkpt>
      <trkpt lat="43.82441" lon="7.27035">
        <ele>651.911133</ele>
        <time>2011-05-07T08:02:06Z</time>
      </trkpt>
      <trkpt lat="43.82424" lon="7.27037">
        <ele>654.795166</ele>
        <time>2011-05-07T08:02:10Z</time>
      </trkpt>
      <trkpt lat="43.8242" lon="7.27036">
        <ele>655.275879</ele>
        <time>2011-05-07T08:02:11Z</time>
      </trkpt>
      <trkpt lat="43.82405" lon="7.27028">
        <ele>656.717773</ele>
        <time>2011-05-07T08:02:15Z</time>
      </trkpt>
      <trkpt lat="43.82388" lon="7.27014">
        <ele>660.082275</ele>
        <time>2011-05-07T08:02:20Z</time>
      </trkpt>
      <trkpt lat="43.82374" lon="7.27001">
        <ele>659.601807</ele>
        <time>2011-05-07T08:02:25Z</time>
      </trkpt>
      <trkpt lat="43.82369" lon="7.26978">
        <ele>655.275879</ele>
        <time>2011-05-07T08:02:30Z</time>
      </trkpt>
      <trkpt lat="43.8236" lon="7.26964">
        <ele>654.314697</ele>
        <time>2011-05-07T08:02:33Z</time>
      </trkpt>
      <trkpt lat="43.82349" lon="7.26956">
        <ele>650.469238</ele>
        <time>2011-05-07T08:02:36Z</time>
      </trkpt>
      <trkpt lat="43.82326" lon="7.26957">
        <ele>648.546387</ele>
        <time>2011-05-07T08:02:40Z</time>
      </trkpt>
      <trkpt lat="43.82316" lon="7.26966">
        <ele>647.104492</ele>
        <time>2011-05-07T08:02:43Z</time>
      </trkpt>
      <trkpt lat="43.82305" lon="7.26978">
        <ele>643.259277</ele>
        <time>2011-05-07T08:02:46Z</time>
      </trkpt>
      <trkpt lat="43.82301" lon="7.26985">
        <ele>642.298096</ele>
        <time>2011-05-07T08:02:47Z</time>
      </trkpt>
      <trkpt lat="43.82281" lon="7.27013">
        <ele>639.894775</ele>
        <time>2011-05-07T08:02:52Z</time>
      </trkpt>
      <trkpt lat="43.82276" lon="7.27017">
        <ele>638.933594</ele>
        <time>2011-05-07T08:02:53Z</time>
      </trkpt>
      <trkpt lat="43.82249" lon="7.27027">
        <ele>632.684814</ele>
        <time>2011-05-07T08:02:58Z</time>
      </trkpt>
      <trkpt lat="43.8224" lon="7.27032">
        <ele>625.474854</ele>
        <time>2011-05-07T08:03:02Z</time>
      </trkpt>
      <trkpt lat="43.8225" lon="7.27022">
        <ele>619.226318</ele>
        <time>2011-05-07T08:03:06Z</time>
      </trkpt>
      <trkpt lat="43.82267" lon="7.27002">
        <ele>613.458496</ele>
        <time>2011-05-07T08:03:10Z</time>
      </trkpt>
      <trkpt lat="43.82268" lon="7.26997">
        <ele>612.016602</ele>
        <time>2011-05-07T08:03:12Z</time>
      </trkpt>
      <trkpt lat="43.82251" lon="7.27003">
        <ele>607.690674</ele>
        <time>2011-05-07T08:03:16Z</time>
      </trkpt>
      <trkpt lat="43.82244" lon="7.26992">
        <ele>605.768066</ele>
        <time>2011-05-07T08:03:19Z</time>
      </trkpt>
      <trkpt lat="43.8223" lon="7.26997">
        <ele>600.961182</ele>
        <time>2011-05-07T08:03:22Z</time>
      </trkpt>
      <trkpt lat="43.82214" lon="7.27006">
        <ele>596.154785</ele>
        <time>2011-05-07T08:03:25Z</time>
      </trkpt>
      <trkpt lat="43.82197" lon="7.27016">
        <ele>596.154785</ele>
        <time>2011-05-07T08:03:28Z</time>
      </trkpt>
      <trkpt lat="43.82187" lon="7.27021">
        <ele>594.232178</ele>
        <time>2011-05-07T08:03:30Z</time>
      </trkpt>
      <trkpt lat="43.8218" lon="7.27018">
        <ele>589.90625</ele>
        <time>2011-05-07T08:03:35Z</time>
      </trkpt>
      <trkpt lat="43.82183" lon="7.27016">
        <ele>589.425537</ele>
        <time>2011-05-07T08:03:36Z</time>
      </trkpt>
      <trkpt lat="43.82193" lon="7.2701">
        <ele>587.502686</ele>
        <time>2011-05-07T08:03:40Z</time>
      </trkpt>
      <trkpt lat="43.82195" lon="7.27008">
        <ele>587.502686</ele>
        <time>2011-05-07T08:03:45Z</time>
      </trkpt>
      <trkpt lat="43.82193" lon="7.27006">
        <ele>589.90625</ele>
        <time>2011-05-07T08:03:51Z</time>
      </trkpt>
      <trkpt lat="43.82183" lon="7.27007">
        <ele>590.867432</ele>
        <time>2011-05-07T08:03:56Z</time>
      </trkpt>
      <trkpt lat="43.82169" lon="7.27013">
        <ele>589.425537</ele>
        <time>2011-05-07T08:04:00Z</time>
      </trkpt>
      <trkpt lat="43.82162" lon="7.27019">
        <ele>588.945068</ele>
        <time>2011-05-07T08:04:03Z</time>
      </trkpt>
      <trkpt lat="43.8216" lon="7.27">
        <ele>589.90625</ele>
        <time>2011-05-07T08:04:07Z</time>
      </trkpt>
      <trkpt lat="43.82159" lon="7.26985">
        <ele>591.348145</ele>
        <time>2011-05-07T08:04:11Z</time>
      </trkpt>
      <trkpt lat="43.82158" lon="7.2698">
        <ele>591.828857</ele>
        <time>2011-05-07T08:04:12Z</time>
      </trkpt>
      <trkpt lat="43.82157" lon="7.26957">
        <ele>590.386963</ele>
        <time>2011-05-07T08:04:18Z</time>
      </trkpt>
      <trkpt lat="43.82153" lon="7.26942">
        <ele>589.425537</ele>
        <time>2011-05-07T08:04:22Z</time>
      </trkpt>
      <trkpt lat="43.82148" lon="7.26919">
        <ele>587.502686</ele>
        <time>2011-05-07T08:04:27Z</time>
      </trkpt>
      <trkpt lat="43.82143" lon="7.26897">
        <ele>586.541504</ele>
        <time>2011-05-07T08:04:30Z</time>
      </trkpt>
      <trkpt lat="43.82138" lon="7.26858">
        <ele>585.099609</ele>
        <time>2011-05-07T08:04:35Z</time>
      </trkpt>
      <trkpt lat="43.82128" lon="7.26829">
        <ele>581.734863</ele>
        <time>2011-05-07T08:04:40Z</time>
      </trkpt>
      <trkpt lat="43.82123" lon="7.26805">
        <ele>578.851074</ele>
        <time>2011-05-07T08:04:43Z</time>
      </trkpt>
      <trkpt lat="43.82128" lon="7.26756">
        <ele>576.928467</ele>
        <time>2011-05-07T08:04:48Z</time>
      </trkpt>
      <trkpt lat="43.82132" lon="7.26741">
        <ele>577.40918</ele>
        <time>2011-05-07T08:04:50Z</time>
      </trkpt>
      <trkpt lat="43.82132" lon="7.26726">
        <ele>577.40918</ele>
        <time>2011-05-07T08:04:52Z</time>
      </trkpt>
      <trkpt lat="43.82133" lon="7.26695">
        <ele>575.005859</ele>
        <time>2011-05-07T08:04:56Z</time>
      </trkpt>
      <trkpt lat="43.82124" lon="7.26674">
        <ele>574.044434</ele>
        <time>2011-05-07T08:05:00Z</time>
      </trkpt>
      <trkpt lat="43.82115" lon="7.26665">
        <ele>573.563965</ele>
        <time>2011-05-07T08:05:02Z</time>
      </trkpt>
      <trkpt lat="43.82105" lon="7.26655">
        <ele>572.602539</ele>
        <time>2011-05-07T08:05:04Z</time>
      </trkpt>
      <trkpt lat="43.82088" lon="7.26644">
        <ele>571.640869</ele>
        <time>2011-05-07T08:05:07Z</time>
      </trkpt>
      <trkpt lat="43.82063" lon="7.26634">
        <ele>568.75708</ele>
        <time>2011-05-07T08:05:12Z</time>
      </trkpt>
      <trkpt lat="43.82056" lon="7.26632">
        <ele>567.795654</ele>
        <time>2011-05-07T08:05:13Z</time>
      </trkpt>
      <trkpt lat="43.82038" lon="7.26626">
        <ele>564.911865</ele>
        <time>2011-05-07T08:05:16Z</time>
      </trkpt>
      <trkpt lat="43.8201" lon="7.26621">
        <ele>558.66333</ele>
        <time>2011-05-07T08:05:21Z</time>
      </trkpt>
      <trkpt lat="43.81993" lon="7.26622">
        <ele>554.817871</ele>
        <time>2011-05-07T08:05:24Z</time>
      </trkpt>
      <trkpt lat="43.81966" lon="7.26628">
        <ele>549.530762</ele>
        <time>2011-05-07T08:05:29Z</time>
      </trkpt>
      <trkpt lat="43.81942" lon="7.26635">
        <ele>544.724243</ele>
        <time>2011-05-07T08:05:33Z</time>
      </trkpt>
      <trkpt lat="43.81929" lon="7.26638">
        <ele>541.84021</ele>
        <time>2011-05-07T08:05:36Z</time>
      </trkpt>
      <trkpt lat="43.81915" lon="7.26642">
        <ele>540.398315</ele>
        <time>2011-05-07T08:05:39Z</time>
      </trkpt>
      <trkpt lat="43.81899" lon="7.26642">
        <ele>537.514282</ele>
        <time>2011-05-07T08:05:45Z</time>
      </trkpt>
      <trkpt lat="43.81891" lon="7.26646">
        <ele>535.591553</ele>
        <time>2011-05-07T08:05:49Z</time>
      </trkpt>
      <trkpt lat="43.8187" lon="7.2666">
        <ele>530.785156</ele>
        <time>2011-05-07T08:05:53Z</time>
      </trkpt>
      <trkpt lat="43.8186" lon="7.26668">
        <ele>528.862549</ele>
        <time>2011-05-07T08:05:55Z</time>
      </trkpt>
      <trkpt lat="43.81847" lon="7.26674">
        <ele>525.978394</ele>
        <time>2011-05-07T08:05:58Z</time>
      </trkpt>
      <trkpt lat="43.81822" lon="7.26697">
        <ele>525.017212</ele>
        <time>2011-05-07T08:06:03Z</time>
      </trkpt>
      <trkpt lat="43.81809" lon="7.26711">
        <ele>523.575195</ele>
        <time>2011-05-07T08:06:06Z</time>
      </trkpt>
      <trkpt lat="43.81806" lon="7.26714">
        <ele>523.094604</ele>
        <time>2011-05-07T08:06:07Z</time>
      </trkpt>
      <trkpt lat="43.81765" lon="7.26741">
        <ele>519.249268</ele>
        <time>2011-05-07T08:06:15Z</time>
      </trkpt>
      <trkpt lat="43.8176" lon="7.26744">
        <ele>518.768555</ele>
        <time>2011-05-07T08:06:16Z</time>
      </trkpt>
      <trkpt lat="43.81737" lon="7.26765">
        <ele>516.365234</ele>
        <time>2011-05-07T08:06:21Z</time>
      </trkpt>
      <trkpt lat="43.81719" lon="7.26772">
        <ele>513.481445</ele>
        <time>2011-05-07T08:06:25Z</time>
      </trkpt>
      <trkpt lat="43.8171" lon="7.2677">
        <ele>513.481445</ele>
        <time>2011-05-07T08:06:27Z</time>
      </trkpt>
      <trkpt lat="43.81682" lon="7.26771">
        <ele>507.713501</ele>
        <time>2011-05-07T08:06:32Z</time>
      </trkpt>
      <trkpt lat="43.81658" lon="7.26782">
        <ele>504.348877</ele>
        <time>2011-05-07T08:06:36Z</time>
      </trkpt>
      <trkpt lat="43.81624" lon="7.26801">
        <ele>500.50354</ele>
        <time>2011-05-07T08:06:42Z</time>
      </trkpt>
      <trkpt lat="43.81604" lon="7.268">
        <ele>494.255005</ele>
        <time>2011-05-07T08:06:47Z</time>
      </trkpt>
      <trkpt lat="43.81591" lon="7.26799">
        <ele>490.40979</ele>
        <time>2011-05-07T08:06:50Z</time>
      </trkpt>
      <trkpt lat="43.81581" lon="7.26795">
        <ele>488.967773</ele>
        <time>2011-05-07T08:06:52Z</time>
      </trkpt>
      <trkpt lat="43.81556" lon="7.26789">
        <ele>488.00647</ele>
        <time>2011-05-07T08:06:57Z</time>
      </trkpt>
      <trkpt lat="43.81516" lon="7.26806">
        <ele>482.719238</ele>
        <time>2011-05-07T08:07:04Z</time>
      </trkpt>
      <trkpt lat="43.81507" lon="7.26807">
        <ele>481.757813</ele>
        <time>2011-05-07T08:07:06Z</time>
      </trkpt>
      <trkpt lat="43.81503" lon="7.26789">
        <ele>480.315918</ele>
        <time>2011-05-07T08:07:10Z</time>
      </trkpt>
      <trkpt lat="43.81502" lon="7.26784">
        <ele>481.277222</ele>
        <time>2011-05-07T08:07:11Z</time>
      </trkpt>
      <trkpt lat="43.81501" lon="7.26776">
        <ele>482.719238</ele>
        <time>2011-05-07T08:07:17Z</time>
      </trkpt>
      <trkpt lat="43.815" lon="7.26771">
        <ele>483.68042</ele>
        <time>2011-05-07T08:07:25Z</time>
      </trkpt>
      <trkpt lat="43.8149" lon="7.26757">
        <ele>482.238525</ele>
        <time>2011-05-07T08:07:31Z</time>
      </trkpt>
      <trkpt lat="43.81474" lon="7.26758">
        <ele>481.277222</ele>
        <time>2011-05-07T08:07:36Z</time>
      </trkpt>
      <trkpt lat="43.81456" lon="7.26762">
        <ele>479.835083</ele>
        <time>2011-05-07T08:07:41Z</time>
      </trkpt>
      <trkpt lat="43.81437" lon="7.26764">
        <ele>478.873901</ele>
        <time>2011-05-07T08:07:45Z</time>
      </trkpt>
      <trkpt lat="43.81395" lon="7.26753">
        <ele>477.912476</ele>
        <time>2011-05-07T08:07:52Z</time>
      </trkpt>
      <trkpt lat="43.81361" lon="7.26736">
        <ele>475.989868</ele>
        <time>2011-05-07T08:07:57Z</time>
      </trkpt>
      <trkpt lat="43.81345" lon="7.26732">
        <ele>475.028687</ele>
        <time>2011-05-07T08:07:59Z</time>
      </trkpt>
      <trkpt lat="43.8131" lon="7.26738">
        <ele>471.66394</ele>
        <time>2011-05-07T08:08:04Z</time>
      </trkpt>
      <trkpt lat="43.81261" lon="7.26766">
        <ele>468.299316</ele>
        <time>2011-05-07T08:08:11Z</time>
      </trkpt>
      <trkpt lat="43.8122" lon="7.26773">
        <ele>463.492798</ele>
        <time>2011-05-07T08:08:16Z</time>
      </trkpt>
      <trkpt lat="43.81211" lon="7.26771">
        <ele>462.531372</ele>
        <time>2011-05-07T08:08:17Z</time>
      </trkpt>
      <trkpt lat="43.81166" lon="7.26761">
        <ele>459.16687</ele>
        <time>2011-05-07T08:08:22Z</time>
      </trkpt>
      <trkpt lat="43.81128" lon="7.26769">
        <ele>455.802246</ele>
        <time>2011-05-07T08:08:26Z</time>
      </trkpt>
      <trkpt lat="43.8111" lon="7.26779">
        <ele>453.398926</ele>
        <time>2011-05-07T08:08:28Z</time>
      </trkpt>
      <trkpt lat="43.81091" lon="7.26786">
        <ele>450.515015</ele>
        <time>2011-05-07T08:08:30Z</time>
      </trkpt>
      <trkpt lat="43.81041" lon="7.26782">
        <ele>446.189087</ele>
        <time>2011-05-07T08:08:35Z</time>
      </trkpt>
      <trkpt lat="43.81" lon="7.26782">
        <ele>443.305054</ele>
        <time>2011-05-07T08:08:39Z</time>
      </trkpt>
      <trkpt lat="43.80949" lon="7.26798">
        <ele>438.979126</ele>
        <time>2011-05-07T08:08:44Z</time>
      </trkpt>
      <trkpt lat="43.80876" lon="7.26818">
        <ele>433.691895</ele>
        <time>2011-05-07T08:08:51Z</time>
      </trkpt>
      <trkpt lat="43.80834" lon="7.26811">
        <ele>431.288574</ele>
        <time>2011-05-07T08:08:55Z</time>
      </trkpt>
      <trkpt lat="43.80814" lon="7.26803">
        <ele>429.846558</ele>
        <time>2011-05-07T08:08:57Z</time>
      </trkpt>
      <trkpt lat="43.80772" lon="7.26803">
        <ele>427.443359</ele>
        <time>2011-05-07T08:09:01Z</time>
      </trkpt>
      <trkpt lat="43.80762" lon="7.26807">
        <ele>426.962769</ele>
        <time>2011-05-07T08:09:02Z</time>
      </trkpt>
      <trkpt lat="43.80703" lon="7.26836">
        <ele>422.636719</ele>
        <time>2011-05-07T08:09:08Z</time>
      </trkpt>
      <trkpt lat="43.80677" lon="7.26859">
        <ele>420.233398</ele>
        <time>2011-05-07T08:09:11Z</time>
      </trkpt>
      <trkpt lat="43.80639" lon="7.26883">
        <ele>417.8302</ele>
        <time>2011-05-07T08:09:15Z</time>
      </trkpt>
      <trkpt lat="43.80569" lon="7.26909">
        <ele>411.581665</ele>
        <time>2011-05-07T08:09:22Z</time>
      </trkpt>
      <trkpt lat="43.80518" lon="7.26919">
        <ele>408.697632</ele>
        <time>2011-05-07T08:09:27Z</time>
      </trkpt>
      <trkpt lat="43.80462" lon="7.26917">
        <ele>406.294312</ele>
        <time>2011-05-07T08:09:33Z</time>
      </trkpt>
      <trkpt lat="43.8044" lon="7.26916">
        <ele>405.333008</ele>
        <time>2011-05-07T08:09:36Z</time>
      </trkpt>
      <trkpt lat="43.80426" lon="7.26912">
        <ele>404.371704</ele>
        <time>2011-05-07T08:09:40Z</time>
      </trkpt>
      <trkpt lat="43.80421" lon="7.26902">
        <ele>399.565063</ele>
        <time>2011-05-07T08:09:45Z</time>
      </trkpt>
      <trkpt lat="43.80434" lon="7.26882">
        <ele>397.642456</ele>
        <time>2011-05-07T08:09:48Z</time>
      </trkpt>
      <trkpt lat="43.80438" lon="7.26874">
        <ele>396.200562</ele>
        <time>2011-05-07T08:09:50Z</time>
      </trkpt>
      <trkpt lat="43.80445" lon="7.26873">
        <ele>391.874512</ele>
        <time>2011-05-07T08:09:54Z</time>
      </trkpt>
      <trkpt lat="43.80447" lon="7.26865">
        <ele>389.471191</ele>
        <time>2011-05-07T08:09:58Z</time>
      </trkpt>
      <trkpt lat="43.80441" lon="7.26853">
        <ele>386.106689</ele>
        <time>2011-05-07T08:10:02Z</time>
      </trkpt>
      <trkpt lat="43.80441" lon="7.26851">
        <ele>385.625977</ele>
        <time>2011-05-07T08:10:03Z</time>
      </trkpt>
      <trkpt lat="43.80443" lon="7.26847">
        <ele>384.664795</ele>
        <time>2011-05-07T08:10:10Z</time>
      </trkpt>
      <trkpt lat="43.80445" lon="7.26846">
        <ele>384.664795</ele>
        <time>2011-05-07T08:10:12Z</time>
      </trkpt>
      <trkpt lat="43.80439" lon="7.26833">
        <ele>386.106689</ele>
        <time>2011-05-07T08:10:16Z</time>
      </trkpt>
      <trkpt lat="43.80444" lon="7.26809">
        <ele>386.587402</ele>
        <time>2011-05-07T08:10:22Z</time>
      </trkpt>
      <trkpt lat="43.8045" lon="7.26795">
        <ele>387.548584</ele>
        <time>2011-05-07T08:10:26Z</time>
      </trkpt>
      <trkpt lat="43.80465" lon="7.2679">
        <ele>388.029297</ele>
        <time>2011-05-07T08:10:31Z</time>
      </trkpt>
      <trkpt lat="43.80484" lon="7.26787">
        <ele>388.029297</ele>
        <time>2011-05-07T08:10:37Z</time>
      </trkpt>
      <trkpt lat="43.80499" lon="7.26787">
        <ele>388.990601</ele>
        <time>2011-05-07T08:10:43Z</time>
      </trkpt>
      <trkpt lat="43.80511" lon="7.26781">
        <ele>388.029297</ele>
        <time>2011-05-07T08:10:49Z</time>
      </trkpt>
      <trkpt lat="43.80524" lon="7.26772">
        <ele>387.548584</ele>
        <time>2011-05-07T08:10:54Z</time>
      </trkpt>
      <trkpt lat="43.80541" lon="7.2676">
        <ele>391.874512</ele>
        <time>2011-05-07T08:11:01Z</time>
      </trkpt>
      <trkpt lat="43.80552" lon="7.26746">
        <ele>395.239136</ele>
        <time>2011-05-07T08:11:07Z</time>
      </trkpt>
      <trkpt lat="43.80554" lon="7.26744">
        <ele>395.719849</ele>
        <time>2011-05-07T08:11:08Z</time>
      </trkpt>
      <trkpt lat="43.80553" lon="7.26733">
        <ele>397.161743</ele>
        <time>2011-05-07T08:11:12Z</time>
      </trkpt>
      <trkpt lat="43.80545" lon="7.26733">
        <ele>398.60376</ele>
        <time>2011-05-07T08:11:15Z</time>
      </trkpt>
      <trkpt lat="43.80524" lon="7.26737">
        <ele>397.642456</ele>
        <time>2011-05-07T08:11:23Z</time>
      </trkpt>
      <trkpt lat="43.80503" lon="7.26733">
        <ele>400.526489</ele>
        <time>2011-05-07T08:11:30Z</time>
      </trkpt>
      <trkpt lat="43.80495" lon="7.2672">
        <ele>403.4104</ele>
        <time>2011-05-07T08:11:35Z</time>
      </trkpt>
      <trkpt lat="43.80487" lon="7.26694">
        <ele>406.774902</ele>
        <time>2011-05-07T08:11:43Z</time>
      </trkpt>
      <trkpt lat="43.80487" lon="7.26672">
        <ele>407.736328</ele>
        <time>2011-05-07T08:11:50Z</time>
      </trkpt>
      <trkpt lat="43.80495" lon="7.26651">
        <ele>408.697632</ele>
        <time>2011-05-07T08:11:57Z</time>
      </trkpt>
      <trkpt lat="43.80502" lon="7.26624">
        <ele>409.178345</ele>
        <time>2011-05-07T08:12:04Z</time>
      </trkpt>
      <trkpt lat="43.80515" lon="7.26588">
        <ele>410.139648</ele>
        <time>2011-05-07T08:12:13Z</time>
      </trkpt>
      <trkpt lat="43.80524" lon="7.26559">
        <ele>411.100952</ele>
        <time>2011-05-07T08:12:20Z</time>
      </trkpt>
      <trkpt lat="43.80534" lon="7.26522">
        <ele>411.581665</ele>
        <time>2011-05-07T08:12:28Z</time>
      </trkpt>
      <trkpt lat="43.80541" lon="7.26486">
        <ele>411.581665</ele>
        <time>2011-05-07T08:12:36Z</time>
      </trkpt>
      <trkpt lat="43.80547" lon="7.26456">
        <ele>412.062256</ele>
        <time>2011-05-07T08:12:43Z</time>
      </trkpt>
      <trkpt lat="43.80553" lon="7.26446">
        <ele>412.542847</ele>
        <time>2011-05-07T08:12:47Z</time>
      </trkpt>
      <trkpt lat="43.80563" lon="7.26438">
        <ele>413.984863</ele>
        <time>2011-05-07T08:12:53Z</time>
      </trkpt>
      <trkpt lat="43.80576" lon="7.26426">
        <ele>415.907471</ele>
        <time>2011-05-07T08:13:01Z</time>
      </trkpt>
      <trkpt lat="43.80589" lon="7.26416">
        <ele>419.272217</ele>
        <time>2011-05-07T08:13:09Z</time>
      </trkpt>
      <trkpt lat="43.80601" lon="7.26412">
        <ele>421.675415</ele>
        <time>2011-05-07T08:13:17Z</time>
      </trkpt>
      <trkpt lat="43.8061" lon="7.26404">
        <ele>424.078735</ele>
        <time>2011-05-07T08:13:24Z</time>
      </trkpt>
      <trkpt lat="43.8062" lon="7.2639">
        <ele>425.520752</ele>
        <time>2011-05-07T08:13:31Z</time>
      </trkpt>
      <trkpt lat="43.8063" lon="7.2637">
        <ele>428.885376</ele>
        <time>2011-05-07T08:13:39Z</time>
      </trkpt>
      <trkpt lat="43.8064" lon="7.26351">
        <ele>432.25</ele>
        <time>2011-05-07T08:13:48Z</time>
      </trkpt>
      <trkpt lat="43.80648" lon="7.26333">
        <ele>436.575928</ele>
        <time>2011-05-07T08:13:57Z</time>
      </trkpt>
      <trkpt lat="43.80656" lon="7.26317">
        <ele>439.94043</ele>
        <time>2011-05-07T08:14:05Z</time>
      </trkpt>
      <trkpt lat="43.8066" lon="7.26315">
        <ele>441.382446</ele>
        <time>2011-05-07T08:14:08Z</time>
      </trkpt>
      <trkpt lat="43.8066" lon="7.26307">
        <ele>442.343872</ele>
        <time>2011-05-07T08:14:13Z</time>
      </trkpt>
      <trkpt lat="43.80652" lon="7.26293">
        <ele>443.785767</ele>
        <time>2011-05-07T08:14:19Z</time>
      </trkpt>
      <trkpt lat="43.80643" lon="7.26278">
        <ele>442.824463</ele>
        <time>2011-05-07T08:14:24Z</time>
      </trkpt>
      <trkpt lat="43.80629" lon="7.26257">
        <ele>439.94043</ele>
        <time>2011-05-07T08:14:28Z</time>
      </trkpt>
      <trkpt lat="43.80618" lon="7.26249">
        <ele>439.459717</ele>
        <time>2011-05-07T08:14:32Z</time>
      </trkpt>
      <trkpt lat="43.80608" lon="7.26231">
        <ele>438.979126</ele>
        <time>2011-05-07T08:14:37Z</time>
      </trkpt>
      <trkpt lat="43.80605" lon="7.26219">
        <ele>436.095215</ele>
        <time>2011-05-07T08:14:40Z</time>
      </trkpt>
      <trkpt lat="43.80595" lon="7.26219">
        <ele>436.575928</ele>
        <time>2011-05-07T08:14:45Z</time>
      </trkpt>
      <trkpt lat="43.80587" lon="7.2622">
        <ele>435.133911</ele>
        <time>2011-05-07T08:14:49Z</time>
      </trkpt>
      <trkpt lat="43.8058" lon="7.26222">
        <ele>433.691895</ele>
        <time>2011-05-07T08:14:53Z</time>
      </trkpt>
      <trkpt lat="43.80574" lon="7.26222">
        <ele>433.211304</ele>
        <time>2011-05-07T08:14:56Z</time>
      </trkpt>
      <trkpt lat="43.80567" lon="7.26219">
        <ele>432.25</ele>
        <time>2011-05-07T08:14:59Z</time>
      </trkpt>
      <trkpt lat="43.80555" lon="7.26227">
        <ele>434.65332</ele>
        <time>2011-05-07T08:15:04Z</time>
      </trkpt>
      <trkpt lat="43.80546" lon="7.26228">
        <ele>434.65332</ele>
        <time>2011-05-07T08:15:08Z</time>
      </trkpt>
      <trkpt lat="43.80544" lon="7.26226">
        <ele>434.65332</ele>
        <time>2011-05-07T08:15:09Z</time>
      </trkpt>
      <trkpt lat="43.8054" lon="7.26223">
        <ele>435.614502</ele>
        <time>2011-05-07T08:15:11Z</time>
      </trkpt>
      <trkpt lat="43.80531" lon="7.26223">
        <ele>437.537109</ele>
        <time>2011-05-07T08:15:15Z</time>
      </trkpt>
      <trkpt lat="43.80516" lon="7.26213">
        <ele>437.056519</ele>
        <time>2011-05-07T08:15:20Z</time>
      </trkpt>
      <trkpt lat="43.80503" lon="7.26202">
        <ele>435.614502</ele>
        <time>2011-05-07T08:15:24Z</time>
      </trkpt>
      <trkpt lat="43.80495" lon="7.26189">
        <ele>433.211304</ele>
        <time>2011-05-07T08:15:28Z</time>
      </trkpt>
      <trkpt lat="43.80492" lon="7.26175">
        <ele>429.846558</ele>
        <time>2011-05-07T08:15:32Z</time>
      </trkpt>
      <trkpt lat="43.8049" lon="7.26169">
        <ele>427.443359</ele>
        <time>2011-05-07T08:15:34Z</time>
      </trkpt>
      <trkpt lat="43.80479" lon="7.26164">
        <ele>421.675415</ele>
        <time>2011-05-07T08:15:40Z</time>
      </trkpt>
      <trkpt lat="43.80469" lon="7.2616">
        <ele>419.752808</ele>
        <time>2011-05-07T08:15:43Z</time>
      </trkpt>
      <trkpt lat="43.80455" lon="7.26165">
        <ele>420.233398</ele>
        <time>2011-05-07T08:15:48Z</time>
      </trkpt>
      <trkpt lat="43.80447" lon="7.26167">
        <ele>423.117432</ele>
        <time>2011-05-07T08:15:51Z</time>
      </trkpt>
      <trkpt lat="43.80434" lon="7.26166">
        <ele>425.040161</ele>
        <time>2011-05-07T08:15:56Z</time>
      </trkpt>
      <trkpt lat="43.80423" lon="7.26161">
        <ele>427.443359</ele>
        <time>2011-05-07T08:16:02Z</time>
      </trkpt>
      <trkpt lat="43.80421" lon="7.26159">
        <ele>427.92395</ele>
        <time>2011-05-07T08:16:03Z</time>
      </trkpt>
      <trkpt lat="43.80406" lon="7.26152">
        <ele>430.327271</ele>
        <time>2011-05-07T08:16:10Z</time>
      </trkpt>
      <trkpt lat="43.80394" lon="7.26143">
        <ele>432.730713</ele>
        <time>2011-05-07T08:16:16Z</time>
      </trkpt>
      <trkpt lat="43.8038" lon="7.2613">
        <ele>438.017822</ele>
        <time>2011-05-07T08:16:24Z</time>
      </trkpt>
      <trkpt lat="43.80371" lon="7.26123">
        <ele>440.421265</ele>
        <time>2011-05-07T08:16:29Z</time>
      </trkpt>
      <trkpt lat="43.80368" lon="7.26118">
        <ele>441.863159</ele>
        <time>2011-05-07T08:16:32Z</time>
      </trkpt>
      <trkpt lat="43.80366" lon="7.26107">
        <ele>443.305054</ele>
        <time>2011-05-07T08:16:37Z</time>
      </trkpt>
      <trkpt lat="43.80359" lon="7.26108">
        <ele>443.785767</ele>
        <time>2011-05-07T08:16:41Z</time>
      </trkpt>
      <trkpt lat="43.80353" lon="7.26107">
        <ele>444.74707</ele>
        <time>2011-05-07T08:16:44Z</time>
      </trkpt>
      <trkpt lat="43.80334" lon="7.26096">
        <ele>443.785767</ele>
        <time>2011-05-07T08:16:53Z</time>
      </trkpt>
      <trkpt lat="43.80324" lon="7.26086">
        <ele>442.343872</ele>
        <time>2011-05-07T08:16:58Z</time>
      </trkpt>
      <trkpt lat="43.80323" lon="7.26085">
        <ele>442.343872</ele>
        <time>2011-05-07T08:16:59Z</time>
      </trkpt>
      <trkpt lat="43.80318" lon="7.26075">
        <ele>445.708374</ele>
        <time>2011-05-07T08:17:05Z</time>
      </trkpt>
      <trkpt lat="43.80314" lon="7.26068">
        <ele>447.150269</ele>
        <time>2011-05-07T08:17:10Z</time>
      </trkpt>
      <trkpt lat="43.80311" lon="7.26063">
        <ele>448.592407</ele>
        <time>2011-05-07T08:17:13Z</time>
      </trkpt>
      <trkpt lat="43.80303" lon="7.26055">
        <ele>448.111816</ele>
        <time>2011-05-07T08:17:20Z</time>
      </trkpt>
      <trkpt lat="43.80292" lon="7.2605">
        <ele>449.553711</ele>
        <time>2011-05-07T08:17:26Z</time>
      </trkpt>
      <trkpt lat="43.80283" lon="7.26044">
        <ele>450.515015</ele>
        <time>2011-05-07T08:17:31Z</time>
      </trkpt>
      <trkpt lat="43.80275" lon="7.26039">
        <ele>450.515015</ele>
        <time>2011-05-07T08:17:37Z</time>
      </trkpt>
      <trkpt lat="43.80271" lon="7.26038">
        <ele>450.515015</ele>
        <time>2011-05-07T08:17:40Z</time>
      </trkpt>
      <trkpt lat="43.80266" lon="7.26032">
        <ele>450.034424</ele>
        <time>2011-05-07T08:17:44Z</time>
      </trkpt>
      <trkpt lat="43.80257" lon="7.26024">
        <ele>452.437622</ele>
        <time>2011-05-07T08:17:49Z</time>
      </trkpt>
      <trkpt lat="43.8025" lon="7.26021">
        <ele>454.360229</ele>
        <time>2011-05-07T08:17:54Z</time>
      </trkpt>
      <trkpt lat="43.80244" lon="7.26017">
        <ele>456.282959</ele>
        <time>2011-05-07T08:17:59Z</time>
      </trkpt>
      <trkpt lat="43.80236" lon="7.26013">
        <ele>460.128174</ele>
        <time>2011-05-07T08:18:04Z</time>
      </trkpt>
      <trkpt lat="43.80233" lon="7.26012">
        <ele>461.089478</ele>
        <time>2011-05-07T08:18:06Z</time>
      </trkpt>
      <trkpt lat="43.80231" lon="7.26009">
        <ele>461.57019</ele>
        <time>2011-05-07T08:18:13Z</time>
      </trkpt>
      <trkpt lat="43.80225" lon="7.26004">
        <ele>460.608765</ele>
        <time>2011-05-07T08:18:20Z</time>
      </trkpt>
      <trkpt lat="43.80222" lon="7.26002">
        <ele>460.608765</ele>
        <time>2011-05-07T08:18:23Z</time>
      </trkpt>
      <trkpt lat="43.80219" lon="7.25996">
        <ele>461.57019</ele>
        <time>2011-05-07T08:18:28Z</time>
      </trkpt>
      <trkpt lat="43.80217" lon="7.25988">
        <ele>463.012085</ele>
        <time>2011-05-07T08:18:36Z</time>
      </trkpt>
      <trkpt lat="43.80214" lon="7.25986">
        <ele>460.608765</ele>
        <time>2011-05-07T08:18:41Z</time>
      </trkpt>
      <trkpt lat="43.80208" lon="7.25984">
        <ele>459.16687</ele>
        <time>2011-05-07T08:18:46Z</time>
      </trkpt>
      <trkpt lat="43.80201" lon="7.25974">
        <ele>460.608765</ele>
        <time>2011-05-07T08:18:53Z</time>
      </trkpt>
      <trkpt lat="43.80194" lon="7.25969">
        <ele>462.531372</ele>
        <time>2011-05-07T08:18:59Z</time>
      </trkpt>
      <trkpt lat="43.80189" lon="7.25965">
        <ele>466.376709</ele>
        <time>2011-05-07T08:19:02Z</time>
      </trkpt>
      <trkpt lat="43.80177" lon="7.25957">
        <ele>474.067261</ele>
        <time>2011-05-07T08:19:09Z</time>
      </trkpt>
      <trkpt lat="43.80168" lon="7.25949">
        <ele>475.509277</ele>
        <time>2011-05-07T08:19:14Z</time>
      </trkpt>
      <trkpt lat="43.80156" lon="7.25944">
        <ele>472.144653</ele>
        <time>2011-05-07T08:19:18Z</time>
      </trkpt>
      <trkpt lat="43.80151" lon="7.25938">
        <ele>473.106079</ele>
        <time>2011-05-07T08:19:21Z</time>
      </trkpt>
      <trkpt lat="43.80142" lon="7.2593">
        <ele>471.66394</ele>
        <time>2011-05-07T08:19:27Z</time>
      </trkpt>
      <trkpt lat="43.80131" lon="7.25919">
        <ele>475.028687</ele>
        <time>2011-05-07T08:19:33Z</time>
      </trkpt>
      <trkpt lat="43.80128" lon="7.25914">
        <ele>475.509277</ele>
        <time>2011-05-07T08:19:35Z</time>
      </trkpt>
      <trkpt lat="43.80124" lon="7.25905">
        <ele>475.509277</ele>
        <time>2011-05-07T08:19:39Z</time>
      </trkpt>
      <trkpt lat="43.8012" lon="7.25888">
        <ele>474.067261</ele>
        <time>2011-05-07T08:19:46Z</time>
      </trkpt>
      <trkpt lat="43.80117" lon="7.25876">
        <ele>475.028687</ele>
        <time>2011-05-07T08:19:51Z</time>
      </trkpt>
      <trkpt lat="43.80116" lon="7.2587">
        <ele>475.028687</ele>
        <time>2011-05-07T08:19:54Z</time>
      </trkpt>
      <trkpt lat="43.80114" lon="7.25856">
        <ele>475.989868</ele>
        <time>2011-05-07T08:20:00Z</time>
      </trkpt>
      <trkpt lat="43.80114" lon="7.25855">
        <ele>475.989868</ele>
        <time>2011-05-07T08:20:01Z</time>
      </trkpt>
      <trkpt lat="43.80111" lon="7.2584">
        <ele>475.509277</ele>
        <time>2011-05-07T08:20:06Z</time>
      </trkpt>
      <trkpt lat="43.8011" lon="7.25837">
        <ele>474.547974</ele>
        <time>2011-05-07T08:20:07Z</time>
      </trkpt>
      <trkpt lat="43.80106" lon="7.25831">
        <ele>473.58667</ele>
        <time>2011-05-07T08:20:10Z</time>
      </trkpt>
      <trkpt lat="43.80096" lon="7.25837">
        <ele>476.951294</ele>
        <time>2011-05-07T08:20:15Z</time>
      </trkpt>
      <trkpt lat="43.80095" lon="7.25838">
        <ele>477.431885</ele>
        <time>2011-05-07T08:20:16Z</time>
      </trkpt>
      <trkpt lat="43.80085" lon="7.25853">
        <ele>477.431885</ele>
        <time>2011-05-07T08:20:24Z</time>
      </trkpt>
      <trkpt lat="43.80073" lon="7.25869">
        <ele>475.509277</ele>
        <time>2011-05-07T08:20:29Z</time>
      </trkpt>
      <trkpt lat="43.80053" lon="7.25889">
        <ele>475.989868</ele>
        <time>2011-05-07T08:20:34Z</time>
      </trkpt>
      <trkpt lat="43.80048" lon="7.25892">
        <ele>475.989868</ele>
        <time>2011-05-07T08:20:35Z</time>
      </trkpt>
      <trkpt lat="43.80034" lon="7.25896">
        <ele>473.58667</ele>
        <time>2011-05-07T08:20:38Z</time>
      </trkpt>
      <trkpt lat="43.80018" lon="7.2589">
        <ele>469.260742</ele>
        <time>2011-05-07T08:20:42Z</time>
      </trkpt>
      <trkpt lat="43.8001" lon="7.25884">
        <ele>466.857422</ele>
        <time>2011-05-07T08:20:44Z</time>
      </trkpt>
      <trkpt lat="43.79995" lon="7.25863">
        <ele>462.531372</ele>
        <time>2011-05-07T08:20:49Z</time>
      </trkpt>
      <trkpt lat="43.79992" lon="7.2586">
        <ele>462.050781</ele>
        <time>2011-05-07T08:20:50Z</time>
      </trkpt>
      <trkpt lat="43.79987" lon="7.25855">
        <ele>464.454102</ele>
        <time>2011-05-07T08:20:54Z</time>
      </trkpt>
      <trkpt lat="43.7998" lon="7.2586">
        <ele>466.857422</ele>
        <time>2011-05-07T08:20:59Z</time>
      </trkpt>
      <trkpt lat="43.79979" lon="7.25862">
        <ele>466.857422</ele>
        <time>2011-05-07T08:21:00Z</time>
      </trkpt>
      <trkpt lat="43.79972" lon="7.25874">
        <ele>472.625366</ele>
        <time>2011-05-07T08:21:07Z</time>
      </trkpt>
      <trkpt lat="43.79968" lon="7.25887">
        <ele>473.58667</ele>
        <time>2011-05-07T08:21:12Z</time>
      </trkpt>
      <trkpt lat="43.79968" lon="7.25892">
        <ele>472.625366</ele>
        <time>2011-05-07T08:21:14Z</time>
      </trkpt>
      <trkpt lat="43.79964" lon="7.25906">
        <ele>471.66394</ele>
        <time>2011-05-07T08:21:20Z</time>
      </trkpt>
      <trkpt lat="43.79961" lon="7.25916">
        <ele>475.509277</ele>
        <time>2011-05-07T08:21:25Z</time>
      </trkpt>
      <trkpt lat="43.7996" lon="7.25924">
        <ele>478.393188</ele>
        <time>2011-05-07T08:21:29Z</time>
      </trkpt>
      <trkpt lat="43.79961" lon="7.25932">
        <ele>478.393188</ele>
        <time>2011-05-07T08:21:32Z</time>
      </trkpt>
      <trkpt lat="43.79963" lon="7.25953">
        <ele>479.835083</ele>
        <time>2011-05-07T08:21:40Z</time>
      </trkpt>
      <trkpt lat="43.79961" lon="7.25967">
        <ele>481.277222</ele>
        <time>2011-05-07T08:21:46Z</time>
      </trkpt>
      <trkpt lat="43.7995" lon="7.25988">
        <ele>478.393188</ele>
        <time>2011-05-07T08:21:53Z</time>
      </trkpt>
      <trkpt lat="43.7994" lon="7.26002">
        <ele>478.873901</ele>
        <time>2011-05-07T08:21:57Z</time>
      </trkpt>
      <trkpt lat="43.79932" lon="7.26013">
        <ele>478.873901</ele>
        <time>2011-05-07T08:22:02Z</time>
      </trkpt>
      <trkpt lat="43.7992" lon="7.26024">
        <ele>480.315918</ele>
        <time>2011-05-07T08:22:07Z</time>
      </trkpt>
      <trkpt lat="43.79899" lon="7.26041">
        <ele>480.796631</ele>
        <time>2011-05-07T08:22:13Z</time>
      </trkpt>
      <trkpt lat="43.79878" lon="7.2606">
        <ele>477.912476</ele>
        <time>2011-05-07T08:22:17Z</time>
      </trkpt>
      <trkpt lat="43.79853" lon="7.26097">
        <ele>471.66394</ele>
        <time>2011-05-07T08:22:23Z</time>
      </trkpt>
      <trkpt lat="43.79829" lon="7.26126">
        <ele>465.415527</ele>
        <time>2011-05-07T08:22:28Z</time>
      </trkpt>
      <trkpt lat="43.79818" lon="7.26142">
        <ele>461.089478</ele>
        <time>2011-05-07T08:22:32Z</time>
      </trkpt>
      <trkpt lat="43.79809" lon="7.26135">
        <ele>458.686157</ele>
        <time>2011-05-07T08:22:35Z</time>
      </trkpt>
      <trkpt lat="43.798" lon="7.26127">
        <ele>457.244263</ele>
        <time>2011-05-07T08:22:37Z</time>
      </trkpt>
      <trkpt lat="43.79786" lon="7.2611">
        <ele>453.398926</ele>
        <time>2011-05-07T08:22:43Z</time>
      </trkpt>
      <trkpt lat="43.79781" lon="7.26097">
        <ele>452.918213</ele>
        <time>2011-05-07T08:22:47Z</time>
      </trkpt>
      <trkpt lat="43.7977" lon="7.26073">
        <ele>453.879639</ele>
        <time>2011-05-07T08:22:52Z</time>
      </trkpt>
      <trkpt lat="43.7975" lon="7.26026">
        <ele>456.282959</ele>
        <time>2011-05-07T08:22:59Z</time>
      </trkpt>
      <trkpt lat="43.79728" lon="7.25967">
        <ele>455.321533</ele>
        <time>2011-05-07T08:23:07Z</time>
      </trkpt>
      <trkpt lat="43.79722" lon="7.25953">
        <ele>455.321533</ele>
        <time>2011-05-07T08:23:09Z</time>
      </trkpt>
      <trkpt lat="43.79711" lon="7.25917">
        <ele>456.76355</ele>
        <time>2011-05-07T08:23:14Z</time>
      </trkpt>
      <trkpt lat="43.79709" lon="7.2586">
        <ele>460.128174</ele>
        <time>2011-05-07T08:23:22Z</time>
      </trkpt>
      <trkpt lat="43.79717" lon="7.25822">
        <ele>460.608765</ele>
        <time>2011-05-07T08:23:28Z</time>
      </trkpt>
      <trkpt lat="43.79726" lon="7.2579">
        <ele>461.57019</ele>
        <time>2011-05-07T08:23:33Z</time>
      </trkpt>
      <trkpt lat="43.79729" lon="7.25777">
        <ele>460.608765</ele>
        <time>2011-05-07T08:23:35Z</time>
      </trkpt>
      <trkpt lat="43.79738" lon="7.25755">
        <ele>458.205566</ele>
        <time>2011-05-07T08:23:39Z</time>
      </trkpt>
      <trkpt lat="43.79743" lon="7.25735">
        <ele>455.802246</ele>
        <time>2011-05-07T08:23:42Z</time>
      </trkpt>
      <trkpt lat="43.79749" lon="7.25708">
        <ele>460.128174</ele>
        <time>2011-05-07T08:23:46Z</time>
      </trkpt>
      <trkpt lat="43.79753" lon="7.2568">
        <ele>459.647583</ele>
        <time>2011-05-07T08:23:50Z</time>
      </trkpt>
      <trkpt lat="43.79747" lon="7.25641">
        <ele>458.205566</ele>
        <time>2011-05-07T08:23:55Z</time>
      </trkpt>
      <trkpt lat="43.79726" lon="7.2561">
        <ele>463.492798</ele>
        <time>2011-05-07T08:24:00Z</time>
      </trkpt>
      <trkpt lat="43.7972" lon="7.25608">
        <ele>465.896118</ele>
        <time>2011-05-07T08:24:01Z</time>
      </trkpt>
      <trkpt lat="43.79686" lon="7.25611">
        <ele>471.18335</ele>
        <time>2011-05-07T08:24:07Z</time>
      </trkpt>
      <trkpt lat="43.79681" lon="7.25614">
        <ele>472.144653</ele>
        <time>2011-05-07T08:24:08Z</time>
      </trkpt>
      <trkpt lat="43.79666" lon="7.25627">
        <ele>475.028687</ele>
        <time>2011-05-07T08:24:11Z</time>
      </trkpt>
      <trkpt lat="43.79639" lon="7.25649">
        <ele>478.393188</ele>
        <time>2011-05-07T08:24:16Z</time>
      </trkpt>
      <trkpt lat="43.7962" lon="7.25666">
        <ele>480.315918</ele>
        <time>2011-05-07T08:24:20Z</time>
      </trkpt>
      <trkpt lat="43.79598" lon="7.25672">
        <ele>482.238525</ele>
        <time>2011-05-07T08:24:24Z</time>
      </trkpt>
      <trkpt lat="43.79576" lon="7.25667">
        <ele>483.68042</ele>
        <time>2011-05-07T08:24:28Z</time>
      </trkpt>
      <trkpt lat="43.79561" lon="7.25649">
        <ele>486.08374</ele>
        <time>2011-05-07T08:24:32Z</time>
      </trkpt>
      <trkpt lat="43.79557" lon="7.25636">
        <ele>486.564453</ele>
        <time>2011-05-07T08:24:34Z</time>
      </trkpt>
      <trkpt lat="43.7954" lon="7.2559">
        <ele>490.40979</ele>
        <time>2011-05-07T08:24:41Z</time>
      </trkpt>
      <trkpt lat="43.79531" lon="7.25564">
        <ele>493.293579</ele>
        <time>2011-05-07T08:24:45Z</time>
      </trkpt>
      <trkpt lat="43.79509" lon="7.25532">
        <ele>490.40979</ele>
        <time>2011-05-07T08:24:51Z</time>
      </trkpt>
      <trkpt lat="43.79491" lon="7.2553">
        <ele>486.564453</ele>
        <time>2011-05-07T08:24:55Z</time>
      </trkpt>
      <trkpt lat="43.79487" lon="7.25532">
        <ele>486.08374</ele>
        <time>2011-05-07T08:24:56Z</time>
      </trkpt>
      <trkpt lat="43.79456" lon="7.25553">
        <ele>484.641846</ele>
        <time>2011-05-07T08:25:03Z</time>
      </trkpt>
      <trkpt lat="43.79451" lon="7.25555">
        <ele>484.641846</ele>
        <time>2011-05-07T08:25:04Z</time>
      </trkpt>
      <trkpt lat="43.79418" lon="7.25558">
        <ele>485.603027</ele>
        <time>2011-05-07T08:25:10Z</time>
      </trkpt>
      <trkpt lat="43.79402" lon="7.25551">
        <ele>486.564453</ele>
        <time>2011-05-07T08:25:13Z</time>
      </trkpt>
      <trkpt lat="43.79357" lon="7.2552">
        <ele>489.929077</ele>
        <time>2011-05-07T08:25:22Z</time>
      </trkpt>
      <trkpt lat="43.79348" lon="7.25512">
        <ele>489.448364</ele>
        <time>2011-05-07T08:25:24Z</time>
      </trkpt>
      <trkpt lat="43.79325" lon="7.25484">
        <ele>488.00647</ele>
        <time>2011-05-07T08:25:30Z</time>
      </trkpt>
      <trkpt lat="43.7932" lon="7.25472">
        <ele>487.525635</ele>
        <time>2011-05-07T08:25:32Z</time>
      </trkpt>
      <trkpt lat="43.79314" lon="7.25452">
        <ele>488.00647</ele>
        <time>2011-05-07T08:25:35Z</time>
      </trkpt>
      <trkpt lat="43.79311" lon="7.25409">
        <ele>487.525635</ele>
        <time>2011-05-07T08:25:41Z</time>
      </trkpt>
      <trkpt lat="43.7931" lon="7.25373">
        <ele>485.603027</ele>
        <time>2011-05-07T08:25:46Z</time>
      </trkpt>
      <trkpt lat="43.79309" lon="7.25357">
        <ele>484.641846</ele>
        <time>2011-05-07T08:25:48Z</time>
      </trkpt>
      <trkpt lat="43.79305" lon="7.25334">
        <ele>482.238525</ele>
        <time>2011-05-07T08:25:51Z</time>
      </trkpt>
      <trkpt lat="43.79292" lon="7.2531">
        <ele>482.238525</ele>
        <time>2011-05-07T08:25:55Z</time>
      </trkpt>
      <trkpt lat="43.79273" lon="7.253">
        <ele>483.68042</ele>
        <time>2011-05-07T08:25:59Z</time>
      </trkpt>
      <trkpt lat="43.79248" lon="7.25305">
        <ele>485.603027</ele>
        <time>2011-05-07T08:26:04Z</time>
      </trkpt>
      <trkpt lat="43.792" lon="7.25333">
        <ele>486.08374</ele>
        <time>2011-05-07T08:26:14Z</time>
      </trkpt>
      <trkpt lat="43.79153" lon="7.25358">
        <ele>484.161133</ele>
        <time>2011-05-07T08:26:24Z</time>
      </trkpt>
      <trkpt lat="43.79112" lon="7.25366">
        <ele>480.315918</ele>
        <time>2011-05-07T08:26:32Z</time>
      </trkpt>
      <trkpt lat="43.79068" lon="7.25367">
        <ele>479.835083</ele>
        <time>2011-05-07T08:26:40Z</time>
      </trkpt>
      <trkpt lat="43.79025" lon="7.25368">
        <ele>488.00647</ele>
        <time>2011-05-07T08:26:47Z</time>
      </trkpt>
      <trkpt lat="43.78982" lon="7.25365">
        <ele>498.100342</ele>
        <time>2011-05-07T08:26:54Z</time>
      </trkpt>
      <trkpt lat="43.78969" lon="7.25362">
        <ele>501.945557</ele>
        <time>2011-05-07T08:26:56Z</time>
      </trkpt>
      <trkpt lat="43.78944" lon="7.25351">
        <ele>512.039429</ele>
        <time>2011-05-07T08:27:00Z</time>
      </trkpt>
      <trkpt lat="43.78927" lon="7.25319">
        <ele>514.92334</ele>
        <time>2011-05-07T08:27:05Z</time>
      </trkpt>
      <trkpt lat="43.78913" lon="7.25281">
        <ele>513.481445</ele>
        <time>2011-05-07T08:27:10Z</time>
      </trkpt>
      <trkpt lat="43.78902" lon="7.25262">
        <ele>513.000732</ele>
        <time>2011-05-07T08:27:13Z</time>
      </trkpt>
      <trkpt lat="43.78875" lon="7.25244">
        <ele>511.078003</ele>
        <time>2011-05-07T08:27:18Z</time>
      </trkpt>
      <trkpt lat="43.7884" lon="7.25239">
        <ele>511.078003</ele>
        <time>2011-05-07T08:27:24Z</time>
      </trkpt>
      <trkpt lat="43.78817" lon="7.25229">
        <ele>514.442627</ele>
        <time>2011-05-07T08:27:28Z</time>
      </trkpt>
      <trkpt lat="43.78807" lon="7.25221">
        <ele>513.000732</ele>
        <time>2011-05-07T08:27:30Z</time>
      </trkpt>
      <trkpt lat="43.78781" lon="7.25209">
        <ele>509.155396</ele>
        <time>2011-05-07T08:27:35Z</time>
      </trkpt>
      <trkpt lat="43.78755" lon="7.25217">
        <ele>503.868164</ele>
        <time>2011-05-07T08:27:40Z</time>
      </trkpt>
      <trkpt lat="43.78746" lon="7.25225">
        <ele>500.984131</ele>
        <time>2011-05-07T08:27:42Z</time>
      </trkpt>
      <trkpt lat="43.78722" lon="7.25249">
        <ele>497.138916</ele>
        <time>2011-05-07T08:27:48Z</time>
      </trkpt>
      <trkpt lat="43.78687" lon="7.2526">
        <ele>495.216187</ele>
        <time>2011-05-07T08:27:53Z</time>
      </trkpt>
      <trkpt lat="43.7868" lon="7.25261">
        <ele>496.658325</ele>
        <time>2011-05-07T08:27:54Z</time>
      </trkpt>
      <trkpt lat="43.78638" lon="7.25253">
        <ele>500.022949</ele>
        <time>2011-05-07T08:28:01Z</time>
      </trkpt>
      <trkpt lat="43.78604" lon="7.25253">
        <ele>501.945557</ele>
        <time>2011-05-07T08:28:07Z</time>
      </trkpt>
      <trkpt lat="43.78569" lon="7.2526">
        <ele>510.59729</ele>
        <time>2011-05-07T08:28:13Z</time>
      </trkpt>
      <trkpt lat="43.78526" lon="7.25261">
        <ele>512.52002</ele>
        <time>2011-05-07T08:28:20Z</time>
      </trkpt>
      <trkpt lat="43.78484" lon="7.25273">
        <ele>515.404053</ele>
        <time>2011-05-07T08:28:27Z</time>
      </trkpt>
      <trkpt lat="43.78442" lon="7.25286">
        <ele>513.962036</ele>
        <time>2011-05-07T08:28:35Z</time>
      </trkpt>
      <trkpt lat="43.784" lon="7.25302">
        <ele>507.713501</ele>
        <time>2011-05-07T08:28:43Z</time>
      </trkpt>
      <trkpt lat="43.78355" lon="7.25323">
        <ele>503.387451</ele>
        <time>2011-05-07T08:28:52Z</time>
      </trkpt>
      <trkpt lat="43.78318" lon="7.25354">
        <ele>509.636108</ele>
        <time>2011-05-07T08:28:59Z</time>
      </trkpt>
      <trkpt lat="43.78284" lon="7.25381">
        <ele>513.962036</ele>
        <time>2011-05-07T08:29:06Z</time>
      </trkpt>
      <trkpt lat="43.78262" lon="7.25394">
        <ele>514.92334</ele>
        <time>2011-05-07T08:29:10Z</time>
      </trkpt>
      <trkpt lat="43.78236" lon="7.25392">
        <ele>512.52002</ele>
        <time>2011-05-07T08:29:15Z</time>
      </trkpt>
      <trkpt lat="43.78224" lon="7.25372">
        <ele>513.481445</ele>
        <time>2011-05-07T08:29:19Z</time>
      </trkpt>
      <trkpt lat="43.78222" lon="7.25366">
        <ele>514.442627</ele>
        <time>2011-05-07T08:29:20Z</time>
      </trkpt>
      <trkpt lat="43.78212" lon="7.25337">
        <ele>519.729858</ele>
        <time>2011-05-07T08:29:25Z</time>
      </trkpt>
      <trkpt lat="43.78205" lon="7.25302">
        <ele>522.133179</ele>
        <time>2011-05-07T08:29:31Z</time>
      </trkpt>
      <trkpt lat="43.78193" lon="7.2528">
        <ele>524.055786</ele>
        <time>2011-05-07T08:29:36Z</time>
      </trkpt>
      <trkpt lat="43.78173" lon="7.25264">
        <ele>526.939819</ele>
        <time>2011-05-07T08:29:41Z</time>
      </trkpt>
      <trkpt lat="43.7816" lon="7.25249">
        <ele>530.304443</ele>
        <time>2011-05-07T08:29:47Z</time>
      </trkpt>
      <trkpt lat="43.78158" lon="7.25233">
        <ele>534.149658</ele>
        <time>2011-05-07T08:29:53Z</time>
      </trkpt>
      <trkpt lat="43.78168" lon="7.25216">
        <ele>536.553101</ele>
        <time>2011-05-07T08:29:59Z</time>
      </trkpt>
      <trkpt lat="43.78191" lon="7.25186">
        <ele>536.072388</ele>
        <time>2011-05-07T08:30:06Z</time>
      </trkpt>
      <trkpt lat="43.78202" lon="7.25173">
        <ele>536.072388</ele>
        <time>2011-05-07T08:30:10Z</time>
      </trkpt>
      <trkpt lat="43.78216" lon="7.25147">
        <ele>535.591553</ele>
        <time>2011-05-07T08:30:15Z</time>
      </trkpt>
      <trkpt lat="43.78228" lon="7.25121">
        <ele>534.630371</ele>
        <time>2011-05-07T08:30:20Z</time>
      </trkpt>
      <trkpt lat="43.7823" lon="7.25117">
        <ele>534.630371</ele>
        <time>2011-05-07T08:30:21Z</time>
      </trkpt>
      <trkpt lat="43.78229" lon="7.25099">
        <ele>533.188354</ele>
        <time>2011-05-07T08:30:27Z</time>
      </trkpt>
      <trkpt lat="43.7823" lon="7.25097">
        <ele>533.668945</ele>
        <time>2011-05-07T08:30:28Z</time>
      </trkpt>
      <trkpt lat="43.78226" lon="7.25086">
        <ele>531.265747</ele>
        <time>2011-05-07T08:30:35Z</time>
      </trkpt>
      <trkpt lat="43.78226" lon="7.25083">
        <ele>532.227051</ele>
        <time>2011-05-07T08:30:38Z</time>
      </trkpt>
      <trkpt lat="43.78229" lon="7.25073">
        <ele>536.553101</ele>
        <time>2011-05-07T08:30:46Z</time>
      </trkpt>
      <trkpt lat="43.78228" lon="7.25072">
        <ele>536.553101</ele>
        <time>2011-05-07T08:30:47Z</time>
      </trkpt>
      <trkpt lat="43.78225" lon="7.2506">
        <ele>538.475708</ele>
        <time>2011-05-07T08:30:55Z</time>
      </trkpt>
      <trkpt lat="43.78225" lon="7.25058">
        <ele>538.475708</ele>
        <time>2011-05-07T08:30:56Z</time>
      </trkpt>
      <trkpt lat="43.78226" lon="7.25049">
        <ele>541.359497</ele>
        <time>2011-05-07T08:31:03Z</time>
      </trkpt>
      <trkpt lat="43.78226" lon="7.25043">
        <ele>543.762817</ele>
        <time>2011-05-07T08:31:10Z</time>
      </trkpt>
      <trkpt lat="43.78228" lon="7.25035">
        <ele>545.685547</ele>
        <time>2011-05-07T08:31:18Z</time>
      </trkpt>
      <trkpt lat="43.78225" lon="7.25021">
        <ele>546.646851</ele>
        <time>2011-05-07T08:31:25Z</time>
      </trkpt>
      <trkpt lat="43.78219" lon="7.25">
        <ele>547.608154</ele>
        <time>2011-05-07T08:31:34Z</time>
      </trkpt>
      <trkpt lat="43.78215" lon="7.24991">
        <ele>547.127441</ele>
        <time>2011-05-07T08:31:38Z</time>
      </trkpt>
      <trkpt lat="43.78212" lon="7.24985">
        <ele>547.608154</ele>
        <time>2011-05-07T08:31:42Z</time>
      </trkpt>
      <trkpt lat="43.78208" lon="7.24973">
        <ele>549.530762</ele>
        <time>2011-05-07T08:31:49Z</time>
      </trkpt>
      <trkpt lat="43.78207" lon="7.24963">
        <ele>550.492188</ele>
        <time>2011-05-07T08:31:55Z</time>
      </trkpt>
      <trkpt lat="43.78204" lon="7.24953">
        <ele>551.934082</ele>
        <time>2011-05-07T08:32:01Z</time>
      </trkpt>
      <trkpt lat="43.78204" lon="7.24948">
        <ele>552.414551</ele>
        <time>2011-05-07T08:32:07Z</time>
      </trkpt>
      <trkpt lat="43.78202" lon="7.24943">
        <ele>554.817871</ele>
        <time>2011-05-07T08:32:14Z</time>
      </trkpt>
      <trkpt lat="43.78198" lon="7.24935">
        <ele>558.182861</ele>
        <time>2011-05-07T08:32:22Z</time>
      </trkpt>
      <trkpt lat="43.78192" lon="7.2493">
        <ele>560.105225</ele>
        <time>2011-05-07T08:32:31Z</time>
      </trkpt>
      <trkpt lat="43.78187" lon="7.24923">
        <ele>560.585938</ele>
        <time>2011-05-07T08:32:40Z</time>
      </trkpt>
      <trkpt lat="43.78183" lon="7.24916">
        <ele>560.585938</ele>
        <time>2011-05-07T08:32:47Z</time>
      </trkpt>
      <trkpt lat="43.78179" lon="7.24912">
        <ele>561.06665</ele>
        <time>2011-05-07T08:32:52Z</time>
      </trkpt>
      <trkpt lat="43.78174" lon="7.24907">
        <ele>561.547363</ele>
        <time>2011-05-07T08:32:56Z</time>
      </trkpt>
      <trkpt lat="43.7816" lon="7.24896">
        <ele>562.508545</ele>
        <time>2011-05-07T08:33:06Z</time>
      </trkpt>
      <trkpt lat="43.78146" lon="7.24888">
        <ele>565.392578</ele>
        <time>2011-05-07T08:33:15Z</time>
      </trkpt>
      <trkpt lat="43.78137" lon="7.24881">
        <ele>564.431152</ele>
        <time>2011-05-07T08:33:23Z</time>
      </trkpt>
      <trkpt lat="43.78125" lon="7.24877">
        <ele>568.75708</ele>
        <time>2011-05-07T08:33:31Z</time>
      </trkpt>
      <trkpt lat="43.78117" lon="7.24874">
        <ele>571.1604</ele>
        <time>2011-05-07T08:33:37Z</time>
      </trkpt>
      <trkpt lat="43.78105" lon="7.24872">
        <ele>575.005859</ele>
        <time>2011-05-07T08:33:45Z</time>
      </trkpt>
      <trkpt lat="43.78099" lon="7.24873">
        <ele>577.40918</ele>
        <time>2011-05-07T08:33:51Z</time>
      </trkpt>
      <trkpt lat="43.78097" lon="7.24873">
        <ele>578.370361</ele>
        <time>2011-05-07T08:33:57Z</time>
      </trkpt>
      <trkpt lat="43.78092" lon="7.24871">
        <ele>581.254395</ele>
        <time>2011-05-07T08:34:04Z</time>
      </trkpt>
      <trkpt lat="43.78086" lon="7.24872">
        <ele>585.099609</ele>
        <time>2011-05-07T08:34:11Z</time>
      </trkpt>
      <trkpt lat="43.78078" lon="7.24872">
        <ele>589.90625</ele>
        <time>2011-05-07T08:34:19Z</time>
      </trkpt>
      <trkpt lat="43.78075" lon="7.2487">
        <ele>591.348145</ele>
        <time>2011-05-07T08:34:23Z</time>
      </trkpt>
      <trkpt lat="43.78069" lon="7.2487">
        <ele>590.867432</ele>
        <time>2011-05-07T08:34:32Z</time>
      </trkpt>
      <trkpt lat="43.78062" lon="7.24872">
        <ele>592.790283</ele>
        <time>2011-05-07T08:34:41Z</time>
      </trkpt>
      <trkpt lat="43.78056" lon="7.24872">
        <ele>595.193359</ele>
        <time>2011-05-07T08:34:48Z</time>
      </trkpt>
      <trkpt lat="43.7805" lon="7.24871">
        <ele>596.154785</ele>
        <time>2011-05-07T08:34:56Z</time>
      </trkpt>
      <trkpt lat="43.78041" lon="7.24871">
        <ele>599.519287</ele>
        <time>2011-05-07T08:35:05Z</time>
      </trkpt>
      <trkpt lat="43.78035" lon="7.24869">
        <ele>598.077393</ele>
        <time>2011-05-07T08:35:14Z</time>
      </trkpt>
      <trkpt lat="43.78028" lon="7.24869">
        <ele>600</ele>
        <time>2011-05-07T08:35:23Z</time>
      </trkpt>
      <trkpt lat="43.78021" lon="7.24869">
        <ele>605.768066</ele>
        <time>2011-05-07T08:35:32Z</time>
      </trkpt>
      <trkpt lat="43.78017" lon="7.24868">
        <ele>607.209961</ele>
        <time>2011-05-07T08:35:38Z</time>
      </trkpt>
      <trkpt lat="43.78008" lon="7.2487">
        <ele>609.613281</ele>
        <time>2011-05-07T08:35:48Z</time>
      </trkpt>
      <trkpt lat="43.77998" lon="7.24867">
        <ele>610.574463</ele>
        <time>2011-05-07T08:35:58Z</time>
      </trkpt>
      <trkpt lat="43.77993" lon="7.24866">
        <ele>609.132568</ele>
        <time>2011-05-07T08:36:03Z</time>
      </trkpt>
      <trkpt lat="43.77981" lon="7.24862">
        <ele>607.690674</ele>
        <time>2011-05-07T08:36:10Z</time>
      </trkpt>
      <trkpt lat="43.7798" lon="7.24855">
        <ele>604.806641</ele>
        <time>2011-05-07T08:36:14Z</time>
      </trkpt>
      <trkpt lat="43.7798" lon="7.24847">
        <ele>602.403076</ele>
        <time>2011-05-07T08:36:21Z</time>
      </trkpt>
      <trkpt lat="43.77981" lon="7.24841">
        <ele>600.961182</ele>
        <time>2011-05-07T08:36:26Z</time>
      </trkpt>
      <trkpt lat="43.77977" lon="7.24827">
        <ele>600</ele>
        <time>2011-05-07T08:36:33Z</time>
      </trkpt>
      <trkpt lat="43.77977" lon="7.24823">
        <ele>599.519287</ele>
        <time>2011-05-07T08:36:38Z</time>
      </trkpt>
      <trkpt lat="43.77976" lon="7.24816">
        <ele>599.038574</ele>
        <time>2011-05-07T08:36:44Z</time>
      </trkpt>
      <trkpt lat="43.77977" lon="7.24811">
        <ele>598.557861</ele>
        <time>2011-05-07T08:36:50Z</time>
      </trkpt>
      <trkpt lat="43.77974" lon="7.24804">
        <ele>599.038574</ele>
        <time>2011-05-07T08:36:57Z</time>
      </trkpt>
      <trkpt lat="43.77973" lon="7.24797">
        <ele>600</ele>
        <time>2011-05-07T08:37:04Z</time>
      </trkpt>
      <trkpt lat="43.77972" lon="7.2479">
        <ele>600</ele>
        <time>2011-05-07T08:37:10Z</time>
      </trkpt>
      <trkpt lat="43.77968" lon="7.24788">
        <ele>600.961182</ele>
        <time>2011-05-07T08:37:15Z</time>
      </trkpt>
      <trkpt lat="43.77964" lon="7.24796">
        <ele>600.961182</ele>
        <time>2011-05-07T08:37:23Z</time>
      </trkpt>
      <trkpt lat="43.77959" lon="7.24798">
        <ele>604.326172</ele>
        <time>2011-05-07T08:37:29Z</time>
      </trkpt>
      <trkpt lat="43.77954" lon="7.24802">
        <ele>606.729248</ele>
        <time>2011-05-07T08:37:36Z</time>
      </trkpt>
      <trkpt lat="43.7795" lon="7.24811">
        <ele>608.651855</ele>
        <time>2011-05-07T08:37:43Z</time>
      </trkpt>
      <trkpt lat="43.77949" lon="7.24812">
        <ele>608.651855</ele>
        <time>2011-05-07T08:37:44Z</time>
      </trkpt>
      <trkpt lat="43.77947" lon="7.24815">
        <ele>609.132568</ele>
        <time>2011-05-07T08:37:47Z</time>
      </trkpt>
      <trkpt lat="43.77944" lon="7.24816">
        <ele>612.49707</ele>
        <time>2011-05-07T08:37:52Z</time>
      </trkpt>
      <trkpt lat="43.7794" lon="7.24815">
        <ele>615.861816</ele>
        <time>2011-05-07T08:37:58Z</time>
      </trkpt>
      <trkpt lat="43.77935" lon="7.24816">
        <ele>618.264893</ele>
        <time>2011-05-07T08:38:03Z</time>
      </trkpt>
      <trkpt lat="43.77932" lon="7.24808">
        <ele>617.78418</ele>
        <time>2011-05-07T08:38:11Z</time>
      </trkpt>
      <trkpt lat="43.77929" lon="7.24801">
        <ele>620.668457</ele>
        <time>2011-05-07T08:38:17Z</time>
      </trkpt>
      <trkpt lat="43.77924" lon="7.24801">
        <ele>624.032959</ele>
        <time>2011-05-07T08:38:21Z</time>
      </trkpt>
      <trkpt lat="43.77919" lon="7.248">
        <ele>628.8396</ele>
        <time>2011-05-07T08:38:27Z</time>
      </trkpt>
      <trkpt lat="43.77912" lon="7.24797">
        <ele>632.204102</ele>
        <time>2011-05-07T08:38:35Z</time>
      </trkpt>
      <trkpt lat="43.77906" lon="7.24796">
        <ele>633.165283</ele>
        <time>2011-05-07T08:38:42Z</time>
      </trkpt>
      <trkpt lat="43.779" lon="7.24802">
        <ele>634.126709</ele>
        <time>2011-05-07T08:38:50Z</time>
      </trkpt>
      <trkpt lat="43.77893" lon="7.24806">
        <ele>640.375488</ele>
        <time>2011-05-07T08:38:58Z</time>
      </trkpt>
      <trkpt lat="43.77886" lon="7.24813">
        <ele>644.220703</ele>
        <time>2011-05-07T08:39:06Z</time>
      </trkpt>
      <trkpt lat="43.77881" lon="7.24817">
        <ele>645.181885</ele>
        <time>2011-05-07T08:39:13Z</time>
      </trkpt>
      <trkpt lat="43.77875" lon="7.24823">
        <ele>646.143311</ele>
        <time>2011-05-07T08:39:21Z</time>
      </trkpt>
      <trkpt lat="43.77866" lon="7.24829">
        <ele>647.104492</ele>
        <time>2011-05-07T08:39:31Z</time>
      </trkpt>
      <trkpt lat="43.77858" lon="7.24831">
        <ele>653.833984</ele>
        <time>2011-05-07T08:39:41Z</time>
      </trkpt>
      <trkpt lat="43.77853" lon="7.24836">
        <ele>654.314697</ele>
        <time>2011-05-07T08:39:48Z</time>
      </trkpt>
      <trkpt lat="43.77847" lon="7.24842">
        <ele>657.198486</ele>
        <time>2011-05-07T08:39:57Z</time>
      </trkpt>
      <trkpt lat="43.77843" lon="7.24849">
        <ele>657.198486</ele>
        <time>2011-05-07T08:40:04Z</time>
      </trkpt>
      <trkpt lat="43.77837" lon="7.24853">
        <ele>658.640381</ele>
        <time>2011-05-07T08:40:12Z</time>
      </trkpt>
      <trkpt lat="43.77831" lon="7.24854">
        <ele>663.92749</ele>
        <time>2011-05-07T08:40:19Z</time>
      </trkpt>
      <trkpt lat="43.77826" lon="7.24856">
        <ele>666.811523</ele>
        <time>2011-05-07T08:40:26Z</time>
      </trkpt>
      <trkpt lat="43.77821" lon="7.24859">
        <ele>667.772705</ele>
        <time>2011-05-07T08:40:33Z</time>
      </trkpt>
      <trkpt lat="43.77815" lon="7.24863">
        <ele>666.330811</ele>
        <time>2011-05-07T08:40:40Z</time>
      </trkpt>
      <trkpt lat="43.77809" lon="7.24867">
        <ele>671.137695</ele>
        <time>2011-05-07T08:40:48Z</time>
      </trkpt>
      <trkpt lat="43.77804" lon="7.24868">
        <ele>669.215088</ele>
        <time>2011-05-07T08:40:55Z</time>
      </trkpt>
      <trkpt lat="43.77797" lon="7.24866">
        <ele>671.137695</ele>
        <time>2011-05-07T08:41:03Z</time>
      </trkpt>
      <trkpt lat="43.7779" lon="7.24865">
        <ele>670.17627</ele>
        <time>2011-05-07T08:41:11Z</time>
      </trkpt>
      <trkpt lat="43.77787" lon="7.24868">
        <ele>670.17627</ele>
        <time>2011-05-07T08:41:17Z</time>
      </trkpt>
      <trkpt lat="43.77783" lon="7.24871">
        <ele>671.137695</ele>
        <time>2011-05-07T08:41:22Z</time>
      </trkpt>
      <trkpt lat="43.77781" lon="7.24873">
        <ele>671.137695</ele>
        <time>2011-05-07T08:41:24Z</time>
      </trkpt>
      <trkpt lat="43.77774" lon="7.24882">
        <ele>669.695801</ele>
        <time>2011-05-07T08:41:30Z</time>
      </trkpt>
      <trkpt lat="43.77766" lon="7.2489">
        <ele>666.811523</ele>
        <time>2011-05-07T08:41:37Z</time>
      </trkpt>
      <trkpt lat="43.77753" lon="7.24895">
        <ele>667.772705</ele>
        <time>2011-05-07T08:41:41Z</time>
      </trkpt>
      <trkpt lat="43.77731" lon="7.24902">
        <ele>669.215088</ele>
        <time>2011-05-07T08:41:46Z</time>
      </trkpt>
      <trkpt lat="43.77721" lon="7.24907">
        <ele>670.17627</ele>
        <time>2011-05-07T08:41:48Z</time>
      </trkpt>
      <trkpt lat="43.77706" lon="7.24914">
        <ele>671.137695</ele>
        <time>2011-05-07T08:41:51Z</time>
      </trkpt>
      <trkpt lat="43.77691" lon="7.24919">
        <ele>671.618164</ele>
        <time>2011-05-07T08:41:54Z</time>
      </trkpt>
      <trkpt lat="43.77674" lon="7.24912">
        <ele>669.695801</ele>
        <time>2011-05-07T08:41:58Z</time>
      </trkpt>
      <trkpt lat="43.77671" lon="7.24909">
        <ele>668.253662</ele>
        <time>2011-05-07T08:41:59Z</time>
      </trkpt>
      <trkpt lat="43.77655" lon="7.24904">
        <ele>667.772705</ele>
        <time>2011-05-07T08:42:04Z</time>
      </trkpt>
      <trkpt lat="43.77639" lon="7.24905">
        <ele>671.137695</ele>
        <time>2011-05-07T08:42:12Z</time>
      </trkpt>
      <trkpt lat="43.77623" lon="7.24904">
        <ele>670.17627</ele>
        <time>2011-05-07T08:42:20Z</time>
      </trkpt>
      <trkpt lat="43.7761" lon="7.24902">
        <ele>670.17627</ele>
        <time>2011-05-07T08:42:26Z</time>
      </trkpt>
      <trkpt lat="43.77596" lon="7.24905">
        <ele>668.734375</ele>
        <time>2011-05-07T08:42:32Z</time>
      </trkpt>
      <trkpt lat="43.77577" lon="7.24912">
        <ele>669.215088</ele>
        <time>2011-05-07T08:42:38Z</time>
      </trkpt>
      <trkpt lat="43.77564" lon="7.24915">
        <ele>670.656982</ele>
        <time>2011-05-07T08:42:43Z</time>
      </trkpt>
      <trkpt lat="43.77554" lon="7.24919">
        <ele>670.17627</ele>
        <time>2011-05-07T08:42:47Z</time>
      </trkpt>
      <trkpt lat="43.77537" lon="7.24924">
        <ele>672.57959</ele>
        <time>2011-05-07T08:42:53Z</time>
      </trkpt>
      <trkpt lat="43.77525" lon="7.24926">
        <ele>674.021484</ele>
        <time>2011-05-07T08:42:57Z</time>
      </trkpt>
      <trkpt lat="43.77507" lon="7.24931">
        <ele>676.424805</ele>
        <time>2011-05-07T08:43:03Z</time>
      </trkpt>
      <trkpt lat="43.77488" lon="7.24933">
        <ele>677.866699</ele>
        <time>2011-05-07T08:43:09Z</time>
      </trkpt>
      <trkpt lat="43.77464" lon="7.24938">
        <ele>674.98291</ele>
        <time>2011-05-07T08:43:17Z</time>
      </trkpt>
      <trkpt lat="43.77448" lon="7.24938">
        <ele>674.021484</ele>
        <time>2011-05-07T08:43:23Z</time>
      </trkpt>
      <trkpt lat="43.77432" lon="7.24937">
        <ele>673.541016</ele>
        <time>2011-05-07T08:43:29Z</time>
      </trkpt>
      <trkpt lat="43.77429" lon="7.24938">
        <ele>674.502197</ele>
        <time>2011-05-07T08:43:30Z</time>
      </trkpt>
      <trkpt lat="43.77426" lon="7.24941">
        <ele>674.98291</ele>
        <time>2011-05-07T08:43:32Z</time>
      </trkpt>
      <trkpt lat="43.77419" lon="7.24945">
        <ele>676.424805</ele>
        <time>2011-05-07T08:43:36Z</time>
      </trkpt>
      <trkpt lat="43.77409" lon="7.24952">
        <ele>677.866699</ele>
        <time>2011-05-07T08:43:41Z</time>
      </trkpt>
      <trkpt lat="43.77398" lon="7.24955">
        <ele>676.905518</ele>
        <time>2011-05-07T08:43:47Z</time>
      </trkpt>
      <trkpt lat="43.77387" lon="7.24951">
        <ele>677.866699</ele>
        <time>2011-05-07T08:43:51Z</time>
      </trkpt>
      <trkpt lat="43.77375" lon="7.24952">
        <ele>682.192627</ele>
        <time>2011-05-07T08:43:56Z</time>
      </trkpt>
      <trkpt lat="43.77362" lon="7.24953">
        <ele>686.518799</ele>
        <time>2011-05-07T08:44:01Z</time>
      </trkpt>
      <trkpt lat="43.77351" lon="7.24957">
        <ele>689.402588</ele>
        <time>2011-05-07T08:44:06Z</time>
      </trkpt>
      <trkpt lat="43.77344" lon="7.24959">
        <ele>688.441406</ele>
        <time>2011-05-07T08:44:10Z</time>
      </trkpt>
      <trkpt lat="43.7733" lon="7.24958">
        <ele>685.076904</ele>
        <time>2011-05-07T08:44:16Z</time>
      </trkpt>
      <trkpt lat="43.77314" lon="7.24959">
        <ele>687.47998</ele>
        <time>2011-05-07T08:44:23Z</time>
      </trkpt>
      <trkpt lat="43.77299" lon="7.2496">
        <ele>689.883301</ele>
        <time>2011-05-07T08:44:29Z</time>
      </trkpt>
      <trkpt lat="43.77297" lon="7.24961">
        <ele>690.364014</ele>
        <time>2011-05-07T08:44:33Z</time>
      </trkpt>
      <trkpt lat="43.77296" lon="7.24962">
        <ele>691.325195</ele>
        <time>2011-05-07T08:44:40Z</time>
      </trkpt>
      <trkpt lat="43.77293" lon="7.24962">
        <ele>692.286621</ele>
        <time>2011-05-07T08:44:46Z</time>
      </trkpt>
      <trkpt lat="43.77291" lon="7.24963">
        <ele>692.286621</ele>
        <time>2011-05-07T08:44:48Z</time>
      </trkpt>
      <trkpt lat="43.77272" lon="7.24964">
        <ele>689.402588</ele>
        <time>2011-05-07T08:44:56Z</time>
      </trkpt>
      <trkpt lat="43.77248" lon="7.24967">
        <ele>688.441406</ele>
        <time>2011-05-07T08:45:03Z</time>
      </trkpt>
      <trkpt lat="43.77228" lon="7.24973">
        <ele>688.441406</ele>
        <time>2011-05-07T08:45:09Z</time>
      </trkpt>
      <trkpt lat="43.77213" lon="7.24978">
        <ele>689.402588</ele>
        <time>2011-05-07T08:45:14Z</time>
      </trkpt>
      <trkpt lat="43.77198" lon="7.2498">
        <ele>689.402588</ele>
        <time>2011-05-07T08:45:19Z</time>
      </trkpt>
      <trkpt lat="43.77177" lon="7.24981">
        <ele>688.922119</ele>
        <time>2011-05-07T08:45:24Z</time>
      </trkpt>
      <trkpt lat="43.77168" lon="7.24981">
        <ele>688.441406</ele>
        <time>2011-05-07T08:45:26Z</time>
      </trkpt>
      <trkpt lat="43.77158" lon="7.24983">
        <ele>688.441406</ele>
        <time>2011-05-07T08:45:28Z</time>
      </trkpt>
      <trkpt lat="43.7714" lon="7.24985">
        <ele>686.999268</ele>
        <time>2011-05-07T08:45:32Z</time>
      </trkpt>
      <trkpt lat="43.77121" lon="7.24985">
        <ele>687.47998</ele>
        <time>2011-05-07T08:45:36Z</time>
      </trkpt>
      <trkpt lat="43.77102" lon="7.24984">
        <ele>689.883301</ele>
        <time>2011-05-07T08:45:40Z</time>
      </trkpt>
      <trkpt lat="43.77078" lon="7.24987">
        <ele>688.441406</ele>
        <time>2011-05-07T08:45:45Z</time>
      </trkpt>
      <trkpt lat="43.77069" lon="7.24982">
        <ele>687.960693</ele>
        <time>2011-05-07T08:45:47Z</time>
      </trkpt>
      <trkpt lat="43.77062" lon="7.24977">
        <ele>686.518799</ele>
        <time>2011-05-07T08:45:49Z</time>
      </trkpt>
      <trkpt lat="43.77051" lon="7.24967">
        <ele>684.596191</ele>
        <time>2011-05-07T08:45:52Z</time>
      </trkpt>
      <trkpt lat="43.77037" lon="7.2496">
        <ele>684.115479</ele>
        <time>2011-05-07T08:45:56Z</time>
      </trkpt>
      <trkpt lat="43.77023" lon="7.2496">
        <ele>686.999268</ele>
        <time>2011-05-07T08:46:00Z</time>
      </trkpt>
      <trkpt lat="43.77021" lon="7.24962">
        <ele>687.960693</ele>
        <time>2011-05-07T08:46:01Z</time>
      </trkpt>
      <trkpt lat="43.7701" lon="7.2497">
        <ele>689.402588</ele>
        <time>2011-05-07T08:46:07Z</time>
      </trkpt>
      <trkpt lat="43.76997" lon="7.24977">
        <ele>689.402588</ele>
        <time>2011-05-07T08:46:12Z</time>
      </trkpt>
      <trkpt lat="43.7698" lon="7.24986">
        <ele>689.402588</ele>
        <time>2011-05-07T08:46:18Z</time>
      </trkpt>
      <trkpt lat="43.76963" lon="7.24992">
        <ele>688.441406</ele>
        <time>2011-05-07T08:46:23Z</time>
      </trkpt>
      <trkpt lat="43.7694" lon="7.25">
        <ele>687.47998</ele>
        <time>2011-05-07T08:46:29Z</time>
      </trkpt>
      <trkpt lat="43.76924" lon="7.25006">
        <ele>686.999268</ele>
        <time>2011-05-07T08:46:33Z</time>
      </trkpt>
      <trkpt lat="43.76904" lon="7.25019">
        <ele>685.557373</ele>
        <time>2011-05-07T08:46:37Z</time>
      </trkpt>
      <trkpt lat="43.76873" lon="7.25028">
        <ele>680.750732</ele>
        <time>2011-05-07T08:46:42Z</time>
      </trkpt>
      <trkpt lat="43.76859" lon="7.25029">
        <ele>679.789307</ele>
        <time>2011-05-07T08:46:44Z</time>
      </trkpt>
      <trkpt lat="43.76819" lon="7.25043">
        <ele>676.905518</ele>
        <time>2011-05-07T08:46:50Z</time>
      </trkpt>
      <trkpt lat="43.76804" lon="7.25036">
        <ele>674.98291</ele>
        <time>2011-05-07T08:46:53Z</time>
      </trkpt>
      <trkpt lat="43.76795" lon="7.25027">
        <ele>673.541016</ele>
        <time>2011-05-07T08:46:56Z</time>
      </trkpt>
      <trkpt lat="43.76796" lon="7.25028">
        <ele>668.253662</ele>
        <time>2011-05-07T08:47:00Z</time>
      </trkpt>
      <trkpt lat="43.76797" lon="7.2503">
        <ele>664.408203</ele>
        <time>2011-05-07T08:47:07Z</time>
      </trkpt>
      <trkpt lat="43.76797" lon="7.2503">
        <ele>661.043701</ele>
        <time>2011-05-07T08:47:20Z</time>
      </trkpt>
      <trkpt lat="43.76787" lon="7.2503">
        <ele>661.043701</ele>
        <time>2011-05-07T08:47:25Z</time>
      </trkpt>
      <trkpt lat="43.7678" lon="7.25034">
        <ele>661.043701</ele>
        <time>2011-05-07T08:47:27Z</time>
      </trkpt>
      <trkpt lat="43.76762" lon="7.25039">
        <ele>661.043701</ele>
        <time>2011-05-07T08:47:31Z</time>
      </trkpt>
      <trkpt lat="43.76744" lon="7.25047">
        <ele>661.524414</ele>
        <time>2011-05-07T08:47:35Z</time>
      </trkpt>
      <trkpt lat="43.76732" lon="7.25052">
        <ele>659.601807</ele>
        <time>2011-05-07T08:47:38Z</time>
      </trkpt>
      <trkpt lat="43.76726" lon="7.25051">
        <ele>658.159912</ele>
        <time>2011-05-07T08:47:40Z</time>
      </trkpt>
      <trkpt lat="43.76702" lon="7.25049">
        <ele>654.795166</ele>
        <time>2011-05-07T08:47:46Z</time>
      </trkpt>
      <trkpt lat="43.76688" lon="7.25044">
        <ele>653.353271</ele>
        <time>2011-05-07T08:47:49Z</time>
      </trkpt>
      <trkpt lat="43.76675" lon="7.2506">
        <ele>651.43042</ele>
        <time>2011-05-07T08:47:52Z</time>
      </trkpt>
      <trkpt lat="43.76672" lon="7.25066">
        <ele>650.469238</ele>
        <time>2011-05-07T08:47:53Z</time>
      </trkpt>
      <trkpt lat="43.76666" lon="7.25079">
        <ele>649.0271</ele>
        <time>2011-05-07T08:47:55Z</time>
      </trkpt>
      <trkpt lat="43.76653" lon="7.25089">
        <ele>646.624023</ele>
        <time>2011-05-07T08:47:59Z</time>
      </trkpt>
      <trkpt lat="43.76647" lon="7.2509">
        <ele>646.143311</ele>
        <time>2011-05-07T08:48:00Z</time>
      </trkpt>
      <trkpt lat="43.76618" lon="7.25092">
        <ele>644.701172</ele>
        <time>2011-05-07T08:48:05Z</time>
      </trkpt>
      <trkpt lat="43.76612" lon="7.25093">
        <ele>644.701172</ele>
        <time>2011-05-07T08:48:06Z</time>
      </trkpt>
      <trkpt lat="43.76595" lon="7.25098">
        <ele>645.662598</ele>
        <time>2011-05-07T08:48:09Z</time>
      </trkpt>
      <trkpt lat="43.7657" lon="7.25106">
        <ele>645.662598</ele>
        <time>2011-05-07T08:48:14Z</time>
      </trkpt>
      <trkpt lat="43.76538" lon="7.25124">
        <ele>643.73999</ele>
        <time>2011-05-07T08:48:20Z</time>
      </trkpt>
      <trkpt lat="43.76516" lon="7.25122">
        <ele>640.375488</ele>
        <time>2011-05-07T08:48:24Z</time>
      </trkpt>
      <trkpt lat="43.76489" lon="7.25108">
        <ele>638.452881</ele>
        <time>2011-05-07T08:48:29Z</time>
      </trkpt>
      <trkpt lat="43.76473" lon="7.25106">
        <ele>637.491455</ele>
        <time>2011-05-07T08:48:32Z</time>
      </trkpt>
      <trkpt lat="43.76466" lon="7.25108">
        <ele>637.972168</ele>
        <time>2011-05-07T08:48:34Z</time>
      </trkpt>
      <trkpt lat="43.76454" lon="7.25109">
        <ele>637.010742</ele>
        <time>2011-05-07T08:48:37Z</time>
      </trkpt>
      <trkpt lat="43.76427" lon="7.25119">
        <ele>637.010742</ele>
        <time>2011-05-07T08:48:43Z</time>
      </trkpt>
      <trkpt lat="43.76419" lon="7.25122">
        <ele>636.530273</ele>
        <time>2011-05-07T08:48:45Z</time>
      </trkpt>
      <trkpt lat="43.76397" lon="7.25133">
        <ele>635.568604</ele>
        <time>2011-05-07T08:48:52Z</time>
      </trkpt>
      <trkpt lat="43.76381" lon="7.25147">
        <ele>630.762207</ele>
        <time>2011-05-07T08:48:58Z</time>
      </trkpt>
      <trkpt lat="43.76379" lon="7.2515">
        <ele>629.800781</ele>
        <time>2011-05-07T08:48:59Z</time>
      </trkpt>
      <trkpt lat="43.76378" lon="7.25152">
        <ele>625.474854</ele>
        <time>2011-05-07T08:49:05Z</time>
      </trkpt>
      <trkpt lat="43.76377" lon="7.25153">
        <ele>619.226318</ele>
        <time>2011-05-07T08:49:15Z</time>
      </trkpt>
      <trkpt lat="43.76371" lon="7.2516">
        <ele>617.303711</ele>
        <time>2011-05-07T08:49:19Z</time>
      </trkpt>
      <trkpt lat="43.76361" lon="7.2517">
        <ele>615.861816</ele>
        <time>2011-05-07T08:49:24Z</time>
      </trkpt>
      <trkpt lat="43.76359" lon="7.25173">
        <ele>614.419678</ele>
        <time>2011-05-07T08:49:27Z</time>
      </trkpt>
      <trkpt lat="43.7636" lon="7.25176">
        <ele>607.209961</ele>
        <time>2011-05-07T08:49:45Z</time>
      </trkpt>
      <trkpt lat="43.76359" lon="7.25178">
        <ele>608.171387</ele>
        <time>2011-05-07T08:50:12Z</time>
      </trkpt>
      <trkpt lat="43.7636" lon="7.25179">
        <ele>609.132568</ele>
        <time>2011-05-07T08:50:39Z</time>
      </trkpt>
      <trkpt lat="43.7636" lon="7.25179">
        <ele>609.613281</ele>
        <time>2011-05-07T08:50:51Z</time>
      </trkpt>
      <trkpt lat="43.76361" lon="7.25179">
        <ele>611.535889</ele>
        <time>2011-05-07T08:51:47Z</time>
      </trkpt>
      <trkpt lat="43.76362" lon="7.2518">
        <ele>609.613281</ele>
        <time>2011-05-07T08:52:01Z</time>
      </trkpt>
      <trkpt lat="43.76362" lon="7.25181">
        <ele>608.651855</ele>
        <time>2011-05-07T08:52:03Z</time>
      </trkpt>
      <trkpt lat="43.76362" lon="7.25181">
        <ele>608.171387</ele>
        <time>2011-05-07T08:52:04Z</time>
      </trkpt>
      <trkpt lat="43.76363" lon="7.25182">
        <ele>604.806641</ele>
        <time>2011-05-07T08:52:24Z</time>
      </trkpt>
      <trkpt lat="43.76363" lon="7.25183">
        <ele>600</ele>
        <time>2011-05-07T08:52:58Z</time>
      </trkpt>
      <trkpt lat="43.76363" lon="7.25183">
        <ele>599.038574</ele>
        <time>2011-05-07T08:53:09Z</time>
      </trkpt>
      <trkpt lat="43.76362" lon="7.25182">
        <ele>601.922607</ele>
        <time>2011-05-07T08:54:06Z</time>
      </trkpt>
      <trkpt lat="43.76362" lon="7.25182">
        <ele>601.922607</ele>
        <time>2011-05-07T08:54:11Z</time>
      </trkpt>
      <trkpt lat="43.76361" lon="7.25183">
        <ele>607.690674</ele>
        <time>2011-05-07T08:54:32Z</time>
      </trkpt>
      <trkpt lat="43.7636" lon="7.25183">
        <ele>605.287354</ele>
        <time>2011-05-07T08:54:45Z</time>
      </trkpt>
      <trkpt lat="43.76356" lon="7.2518">
        <ele>609.132568</ele>
        <time>2011-05-07T08:55:17Z</time>
      </trkpt>
      <trkpt lat="43.76357" lon="7.2518">
        <ele>608.651855</ele>
        <time>2011-05-07T08:55:29Z</time>
      </trkpt>
      <trkpt lat="43.76358" lon="7.25178">
        <ele>627.878174</ele>
        <time>2011-05-07T08:56:21Z</time>
      </trkpt>
      <trkpt lat="43.76358" lon="7.25181">
        <ele>618.264893</ele>
        <time>2011-05-07T08:56:43Z</time>
      </trkpt>
      <trkpt lat="43.7636" lon="7.25175">
        <ele>617.78418</ele>
        <time>2011-05-07T08:57:25Z</time>
      </trkpt>
      <trkpt lat="43.7636" lon="7.25176">
        <ele>611.535889</ele>
        <time>2011-05-07T08:58:14Z</time>
      </trkpt>
      <trkpt lat="43.7636" lon="7.2518">
        <ele>612.977783</ele>
        <time>2011-05-07T08:58:50Z</time>
      </trkpt>
      <trkpt lat="43.76359" lon="7.2518">
        <ele>612.016602</ele>
        <time>2011-05-07T08:58:57Z</time>
      </trkpt>
      <trkpt lat="43.76361" lon="7.25179">
        <ele>601.441895</ele>
        <time>2011-05-07T08:59:15Z</time>
      </trkpt>
      <trkpt lat="43.76361" lon="7.25179">
        <ele>598.077393</ele>
        <time>2011-05-07T08:59:24Z</time>
      </trkpt>
      <trkpt lat="43.76359" lon="7.25181">
        <ele>598.557861</ele>
        <time>2011-05-07T08:59:37Z</time>
      </trkpt>
      <trkpt lat="43.76348" lon="7.25177">
        <ele>603.364502</ele>
        <time>2011-05-07T08:59:42Z</time>
      </trkpt>
      <trkpt lat="43.76341" lon="7.25175">
        <ele>606.248535</ele>
        <time>2011-05-07T08:59:45Z</time>
      </trkpt>
      <trkpt lat="43.76336" lon="7.2517">
        <ele>605.287354</ele>
        <time>2011-05-07T08:59:48Z</time>
      </trkpt>
      <trkpt lat="43.76337" lon="7.25162">
        <ele>602.883789</ele>
        <time>2011-05-07T08:59:52Z</time>
      </trkpt>
      <trkpt lat="43.76329" lon="7.25159">
        <ele>605.287354</ele>
        <time>2011-05-07T08:59:56Z</time>
      </trkpt>
      <trkpt lat="43.76322" lon="7.25157">
        <ele>604.326172</ele>
        <time>2011-05-07T09:00:00Z</time>
      </trkpt>
      <trkpt lat="43.76316" lon="7.25151">
        <ele>602.883789</ele>
        <time>2011-05-07T09:00:03Z</time>
      </trkpt>
      <trkpt lat="43.76313" lon="7.25143">
        <ele>598.557861</ele>
        <time>2011-05-07T09:00:06Z</time>
      </trkpt>
      <trkpt lat="43.76317" lon="7.25132">
        <ele>594.712646</ele>
        <time>2011-05-07T09:00:09Z</time>
      </trkpt>
      <trkpt lat="43.76315" lon="7.25126">
        <ele>592.30957</ele>
        <time>2011-05-07T09:00:12Z</time>
      </trkpt>
      <trkpt lat="43.76315" lon="7.25121">
        <ele>588.945068</ele>
        <time>2011-05-07T09:00:14Z</time>
      </trkpt>
      <trkpt lat="43.76316" lon="7.25113">
        <ele>586.541504</ele>
        <time>2011-05-07T09:00:16Z</time>
      </trkpt>
      <trkpt lat="43.76306" lon="7.25113">
        <ele>586.060791</ele>
        <time>2011-05-07T09:00:20Z</time>
      </trkpt>
      <trkpt lat="43.76292" lon="7.25115">
        <ele>584.138184</ele>
        <time>2011-05-07T09:00:25Z</time>
      </trkpt>
      <trkpt lat="43.76286" lon="7.25112">
        <ele>582.215576</ele>
        <time>2011-05-07T09:00:28Z</time>
      </trkpt>
      <trkpt lat="43.76285" lon="7.25111">
        <ele>581.734863</ele>
        <time>2011-05-07T09:00:29Z</time>
      </trkpt>
      <trkpt lat="43.76277" lon="7.25111">
        <ele>579.812256</ele>
        <time>2011-05-07T09:00:32Z</time>
      </trkpt>
      <trkpt lat="43.76274" lon="7.251">
        <ele>574.525146</ele>
        <time>2011-05-07T09:00:36Z</time>
      </trkpt>
      <trkpt lat="43.76266" lon="7.25098">
        <ele>573.083252</ele>
        <time>2011-05-07T09:00:41Z</time>
      </trkpt>
      <trkpt lat="43.76259" lon="7.25097">
        <ele>568.75708</ele>
        <time>2011-05-07T09:00:44Z</time>
      </trkpt>
      <trkpt lat="43.7626" lon="7.25094">
        <ele>567.795654</ele>
        <time>2011-05-07T09:00:45Z</time>
      </trkpt>
      <trkpt lat="43.76258" lon="7.25083">
        <ele>562.508545</ele>
        <time>2011-05-07T09:00:50Z</time>
      </trkpt>
      <trkpt lat="43.76257" lon="7.25076">
        <ele>558.182861</ele>
        <time>2011-05-07T09:00:53Z</time>
      </trkpt>
      <trkpt lat="43.76258" lon="7.25071">
        <ele>555.298584</ele>
        <time>2011-05-07T09:00:55Z</time>
      </trkpt>
      <trkpt lat="43.7626" lon="7.25065">
        <ele>551.934082</ele>
        <time>2011-05-07T09:00:57Z</time>
      </trkpt>
      <trkpt lat="43.76263" lon="7.25059">
        <ele>547.608154</ele>
        <time>2011-05-07T09:01:01Z</time>
      </trkpt>
      <trkpt lat="43.76267" lon="7.25065">
        <ele>549.530762</ele>
        <time>2011-05-07T09:01:22Z</time>
      </trkpt>
      <trkpt lat="43.76267" lon="7.25065">
        <ele>551.934082</ele>
        <time>2011-05-07T09:01:33Z</time>
      </trkpt>
      <trkpt lat="43.76268" lon="7.25066">
        <ele>550.492188</ele>
        <time>2011-05-07T09:01:43Z</time>
      </trkpt>
      <trkpt lat="43.76268" lon="7.25066">
        <ele>550.011475</ele>
        <time>2011-05-07T09:01:50Z</time>
      </trkpt>
      <trkpt lat="43.76268" lon="7.25066">
        <ele>553.375977</ele>
        <time>2011-05-07T09:02:02Z</time>
      </trkpt>
      <trkpt lat="43.76268" lon="7.25066">
        <ele>554.817871</ele>
        <time>2011-05-07T09:02:06Z</time>
      </trkpt>
      <trkpt lat="43.76268" lon="7.25066">
        <ele>555.298584</ele>
        <time>2011-05-07T09:02:07Z</time>
      </trkpt>
      <trkpt lat="43.76266" lon="7.25065">
        <ele>549.050049</ele>
        <time>2011-05-07T09:02:17Z</time>
      </trkpt>
      <trkpt lat="43.76265" lon="7.25064">
        <ele>546.646851</ele>
        <time>2011-05-07T09:02:26Z</time>
      </trkpt>
      <trkpt lat="43.76264" lon="7.25063">
        <ele>546.646851</ele>
        <time>2011-05-07T09:02:34Z</time>
      </trkpt>
      <trkpt lat="43.76264" lon="7.25061">
        <ele>547.608154</ele>
        <time>2011-05-07T09:02:38Z</time>
      </trkpt>
      <trkpt lat="43.76263" lon="7.25061">
        <ele>549.050049</ele>
        <time>2011-05-07T09:02:48Z</time>
      </trkpt>
      <trkpt lat="43.76267" lon="7.25056">
        <ele>549.050049</ele>
        <time>2011-05-07T09:02:52Z</time>
      </trkpt>
      <trkpt lat="43.76268" lon="7.25051">
        <ele>546.646851</ele>
        <time>2011-05-07T09:02:58Z</time>
      </trkpt>
      <trkpt lat="43.76266" lon="7.25048">
        <ele>543.762817</ele>
        <time>2011-05-07T09:03:04Z</time>
      </trkpt>
      <trkpt lat="43.76265" lon="7.25048">
        <ele>545.204834</ele>
        <time>2011-05-07T09:03:05Z</time>
      </trkpt>
      <trkpt lat="43.76259" lon="7.25045">
        <ele>545.685547</ele>
        <time>2011-05-07T09:03:09Z</time>
      </trkpt>
      <trkpt lat="43.76249" lon="7.25046">
        <ele>547.608154</ele>
        <time>2011-05-07T09:03:13Z</time>
      </trkpt>
      <trkpt lat="43.76245" lon="7.25038">
        <ele>542.320923</ele>
        <time>2011-05-07T09:03:18Z</time>
      </trkpt>
      <trkpt lat="43.76248" lon="7.25029">
        <ele>540.878906</ele>
        <time>2011-05-07T09:03:22Z</time>
      </trkpt>
      <trkpt lat="43.76241" lon="7.25029">
        <ele>541.359497</ele>
        <time>2011-05-07T09:03:26Z</time>
      </trkpt>
      <trkpt lat="43.7624" lon="7.25023">
        <ele>537.994995</ele>
        <time>2011-05-07T09:03:29Z</time>
      </trkpt>
      <trkpt lat="43.76236" lon="7.2502">
        <ele>535.591553</ele>
        <time>2011-05-07T09:03:32Z</time>
      </trkpt>
      <trkpt lat="43.76228" lon="7.25015">
        <ele>531.265747</ele>
        <time>2011-05-07T09:03:36Z</time>
      </trkpt>
      <trkpt lat="43.76228" lon="7.25008">
        <ele>524.536499</ele>
        <time>2011-05-07T09:03:40Z</time>
      </trkpt>
      <trkpt lat="43.76226" lon="7.25004">
        <ele>520.691284</ele>
        <time>2011-05-07T09:03:42Z</time>
      </trkpt>
      <trkpt lat="43.7622" lon="7.25001">
        <ele>520.210571</ele>
        <time>2011-05-07T09:03:45Z</time>
      </trkpt>
      <trkpt lat="43.76214" lon="7.25001">
        <ele>520.210571</ele>
        <time>2011-05-07T09:03:48Z</time>
      </trkpt>
      <trkpt lat="43.76204" lon="7.24997">
        <ele>517.32666</ele>
        <time>2011-05-07T09:03:53Z</time>
      </trkpt>
      <trkpt lat="43.762" lon="7.24991">
        <ele>513.481445</ele>
        <time>2011-05-07T09:03:57Z</time>
      </trkpt>
      <trkpt lat="43.76187" lon="7.24994">
        <ele>514.442627</ele>
        <time>2011-05-07T09:04:01Z</time>
      </trkpt>
      <trkpt lat="43.76185" lon="7.2499">
        <ele>511.078003</ele>
        <time>2011-05-07T09:04:04Z</time>
      </trkpt>
      <trkpt lat="43.76183" lon="7.24972">
        <ele>501.945557</ele>
        <time>2011-05-07T09:04:09Z</time>
      </trkpt>
      <trkpt lat="43.76183" lon="7.24965">
        <ele>497.619629</ele>
        <time>2011-05-07T09:04:12Z</time>
      </trkpt>
      <trkpt lat="43.7618" lon="7.24965">
        <ele>497.619629</ele>
        <time>2011-05-07T09:04:16Z</time>
      </trkpt>
      <trkpt lat="43.7617" lon="7.24967">
        <ele>496.177734</ele>
        <time>2011-05-07T09:04:20Z</time>
      </trkpt>
      <trkpt lat="43.7617" lon="7.2496">
        <ele>495.216187</ele>
        <time>2011-05-07T09:04:23Z</time>
      </trkpt>
      <trkpt lat="43.76185" lon="7.24937">
        <ele>490.40979</ele>
        <time>2011-05-07T09:04:29Z</time>
      </trkpt>
      <trkpt lat="43.76186" lon="7.24925">
        <ele>488.487183</ele>
        <time>2011-05-07T09:04:33Z</time>
      </trkpt>
      <trkpt lat="43.76188" lon="7.24909">
        <ele>485.122437</ele>
        <time>2011-05-07T09:04:37Z</time>
      </trkpt>
      <trkpt lat="43.76181" lon="7.24908">
        <ele>483.68042</ele>
        <time>2011-05-07T09:04:40Z</time>
      </trkpt>
      <trkpt lat="43.76175" lon="7.24901">
        <ele>481.277222</ele>
        <time>2011-05-07T09:04:43Z</time>
      </trkpt>
      <trkpt lat="43.76166" lon="7.24899">
        <ele>479.354492</ele>
        <time>2011-05-07T09:04:46Z</time>
      </trkpt>
      <trkpt lat="43.76155" lon="7.24898">
        <ele>478.873901</ele>
        <time>2011-05-07T09:04:49Z</time>
      </trkpt>
      <trkpt lat="43.76148" lon="7.24891">
        <ele>474.547974</ele>
        <time>2011-05-07T09:04:53Z</time>
      </trkpt>
      <trkpt lat="43.76149" lon="7.24887">
        <ele>473.106079</ele>
        <time>2011-05-07T09:04:54Z</time>
      </trkpt>
      <trkpt lat="43.76151" lon="7.24877">
        <ele>470.702637</ele>
        <time>2011-05-07T09:04:56Z</time>
      </trkpt>
      <trkpt lat="43.76145" lon="7.24874">
        <ele>469.741333</ele>
        <time>2011-05-07T09:05:00Z</time>
      </trkpt>
      <trkpt lat="43.76132" lon="7.24874">
        <ele>466.857422</ele>
        <time>2011-05-07T09:05:04Z</time>
      </trkpt>
      <trkpt lat="43.76116" lon="7.24878">
        <ele>466.376709</ele>
        <time>2011-05-07T09:05:09Z</time>
      </trkpt>
      <trkpt lat="43.76105" lon="7.24881">
        <ele>465.415527</ele>
        <time>2011-05-07T09:05:13Z</time>
      </trkpt>
      <trkpt lat="43.7609" lon="7.24886">
        <ele>462.050781</ele>
        <time>2011-05-07T09:05:18Z</time>
      </trkpt>
      <trkpt lat="43.76077" lon="7.2489">
        <ele>464.454102</ele>
        <time>2011-05-07T09:05:22Z</time>
      </trkpt>
      <trkpt lat="43.76065" lon="7.24897">
        <ele>465.896118</ele>
        <time>2011-05-07T09:05:26Z</time>
      </trkpt>
      <trkpt lat="43.76049" lon="7.24902">
        <ele>459.16687</ele>
        <time>2011-05-07T09:05:31Z</time>
      </trkpt>
      <trkpt lat="43.76028" lon="7.249">
        <ele>454.360229</ele>
        <time>2011-05-07T09:05:36Z</time>
      </trkpt>
      <trkpt lat="43.76018" lon="7.24894">
        <ele>452.437622</ele>
        <time>2011-05-07T09:05:40Z</time>
      </trkpt>
      <trkpt lat="43.76023" lon="7.24885">
        <ele>449.553711</ele>
        <time>2011-05-07T09:05:44Z</time>
      </trkpt>
      <trkpt lat="43.76022" lon="7.24882">
        <ele>448.592407</ele>
        <time>2011-05-07T09:05:46Z</time>
      </trkpt>
      <trkpt lat="43.76012" lon="7.24874">
        <ele>447.150269</ele>
        <time>2011-05-07T09:05:50Z</time>
      </trkpt>
      <trkpt lat="43.76004" lon="7.2486">
        <ele>444.74707</ele>
        <time>2011-05-07T09:05:54Z</time>
      </trkpt>
      <trkpt lat="43.76003" lon="7.24856">
        <ele>441.382446</ele>
        <time>2011-05-07T09:06:01Z</time>
      </trkpt>
      <trkpt lat="43.76005" lon="7.24855">
        <ele>448.111816</ele>
        <time>2011-05-07T09:06:18Z</time>
      </trkpt>
      <trkpt lat="43.76003" lon="7.24848">
        <ele>443.785767</ele>
        <time>2011-05-07T09:06:25Z</time>
      </trkpt>
      <trkpt lat="43.75996" lon="7.24827">
        <ele>443.785767</ele>
        <time>2011-05-07T09:06:29Z</time>
      </trkpt>
      <trkpt lat="43.75995" lon="7.24822">
        <ele>442.824463</ele>
        <time>2011-05-07T09:06:30Z</time>
      </trkpt>
      <trkpt lat="43.75991" lon="7.24811">
        <ele>443.785767</ele>
        <time>2011-05-07T09:06:35Z</time>
      </trkpt>
      <trkpt lat="43.75991" lon="7.24796">
        <ele>440.421265</ele>
        <time>2011-05-07T09:06:39Z</time>
      </trkpt>
      <trkpt lat="43.75992" lon="7.24781">
        <ele>436.095215</ele>
        <time>2011-05-07T09:06:44Z</time>
      </trkpt>
      <trkpt lat="43.75998" lon="7.24769">
        <ele>433.691895</ele>
        <time>2011-05-07T09:06:49Z</time>
      </trkpt>
      <trkpt lat="43.75996" lon="7.24763">
        <ele>430.327271</ele>
        <time>2011-05-07T09:06:52Z</time>
      </trkpt>
      <trkpt lat="43.75991" lon="7.24759">
        <ele>429.365967</ele>
        <time>2011-05-07T09:06:54Z</time>
      </trkpt>
      <trkpt lat="43.75965" lon="7.24761">
        <ele>433.211304</ele>
        <time>2011-05-07T09:07:00Z</time>
      </trkpt>
      <trkpt lat="43.75956" lon="7.24763">
        <ele>435.133911</ele>
        <time>2011-05-07T09:07:02Z</time>
      </trkpt>
      <trkpt lat="43.75944" lon="7.2478">
        <ele>434.65332</ele>
        <time>2011-05-07T09:07:06Z</time>
      </trkpt>
      <trkpt lat="43.7594" lon="7.24791">
        <ele>431.288574</ele>
        <time>2011-05-07T09:07:08Z</time>
      </trkpt>
      <trkpt lat="43.75935" lon="7.24802">
        <ele>427.443359</ele>
        <time>2011-05-07T09:07:10Z</time>
      </trkpt>
      <trkpt lat="43.75929" lon="7.2482">
        <ele>425.520752</ele>
        <time>2011-05-07T09:07:13Z</time>
      </trkpt>
      <trkpt lat="43.75927" lon="7.24832">
        <ele>426.482056</ele>
        <time>2011-05-07T09:07:15Z</time>
      </trkpt>
      <trkpt lat="43.75919" lon="7.24856">
        <ele>422.636719</ele>
        <time>2011-05-07T09:07:20Z</time>
      </trkpt>
      <trkpt lat="43.75915" lon="7.24877">
        <ele>421.675415</ele>
        <time>2011-05-07T09:07:23Z</time>
      </trkpt>
      <trkpt lat="43.7591" lon="7.24901">
        <ele>420.714111</ele>
        <time>2011-05-07T09:07:27Z</time>
      </trkpt>
      <trkpt lat="43.75908" lon="7.24911">
        <ele>420.233398</ele>
        <time>2011-05-07T09:07:29Z</time>
      </trkpt>
      <trkpt lat="43.75898" lon="7.24933">
        <ele>418.791504</ele>
        <time>2011-05-07T09:07:34Z</time>
      </trkpt>
      <trkpt lat="43.75895" lon="7.24936">
        <ele>417.8302</ele>
        <time>2011-05-07T09:07:35Z</time>
      </trkpt>
      <trkpt lat="43.75878" lon="7.24955">
        <ele>416.388184</ele>
        <time>2011-05-07T09:07:41Z</time>
      </trkpt>
      <trkpt lat="43.75868" lon="7.24963">
        <ele>417.8302</ele>
        <time>2011-05-07T09:07:45Z</time>
      </trkpt>
      <trkpt lat="43.75858" lon="7.24969">
        <ele>418.310791</ele>
        <time>2011-05-07T09:07:50Z</time>
      </trkpt>
      <trkpt lat="43.75852" lon="7.24983">
        <ele>418.310791</ele>
        <time>2011-05-07T09:07:57Z</time>
      </trkpt>
      <trkpt lat="43.75843" lon="7.24992">
        <ele>420.233398</ele>
        <time>2011-05-07T09:08:02Z</time>
      </trkpt>
      <trkpt lat="43.7584" lon="7.24993">
        <ele>421.194824</ele>
        <time>2011-05-07T09:08:03Z</time>
      </trkpt>
      <trkpt lat="43.75824" lon="7.24999">
        <ele>422.156006</ele>
        <time>2011-05-07T09:08:09Z</time>
      </trkpt>
      <trkpt lat="43.75806" lon="7.25004">
        <ele>424.078735</ele>
        <time>2011-05-07T09:08:15Z</time>
      </trkpt>
      <trkpt lat="43.75795" lon="7.25009">
        <ele>424.078735</ele>
        <time>2011-05-07T09:08:19Z</time>
      </trkpt>
      <trkpt lat="43.75781" lon="7.25023">
        <ele>420.233398</ele>
        <time>2011-05-07T09:08:25Z</time>
      </trkpt>
      <trkpt lat="43.75767" lon="7.25034">
        <ele>419.752808</ele>
        <time>2011-05-07T09:08:30Z</time>
      </trkpt>
      <trkpt lat="43.75761" lon="7.25036">
        <ele>419.272217</ele>
        <time>2011-05-07T09:08:32Z</time>
      </trkpt>
      <trkpt lat="43.75752" lon="7.25048">
        <ele>418.310791</ele>
        <time>2011-05-07T09:08:36Z</time>
      </trkpt>
      <trkpt lat="43.75743" lon="7.25054">
        <ele>418.310791</ele>
        <time>2011-05-07T09:08:39Z</time>
      </trkpt>
      <trkpt lat="43.7574" lon="7.25057">
        <ele>418.791504</ele>
        <time>2011-05-07T09:08:40Z</time>
      </trkpt>
      <trkpt lat="43.75714" lon="7.25077">
        <ele>421.675415</ele>
        <time>2011-05-07T09:08:48Z</time>
      </trkpt>
      <trkpt lat="43.757" lon="7.25091">
        <ele>421.194824</ele>
        <time>2011-05-07T09:08:54Z</time>
      </trkpt>
      <trkpt lat="43.75686" lon="7.25102">
        <ele>420.233398</ele>
        <time>2011-05-07T09:09:00Z</time>
      </trkpt>
      <trkpt lat="43.75674" lon="7.25116">
        <ele>422.156006</ele>
        <time>2011-05-07T09:09:06Z</time>
      </trkpt>
      <trkpt lat="43.75665" lon="7.25126">
        <ele>423.117432</ele>
        <time>2011-05-07T09:09:11Z</time>
      </trkpt>
      <trkpt lat="43.7565" lon="7.25137">
        <ele>426.001343</ele>
        <time>2011-05-07T09:09:17Z</time>
      </trkpt>
      <trkpt lat="43.75637" lon="7.25145">
        <ele>426.962769</ele>
        <time>2011-05-07T09:09:22Z</time>
      </trkpt>
      <trkpt lat="43.75613" lon="7.25152">
        <ele>431.769165</ele>
        <time>2011-05-07T09:09:29Z</time>
      </trkpt>
      <trkpt lat="43.75611" lon="7.25154">
        <ele>432.25</ele>
        <time>2011-05-07T09:09:30Z</time>
      </trkpt>
      <trkpt lat="43.756" lon="7.25163">
        <ele>432.730713</ele>
        <time>2011-05-07T09:09:35Z</time>
      </trkpt>
      <trkpt lat="43.75589" lon="7.25172">
        <ele>428.404663</ele>
        <time>2011-05-07T09:09:40Z</time>
      </trkpt>
      <trkpt lat="43.75578" lon="7.25175">
        <ele>426.962769</ele>
        <time>2011-05-07T09:09:44Z</time>
      </trkpt>
      <trkpt lat="43.75575" lon="7.25177">
        <ele>426.001343</ele>
        <time>2011-05-07T09:09:45Z</time>
      </trkpt>
      <trkpt lat="43.75558" lon="7.25183">
        <ele>426.962769</ele>
        <time>2011-05-07T09:09:51Z</time>
      </trkpt>
      <trkpt lat="43.75542" lon="7.25173">
        <ele>424.559448</ele>
        <time>2011-05-07T09:09:57Z</time>
      </trkpt>
      <trkpt lat="43.75543" lon="7.25173">
        <ele>422.636719</ele>
        <time>2011-05-07T09:10:03Z</time>
      </trkpt>
      <trkpt lat="43.75542" lon="7.25177">
        <ele>424.078735</ele>
        <time>2011-05-07T09:10:08Z</time>
      </trkpt>
      <trkpt lat="43.7554" lon="7.25182">
        <ele>425.040161</ele>
        <time>2011-05-07T09:10:14Z</time>
      </trkpt>
      <trkpt lat="43.75539" lon="7.25183">
        <ele>424.078735</ele>
        <time>2011-05-07T09:10:15Z</time>
      </trkpt>
      <trkpt lat="43.75535" lon="7.25191">
        <ele>421.194824</ele>
        <time>2011-05-07T09:10:19Z</time>
      </trkpt>
      <trkpt lat="43.75525" lon="7.25206">
        <ele>419.752808</ele>
        <time>2011-05-07T09:10:25Z</time>
      </trkpt>
      <trkpt lat="43.75515" lon="7.25221">
        <ele>417.349609</ele>
        <time>2011-05-07T09:10:31Z</time>
      </trkpt>
      <trkpt lat="43.75504" lon="7.25238">
        <ele>416.388184</ele>
        <time>2011-05-07T09:10:37Z</time>
      </trkpt>
      <trkpt lat="43.75497" lon="7.25244">
        <ele>415.42688</ele>
        <time>2011-05-07T09:10:40Z</time>
      </trkpt>
      <trkpt lat="43.75489" lon="7.2524">
        <ele>415.42688</ele>
        <time>2011-05-07T09:10:44Z</time>
      </trkpt>
      <trkpt lat="43.7549" lon="7.25226">
        <ele>416.868896</ele>
        <time>2011-05-07T09:10:47Z</time>
      </trkpt>
      <trkpt lat="43.75481" lon="7.25218">
        <ele>418.791504</ele>
        <time>2011-05-07T09:10:50Z</time>
      </trkpt>
      <trkpt lat="43.75468" lon="7.25221">
        <ele>420.714111</ele>
        <time>2011-05-07T09:10:53Z</time>
      </trkpt>
      <trkpt lat="43.75444" lon="7.2522">
        <ele>422.636719</ele>
        <time>2011-05-07T09:10:59Z</time>
      </trkpt>
      <trkpt lat="43.75434" lon="7.25219">
        <ele>422.636719</ele>
        <time>2011-05-07T09:11:03Z</time>
      </trkpt>
      <trkpt lat="43.7542" lon="7.25225">
        <ele>423.117432</ele>
        <time>2011-05-07T09:11:08Z</time>
      </trkpt>
      <trkpt lat="43.75402" lon="7.25235">
        <ele>424.559448</ele>
        <time>2011-05-07T09:11:12Z</time>
      </trkpt>
      <trkpt lat="43.75385" lon="7.25252">
        <ele>423.598022</ele>
        <time>2011-05-07T09:11:16Z</time>
      </trkpt>
      <trkpt lat="43.75372" lon="7.25275">
        <ele>424.559448</ele>
        <time>2011-05-07T09:11:20Z</time>
      </trkpt>
      <trkpt lat="43.75351" lon="7.25293">
        <ele>423.598022</ele>
        <time>2011-05-07T09:11:25Z</time>
      </trkpt>
      <trkpt lat="43.75327" lon="7.25298">
        <ele>424.078735</ele>
        <time>2011-05-07T09:11:30Z</time>
      </trkpt>
      <trkpt lat="43.75311" lon="7.25305">
        <ele>426.001343</ele>
        <time>2011-05-07T09:11:33Z</time>
      </trkpt>
      <trkpt lat="43.7529" lon="7.253">
        <ele>424.559448</ele>
        <time>2011-05-07T09:11:37Z</time>
      </trkpt>
      <trkpt lat="43.75279" lon="7.253">
        <ele>425.040161</ele>
        <time>2011-05-07T09:11:39Z</time>
      </trkpt>
      <trkpt lat="43.75249" lon="7.25296">
        <ele>426.001343</ele>
        <time>2011-05-07T09:11:45Z</time>
      </trkpt>
      <trkpt lat="43.75238" lon="7.25301">
        <ele>425.040161</ele>
        <time>2011-05-07T09:11:47Z</time>
      </trkpt>
      <trkpt lat="43.75226" lon="7.25325">
        <ele>424.559448</ele>
        <time>2011-05-07T09:11:51Z</time>
      </trkpt>
      <trkpt lat="43.75223" lon="7.2534">
        <ele>423.117432</ele>
        <time>2011-05-07T09:11:54Z</time>
      </trkpt>
      <trkpt lat="43.75216" lon="7.25348">
        <ele>421.675415</ele>
        <time>2011-05-07T09:11:57Z</time>
      </trkpt>
      <trkpt lat="43.75192" lon="7.25359">
        <ele>425.040161</ele>
        <time>2011-05-07T09:12:03Z</time>
      </trkpt>
      <trkpt lat="43.75179" lon="7.25368">
        <ele>426.962769</ele>
        <time>2011-05-07T09:12:07Z</time>
      </trkpt>
      <trkpt lat="43.75177" lon="7.2537">
        <ele>426.962769</ele>
        <time>2011-05-07T09:12:08Z</time>
      </trkpt>
      <trkpt lat="43.75168" lon="7.25378">
        <ele>419.752808</ele>
        <time>2011-05-07T09:12:12Z</time>
      </trkpt>
      <trkpt lat="43.75148" lon="7.25407">
        <ele>409.659058</ele>
        <time>2011-05-07T09:12:18Z</time>
      </trkpt>
      <trkpt lat="43.75145" lon="7.25414">
        <ele>408.697632</ele>
        <time>2011-05-07T09:12:19Z</time>
      </trkpt>
      <trkpt lat="43.75135" lon="7.25432">
        <ele>404.371704</ele>
        <time>2011-05-07T09:12:22Z</time>
      </trkpt>
      <trkpt lat="43.75124" lon="7.25457">
        <ele>402.929688</ele>
        <time>2011-05-07T09:12:26Z</time>
      </trkpt>
      <trkpt lat="43.75121" lon="7.25462">
        <ele>402.929688</ele>
        <time>2011-05-07T09:12:27Z</time>
      </trkpt>
      <trkpt lat="43.75114" lon="7.25484">
        <ele>402.929688</ele>
        <time>2011-05-07T09:12:30Z</time>
      </trkpt>
      <trkpt lat="43.75104" lon="7.25514">
        <ele>403.891113</ele>
        <time>2011-05-07T09:12:35Z</time>
      </trkpt>
      <trkpt lat="43.75101" lon="7.25517">
        <ele>403.891113</ele>
        <time>2011-05-07T09:12:36Z</time>
      </trkpt>
      <trkpt lat="43.75092" lon="7.25521">
        <ele>404.852295</ele>
        <time>2011-05-07T09:12:38Z</time>
      </trkpt>
      <trkpt lat="43.75076" lon="7.25524">
        <ele>407.255615</ele>
        <time>2011-05-07T09:12:43Z</time>
      </trkpt>
      <trkpt lat="43.75063" lon="7.25526">
        <ele>407.736328</ele>
        <time>2011-05-07T09:12:47Z</time>
      </trkpt>
      <trkpt lat="43.75051" lon="7.25526">
        <ele>409.659058</ele>
        <time>2011-05-07T09:12:51Z</time>
      </trkpt>
      <trkpt lat="43.75037" lon="7.2553">
        <ele>408.217041</ele>
        <time>2011-05-07T09:12:55Z</time>
      </trkpt>
      <trkpt lat="43.75033" lon="7.25532">
        <ele>407.736328</ele>
        <time>2011-05-07T09:12:56Z</time>
      </trkpt>
      <trkpt lat="43.75012" lon="7.25536">
        <ele>407.255615</ele>
        <time>2011-05-07T09:13:01Z</time>
      </trkpt>
      <trkpt lat="43.75007" lon="7.25538">
        <ele>407.255615</ele>
        <time>2011-05-07T09:13:02Z</time>
      </trkpt>
      <trkpt lat="43.7499" lon="7.25544">
        <ele>405.813721</ele>
        <time>2011-05-07T09:13:06Z</time>
      </trkpt>
      <trkpt lat="43.74978" lon="7.25544">
        <ele>406.774902</ele>
        <time>2011-05-07T09:13:09Z</time>
      </trkpt>
      <trkpt lat="43.74964" lon="7.25544">
        <ele>407.255615</ele>
        <time>2011-05-07T09:13:13Z</time>
      </trkpt>
      <trkpt lat="43.74961" lon="7.25545">
        <ele>407.736328</ele>
        <time>2011-05-07T09:13:14Z</time>
      </trkpt>
      <trkpt lat="43.74954" lon="7.2555">
        <ele>407.736328</ele>
        <time>2011-05-07T09:13:17Z</time>
      </trkpt>
      <trkpt lat="43.74939" lon="7.25551">
        <ele>407.736328</ele>
        <time>2011-05-07T09:13:22Z</time>
      </trkpt>
      <trkpt lat="43.74927" lon="7.25553">
        <ele>406.774902</ele>
        <time>2011-05-07T09:13:26Z</time>
      </trkpt>
      <trkpt lat="43.74906" lon="7.25557">
        <ele>403.4104</ele>
        <time>2011-05-07T09:13:32Z</time>
      </trkpt>
      <trkpt lat="43.74897" lon="7.25559">
        <ele>403.4104</ele>
        <time>2011-05-07T09:13:35Z</time>
      </trkpt>
      <trkpt lat="43.74891" lon="7.25557">
        <ele>402.929688</ele>
        <time>2011-05-07T09:13:40Z</time>
      </trkpt>
      <trkpt lat="43.74885" lon="7.2556">
        <ele>405.333008</ele>
        <time>2011-05-07T09:13:44Z</time>
      </trkpt>
      <trkpt lat="43.74867" lon="7.2556">
        <ele>404.371704</ele>
        <time>2011-05-07T09:13:50Z</time>
      </trkpt>
      <trkpt lat="43.74859" lon="7.25559">
        <ele>403.891113</ele>
        <time>2011-05-07T09:13:52Z</time>
      </trkpt>
      <trkpt lat="43.74833" lon="7.25563">
        <ele>406.774902</ele>
        <time>2011-05-07T09:13:58Z</time>
      </trkpt>
      <trkpt lat="43.74823" lon="7.25564">
        <ele>407.255615</ele>
        <time>2011-05-07T09:14:00Z</time>
      </trkpt>
      <trkpt lat="43.74813" lon="7.25565">
        <ele>406.774902</ele>
        <time>2011-05-07T09:14:03Z</time>
      </trkpt>
      <trkpt lat="43.74805" lon="7.25564">
        <ele>405.813721</ele>
        <time>2011-05-07T09:14:07Z</time>
      </trkpt>
      <trkpt lat="43.74805" lon="7.25564">
        <ele>406.774902</ele>
        <time>2011-05-07T09:14:11Z</time>
      </trkpt>
      <trkpt lat="43.74797" lon="7.25562">
        <ele>408.697632</ele>
        <time>2011-05-07T09:14:16Z</time>
      </trkpt>
      <trkpt lat="43.74773" lon="7.25566">
        <ele>407.255615</ele>
        <time>2011-05-07T09:14:22Z</time>
      </trkpt>
      <trkpt lat="43.74744" lon="7.2557">
        <ele>406.294312</ele>
        <time>2011-05-07T09:14:28Z</time>
      </trkpt>
      <trkpt lat="43.74729" lon="7.25568">
        <ele>407.736328</ele>
        <time>2011-05-07T09:14:31Z</time>
      </trkpt>
      <trkpt lat="43.74719" lon="7.25567">
        <ele>410.139648</ele>
        <time>2011-05-07T09:14:33Z</time>
      </trkpt>
      <trkpt lat="43.747" lon="7.25564">
        <ele>412.542847</ele>
        <time>2011-05-07T09:14:37Z</time>
      </trkpt>
      <trkpt lat="43.74688" lon="7.25567">
        <ele>413.504272</ele>
        <time>2011-05-07T09:14:40Z</time>
      </trkpt>
      <trkpt lat="43.74678" lon="7.25572">
        <ele>412.542847</ele>
        <time>2011-05-07T09:14:43Z</time>
      </trkpt>
      <trkpt lat="43.74669" lon="7.25579">
        <ele>408.697632</ele>
        <time>2011-05-07T09:14:47Z</time>
      </trkpt>
      <trkpt lat="43.74655" lon="7.25586">
        <ele>405.813721</ele>
        <time>2011-05-07T09:14:52Z</time>
      </trkpt>
      <trkpt lat="43.74642" lon="7.25588">
        <ele>402.929688</ele>
        <time>2011-05-07T09:14:57Z</time>
      </trkpt>
      <trkpt lat="43.7464" lon="7.25587">
        <ele>402.929688</ele>
        <time>2011-05-07T09:14:58Z</time>
      </trkpt>
      <trkpt lat="43.74634" lon="7.25586">
        <ele>401.968506</ele>
        <time>2011-05-07T09:15:00Z</time>
      </trkpt>
      <trkpt lat="43.74622" lon="7.25595">
        <ele>401.00708</ele>
        <time>2011-05-07T09:15:05Z</time>
      </trkpt>
      <trkpt lat="43.74607" lon="7.25596">
        <ele>405.813721</ele>
        <time>2011-05-07T09:15:11Z</time>
      </trkpt>
      <trkpt lat="43.74586" lon="7.25598">
        <ele>407.736328</ele>
        <time>2011-05-07T09:15:17Z</time>
      </trkpt>
      <trkpt lat="43.74568" lon="7.25606">
        <ele>406.294312</ele>
        <time>2011-05-07T09:15:22Z</time>
      </trkpt>
      <trkpt lat="43.74556" lon="7.25624">
        <ele>400.045898</ele>
        <time>2011-05-07T09:15:27Z</time>
      </trkpt>
      <trkpt lat="43.74545" lon="7.25651">
        <ele>394.758545</ele>
        <time>2011-05-07T09:15:33Z</time>
      </trkpt>
      <trkpt lat="43.74534" lon="7.25677">
        <ele>392.835938</ele>
        <time>2011-05-07T09:15:39Z</time>
      </trkpt>
      <trkpt lat="43.74527" lon="7.257">
        <ele>395.239136</ele>
        <time>2011-05-07T09:15:45Z</time>
      </trkpt>
      <trkpt lat="43.74525" lon="7.25708">
        <ele>396.200562</ele>
        <time>2011-05-07T09:15:48Z</time>
      </trkpt>
      <trkpt lat="43.74514" lon="7.25719">
        <ele>398.60376</ele>
        <time>2011-05-07T09:15:53Z</time>
      </trkpt>
      <trkpt lat="43.74503" lon="7.25726">
        <ele>399.565063</ele>
        <time>2011-05-07T09:15:56Z</time>
      </trkpt>
      <trkpt lat="43.74485" lon="7.25741">
        <ele>398.60376</ele>
        <time>2011-05-07T09:16:02Z</time>
      </trkpt>
      <trkpt lat="43.74472" lon="7.25754">
        <ele>396.681152</ele>
        <time>2011-05-07T09:16:07Z</time>
      </trkpt>
      <trkpt lat="43.7446" lon="7.25769">
        <ele>392.355347</ele>
        <time>2011-05-07T09:16:13Z</time>
      </trkpt>
      <trkpt lat="43.74459" lon="7.25771">
        <ele>391.393799</ele>
        <time>2011-05-07T09:16:14Z</time>
      </trkpt>
      <trkpt lat="43.74451" lon="7.25782">
        <ele>388.990601</ele>
        <time>2011-05-07T09:16:19Z</time>
      </trkpt>
      <trkpt lat="43.74448" lon="7.25785">
        <ele>387.548584</ele>
        <time>2011-05-07T09:16:21Z</time>
      </trkpt>
      <trkpt lat="43.74439" lon="7.258">
        <ele>387.067993</ele>
        <time>2011-05-07T09:16:27Z</time>
      </trkpt>
      <trkpt lat="43.74433" lon="7.2581">
        <ele>386.587402</ele>
        <time>2011-05-07T09:16:31Z</time>
      </trkpt>
      <trkpt lat="43.74426" lon="7.25822">
        <ele>383.222656</ele>
        <time>2011-05-07T09:16:35Z</time>
      </trkpt>
      <trkpt lat="43.74421" lon="7.25839">
        <ele>384.184082</ele>
        <time>2011-05-07T09:16:41Z</time>
      </trkpt>
      <trkpt lat="43.74421" lon="7.25859">
        <ele>388.029297</ele>
        <time>2011-05-07T09:16:46Z</time>
      </trkpt>
      <trkpt lat="43.74418" lon="7.25884">
        <ele>388.990601</ele>
        <time>2011-05-07T09:16:52Z</time>
      </trkpt>
      <trkpt lat="43.74425" lon="7.25897">
        <ele>389.951904</ele>
        <time>2011-05-07T09:16:57Z</time>
      </trkpt>
      <trkpt lat="43.74429" lon="7.25905">
        <ele>389.951904</ele>
        <time>2011-05-07T09:17:00Z</time>
      </trkpt>
      <trkpt lat="43.74433" lon="7.25924">
        <ele>387.067993</ele>
        <time>2011-05-07T09:17:05Z</time>
      </trkpt>
      <trkpt lat="43.74434" lon="7.2593">
        <ele>385.145386</ele>
        <time>2011-05-07T09:17:08Z</time>
      </trkpt>
      <trkpt lat="43.74431" lon="7.25928">
        <ele>382.742065</ele>
        <time>2011-05-07T09:17:12Z</time>
      </trkpt>
      <trkpt lat="43.74434" lon="7.25934">
        <ele>379.858032</ele>
        <time>2011-05-07T09:17:15Z</time>
      </trkpt>
      <trkpt lat="43.74437" lon="7.25947">
        <ele>378.416138</ele>
        <time>2011-05-07T09:17:19Z</time>
      </trkpt>
      <trkpt lat="43.74438" lon="7.25962">
        <ele>376.974243</ele>
        <time>2011-05-07T09:17:22Z</time>
      </trkpt>
      <trkpt lat="43.74446" lon="7.25964">
        <ele>381.300049</ele>
        <time>2009-05-31T13:32:02Z</time>
      </trkpt>
      <trkpt lat="43.74448" lon="7.25974">
        <ele>379.858032</ele>
        <time>2009-05-31T13:32:06Z</time>
      </trkpt>
      <trkpt lat="43.74458" lon="7.25981">
        <ele>377.454834</ele>
        <time>2009-05-31T13:32:10Z</time>
      </trkpt>
      <trkpt lat="43.74462" lon="7.25989">
        <ele>376.49353</ele>
        <time>2009-05-31T13:32:12Z</time>
      </trkpt>
      <trkpt lat="43.74471" lon="7.26017">
        <ele>373.128906</ele>
        <time>2009-05-31T13:32:17Z</time>
      </trkpt>
      <trkpt lat="43.74477" lon="7.26032">
        <ele>370.725586</ele>
        <time>2009-05-31T13:32:20Z</time>
      </trkpt>
      <trkpt lat="43.74489" lon="7.26064">
        <ele>366.399536</ele>
        <time>2009-05-31T13:32:25Z</time>
      </trkpt>
      <trkpt lat="43.74511" lon="7.26102">
        <ele>361.112427</ele>
        <time>2009-05-31T13:32:31Z</time>
      </trkpt>
      <trkpt lat="43.74546" lon="7.26139">
        <ele>355.825195</ele>
        <time>2009-05-31T13:32:36Z</time>
      </trkpt>
      <trkpt lat="43.74552" lon="7.26145">
        <ele>354.86377</ele>
        <time>2009-05-31T13:32:37Z</time>
      </trkpt>
      <trkpt lat="43.74558" lon="7.26156">
        <ele>352.941162</ele>
        <time>2009-05-31T13:32:39Z</time>
      </trkpt>
      <trkpt lat="43.74569" lon="7.26166">
        <ele>347.653931</ele>
        <time>2009-05-31T13:32:44Z</time>
      </trkpt>
      <trkpt lat="43.74566" lon="7.2617">
        <ele>346.212036</ele>
        <time>2009-05-31T13:32:48Z</time>
      </trkpt>
      <trkpt lat="43.74567" lon="7.26173">
        <ele>343.808594</ele>
        <time>2009-05-31T13:32:52Z</time>
      </trkpt>
      <trkpt lat="43.74565" lon="7.26178">
        <ele>342.366699</ele>
        <time>2009-05-31T13:32:57Z</time>
      </trkpt>
      <trkpt lat="43.74564" lon="7.2618">
        <ele>341.885986</ele>
        <time>2009-05-31T13:32:58Z</time>
      </trkpt>
      <trkpt lat="43.74565" lon="7.26183">
        <ele>341.885986</ele>
        <time>2009-05-31T13:33:01Z</time>
      </trkpt>
      <trkpt lat="43.74558" lon="7.26191">
        <ele>339.963379</ele>
        <time>2009-05-31T13:33:06Z</time>
      </trkpt>
      <trkpt lat="43.74557" lon="7.26193">
        <ele>339.002075</ele>
        <time>2009-05-31T13:33:08Z</time>
      </trkpt>
      <trkpt lat="43.74558" lon="7.26195">
        <ele>339.963379</ele>
        <time>2009-05-31T13:33:10Z</time>
      </trkpt>
      <trkpt lat="43.74558" lon="7.26202">
        <ele>339.002075</ele>
        <time>2009-05-31T13:33:17Z</time>
      </trkpt>
      <trkpt lat="43.74548" lon="7.2621">
        <ele>337.079468</ele>
        <time>2009-05-31T13:33:22Z</time>
      </trkpt>
      <trkpt lat="43.74549" lon="7.26227">
        <ele>335.637329</ele>
        <time>2009-05-31T13:33:27Z</time>
      </trkpt>
      <trkpt lat="43.74557" lon="7.26235">
        <ele>336.118164</ele>
        <time>2009-05-31T13:33:30Z</time>
      </trkpt>
      <trkpt lat="43.74564" lon="7.26234">
        <ele>336.598877</ele>
        <time>2009-05-31T13:33:33Z</time>
      </trkpt>
      <trkpt lat="43.7457" lon="7.26233">
        <ele>336.118164</ele>
        <time>2009-05-31T13:33:37Z</time>
      </trkpt>
      <trkpt lat="43.74594" lon="7.26259">
        <ele>332.272827</ele>
        <time>2009-05-31T13:33:41Z</time>
      </trkpt>
      <trkpt lat="43.74598" lon="7.26291">
        <ele>329.388916</ele>
        <time>2009-05-31T13:33:46Z</time>
      </trkpt>
      <trkpt lat="43.74611" lon="7.26292">
        <ele>329.869507</ele>
        <time>2009-05-31T13:33:48Z</time>
      </trkpt>
      <trkpt lat="43.74645" lon="7.26287">
        <ele>327.466187</ele>
        <time>2009-05-31T13:33:53Z</time>
      </trkpt>
      <trkpt lat="43.74654" lon="7.26291">
        <ele>326.504883</ele>
        <time>2009-05-31T13:33:56Z</time>
      </trkpt>
      <trkpt lat="43.74646" lon="7.26308">
        <ele>326.02417</ele>
        <time>2009-05-31T13:33:59Z</time>
      </trkpt>
      <trkpt lat="43.74641" lon="7.2633">
        <ele>319.775635</ele>
        <time>2009-05-31T13:34:04Z</time>
      </trkpt>
      <trkpt lat="43.74653" lon="7.26328">
        <ele>317.372437</ele>
        <time>2009-05-31T13:34:06Z</time>
      </trkpt>
      <trkpt lat="43.74654" lon="7.26337">
        <ele>314.969116</ele>
        <time>2009-05-31T13:34:08Z</time>
      </trkpt>
      <trkpt lat="43.74644" lon="7.26344">
        <ele>311.604492</ele>
        <time>2009-05-31T13:34:11Z</time>
      </trkpt>
      <trkpt lat="43.7464" lon="7.26363">
        <ele>304.875244</ele>
        <time>2009-05-31T13:34:17Z</time>
      </trkpt>
      <trkpt lat="43.74652" lon="7.26366">
        <ele>303.433228</ele>
        <time>2009-05-31T13:34:20Z</time>
      </trkpt>
      <trkpt lat="43.7466" lon="7.26369">
        <ele>302.471924</ele>
        <time>2009-05-31T13:34:22Z</time>
      </trkpt>
      <trkpt lat="43.74686" lon="7.26379">
        <ele>303.91394</ele>
        <time>2009-05-31T13:34:27Z</time>
      </trkpt>
      <trkpt lat="43.74709" lon="7.2638">
        <ele>303.91394</ele>
        <time>2009-05-31T13:34:31Z</time>
      </trkpt>
      <trkpt lat="43.74719" lon="7.26377">
        <ele>303.91394</ele>
        <time>2009-05-31T13:34:33Z</time>
      </trkpt>
      <trkpt lat="43.74745" lon="7.26374">
        <ele>305.83667</ele>
        <time>2009-05-31T13:34:37Z</time>
      </trkpt>
      <trkpt lat="43.74776" lon="7.26381">
        <ele>307.278564</ele>
        <time>2009-05-31T13:34:42Z</time>
      </trkpt>
      <trkpt lat="43.74809" lon="7.26393">
        <ele>309.201172</ele>
        <time>2009-05-31T13:34:48Z</time>
      </trkpt>
      <trkpt lat="43.74859" lon="7.26413">
        <ele>307.759277</ele>
        <time>2009-05-31T13:34:57Z</time>
      </trkpt>
      <trkpt lat="43.7487" lon="7.26417">
        <ele>307.759277</ele>
        <time>2009-05-31T13:34:59Z</time>
      </trkpt>
      <trkpt lat="43.74898" lon="7.26422">
        <ele>307.278564</ele>
        <time>2009-05-31T13:35:04Z</time>
      </trkpt>
      <trkpt lat="43.74925" lon="7.2644">
        <ele>306.797852</ele>
        <time>2009-05-31T13:35:09Z</time>
      </trkpt>
      <trkpt lat="43.74933" lon="7.26455">
        <ele>307.759277</ele>
        <time>2009-05-31T13:35:11Z</time>
      </trkpt>
      <trkpt lat="43.74942" lon="7.26471">
        <ele>306.797852</ele>
        <time>2009-05-31T13:35:13Z</time>
      </trkpt>
      <trkpt lat="43.7496" lon="7.26497">
        <ele>307.759277</ele>
        <time>2009-05-31T13:35:17Z</time>
      </trkpt>
      <trkpt lat="43.74998" lon="7.26529">
        <ele>305.83667</ele>
        <time>2009-05-31T13:35:24Z</time>
      </trkpt>
      <trkpt lat="43.75024" lon="7.26539">
        <ele>303.433228</ele>
        <time>2009-05-31T13:35:28Z</time>
      </trkpt>
      <trkpt lat="43.75047" lon="7.26539">
        <ele>302.471924</ele>
        <time>2009-05-31T13:35:32Z</time>
      </trkpt>
      <trkpt lat="43.7505" lon="7.26542">
        <ele>301.51062</ele>
        <time>2009-05-31T13:35:36Z</time>
      </trkpt>
      <trkpt lat="43.75051" lon="7.26547">
        <ele>299.1073</ele>
        <time>2009-05-31T13:35:42Z</time>
      </trkpt>
      <trkpt lat="43.7505" lon="7.26552">
        <ele>296.704102</ele>
        <time>2009-05-31T13:35:47Z</time>
      </trkpt>
      <trkpt lat="43.75049" lon="7.26553">
        <ele>296.223511</ele>
        <time>2009-05-31T13:35:49Z</time>
      </trkpt>
      <trkpt lat="43.75045" lon="7.2656">
        <ele>293.820068</ele>
        <time>2009-05-31T13:35:54Z</time>
      </trkpt>
      <trkpt lat="43.75038" lon="7.26572">
        <ele>290.936157</ele>
        <time>2009-05-31T13:36:01Z</time>
      </trkpt>
      <trkpt lat="43.75036" lon="7.26578">
        <ele>289.01355</ele>
        <time>2009-05-31T13:36:05Z</time>
      </trkpt>
      <trkpt lat="43.75029" lon="7.26581">
        <ele>288.052246</ele>
        <time>2009-05-31T13:36:10Z</time>
      </trkpt>
      <trkpt lat="43.75026" lon="7.26582">
        <ele>288.052246</ele>
        <time>2009-05-31T13:36:14Z</time>
      </trkpt>
      <trkpt lat="43.75017" lon="7.26594">
        <ele>288.532959</ele>
        <time>2009-05-31T13:36:18Z</time>
      </trkpt>
      <trkpt lat="43.74999" lon="7.26614">
        <ele>285.168213</ele>
        <time>2009-05-31T13:36:22Z</time>
      </trkpt>
      <trkpt lat="43.74986" lon="7.26629">
        <ele>280.842407</ele>
        <time>2009-05-31T13:36:26Z</time>
      </trkpt>
      <trkpt lat="43.74975" lon="7.26643">
        <ele>278.919678</ele>
        <time>2009-05-31T13:36:29Z</time>
      </trkpt>
      <trkpt lat="43.74961" lon="7.26659">
        <ele>274.59375</ele>
        <time>2009-05-31T13:36:33Z</time>
      </trkpt>
      <trkpt lat="43.74956" lon="7.26675">
        <ele>271.709717</ele>
        <time>2009-05-31T13:36:38Z</time>
      </trkpt>
      <trkpt lat="43.74956" lon="7.26677">
        <ele>271.229126</ele>
        <time>2009-05-31T13:36:39Z</time>
      </trkpt>
      <trkpt lat="43.74951" lon="7.26695">
        <ele>267.383911</ele>
        <time>2009-05-31T13:36:46Z</time>
      </trkpt>
      <trkpt lat="43.74947" lon="7.26709">
        <ele>263.538574</ele>
        <time>2009-05-31T13:36:51Z</time>
      </trkpt>
      <trkpt lat="43.74938" lon="7.26728">
        <ele>254.406006</ele>
        <time>2009-05-31T13:36:56Z</time>
      </trkpt>
      <trkpt lat="43.74926" lon="7.26753">
        <ele>240.467041</ele>
        <time>2009-05-31T13:37:01Z</time>
      </trkpt>
      <trkpt lat="43.74916" lon="7.26767">
        <ele>234.218384</ele>
        <time>2009-05-31T13:37:06Z</time>
      </trkpt>
      <trkpt lat="43.74907" lon="7.26781">
        <ele>230.373047</ele>
        <time>2009-05-31T13:37:12Z</time>
      </trkpt>
      <trkpt lat="43.74895" lon="7.26798">
        <ele>224.124512</ele>
        <time>2009-05-31T13:37:18Z</time>
      </trkpt>
      <trkpt lat="43.74885" lon="7.26813">
        <ele>220.279175</ele>
        <time>2009-05-31T13:37:24Z</time>
      </trkpt>
      <trkpt lat="43.74882" lon="7.26819">
        <ele>218.356567</ele>
        <time>2009-05-31T13:37:26Z</time>
      </trkpt>
      <trkpt lat="43.74874" lon="7.26826">
        <ele>217.395386</ele>
        <time>2009-05-31T13:37:31Z</time>
      </trkpt>
      <trkpt lat="43.7487" lon="7.26828">
        <ele>216.914673</ele>
        <time>2009-05-31T13:37:32Z</time>
      </trkpt>
      <trkpt lat="43.74864" lon="7.26835">
        <ele>216.43396</ele>
        <time>2009-05-31T13:37:35Z</time>
      </trkpt>
      <trkpt lat="43.74865" lon="7.2687">
        <ele>213.069336</ele>
        <time>2009-05-31T13:37:41Z</time>
      </trkpt>
      <trkpt lat="43.74864" lon="7.26896">
        <ele>207.782104</ele>
        <time>2009-05-31T13:37:46Z</time>
      </trkpt>
      <trkpt lat="43.74861" lon="7.26916">
        <ele>201.533569</ele>
        <time>2009-05-31T13:37:50Z</time>
      </trkpt>
      <trkpt lat="43.74858" lon="7.2693">
        <ele>197.688232</ele>
        <time>2009-05-31T13:37:52Z</time>
      </trkpt>
      <trkpt lat="43.74854" lon="7.26942">
        <ele>196.726929</ele>
        <time>2009-05-31T13:37:54Z</time>
      </trkpt>
      <trkpt lat="43.7485" lon="7.26968">
        <ele>189.036377</ele>
        <time>2009-05-31T13:38:00Z</time>
      </trkpt>
      <trkpt lat="43.74849" lon="7.26981">
        <ele>185.191162</ele>
        <time>2009-05-31T13:38:05Z</time>
      </trkpt>
      <trkpt lat="43.74846" lon="7.2701">
        <ele>178.461914</ele>
        <time>2009-05-31T13:38:12Z</time>
      </trkpt>
      <trkpt lat="43.74839" lon="7.27037">
        <ele>172.69397</ele>
        <time>2009-05-31T13:38:17Z</time>
      </trkpt>
      <trkpt lat="43.74839" lon="7.27063">
        <ele>189.036377</ele>
        <time>2009-05-31T13:38:22Z</time>
      </trkpt>
      <trkpt lat="43.74837" lon="7.27071">
        <ele>201.052856</ele>
        <time>2009-05-31T13:38:26Z</time>
      </trkpt>
      <trkpt lat="43.74842" lon="7.27089">
        <ele>203.93689</ele>
        <time>2009-05-31T13:38:31Z</time>
      </trkpt>
      <trkpt lat="43.74846" lon="7.2711">
        <ele>187.11377</ele>
        <time>2009-05-31T13:38:35Z</time>
      </trkpt>
      <trkpt lat="43.74844" lon="7.27128">
        <ele>183.749023</ele>
        <time>2009-05-31T13:38:39Z</time>
      </trkpt>
      <trkpt lat="43.74839" lon="7.27138">
        <ele>177.02002</ele>
        <time>2009-05-31T13:38:40Z</time>
      </trkpt>
      <trkpt lat="43.74829" lon="7.27159">
        <ele>166.926025</ele>
        <time>2009-05-31T13:38:45Z</time>
      </trkpt>
      <trkpt lat="43.74818" lon="7.27176">
        <ele>155.390259</ele>
        <time>2009-05-31T13:38:48Z</time>
      </trkpt>
      <trkpt lat="43.7481" lon="7.27198">
        <ele>145.7771</ele>
        <time>2009-05-31T13:38:52Z</time>
      </trkpt>
      <trkpt lat="43.74799" lon="7.27207">
        <ele>136.644653</ele>
        <time>2009-05-31T13:38:56Z</time>
      </trkpt>
      <trkpt lat="43.74795" lon="7.27211">
        <ele>149.622314</ele>
        <time>2009-05-31T13:39:02Z</time>
      </trkpt>
      <trkpt lat="43.74789" lon="7.27216">
        <ele>149.141602</ele>
        <time>2009-05-31T13:39:08Z</time>
      </trkpt>
      <trkpt lat="43.74784" lon="7.27223">
        <ele>152.986938</ele>
        <time>2009-05-31T13:39:13Z</time>
      </trkpt>
      <trkpt lat="43.74782" lon="7.27232">
        <ele>174.616577</ele>
        <time>2009-05-31T13:39:20Z</time>
      </trkpt>
      <trkpt lat="43.7478" lon="7.27234">
        <ele>176.539307</ele>
        <time>2009-05-31T13:39:23Z</time>
      </trkpt>
      <trkpt lat="43.74776" lon="7.27245">
        <ele>180.865234</ele>
        <time>2009-05-31T13:39:31Z</time>
      </trkpt>
      <trkpt lat="43.74776" lon="7.27247">
        <ele>180.865234</ele>
        <time>2009-05-31T13:39:32Z</time>
      </trkpt>
      <trkpt lat="43.7477" lon="7.27253">
        <ele>180.384521</ele>
        <time>2009-05-31T13:39:37Z</time>
      </trkpt>
      <trkpt lat="43.7476" lon="7.27262">
        <ele>179.903809</ele>
        <time>2009-05-31T13:39:44Z</time>
      </trkpt>
      <trkpt lat="43.7476" lon="7.27263">
        <ele>178.942627</ele>
        <time>2009-05-31T13:39:45Z</time>
      </trkpt>
      <trkpt lat="43.74755" lon="7.27273">
        <ele>182.787842</ele>
        <time>2009-05-31T13:39:53Z</time>
      </trkpt>
      <trkpt lat="43.74753" lon="7.27281">
        <ele>189.516968</ele>
        <time>2009-05-31T13:40:00Z</time>
      </trkpt>
      <trkpt lat="43.74745" lon="7.27291">
        <ele>183.749023</ele>
        <time>2009-05-31T13:40:07Z</time>
      </trkpt>
      <trkpt lat="43.74736" lon="7.27298">
        <ele>179.903809</ele>
        <time>2009-05-31T13:40:12Z</time>
      </trkpt>
      <trkpt lat="43.74725" lon="7.27295">
        <ele>192.881714</ele>
        <time>2009-05-31T13:40:18Z</time>
      </trkpt>
      <trkpt lat="43.74714" lon="7.27299">
        <ele>188.075073</ele>
        <time>2009-05-31T13:40:24Z</time>
      </trkpt>
      <trkpt lat="43.74704" lon="7.27309">
        <ele>184.229858</ele>
        <time>2009-05-31T13:40:31Z</time>
      </trkpt>
      <trkpt lat="43.74699" lon="7.27318">
        <ele>180.865234</ele>
        <time>2009-05-31T13:40:36Z</time>
      </trkpt>
      <trkpt lat="43.74697" lon="7.27323">
        <ele>180.384521</ele>
        <time>2009-05-31T13:40:41Z</time>
      </trkpt>
      <trkpt lat="43.74694" lon="7.27322">
        <ele>176.539307</ele>
        <time>2009-05-31T13:40:48Z</time>
      </trkpt>
      <trkpt lat="43.74695" lon="7.27324">
        <ele>180.384521</ele>
        <time>2009-05-31T13:40:59Z</time>
      </trkpt>
      <trkpt lat="43.74695" lon="7.27325">
        <ele>182.787842</ele>
        <time>2009-05-31T13:41:03Z</time>
      </trkpt>
      <trkpt lat="43.74693" lon="7.27325">
        <ele>183.268433</ele>
        <time>2009-05-31T13:41:14Z</time>
      </trkpt>
      <trkpt lat="43.74691" lon="7.27323">
        <ele>194.804321</ele>
        <time>2009-05-31T13:41:20Z</time>
      </trkpt>
      <trkpt lat="43.74697" lon="7.27324">
        <ele>191.920288</ele>
        <time>2009-05-31T13:41:30Z</time>
      </trkpt>
      <trkpt lat="43.74705" lon="7.27342">
        <ele>202.014282</ele>
        <time>2009-05-31T13:41:36Z</time>
      </trkpt>
      <trkpt lat="43.74709" lon="7.27365">
        <ele>197.688232</ele>
        <time>2009-05-31T13:41:41Z</time>
      </trkpt>
      <trkpt lat="43.74701" lon="7.27378">
        <ele>187.59436</ele>
        <time>2009-05-31T13:41:45Z</time>
      </trkpt>
      <trkpt lat="43.747" lon="7.27381">
        <ele>189.036377</ele>
        <time>2009-05-31T13:41:50Z</time>
      </trkpt>
      <trkpt lat="43.74698" lon="7.27385">
        <ele>187.59436</ele>
        <time>2009-05-31T13:41:55Z</time>
      </trkpt>
      <trkpt lat="43.74696" lon="7.27395">
        <ele>187.59436</ele>
        <time>2009-05-31T13:42:02Z</time>
      </trkpt>
      <trkpt lat="43.74692" lon="7.27407">
        <ele>183.268433</ele>
        <time>2009-05-31T13:42:10Z</time>
      </trkpt>
      <trkpt lat="43.7469" lon="7.27414">
        <ele>183.749023</ele>
        <time>2009-05-31T13:42:16Z</time>
      </trkpt>
      <trkpt lat="43.74683" lon="7.27416">
        <ele>182.307129</ele>
        <time>2009-05-31T13:42:24Z</time>
      </trkpt>
      <trkpt lat="43.74679" lon="7.27426">
        <ele>178.461914</ele>
        <time>2009-05-31T13:42:31Z</time>
      </trkpt>
      <trkpt lat="43.74674" lon="7.27433">
        <ele>178.942627</ele>
        <time>2009-05-31T13:42:37Z</time>
      </trkpt>
      <trkpt lat="43.7467" lon="7.27438">
        <ele>180.384521</ele>
        <time>2009-05-31T13:42:40Z</time>
      </trkpt>
      <trkpt lat="43.74665" lon="7.27467">
        <ele>177.981201</ele>
        <time>2009-05-31T13:42:46Z</time>
      </trkpt>
      <trkpt lat="43.74656" lon="7.27491">
        <ele>180.865234</ele>
        <time>2009-05-31T13:42:51Z</time>
      </trkpt>
      <trkpt lat="43.74647" lon="7.2751">
        <ele>191.439575</ele>
        <time>2009-05-31T13:42:56Z</time>
      </trkpt>
      <trkpt lat="43.74632" lon="7.27526">
        <ele>183.749023</ele>
        <time>2009-05-31T13:43:02Z</time>
      </trkpt>
      <trkpt lat="43.7462" lon="7.27545">
        <ele>189.516968</ele>
        <time>2009-05-31T13:43:08Z</time>
      </trkpt>
      <trkpt lat="43.74609" lon="7.27563">
        <ele>195.765625</ele>
        <time>2009-05-31T13:43:13Z</time>
      </trkpt>
      <trkpt lat="43.74598" lon="7.27589">
        <ele>186.152466</ele>
        <time>2009-05-31T13:43:18Z</time>
      </trkpt>
      <trkpt lat="43.74591" lon="7.27608">
        <ele>187.11377</ele>
        <time>2009-05-31T13:43:22Z</time>
      </trkpt>
      <trkpt lat="43.74586" lon="7.27617">
        <ele>186.152466</ele>
        <time>2009-05-31T13:43:27Z</time>
      </trkpt>
      <trkpt lat="43.7458" lon="7.27623">
        <ele>180.384521</ele>
        <time>2009-05-31T13:43:33Z</time>
      </trkpt>
      <trkpt lat="43.7457" lon="7.27631">
        <ele>177.02002</ele>
        <time>2009-05-31T13:43:38Z</time>
      </trkpt>
      <trkpt lat="43.74552" lon="7.27641">
        <ele>168.848755</ele>
        <time>2009-05-31T13:43:44Z</time>
      </trkpt>
      <trkpt lat="43.74548" lon="7.27642">
        <ele>166.926025</ele>
        <time>2009-05-31T13:43:45Z</time>
      </trkpt>
      <trkpt lat="43.74531" lon="7.27631">
        <ele>165.484131</ele>
        <time>2009-05-31T13:43:51Z</time>
      </trkpt>
      <trkpt lat="43.74522" lon="7.27625">
        <ele>164.522705</ele>
        <time>2009-05-31T13:43:55Z</time>
      </trkpt>
      <trkpt lat="43.74518" lon="7.27626">
        <ele>164.042114</ele>
        <time>2009-05-31T13:43:56Z</time>
      </trkpt>
      <trkpt lat="43.74504" lon="7.27637">
        <ele>174.616577</ele>
        <time>2009-05-31T13:44:03Z</time>
      </trkpt>
      <trkpt lat="43.74489" lon="7.27644">
        <ele>176.539307</ele>
        <time>2009-05-31T13:44:08Z</time>
      </trkpt>
      <trkpt lat="43.74482" lon="7.27649">
        <ele>180.384521</ele>
        <time>2009-05-31T13:44:12Z</time>
      </trkpt>
      <trkpt lat="43.74479" lon="7.27659">
        <ele>184.710571</ele>
        <time>2009-05-31T13:44:18Z</time>
      </trkpt>
      <trkpt lat="43.74481" lon="7.27668">
        <ele>189.997681</ele>
        <time>2009-05-31T13:44:22Z</time>
      </trkpt>
      <trkpt lat="43.74482" lon="7.27679">
        <ele>190.478394</ele>
        <time>2009-05-31T13:44:28Z</time>
      </trkpt>
      <trkpt lat="43.74482" lon="7.27681">
        <ele>191.439575</ele>
        <time>2009-05-31T13:44:29Z</time>
      </trkpt>
      <trkpt lat="43.7448" lon="7.27691">
        <ele>194.804321</ele>
        <time>2009-05-31T13:44:33Z</time>
      </trkpt>
      <trkpt lat="43.74479" lon="7.27706">
        <ele>200.572266</ele>
        <time>2009-05-31T13:44:40Z</time>
      </trkpt>
      <trkpt lat="43.74475" lon="7.27713">
        <ele>201.052856</ele>
        <time>2009-05-31T13:44:45Z</time>
      </trkpt>
      <trkpt lat="43.74464" lon="7.27725">
        <ele>202.494873</ele>
        <time>2009-05-31T13:44:53Z</time>
      </trkpt>
      <trkpt lat="43.74457" lon="7.27732">
        <ele>202.494873</ele>
        <time>2009-05-31T13:44:59Z</time>
      </trkpt>
      <trkpt lat="43.74454" lon="7.27733">
        <ele>202.014282</ele>
        <time>2009-05-31T13:45:01Z</time>
      </trkpt>
      <trkpt lat="43.7445" lon="7.27735">
        <ele>199.61084</ele>
        <time>2009-05-31T13:45:04Z</time>
      </trkpt>
      <trkpt lat="43.74445" lon="7.27746">
        <ele>195.765625</ele>
        <time>2009-05-31T13:45:09Z</time>
      </trkpt>
      <trkpt lat="43.74444" lon="7.27759">
        <ele>192.881714</ele>
        <time>2009-05-31T13:45:13Z</time>
      </trkpt>
      <trkpt lat="43.74448" lon="7.27774">
        <ele>190.478394</ele>
        <time>2009-05-31T13:45:17Z</time>
      </trkpt>
      <trkpt lat="43.74451" lon="7.27783">
        <ele>187.11377</ele>
        <time>2009-05-31T13:45:20Z</time>
      </trkpt>
      <trkpt lat="43.74455" lon="7.27798">
        <ele>183.749023</ele>
        <time>2009-05-31T13:45:24Z</time>
      </trkpt>
      <trkpt lat="43.74455" lon="7.27809">
        <ele>178.461914</ele>
        <time>2009-05-31T13:45:27Z</time>
      </trkpt>
      <trkpt lat="43.74458" lon="7.2782">
        <ele>175.577881</ele>
        <time>2009-05-31T13:45:31Z</time>
      </trkpt>
      <trkpt lat="43.74465" lon="7.27837">
        <ele>172.213257</ele>
        <time>2009-05-31T13:45:37Z</time>
      </trkpt>
      <trkpt lat="43.74466" lon="7.27841">
        <ele>169.810059</ele>
        <time>2009-05-31T13:45:38Z</time>
      </trkpt>
      <trkpt lat="43.74464" lon="7.27852">
        <ele>165.003418</ele>
        <time>2009-05-31T13:45:42Z</time>
      </trkpt>
      <trkpt lat="43.74458" lon="7.27869">
        <ele>159.716187</ele>
        <time>2009-05-31T13:45:48Z</time>
      </trkpt>
      <trkpt lat="43.74445" lon="7.27878">
        <ele>158.27417</ele>
        <time>2009-05-31T13:45:54Z</time>
      </trkpt>
      <trkpt lat="43.7443" lon="7.27869">
        <ele>159.235474</ele>
        <time>2009-05-31T13:46:00Z</time>
      </trkpt>
      <trkpt lat="43.7442" lon="7.27868">
        <ele>163.080811</ele>
        <time>2009-05-31T13:46:04Z</time>
      </trkpt>
      <trkpt lat="43.74418" lon="7.27868">
        <ele>164.042114</ele>
        <time>2009-05-31T13:46:05Z</time>
      </trkpt>
      <trkpt lat="43.74408" lon="7.27866">
        <ele>162.119507</ele>
        <time>2009-05-31T13:46:10Z</time>
      </trkpt>
      <trkpt lat="43.74403" lon="7.27865">
        <ele>164.522705</ele>
        <time>2009-05-31T13:46:16Z</time>
      </trkpt>
      <trkpt lat="43.744" lon="7.27865">
        <ele>163.080811</ele>
        <time>2009-05-31T13:46:19Z</time>
      </trkpt>
      <trkpt lat="43.74396" lon="7.27866">
        <ele>167.406738</ele>
        <time>2009-05-31T13:46:26Z</time>
      </trkpt>
      <trkpt lat="43.74395" lon="7.2787">
        <ele>165.003418</ele>
        <time>2009-05-31T13:46:31Z</time>
      </trkpt>
      <trkpt lat="43.74393" lon="7.27872">
        <ele>168.368042</ele>
        <time>2009-05-31T13:46:35Z</time>
      </trkpt>
      <trkpt lat="43.74391" lon="7.27874">
        <ele>167.406738</ele>
        <time>2009-05-31T13:46:40Z</time>
      </trkpt>
      <trkpt lat="43.7439" lon="7.27874">
        <ele>167.406738</ele>
        <time>2009-05-31T13:46:42Z</time>
      </trkpt>
      <trkpt lat="43.74383" lon="7.27876">
        <ele>164.042114</ele>
        <time>2009-05-31T13:46:46Z</time>
      </trkpt>
      <trkpt lat="43.74379" lon="7.27882">
        <ele>158.754761</ele>
        <time>2009-05-31T13:46:52Z</time>
      </trkpt>
      <trkpt lat="43.74378" lon="7.27886">
        <ele>153.948364</ele>
        <time>2009-05-31T13:46:58Z</time>
      </trkpt>
      <trkpt lat="43.74377" lon="7.27895">
        <ele>153.467651</ele>
        <time>2009-05-31T13:47:04Z</time>
      </trkpt>
      <trkpt lat="43.74374" lon="7.27899">
        <ele>148.661011</ele>
        <time>2009-05-31T13:47:09Z</time>
      </trkpt>
      <trkpt lat="43.74369" lon="7.27904">
        <ele>158.754761</ele>
        <time>2009-05-31T13:47:17Z</time>
      </trkpt>
      <trkpt lat="43.74368" lon="7.27914">
        <ele>160.67749</ele>
        <time>2009-05-31T13:47:22Z</time>
      </trkpt>
      <trkpt lat="43.74365" lon="7.27919">
        <ele>160.67749</ele>
        <time>2009-05-31T13:47:25Z</time>
      </trkpt>
      <trkpt lat="43.7436" lon="7.27929">
        <ele>161.158203</ele>
        <time>2009-05-31T13:47:30Z</time>
      </trkpt>
      <trkpt lat="43.74357" lon="7.27933">
        <ele>162.600098</ele>
        <time>2009-05-31T13:47:32Z</time>
      </trkpt>
      <trkpt lat="43.7435" lon="7.27942">
        <ele>161.638916</ele>
        <time>2009-05-31T13:47:37Z</time>
      </trkpt>
      <trkpt lat="43.74347" lon="7.27951">
        <ele>165.964722</ele>
        <time>2009-05-31T13:47:42Z</time>
      </trkpt>
      <trkpt lat="43.74344" lon="7.27959">
        <ele>161.638916</ele>
        <time>2009-05-31T13:47:47Z</time>
      </trkpt>
      <trkpt lat="43.74343" lon="7.27965">
        <ele>156.832153</ele>
        <time>2009-05-31T13:47:53Z</time>
      </trkpt>
      <trkpt lat="43.74347" lon="7.27972">
        <ele>147.218994</ele>
        <time>2009-05-31T13:48:01Z</time>
      </trkpt>
      <trkpt lat="43.7435" lon="7.2798">
        <ele>141.931763</ele>
        <time>2009-05-31T13:48:08Z</time>
      </trkpt>
      <trkpt lat="43.7435" lon="7.27985">
        <ele>141.931763</ele>
        <time>2009-05-31T13:48:11Z</time>
      </trkpt>
      <trkpt lat="43.74351" lon="7.27987">
        <ele>141.931763</ele>
        <time>2009-05-31T13:48:13Z</time>
      </trkpt>
      <trkpt lat="43.74348" lon="7.28005">
        <ele>142.412476</ele>
        <time>2009-05-31T13:48:19Z</time>
      </trkpt>
      <trkpt lat="43.7434" lon="7.28021">
        <ele>142.412476</ele>
        <time>2009-05-31T13:48:24Z</time>
      </trkpt>
      <trkpt lat="43.74331" lon="7.28037">
        <ele>143.373657</ele>
        <time>2009-05-31T13:48:30Z</time>
      </trkpt>
      <trkpt lat="43.74321" lon="7.28055">
        <ele>143.373657</ele>
        <time>2009-05-31T13:48:38Z</time>
      </trkpt>
      <trkpt lat="43.74313" lon="7.28072">
        <ele>142.893066</ele>
        <time>2009-05-31T13:48:46Z</time>
      </trkpt>
      <trkpt lat="43.74308" lon="7.2808">
        <ele>144.815796</ele>
        <time>2009-05-31T13:48:52Z</time>
      </trkpt>
      <trkpt lat="43.74305" lon="7.28088">
        <ele>147.218994</ele>
        <time>2009-05-31T13:48:59Z</time>
      </trkpt>
      <trkpt lat="43.74302" lon="7.28093">
        <ele>148.661011</ele>
        <time>2009-05-31T13:49:04Z</time>
      </trkpt>
      <trkpt lat="43.74304" lon="7.28112">
        <ele>149.141602</ele>
        <time>2009-05-31T13:49:10Z</time>
      </trkpt>
      <trkpt lat="43.74301" lon="7.28131">
        <ele>149.622314</ele>
        <time>2009-05-31T13:49:15Z</time>
      </trkpt>
      <trkpt lat="43.74285" lon="7.28159">
        <ele>150.583618</ele>
        <time>2009-05-31T13:49:21Z</time>
      </trkpt>
      <trkpt lat="43.74276" lon="7.2819">
        <ele>152.506348</ele>
        <time>2009-05-31T13:49:26Z</time>
      </trkpt>
      <trkpt lat="43.74272" lon="7.28204">
        <ele>150.583618</ele>
        <time>2009-05-31T13:49:28Z</time>
      </trkpt>
      <trkpt lat="43.7426" lon="7.28234">
        <ele>145.7771</ele>
        <time>2009-05-31T13:49:33Z</time>
      </trkpt>
      <trkpt lat="43.74253" lon="7.28251">
        <ele>141.931763</ele>
        <time>2009-05-31T13:49:36Z</time>
      </trkpt>
      <trkpt lat="43.74236" lon="7.28282">
        <ele>133.760498</ele>
        <time>2009-05-31T13:49:41Z</time>
      </trkpt>
      <trkpt lat="43.74219" lon="7.28302">
        <ele>131.3573</ele>
        <time>2009-05-31T13:49:45Z</time>
      </trkpt>
      <trkpt lat="43.74217" lon="7.2832">
        <ele>128.473389</ele>
        <time>2009-05-31T13:49:49Z</time>
      </trkpt>
      <trkpt lat="43.74215" lon="7.28325">
        <ele>127.511963</ele>
        <time>2009-05-31T13:49:51Z</time>
      </trkpt>
      <trkpt lat="43.74187" lon="7.28357">
        <ele>124.628052</ele>
        <time>2009-05-31T13:49:57Z</time>
      </trkpt>
      <trkpt lat="43.74174" lon="7.28369">
        <ele>122.705444</ele>
        <time>2009-05-31T13:50:00Z</time>
      </trkpt>
      <trkpt lat="43.74169" lon="7.28388">
        <ele>119.821411</ele>
        <time>2009-05-31T13:50:05Z</time>
      </trkpt>
      <trkpt lat="43.74172" lon="7.28402">
        <ele>117.898804</ele>
        <time>2009-05-31T13:50:09Z</time>
      </trkpt>
      <trkpt lat="43.74171" lon="7.28417">
        <ele>116.456787</ele>
        <time>2009-05-31T13:50:14Z</time>
      </trkpt>
      <trkpt lat="43.74169" lon="7.2842">
        <ele>115.495605</ele>
        <time>2009-05-31T13:50:15Z</time>
      </trkpt>
      <trkpt lat="43.74162" lon="7.28442">
        <ele>110.688843</ele>
        <time>2009-05-31T13:50:21Z</time>
      </trkpt>
      <trkpt lat="43.74144" lon="7.28476">
        <ele>99.153076</ele>
        <time>2009-05-31T13:50:26Z</time>
      </trkpt>
      <trkpt lat="43.74141" lon="7.28482">
        <ele>97.711182</ele>
        <time>2009-05-31T13:50:27Z</time>
      </trkpt>
      <trkpt lat="43.74128" lon="7.28502">
        <ele>86.175293</ele>
        <time>2009-05-31T13:50:32Z</time>
      </trkpt>
      <trkpt lat="43.74126" lon="7.28513">
        <ele>84.733398</ele>
        <time>2009-05-31T13:50:34Z</time>
      </trkpt>
      <trkpt lat="43.74116" lon="7.28527">
        <ele>79.446045</ele>
        <time>2009-05-31T13:50:39Z</time>
      </trkpt>
      <trkpt lat="43.74096" lon="7.28532">
        <ele>72.236206</ele>
        <time>2009-05-31T13:50:44Z</time>
      </trkpt>
      <trkpt lat="43.74083" lon="7.28535">
        <ele>66.948975</ele>
        <time>2009-05-31T13:50:49Z</time>
      </trkpt>
      <trkpt lat="43.7408" lon="7.28538">
        <ele>65.50708</ele>
        <time>2009-05-31T13:50:51Z</time>
      </trkpt>
      <trkpt lat="43.74075" lon="7.28534">
        <ele>75.120239</ele>
        <time>2009-05-31T13:50:55Z</time>
      </trkpt>
      <trkpt lat="43.74074" lon="7.28536">
        <ele>79.926636</ele>
        <time>2009-05-31T13:50:57Z</time>
      </trkpt>
      <trkpt lat="43.74072" lon="7.28553">
        <ele>75.60083</ele>
        <time>2009-05-31T13:51:02Z</time>
      </trkpt>
      <trkpt lat="43.74073" lon="7.28565">
        <ele>73.197632</ele>
        <time>2009-05-31T13:51:06Z</time>
      </trkpt>
      <trkpt lat="43.74076" lon="7.28568">
        <ele>71.274902</ele>
        <time>2009-05-31T13:51:09Z</time>
      </trkpt>
      <trkpt lat="43.74067" lon="7.28572">
        <ele>63.103638</ele>
        <time>2009-05-31T13:51:13Z</time>
      </trkpt>
      <trkpt lat="43.74062" lon="7.28574">
        <ele>59.258423</ele>
        <time>2009-05-31T13:51:15Z</time>
      </trkpt>
      <trkpt lat="43.74062" lon="7.28578">
        <ele>59.739136</ele>
        <time>2009-05-31T13:51:18Z</time>
      </trkpt>
      <trkpt lat="43.74069" lon="7.28584">
        <ele>56.374512</ele>
        <time>2009-05-31T13:51:23Z</time>
      </trkpt>
      <trkpt lat="43.74072" lon="7.28587">
        <ele>51.087158</ele>
        <time>2009-05-31T13:51:24Z</time>
      </trkpt>
      <trkpt lat="43.74073" lon="7.28593">
        <ele>50.125977</ele>
        <time>2009-05-31T13:51:27Z</time>
      </trkpt>
      <trkpt lat="43.74061" lon="7.28601">
        <ele>48.203369</ele>
        <time>2009-05-31T13:51:32Z</time>
      </trkpt>
      <trkpt lat="43.74051" lon="7.28625">
        <ele>57.816528</ele>
        <time>2009-05-31T13:51:36Z</time>
      </trkpt>
      <trkpt lat="43.74019" lon="7.28676">
        <ele>54.451782</ele>
        <time>2009-05-31T13:51:42Z</time>
      </trkpt>
      <trkpt lat="43.74004" lon="7.28706">
        <ele>53.009766</ele>
        <time>2009-05-31T13:51:45Z</time>
      </trkpt>
      <trkpt lat="43.73975" lon="7.28733">
        <ele>51.567871</ele>
        <time>2009-05-31T13:51:49Z</time>
      </trkpt>
      <trkpt lat="43.73956" lon="7.28736">
        <ele>42.916016</ele>
        <time>2009-05-31T13:51:52Z</time>
      </trkpt>
      <trkpt lat="43.73947" lon="7.28748">
        <ele>40.512817</ele>
        <time>2009-05-31T13:51:54Z</time>
      </trkpt>
      <trkpt lat="43.73914" lon="7.28762">
        <ele>36.66748</ele>
        <time>2009-05-31T13:51:59Z</time>
      </trkpt>
      <trkpt lat="43.73897" lon="7.28755">
        <ele>36.66748</ele>
        <time>2009-05-31T13:52:01Z</time>
      </trkpt>
      <trkpt lat="43.73845" lon="7.28735">
        <ele>36.186768</ele>
        <time>2009-05-31T13:52:07Z</time>
      </trkpt>
      <trkpt lat="43.73811" lon="7.28735">
        <ele>36.66748</ele>
        <time>2009-05-31T13:52:11Z</time>
      </trkpt>
      <trkpt lat="43.73785" lon="7.28735">
        <ele>34.26416</ele>
        <time>2009-05-31T13:52:14Z</time>
      </trkpt>
      <trkpt lat="43.73746" lon="7.28724">
        <ele>34.744873</ele>
        <time>2009-05-31T13:52:19Z</time>
      </trkpt>
      <trkpt lat="43.73738" lon="7.28725">
        <ele>35.225464</ele>
        <time>2009-05-31T13:52:20Z</time>
      </trkpt>
      <trkpt lat="43.73682" lon="7.28737">
        <ele>36.186768</ele>
        <time>2009-05-31T13:52:27Z</time>
      </trkpt>
      <trkpt lat="43.73627" lon="7.28763">
        <ele>34.744873</ele>
        <time>2009-05-31T13:52:34Z</time>
      </trkpt>
      <trkpt lat="43.7361" lon="7.28772">
        <ele>34.26416</ele>
        <time>2009-05-31T13:52:36Z</time>
      </trkpt>
      <trkpt lat="43.7358" lon="7.28794">
        <ele>34.26416</ele>
        <time>2009-05-31T13:52:40Z</time>
      </trkpt>
      <trkpt lat="43.73544" lon="7.28806">
        <ele>30.899536</ele>
        <time>2009-05-31T13:52:45Z</time>
      </trkpt>
      <trkpt lat="43.73538" lon="7.28807">
        <ele>30.899536</ele>
        <time>2009-05-31T13:52:46Z</time>
      </trkpt>
      <trkpt lat="43.73524" lon="7.28808">
        <ele>31.380127</ele>
        <time>2009-05-31T13:52:48Z</time>
      </trkpt>
      <trkpt lat="43.73492" lon="7.28798">
        <ele>30.418823</ele>
        <time>2009-05-31T13:52:53Z</time>
      </trkpt>
      <trkpt lat="43.73472" lon="7.2879">
        <ele>30.899536</ele>
        <time>2009-05-31T13:52:56Z</time>
      </trkpt>
      <trkpt lat="43.73444" lon="7.28753">
        <ele>59.739136</ele>
        <time>2009-05-31T13:53:01Z</time>
      </trkpt>
      <trkpt lat="43.73434" lon="7.28742">
        <ele>59.739136</ele>
        <time>2009-05-31T13:53:04Z</time>
      </trkpt>
      <trkpt lat="43.7343" lon="7.28733">
        <ele>61.18103</ele>
        <time>2009-05-31T13:53:07Z</time>
      </trkpt>
      <trkpt lat="43.73426" lon="7.28723">
        <ele>63.584351</ele>
        <time>2009-05-31T13:53:12Z</time>
      </trkpt>
      <trkpt lat="43.73426" lon="7.2872">
        <ele>65.026367</ele>
        <time>2009-05-31T13:53:13Z</time>
      </trkpt>
      <trkpt lat="43.73419" lon="7.28702">
        <ele>62.622925</ele>
        <time>2009-05-31T13:53:22Z</time>
      </trkpt>
      <trkpt lat="43.73413" lon="7.28685">
        <ele>62.142334</ele>
        <time>2009-05-31T13:53:31Z</time>
      </trkpt>
      <trkpt lat="43.7341" lon="7.28675">
        <ele>58.297119</ele>
        <time>2009-05-31T13:53:38Z</time>
      </trkpt>
      <trkpt lat="43.73406" lon="7.28655">
        <ele>70.313477</ele>
        <time>2009-05-31T13:53:45Z</time>
      </trkpt>
      <trkpt lat="43.73402" lon="7.28637">
        <ele>70.794189</ele>
        <time>2009-05-31T13:53:50Z</time>
      </trkpt>
      <trkpt lat="43.73405" lon="7.2861">
        <ele>65.50708</ele>
        <time>2009-05-31T13:53:56Z</time>
      </trkpt>
      <trkpt lat="43.73403" lon="7.28586">
        <ele>60.700317</ele>
        <time>2009-05-31T13:54:02Z</time>
      </trkpt>
      <trkpt lat="43.73399" lon="7.28576">
        <ele>56.855103</ele>
        <time>2009-05-31T13:54:05Z</time>
      </trkpt>
      <trkpt lat="43.73391" lon="7.28568">
        <ele>49.645264</ele>
        <time>2009-05-31T13:54:11Z</time>
      </trkpt>
      <trkpt lat="43.73391" lon="7.28551">
        <ele>47.241821</ele>
        <time>2009-05-31T13:54:16Z</time>
      </trkpt>
      <trkpt lat="43.73379" lon="7.28538">
        <ele>50.125977</ele>
        <time>2009-05-31T13:54:20Z</time>
      </trkpt>
      <trkpt lat="43.73375" lon="7.28538">
        <ele>48.68396</ele>
        <time>2009-05-31T13:54:24Z</time>
      </trkpt>
      <trkpt lat="43.7337" lon="7.28533">
        <ele>44.838623</ele>
        <time>2009-05-31T13:54:31Z</time>
      </trkpt>
      <trkpt lat="43.73353" lon="7.28526">
        <ele>44.838623</ele>
        <time>2009-05-31T13:54:35Z</time>
      </trkpt>
      <trkpt lat="43.73337" lon="7.28513">
        <ele>46.28064</ele>
        <time>2009-05-31T13:54:40Z</time>
      </trkpt>
      <trkpt lat="43.7333" lon="7.28509">
        <ele>46.28064</ele>
        <time>2009-05-31T13:54:42Z</time>
      </trkpt>
      <trkpt lat="43.73316" lon="7.28506">
        <ele>47.722534</ele>
        <time>2009-05-31T13:54:48Z</time>
      </trkpt>
      <trkpt lat="43.73306" lon="7.28505">
        <ele>46.76123</ele>
        <time>2009-05-31T13:54:55Z</time>
      </trkpt>
      <trkpt lat="43.73302" lon="7.28505">
        <ele>47.241821</ele>
        <time>2009-05-31T13:54:57Z</time>
      </trkpt>
      <trkpt lat="43.73291" lon="7.28504">
        <ele>50.125977</ele>
        <time>2009-05-31T13:55:04Z</time>
      </trkpt>
      <trkpt lat="43.73275" lon="7.28507">
        <ele>54.932373</ele>
        <time>2009-05-31T13:55:12Z</time>
      </trkpt>
      <trkpt lat="43.73263" lon="7.28504">
        <ele>50.606567</ele>
        <time>2009-05-31T13:55:16Z</time>
      </trkpt>
      <trkpt lat="43.73258" lon="7.28503">
        <ele>49.645264</ele>
        <time>2009-05-31T13:55:18Z</time>
      </trkpt>
      <trkpt lat="43.73256" lon="7.28501">
        <ele>49.164551</ele>
        <time>2009-05-31T13:55:20Z</time>
      </trkpt>
      <trkpt lat="43.73252" lon="7.28498">
        <ele>51.087158</ele>
        <time>2009-05-31T13:55:26Z</time>
      </trkpt>
      <trkpt lat="43.73243" lon="7.28496">
        <ele>51.567871</ele>
        <time>2009-05-31T13:55:32Z</time>
      </trkpt>
      <trkpt lat="43.7324" lon="7.28493">
        <ele>52.048584</ele>
        <time>2009-05-31T13:55:35Z</time>
      </trkpt>
      <trkpt lat="43.73232" lon="7.28495">
        <ele>61.18103</ele>
        <time>2009-05-31T13:55:41Z</time>
      </trkpt>
      <trkpt lat="43.73219" lon="7.28492">
        <ele>53.490479</ele>
        <time>2009-05-31T13:55:47Z</time>
      </trkpt>
      <trkpt lat="43.73203" lon="7.28491">
        <ele>48.68396</ele>
        <time>2009-05-31T13:55:52Z</time>
      </trkpt>
      <trkpt lat="43.73188" lon="7.2849">
        <ele>45.799927</ele>
        <time>2009-05-31T13:55:57Z</time>
      </trkpt>
      <trkpt lat="43.73177" lon="7.2848">
        <ele>44.358032</ele>
        <time>2009-05-31T13:56:02Z</time>
      </trkpt>
      <trkpt lat="43.73168" lon="7.28475">
        <ele>41.954712</ele>
        <time>2009-05-31T13:56:07Z</time>
      </trkpt>
      <trkpt lat="43.73157" lon="7.28473">
        <ele>41.954712</ele>
        <time>2009-05-31T13:56:12Z</time>
      </trkpt>
      <trkpt lat="43.73145" lon="7.28466">
        <ele>42.916016</ele>
        <time>2009-05-31T13:56:17Z</time>
      </trkpt>
      <trkpt lat="43.73135" lon="7.28456">
        <ele>47.722534</ele>
        <time>2009-05-31T13:56:22Z</time>
      </trkpt>
      <trkpt lat="43.73127" lon="7.28441">
        <ele>45.319214</ele>
        <time>2009-05-31T13:56:27Z</time>
      </trkpt>
      <trkpt lat="43.73116" lon="7.28427">
        <ele>40.993408</ele>
        <time>2009-05-31T13:56:32Z</time>
      </trkpt>
      <trkpt lat="43.73103" lon="7.28413">
        <ele>36.66748</ele>
        <time>2009-05-31T13:56:38Z</time>
      </trkpt>
      <trkpt lat="43.73091" lon="7.28394">
        <ele>35.225464</ele>
        <time>2009-05-31T13:56:44Z</time>
      </trkpt>
      <trkpt lat="43.73077" lon="7.28374">
        <ele>38.590088</ele>
        <time>2009-05-31T13:56:50Z</time>
      </trkpt>
      <trkpt lat="43.7306" lon="7.28356">
        <ele>38.109375</ele>
        <time>2009-05-31T13:56:56Z</time>
      </trkpt>
      <trkpt lat="43.73043" lon="7.28341">
        <ele>41.473999</ele>
        <time>2009-05-31T13:57:02Z</time>
      </trkpt>
      <trkpt lat="43.7303" lon="7.28333">
        <ele>47.722534</ele>
        <time>2009-05-31T13:57:07Z</time>
      </trkpt>
      <trkpt lat="43.73013" lon="7.28321">
        <ele>51.087158</ele>
        <time>2009-05-31T13:57:14Z</time>
      </trkpt>
      <trkpt lat="43.72994" lon="7.28312">
        <ele>49.164551</ele>
        <time>2009-05-31T13:57:21Z</time>
      </trkpt>
      <trkpt lat="43.72987" lon="7.28312">
        <ele>47.241821</ele>
        <time>2009-05-31T13:57:28Z</time>
      </trkpt>
      <trkpt lat="43.72977" lon="7.28309">
        <ele>42.916016</ele>
        <time>2009-05-31T13:57:36Z</time>
      </trkpt>
      <trkpt lat="43.72966" lon="7.28304">
        <ele>42.916016</ele>
        <time>2009-05-31T13:57:44Z</time>
      </trkpt>
      <trkpt lat="43.72956" lon="7.28299">
        <ele>43.877319</ele>
        <time>2009-05-31T13:57:51Z</time>
      </trkpt>
      <trkpt lat="43.72948" lon="7.28297">
        <ele>40.512817</ele>
        <time>2009-05-31T13:57:57Z</time>
      </trkpt>
      <trkpt lat="43.7294" lon="7.28298">
        <ele>40.032104</ele>
        <time>2009-05-31T13:58:03Z</time>
      </trkpt>
      <trkpt lat="43.72932" lon="7.28297">
        <ele>38.590088</ele>
        <time>2009-05-31T13:58:09Z</time>
      </trkpt>
      <trkpt lat="43.72923" lon="7.28296">
        <ele>33.783447</ele>
        <time>2009-05-31T13:58:16Z</time>
      </trkpt>
      <trkpt lat="43.72921" lon="7.28298">
        <ele>32.822266</ele>
        <time>2009-05-31T13:58:19Z</time>
      </trkpt>
      <trkpt lat="43.72914" lon="7.28294">
        <ele>31.380127</ele>
        <time>2009-05-31T13:58:25Z</time>
      </trkpt>
      <trkpt lat="43.72909" lon="7.28291">
        <ele>30.899536</ele>
        <time>2009-05-31T13:58:30Z</time>
      </trkpt>
      <trkpt lat="43.72896" lon="7.2829">
        <ele>29.93811</ele>
        <time>2009-05-31T13:58:36Z</time>
      </trkpt>
      <trkpt lat="43.72878" lon="7.28285">
        <ele>28.976929</ele>
        <time>2009-05-31T13:58:42Z</time>
      </trkpt>
      <trkpt lat="43.72855" lon="7.28283">
        <ele>28.015503</ele>
        <time>2009-05-31T13:58:49Z</time>
      </trkpt>
      <trkpt lat="43.72837" lon="7.28284">
        <ele>28.015503</ele>
        <time>2009-05-31T13:58:55Z</time>
      </trkpt>
      <trkpt lat="43.72826" lon="7.28289">
        <ele>32.341553</ele>
        <time>2009-05-31T13:59:00Z</time>
      </trkpt>
      <trkpt lat="43.72815" lon="7.28296">
        <ele>31.380127</ele>
        <time>2009-05-31T13:59:05Z</time>
      </trkpt>
      <trkpt lat="43.72798" lon="7.28303">
        <ele>31.860718</ele>
        <time>2009-05-31T13:59:12Z</time>
      </trkpt>
      <trkpt lat="43.72782" lon="7.28319">
        <ele>32.341553</ele>
        <time>2009-05-31T13:59:19Z</time>
      </trkpt>
      <trkpt lat="43.72771" lon="7.28332">
        <ele>32.341553</ele>
        <time>2009-05-31T13:59:24Z</time>
      </trkpt>
      <trkpt lat="43.72751" lon="7.28347">
        <ele>32.341553</ele>
        <time>2009-05-31T13:59:31Z</time>
      </trkpt>
      <trkpt lat="43.72737" lon="7.28367">
        <ele>32.341553</ele>
        <time>2009-05-31T13:59:38Z</time>
      </trkpt>
      <trkpt lat="43.72729" lon="7.28375">
        <ele>32.341553</ele>
        <time>2009-05-31T13:59:42Z</time>
      </trkpt>
      <trkpt lat="43.72718" lon="7.28387">
        <ele>32.822266</ele>
        <time>2009-05-31T13:59:49Z</time>
      </trkpt>
      <trkpt lat="43.72711" lon="7.28395">
        <ele>32.341553</ele>
        <time>2009-05-31T13:59:55Z</time>
      </trkpt>
      <trkpt lat="43.72702" lon="7.28404">
        <ele>32.822266</ele>
        <time>2009-05-31T14:00:03Z</time>
      </trkpt>
      <trkpt lat="43.72696" lon="7.28409">
        <ele>33.302856</ele>
        <time>2009-05-31T14:00:10Z</time>
      </trkpt>
      <trkpt lat="43.72688" lon="7.28417">
        <ele>33.783447</ele>
        <time>2009-05-31T14:00:17Z</time>
      </trkpt>
      <trkpt lat="43.7268" lon="7.28429">
        <ele>33.783447</ele>
        <time>2009-05-31T14:00:25Z</time>
      </trkpt>
      <trkpt lat="43.72673" lon="7.28436">
        <ele>34.26416</ele>
        <time>2009-05-31T14:00:32Z</time>
      </trkpt>
      <trkpt lat="43.72668" lon="7.28448">
        <ele>32.822266</ele>
        <time>2009-05-31T14:00:39Z</time>
      </trkpt>
      <trkpt lat="43.72665" lon="7.28462">
        <ele>32.341553</ele>
        <time>2009-05-31T14:00:47Z</time>
      </trkpt>
      <trkpt lat="43.72662" lon="7.28466">
        <ele>32.341553</ele>
        <time>2009-05-31T14:00:53Z</time>
      </trkpt>
      <trkpt lat="43.72657" lon="7.28472">
        <ele>31.860718</ele>
        <time>2009-05-31T14:00:57Z</time>
      </trkpt>
      <trkpt lat="43.72647" lon="7.28483">
        <ele>31.380127</ele>
        <time>2009-05-31T14:01:03Z</time>
      </trkpt>
      <trkpt lat="43.72638" lon="7.28497">
        <ele>28.976929</ele>
        <time>2009-05-31T14:01:09Z</time>
      </trkpt>
      <trkpt lat="43.7263" lon="7.28506">
        <ele>28.015503</ele>
        <time>2009-05-31T14:01:15Z</time>
      </trkpt>
      <trkpt lat="43.72619" lon="7.28516">
        <ele>28.015503</ele>
        <time>2009-05-31T14:01:20Z</time>
      </trkpt>
      <trkpt lat="43.72608" lon="7.28529">
        <ele>28.496216</ele>
        <time>2009-05-31T14:01:26Z</time>
      </trkpt>
      <trkpt lat="43.72599" lon="7.28553">
        <ele>28.976929</ele>
        <time>2009-05-31T14:01:34Z</time>
      </trkpt>
      <trkpt lat="43.72593" lon="7.28574">
        <ele>28.496216</ele>
        <time>2009-05-31T14:01:40Z</time>
      </trkpt>
      <trkpt lat="43.72587" lon="7.28591">
        <ele>28.496216</ele>
        <time>2009-05-31T14:01:45Z</time>
      </trkpt>
      <trkpt lat="43.7258" lon="7.28615">
        <ele>28.015503</ele>
        <time>2009-05-31T14:01:52Z</time>
      </trkpt>
      <trkpt lat="43.72572" lon="7.28638">
        <ele>27.534912</ele>
        <time>2009-05-31T14:02:00Z</time>
      </trkpt>
      <trkpt lat="43.7256" lon="7.28664">
        <ele>27.534912</ele>
        <time>2009-05-31T14:02:08Z</time>
      </trkpt>
      <trkpt lat="43.72538" lon="7.28688">
        <ele>27.534912</ele>
        <time>2009-05-31T14:02:17Z</time>
      </trkpt>
      <trkpt lat="43.72525" lon="7.28709">
        <ele>26.573608</ele>
        <time>2009-05-31T14:02:23Z</time>
      </trkpt>
      <trkpt lat="43.72515" lon="7.28729">
        <ele>26.092896</ele>
        <time>2009-05-31T14:02:29Z</time>
      </trkpt>
      <trkpt lat="43.72502" lon="7.28743">
        <ele>27.054321</ele>
        <time>2009-05-31T14:02:35Z</time>
      </trkpt>
      <trkpt lat="43.72482" lon="7.28758">
        <ele>28.015503</ele>
        <time>2009-05-31T14:02:43Z</time>
      </trkpt>
      <trkpt lat="43.72473" lon="7.28764">
        <ele>28.496216</ele>
        <time>2009-05-31T14:02:47Z</time>
      </trkpt>
      <trkpt lat="43.72469" lon="7.28765">
        <ele>29.45752</ele>
        <time>2009-05-31T14:02:51Z</time>
      </trkpt>
      <trkpt lat="43.72464" lon="7.28766">
        <ele>32.341553</ele>
        <time>2009-05-31T14:02:58Z</time>
      </trkpt>
      <trkpt lat="43.72456" lon="7.28771">
        <ele>31.860718</ele>
        <time>2009-05-31T14:03:05Z</time>
      </trkpt>
      <trkpt lat="43.72445" lon="7.28778">
        <ele>32.341553</ele>
        <time>2009-05-31T14:03:13Z</time>
      </trkpt>
      <trkpt lat="43.72434" lon="7.28783">
        <ele>32.341553</ele>
        <time>2009-05-31T14:03:20Z</time>
      </trkpt>
      <trkpt lat="43.72422" lon="7.28787">
        <ele>32.822266</ele>
        <time>2009-05-31T14:03:28Z</time>
      </trkpt>
      <trkpt lat="43.72412" lon="7.28788">
        <ele>32.822266</ele>
        <time>2009-05-31T14:03:34Z</time>
      </trkpt>
      <trkpt lat="43.72396" lon="7.28787">
        <ele>33.302856</ele>
        <time>2009-05-31T14:03:40Z</time>
      </trkpt>
      <trkpt lat="43.72371" lon="7.28785">
        <ele>33.783447</ele>
        <time>2009-05-31T14:03:48Z</time>
      </trkpt>
      <trkpt lat="43.7235" lon="7.28786">
        <ele>33.783447</ele>
        <time>2009-05-31T14:03:54Z</time>
      </trkpt>
      <trkpt lat="43.7233" lon="7.28782">
        <ele>33.783447</ele>
        <time>2009-05-31T14:04:01Z</time>
      </trkpt>
      <trkpt lat="43.72326" lon="7.28769">
        <ele>34.744873</ele>
        <time>2009-05-31T14:04:05Z</time>
      </trkpt>
      <trkpt lat="43.72317" lon="7.28761">
        <ele>37.148071</ele>
        <time>2009-05-31T14:04:10Z</time>
      </trkpt>
      <trkpt lat="43.72316" lon="7.2876">
        <ele>38.109375</ele>
        <time>2009-05-31T14:04:11Z</time>
      </trkpt>
      <trkpt lat="43.72317" lon="7.28757">
        <ele>44.358032</ele>
        <time>2009-05-31T14:04:17Z</time>
      </trkpt>
      <trkpt lat="43.72309" lon="7.28757">
        <ele>34.744873</ele>
        <time>2009-05-31T14:04:22Z</time>
      </trkpt>
      <trkpt lat="43.72295" lon="7.28751">
        <ele>32.822266</ele>
        <time>2009-05-31T14:04:29Z</time>
      </trkpt>
      <trkpt lat="43.72287" lon="7.28746">
        <ele>31.380127</ele>
        <time>2009-05-31T14:04:34Z</time>
      </trkpt>
      <trkpt lat="43.72281" lon="7.28743">
        <ele>30.899536</ele>
        <time>2009-05-31T14:04:39Z</time>
      </trkpt>
      <trkpt lat="43.72271" lon="7.28738">
        <ele>29.93811</ele>
        <time>2009-05-31T14:04:43Z</time>
      </trkpt>
      <trkpt lat="43.7225" lon="7.28735">
        <ele>28.496216</ele>
        <time>2009-05-31T14:04:48Z</time>
      </trkpt>
      <trkpt lat="43.72234" lon="7.28728">
        <ele>28.015503</ele>
        <time>2009-05-31T14:04:52Z</time>
      </trkpt>
      <trkpt lat="43.72221" lon="7.28722">
        <ele>28.015503</ele>
        <time>2009-05-31T14:04:55Z</time>
      </trkpt>
      <trkpt lat="43.72214" lon="7.28719">
        <ele>28.976929</ele>
        <time>2009-05-31T14:04:57Z</time>
      </trkpt>
      <trkpt lat="43.7219" lon="7.28707">
        <ele>28.496216</ele>
        <time>2009-05-31T14:05:03Z</time>
      </trkpt>
      <trkpt lat="43.72176" lon="7.28696">
        <ele>28.976929</ele>
        <time>2009-05-31T14:05:07Z</time>
      </trkpt>
      <trkpt lat="43.7216" lon="7.28684">
        <ele>28.976929</ele>
        <time>2009-05-31T14:05:12Z</time>
      </trkpt>
      <trkpt lat="43.72152" lon="7.28678">
        <ele>30.899536</ele>
        <time>2009-05-31T14:05:15Z</time>
      </trkpt>
      <trkpt lat="43.72149" lon="7.28674">
        <ele>32.822266</ele>
        <time>2009-05-31T14:05:19Z</time>
      </trkpt>
      <trkpt lat="43.72141" lon="7.28671">
        <ele>34.744873</ele>
        <time>2009-05-31T14:05:27Z</time>
      </trkpt>
      <trkpt lat="43.7213" lon="7.28662">
        <ele>36.186768</ele>
        <time>2009-05-31T14:05:31Z</time>
      </trkpt>
      <trkpt lat="43.72106" lon="7.28642">
        <ele>40.512817</ele>
        <time>2009-05-31T14:05:37Z</time>
      </trkpt>
      <trkpt lat="43.72102" lon="7.28637">
        <ele>40.993408</ele>
        <time>2009-05-31T14:05:38Z</time>
      </trkpt>
      <trkpt lat="43.72067" lon="7.28585">
        <ele>41.473999</ele>
        <time>2009-05-31T14:05:46Z</time>
      </trkpt>
      <trkpt lat="43.72054" lon="7.28566">
        <ele>42.435425</ele>
        <time>2009-05-31T14:05:49Z</time>
      </trkpt>
      <trkpt lat="43.72041" lon="7.28544">
        <ele>37.628662</ele>
        <time>2009-05-31T14:05:53Z</time>
      </trkpt>
      <trkpt lat="43.72028" lon="7.28519">
        <ele>37.628662</ele>
        <time>2009-05-31T14:05:59Z</time>
      </trkpt>
      <trkpt lat="43.72011" lon="7.28495">
        <ele>33.302856</ele>
        <time>2009-05-31T14:06:05Z</time>
      </trkpt>
      <trkpt lat="43.71992" lon="7.28469">
        <ele>32.341553</ele>
        <time>2009-05-31T14:06:09Z</time>
      </trkpt>
      <trkpt lat="43.71958" lon="7.28425">
        <ele>30.899536</ele>
        <time>2009-05-31T14:06:16Z</time>
      </trkpt>
      <trkpt lat="43.71931" lon="7.2839">
        <ele>28.976929</ele>
        <time>2009-05-31T14:06:22Z</time>
      </trkpt>
      <trkpt lat="43.71928" lon="7.28386">
        <ele>28.015503</ele>
        <time>2009-05-31T14:06:23Z</time>
      </trkpt>
      <trkpt lat="43.71923" lon="7.28374">
        <ele>27.534912</ele>
        <time>2009-05-31T14:06:26Z</time>
      </trkpt>
      <trkpt lat="43.71911" lon="7.28355">
        <ele>26.573608</ele>
        <time>2009-05-31T14:06:32Z</time>
      </trkpt>
      <trkpt lat="43.71893" lon="7.28329">
        <ele>27.054321</ele>
        <time>2009-05-31T14:06:38Z</time>
      </trkpt>
      <trkpt lat="43.71872" lon="7.28302">
        <ele>26.092896</ele>
        <time>2009-05-31T14:06:44Z</time>
      </trkpt>
      <trkpt lat="43.71839" lon="7.2826">
        <ele>29.45752</ele>
        <time>2009-05-31T14:06:53Z</time>
      </trkpt>
      <trkpt lat="43.71803" lon="7.28229">
        <ele>28.976929</ele>
        <time>2009-05-31T14:07:01Z</time>
      </trkpt>
      <trkpt lat="43.71769" lon="7.282">
        <ele>28.015503</ele>
        <time>2009-05-31T14:07:08Z</time>
      </trkpt>
      <trkpt lat="43.71734" lon="7.2818">
        <ele>28.015503</ele>
        <time>2009-05-31T14:07:15Z</time>
      </trkpt>
      <trkpt lat="43.71709" lon="7.28165">
        <ele>28.015503</ele>
        <time>2009-05-31T14:07:21Z</time>
      </trkpt>
      <trkpt lat="43.71689" lon="7.28158">
        <ele>28.976929</ele>
        <time>2009-05-31T14:07:27Z</time>
      </trkpt>
      <trkpt lat="43.71684" lon="7.28157">
        <ele>28.976929</ele>
        <time>2009-05-31T14:07:31Z</time>
      </trkpt>
      <trkpt lat="43.71683" lon="7.28154">
        <ele>30.899536</ele>
        <time>2009-05-31T14:07:37Z</time>
      </trkpt>
      <trkpt lat="43.71683" lon="7.28152">
        <ele>30.899536</ele>
        <time>2009-05-31T14:07:43Z</time>
      </trkpt>
      <trkpt lat="43.71676" lon="7.28151">
        <ele>29.45752</ele>
        <time>2009-05-31T14:07:48Z</time>
      </trkpt>
      <trkpt lat="43.71659" lon="7.28147">
        <ele>29.45752</ele>
        <time>2009-05-31T14:07:53Z</time>
      </trkpt>
      <trkpt lat="43.71639" lon="7.28141">
        <ele>27.534912</ele>
        <time>2009-05-31T14:07:58Z</time>
      </trkpt>
      <trkpt lat="43.7163" lon="7.28144">
        <ele>27.534912</ele>
        <time>2009-05-31T14:08:00Z</time>
      </trkpt>
      <trkpt lat="43.71608" lon="7.28144">
        <ele>28.976929</ele>
        <time>2009-05-31T14:08:05Z</time>
      </trkpt>
      <trkpt lat="43.71576" lon="7.2814">
        <ele>33.302856</ele>
        <time>2009-05-31T14:08:11Z</time>
      </trkpt>
      <trkpt lat="43.7156" lon="7.2814">
        <ele>33.783447</ele>
        <time>2009-05-31T14:08:14Z</time>
      </trkpt>
      <trkpt lat="43.71546" lon="7.28141">
        <ele>34.26416</ele>
        <time>2009-05-31T14:08:16Z</time>
      </trkpt>
      <trkpt lat="43.71529" lon="7.28147">
        <ele>35.225464</ele>
        <time>2009-05-31T14:08:19Z</time>
      </trkpt>
      <trkpt lat="43.7149" lon="7.28175">
        <ele>28.496216</ele>
        <time>2009-05-31T14:08:25Z</time>
      </trkpt>
      <trkpt lat="43.71452" lon="7.28204">
        <ele>27.534912</ele>
        <time>2009-05-31T14:08:31Z</time>
      </trkpt>
      <trkpt lat="43.71428" lon="7.28225">
        <ele>28.015503</ele>
        <time>2009-05-31T14:08:36Z</time>
      </trkpt>
      <trkpt lat="43.7142" lon="7.28231">
        <ele>31.860718</ele>
        <time>2009-05-31T14:08:38Z</time>
      </trkpt>
      <trkpt lat="43.71421" lon="7.28256">
        <ele>32.822266</ele>
        <time>2009-05-31T14:08:42Z</time>
      </trkpt>
      <trkpt lat="43.71433" lon="7.28312">
        <ele>33.783447</ele>
        <time>2009-05-31T14:08:48Z</time>
      </trkpt>
      <trkpt lat="43.71418" lon="7.28332">
        <ele>28.496216</ele>
        <time>2009-05-31T14:08:52Z</time>
      </trkpt>
      <trkpt lat="43.71373" lon="7.28357">
        <ele>27.534912</ele>
        <time>2009-05-31T14:08:59Z</time>
      </trkpt>
      <trkpt lat="43.71302" lon="7.28383">
        <ele>27.054321</ele>
        <time>2009-05-31T14:09:09Z</time>
      </trkpt>
      <trkpt lat="43.7124" lon="7.28397">
        <ele>28.015503</ele>
        <time>2009-05-31T14:09:18Z</time>
      </trkpt>
      <trkpt lat="43.71201" lon="7.28401">
        <ele>27.534912</ele>
        <time>2009-05-31T14:09:24Z</time>
      </trkpt>
      <trkpt lat="43.71177" lon="7.2841">
        <ele>28.015503</ele>
        <time>2009-05-31T14:09:29Z</time>
      </trkpt>
      <trkpt lat="43.71164" lon="7.28412">
        <ele>26.573608</ele>
        <time>2009-05-31T14:09:32Z</time>
      </trkpt>
      <trkpt lat="43.71124" lon="7.28409">
        <ele>28.015503</ele>
        <time>2009-05-31T14:09:38Z</time>
      </trkpt>
      <trkpt lat="43.71082" lon="7.28406">
        <ele>28.496216</ele>
        <time>2009-05-31T14:09:43Z</time>
      </trkpt>
      <trkpt lat="43.7099" lon="7.28398">
        <ele>29.45752</ele>
        <time>2009-05-31T14:09:53Z</time>
      </trkpt>
      <trkpt lat="43.70918" lon="7.28346">
        <ele>28.496216</ele>
        <time>2009-05-31T14:10:02Z</time>
      </trkpt>
      <trkpt lat="43.70835" lon="7.28313">
        <ele>28.976929</ele>
        <time>2009-05-31T14:10:13Z</time>
      </trkpt>
      <trkpt lat="43.70715" lon="7.28265">
        <ele>25.45752</ele>
      </trkpt>
      <trkpt lat="43.70428" lon="7.28093">
        <ele>20.45752</ele>
      </trkpt>
      <trkpt lat="43.70088" lon="7.27848">
        <ele>18.45752</ele>
      </trkpt>
      <trkpt lat="43.69867" lon="7.27654">
        <ele>17.45752</ele>
      </trkpt>
      <trkpt lat="43.69648" lon="7.26981">
        <ele>10.45752</ele>
      </trkpt>
      <trkpt lat="43.69625" lon="7.26948">
        <ele>11.744873</ele>
        <time>2009-05-31T14:13:56Z</time>
      </trkpt>
      <trkpt lat="43.69627" lon="7.26946">
        <ele>12.015503</ele>
        <time>2009-05-31T14:13:57Z</time>
      </trkpt>
      <trkpt lat="43.69621" lon="7.26928">
        <ele>13.689575</ele>
        <time>2009-05-31T14:14:00Z</time>
      </trkpt>
      <trkpt lat="43.69602" lon="7.26909">
        <ele>12.960449</ele>
        <time>2009-05-31T14:14:04Z</time>
      </trkpt>
      <trkpt lat="43.69588" lon="7.26908">
        <ele>12.153809</ele>
        <time>2009-05-31T14:14:06Z</time>
      </trkpt>
      <trkpt lat="43.69547" lon="7.26917">
        <ele>12.618042</ele>
        <time>2009-05-31T14:14:12Z</time>
      </trkpt>
      <trkpt lat="43.6954" lon="7.26919">
        <ele>12.343384</ele>
        <time>2009-05-31T14:14:13Z</time>
      </trkpt>
      <trkpt lat="43.69512" lon="7.26905">
        <ele>11.866455</ele>
        <time>2009-05-31T14:14:17Z</time>
      </trkpt>
      <trkpt lat="43.69513" lon="7.26879">
        <ele>11.347168</ele>
        <time>2009-05-31T14:14:19Z</time>
      </trkpt>
      <trkpt lat="43.69515" lon="7.2679">
        <ele>11.501953</ele>
        <time>2009-05-31T14:14:27Z</time>
      </trkpt>
      <trkpt lat="43.69528" lon="7.26779">
        <ele>10.943848</ele>
        <time>2009-05-31T14:14:31Z</time>
      </trkpt>
      <trkpt lat="43.69532" lon="7.26783">
        <ele>10.982666</ele>
        <time>2009-05-31T14:14:32Z</time>
      </trkpt>
      <trkpt lat="43.69534" lon="7.26787">
        <ele>9.982666</ele>
        <time>2009-05-31T14:14:37Z</time>
      </trkpt>
      <trkpt lat="43.69532" lon="7.26785">
        <ele>10.060059</ele>
        <time>2009-05-31T14:14:43Z</time>
      </trkpt>
      <trkpt lat="43.6953" lon="7.26786">
        <ele>9.540649</ele>
        <time>2009-05-31T14:14:58Z</time>
      </trkpt>
      <trkpt lat="43.6953" lon="7.26786">
        <ele>9.463257</ele>
        <time>2009-05-31T14:15:06Z</time>
      </trkpt>
      <trkpt lat="43.6953" lon="7.26785">
        <ele>8.424561</ele>
        <time>2009-05-31T14:15:10Z</time>
      </trkpt>
      <trkpt lat="43.69532" lon="7.26785">
        <ele>8.424561</ele>
        <time>2009-05-31T14:15:18Z</time>
      </trkpt>
      <trkpt lat="43.69532" lon="7.26787">
        <ele>7.424561</ele>
        <time>2009-05-31T14:15:24Z</time>
      </trkpt>
      <trkpt lat="43.69532" lon="7.26787">
        <ele>6.385864</ele>
        <time>2009-05-31T14:15:38Z</time>
      </trkpt>
      <trkpt lat="43.69532" lon="7.26788">
        <ele>4.943848</ele>
        <time>2009-05-31T14:15:48Z</time>
      </trkpt>
      <trkpt lat="43.69532" lon="7.26788">
        <ele>4.943848</ele>
        <time>2009-05-31T14:15:55Z</time>
      </trkpt>
      <trkpt lat="43.69532" lon="7.2679">
        <ele>4.943848</ele>
        <time>2009-05-31T14:16:03Z</time>
      </trkpt>
      <trkpt lat="43.69532" lon="7.2679">
        <ele>6.866455</ele>
        <time>2009-05-31T14:16:14Z</time>
      </trkpt>
      <trkpt lat="43.69531" lon="7.26792">
        <ele>8.308594</ele>
        <time>2009-05-31T14:16:20Z</time>
      </trkpt>
      <trkpt lat="43.69532" lon="7.26793">
        <ele>8.308594</ele>
        <time>2009-05-31T14:16:30Z</time>
      </trkpt>
      <trkpt lat="43.69532" lon="7.26792">
        <ele>8.308594</ele>
        <time>2009-05-31T14:16:38Z</time>
      </trkpt>
      <trkpt lat="43.69534" lon="7.26792">
        <ele>7.827881</ele>
        <time>2009-05-31T14:16:50Z</time>
      </trkpt>
      <trkpt lat="43.69534" lon="7.26792">
        <ele>8.308594</ele>
        <time>2009-05-31T14:17:00Z</time>
      </trkpt>
      <trkpt lat="43.69535" lon="7.26792">
        <ele>7.347168</ele>
        <time>2009-05-31T14:17:13Z</time>
      </trkpt>
      <trkpt lat="43.69535" lon="7.26792">
        <ele>7.827881</ele>
        <time>2009-05-31T14:17:27Z</time>
      </trkpt>
      <trkpt lat="43.69535" lon="7.26792">
        <ele>7.347168</ele>
        <time>2009-05-31T14:17:48Z</time>
      </trkpt>
      <trkpt lat="43.69535" lon="7.26792">
        <ele>8.789185</ele>
        <time>2009-05-31T14:18:06Z</time>
      </trkpt>
      <trkpt lat="43.69537" lon="7.26792">
        <ele>8.789185</ele>
        <time>2009-05-31T14:18:13Z</time>
      </trkpt>
      <trkpt lat="43.69537" lon="7.26792">
        <ele>8.789185</ele>
        <time>2009-05-31T14:18:14Z</time>
      </trkpt>
    </trkseg>
  </trk>
</gpx>